<?xml version="1.0" encoding="UTF-8" standalone="no" ?>
<gpx xmlns="http://www.topografix.com/GPX/1/1" xmlns:xsi="http://www.w3.org/2001/XMLSchema-instance" xsi:schemaLocation="http://www.topografix.com/GPX/1/1 http://www.topografix.com/GPX/1/1/gpx.xsd" version="1.1" creator="VisuGPX - https://www.visugpx.com">
  <metadata>
    <name>2018-09-15 Bike ride-Ambérieux-Rancé O via Massieux v39k</name>
    <desc><![CDATA[2018-09-15 Bike ride-Ambérieux-Rancé O via Massieux v39k]]></desc>
  </metadata>
  <wpt lat="45.92458" lon="4.73724">
    <ele>174</ele>
    <name><![CDATA[2018-09-15 10:27 (Start)]]></name>
  </wpt>
  <wpt lat="45.9246" lon="4.73711">
    <ele>174</ele>
    <name><![CDATA[2018-09-15 10:27 (End)]]></name>
  </wpt>
  <trk>
    <name><![CDATA[2018-09-15 10:27]]></name>
    <trkseg>
      <trkpt lat="45.92458" lon="4.73724">
        <ele>174</ele>
        <time>2018-09-15T08:27:27.72Z</time>
      </trkpt>
      <trkpt lat="45.92458" lon="4.73713">
        <ele>174</ele>
        <time>2018-09-15T08:27:34Z</time>
      </trkpt>
      <trkpt lat="45.92458" lon="4.73709">
        <ele>174</ele>
        <time>2018-09-15T08:27:35Z</time>
      </trkpt>
      <trkpt lat="45.92466" lon="4.73702">
        <ele>174</ele>
        <time>2018-09-15T08:27:48.992Z</time>
      </trkpt>
      <trkpt lat="45.92467" lon="4.73702">
        <ele>174</ele>
        <time>2018-09-15T08:27:49Z</time>
      </trkpt>
      <trkpt lat="45.92471" lon="4.7369">
        <ele>174</ele>
        <time>2018-09-15T08:27:55Z</time>
      </trkpt>
      <trkpt lat="45.92471" lon="4.73687">
        <ele>174</ele>
        <time>2018-09-15T08:27:56Z</time>
      </trkpt>
      <trkpt lat="45.92471" lon="4.73676">
        <ele>174</ele>
        <time>2018-09-15T08:27:59Z</time>
      </trkpt>
      <trkpt lat="45.92472" lon="4.73672">
        <ele>174</ele>
        <time>2018-09-15T08:28:00Z</time>
      </trkpt>
      <trkpt lat="45.92472" lon="4.73668">
        <ele>174</ele>
        <time>2018-09-15T08:28:01Z</time>
      </trkpt>
      <trkpt lat="45.92475" lon="4.73655">
        <ele>174</ele>
        <time>2018-09-15T08:28:02Z</time>
      </trkpt>
      <trkpt lat="45.92479" lon="4.73646">
        <ele>174</ele>
        <time>2018-09-15T08:28:04Z</time>
      </trkpt>
      <trkpt lat="45.92481" lon="4.73643">
        <ele>174</ele>
        <time>2018-09-15T08:28:05Z</time>
      </trkpt>
      <trkpt lat="45.9249" lon="4.73642">
        <ele>174</ele>
        <time>2018-09-15T08:28:08Z</time>
      </trkpt>
      <trkpt lat="45.92495" lon="4.73643">
        <ele>174</ele>
        <time>2018-09-15T08:28:09Z</time>
      </trkpt>
      <trkpt lat="45.92503" lon="4.73644">
        <ele>174</ele>
        <time>2018-09-15T08:28:11Z</time>
      </trkpt>
      <trkpt lat="45.92507" lon="4.73644">
        <ele>174</ele>
        <time>2018-09-15T08:28:12Z</time>
      </trkpt>
      <trkpt lat="45.92514" lon="4.73643">
        <ele>174</ele>
        <time>2018-09-15T08:28:14Z</time>
      </trkpt>
      <trkpt lat="45.92518" lon="4.73641">
        <ele>173</ele>
        <time>2018-09-15T08:28:15Z</time>
      </trkpt>
      <trkpt lat="45.92523" lon="4.7364">
        <ele>173</ele>
        <time>2018-09-15T08:28:16Z</time>
      </trkpt>
      <trkpt lat="45.92528" lon="4.73641">
        <ele>173</ele>
        <time>2018-09-15T08:28:17Z</time>
      </trkpt>
      <trkpt lat="45.92532" lon="4.7364">
        <ele>173</ele>
        <time>2018-09-15T08:28:18Z</time>
      </trkpt>
      <trkpt lat="45.92538" lon="4.7364">
        <ele>173</ele>
        <time>2018-09-15T08:28:19Z</time>
      </trkpt>
      <trkpt lat="45.92543" lon="4.73639">
        <ele>173</ele>
        <time>2018-09-15T08:28:21.227Z</time>
      </trkpt>
      <trkpt lat="45.92547" lon="4.73639">
        <ele>173</ele>
        <time>2018-09-15T08:28:21Z</time>
      </trkpt>
      <trkpt lat="45.92552" lon="4.73638">
        <ele>173</ele>
        <time>2018-09-15T08:28:22Z</time>
      </trkpt>
      <trkpt lat="45.92557" lon="4.73638">
        <ele>173</ele>
        <time>2018-09-15T08:28:23Z</time>
      </trkpt>
      <trkpt lat="45.92566" lon="4.73633">
        <ele>173</ele>
        <time>2018-09-15T08:28:25Z</time>
      </trkpt>
      <trkpt lat="45.92571" lon="4.73629">
        <ele>173</ele>
        <time>2018-09-15T08:28:26Z</time>
      </trkpt>
      <trkpt lat="45.92575" lon="4.73626">
        <ele>173</ele>
        <time>2018-09-15T08:28:27Z</time>
      </trkpt>
      <trkpt lat="45.92579" lon="4.73623">
        <ele>173</ele>
        <time>2018-09-15T08:28:28Z</time>
      </trkpt>
      <trkpt lat="45.92587" lon="4.73623">
        <ele>173</ele>
        <time>2018-09-15T08:28:30Z</time>
      </trkpt>
      <trkpt lat="45.92593" lon="4.73624">
        <ele>173</ele>
        <time>2018-09-15T08:28:31Z</time>
      </trkpt>
      <trkpt lat="45.92598" lon="4.73624">
        <ele>173</ele>
        <time>2018-09-15T08:28:32Z</time>
      </trkpt>
      <trkpt lat="45.92603" lon="4.73625">
        <ele>173</ele>
        <time>2018-09-15T08:28:33Z</time>
      </trkpt>
      <trkpt lat="45.92608" lon="4.73625">
        <ele>173</ele>
        <time>2018-09-15T08:28:34Z</time>
      </trkpt>
      <trkpt lat="45.92612" lon="4.73629">
        <ele>173</ele>
        <time>2018-09-15T08:28:35Z</time>
      </trkpt>
      <trkpt lat="45.92618" lon="4.73634">
        <ele>173</ele>
        <time>2018-09-15T08:28:36Z</time>
      </trkpt>
      <trkpt lat="45.9262" lon="4.73639">
        <ele>173</ele>
        <time>2018-09-15T08:28:37Z</time>
      </trkpt>
      <trkpt lat="45.92626" lon="4.73648">
        <ele>173</ele>
        <time>2018-09-15T08:28:39Z</time>
      </trkpt>
      <trkpt lat="45.92628" lon="4.73654">
        <ele>173</ele>
        <time>2018-09-15T08:28:40Z</time>
      </trkpt>
      <trkpt lat="45.92631" lon="4.73659">
        <ele>173</ele>
        <time>2018-09-15T08:28:41Z</time>
      </trkpt>
      <trkpt lat="45.92635" lon="4.73666">
        <ele>173</ele>
        <time>2018-09-15T08:28:42Z</time>
      </trkpt>
      <trkpt lat="45.92638" lon="4.7367">
        <ele>173</ele>
        <time>2018-09-15T08:28:43Z</time>
      </trkpt>
      <trkpt lat="45.92642" lon="4.73677">
        <ele>173</ele>
        <time>2018-09-15T08:28:44Z</time>
      </trkpt>
      <trkpt lat="45.92647" lon="4.73682">
        <ele>173</ele>
        <time>2018-09-15T08:28:45Z</time>
      </trkpt>
      <trkpt lat="45.92652" lon="4.73686">
        <ele>173</ele>
        <time>2018-09-15T08:28:46Z</time>
      </trkpt>
      <trkpt lat="45.92656" lon="4.7369">
        <ele>173</ele>
        <time>2018-09-15T08:28:47Z</time>
      </trkpt>
      <trkpt lat="45.92662" lon="4.73693">
        <ele>173</ele>
        <time>2018-09-15T08:28:48Z</time>
      </trkpt>
      <trkpt lat="45.92667" lon="4.73697">
        <ele>173</ele>
        <time>2018-09-15T08:28:49Z</time>
      </trkpt>
      <trkpt lat="45.92672" lon="4.73701">
        <ele>174</ele>
        <time>2018-09-15T08:28:50Z</time>
      </trkpt>
      <trkpt lat="45.92678" lon="4.73704">
        <ele>173</ele>
        <time>2018-09-15T08:28:51Z</time>
      </trkpt>
      <trkpt lat="45.92684" lon="4.73707">
        <ele>173</ele>
        <time>2018-09-15T08:28:52Z</time>
      </trkpt>
      <trkpt lat="45.92689" lon="4.73709">
        <ele>173</ele>
        <time>2018-09-15T08:28:53Z</time>
      </trkpt>
      <trkpt lat="45.92694" lon="4.7371">
        <ele>173</ele>
        <time>2018-09-15T08:28:54Z</time>
      </trkpt>
      <trkpt lat="45.92699" lon="4.73713">
        <ele>173</ele>
        <time>2018-09-15T08:28:55Z</time>
      </trkpt>
      <trkpt lat="45.92704" lon="4.73713">
        <ele>173</ele>
        <time>2018-09-15T08:28:56Z</time>
      </trkpt>
      <trkpt lat="45.92709" lon="4.73715">
        <ele>173</ele>
        <time>2018-09-15T08:28:57Z</time>
      </trkpt>
      <trkpt lat="45.92713" lon="4.73716">
        <ele>173</ele>
        <time>2018-09-15T08:28:58Z</time>
      </trkpt>
      <trkpt lat="45.92721" lon="4.73719">
        <ele>173</ele>
        <time>2018-09-15T08:29:00Z</time>
      </trkpt>
      <trkpt lat="45.92726" lon="4.7372">
        <ele>173</ele>
        <time>2018-09-15T08:29:01Z</time>
      </trkpt>
      <trkpt lat="45.9273" lon="4.73721">
        <ele>173</ele>
        <time>2018-09-15T08:29:02Z</time>
      </trkpt>
      <trkpt lat="45.92734" lon="4.73722">
        <ele>173</ele>
        <time>2018-09-15T08:29:03Z</time>
      </trkpt>
      <trkpt lat="45.92739" lon="4.7372">
        <ele>173</ele>
        <time>2018-09-15T08:29:04Z</time>
      </trkpt>
      <trkpt lat="45.92744" lon="4.73724">
        <ele>173</ele>
        <time>2018-09-15T08:29:05Z</time>
      </trkpt>
      <trkpt lat="45.92753" lon="4.73724">
        <ele>172</ele>
        <time>2018-09-15T08:29:07Z</time>
      </trkpt>
      <trkpt lat="45.92757" lon="4.73725">
        <ele>172</ele>
        <time>2018-09-15T08:29:08Z</time>
      </trkpt>
      <trkpt lat="45.92762" lon="4.73729">
        <ele>172</ele>
        <time>2018-09-15T08:29:09Z</time>
      </trkpt>
      <trkpt lat="45.92765" lon="4.7373">
        <ele>172</ele>
        <time>2018-09-15T08:29:10Z</time>
      </trkpt>
      <trkpt lat="45.92772" lon="4.73733">
        <ele>172</ele>
        <time>2018-09-15T08:29:12Z</time>
      </trkpt>
      <trkpt lat="45.92775" lon="4.73734">
        <ele>172</ele>
        <time>2018-09-15T08:29:13Z</time>
      </trkpt>
      <trkpt lat="45.92782" lon="4.7374">
        <ele>172</ele>
        <time>2018-09-15T08:29:17Z</time>
      </trkpt>
      <trkpt lat="45.92783" lon="4.73742">
        <ele>172</ele>
        <time>2018-09-15T08:29:18Z</time>
      </trkpt>
      <trkpt lat="45.92789" lon="4.7375">
        <ele>172</ele>
        <time>2018-09-15T08:29:19Z</time>
      </trkpt>
      <trkpt lat="45.92792" lon="4.73751">
        <ele>173</ele>
        <time>2018-09-15T08:29:20Z</time>
      </trkpt>
      <trkpt lat="45.92799" lon="4.73756">
        <ele>173</ele>
        <time>2018-09-15T08:29:22Z</time>
      </trkpt>
      <trkpt lat="45.92803" lon="4.73759">
        <ele>173</ele>
        <time>2018-09-15T08:29:23Z</time>
      </trkpt>
      <trkpt lat="45.92808" lon="4.73762">
        <ele>173</ele>
        <time>2018-09-15T08:29:24Z</time>
      </trkpt>
      <trkpt lat="45.92813" lon="4.73764">
        <ele>173</ele>
        <time>2018-09-15T08:29:25Z</time>
      </trkpt>
      <trkpt lat="45.92818" lon="4.73768">
        <ele>173</ele>
        <time>2018-09-15T08:29:26Z</time>
      </trkpt>
      <trkpt lat="45.92823" lon="4.73771">
        <ele>173</ele>
        <time>2018-09-15T08:29:27Z</time>
      </trkpt>
      <trkpt lat="45.92828" lon="4.73774">
        <ele>173</ele>
        <time>2018-09-15T08:29:28Z</time>
      </trkpt>
      <trkpt lat="45.92834" lon="4.73778">
        <ele>172</ele>
        <time>2018-09-15T08:29:29Z</time>
      </trkpt>
      <trkpt lat="45.92838" lon="4.73782">
        <ele>173</ele>
        <time>2018-09-15T08:29:30Z</time>
      </trkpt>
      <trkpt lat="45.92843" lon="4.73784">
        <ele>173</ele>
        <time>2018-09-15T08:29:31Z</time>
      </trkpt>
      <trkpt lat="45.92846" lon="4.73788">
        <ele>173</ele>
        <time>2018-09-15T08:29:32Z</time>
      </trkpt>
      <trkpt lat="45.9285" lon="4.73793">
        <ele>173</ele>
        <time>2018-09-15T08:29:33Z</time>
      </trkpt>
      <trkpt lat="45.92852" lon="4.73798">
        <ele>173</ele>
        <time>2018-09-15T08:29:34Z</time>
      </trkpt>
      <trkpt lat="45.92855" lon="4.73805">
        <ele>173</ele>
        <time>2018-09-15T08:29:35Z</time>
      </trkpt>
      <trkpt lat="45.92856" lon="4.73812">
        <ele>173</ele>
        <time>2018-09-15T08:29:36Z</time>
      </trkpt>
      <trkpt lat="45.92858" lon="4.73819">
        <ele>173</ele>
        <time>2018-09-15T08:29:37Z</time>
      </trkpt>
      <trkpt lat="45.92861" lon="4.73826">
        <ele>173</ele>
        <time>2018-09-15T08:29:38Z</time>
      </trkpt>
      <trkpt lat="45.92862" lon="4.73833">
        <ele>173</ele>
        <time>2018-09-15T08:29:39Z</time>
      </trkpt>
      <trkpt lat="45.92864" lon="4.73841">
        <ele>173</ele>
        <time>2018-09-15T08:29:40Z</time>
      </trkpt>
      <trkpt lat="45.92866" lon="4.73848">
        <ele>173</ele>
        <time>2018-09-15T08:29:41Z</time>
      </trkpt>
      <trkpt lat="45.92869" lon="4.73856">
        <ele>173</ele>
        <time>2018-09-15T08:29:42Z</time>
      </trkpt>
      <trkpt lat="45.9287" lon="4.73861">
        <ele>173</ele>
        <time>2018-09-15T08:29:43Z</time>
      </trkpt>
      <trkpt lat="45.92872" lon="4.73868">
        <ele>173</ele>
        <time>2018-09-15T08:29:44Z</time>
      </trkpt>
      <trkpt lat="45.92873" lon="4.73875">
        <ele>173</ele>
        <time>2018-09-15T08:29:45Z</time>
      </trkpt>
      <trkpt lat="45.92874" lon="4.73887">
        <ele>173</ele>
        <time>2018-09-15T08:29:47Z</time>
      </trkpt>
      <trkpt lat="45.92876" lon="4.73895">
        <ele>173</ele>
        <time>2018-09-15T08:29:48Z</time>
      </trkpt>
      <trkpt lat="45.92876" lon="4.73902">
        <ele>173</ele>
        <time>2018-09-15T08:29:49Z</time>
      </trkpt>
      <trkpt lat="45.92879" lon="4.73912">
        <ele>173</ele>
        <time>2018-09-15T08:29:50Z</time>
      </trkpt>
      <trkpt lat="45.9288" lon="4.73919">
        <ele>172</ele>
        <time>2018-09-15T08:29:51Z</time>
      </trkpt>
      <trkpt lat="45.92881" lon="4.73927">
        <ele>172</ele>
        <time>2018-09-15T08:29:52Z</time>
      </trkpt>
      <trkpt lat="45.92881" lon="4.73935">
        <ele>172</ele>
        <time>2018-09-15T08:29:53Z</time>
      </trkpt>
      <trkpt lat="45.92882" lon="4.73942">
        <ele>172</ele>
        <time>2018-09-15T08:29:54Z</time>
      </trkpt>
      <trkpt lat="45.92882" lon="4.73949">
        <ele>172</ele>
        <time>2018-09-15T08:29:55Z</time>
      </trkpt>
      <trkpt lat="45.92883" lon="4.73957">
        <ele>172</ele>
        <time>2018-09-15T08:29:56Z</time>
      </trkpt>
      <trkpt lat="45.92883" lon="4.73966">
        <ele>172</ele>
        <time>2018-09-15T08:29:58Z</time>
      </trkpt>
      <trkpt lat="45.92881" lon="4.73975">
        <ele>172</ele>
        <time>2018-09-15T08:29:59Z</time>
      </trkpt>
      <trkpt lat="45.92879" lon="4.73987">
        <ele>172</ele>
        <time>2018-09-15T08:30:01Z</time>
      </trkpt>
      <trkpt lat="45.92877" lon="4.73993">
        <ele>172</ele>
        <time>2018-09-15T08:30:02Z</time>
      </trkpt>
      <trkpt lat="45.92877" lon="4.74">
        <ele>172</ele>
        <time>2018-09-15T08:30:03Z</time>
      </trkpt>
      <trkpt lat="45.92875" lon="4.74006">
        <ele>172</ele>
        <time>2018-09-15T08:30:04Z</time>
      </trkpt>
      <trkpt lat="45.92874" lon="4.74013">
        <ele>172</ele>
        <time>2018-09-15T08:30:05Z</time>
      </trkpt>
      <trkpt lat="45.92873" lon="4.7402">
        <ele>172</ele>
        <time>2018-09-15T08:30:06Z</time>
      </trkpt>
      <trkpt lat="45.92871" lon="4.74029">
        <ele>172</ele>
        <time>2018-09-15T08:30:07Z</time>
      </trkpt>
      <trkpt lat="45.92869" lon="4.74037">
        <ele>172</ele>
        <time>2018-09-15T08:30:08Z</time>
      </trkpt>
      <trkpt lat="45.92865" lon="4.74043">
        <ele>172</ele>
        <time>2018-09-15T08:30:09Z</time>
      </trkpt>
      <trkpt lat="45.92862" lon="4.74052">
        <ele>172</ele>
        <time>2018-09-15T08:30:10Z</time>
      </trkpt>
      <trkpt lat="45.92857" lon="4.74057">
        <ele>172</ele>
        <time>2018-09-15T08:30:11Z</time>
      </trkpt>
      <trkpt lat="45.92853" lon="4.74061">
        <ele>172</ele>
        <time>2018-09-15T08:30:12Z</time>
      </trkpt>
      <trkpt lat="45.92848" lon="4.74066">
        <ele>172</ele>
        <time>2018-09-15T08:30:13Z</time>
      </trkpt>
      <trkpt lat="45.92844" lon="4.74069">
        <ele>172</ele>
        <time>2018-09-15T08:30:14Z</time>
      </trkpt>
      <trkpt lat="45.92841" lon="4.74074">
        <ele>172</ele>
        <time>2018-09-15T08:30:15Z</time>
      </trkpt>
      <trkpt lat="45.92837" lon="4.74078">
        <ele>171</ele>
        <time>2018-09-15T08:30:16Z</time>
      </trkpt>
      <trkpt lat="45.92833" lon="4.74083">
        <ele>171</ele>
        <time>2018-09-15T08:30:17Z</time>
      </trkpt>
      <trkpt lat="45.92828" lon="4.74088">
        <ele>171</ele>
        <time>2018-09-15T08:30:18Z</time>
      </trkpt>
      <trkpt lat="45.92823" lon="4.74091">
        <ele>171</ele>
        <time>2018-09-15T08:30:19Z</time>
      </trkpt>
      <trkpt lat="45.9282" lon="4.74098">
        <ele>171</ele>
        <time>2018-09-15T08:30:20Z</time>
      </trkpt>
      <trkpt lat="45.92815" lon="4.74103">
        <ele>172</ele>
        <time>2018-09-15T08:30:21Z</time>
      </trkpt>
      <trkpt lat="45.92811" lon="4.74108">
        <ele>172</ele>
        <time>2018-09-15T08:30:22Z</time>
      </trkpt>
      <trkpt lat="45.92807" lon="4.74112">
        <ele>172</ele>
        <time>2018-09-15T08:30:23Z</time>
      </trkpt>
      <trkpt lat="45.92803" lon="4.74117">
        <ele>172</ele>
        <time>2018-09-15T08:30:24Z</time>
      </trkpt>
      <trkpt lat="45.92798" lon="4.7412">
        <ele>172</ele>
        <time>2018-09-15T08:30:25Z</time>
      </trkpt>
      <trkpt lat="45.92794" lon="4.74125">
        <ele>172</ele>
        <time>2018-09-15T08:30:26Z</time>
      </trkpt>
      <trkpt lat="45.9279" lon="4.74131">
        <ele>172</ele>
        <time>2018-09-15T08:30:27Z</time>
      </trkpt>
      <trkpt lat="45.92785" lon="4.74134">
        <ele>172</ele>
        <time>2018-09-15T08:30:28Z</time>
      </trkpt>
      <trkpt lat="45.9278" lon="4.7414">
        <ele>172</ele>
        <time>2018-09-15T08:30:29Z</time>
      </trkpt>
      <trkpt lat="45.92778" lon="4.74149">
        <ele>172</ele>
        <time>2018-09-15T08:30:30Z</time>
      </trkpt>
      <trkpt lat="45.92774" lon="4.74155">
        <ele>172</ele>
        <time>2018-09-15T08:30:31Z</time>
      </trkpt>
      <trkpt lat="45.92769" lon="4.74159">
        <ele>172</ele>
        <time>2018-09-15T08:30:32Z</time>
      </trkpt>
      <trkpt lat="45.92764" lon="4.74165">
        <ele>172</ele>
        <time>2018-09-15T08:30:33Z</time>
      </trkpt>
      <trkpt lat="45.9276" lon="4.7417">
        <ele>172</ele>
        <time>2018-09-15T08:30:34Z</time>
      </trkpt>
      <trkpt lat="45.92755" lon="4.74175">
        <ele>172</ele>
        <time>2018-09-15T08:30:35Z</time>
      </trkpt>
      <trkpt lat="45.9275" lon="4.74179">
        <ele>172</ele>
        <time>2018-09-15T08:30:36Z</time>
      </trkpt>
      <trkpt lat="45.92745" lon="4.74185">
        <ele>172</ele>
        <time>2018-09-15T08:30:37Z</time>
      </trkpt>
      <trkpt lat="45.92741" lon="4.74191">
        <ele>171</ele>
        <time>2018-09-15T08:30:38Z</time>
      </trkpt>
      <trkpt lat="45.92737" lon="4.74197">
        <ele>171</ele>
        <time>2018-09-15T08:30:39Z</time>
      </trkpt>
      <trkpt lat="45.92732" lon="4.74203">
        <ele>171</ele>
        <time>2018-09-15T08:30:40Z</time>
      </trkpt>
      <trkpt lat="45.92727" lon="4.74208">
        <ele>171</ele>
        <time>2018-09-15T08:30:41Z</time>
      </trkpt>
      <trkpt lat="45.92723" lon="4.74214">
        <ele>171</ele>
        <time>2018-09-15T08:30:42Z</time>
      </trkpt>
      <trkpt lat="45.92718" lon="4.7422">
        <ele>171</ele>
        <time>2018-09-15T08:30:43Z</time>
      </trkpt>
      <trkpt lat="45.92714" lon="4.74226">
        <ele>171</ele>
        <time>2018-09-15T08:30:44Z</time>
      </trkpt>
      <trkpt lat="45.92709" lon="4.74233">
        <ele>171</ele>
        <time>2018-09-15T08:30:45Z</time>
      </trkpt>
      <trkpt lat="45.92704" lon="4.74239">
        <ele>171</ele>
        <time>2018-09-15T08:30:46Z</time>
      </trkpt>
      <trkpt lat="45.92699" lon="4.74245">
        <ele>171</ele>
        <time>2018-09-15T08:30:47Z</time>
      </trkpt>
      <trkpt lat="45.92695" lon="4.74252">
        <ele>171</ele>
        <time>2018-09-15T08:30:48Z</time>
      </trkpt>
      <trkpt lat="45.92691" lon="4.74258">
        <ele>171</ele>
        <time>2018-09-15T08:30:49Z</time>
      </trkpt>
      <trkpt lat="45.92688" lon="4.74266">
        <ele>171</ele>
        <time>2018-09-15T08:30:50Z</time>
      </trkpt>
      <trkpt lat="45.92685" lon="4.74273">
        <ele>171</ele>
        <time>2018-09-15T08:30:51Z</time>
      </trkpt>
      <trkpt lat="45.92681" lon="4.7428">
        <ele>171</ele>
        <time>2018-09-15T08:30:52Z</time>
      </trkpt>
      <trkpt lat="45.92678" lon="4.74287">
        <ele>171</ele>
        <time>2018-09-15T08:30:53Z</time>
      </trkpt>
      <trkpt lat="45.92675" lon="4.74294">
        <ele>171</ele>
        <time>2018-09-15T08:30:54Z</time>
      </trkpt>
      <trkpt lat="45.9267" lon="4.743">
        <ele>171</ele>
        <time>2018-09-15T08:30:55Z</time>
      </trkpt>
      <trkpt lat="45.92666" lon="4.74307">
        <ele>171</ele>
        <time>2018-09-15T08:30:56Z</time>
      </trkpt>
      <trkpt lat="45.92661" lon="4.74313">
        <ele>171</ele>
        <time>2018-09-15T08:30:57Z</time>
      </trkpt>
      <trkpt lat="45.92659" lon="4.74322">
        <ele>171</ele>
        <time>2018-09-15T08:30:58Z</time>
      </trkpt>
      <trkpt lat="45.92654" lon="4.74328">
        <ele>171</ele>
        <time>2018-09-15T08:30:59Z</time>
      </trkpt>
      <trkpt lat="45.92649" lon="4.74334">
        <ele>171</ele>
        <time>2018-09-15T08:31:00Z</time>
      </trkpt>
      <trkpt lat="45.92645" lon="4.74342">
        <ele>171</ele>
        <time>2018-09-15T08:31:01Z</time>
      </trkpt>
      <trkpt lat="45.92642" lon="4.74349">
        <ele>171</ele>
        <time>2018-09-15T08:31:02Z</time>
      </trkpt>
      <trkpt lat="45.92638" lon="4.74356">
        <ele>171</ele>
        <time>2018-09-15T08:31:03Z</time>
      </trkpt>
      <trkpt lat="45.92634" lon="4.74363">
        <ele>171</ele>
        <time>2018-09-15T08:31:04Z</time>
      </trkpt>
      <trkpt lat="45.92631" lon="4.7437">
        <ele>171</ele>
        <time>2018-09-15T08:31:05Z</time>
      </trkpt>
      <trkpt lat="45.92627" lon="4.74377">
        <ele>170</ele>
        <time>2018-09-15T08:31:06Z</time>
      </trkpt>
      <trkpt lat="45.92623" lon="4.74383">
        <ele>170</ele>
        <time>2018-09-15T08:31:07Z</time>
      </trkpt>
      <trkpt lat="45.9262" lon="4.7439">
        <ele>170</ele>
        <time>2018-09-15T08:31:08Z</time>
      </trkpt>
      <trkpt lat="45.92615" lon="4.74396">
        <ele>170</ele>
        <time>2018-09-15T08:31:09Z</time>
      </trkpt>
      <trkpt lat="45.92612" lon="4.74401">
        <ele>170</ele>
        <time>2018-09-15T08:31:10Z</time>
      </trkpt>
      <trkpt lat="45.92608" lon="4.74408">
        <ele>170</ele>
        <time>2018-09-15T08:31:11Z</time>
      </trkpt>
      <trkpt lat="45.92604" lon="4.74415">
        <ele>170</ele>
        <time>2018-09-15T08:31:12Z</time>
      </trkpt>
      <trkpt lat="45.92601" lon="4.74423">
        <ele>170</ele>
        <time>2018-09-15T08:31:13Z</time>
      </trkpt>
      <trkpt lat="45.92597" lon="4.7443">
        <ele>170</ele>
        <time>2018-09-15T08:31:14Z</time>
      </trkpt>
      <trkpt lat="45.92594" lon="4.74437">
        <ele>170</ele>
        <time>2018-09-15T08:31:15Z</time>
      </trkpt>
      <trkpt lat="45.9259" lon="4.74444">
        <ele>170</ele>
        <time>2018-09-15T08:31:16Z</time>
      </trkpt>
      <trkpt lat="45.92586" lon="4.7445">
        <ele>170</ele>
        <time>2018-09-15T08:31:17Z</time>
      </trkpt>
      <trkpt lat="45.92582" lon="4.74457">
        <ele>170</ele>
        <time>2018-09-15T08:31:18Z</time>
      </trkpt>
      <trkpt lat="45.92579" lon="4.74465">
        <ele>170</ele>
        <time>2018-09-15T08:31:19Z</time>
      </trkpt>
      <trkpt lat="45.92575" lon="4.74472">
        <ele>170</ele>
        <time>2018-09-15T08:31:20Z</time>
      </trkpt>
      <trkpt lat="45.9257" lon="4.74479">
        <ele>170</ele>
        <time>2018-09-15T08:31:21Z</time>
      </trkpt>
      <trkpt lat="45.92567" lon="4.74487">
        <ele>170</ele>
        <time>2018-09-15T08:31:22Z</time>
      </trkpt>
      <trkpt lat="45.92562" lon="4.74495">
        <ele>170</ele>
        <time>2018-09-15T08:31:23Z</time>
      </trkpt>
      <trkpt lat="45.92558" lon="4.74502">
        <ele>170</ele>
        <time>2018-09-15T08:31:24Z</time>
      </trkpt>
      <trkpt lat="45.92553" lon="4.7451">
        <ele>170</ele>
        <time>2018-09-15T08:31:25Z</time>
      </trkpt>
      <trkpt lat="45.92549" lon="4.74516">
        <ele>170</ele>
        <time>2018-09-15T08:31:26Z</time>
      </trkpt>
      <trkpt lat="45.92545" lon="4.74525">
        <ele>170</ele>
        <time>2018-09-15T08:31:27Z</time>
      </trkpt>
      <trkpt lat="45.92542" lon="4.74533">
        <ele>171</ele>
        <time>2018-09-15T08:31:28Z</time>
      </trkpt>
      <trkpt lat="45.92537" lon="4.7454">
        <ele>171</ele>
        <time>2018-09-15T08:31:29Z</time>
      </trkpt>
      <trkpt lat="45.92532" lon="4.74546">
        <ele>171</ele>
        <time>2018-09-15T08:31:30Z</time>
      </trkpt>
      <trkpt lat="45.92528" lon="4.74551">
        <ele>171</ele>
        <time>2018-09-15T08:31:31Z</time>
      </trkpt>
      <trkpt lat="45.92523" lon="4.74558">
        <ele>171</ele>
        <time>2018-09-15T08:31:32Z</time>
      </trkpt>
      <trkpt lat="45.92519" lon="4.74563">
        <ele>171</ele>
        <time>2018-09-15T08:31:33Z</time>
      </trkpt>
      <trkpt lat="45.92514" lon="4.74569">
        <ele>171</ele>
        <time>2018-09-15T08:31:34Z</time>
      </trkpt>
      <trkpt lat="45.92509" lon="4.74574">
        <ele>171</ele>
        <time>2018-09-15T08:31:35Z</time>
      </trkpt>
      <trkpt lat="45.92505" lon="4.74579">
        <ele>171</ele>
        <time>2018-09-15T08:31:36Z</time>
      </trkpt>
      <trkpt lat="45.92501" lon="4.74584">
        <ele>171</ele>
        <time>2018-09-15T08:31:37Z</time>
      </trkpt>
      <trkpt lat="45.92496" lon="4.7459">
        <ele>171</ele>
        <time>2018-09-15T08:31:38Z</time>
      </trkpt>
      <trkpt lat="45.92492" lon="4.74597">
        <ele>171</ele>
        <time>2018-09-15T08:31:39Z</time>
      </trkpt>
      <trkpt lat="45.92489" lon="4.74604">
        <ele>171</ele>
        <time>2018-09-15T08:31:40Z</time>
      </trkpt>
      <trkpt lat="45.92485" lon="4.74611">
        <ele>171</ele>
        <time>2018-09-15T08:31:41Z</time>
      </trkpt>
      <trkpt lat="45.92481" lon="4.74617">
        <ele>171</ele>
        <time>2018-09-15T08:31:42Z</time>
      </trkpt>
      <trkpt lat="45.92476" lon="4.74623">
        <ele>171</ele>
        <time>2018-09-15T08:31:43Z</time>
      </trkpt>
      <trkpt lat="45.92471" lon="4.74629">
        <ele>171</ele>
        <time>2018-09-15T08:31:44Z</time>
      </trkpt>
      <trkpt lat="45.92467" lon="4.74637">
        <ele>171</ele>
        <time>2018-09-15T08:31:45Z</time>
      </trkpt>
      <trkpt lat="45.92463" lon="4.74643">
        <ele>171</ele>
        <time>2018-09-15T08:31:46Z</time>
      </trkpt>
      <trkpt lat="45.92459" lon="4.74651">
        <ele>171</ele>
        <time>2018-09-15T08:31:47Z</time>
      </trkpt>
      <trkpt lat="45.92455" lon="4.74658">
        <ele>171</ele>
        <time>2018-09-15T08:31:48Z</time>
      </trkpt>
      <trkpt lat="45.92453" lon="4.74663">
        <ele>171</ele>
        <time>2018-09-15T08:31:49Z</time>
      </trkpt>
      <trkpt lat="45.9245" lon="4.7467">
        <ele>171</ele>
        <time>2018-09-15T08:31:50Z</time>
      </trkpt>
      <trkpt lat="45.92446" lon="4.74677">
        <ele>171</ele>
        <time>2018-09-15T08:31:51Z</time>
      </trkpt>
      <trkpt lat="45.92442" lon="4.74682">
        <ele>171</ele>
        <time>2018-09-15T08:31:52Z</time>
      </trkpt>
      <trkpt lat="45.92441" lon="4.74691">
        <ele>171</ele>
        <time>2018-09-15T08:31:53Z</time>
      </trkpt>
      <trkpt lat="45.92438" lon="4.74699">
        <ele>171</ele>
        <time>2018-09-15T08:31:54Z</time>
      </trkpt>
      <trkpt lat="45.92434" lon="4.74705">
        <ele>171</ele>
        <time>2018-09-15T08:31:55Z</time>
      </trkpt>
      <trkpt lat="45.92431" lon="4.74712">
        <ele>171</ele>
        <time>2018-09-15T08:31:56Z</time>
      </trkpt>
      <trkpt lat="45.92428" lon="4.7472">
        <ele>171</ele>
        <time>2018-09-15T08:31:57Z</time>
      </trkpt>
      <trkpt lat="45.92426" lon="4.74728">
        <ele>171</ele>
        <time>2018-09-15T08:31:58Z</time>
      </trkpt>
      <trkpt lat="45.92423" lon="4.74737">
        <ele>171</ele>
        <time>2018-09-15T08:31:59Z</time>
      </trkpt>
      <trkpt lat="45.92421" lon="4.74746">
        <ele>172</ele>
        <time>2018-09-15T08:32:00Z</time>
      </trkpt>
      <trkpt lat="45.92418" lon="4.74755">
        <ele>172</ele>
        <time>2018-09-15T08:32:01Z</time>
      </trkpt>
      <trkpt lat="45.92416" lon="4.74763">
        <ele>172</ele>
        <time>2018-09-15T08:32:02Z</time>
      </trkpt>
      <trkpt lat="45.92414" lon="4.74772">
        <ele>172</ele>
        <time>2018-09-15T08:32:03Z</time>
      </trkpt>
      <trkpt lat="45.92412" lon="4.74781">
        <ele>171</ele>
        <time>2018-09-15T08:32:04Z</time>
      </trkpt>
      <trkpt lat="45.92411" lon="4.74789">
        <ele>171</ele>
        <time>2018-09-15T08:32:05Z</time>
      </trkpt>
      <trkpt lat="45.92409" lon="4.74797">
        <ele>171</ele>
        <time>2018-09-15T08:32:06Z</time>
      </trkpt>
      <trkpt lat="45.92407" lon="4.74806">
        <ele>171</ele>
        <time>2018-09-15T08:32:07Z</time>
      </trkpt>
      <trkpt lat="45.92405" lon="4.74814">
        <ele>171</ele>
        <time>2018-09-15T08:32:08Z</time>
      </trkpt>
      <trkpt lat="45.92404" lon="4.74824">
        <ele>171</ele>
        <time>2018-09-15T08:32:09Z</time>
      </trkpt>
      <trkpt lat="45.92402" lon="4.74833">
        <ele>171</ele>
        <time>2018-09-15T08:32:10Z</time>
      </trkpt>
      <trkpt lat="45.92399" lon="4.74843">
        <ele>171</ele>
        <time>2018-09-15T08:32:11Z</time>
      </trkpt>
      <trkpt lat="45.92396" lon="4.74851">
        <ele>171</ele>
        <time>2018-09-15T08:32:12Z</time>
      </trkpt>
      <trkpt lat="45.92393" lon="4.7486">
        <ele>171</ele>
        <time>2018-09-15T08:32:13Z</time>
      </trkpt>
      <trkpt lat="45.92389" lon="4.74869">
        <ele>171</ele>
        <time>2018-09-15T08:32:14Z</time>
      </trkpt>
      <trkpt lat="45.92386" lon="4.74877">
        <ele>171</ele>
        <time>2018-09-15T08:32:15Z</time>
      </trkpt>
      <trkpt lat="45.92383" lon="4.74885">
        <ele>171</ele>
        <time>2018-09-15T08:32:16Z</time>
      </trkpt>
      <trkpt lat="45.9238" lon="4.74894">
        <ele>171</ele>
        <time>2018-09-15T08:32:17Z</time>
      </trkpt>
      <trkpt lat="45.92377" lon="4.74903">
        <ele>171</ele>
        <time>2018-09-15T08:32:18Z</time>
      </trkpt>
      <trkpt lat="45.92372" lon="4.74908">
        <ele>171</ele>
        <time>2018-09-15T08:32:19Z</time>
      </trkpt>
      <trkpt lat="45.92369" lon="4.74916">
        <ele>171</ele>
        <time>2018-09-15T08:32:20Z</time>
      </trkpt>
      <trkpt lat="45.92367" lon="4.74923">
        <ele>170</ele>
        <time>2018-09-15T08:32:21Z</time>
      </trkpt>
      <trkpt lat="45.92363" lon="4.74931">
        <ele>170</ele>
        <time>2018-09-15T08:32:22Z</time>
      </trkpt>
      <trkpt lat="45.92361" lon="4.74939">
        <ele>170</ele>
        <time>2018-09-15T08:32:23Z</time>
      </trkpt>
      <trkpt lat="45.92357" lon="4.74946">
        <ele>170</ele>
        <time>2018-09-15T08:32:24Z</time>
      </trkpt>
      <trkpt lat="45.92353" lon="4.74952">
        <ele>170</ele>
        <time>2018-09-15T08:32:25Z</time>
      </trkpt>
      <trkpt lat="45.9235" lon="4.7496">
        <ele>170</ele>
        <time>2018-09-15T08:32:26Z</time>
      </trkpt>
      <trkpt lat="45.92347" lon="4.7497">
        <ele>170</ele>
        <time>2018-09-15T08:32:27Z</time>
      </trkpt>
      <trkpt lat="45.92344" lon="4.74978">
        <ele>170</ele>
        <time>2018-09-15T08:32:28Z</time>
      </trkpt>
      <trkpt lat="45.92341" lon="4.74985">
        <ele>170</ele>
        <time>2018-09-15T08:32:29Z</time>
      </trkpt>
      <trkpt lat="45.92339" lon="4.74994">
        <ele>170</ele>
        <time>2018-09-15T08:32:30Z</time>
      </trkpt>
      <trkpt lat="45.92336" lon="4.75001">
        <ele>170</ele>
        <time>2018-09-15T08:32:31Z</time>
      </trkpt>
      <trkpt lat="45.92332" lon="4.75007">
        <ele>170</ele>
        <time>2018-09-15T08:32:32Z</time>
      </trkpt>
      <trkpt lat="45.92329" lon="4.75014">
        <ele>171</ele>
        <time>2018-09-15T08:32:33Z</time>
      </trkpt>
      <trkpt lat="45.92327" lon="4.75021">
        <ele>171</ele>
        <time>2018-09-15T08:32:34Z</time>
      </trkpt>
      <trkpt lat="45.92323" lon="4.75026">
        <ele>171</ele>
        <time>2018-09-15T08:32:35Z</time>
      </trkpt>
      <trkpt lat="45.92318" lon="4.75031">
        <ele>171</ele>
        <time>2018-09-15T08:32:36Z</time>
      </trkpt>
      <trkpt lat="45.92314" lon="4.75035">
        <ele>171</ele>
        <time>2018-09-15T08:32:37Z</time>
      </trkpt>
      <trkpt lat="45.9231" lon="4.75042">
        <ele>172</ele>
        <time>2018-09-15T08:32:38Z</time>
      </trkpt>
      <trkpt lat="45.92305" lon="4.75048">
        <ele>172</ele>
        <time>2018-09-15T08:32:39Z</time>
      </trkpt>
      <trkpt lat="45.92302" lon="4.75053">
        <ele>172</ele>
        <time>2018-09-15T08:32:40Z</time>
      </trkpt>
      <trkpt lat="45.92299" lon="4.75063">
        <ele>172</ele>
        <time>2018-09-15T08:32:41Z</time>
      </trkpt>
      <trkpt lat="45.92295" lon="4.75069">
        <ele>172</ele>
        <time>2018-09-15T08:32:42Z</time>
      </trkpt>
      <trkpt lat="45.9229" lon="4.75074">
        <ele>172</ele>
        <time>2018-09-15T08:32:43Z</time>
      </trkpt>
      <trkpt lat="45.92285" lon="4.75079">
        <ele>172</ele>
        <time>2018-09-15T08:32:44Z</time>
      </trkpt>
      <trkpt lat="45.92281" lon="4.75085">
        <ele>173</ele>
        <time>2018-09-15T08:32:45Z</time>
      </trkpt>
      <trkpt lat="45.92276" lon="4.75091">
        <ele>173</ele>
        <time>2018-09-15T08:32:46Z</time>
      </trkpt>
      <trkpt lat="45.9227" lon="4.75095">
        <ele>173</ele>
        <time>2018-09-15T08:32:47Z</time>
      </trkpt>
      <trkpt lat="45.92267" lon="4.75105">
        <ele>174</ele>
        <time>2018-09-15T08:32:48Z</time>
      </trkpt>
      <trkpt lat="45.92262" lon="4.7511">
        <ele>174</ele>
        <time>2018-09-15T08:32:49Z</time>
      </trkpt>
      <trkpt lat="45.92258" lon="4.75114">
        <ele>174</ele>
        <time>2018-09-15T08:32:50Z</time>
      </trkpt>
      <trkpt lat="45.92253" lon="4.75119">
        <ele>174</ele>
        <time>2018-09-15T08:32:51Z</time>
      </trkpt>
      <trkpt lat="45.92248" lon="4.75123">
        <ele>174</ele>
        <time>2018-09-15T08:32:52Z</time>
      </trkpt>
      <trkpt lat="45.92244" lon="4.75127">
        <ele>174</ele>
        <time>2018-09-15T08:32:53Z</time>
      </trkpt>
      <trkpt lat="45.9224" lon="4.75131">
        <ele>174</ele>
        <time>2018-09-15T08:32:54Z</time>
      </trkpt>
      <trkpt lat="45.92236" lon="4.75136">
        <ele>174</ele>
        <time>2018-09-15T08:32:55Z</time>
      </trkpt>
      <trkpt lat="45.92234" lon="4.75141">
        <ele>174</ele>
        <time>2018-09-15T08:32:56Z</time>
      </trkpt>
      <trkpt lat="45.92231" lon="4.75146">
        <ele>174</ele>
        <time>2018-09-15T08:32:57Z</time>
      </trkpt>
      <trkpt lat="45.92227" lon="4.7515">
        <ele>174</ele>
        <time>2018-09-15T08:32:58Z</time>
      </trkpt>
      <trkpt lat="45.92221" lon="4.7516">
        <ele>174</ele>
        <time>2018-09-15T08:33:00Z</time>
      </trkpt>
      <trkpt lat="45.92219" lon="4.75165">
        <ele>174</ele>
        <time>2018-09-15T08:33:01Z</time>
      </trkpt>
      <trkpt lat="45.92217" lon="4.75172">
        <ele>175</ele>
        <time>2018-09-15T08:33:02Z</time>
      </trkpt>
      <trkpt lat="45.92214" lon="4.75179">
        <ele>175</ele>
        <time>2018-09-15T08:33:03Z</time>
      </trkpt>
      <trkpt lat="45.92212" lon="4.75185">
        <ele>175</ele>
        <time>2018-09-15T08:33:04Z</time>
      </trkpt>
      <trkpt lat="45.92211" lon="4.75192">
        <ele>175</ele>
        <time>2018-09-15T08:33:05Z</time>
      </trkpt>
      <trkpt lat="45.92209" lon="4.75199">
        <ele>175</ele>
        <time>2018-09-15T08:33:06Z</time>
      </trkpt>
      <trkpt lat="45.92208" lon="4.75207">
        <ele>175</ele>
        <time>2018-09-15T08:33:07Z</time>
      </trkpt>
      <trkpt lat="45.92208" lon="4.75213">
        <ele>175</ele>
        <time>2018-09-15T08:33:08Z</time>
      </trkpt>
      <trkpt lat="45.92208" lon="4.75221">
        <ele>175</ele>
        <time>2018-09-15T08:33:09Z</time>
      </trkpt>
      <trkpt lat="45.92208" lon="4.75228">
        <ele>175</ele>
        <time>2018-09-15T08:33:10Z</time>
      </trkpt>
      <trkpt lat="45.92208" lon="4.75236">
        <ele>175</ele>
        <time>2018-09-15T08:33:11Z</time>
      </trkpt>
      <trkpt lat="45.92207" lon="4.75243">
        <ele>175</ele>
        <time>2018-09-15T08:33:12Z</time>
      </trkpt>
      <trkpt lat="45.92206" lon="4.75249">
        <ele>175</ele>
        <time>2018-09-15T08:33:13Z</time>
      </trkpt>
      <trkpt lat="45.92209" lon="4.75259">
        <ele>176</ele>
        <time>2018-09-15T08:33:14Z</time>
      </trkpt>
      <trkpt lat="45.92209" lon="4.75267">
        <ele>176</ele>
        <time>2018-09-15T08:33:15Z</time>
      </trkpt>
      <trkpt lat="45.92209" lon="4.75273">
        <ele>176</ele>
        <time>2018-09-15T08:33:16Z</time>
      </trkpt>
      <trkpt lat="45.9221" lon="4.7528">
        <ele>176</ele>
        <time>2018-09-15T08:33:17Z</time>
      </trkpt>
      <trkpt lat="45.9221" lon="4.75288">
        <ele>176</ele>
        <time>2018-09-15T08:33:18Z</time>
      </trkpt>
      <trkpt lat="45.92208" lon="4.75294">
        <ele>176</ele>
        <time>2018-09-15T08:33:19Z</time>
      </trkpt>
      <trkpt lat="45.92209" lon="4.75301">
        <ele>176</ele>
        <time>2018-09-15T08:33:20Z</time>
      </trkpt>
      <trkpt lat="45.92208" lon="4.75308">
        <ele>176</ele>
        <time>2018-09-15T08:33:21Z</time>
      </trkpt>
      <trkpt lat="45.92208" lon="4.75316">
        <ele>176</ele>
        <time>2018-09-15T08:33:22Z</time>
      </trkpt>
      <trkpt lat="45.92207" lon="4.75323">
        <ele>176</ele>
        <time>2018-09-15T08:33:23Z</time>
      </trkpt>
      <trkpt lat="45.92207" lon="4.75332">
        <ele>176</ele>
        <time>2018-09-15T08:33:24Z</time>
      </trkpt>
      <trkpt lat="45.92206" lon="4.75338">
        <ele>177</ele>
        <time>2018-09-15T08:33:25Z</time>
      </trkpt>
      <trkpt lat="45.92204" lon="4.75345">
        <ele>177</ele>
        <time>2018-09-15T08:33:26Z</time>
      </trkpt>
      <trkpt lat="45.92202" lon="4.75352">
        <ele>177</ele>
        <time>2018-09-15T08:33:27Z</time>
      </trkpt>
      <trkpt lat="45.92199" lon="4.75357">
        <ele>177</ele>
        <time>2018-09-15T08:33:28Z</time>
      </trkpt>
      <trkpt lat="45.92197" lon="4.75365">
        <ele>177</ele>
        <time>2018-09-15T08:33:29Z</time>
      </trkpt>
      <trkpt lat="45.92195" lon="4.75371">
        <ele>177</ele>
        <time>2018-09-15T08:33:30Z</time>
      </trkpt>
      <trkpt lat="45.92193" lon="4.75379">
        <ele>177</ele>
        <time>2018-09-15T08:33:31Z</time>
      </trkpt>
      <trkpt lat="45.92191" lon="4.75388">
        <ele>177</ele>
        <time>2018-09-15T08:33:32Z</time>
      </trkpt>
      <trkpt lat="45.92188" lon="4.75396">
        <ele>177</ele>
        <time>2018-09-15T08:33:33Z</time>
      </trkpt>
      <trkpt lat="45.92185" lon="4.75401">
        <ele>177</ele>
        <time>2018-09-15T08:33:34Z</time>
      </trkpt>
      <trkpt lat="45.92182" lon="4.75408">
        <ele>177</ele>
        <time>2018-09-15T08:33:35Z</time>
      </trkpt>
      <trkpt lat="45.92179" lon="4.75415">
        <ele>177</ele>
        <time>2018-09-15T08:33:36Z</time>
      </trkpt>
      <trkpt lat="45.92176" lon="4.75422">
        <ele>177</ele>
        <time>2018-09-15T08:33:37Z</time>
      </trkpt>
      <trkpt lat="45.92174" lon="4.75428">
        <ele>177</ele>
        <time>2018-09-15T08:33:38Z</time>
      </trkpt>
      <trkpt lat="45.92173" lon="4.75435">
        <ele>177</ele>
        <time>2018-09-15T08:33:39Z</time>
      </trkpt>
      <trkpt lat="45.9217" lon="4.75441">
        <ele>177</ele>
        <time>2018-09-15T08:33:40Z</time>
      </trkpt>
      <trkpt lat="45.92167" lon="4.75447">
        <ele>176</ele>
        <time>2018-09-15T08:33:41Z</time>
      </trkpt>
      <trkpt lat="45.92164" lon="4.75455">
        <ele>176</ele>
        <time>2018-09-15T08:33:42Z</time>
      </trkpt>
      <trkpt lat="45.92162" lon="4.75462">
        <ele>176</ele>
        <time>2018-09-15T08:33:43Z</time>
      </trkpt>
      <trkpt lat="45.92159" lon="4.75469">
        <ele>176</ele>
        <time>2018-09-15T08:33:44Z</time>
      </trkpt>
      <trkpt lat="45.92155" lon="4.75476">
        <ele>176</ele>
        <time>2018-09-15T08:33:45Z</time>
      </trkpt>
      <trkpt lat="45.92151" lon="4.75483">
        <ele>176</ele>
        <time>2018-09-15T08:33:46Z</time>
      </trkpt>
      <trkpt lat="45.92146" lon="4.75491">
        <ele>176</ele>
        <time>2018-09-15T08:33:47Z</time>
      </trkpt>
      <trkpt lat="45.92142" lon="4.75499">
        <ele>175</ele>
        <time>2018-09-15T08:33:48Z</time>
      </trkpt>
      <trkpt lat="45.92141" lon="4.75509">
        <ele>174</ele>
        <time>2018-09-15T08:33:49Z</time>
      </trkpt>
      <trkpt lat="45.92136" lon="4.75515">
        <ele>174</ele>
        <time>2018-09-15T08:33:50Z</time>
      </trkpt>
      <trkpt lat="45.92132" lon="4.75522">
        <ele>174</ele>
        <time>2018-09-15T08:33:51Z</time>
      </trkpt>
      <trkpt lat="45.92129" lon="4.7553">
        <ele>174</ele>
        <time>2018-09-15T08:33:52Z</time>
      </trkpt>
      <trkpt lat="45.92125" lon="4.75537">
        <ele>174</ele>
        <time>2018-09-15T08:33:53Z</time>
      </trkpt>
      <trkpt lat="45.92121" lon="4.75544">
        <ele>174</ele>
        <time>2018-09-15T08:33:54Z</time>
      </trkpt>
      <trkpt lat="45.92117" lon="4.75552">
        <ele>174</ele>
        <time>2018-09-15T08:33:55Z</time>
      </trkpt>
      <trkpt lat="45.92114" lon="4.75559">
        <ele>174</ele>
        <time>2018-09-15T08:33:56Z</time>
      </trkpt>
      <trkpt lat="45.92112" lon="4.75567">
        <ele>174</ele>
        <time>2018-09-15T08:33:57Z</time>
      </trkpt>
      <trkpt lat="45.9211" lon="4.75575">
        <ele>174</ele>
        <time>2018-09-15T08:33:58Z</time>
      </trkpt>
      <trkpt lat="45.92111" lon="4.75581">
        <ele>174</ele>
        <time>2018-09-15T08:33:59Z</time>
      </trkpt>
      <trkpt lat="45.92113" lon="4.75588">
        <ele>174</ele>
        <time>2018-09-15T08:34:00Z</time>
      </trkpt>
      <trkpt lat="45.92118" lon="4.75595">
        <ele>174</ele>
        <time>2018-09-15T08:34:01Z</time>
      </trkpt>
      <trkpt lat="45.92123" lon="4.75599">
        <ele>174</ele>
        <time>2018-09-15T08:34:02Z</time>
      </trkpt>
      <trkpt lat="45.92128" lon="4.75603">
        <ele>174</ele>
        <time>2018-09-15T08:34:03Z</time>
      </trkpt>
      <trkpt lat="45.92133" lon="4.75609">
        <ele>174</ele>
        <time>2018-09-15T08:34:04Z</time>
      </trkpt>
      <trkpt lat="45.92137" lon="4.75613">
        <ele>174</ele>
        <time>2018-09-15T08:34:05Z</time>
      </trkpt>
      <trkpt lat="45.92142" lon="4.75618">
        <ele>174</ele>
        <time>2018-09-15T08:34:06Z</time>
      </trkpt>
      <trkpt lat="45.92147" lon="4.75622">
        <ele>174</ele>
        <time>2018-09-15T08:34:07Z</time>
      </trkpt>
      <trkpt lat="45.92151" lon="4.75627">
        <ele>174</ele>
        <time>2018-09-15T08:34:08Z</time>
      </trkpt>
      <trkpt lat="45.92156" lon="4.75631">
        <ele>174</ele>
        <time>2018-09-15T08:34:09Z</time>
      </trkpt>
      <trkpt lat="45.9216" lon="4.75636">
        <ele>174</ele>
        <time>2018-09-15T08:34:10Z</time>
      </trkpt>
      <trkpt lat="45.92165" lon="4.7564">
        <ele>174</ele>
        <time>2018-09-15T08:34:11Z</time>
      </trkpt>
      <trkpt lat="45.9217" lon="4.75644">
        <ele>174</ele>
        <time>2018-09-15T08:34:12Z</time>
      </trkpt>
      <trkpt lat="45.92174" lon="4.75648">
        <ele>174</ele>
        <time>2018-09-15T08:34:13Z</time>
      </trkpt>
      <trkpt lat="45.92178" lon="4.75653">
        <ele>174</ele>
        <time>2018-09-15T08:34:14Z</time>
      </trkpt>
      <trkpt lat="45.92182" lon="4.75656">
        <ele>174</ele>
        <time>2018-09-15T08:34:15Z</time>
      </trkpt>
      <trkpt lat="45.92185" lon="4.7566">
        <ele>174</ele>
        <time>2018-09-15T08:34:16Z</time>
      </trkpt>
      <trkpt lat="45.92189" lon="4.75663">
        <ele>174</ele>
        <time>2018-09-15T08:34:17Z</time>
      </trkpt>
      <trkpt lat="45.92193" lon="4.75667">
        <ele>174</ele>
        <time>2018-09-15T08:34:18Z</time>
      </trkpt>
      <trkpt lat="45.92197" lon="4.75672">
        <ele>174</ele>
        <time>2018-09-15T08:34:19Z</time>
      </trkpt>
      <trkpt lat="45.92201" lon="4.75676">
        <ele>174</ele>
        <time>2018-09-15T08:34:20Z</time>
      </trkpt>
      <trkpt lat="45.92206" lon="4.7568">
        <ele>174</ele>
        <time>2018-09-15T08:34:21Z</time>
      </trkpt>
      <trkpt lat="45.92211" lon="4.75683">
        <ele>174</ele>
        <time>2018-09-15T08:34:22Z</time>
      </trkpt>
      <trkpt lat="45.92215" lon="4.75688">
        <ele>174</ele>
        <time>2018-09-15T08:34:23Z</time>
      </trkpt>
      <trkpt lat="45.92219" lon="4.75692">
        <ele>174</ele>
        <time>2018-09-15T08:34:24Z</time>
      </trkpt>
      <trkpt lat="45.92223" lon="4.75696">
        <ele>174</ele>
        <time>2018-09-15T08:34:25Z</time>
      </trkpt>
      <trkpt lat="45.92226" lon="4.75699">
        <ele>174</ele>
        <time>2018-09-15T08:34:26Z</time>
      </trkpt>
      <trkpt lat="45.9223" lon="4.75704">
        <ele>174</ele>
        <time>2018-09-15T08:34:27Z</time>
      </trkpt>
      <trkpt lat="45.92236" lon="4.75713">
        <ele>174</ele>
        <time>2018-09-15T08:34:29Z</time>
      </trkpt>
      <trkpt lat="45.92238" lon="4.75719">
        <ele>174</ele>
        <time>2018-09-15T08:34:30Z</time>
      </trkpt>
      <trkpt lat="45.92241" lon="4.75725">
        <ele>174</ele>
        <time>2018-09-15T08:34:31Z</time>
      </trkpt>
      <trkpt lat="45.92243" lon="4.75731">
        <ele>174</ele>
        <time>2018-09-15T08:34:32Z</time>
      </trkpt>
      <trkpt lat="45.92245" lon="4.75737">
        <ele>174</ele>
        <time>2018-09-15T08:34:33Z</time>
      </trkpt>
      <trkpt lat="45.92246" lon="4.75743">
        <ele>174</ele>
        <time>2018-09-15T08:34:34Z</time>
      </trkpt>
      <trkpt lat="45.92248" lon="4.7575">
        <ele>174</ele>
        <time>2018-09-15T08:34:35Z</time>
      </trkpt>
      <trkpt lat="45.92249" lon="4.75757">
        <ele>174</ele>
        <time>2018-09-15T08:34:36Z</time>
      </trkpt>
      <trkpt lat="45.9225" lon="4.75764">
        <ele>174</ele>
        <time>2018-09-15T08:34:37Z</time>
      </trkpt>
      <trkpt lat="45.92251" lon="4.75773">
        <ele>174</ele>
        <time>2018-09-15T08:34:38Z</time>
      </trkpt>
      <trkpt lat="45.92252" lon="4.7578">
        <ele>174</ele>
        <time>2018-09-15T08:34:39Z</time>
      </trkpt>
      <trkpt lat="45.92254" lon="4.75786">
        <ele>174</ele>
        <time>2018-09-15T08:34:40Z</time>
      </trkpt>
      <trkpt lat="45.92254" lon="4.75794">
        <ele>174</ele>
        <time>2018-09-15T08:34:41Z</time>
      </trkpt>
      <trkpt lat="45.92257" lon="4.758">
        <ele>174</ele>
        <time>2018-09-15T08:34:42Z</time>
      </trkpt>
      <trkpt lat="45.92259" lon="4.75808">
        <ele>174</ele>
        <time>2018-09-15T08:34:43Z</time>
      </trkpt>
      <trkpt lat="45.92262" lon="4.75815">
        <ele>174</ele>
        <time>2018-09-15T08:34:44Z</time>
      </trkpt>
      <trkpt lat="45.92266" lon="4.75822">
        <ele>174</ele>
        <time>2018-09-15T08:34:45Z</time>
      </trkpt>
      <trkpt lat="45.9227" lon="4.75827">
        <ele>174</ele>
        <time>2018-09-15T08:34:46Z</time>
      </trkpt>
      <trkpt lat="45.92274" lon="4.75832">
        <ele>174</ele>
        <time>2018-09-15T08:34:47Z</time>
      </trkpt>
      <trkpt lat="45.92279" lon="4.75836">
        <ele>173</ele>
        <time>2018-09-15T08:34:48Z</time>
      </trkpt>
      <trkpt lat="45.92284" lon="4.75839">
        <ele>173</ele>
        <time>2018-09-15T08:34:49Z</time>
      </trkpt>
      <trkpt lat="45.92289" lon="4.75842">
        <ele>173</ele>
        <time>2018-09-15T08:34:50Z</time>
      </trkpt>
      <trkpt lat="45.92294" lon="4.75844">
        <ele>173</ele>
        <time>2018-09-15T08:34:51Z</time>
      </trkpt>
      <trkpt lat="45.92298" lon="4.75848">
        <ele>173</ele>
        <time>2018-09-15T08:34:52Z</time>
      </trkpt>
      <trkpt lat="45.92303" lon="4.75851">
        <ele>173</ele>
        <time>2018-09-15T08:34:53Z</time>
      </trkpt>
      <trkpt lat="45.92309" lon="4.75855">
        <ele>173</ele>
        <time>2018-09-15T08:34:54Z</time>
      </trkpt>
      <trkpt lat="45.92314" lon="4.75857">
        <ele>173</ele>
        <time>2018-09-15T08:34:55Z</time>
      </trkpt>
      <trkpt lat="45.92319" lon="4.7586">
        <ele>173</ele>
        <time>2018-09-15T08:34:56Z</time>
      </trkpt>
      <trkpt lat="45.92324" lon="4.75864">
        <ele>173</ele>
        <time>2018-09-15T08:34:57Z</time>
      </trkpt>
      <trkpt lat="45.9233" lon="4.75864">
        <ele>173</ele>
        <time>2018-09-15T08:34:58Z</time>
      </trkpt>
      <trkpt lat="45.92335" lon="4.75865">
        <ele>173</ele>
        <time>2018-09-15T08:34:59Z</time>
      </trkpt>
      <trkpt lat="45.9234" lon="4.75869">
        <ele>173</ele>
        <time>2018-09-15T08:35:00Z</time>
      </trkpt>
      <trkpt lat="45.92345" lon="4.7587">
        <ele>173</ele>
        <time>2018-09-15T08:35:01Z</time>
      </trkpt>
      <trkpt lat="45.92351" lon="4.75876">
        <ele>173</ele>
        <time>2018-09-15T08:35:02Z</time>
      </trkpt>
      <trkpt lat="45.92356" lon="4.7588">
        <ele>173</ele>
        <time>2018-09-15T08:35:03Z</time>
      </trkpt>
      <trkpt lat="45.92361" lon="4.75883">
        <ele>173</ele>
        <time>2018-09-15T08:35:04Z</time>
      </trkpt>
      <trkpt lat="45.92366" lon="4.75887">
        <ele>173</ele>
        <time>2018-09-15T08:35:05Z</time>
      </trkpt>
      <trkpt lat="45.92371" lon="4.7589">
        <ele>173</ele>
        <time>2018-09-15T08:35:06Z</time>
      </trkpt>
      <trkpt lat="45.92376" lon="4.75895">
        <ele>173</ele>
        <time>2018-09-15T08:35:07Z</time>
      </trkpt>
      <trkpt lat="45.9238" lon="4.75898">
        <ele>173</ele>
        <time>2018-09-15T08:35:08Z</time>
      </trkpt>
      <trkpt lat="45.92385" lon="4.75899">
        <ele>173</ele>
        <time>2018-09-15T08:35:09Z</time>
      </trkpt>
      <trkpt lat="45.9239" lon="4.75902">
        <ele>173</ele>
        <time>2018-09-15T08:35:10Z</time>
      </trkpt>
      <trkpt lat="45.92394" lon="4.75905">
        <ele>173</ele>
        <time>2018-09-15T08:35:11Z</time>
      </trkpt>
      <trkpt lat="45.92398" lon="4.7591">
        <ele>173</ele>
        <time>2018-09-15T08:35:12Z</time>
      </trkpt>
      <trkpt lat="45.92402" lon="4.75913">
        <ele>172</ele>
        <time>2018-09-15T08:35:13Z</time>
      </trkpt>
      <trkpt lat="45.92407" lon="4.75915">
        <ele>172</ele>
        <time>2018-09-15T08:35:14Z</time>
      </trkpt>
      <trkpt lat="45.92412" lon="4.75918">
        <ele>172</ele>
        <time>2018-09-15T08:35:15Z</time>
      </trkpt>
      <trkpt lat="45.92416" lon="4.75921">
        <ele>172</ele>
        <time>2018-09-15T08:35:16Z</time>
      </trkpt>
      <trkpt lat="45.92421" lon="4.75925">
        <ele>172</ele>
        <time>2018-09-15T08:35:17Z</time>
      </trkpt>
      <trkpt lat="45.92425" lon="4.75929">
        <ele>172</ele>
        <time>2018-09-15T08:35:18Z</time>
      </trkpt>
      <trkpt lat="45.92429" lon="4.75934">
        <ele>172</ele>
        <time>2018-09-15T08:35:19Z</time>
      </trkpt>
      <trkpt lat="45.92434" lon="4.75936">
        <ele>172</ele>
        <time>2018-09-15T08:35:20Z</time>
      </trkpt>
      <trkpt lat="45.92438" lon="4.75939">
        <ele>172</ele>
        <time>2018-09-15T08:35:21Z</time>
      </trkpt>
      <trkpt lat="45.92442" lon="4.75942">
        <ele>172</ele>
        <time>2018-09-15T08:35:22Z</time>
      </trkpt>
      <trkpt lat="45.92449" lon="4.75948">
        <ele>172</ele>
        <time>2018-09-15T08:35:25Z</time>
      </trkpt>
      <trkpt lat="45.92454" lon="4.75952">
        <ele>172</ele>
        <time>2018-09-15T08:35:26Z</time>
      </trkpt>
      <trkpt lat="45.92459" lon="4.75954">
        <ele>172</ele>
        <time>2018-09-15T08:35:27Z</time>
      </trkpt>
      <trkpt lat="45.92463" lon="4.75958">
        <ele>172</ele>
        <time>2018-09-15T08:35:28Z</time>
      </trkpt>
      <trkpt lat="45.9247" lon="4.75962">
        <ele>172</ele>
        <time>2018-09-15T08:35:30Z</time>
      </trkpt>
      <trkpt lat="45.92473" lon="4.75965">
        <ele>172</ele>
        <time>2018-09-15T08:35:31Z</time>
      </trkpt>
      <trkpt lat="45.92481" lon="4.75971">
        <ele>172</ele>
        <time>2018-09-15T08:35:33Z</time>
      </trkpt>
      <trkpt lat="45.92484" lon="4.75974">
        <ele>172</ele>
        <time>2018-09-15T08:35:34Z</time>
      </trkpt>
      <trkpt lat="45.92492" lon="4.7598">
        <ele>172</ele>
        <time>2018-09-15T08:35:36Z</time>
      </trkpt>
      <trkpt lat="45.92495" lon="4.75983">
        <ele>172</ele>
        <time>2018-09-15T08:35:37Z</time>
      </trkpt>
      <trkpt lat="45.92503" lon="4.75988">
        <ele>172</ele>
        <time>2018-09-15T08:35:39Z</time>
      </trkpt>
      <trkpt lat="45.92507" lon="4.75992">
        <ele>172</ele>
        <time>2018-09-15T08:35:40Z</time>
      </trkpt>
      <trkpt lat="45.92511" lon="4.75995">
        <ele>172</ele>
        <time>2018-09-15T08:35:41Z</time>
      </trkpt>
      <trkpt lat="45.92515" lon="4.75998">
        <ele>172</ele>
        <time>2018-09-15T08:35:42Z</time>
      </trkpt>
      <trkpt lat="45.9252" lon="4.76002">
        <ele>172</ele>
        <time>2018-09-15T08:35:43Z</time>
      </trkpt>
      <trkpt lat="45.92524" lon="4.76006">
        <ele>172</ele>
        <time>2018-09-15T08:35:44Z</time>
      </trkpt>
      <trkpt lat="45.92528" lon="4.76009">
        <ele>172</ele>
        <time>2018-09-15T08:35:45Z</time>
      </trkpt>
      <trkpt lat="45.92533" lon="4.76012">
        <ele>172</ele>
        <time>2018-09-15T08:35:46Z</time>
      </trkpt>
      <trkpt lat="45.92541" lon="4.76016">
        <ele>172</ele>
        <time>2018-09-15T08:35:48Z</time>
      </trkpt>
      <trkpt lat="45.92545" lon="4.7602">
        <ele>172</ele>
        <time>2018-09-15T08:35:49Z</time>
      </trkpt>
      <trkpt lat="45.92552" lon="4.76027">
        <ele>172</ele>
        <time>2018-09-15T08:35:51Z</time>
      </trkpt>
      <trkpt lat="45.92556" lon="4.76027">
        <ele>172</ele>
        <time>2018-09-15T08:35:52Z</time>
      </trkpt>
      <trkpt lat="45.9256" lon="4.7603">
        <ele>172</ele>
        <time>2018-09-15T08:35:53Z</time>
      </trkpt>
      <trkpt lat="45.92564" lon="4.76034">
        <ele>172</ele>
        <time>2018-09-15T08:35:54Z</time>
      </trkpt>
      <trkpt lat="45.92568" lon="4.76033">
        <ele>172</ele>
        <time>2018-09-15T08:35:55Z</time>
      </trkpt>
      <trkpt lat="45.92573" lon="4.76035">
        <ele>172</ele>
        <time>2018-09-15T08:35:56Z</time>
      </trkpt>
      <trkpt lat="45.92578" lon="4.76038">
        <ele>172</ele>
        <time>2018-09-15T08:35:57Z</time>
      </trkpt>
      <trkpt lat="45.92583" lon="4.76043">
        <ele>171</ele>
        <time>2018-09-15T08:35:58Z</time>
      </trkpt>
      <trkpt lat="45.92589" lon="4.76048">
        <ele>171</ele>
        <time>2018-09-15T08:35:59Z</time>
      </trkpt>
      <trkpt lat="45.92594" lon="4.76052">
        <ele>171</ele>
        <time>2018-09-15T08:36:00Z</time>
      </trkpt>
      <trkpt lat="45.92598" lon="4.76054">
        <ele>171</ele>
        <time>2018-09-15T08:36:01Z</time>
      </trkpt>
      <trkpt lat="45.92604" lon="4.76058">
        <ele>171</ele>
        <time>2018-09-15T08:36:02Z</time>
      </trkpt>
      <trkpt lat="45.92608" lon="4.76062">
        <ele>171</ele>
        <time>2018-09-15T08:36:03Z</time>
      </trkpt>
      <trkpt lat="45.92613" lon="4.76065">
        <ele>171</ele>
        <time>2018-09-15T08:36:04Z</time>
      </trkpt>
      <trkpt lat="45.92619" lon="4.76069">
        <ele>171</ele>
        <time>2018-09-15T08:36:05Z</time>
      </trkpt>
      <trkpt lat="45.92624" lon="4.76074">
        <ele>171</ele>
        <time>2018-09-15T08:36:06Z</time>
      </trkpt>
      <trkpt lat="45.92628" lon="4.76074">
        <ele>170</ele>
        <time>2018-09-15T08:36:07Z</time>
      </trkpt>
      <trkpt lat="45.92634" lon="4.76078">
        <ele>170</ele>
        <time>2018-09-15T08:36:08Z</time>
      </trkpt>
      <trkpt lat="45.92639" lon="4.76082">
        <ele>170</ele>
        <time>2018-09-15T08:36:09Z</time>
      </trkpt>
      <trkpt lat="45.92646" lon="4.76085">
        <ele>170</ele>
        <time>2018-09-15T08:36:10Z</time>
      </trkpt>
      <trkpt lat="45.92652" lon="4.76089">
        <ele>170</ele>
        <time>2018-09-15T08:36:11Z</time>
      </trkpt>
      <trkpt lat="45.92658" lon="4.76093">
        <ele>170</ele>
        <time>2018-09-15T08:36:12Z</time>
      </trkpt>
      <trkpt lat="45.92664" lon="4.76099">
        <ele>170</ele>
        <time>2018-09-15T08:36:13Z</time>
      </trkpt>
      <trkpt lat="45.9267" lon="4.76103">
        <ele>169</ele>
        <time>2018-09-15T08:36:14Z</time>
      </trkpt>
      <trkpt lat="45.92679" lon="4.76105">
        <ele>169</ele>
        <time>2018-09-15T08:36:15Z</time>
      </trkpt>
      <trkpt lat="45.92685" lon="4.7611">
        <ele>169</ele>
        <time>2018-09-15T08:36:16Z</time>
      </trkpt>
      <trkpt lat="45.92691" lon="4.76116">
        <ele>169</ele>
        <time>2018-09-15T08:36:17Z</time>
      </trkpt>
      <trkpt lat="45.92698" lon="4.7612">
        <ele>169</ele>
        <time>2018-09-15T08:36:18Z</time>
      </trkpt>
      <trkpt lat="45.92704" lon="4.76125">
        <ele>169</ele>
        <time>2018-09-15T08:36:19Z</time>
      </trkpt>
      <trkpt lat="45.9271" lon="4.7613">
        <ele>168</ele>
        <time>2018-09-15T08:36:20Z</time>
      </trkpt>
      <trkpt lat="45.92717" lon="4.76135">
        <ele>168</ele>
        <time>2018-09-15T08:36:21Z</time>
      </trkpt>
      <trkpt lat="45.92723" lon="4.7614">
        <ele>168</ele>
        <time>2018-09-15T08:36:22Z</time>
      </trkpt>
      <trkpt lat="45.92729" lon="4.76145">
        <ele>168</ele>
        <time>2018-09-15T08:36:23Z</time>
      </trkpt>
      <trkpt lat="45.92735" lon="4.76147">
        <ele>168</ele>
        <time>2018-09-15T08:36:24Z</time>
      </trkpt>
      <trkpt lat="45.92741" lon="4.76152">
        <ele>168</ele>
        <time>2018-09-15T08:36:25Z</time>
      </trkpt>
      <trkpt lat="45.92747" lon="4.76157">
        <ele>167</ele>
        <time>2018-09-15T08:36:26Z</time>
      </trkpt>
      <trkpt lat="45.92753" lon="4.76161">
        <ele>167</ele>
        <time>2018-09-15T08:36:27Z</time>
      </trkpt>
      <trkpt lat="45.92758" lon="4.76165">
        <ele>167</ele>
        <time>2018-09-15T08:36:28Z</time>
      </trkpt>
      <trkpt lat="45.92762" lon="4.76172">
        <ele>167</ele>
        <time>2018-09-15T08:36:29Z</time>
      </trkpt>
      <trkpt lat="45.92767" lon="4.76179">
        <ele>167</ele>
        <time>2018-09-15T08:36:30Z</time>
      </trkpt>
      <trkpt lat="45.92773" lon="4.76182">
        <ele>167</ele>
        <time>2018-09-15T08:36:31Z</time>
      </trkpt>
      <trkpt lat="45.92777" lon="4.76185">
        <ele>168</ele>
        <time>2018-09-15T08:36:32Z</time>
      </trkpt>
      <trkpt lat="45.92782" lon="4.76191">
        <ele>168</ele>
        <time>2018-09-15T08:36:33Z</time>
      </trkpt>
      <trkpt lat="45.92787" lon="4.76195">
        <ele>168</ele>
        <time>2018-09-15T08:36:34Z</time>
      </trkpt>
      <trkpt lat="45.92793" lon="4.76201">
        <ele>168</ele>
        <time>2018-09-15T08:36:35Z</time>
      </trkpt>
      <trkpt lat="45.92799" lon="4.76206">
        <ele>168</ele>
        <time>2018-09-15T08:36:36Z</time>
      </trkpt>
      <trkpt lat="45.92803" lon="4.76206">
        <ele>168</ele>
        <time>2018-09-15T08:36:37Z</time>
      </trkpt>
      <trkpt lat="45.92808" lon="4.76212">
        <ele>168</ele>
        <time>2018-09-15T08:36:38Z</time>
      </trkpt>
      <trkpt lat="45.92814" lon="4.76217">
        <ele>168</ele>
        <time>2018-09-15T08:36:39Z</time>
      </trkpt>
      <trkpt lat="45.92819" lon="4.76222">
        <ele>168</ele>
        <time>2018-09-15T08:36:40Z</time>
      </trkpt>
      <trkpt lat="45.92824" lon="4.76226">
        <ele>168</ele>
        <time>2018-09-15T08:36:41Z</time>
      </trkpt>
      <trkpt lat="45.92829" lon="4.76232">
        <ele>168</ele>
        <time>2018-09-15T08:36:42Z</time>
      </trkpt>
      <trkpt lat="45.92834" lon="4.76237">
        <ele>169</ele>
        <time>2018-09-15T08:36:43Z</time>
      </trkpt>
      <trkpt lat="45.92838" lon="4.76242">
        <ele>169</ele>
        <time>2018-09-15T08:36:44Z</time>
      </trkpt>
      <trkpt lat="45.92842" lon="4.76247">
        <ele>169</ele>
        <time>2018-09-15T08:36:45Z</time>
      </trkpt>
      <trkpt lat="45.92846" lon="4.76252">
        <ele>169</ele>
        <time>2018-09-15T08:36:46Z</time>
      </trkpt>
      <trkpt lat="45.9285" lon="4.76256">
        <ele>169</ele>
        <time>2018-09-15T08:36:47Z</time>
      </trkpt>
      <trkpt lat="45.92853" lon="4.76263">
        <ele>169</ele>
        <time>2018-09-15T08:36:48Z</time>
      </trkpt>
      <trkpt lat="45.92858" lon="4.76266">
        <ele>169</ele>
        <time>2018-09-15T08:36:49Z</time>
      </trkpt>
      <trkpt lat="45.92863" lon="4.7627">
        <ele>169</ele>
        <time>2018-09-15T08:36:50Z</time>
      </trkpt>
      <trkpt lat="45.92867" lon="4.76276">
        <ele>169</ele>
        <time>2018-09-15T08:36:51Z</time>
      </trkpt>
      <trkpt lat="45.92872" lon="4.76281">
        <ele>169</ele>
        <time>2018-09-15T08:36:52Z</time>
      </trkpt>
      <trkpt lat="45.92878" lon="4.76286">
        <ele>169</ele>
        <time>2018-09-15T08:36:53Z</time>
      </trkpt>
      <trkpt lat="45.92882" lon="4.76291">
        <ele>169</ele>
        <time>2018-09-15T08:36:54Z</time>
      </trkpt>
      <trkpt lat="45.92887" lon="4.76296">
        <ele>169</ele>
        <time>2018-09-15T08:36:55Z</time>
      </trkpt>
      <trkpt lat="45.92892" lon="4.76301">
        <ele>169</ele>
        <time>2018-09-15T08:36:56Z</time>
      </trkpt>
      <trkpt lat="45.92898" lon="4.76307">
        <ele>169</ele>
        <time>2018-09-15T08:36:57Z</time>
      </trkpt>
      <trkpt lat="45.92905" lon="4.76311">
        <ele>169</ele>
        <time>2018-09-15T08:36:58Z</time>
      </trkpt>
      <trkpt lat="45.92912" lon="4.76318">
        <ele>169</ele>
        <time>2018-09-15T08:37:00Z</time>
      </trkpt>
      <trkpt lat="45.92917" lon="4.76325">
        <ele>169</ele>
        <time>2018-09-15T08:37:01Z</time>
      </trkpt>
      <trkpt lat="45.92921" lon="4.76329">
        <ele>169</ele>
        <time>2018-09-15T08:37:02Z</time>
      </trkpt>
      <trkpt lat="45.92925" lon="4.76334">
        <ele>169</ele>
        <time>2018-09-15T08:37:03Z</time>
      </trkpt>
      <trkpt lat="45.92929" lon="4.76339">
        <ele>169</ele>
        <time>2018-09-15T08:37:04Z</time>
      </trkpt>
      <trkpt lat="45.92934" lon="4.76343">
        <ele>169</ele>
        <time>2018-09-15T08:37:05Z</time>
      </trkpt>
      <trkpt lat="45.92939" lon="4.76349">
        <ele>169</ele>
        <time>2018-09-15T08:37:06Z</time>
      </trkpt>
      <trkpt lat="45.92944" lon="4.76352">
        <ele>169</ele>
        <time>2018-09-15T08:37:07Z</time>
      </trkpt>
      <trkpt lat="45.92949" lon="4.76358">
        <ele>169</ele>
        <time>2018-09-15T08:37:08Z</time>
      </trkpt>
      <trkpt lat="45.92954" lon="4.76363">
        <ele>169</ele>
        <time>2018-09-15T08:37:09Z</time>
      </trkpt>
      <trkpt lat="45.92959" lon="4.76368">
        <ele>169</ele>
        <time>2018-09-15T08:37:10Z</time>
      </trkpt>
      <trkpt lat="45.92964" lon="4.76372">
        <ele>169</ele>
        <time>2018-09-15T08:37:11Z</time>
      </trkpt>
      <trkpt lat="45.92968" lon="4.76377">
        <ele>169</ele>
        <time>2018-09-15T08:37:12Z</time>
      </trkpt>
      <trkpt lat="45.92972" lon="4.76382">
        <ele>169</ele>
        <time>2018-09-15T08:37:13Z</time>
      </trkpt>
      <trkpt lat="45.92976" lon="4.76387">
        <ele>169</ele>
        <time>2018-09-15T08:37:14Z</time>
      </trkpt>
      <trkpt lat="45.9298" lon="4.76392">
        <ele>169</ele>
        <time>2018-09-15T08:37:15Z</time>
      </trkpt>
      <trkpt lat="45.92984" lon="4.76395">
        <ele>169</ele>
        <time>2018-09-15T08:37:16Z</time>
      </trkpt>
      <trkpt lat="45.92988" lon="4.76399">
        <ele>169</ele>
        <time>2018-09-15T08:37:17Z</time>
      </trkpt>
      <trkpt lat="45.92991" lon="4.76406">
        <ele>169</ele>
        <time>2018-09-15T08:37:18Z</time>
      </trkpt>
      <trkpt lat="45.92995" lon="4.7641">
        <ele>169</ele>
        <time>2018-09-15T08:37:19Z</time>
      </trkpt>
      <trkpt lat="45.93" lon="4.76415">
        <ele>169</ele>
        <time>2018-09-15T08:37:20Z</time>
      </trkpt>
      <trkpt lat="45.93005" lon="4.76414">
        <ele>169</ele>
        <time>2018-09-15T08:37:21Z</time>
      </trkpt>
      <trkpt lat="45.9301" lon="4.76417">
        <ele>169</ele>
        <time>2018-09-15T08:37:22Z</time>
      </trkpt>
      <trkpt lat="45.93013" lon="4.76423">
        <ele>169</ele>
        <time>2018-09-15T08:37:23Z</time>
      </trkpt>
      <trkpt lat="45.93016" lon="4.76426">
        <ele>169</ele>
        <time>2018-09-15T08:37:24Z</time>
      </trkpt>
      <trkpt lat="45.93021" lon="4.76431">
        <ele>169</ele>
        <time>2018-09-15T08:37:25Z</time>
      </trkpt>
      <trkpt lat="45.93025" lon="4.76436">
        <ele>169</ele>
        <time>2018-09-15T08:37:26Z</time>
      </trkpt>
      <trkpt lat="45.93031" lon="4.76441">
        <ele>169</ele>
        <time>2018-09-15T08:37:27Z</time>
      </trkpt>
      <trkpt lat="45.93036" lon="4.76445">
        <ele>169</ele>
        <time>2018-09-15T08:37:28Z</time>
      </trkpt>
      <trkpt lat="45.9304" lon="4.7645">
        <ele>169</ele>
        <time>2018-09-15T08:37:29Z</time>
      </trkpt>
      <trkpt lat="45.93045" lon="4.76455">
        <ele>169</ele>
        <time>2018-09-15T08:37:30Z</time>
      </trkpt>
      <trkpt lat="45.9305" lon="4.7646">
        <ele>169</ele>
        <time>2018-09-15T08:37:31Z</time>
      </trkpt>
      <trkpt lat="45.93055" lon="4.76464">
        <ele>169</ele>
        <time>2018-09-15T08:37:32Z</time>
      </trkpt>
      <trkpt lat="45.9306" lon="4.76468">
        <ele>169</ele>
        <time>2018-09-15T08:37:33Z</time>
      </trkpt>
      <trkpt lat="45.93064" lon="4.76472">
        <ele>169</ele>
        <time>2018-09-15T08:37:34Z</time>
      </trkpt>
      <trkpt lat="45.93069" lon="4.76476">
        <ele>169</ele>
        <time>2018-09-15T08:37:35Z</time>
      </trkpt>
      <trkpt lat="45.93074" lon="4.76479">
        <ele>169</ele>
        <time>2018-09-15T08:37:36Z</time>
      </trkpt>
      <trkpt lat="45.93078" lon="4.76483">
        <ele>169</ele>
        <time>2018-09-15T08:37:37Z</time>
      </trkpt>
      <trkpt lat="45.93083" lon="4.76488">
        <ele>170</ele>
        <time>2018-09-15T08:37:38Z</time>
      </trkpt>
      <trkpt lat="45.93087" lon="4.76493">
        <ele>170</ele>
        <time>2018-09-15T08:37:39Z</time>
      </trkpt>
      <trkpt lat="45.93092" lon="4.76498">
        <ele>170</ele>
        <time>2018-09-15T08:37:40Z</time>
      </trkpt>
      <trkpt lat="45.93097" lon="4.76501">
        <ele>170</ele>
        <time>2018-09-15T08:37:41Z</time>
      </trkpt>
      <trkpt lat="45.93101" lon="4.76506">
        <ele>170</ele>
        <time>2018-09-15T08:37:42Z</time>
      </trkpt>
      <trkpt lat="45.93106" lon="4.76511">
        <ele>170</ele>
        <time>2018-09-15T08:37:43Z</time>
      </trkpt>
      <trkpt lat="45.9311" lon="4.76514">
        <ele>170</ele>
        <time>2018-09-15T08:37:44Z</time>
      </trkpt>
      <trkpt lat="45.93114" lon="4.76518">
        <ele>170</ele>
        <time>2018-09-15T08:37:45Z</time>
      </trkpt>
      <trkpt lat="45.93119" lon="4.76522">
        <ele>170</ele>
        <time>2018-09-15T08:37:46Z</time>
      </trkpt>
      <trkpt lat="45.93124" lon="4.76526">
        <ele>170</ele>
        <time>2018-09-15T08:37:47Z</time>
      </trkpt>
      <trkpt lat="45.93127" lon="4.76531">
        <ele>170</ele>
        <time>2018-09-15T08:37:48Z</time>
      </trkpt>
      <trkpt lat="45.93131" lon="4.76534">
        <ele>170</ele>
        <time>2018-09-15T08:37:49Z</time>
      </trkpt>
      <trkpt lat="45.93137" lon="4.76544">
        <ele>170</ele>
        <time>2018-09-15T08:37:51Z</time>
      </trkpt>
      <trkpt lat="45.93141" lon="4.76548">
        <ele>170</ele>
        <time>2018-09-15T08:37:52Z</time>
      </trkpt>
      <trkpt lat="45.93143" lon="4.76552">
        <ele>170</ele>
        <time>2018-09-15T08:37:53Z</time>
      </trkpt>
      <trkpt lat="45.93148" lon="4.76559">
        <ele>170</ele>
        <time>2018-09-15T08:37:54Z</time>
      </trkpt>
      <trkpt lat="45.9315" lon="4.76562">
        <ele>170</ele>
        <time>2018-09-15T08:37:55Z</time>
      </trkpt>
      <trkpt lat="45.93156" lon="4.76568">
        <ele>170</ele>
        <time>2018-09-15T08:37:56Z</time>
      </trkpt>
      <trkpt lat="45.93161" lon="4.76573">
        <ele>170</ele>
        <time>2018-09-15T08:37:57Z</time>
      </trkpt>
      <trkpt lat="45.93166" lon="4.76577">
        <ele>171</ele>
        <time>2018-09-15T08:37:58Z</time>
      </trkpt>
      <trkpt lat="45.93171" lon="4.76583">
        <ele>171</ele>
        <time>2018-09-15T08:37:59Z</time>
      </trkpt>
      <trkpt lat="45.93176" lon="4.76588">
        <ele>171</ele>
        <time>2018-09-15T08:38:00Z</time>
      </trkpt>
      <trkpt lat="45.9318" lon="4.76591">
        <ele>171</ele>
        <time>2018-09-15T08:38:01Z</time>
      </trkpt>
      <trkpt lat="45.93186" lon="4.76594">
        <ele>171</ele>
        <time>2018-09-15T08:38:02Z</time>
      </trkpt>
      <trkpt lat="45.9319" lon="4.76598">
        <ele>170</ele>
        <time>2018-09-15T08:38:03Z</time>
      </trkpt>
      <trkpt lat="45.93194" lon="4.76602">
        <ele>170</ele>
        <time>2018-09-15T08:38:04Z</time>
      </trkpt>
      <trkpt lat="45.93198" lon="4.76606">
        <ele>170</ele>
        <time>2018-09-15T08:38:05Z</time>
      </trkpt>
      <trkpt lat="45.93202" lon="4.76611">
        <ele>170</ele>
        <time>2018-09-15T08:38:06Z</time>
      </trkpt>
      <trkpt lat="45.93208" lon="4.76617">
        <ele>170</ele>
        <time>2018-09-15T08:38:07Z</time>
      </trkpt>
      <trkpt lat="45.93212" lon="4.76621">
        <ele>170</ele>
        <time>2018-09-15T08:38:08Z</time>
      </trkpt>
      <trkpt lat="45.93218" lon="4.76625">
        <ele>170</ele>
        <time>2018-09-15T08:38:09Z</time>
      </trkpt>
      <trkpt lat="45.93222" lon="4.7663">
        <ele>170</ele>
        <time>2018-09-15T08:38:10Z</time>
      </trkpt>
      <trkpt lat="45.93225" lon="4.76636">
        <ele>171</ele>
        <time>2018-09-15T08:38:11Z</time>
      </trkpt>
      <trkpt lat="45.9323" lon="4.7664">
        <ele>171</ele>
        <time>2018-09-15T08:38:12Z</time>
      </trkpt>
      <trkpt lat="45.93234" lon="4.76646">
        <ele>171</ele>
        <time>2018-09-15T08:38:13Z</time>
      </trkpt>
      <trkpt lat="45.93238" lon="4.7665">
        <ele>171</ele>
        <time>2018-09-15T08:38:14Z</time>
      </trkpt>
      <trkpt lat="45.93241" lon="4.76656">
        <ele>171</ele>
        <time>2018-09-15T08:38:15Z</time>
      </trkpt>
      <trkpt lat="45.93244" lon="4.76659">
        <ele>171</ele>
        <time>2018-09-15T08:38:16Z</time>
      </trkpt>
      <trkpt lat="45.93249" lon="4.76663">
        <ele>172</ele>
        <time>2018-09-15T08:38:18Z</time>
      </trkpt>
      <trkpt lat="45.93258" lon="4.76666">
        <ele>171</ele>
        <time>2018-09-15T08:38:19Z</time>
      </trkpt>
      <trkpt lat="45.93262" lon="4.7667">
        <ele>172</ele>
        <time>2018-09-15T08:38:20Z</time>
      </trkpt>
      <trkpt lat="45.93267" lon="4.7667">
        <ele>172</ele>
        <time>2018-09-15T08:38:21Z</time>
      </trkpt>
      <trkpt lat="45.93271" lon="4.76674">
        <ele>172</ele>
        <time>2018-09-15T08:38:22Z</time>
      </trkpt>
      <trkpt lat="45.93274" lon="4.76681">
        <ele>172</ele>
        <time>2018-09-15T08:38:23Z</time>
      </trkpt>
      <trkpt lat="45.93278" lon="4.76685">
        <ele>172</ele>
        <time>2018-09-15T08:38:24Z</time>
      </trkpt>
      <trkpt lat="45.93283" lon="4.7669">
        <ele>172</ele>
        <time>2018-09-15T08:38:25Z</time>
      </trkpt>
      <trkpt lat="45.93288" lon="4.76695">
        <ele>172</ele>
        <time>2018-09-15T08:38:26Z</time>
      </trkpt>
      <trkpt lat="45.93293" lon="4.767">
        <ele>172</ele>
        <time>2018-09-15T08:38:27Z</time>
      </trkpt>
      <trkpt lat="45.93296" lon="4.76703">
        <ele>172</ele>
        <time>2018-09-15T08:38:28Z</time>
      </trkpt>
      <trkpt lat="45.93301" lon="4.76708">
        <ele>172</ele>
        <time>2018-09-15T08:38:29Z</time>
      </trkpt>
      <trkpt lat="45.93305" lon="4.76716">
        <ele>172</ele>
        <time>2018-09-15T08:38:30Z</time>
      </trkpt>
      <trkpt lat="45.93311" lon="4.76721">
        <ele>172</ele>
        <time>2018-09-15T08:38:31Z</time>
      </trkpt>
      <trkpt lat="45.93317" lon="4.7673">
        <ele>172</ele>
        <time>2018-09-15T08:38:33Z</time>
      </trkpt>
      <trkpt lat="45.93322" lon="4.76735">
        <ele>172</ele>
        <time>2018-09-15T08:38:34Z</time>
      </trkpt>
      <trkpt lat="45.93326" lon="4.76739">
        <ele>172</ele>
        <time>2018-09-15T08:38:35Z</time>
      </trkpt>
      <trkpt lat="45.9333" lon="4.76745">
        <ele>173</ele>
        <time>2018-09-15T08:38:36Z</time>
      </trkpt>
      <trkpt lat="45.93335" lon="4.76746">
        <ele>173</ele>
        <time>2018-09-15T08:38:37Z</time>
      </trkpt>
      <trkpt lat="45.93339" lon="4.76751">
        <ele>173</ele>
        <time>2018-09-15T08:38:38Z</time>
      </trkpt>
      <trkpt lat="45.93343" lon="4.76754">
        <ele>173</ele>
        <time>2018-09-15T08:38:39Z</time>
      </trkpt>
      <trkpt lat="45.93349" lon="4.76759">
        <ele>172</ele>
        <time>2018-09-15T08:38:40Z</time>
      </trkpt>
      <trkpt lat="45.93353" lon="4.76763">
        <ele>172</ele>
        <time>2018-09-15T08:38:41Z</time>
      </trkpt>
      <trkpt lat="45.93358" lon="4.76767">
        <ele>172</ele>
        <time>2018-09-15T08:38:42Z</time>
      </trkpt>
      <trkpt lat="45.93361" lon="4.76772">
        <ele>172</ele>
        <time>2018-09-15T08:38:43Z</time>
      </trkpt>
      <trkpt lat="45.93366" lon="4.76777">
        <ele>172</ele>
        <time>2018-09-15T08:38:44Z</time>
      </trkpt>
      <trkpt lat="45.9337" lon="4.76782">
        <ele>172</ele>
        <time>2018-09-15T08:38:45Z</time>
      </trkpt>
      <trkpt lat="45.93375" lon="4.76786">
        <ele>172</ele>
        <time>2018-09-15T08:38:46Z</time>
      </trkpt>
      <trkpt lat="45.93379" lon="4.76791">
        <ele>172</ele>
        <time>2018-09-15T08:38:47Z</time>
      </trkpt>
      <trkpt lat="45.93384" lon="4.76792">
        <ele>172</ele>
        <time>2018-09-15T08:38:48Z</time>
      </trkpt>
      <trkpt lat="45.9339" lon="4.76799">
        <ele>172</ele>
        <time>2018-09-15T08:38:49Z</time>
      </trkpt>
      <trkpt lat="45.93394" lon="4.76804">
        <ele>172</ele>
        <time>2018-09-15T08:38:50Z</time>
      </trkpt>
      <trkpt lat="45.93399" lon="4.76811">
        <ele>172</ele>
        <time>2018-09-15T08:38:51Z</time>
      </trkpt>
      <trkpt lat="45.93403" lon="4.76817">
        <ele>172</ele>
        <time>2018-09-15T08:38:52Z</time>
      </trkpt>
      <trkpt lat="45.93408" lon="4.76825">
        <ele>172</ele>
        <time>2018-09-15T08:38:53Z</time>
      </trkpt>
      <trkpt lat="45.93412" lon="4.76831">
        <ele>172</ele>
        <time>2018-09-15T08:38:54Z</time>
      </trkpt>
      <trkpt lat="45.93417" lon="4.76836">
        <ele>172</ele>
        <time>2018-09-15T08:38:55Z</time>
      </trkpt>
      <trkpt lat="45.9342" lon="4.76843">
        <ele>171</ele>
        <time>2018-09-15T08:38:56Z</time>
      </trkpt>
      <trkpt lat="45.93423" lon="4.76849">
        <ele>171</ele>
        <time>2018-09-15T08:38:57Z</time>
      </trkpt>
      <trkpt lat="45.93426" lon="4.76855">
        <ele>171</ele>
        <time>2018-09-15T08:38:58Z</time>
      </trkpt>
      <trkpt lat="45.93428" lon="4.76861">
        <ele>171</ele>
        <time>2018-09-15T08:38:59Z</time>
      </trkpt>
      <trkpt lat="45.93431" lon="4.76867">
        <ele>171</ele>
        <time>2018-09-15T08:39:00Z</time>
      </trkpt>
      <trkpt lat="45.93433" lon="4.76874">
        <ele>171</ele>
        <time>2018-09-15T08:39:01Z</time>
      </trkpt>
      <trkpt lat="45.93436" lon="4.7688">
        <ele>171</ele>
        <time>2018-09-15T08:39:02Z</time>
      </trkpt>
      <trkpt lat="45.93438" lon="4.76886">
        <ele>170</ele>
        <time>2018-09-15T08:39:03Z</time>
      </trkpt>
      <trkpt lat="45.9344" lon="4.76893">
        <ele>170</ele>
        <time>2018-09-15T08:39:04Z</time>
      </trkpt>
      <trkpt lat="45.93442" lon="4.76901">
        <ele>170</ele>
        <time>2018-09-15T08:39:05Z</time>
      </trkpt>
      <trkpt lat="45.93445" lon="4.76909">
        <ele>170</ele>
        <time>2018-09-15T08:39:06Z</time>
      </trkpt>
      <trkpt lat="45.93448" lon="4.76916">
        <ele>170</ele>
        <time>2018-09-15T08:39:07Z</time>
      </trkpt>
      <trkpt lat="45.93449" lon="4.76926">
        <ele>170</ele>
        <time>2018-09-15T08:39:08Z</time>
      </trkpt>
      <trkpt lat="45.93451" lon="4.76935">
        <ele>170</ele>
        <time>2018-09-15T08:39:09Z</time>
      </trkpt>
      <trkpt lat="45.93452" lon="4.76943">
        <ele>170</ele>
        <time>2018-09-15T08:39:10Z</time>
      </trkpt>
      <trkpt lat="45.93453" lon="4.76952">
        <ele>170</ele>
        <time>2018-09-15T08:39:11Z</time>
      </trkpt>
      <trkpt lat="45.93454" lon="4.7696">
        <ele>170</ele>
        <time>2018-09-15T08:39:12Z</time>
      </trkpt>
      <trkpt lat="45.93455" lon="4.76969">
        <ele>170</ele>
        <time>2018-09-15T08:39:13Z</time>
      </trkpt>
      <trkpt lat="45.93456" lon="4.76977">
        <ele>170</ele>
        <time>2018-09-15T08:39:14Z</time>
      </trkpt>
      <trkpt lat="45.93456" lon="4.76984">
        <ele>170</ele>
        <time>2018-09-15T08:39:15Z</time>
      </trkpt>
      <trkpt lat="45.93457" lon="4.76992">
        <ele>170</ele>
        <time>2018-09-15T08:39:16Z</time>
      </trkpt>
      <trkpt lat="45.93459" lon="4.77001">
        <ele>170</ele>
        <time>2018-09-15T08:39:17Z</time>
      </trkpt>
      <trkpt lat="45.93461" lon="4.77007">
        <ele>170</ele>
        <time>2018-09-15T08:39:18Z</time>
      </trkpt>
      <trkpt lat="45.93461" lon="4.77013">
        <ele>170</ele>
        <time>2018-09-15T08:39:19Z</time>
      </trkpt>
      <trkpt lat="45.93463" lon="4.77021">
        <ele>170</ele>
        <time>2018-09-15T08:39:20Z</time>
      </trkpt>
      <trkpt lat="45.93464" lon="4.77029">
        <ele>170</ele>
        <time>2018-09-15T08:39:21Z</time>
      </trkpt>
      <trkpt lat="45.93465" lon="4.77037">
        <ele>170</ele>
        <time>2018-09-15T08:39:22Z</time>
      </trkpt>
      <trkpt lat="45.93467" lon="4.77045">
        <ele>170</ele>
        <time>2018-09-15T08:39:23Z</time>
      </trkpt>
      <trkpt lat="45.93468" lon="4.77052">
        <ele>170</ele>
        <time>2018-09-15T08:39:24Z</time>
      </trkpt>
      <trkpt lat="45.9347" lon="4.77061">
        <ele>170</ele>
        <time>2018-09-15T08:39:25Z</time>
      </trkpt>
      <trkpt lat="45.93471" lon="4.77068">
        <ele>170</ele>
        <time>2018-09-15T08:39:26Z</time>
      </trkpt>
      <trkpt lat="45.93472" lon="4.77077">
        <ele>170</ele>
        <time>2018-09-15T08:39:27Z</time>
      </trkpt>
      <trkpt lat="45.93473" lon="4.77084">
        <ele>169</ele>
        <time>2018-09-15T08:39:28Z</time>
      </trkpt>
      <trkpt lat="45.93475" lon="4.77092">
        <ele>169</ele>
        <time>2018-09-15T08:39:29Z</time>
      </trkpt>
      <trkpt lat="45.93476" lon="4.771">
        <ele>169</ele>
        <time>2018-09-15T08:39:30Z</time>
      </trkpt>
      <trkpt lat="45.93477" lon="4.77107">
        <ele>169</ele>
        <time>2018-09-15T08:39:31Z</time>
      </trkpt>
      <trkpt lat="45.93478" lon="4.77115">
        <ele>169</ele>
        <time>2018-09-15T08:39:32Z</time>
      </trkpt>
      <trkpt lat="45.9348" lon="4.77124">
        <ele>169</ele>
        <time>2018-09-15T08:39:33Z</time>
      </trkpt>
      <trkpt lat="45.93481" lon="4.77132">
        <ele>169</ele>
        <time>2018-09-15T08:39:34Z</time>
      </trkpt>
      <trkpt lat="45.93483" lon="4.77141">
        <ele>169</ele>
        <time>2018-09-15T08:39:35Z</time>
      </trkpt>
      <trkpt lat="45.93484" lon="4.7715">
        <ele>169</ele>
        <time>2018-09-15T08:39:36Z</time>
      </trkpt>
      <trkpt lat="45.93486" lon="4.77159">
        <ele>169</ele>
        <time>2018-09-15T08:39:37Z</time>
      </trkpt>
      <trkpt lat="45.93488" lon="4.77168">
        <ele>169</ele>
        <time>2018-09-15T08:39:38Z</time>
      </trkpt>
      <trkpt lat="45.93489" lon="4.77176">
        <ele>169</ele>
        <time>2018-09-15T08:39:39Z</time>
      </trkpt>
      <trkpt lat="45.9349" lon="4.77184">
        <ele>169</ele>
        <time>2018-09-15T08:39:40Z</time>
      </trkpt>
      <trkpt lat="45.93493" lon="4.77194">
        <ele>169</ele>
        <time>2018-09-15T08:39:41Z</time>
      </trkpt>
      <trkpt lat="45.93494" lon="4.772">
        <ele>169</ele>
        <time>2018-09-15T08:39:42Z</time>
      </trkpt>
      <trkpt lat="45.93495" lon="4.77207">
        <ele>169</ele>
        <time>2018-09-15T08:39:43Z</time>
      </trkpt>
      <trkpt lat="45.93496" lon="4.77214">
        <ele>169</ele>
        <time>2018-09-15T08:39:44Z</time>
      </trkpt>
      <trkpt lat="45.93498" lon="4.77221">
        <ele>169</ele>
        <time>2018-09-15T08:39:45Z</time>
      </trkpt>
      <trkpt lat="45.93499" lon="4.77228">
        <ele>170</ele>
        <time>2018-09-15T08:39:46Z</time>
      </trkpt>
      <trkpt lat="45.935" lon="4.77235">
        <ele>169</ele>
        <time>2018-09-15T08:39:47Z</time>
      </trkpt>
      <trkpt lat="45.93503" lon="4.77243">
        <ele>170</ele>
        <time>2018-09-15T08:39:48Z</time>
      </trkpt>
      <trkpt lat="45.93505" lon="4.77251">
        <ele>170</ele>
        <time>2018-09-15T08:39:49Z</time>
      </trkpt>
      <trkpt lat="45.93507" lon="4.77258">
        <ele>170</ele>
        <time>2018-09-15T08:39:50Z</time>
      </trkpt>
      <trkpt lat="45.93509" lon="4.77265">
        <ele>170</ele>
        <time>2018-09-15T08:39:51Z</time>
      </trkpt>
      <trkpt lat="45.93511" lon="4.77273">
        <ele>170</ele>
        <time>2018-09-15T08:39:52Z</time>
      </trkpt>
      <trkpt lat="45.93513" lon="4.77281">
        <ele>170</ele>
        <time>2018-09-15T08:39:53Z</time>
      </trkpt>
      <trkpt lat="45.93515" lon="4.7729">
        <ele>170</ele>
        <time>2018-09-15T08:39:54Z</time>
      </trkpt>
      <trkpt lat="45.93517" lon="4.77298">
        <ele>170</ele>
        <time>2018-09-15T08:39:55Z</time>
      </trkpt>
      <trkpt lat="45.93519" lon="4.77305">
        <ele>170</ele>
        <time>2018-09-15T08:39:56Z</time>
      </trkpt>
      <trkpt lat="45.9352" lon="4.77312">
        <ele>170</ele>
        <time>2018-09-15T08:39:57Z</time>
      </trkpt>
      <trkpt lat="45.93521" lon="4.77319">
        <ele>170</ele>
        <time>2018-09-15T08:39:58Z</time>
      </trkpt>
      <trkpt lat="45.93522" lon="4.77325">
        <ele>170</ele>
        <time>2018-09-15T08:39:59Z</time>
      </trkpt>
      <trkpt lat="45.93524" lon="4.77332">
        <ele>170</ele>
        <time>2018-09-15T08:40:00Z</time>
      </trkpt>
      <trkpt lat="45.93525" lon="4.77338">
        <ele>170</ele>
        <time>2018-09-15T08:40:01Z</time>
      </trkpt>
      <trkpt lat="45.93526" lon="4.77346">
        <ele>170</ele>
        <time>2018-09-15T08:40:02Z</time>
      </trkpt>
      <trkpt lat="45.93527" lon="4.77353">
        <ele>170</ele>
        <time>2018-09-15T08:40:03Z</time>
      </trkpt>
      <trkpt lat="45.93529" lon="4.7736">
        <ele>170</ele>
        <time>2018-09-15T08:40:04Z</time>
      </trkpt>
      <trkpt lat="45.93531" lon="4.77368">
        <ele>170</ele>
        <time>2018-09-15T08:40:05Z</time>
      </trkpt>
      <trkpt lat="45.93533" lon="4.77375">
        <ele>170</ele>
        <time>2018-09-15T08:40:06Z</time>
      </trkpt>
      <trkpt lat="45.93534" lon="4.77382">
        <ele>170</ele>
        <time>2018-09-15T08:40:07Z</time>
      </trkpt>
      <trkpt lat="45.93535" lon="4.77389">
        <ele>170</ele>
        <time>2018-09-15T08:40:08Z</time>
      </trkpt>
      <trkpt lat="45.93537" lon="4.77396">
        <ele>170</ele>
        <time>2018-09-15T08:40:09Z</time>
      </trkpt>
      <trkpt lat="45.93539" lon="4.77404">
        <ele>170</ele>
        <time>2018-09-15T08:40:10Z</time>
      </trkpt>
      <trkpt lat="45.9354" lon="4.7741">
        <ele>170</ele>
        <time>2018-09-15T08:40:11Z</time>
      </trkpt>
      <trkpt lat="45.93542" lon="4.77417">
        <ele>170</ele>
        <time>2018-09-15T08:40:12Z</time>
      </trkpt>
      <trkpt lat="45.93543" lon="4.77424">
        <ele>170</ele>
        <time>2018-09-15T08:40:13Z</time>
      </trkpt>
      <trkpt lat="45.93544" lon="4.77431">
        <ele>169</ele>
        <time>2018-09-15T08:40:14Z</time>
      </trkpt>
      <trkpt lat="45.93545" lon="4.77442">
        <ele>169</ele>
        <time>2018-09-15T08:40:16Z</time>
      </trkpt>
      <trkpt lat="45.93549" lon="4.77453">
        <ele>169</ele>
        <time>2018-09-15T08:40:17Z</time>
      </trkpt>
      <trkpt lat="45.9355" lon="4.7746">
        <ele>169</ele>
        <time>2018-09-15T08:40:18Z</time>
      </trkpt>
      <trkpt lat="45.93552" lon="4.7747">
        <ele>169</ele>
        <time>2018-09-15T08:40:19Z</time>
      </trkpt>
      <trkpt lat="45.93554" lon="4.77476">
        <ele>169</ele>
        <time>2018-09-15T08:40:20Z</time>
      </trkpt>
      <trkpt lat="45.93556" lon="4.77483">
        <ele>169</ele>
        <time>2018-09-15T08:40:21Z</time>
      </trkpt>
      <trkpt lat="45.93559" lon="4.77495">
        <ele>169</ele>
        <time>2018-09-15T08:40:23Z</time>
      </trkpt>
      <trkpt lat="45.9356" lon="4.77502">
        <ele>169</ele>
        <time>2018-09-15T08:40:24Z</time>
      </trkpt>
      <trkpt lat="45.93562" lon="4.77509">
        <ele>169</ele>
        <time>2018-09-15T08:40:25Z</time>
      </trkpt>
      <trkpt lat="45.93563" lon="4.77516">
        <ele>169</ele>
        <time>2018-09-15T08:40:26Z</time>
      </trkpt>
      <trkpt lat="45.93565" lon="4.77523">
        <ele>169</ele>
        <time>2018-09-15T08:40:27Z</time>
      </trkpt>
      <trkpt lat="45.93566" lon="4.7753">
        <ele>169</ele>
        <time>2018-09-15T08:40:28Z</time>
      </trkpt>
      <trkpt lat="45.93567" lon="4.77537">
        <ele>169</ele>
        <time>2018-09-15T08:40:29Z</time>
      </trkpt>
      <trkpt lat="45.9357" lon="4.77545">
        <ele>169</ele>
        <time>2018-09-15T08:40:30Z</time>
      </trkpt>
      <trkpt lat="45.93572" lon="4.77552">
        <ele>169</ele>
        <time>2018-09-15T08:40:31Z</time>
      </trkpt>
      <trkpt lat="45.93573" lon="4.77559">
        <ele>169</ele>
        <time>2018-09-15T08:40:32Z</time>
      </trkpt>
      <trkpt lat="45.93577" lon="4.7757">
        <ele>170</ele>
        <time>2018-09-15T08:40:34Z</time>
      </trkpt>
      <trkpt lat="45.93579" lon="4.77575">
        <ele>170</ele>
        <time>2018-09-15T08:40:35Z</time>
      </trkpt>
      <trkpt lat="45.93581" lon="4.77581">
        <ele>170</ele>
        <time>2018-09-15T08:40:36Z</time>
      </trkpt>
      <trkpt lat="45.93583" lon="4.77589">
        <ele>170</ele>
        <time>2018-09-15T08:40:37Z</time>
      </trkpt>
      <trkpt lat="45.93586" lon="4.77596">
        <ele>170</ele>
        <time>2018-09-15T08:40:38Z</time>
      </trkpt>
      <trkpt lat="45.93589" lon="4.77603">
        <ele>170</ele>
        <time>2018-09-15T08:40:39Z</time>
      </trkpt>
      <trkpt lat="45.93591" lon="4.77609">
        <ele>170</ele>
        <time>2018-09-15T08:40:40Z</time>
      </trkpt>
      <trkpt lat="45.93595" lon="4.77618">
        <ele>170</ele>
        <time>2018-09-15T08:40:41Z</time>
      </trkpt>
      <trkpt lat="45.93597" lon="4.77624">
        <ele>170</ele>
        <time>2018-09-15T08:40:42Z</time>
      </trkpt>
      <trkpt lat="45.936" lon="4.77631">
        <ele>169</ele>
        <time>2018-09-15T08:40:43Z</time>
      </trkpt>
      <trkpt lat="45.93603" lon="4.77638">
        <ele>169</ele>
        <time>2018-09-15T08:40:44Z</time>
      </trkpt>
      <trkpt lat="45.93606" lon="4.77645">
        <ele>169</ele>
        <time>2018-09-15T08:40:45Z</time>
      </trkpt>
      <trkpt lat="45.93609" lon="4.77653">
        <ele>169</ele>
        <time>2018-09-15T08:40:46Z</time>
      </trkpt>
      <trkpt lat="45.93612" lon="4.77659">
        <ele>169</ele>
        <time>2018-09-15T08:40:47Z</time>
      </trkpt>
      <trkpt lat="45.93615" lon="4.77665">
        <ele>169</ele>
        <time>2018-09-15T08:40:48Z</time>
      </trkpt>
      <trkpt lat="45.93617" lon="4.77673">
        <ele>169</ele>
        <time>2018-09-15T08:40:49Z</time>
      </trkpt>
      <trkpt lat="45.93623" lon="4.77678">
        <ele>169</ele>
        <time>2018-09-15T08:40:50Z</time>
      </trkpt>
      <trkpt lat="45.93625" lon="4.77684">
        <ele>169</ele>
        <time>2018-09-15T08:40:51Z</time>
      </trkpt>
      <trkpt lat="45.93628" lon="4.77689">
        <ele>169</ele>
        <time>2018-09-15T08:40:52Z</time>
      </trkpt>
      <trkpt lat="45.93631" lon="4.77697">
        <ele>169</ele>
        <time>2018-09-15T08:40:53Z</time>
      </trkpt>
      <trkpt lat="45.93636" lon="4.77706">
        <ele>170</ele>
        <time>2018-09-15T08:40:55Z</time>
      </trkpt>
      <trkpt lat="45.93639" lon="4.77712">
        <ele>170</ele>
        <time>2018-09-15T08:40:56Z</time>
      </trkpt>
      <trkpt lat="45.93642" lon="4.77717">
        <ele>170</ele>
        <time>2018-09-15T08:40:57Z</time>
      </trkpt>
      <trkpt lat="45.93644" lon="4.77723">
        <ele>170</ele>
        <time>2018-09-15T08:40:58Z</time>
      </trkpt>
      <trkpt lat="45.9365" lon="4.77733">
        <ele>170</ele>
        <time>2018-09-15T08:41:00Z</time>
      </trkpt>
      <trkpt lat="45.93653" lon="4.77738">
        <ele>170</ele>
        <time>2018-09-15T08:41:01Z</time>
      </trkpt>
      <trkpt lat="45.93656" lon="4.77744">
        <ele>170</ele>
        <time>2018-09-15T08:41:03Z</time>
      </trkpt>
      <trkpt lat="45.93659" lon="4.77752">
        <ele>171</ele>
        <time>2018-09-15T08:41:04Z</time>
      </trkpt>
      <trkpt lat="45.93665" lon="4.77757">
        <ele>171</ele>
        <time>2018-09-15T08:41:06Z</time>
      </trkpt>
      <trkpt lat="45.93667" lon="4.77762">
        <ele>170</ele>
        <time>2018-09-15T08:41:07Z</time>
      </trkpt>
      <trkpt lat="45.93673" lon="4.7777">
        <ele>170</ele>
        <time>2018-09-15T08:41:09Z</time>
      </trkpt>
      <trkpt lat="45.93676" lon="4.77774">
        <ele>170</ele>
        <time>2018-09-15T08:41:10Z</time>
      </trkpt>
      <trkpt lat="45.93682" lon="4.77781">
        <ele>170</ele>
        <time>2018-09-15T08:41:12Z</time>
      </trkpt>
      <trkpt lat="45.93685" lon="4.77785">
        <ele>170</ele>
        <time>2018-09-15T08:41:13Z</time>
      </trkpt>
      <trkpt lat="45.93691" lon="4.77793">
        <ele>169</ele>
        <time>2018-09-15T08:41:15Z</time>
      </trkpt>
      <trkpt lat="45.93694" lon="4.77798">
        <ele>169</ele>
        <time>2018-09-15T08:41:16Z</time>
      </trkpt>
      <trkpt lat="45.937" lon="4.77805">
        <ele>169</ele>
        <time>2018-09-15T08:41:18Z</time>
      </trkpt>
      <trkpt lat="45.93703" lon="4.77809">
        <ele>169</ele>
        <time>2018-09-15T08:41:19Z</time>
      </trkpt>
      <trkpt lat="45.93709" lon="4.77818">
        <ele>169</ele>
        <time>2018-09-15T08:41:21Z</time>
      </trkpt>
      <trkpt lat="45.93711" lon="4.77822">
        <ele>169</ele>
        <time>2018-09-15T08:41:22Z</time>
      </trkpt>
      <trkpt lat="45.93717" lon="4.77831">
        <ele>168</ele>
        <time>2018-09-15T08:41:24Z</time>
      </trkpt>
      <trkpt lat="45.9372" lon="4.77836">
        <ele>167</ele>
        <time>2018-09-15T08:41:25Z</time>
      </trkpt>
      <trkpt lat="45.93726" lon="4.77843">
        <ele>167</ele>
        <time>2018-09-15T08:41:27Z</time>
      </trkpt>
      <trkpt lat="45.93729" lon="4.77846">
        <ele>167</ele>
        <time>2018-09-15T08:41:28Z</time>
      </trkpt>
      <trkpt lat="45.93736" lon="4.77854">
        <ele>167</ele>
        <time>2018-09-15T08:41:30Z</time>
      </trkpt>
      <trkpt lat="45.93739" lon="4.77859">
        <ele>167</ele>
        <time>2018-09-15T08:41:31Z</time>
      </trkpt>
      <trkpt lat="45.93746" lon="4.77867">
        <ele>167</ele>
        <time>2018-09-15T08:41:33Z</time>
      </trkpt>
      <trkpt lat="45.93747" lon="4.77868">
        <ele>167</ele>
        <time>2018-09-15T08:41:34Z</time>
      </trkpt>
      <trkpt lat="45.93752" lon="4.77874">
        <ele>166</ele>
        <time>2018-09-15T08:41:35Z</time>
      </trkpt>
      <trkpt lat="45.93755" lon="4.77878">
        <ele>166</ele>
        <time>2018-09-15T08:41:36Z</time>
      </trkpt>
      <trkpt lat="45.9376" lon="4.77886">
        <ele>166</ele>
        <time>2018-09-15T08:41:38Z</time>
      </trkpt>
      <trkpt lat="45.93763" lon="4.77891">
        <ele>166</ele>
        <time>2018-09-15T08:41:39Z</time>
      </trkpt>
      <trkpt lat="45.9377" lon="4.779">
        <ele>166</ele>
        <time>2018-09-15T08:41:41Z</time>
      </trkpt>
      <trkpt lat="45.93773" lon="4.77905">
        <ele>166</ele>
        <time>2018-09-15T08:41:42Z</time>
      </trkpt>
      <trkpt lat="45.93777" lon="4.7791">
        <ele>166</ele>
        <time>2018-09-15T08:41:43Z</time>
      </trkpt>
      <trkpt lat="45.9378" lon="4.77915">
        <ele>166</ele>
        <time>2018-09-15T08:41:44Z</time>
      </trkpt>
      <trkpt lat="45.93785" lon="4.77921">
        <ele>168</ele>
        <time>2018-09-15T08:41:45Z</time>
      </trkpt>
      <trkpt lat="45.93788" lon="4.77925">
        <ele>168</ele>
        <time>2018-09-15T08:41:46Z</time>
      </trkpt>
      <trkpt lat="45.93793" lon="4.77932">
        <ele>168</ele>
        <time>2018-09-15T08:41:47Z</time>
      </trkpt>
      <trkpt lat="45.93796" lon="4.77936">
        <ele>169</ele>
        <time>2018-09-15T08:41:48Z</time>
      </trkpt>
      <trkpt lat="45.93799" lon="4.77941">
        <ele>169</ele>
        <time>2018-09-15T08:41:49Z</time>
      </trkpt>
      <trkpt lat="45.93804" lon="4.77945">
        <ele>169</ele>
        <time>2018-09-15T08:41:50Z</time>
      </trkpt>
      <trkpt lat="45.93811" lon="4.77953">
        <ele>170</ele>
        <time>2018-09-15T08:41:52Z</time>
      </trkpt>
      <trkpt lat="45.93815" lon="4.77958">
        <ele>170</ele>
        <time>2018-09-15T08:41:53Z</time>
      </trkpt>
      <trkpt lat="45.93819" lon="4.77963">
        <ele>171</ele>
        <time>2018-09-15T08:41:54Z</time>
      </trkpt>
      <trkpt lat="45.93823" lon="4.77969">
        <ele>171</ele>
        <time>2018-09-15T08:41:55Z</time>
      </trkpt>
      <trkpt lat="45.93826" lon="4.77974">
        <ele>172</ele>
        <time>2018-09-15T08:41:56Z</time>
      </trkpt>
      <trkpt lat="45.9383" lon="4.77979">
        <ele>173</ele>
        <time>2018-09-15T08:41:57Z</time>
      </trkpt>
      <trkpt lat="45.93836" lon="4.77987">
        <ele>179</ele>
        <time>2018-09-15T08:42:00Z</time>
      </trkpt>
      <trkpt lat="45.93839" lon="4.77994">
        <ele>179</ele>
        <time>2018-09-15T08:42:01Z</time>
      </trkpt>
      <trkpt lat="45.9384" lon="4.78002">
        <ele>180</ele>
        <time>2018-09-15T08:42:04Z</time>
      </trkpt>
      <trkpt lat="45.93838" lon="4.78013">
        <ele>181</ele>
        <time>2018-09-15T08:42:05Z</time>
      </trkpt>
      <trkpt lat="45.93839" lon="4.78025">
        <ele>182</ele>
        <time>2018-09-15T08:42:07Z</time>
      </trkpt>
      <trkpt lat="45.93841" lon="4.7803">
        <ele>182</ele>
        <time>2018-09-15T08:42:08Z</time>
      </trkpt>
      <trkpt lat="45.93845" lon="4.7804">
        <ele>182</ele>
        <time>2018-09-15T08:42:10Z</time>
      </trkpt>
      <trkpt lat="45.93846" lon="4.78045">
        <ele>182</ele>
        <time>2018-09-15T08:42:11Z</time>
      </trkpt>
      <trkpt lat="45.93847" lon="4.78052">
        <ele>182</ele>
        <time>2018-09-15T08:42:12Z</time>
      </trkpt>
      <trkpt lat="45.93847" lon="4.78059">
        <ele>182</ele>
        <time>2018-09-15T08:42:13Z</time>
      </trkpt>
      <trkpt lat="45.93847" lon="4.7807">
        <ele>182</ele>
        <time>2018-09-15T08:42:15Z</time>
      </trkpt>
      <trkpt lat="45.93845" lon="4.78075">
        <ele>182</ele>
        <time>2018-09-15T08:42:16Z</time>
      </trkpt>
      <trkpt lat="45.93842" lon="4.7808">
        <ele>181</ele>
        <time>2018-09-15T08:42:17Z</time>
      </trkpt>
      <trkpt lat="45.9384" lon="4.78087">
        <ele>182</ele>
        <time>2018-09-15T08:42:18Z</time>
      </trkpt>
      <trkpt lat="45.93839" lon="4.78094">
        <ele>182</ele>
        <time>2018-09-15T08:42:19Z</time>
      </trkpt>
      <trkpt lat="45.93836" lon="4.78099">
        <ele>183</ele>
        <time>2018-09-15T08:42:20Z</time>
      </trkpt>
      <trkpt lat="45.93835" lon="4.78106">
        <ele>183</ele>
        <time>2018-09-15T08:42:21Z</time>
      </trkpt>
      <trkpt lat="45.93833" lon="4.78112">
        <ele>179</ele>
        <time>2018-09-15T08:42:22Z</time>
      </trkpt>
      <trkpt lat="45.93829" lon="4.78123">
        <ele>180</ele>
        <time>2018-09-15T08:42:24Z</time>
      </trkpt>
      <trkpt lat="45.93827" lon="4.78128">
        <ele>180</ele>
        <time>2018-09-15T08:42:25Z</time>
      </trkpt>
      <trkpt lat="45.93825" lon="4.78138">
        <ele>180</ele>
        <time>2018-09-15T08:42:27Z</time>
      </trkpt>
      <trkpt lat="45.93823" lon="4.78144">
        <ele>180</ele>
        <time>2018-09-15T08:42:28Z</time>
      </trkpt>
      <trkpt lat="45.9382" lon="4.78155">
        <ele>180</ele>
        <time>2018-09-15T08:42:30Z</time>
      </trkpt>
      <trkpt lat="45.9382" lon="4.78166">
        <ele>181</ele>
        <time>2018-09-15T08:42:31Z</time>
      </trkpt>
      <trkpt lat="45.93817" lon="4.78176">
        <ele>182</ele>
        <time>2018-09-15T08:42:33Z</time>
      </trkpt>
      <trkpt lat="45.93815" lon="4.78183">
        <ele>182</ele>
        <time>2018-09-15T08:42:34Z</time>
      </trkpt>
      <trkpt lat="45.93814" lon="4.7819">
        <ele>182</ele>
        <time>2018-09-15T08:42:35Z</time>
      </trkpt>
      <trkpt lat="45.93811" lon="4.78196">
        <ele>182</ele>
        <time>2018-09-15T08:42:36Z</time>
      </trkpt>
      <trkpt lat="45.93809" lon="4.78202">
        <ele>182</ele>
        <time>2018-09-15T08:42:37Z</time>
      </trkpt>
      <trkpt lat="45.93808" lon="4.78209">
        <ele>182</ele>
        <time>2018-09-15T08:42:38Z</time>
      </trkpt>
      <trkpt lat="45.93808" lon="4.78217">
        <ele>182</ele>
        <time>2018-09-15T08:42:39Z</time>
      </trkpt>
      <trkpt lat="45.93806" lon="4.78221">
        <ele>182</ele>
        <time>2018-09-15T08:42:40Z</time>
      </trkpt>
      <trkpt lat="45.93802" lon="4.78226">
        <ele>182</ele>
        <time>2018-09-15T08:42:41Z</time>
      </trkpt>
      <trkpt lat="45.938" lon="4.78231">
        <ele>182</ele>
        <time>2018-09-15T08:42:42Z</time>
      </trkpt>
      <trkpt lat="45.93795" lon="4.78234">
        <ele>182</ele>
        <time>2018-09-15T08:42:43Z</time>
      </trkpt>
      <trkpt lat="45.93791" lon="4.78239">
        <ele>182</ele>
        <time>2018-09-15T08:42:44Z</time>
      </trkpt>
      <trkpt lat="45.9379" lon="4.78247">
        <ele>182</ele>
        <time>2018-09-15T08:42:45Z</time>
      </trkpt>
      <trkpt lat="45.93788" lon="4.78253">
        <ele>183</ele>
        <time>2018-09-15T08:42:46Z</time>
      </trkpt>
      <trkpt lat="45.93788" lon="4.78261">
        <ele>183</ele>
        <time>2018-09-15T08:42:47Z</time>
      </trkpt>
      <trkpt lat="45.93786" lon="4.78268">
        <ele>183</ele>
        <time>2018-09-15T08:42:48Z</time>
      </trkpt>
      <trkpt lat="45.93786" lon="4.78275">
        <ele>183</ele>
        <time>2018-09-15T08:42:49Z</time>
      </trkpt>
      <trkpt lat="45.93784" lon="4.78283">
        <ele>183</ele>
        <time>2018-09-15T08:42:50Z</time>
      </trkpt>
      <trkpt lat="45.93782" lon="4.7829">
        <ele>183</ele>
        <time>2018-09-15T08:42:51Z</time>
      </trkpt>
      <trkpt lat="45.93782" lon="4.78298">
        <ele>183</ele>
        <time>2018-09-15T08:42:52Z</time>
      </trkpt>
      <trkpt lat="45.93778" lon="4.78305">
        <ele>183</ele>
        <time>2018-09-15T08:42:53Z</time>
      </trkpt>
      <trkpt lat="45.93778" lon="4.78315">
        <ele>183</ele>
        <time>2018-09-15T08:42:54Z</time>
      </trkpt>
      <trkpt lat="45.93776" lon="4.78323">
        <ele>183</ele>
        <time>2018-09-15T08:42:55Z</time>
      </trkpt>
      <trkpt lat="45.93774" lon="4.7833">
        <ele>183</ele>
        <time>2018-09-15T08:42:56Z</time>
      </trkpt>
      <trkpt lat="45.93772" lon="4.78336">
        <ele>183</ele>
        <time>2018-09-15T08:42:57Z</time>
      </trkpt>
      <trkpt lat="45.93769" lon="4.78343">
        <ele>183</ele>
        <time>2018-09-15T08:42:58Z</time>
      </trkpt>
      <trkpt lat="45.93769" lon="4.78351">
        <ele>183</ele>
        <time>2018-09-15T08:42:59Z</time>
      </trkpt>
      <trkpt lat="45.93766" lon="4.78357">
        <ele>183</ele>
        <time>2018-09-15T08:43:00Z</time>
      </trkpt>
      <trkpt lat="45.93763" lon="4.78364">
        <ele>183</ele>
        <time>2018-09-15T08:43:01Z</time>
      </trkpt>
      <trkpt lat="45.9376" lon="4.78372">
        <ele>183</ele>
        <time>2018-09-15T08:43:02Z</time>
      </trkpt>
      <trkpt lat="45.9376" lon="4.78381">
        <ele>183</ele>
        <time>2018-09-15T08:43:03Z</time>
      </trkpt>
      <trkpt lat="45.93758" lon="4.78389">
        <ele>183</ele>
        <time>2018-09-15T08:43:04Z</time>
      </trkpt>
      <trkpt lat="45.93755" lon="4.78397">
        <ele>183</ele>
        <time>2018-09-15T08:43:05Z</time>
      </trkpt>
      <trkpt lat="45.93753" lon="4.78404">
        <ele>182</ele>
        <time>2018-09-15T08:43:06Z</time>
      </trkpt>
      <trkpt lat="45.93751" lon="4.78412">
        <ele>182</ele>
        <time>2018-09-15T08:43:07Z</time>
      </trkpt>
      <trkpt lat="45.93749" lon="4.78419">
        <ele>181</ele>
        <time>2018-09-15T08:43:08Z</time>
      </trkpt>
      <trkpt lat="45.93747" lon="4.78426">
        <ele>180</ele>
        <time>2018-09-15T08:43:09Z</time>
      </trkpt>
      <trkpt lat="45.93744" lon="4.78433">
        <ele>180</ele>
        <time>2018-09-15T08:43:10Z</time>
      </trkpt>
      <trkpt lat="45.93747" lon="4.78446">
        <ele>180</ele>
        <time>2018-09-15T08:43:11Z</time>
      </trkpt>
      <trkpt lat="45.93743" lon="4.78454">
        <ele>180</ele>
        <time>2018-09-15T08:43:12Z</time>
      </trkpt>
      <trkpt lat="45.9374" lon="4.78461">
        <ele>180</ele>
        <time>2018-09-15T08:43:13Z</time>
      </trkpt>
      <trkpt lat="45.93738" lon="4.78468">
        <ele>180</ele>
        <time>2018-09-15T08:43:14Z</time>
      </trkpt>
      <trkpt lat="45.93736" lon="4.78476">
        <ele>180</ele>
        <time>2018-09-15T08:43:15Z</time>
      </trkpt>
      <trkpt lat="45.93733" lon="4.78484">
        <ele>180</ele>
        <time>2018-09-15T08:43:16Z</time>
      </trkpt>
      <trkpt lat="45.9373" lon="4.78493">
        <ele>180</ele>
        <time>2018-09-15T08:43:17Z</time>
      </trkpt>
      <trkpt lat="45.93728" lon="4.78502">
        <ele>179</ele>
        <time>2018-09-15T08:43:18Z</time>
      </trkpt>
      <trkpt lat="45.93725" lon="4.78511">
        <ele>179</ele>
        <time>2018-09-15T08:43:19Z</time>
      </trkpt>
      <trkpt lat="45.93721" lon="4.78519">
        <ele>178</ele>
        <time>2018-09-15T08:43:20Z</time>
      </trkpt>
      <trkpt lat="45.9372" lon="4.7853">
        <ele>178</ele>
        <time>2018-09-15T08:43:21Z</time>
      </trkpt>
      <trkpt lat="45.93717" lon="4.78538">
        <ele>178</ele>
        <time>2018-09-15T08:43:22Z</time>
      </trkpt>
      <trkpt lat="45.93714" lon="4.78547">
        <ele>178</ele>
        <time>2018-09-15T08:43:23Z</time>
      </trkpt>
      <trkpt lat="45.93711" lon="4.78556">
        <ele>178</ele>
        <time>2018-09-15T08:43:24Z</time>
      </trkpt>
      <trkpt lat="45.93709" lon="4.78566">
        <ele>177</ele>
        <time>2018-09-15T08:43:25Z</time>
      </trkpt>
      <trkpt lat="45.93707" lon="4.78574">
        <ele>177</ele>
        <time>2018-09-15T08:43:26Z</time>
      </trkpt>
      <trkpt lat="45.93705" lon="4.78583">
        <ele>177</ele>
        <time>2018-09-15T08:43:27Z</time>
      </trkpt>
      <trkpt lat="45.93702" lon="4.78592">
        <ele>176</ele>
        <time>2018-09-15T08:43:29Z</time>
      </trkpt>
      <trkpt lat="45.93703" lon="4.78597">
        <ele>176</ele>
        <time>2018-09-15T08:43:30Z</time>
      </trkpt>
      <trkpt lat="45.93701" lon="4.78607">
        <ele>176</ele>
        <time>2018-09-15T08:43:31Z</time>
      </trkpt>
      <trkpt lat="45.93699" lon="4.78613">
        <ele>176</ele>
        <time>2018-09-15T08:43:32Z</time>
      </trkpt>
      <trkpt lat="45.93698" lon="4.78621">
        <ele>176</ele>
        <time>2018-09-15T08:43:33Z</time>
      </trkpt>
      <trkpt lat="45.93695" lon="4.78625">
        <ele>176</ele>
        <time>2018-09-15T08:43:34Z</time>
      </trkpt>
      <trkpt lat="45.93693" lon="4.78632">
        <ele>176</ele>
        <time>2018-09-15T08:43:35Z</time>
      </trkpt>
      <trkpt lat="45.9369" lon="4.7864">
        <ele>176</ele>
        <time>2018-09-15T08:43:36Z</time>
      </trkpt>
      <trkpt lat="45.93686" lon="4.78648">
        <ele>175</ele>
        <time>2018-09-15T08:43:37Z</time>
      </trkpt>
      <trkpt lat="45.93682" lon="4.78655">
        <ele>175</ele>
        <time>2018-09-15T08:43:38Z</time>
      </trkpt>
      <trkpt lat="45.93679" lon="4.78662">
        <ele>175</ele>
        <time>2018-09-15T08:43:39Z</time>
      </trkpt>
      <trkpt lat="45.93675" lon="4.7867">
        <ele>175</ele>
        <time>2018-09-15T08:43:40Z</time>
      </trkpt>
      <trkpt lat="45.93673" lon="4.78678">
        <ele>175</ele>
        <time>2018-09-15T08:43:41Z</time>
      </trkpt>
      <trkpt lat="45.93669" lon="4.78686">
        <ele>175</ele>
        <time>2018-09-15T08:43:42Z</time>
      </trkpt>
      <trkpt lat="45.93665" lon="4.78693">
        <ele>173</ele>
        <time>2018-09-15T08:43:43Z</time>
      </trkpt>
      <trkpt lat="45.93662" lon="4.78701">
        <ele>173</ele>
        <time>2018-09-15T08:43:44Z</time>
      </trkpt>
      <trkpt lat="45.93659" lon="4.7871">
        <ele>173</ele>
        <time>2018-09-15T08:43:45Z</time>
      </trkpt>
      <trkpt lat="45.93655" lon="4.78718">
        <ele>173</ele>
        <time>2018-09-15T08:43:46Z</time>
      </trkpt>
      <trkpt lat="45.93653" lon="4.78728">
        <ele>174</ele>
        <time>2018-09-15T08:43:47Z</time>
      </trkpt>
      <trkpt lat="45.93649" lon="4.78736">
        <ele>174</ele>
        <time>2018-09-15T08:43:48Z</time>
      </trkpt>
      <trkpt lat="45.93648" lon="4.78744">
        <ele>174</ele>
        <time>2018-09-15T08:43:49Z</time>
      </trkpt>
      <trkpt lat="45.93644" lon="4.78752">
        <ele>174</ele>
        <time>2018-09-15T08:43:50Z</time>
      </trkpt>
      <trkpt lat="45.9364" lon="4.78759">
        <ele>174</ele>
        <time>2018-09-15T08:43:51Z</time>
      </trkpt>
      <trkpt lat="45.9364" lon="4.78772">
        <ele>174</ele>
        <time>2018-09-15T08:43:52Z</time>
      </trkpt>
      <trkpt lat="45.93636" lon="4.7878">
        <ele>174</ele>
        <time>2018-09-15T08:43:53Z</time>
      </trkpt>
      <trkpt lat="45.93631" lon="4.78788">
        <ele>174</ele>
        <time>2018-09-15T08:43:54Z</time>
      </trkpt>
      <trkpt lat="45.93629" lon="4.78796">
        <ele>174</ele>
        <time>2018-09-15T08:43:55Z</time>
      </trkpt>
      <trkpt lat="45.93625" lon="4.78805">
        <ele>174</ele>
        <time>2018-09-15T08:43:56Z</time>
      </trkpt>
      <trkpt lat="45.93622" lon="4.78812">
        <ele>174</ele>
        <time>2018-09-15T08:43:57Z</time>
      </trkpt>
      <trkpt lat="45.93617" lon="4.78819">
        <ele>174</ele>
        <time>2018-09-15T08:43:58Z</time>
      </trkpt>
      <trkpt lat="45.93615" lon="4.7883">
        <ele>173</ele>
        <time>2018-09-15T08:43:59Z</time>
      </trkpt>
      <trkpt lat="45.9361" lon="4.78838">
        <ele>174</ele>
        <time>2018-09-15T08:44:00Z</time>
      </trkpt>
      <trkpt lat="45.93607" lon="4.78846">
        <ele>174</ele>
        <time>2018-09-15T08:44:01Z</time>
      </trkpt>
      <trkpt lat="45.93602" lon="4.78854">
        <ele>174</ele>
        <time>2018-09-15T08:44:02Z</time>
      </trkpt>
      <trkpt lat="45.93596" lon="4.7886">
        <ele>174</ele>
        <time>2018-09-15T08:44:03Z</time>
      </trkpt>
      <trkpt lat="45.93591" lon="4.78867">
        <ele>174</ele>
        <time>2018-09-15T08:44:04Z</time>
      </trkpt>
      <trkpt lat="45.93587" lon="4.78875">
        <ele>173</ele>
        <time>2018-09-15T08:44:05Z</time>
      </trkpt>
      <trkpt lat="45.93583" lon="4.78883">
        <ele>172</ele>
        <time>2018-09-15T08:44:06Z</time>
      </trkpt>
      <trkpt lat="45.9358" lon="4.78891">
        <ele>172</ele>
        <time>2018-09-15T08:44:07Z</time>
      </trkpt>
      <trkpt lat="45.93577" lon="4.78899">
        <ele>172</ele>
        <time>2018-09-15T08:44:08Z</time>
      </trkpt>
      <trkpt lat="45.93572" lon="4.78908">
        <ele>172</ele>
        <time>2018-09-15T08:44:09Z</time>
      </trkpt>
      <trkpt lat="45.93569" lon="4.78916">
        <ele>172</ele>
        <time>2018-09-15T08:44:10Z</time>
      </trkpt>
      <trkpt lat="45.93567" lon="4.78926">
        <ele>172</ele>
        <time>2018-09-15T08:44:11Z</time>
      </trkpt>
      <trkpt lat="45.93565" lon="4.78932">
        <ele>172</ele>
        <time>2018-09-15T08:44:12Z</time>
      </trkpt>
      <trkpt lat="45.93562" lon="4.78942">
        <ele>172</ele>
        <time>2018-09-15T08:44:13Z</time>
      </trkpt>
      <trkpt lat="45.93557" lon="4.78947">
        <ele>172</ele>
        <time>2018-09-15T08:44:14Z</time>
      </trkpt>
      <trkpt lat="45.93553" lon="4.78952">
        <ele>172</ele>
        <time>2018-09-15T08:44:15Z</time>
      </trkpt>
      <trkpt lat="45.93548" lon="4.78955">
        <ele>172</ele>
        <time>2018-09-15T08:44:16Z</time>
      </trkpt>
      <trkpt lat="45.93545" lon="4.78965">
        <ele>172</ele>
        <time>2018-09-15T08:44:17Z</time>
      </trkpt>
      <trkpt lat="45.93539" lon="4.78967">
        <ele>172</ele>
        <time>2018-09-15T08:44:18Z</time>
      </trkpt>
      <trkpt lat="45.93534" lon="4.78973">
        <ele>172</ele>
        <time>2018-09-15T08:44:19Z</time>
      </trkpt>
      <trkpt lat="45.9353" lon="4.78979">
        <ele>172</ele>
        <time>2018-09-15T08:44:20Z</time>
      </trkpt>
      <trkpt lat="45.93532" lon="4.78989">
        <ele>172</ele>
        <time>2018-09-15T08:44:21Z</time>
      </trkpt>
      <trkpt lat="45.93533" lon="4.78998">
        <ele>172</ele>
        <time>2018-09-15T08:44:22Z</time>
      </trkpt>
      <trkpt lat="45.93531" lon="4.79006">
        <ele>173</ele>
        <time>2018-09-15T08:44:23Z</time>
      </trkpt>
      <trkpt lat="45.9353" lon="4.79016">
        <ele>173</ele>
        <time>2018-09-15T08:44:24Z</time>
      </trkpt>
      <trkpt lat="45.93526" lon="4.79024">
        <ele>173</ele>
        <time>2018-09-15T08:44:25Z</time>
      </trkpt>
      <trkpt lat="45.93523" lon="4.79031">
        <ele>173</ele>
        <time>2018-09-15T08:44:26Z</time>
      </trkpt>
      <trkpt lat="45.9352" lon="4.79039">
        <ele>173</ele>
        <time>2018-09-15T08:44:27Z</time>
      </trkpt>
      <trkpt lat="45.93515" lon="4.79046">
        <ele>173</ele>
        <time>2018-09-15T08:44:28Z</time>
      </trkpt>
      <trkpt lat="45.93512" lon="4.79054">
        <ele>173</ele>
        <time>2018-09-15T08:44:29Z</time>
      </trkpt>
      <trkpt lat="45.93508" lon="4.79062">
        <ele>173</ele>
        <time>2018-09-15T08:44:30Z</time>
      </trkpt>
      <trkpt lat="45.93505" lon="4.79069">
        <ele>173</ele>
        <time>2018-09-15T08:44:31Z</time>
      </trkpt>
      <trkpt lat="45.93501" lon="4.79076">
        <ele>173</ele>
        <time>2018-09-15T08:44:32Z</time>
      </trkpt>
      <trkpt lat="45.93498" lon="4.79084">
        <ele>173</ele>
        <time>2018-09-15T08:44:33Z</time>
      </trkpt>
      <trkpt lat="45.93495" lon="4.79093">
        <ele>173</ele>
        <time>2018-09-15T08:44:34Z</time>
      </trkpt>
      <trkpt lat="45.93492" lon="4.791">
        <ele>172</ele>
        <time>2018-09-15T08:44:35Z</time>
      </trkpt>
      <trkpt lat="45.93489" lon="4.79108">
        <ele>172</ele>
        <time>2018-09-15T08:44:36Z</time>
      </trkpt>
      <trkpt lat="45.93485" lon="4.79115">
        <ele>172</ele>
        <time>2018-09-15T08:44:37Z</time>
      </trkpt>
      <trkpt lat="45.93482" lon="4.79123">
        <ele>172</ele>
        <time>2018-09-15T08:44:38Z</time>
      </trkpt>
      <trkpt lat="45.9348" lon="4.79131">
        <ele>172</ele>
        <time>2018-09-15T08:44:39Z</time>
      </trkpt>
      <trkpt lat="45.93477" lon="4.79138">
        <ele>172</ele>
        <time>2018-09-15T08:44:40Z</time>
      </trkpt>
      <trkpt lat="45.93476" lon="4.79148">
        <ele>172</ele>
        <time>2018-09-15T08:44:41Z</time>
      </trkpt>
      <trkpt lat="45.93472" lon="4.79155">
        <ele>172</ele>
        <time>2018-09-15T08:44:42Z</time>
      </trkpt>
      <trkpt lat="45.93469" lon="4.79162">
        <ele>172</ele>
        <time>2018-09-15T08:44:43Z</time>
      </trkpt>
      <trkpt lat="45.93467" lon="4.79171">
        <ele>172</ele>
        <time>2018-09-15T08:44:44Z</time>
      </trkpt>
      <trkpt lat="45.93464" lon="4.79178">
        <ele>172</ele>
        <time>2018-09-15T08:44:45Z</time>
      </trkpt>
      <trkpt lat="45.93462" lon="4.79185">
        <ele>172</ele>
        <time>2018-09-15T08:44:46Z</time>
      </trkpt>
      <trkpt lat="45.93459" lon="4.79192">
        <ele>172</ele>
        <time>2018-09-15T08:44:47Z</time>
      </trkpt>
      <trkpt lat="45.93457" lon="4.79199">
        <ele>172</ele>
        <time>2018-09-15T08:44:48Z</time>
      </trkpt>
      <trkpt lat="45.93456" lon="4.79206">
        <ele>172</ele>
        <time>2018-09-15T08:44:49Z</time>
      </trkpt>
      <trkpt lat="45.93452" lon="4.79212">
        <ele>172</ele>
        <time>2018-09-15T08:44:50Z</time>
      </trkpt>
      <trkpt lat="45.93448" lon="4.79217">
        <ele>172</ele>
        <time>2018-09-15T08:44:51Z</time>
      </trkpt>
      <trkpt lat="45.93447" lon="4.79227">
        <ele>172</ele>
        <time>2018-09-15T08:44:52Z</time>
      </trkpt>
      <trkpt lat="45.93444" lon="4.79235">
        <ele>172</ele>
        <time>2018-09-15T08:44:53Z</time>
      </trkpt>
      <trkpt lat="45.93442" lon="4.79241">
        <ele>172</ele>
        <time>2018-09-15T08:44:54Z</time>
      </trkpt>
      <trkpt lat="45.93439" lon="4.79249">
        <ele>172</ele>
        <time>2018-09-15T08:44:55Z</time>
      </trkpt>
      <trkpt lat="45.93436" lon="4.79255">
        <ele>172</ele>
        <time>2018-09-15T08:44:56Z</time>
      </trkpt>
      <trkpt lat="45.93433" lon="4.79263">
        <ele>172</ele>
        <time>2018-09-15T08:44:57Z</time>
      </trkpt>
      <trkpt lat="45.9343" lon="4.79271">
        <ele>172</ele>
        <time>2018-09-15T08:44:58Z</time>
      </trkpt>
      <trkpt lat="45.93427" lon="4.79278">
        <ele>172</ele>
        <time>2018-09-15T08:44:59Z</time>
      </trkpt>
      <trkpt lat="45.93425" lon="4.79287">
        <ele>172</ele>
        <time>2018-09-15T08:45:00Z</time>
      </trkpt>
      <trkpt lat="45.93422" lon="4.79292">
        <ele>172</ele>
        <time>2018-09-15T08:45:01Z</time>
      </trkpt>
      <trkpt lat="45.93418" lon="4.79299">
        <ele>172</ele>
        <time>2018-09-15T08:45:02Z</time>
      </trkpt>
      <trkpt lat="45.93416" lon="4.79305">
        <ele>171</ele>
        <time>2018-09-15T08:45:03Z</time>
      </trkpt>
      <trkpt lat="45.93415" lon="4.79316">
        <ele>171</ele>
        <time>2018-09-15T08:45:04Z</time>
      </trkpt>
      <trkpt lat="45.93413" lon="4.79322">
        <ele>172</ele>
        <time>2018-09-15T08:45:05Z</time>
      </trkpt>
      <trkpt lat="45.9341" lon="4.79329">
        <ele>172</ele>
        <time>2018-09-15T08:45:06Z</time>
      </trkpt>
      <trkpt lat="45.93406" lon="4.79335">
        <ele>172</ele>
        <time>2018-09-15T08:45:07Z</time>
      </trkpt>
      <trkpt lat="45.93404" lon="4.79341">
        <ele>172</ele>
        <time>2018-09-15T08:45:08Z</time>
      </trkpt>
      <trkpt lat="45.93402" lon="4.7935">
        <ele>172</ele>
        <time>2018-09-15T08:45:09Z</time>
      </trkpt>
      <trkpt lat="45.93399" lon="4.79357">
        <ele>172</ele>
        <time>2018-09-15T08:45:10Z</time>
      </trkpt>
      <trkpt lat="45.93397" lon="4.79365">
        <ele>172</ele>
        <time>2018-09-15T08:45:11Z</time>
      </trkpt>
      <trkpt lat="45.93395" lon="4.79373">
        <ele>172</ele>
        <time>2018-09-15T08:45:12Z</time>
      </trkpt>
      <trkpt lat="45.93392" lon="4.79381">
        <ele>172</ele>
        <time>2018-09-15T08:45:13Z</time>
      </trkpt>
      <trkpt lat="45.93388" lon="4.79386">
        <ele>172</ele>
        <time>2018-09-15T08:45:14Z</time>
      </trkpt>
      <trkpt lat="45.93385" lon="4.79393">
        <ele>172</ele>
        <time>2018-09-15T08:45:15Z</time>
      </trkpt>
      <trkpt lat="45.93384" lon="4.79402">
        <ele>172</ele>
        <time>2018-09-15T08:45:16Z</time>
      </trkpt>
      <trkpt lat="45.93381" lon="4.79413">
        <ele>172</ele>
        <time>2018-09-15T08:45:17Z</time>
      </trkpt>
      <trkpt lat="45.93379" lon="4.7942">
        <ele>174</ele>
        <time>2018-09-15T08:45:18Z</time>
      </trkpt>
      <trkpt lat="45.93376" lon="4.79426">
        <ele>174</ele>
        <time>2018-09-15T08:45:19Z</time>
      </trkpt>
      <trkpt lat="45.93373" lon="4.79433">
        <ele>174</ele>
        <time>2018-09-15T08:45:20Z</time>
      </trkpt>
      <trkpt lat="45.93373" lon="4.79445">
        <ele>175</ele>
        <time>2018-09-15T08:45:21Z</time>
      </trkpt>
      <trkpt lat="45.93372" lon="4.79454">
        <ele>175</ele>
        <time>2018-09-15T08:45:22Z</time>
      </trkpt>
      <trkpt lat="45.93368" lon="4.7946">
        <ele>175</ele>
        <time>2018-09-15T08:45:23Z</time>
      </trkpt>
      <trkpt lat="45.93365" lon="4.79467">
        <ele>175</ele>
        <time>2018-09-15T08:45:24Z</time>
      </trkpt>
      <trkpt lat="45.93363" lon="4.79473">
        <ele>175</ele>
        <time>2018-09-15T08:45:25Z</time>
      </trkpt>
      <trkpt lat="45.93358" lon="4.79478">
        <ele>175</ele>
        <time>2018-09-15T08:45:26Z</time>
      </trkpt>
      <trkpt lat="45.93355" lon="4.79484">
        <ele>175</ele>
        <time>2018-09-15T08:45:27Z</time>
      </trkpt>
      <trkpt lat="45.93353" lon="4.7949">
        <ele>175</ele>
        <time>2018-09-15T08:45:28Z</time>
      </trkpt>
      <trkpt lat="45.93349" lon="4.79499">
        <ele>176</ele>
        <time>2018-09-15T08:45:30Z</time>
      </trkpt>
      <trkpt lat="45.93346" lon="4.79506">
        <ele>177</ele>
        <time>2018-09-15T08:45:31Z</time>
      </trkpt>
      <trkpt lat="45.93344" lon="4.79514">
        <ele>177</ele>
        <time>2018-09-15T08:45:32Z</time>
      </trkpt>
      <trkpt lat="45.93344" lon="4.79521">
        <ele>177</ele>
        <time>2018-09-15T08:45:33Z</time>
      </trkpt>
      <trkpt lat="45.93341" lon="4.79527">
        <ele>177</ele>
        <time>2018-09-15T08:45:34Z</time>
      </trkpt>
      <trkpt lat="45.93338" lon="4.79534">
        <ele>177</ele>
        <time>2018-09-15T08:45:35Z</time>
      </trkpt>
      <trkpt lat="45.93335" lon="4.79542">
        <ele>177</ele>
        <time>2018-09-15T08:45:36Z</time>
      </trkpt>
      <trkpt lat="45.93332" lon="4.79547">
        <ele>175</ele>
        <time>2018-09-15T08:45:37Z</time>
      </trkpt>
      <trkpt lat="45.93331" lon="4.79554">
        <ele>176</ele>
        <time>2018-09-15T08:45:38Z</time>
      </trkpt>
      <trkpt lat="45.93328" lon="4.7956">
        <ele>176</ele>
        <time>2018-09-15T08:45:39Z</time>
      </trkpt>
      <trkpt lat="45.93324" lon="4.79571">
        <ele>176</ele>
        <time>2018-09-15T08:45:41Z</time>
      </trkpt>
      <trkpt lat="45.93323" lon="4.79581">
        <ele>176</ele>
        <time>2018-09-15T08:45:42Z</time>
      </trkpt>
      <trkpt lat="45.93321" lon="4.79588">
        <ele>177</ele>
        <time>2018-09-15T08:45:43Z</time>
      </trkpt>
      <trkpt lat="45.93319" lon="4.79593">
        <ele>177</ele>
        <time>2018-09-15T08:45:44Z</time>
      </trkpt>
      <trkpt lat="45.93316" lon="4.79598">
        <ele>177</ele>
        <time>2018-09-15T08:45:45Z</time>
      </trkpt>
      <trkpt lat="45.93313" lon="4.79604">
        <ele>176</ele>
        <time>2018-09-15T08:45:46Z</time>
      </trkpt>
      <trkpt lat="45.93312" lon="4.79614">
        <ele>176</ele>
        <time>2018-09-15T08:45:47Z</time>
      </trkpt>
      <trkpt lat="45.9331" lon="4.79622">
        <ele>176</ele>
        <time>2018-09-15T08:45:48Z</time>
      </trkpt>
      <trkpt lat="45.93308" lon="4.79628">
        <ele>177</ele>
        <time>2018-09-15T08:45:49Z</time>
      </trkpt>
      <trkpt lat="45.93306" lon="4.79635">
        <ele>177</ele>
        <time>2018-09-15T08:45:50Z</time>
      </trkpt>
      <trkpt lat="45.93303" lon="4.79641">
        <ele>177</ele>
        <time>2018-09-15T08:45:51Z</time>
      </trkpt>
      <trkpt lat="45.93302" lon="4.79648">
        <ele>177</ele>
        <time>2018-09-15T08:45:52Z</time>
      </trkpt>
      <trkpt lat="45.933" lon="4.79657">
        <ele>177</ele>
        <time>2018-09-15T08:45:53Z</time>
      </trkpt>
      <trkpt lat="45.93297" lon="4.79662">
        <ele>177</ele>
        <time>2018-09-15T08:45:54Z</time>
      </trkpt>
      <trkpt lat="45.93295" lon="4.79667">
        <ele>177</ele>
        <time>2018-09-15T08:45:55Z</time>
      </trkpt>
      <trkpt lat="45.93293" lon="4.79676">
        <ele>177</ele>
        <time>2018-09-15T08:45:56Z</time>
      </trkpt>
      <trkpt lat="45.93292" lon="4.79684">
        <ele>177</ele>
        <time>2018-09-15T08:45:57Z</time>
      </trkpt>
      <trkpt lat="45.9329" lon="4.79692">
        <ele>177</ele>
        <time>2018-09-15T08:45:58Z</time>
      </trkpt>
      <trkpt lat="45.93286" lon="4.79699">
        <ele>177</ele>
        <time>2018-09-15T08:45:59Z</time>
      </trkpt>
      <trkpt lat="45.93284" lon="4.79706">
        <ele>177</ele>
        <time>2018-09-15T08:46:00Z</time>
      </trkpt>
      <trkpt lat="45.93282" lon="4.79714">
        <ele>177</ele>
        <time>2018-09-15T08:46:01Z</time>
      </trkpt>
      <trkpt lat="45.93279" lon="4.79721">
        <ele>177</ele>
        <time>2018-09-15T08:46:02Z</time>
      </trkpt>
      <trkpt lat="45.93277" lon="4.79729">
        <ele>177</ele>
        <time>2018-09-15T08:46:03Z</time>
      </trkpt>
      <trkpt lat="45.93275" lon="4.79738">
        <ele>177</ele>
        <time>2018-09-15T08:46:04Z</time>
      </trkpt>
      <trkpt lat="45.93273" lon="4.79745">
        <ele>177</ele>
        <time>2018-09-15T08:46:05Z</time>
      </trkpt>
      <trkpt lat="45.9327" lon="4.79753">
        <ele>176</ele>
        <time>2018-09-15T08:46:06Z</time>
      </trkpt>
      <trkpt lat="45.93267" lon="4.7976">
        <ele>176</ele>
        <time>2018-09-15T08:46:07Z</time>
      </trkpt>
      <trkpt lat="45.93264" lon="4.79769">
        <ele>175</ele>
        <time>2018-09-15T08:46:08Z</time>
      </trkpt>
      <trkpt lat="45.93261" lon="4.79778">
        <ele>175</ele>
        <time>2018-09-15T08:46:09Z</time>
      </trkpt>
      <trkpt lat="45.93259" lon="4.79787">
        <ele>175</ele>
        <time>2018-09-15T08:46:10Z</time>
      </trkpt>
      <trkpt lat="45.93254" lon="4.79794">
        <ele>175</ele>
        <time>2018-09-15T08:46:11Z</time>
      </trkpt>
      <trkpt lat="45.93251" lon="4.79803">
        <ele>175</ele>
        <time>2018-09-15T08:46:12Z</time>
      </trkpt>
      <trkpt lat="45.93248" lon="4.79812">
        <ele>174</ele>
        <time>2018-09-15T08:46:13Z</time>
      </trkpt>
      <trkpt lat="45.93246" lon="4.79821">
        <ele>174</ele>
        <time>2018-09-15T08:46:14Z</time>
      </trkpt>
      <trkpt lat="45.93242" lon="4.7983">
        <ele>174</ele>
        <time>2018-09-15T08:46:15Z</time>
      </trkpt>
      <trkpt lat="45.93241" lon="4.79841">
        <ele>173</ele>
        <time>2018-09-15T08:46:16Z</time>
      </trkpt>
      <trkpt lat="45.93235" lon="4.79847">
        <ele>173</ele>
        <time>2018-09-15T08:46:17Z</time>
      </trkpt>
      <trkpt lat="45.93231" lon="4.79857">
        <ele>172</ele>
        <time>2018-09-15T08:46:18Z</time>
      </trkpt>
      <trkpt lat="45.93227" lon="4.79864">
        <ele>172</ele>
        <time>2018-09-15T08:46:19Z</time>
      </trkpt>
      <trkpt lat="45.93223" lon="4.79873">
        <ele>172</ele>
        <time>2018-09-15T08:46:20Z</time>
      </trkpt>
      <trkpt lat="45.9322" lon="4.79881">
        <ele>172</ele>
        <time>2018-09-15T08:46:21Z</time>
      </trkpt>
      <trkpt lat="45.93217" lon="4.79889">
        <ele>172</ele>
        <time>2018-09-15T08:46:22Z</time>
      </trkpt>
      <trkpt lat="45.93212" lon="4.79897">
        <ele>172</ele>
        <time>2018-09-15T08:46:23Z</time>
      </trkpt>
      <trkpt lat="45.93209" lon="4.79907">
        <ele>172</ele>
        <time>2018-09-15T08:46:24Z</time>
      </trkpt>
      <trkpt lat="45.93205" lon="4.79915">
        <ele>171</ele>
        <time>2018-09-15T08:46:25Z</time>
      </trkpt>
      <trkpt lat="45.932" lon="4.79922">
        <ele>171</ele>
        <time>2018-09-15T08:46:26Z</time>
      </trkpt>
      <trkpt lat="45.93197" lon="4.7993">
        <ele>170</ele>
        <time>2018-09-15T08:46:27Z</time>
      </trkpt>
      <trkpt lat="45.93192" lon="4.79938">
        <ele>170</ele>
        <time>2018-09-15T08:46:28Z</time>
      </trkpt>
      <trkpt lat="45.93189" lon="4.79945">
        <ele>170</ele>
        <time>2018-09-15T08:46:29Z</time>
      </trkpt>
      <trkpt lat="45.93185" lon="4.79952">
        <ele>170</ele>
        <time>2018-09-15T08:46:30Z</time>
      </trkpt>
      <trkpt lat="45.93183" lon="4.79961">
        <ele>170</ele>
        <time>2018-09-15T08:46:31Z</time>
      </trkpt>
      <trkpt lat="45.93181" lon="4.7997">
        <ele>170</ele>
        <time>2018-09-15T08:46:32Z</time>
      </trkpt>
      <trkpt lat="45.93179" lon="4.79979">
        <ele>170</ele>
        <time>2018-09-15T08:46:33Z</time>
      </trkpt>
      <trkpt lat="45.93177" lon="4.79988">
        <ele>170</ele>
        <time>2018-09-15T08:46:34Z</time>
      </trkpt>
      <trkpt lat="45.93175" lon="4.79996">
        <ele>170</ele>
        <time>2018-09-15T08:46:35Z</time>
      </trkpt>
      <trkpt lat="45.93174" lon="4.80005">
        <ele>169</ele>
        <time>2018-09-15T08:46:36Z</time>
      </trkpt>
      <trkpt lat="45.93173" lon="4.80013">
        <ele>170</ele>
        <time>2018-09-15T08:46:37Z</time>
      </trkpt>
      <trkpt lat="45.9317" lon="4.8002">
        <ele>170</ele>
        <time>2018-09-15T08:46:38Z</time>
      </trkpt>
      <trkpt lat="45.93168" lon="4.80027">
        <ele>170</ele>
        <time>2018-09-15T08:46:39Z</time>
      </trkpt>
      <trkpt lat="45.93164" lon="4.80034">
        <ele>169</ele>
        <time>2018-09-15T08:46:40Z</time>
      </trkpt>
      <trkpt lat="45.93163" lon="4.80043">
        <ele>169</ele>
        <time>2018-09-15T08:46:41Z</time>
      </trkpt>
      <trkpt lat="45.93161" lon="4.80051">
        <ele>169</ele>
        <time>2018-09-15T08:46:42Z</time>
      </trkpt>
      <trkpt lat="45.93161" lon="4.80059">
        <ele>170</ele>
        <time>2018-09-15T08:46:43Z</time>
      </trkpt>
      <trkpt lat="45.9316" lon="4.80067">
        <ele>170</ele>
        <time>2018-09-15T08:46:44Z</time>
      </trkpt>
      <trkpt lat="45.93158" lon="4.80077">
        <ele>170</ele>
        <time>2018-09-15T08:46:45Z</time>
      </trkpt>
      <trkpt lat="45.93156" lon="4.80085">
        <ele>170</ele>
        <time>2018-09-15T08:46:46Z</time>
      </trkpt>
      <trkpt lat="45.93154" lon="4.80095">
        <ele>170</ele>
        <time>2018-09-15T08:46:47Z</time>
      </trkpt>
      <trkpt lat="45.93151" lon="4.80103">
        <ele>169</ele>
        <time>2018-09-15T08:46:48Z</time>
      </trkpt>
      <trkpt lat="45.93149" lon="4.80111">
        <ele>169</ele>
        <time>2018-09-15T08:46:49Z</time>
      </trkpt>
      <trkpt lat="45.93146" lon="4.8012">
        <ele>169</ele>
        <time>2018-09-15T08:46:50Z</time>
      </trkpt>
      <trkpt lat="45.93144" lon="4.80128">
        <ele>169</ele>
        <time>2018-09-15T08:46:51Z</time>
      </trkpt>
      <trkpt lat="45.93141" lon="4.80136">
        <ele>169</ele>
        <time>2018-09-15T08:46:52Z</time>
      </trkpt>
      <trkpt lat="45.93138" lon="4.80144">
        <ele>169</ele>
        <time>2018-09-15T08:46:53Z</time>
      </trkpt>
      <trkpt lat="45.93136" lon="4.80152">
        <ele>169</ele>
        <time>2018-09-15T08:46:54Z</time>
      </trkpt>
      <trkpt lat="45.93134" lon="4.8016">
        <ele>169</ele>
        <time>2018-09-15T08:46:55Z</time>
      </trkpt>
      <trkpt lat="45.93131" lon="4.80168">
        <ele>169</ele>
        <time>2018-09-15T08:46:56Z</time>
      </trkpt>
      <trkpt lat="45.93128" lon="4.80179">
        <ele>169</ele>
        <time>2018-09-15T08:46:57Z</time>
      </trkpt>
      <trkpt lat="45.93125" lon="4.80187">
        <ele>169</ele>
        <time>2018-09-15T08:46:58Z</time>
      </trkpt>
      <trkpt lat="45.93122" lon="4.80194">
        <ele>169</ele>
        <time>2018-09-15T08:46:59Z</time>
      </trkpt>
      <trkpt lat="45.93119" lon="4.80204">
        <ele>169</ele>
        <time>2018-09-15T08:47:00Z</time>
      </trkpt>
      <trkpt lat="45.93116" lon="4.80212">
        <ele>169</ele>
        <time>2018-09-15T08:47:01Z</time>
      </trkpt>
      <trkpt lat="45.93113" lon="4.80219">
        <ele>169</ele>
        <time>2018-09-15T08:47:02Z</time>
      </trkpt>
      <trkpt lat="45.93111" lon="4.80228">
        <ele>169</ele>
        <time>2018-09-15T08:47:03Z</time>
      </trkpt>
      <trkpt lat="45.93108" lon="4.80236">
        <ele>169</ele>
        <time>2018-09-15T08:47:04Z</time>
      </trkpt>
      <trkpt lat="45.93105" lon="4.80245">
        <ele>169</ele>
        <time>2018-09-15T08:47:05Z</time>
      </trkpt>
      <trkpt lat="45.93102" lon="4.80252">
        <ele>169</ele>
        <time>2018-09-15T08:47:06Z</time>
      </trkpt>
      <trkpt lat="45.931" lon="4.80262">
        <ele>169</ele>
        <time>2018-09-15T08:47:07Z</time>
      </trkpt>
      <trkpt lat="45.93098" lon="4.80274">
        <ele>169</ele>
        <time>2018-09-15T08:47:08Z</time>
      </trkpt>
      <trkpt lat="45.93096" lon="4.80283">
        <ele>169</ele>
        <time>2018-09-15T08:47:09Z</time>
      </trkpt>
      <trkpt lat="45.93093" lon="4.80292">
        <ele>169</ele>
        <time>2018-09-15T08:47:10Z</time>
      </trkpt>
      <trkpt lat="45.93091" lon="4.80301">
        <ele>169</ele>
        <time>2018-09-15T08:47:11Z</time>
      </trkpt>
      <trkpt lat="45.93088" lon="4.80308">
        <ele>169</ele>
        <time>2018-09-15T08:47:12Z</time>
      </trkpt>
      <trkpt lat="45.93086" lon="4.80316">
        <ele>169</ele>
        <time>2018-09-15T08:47:13Z</time>
      </trkpt>
      <trkpt lat="45.93082" lon="4.80323">
        <ele>169</ele>
        <time>2018-09-15T08:47:14Z</time>
      </trkpt>
      <trkpt lat="45.9308" lon="4.8033">
        <ele>169</ele>
        <time>2018-09-15T08:47:15Z</time>
      </trkpt>
      <trkpt lat="45.93077" lon="4.80337">
        <ele>169</ele>
        <time>2018-09-15T08:47:16Z</time>
      </trkpt>
      <trkpt lat="45.93076" lon="4.80344">
        <ele>169</ele>
        <time>2018-09-15T08:47:17Z</time>
      </trkpt>
      <trkpt lat="45.93073" lon="4.80351">
        <ele>169</ele>
        <time>2018-09-15T08:47:18Z</time>
      </trkpt>
      <trkpt lat="45.9307" lon="4.80358">
        <ele>170</ele>
        <time>2018-09-15T08:47:19Z</time>
      </trkpt>
      <trkpt lat="45.93068" lon="4.80365">
        <ele>170</ele>
        <time>2018-09-15T08:47:20Z</time>
      </trkpt>
      <trkpt lat="45.93065" lon="4.80373">
        <ele>170</ele>
        <time>2018-09-15T08:47:21Z</time>
      </trkpt>
      <trkpt lat="45.93062" lon="4.8038">
        <ele>170</ele>
        <time>2018-09-15T08:47:22Z</time>
      </trkpt>
      <trkpt lat="45.93059" lon="4.80389">
        <ele>170</ele>
        <time>2018-09-15T08:47:23Z</time>
      </trkpt>
      <trkpt lat="45.93056" lon="4.80397">
        <ele>170</ele>
        <time>2018-09-15T08:47:24Z</time>
      </trkpt>
      <trkpt lat="45.93054" lon="4.80405">
        <ele>170</ele>
        <time>2018-09-15T08:47:25Z</time>
      </trkpt>
      <trkpt lat="45.93051" lon="4.80413">
        <ele>170</ele>
        <time>2018-09-15T08:47:26Z</time>
      </trkpt>
      <trkpt lat="45.93049" lon="4.80421">
        <ele>171</ele>
        <time>2018-09-15T08:47:27Z</time>
      </trkpt>
      <trkpt lat="45.93046" lon="4.80428">
        <ele>171</ele>
        <time>2018-09-15T08:47:28Z</time>
      </trkpt>
      <trkpt lat="45.93043" lon="4.80434">
        <ele>171</ele>
        <time>2018-09-15T08:47:29Z</time>
      </trkpt>
      <trkpt lat="45.93041" lon="4.80442">
        <ele>171</ele>
        <time>2018-09-15T08:47:30Z</time>
      </trkpt>
      <trkpt lat="45.93038" lon="4.8045">
        <ele>171</ele>
        <time>2018-09-15T08:47:31Z</time>
      </trkpt>
      <trkpt lat="45.93036" lon="4.80458">
        <ele>171</ele>
        <time>2018-09-15T08:47:32Z</time>
      </trkpt>
      <trkpt lat="45.93033" lon="4.80466">
        <ele>171</ele>
        <time>2018-09-15T08:47:33Z</time>
      </trkpt>
      <trkpt lat="45.9303" lon="4.80474">
        <ele>171</ele>
        <time>2018-09-15T08:47:34Z</time>
      </trkpt>
      <trkpt lat="45.93028" lon="4.80482">
        <ele>171</ele>
        <time>2018-09-15T08:47:35Z</time>
      </trkpt>
      <trkpt lat="45.93026" lon="4.8049">
        <ele>171</ele>
        <time>2018-09-15T08:47:36Z</time>
      </trkpt>
      <trkpt lat="45.93023" lon="4.80498">
        <ele>171</ele>
        <time>2018-09-15T08:47:37Z</time>
      </trkpt>
      <trkpt lat="45.9302" lon="4.80506">
        <ele>171</ele>
        <time>2018-09-15T08:47:38Z</time>
      </trkpt>
      <trkpt lat="45.93018" lon="4.80513">
        <ele>171</ele>
        <time>2018-09-15T08:47:39Z</time>
      </trkpt>
      <trkpt lat="45.93015" lon="4.8052">
        <ele>171</ele>
        <time>2018-09-15T08:47:40Z</time>
      </trkpt>
      <trkpt lat="45.93014" lon="4.80527">
        <ele>172</ele>
        <time>2018-09-15T08:47:41Z</time>
      </trkpt>
      <trkpt lat="45.93012" lon="4.80535">
        <ele>172</ele>
        <time>2018-09-15T08:47:42Z</time>
      </trkpt>
      <trkpt lat="45.9301" lon="4.80542">
        <ele>172</ele>
        <time>2018-09-15T08:47:43Z</time>
      </trkpt>
      <trkpt lat="45.93008" lon="4.8055">
        <ele>172</ele>
        <time>2018-09-15T08:47:44Z</time>
      </trkpt>
      <trkpt lat="45.93006" lon="4.80558">
        <ele>172</ele>
        <time>2018-09-15T08:47:45Z</time>
      </trkpt>
      <trkpt lat="45.93003" lon="4.80566">
        <ele>172</ele>
        <time>2018-09-15T08:47:46Z</time>
      </trkpt>
      <trkpt lat="45.93" lon="4.80574">
        <ele>172</ele>
        <time>2018-09-15T08:47:47Z</time>
      </trkpt>
      <trkpt lat="45.92998" lon="4.80582">
        <ele>172</ele>
        <time>2018-09-15T08:47:48Z</time>
      </trkpt>
      <trkpt lat="45.92996" lon="4.80589">
        <ele>172</ele>
        <time>2018-09-15T08:47:49Z</time>
      </trkpt>
      <trkpt lat="45.92993" lon="4.80596">
        <ele>172</ele>
        <time>2018-09-15T08:47:50Z</time>
      </trkpt>
      <trkpt lat="45.9299" lon="4.80602">
        <ele>172</ele>
        <time>2018-09-15T08:47:51Z</time>
      </trkpt>
      <trkpt lat="45.92988" lon="4.8061">
        <ele>172</ele>
        <time>2018-09-15T08:47:52Z</time>
      </trkpt>
      <trkpt lat="45.92985" lon="4.80617">
        <ele>172</ele>
        <time>2018-09-15T08:47:53Z</time>
      </trkpt>
      <trkpt lat="45.92984" lon="4.80626">
        <ele>172</ele>
        <time>2018-09-15T08:47:54Z</time>
      </trkpt>
      <trkpt lat="45.92982" lon="4.80635">
        <ele>172</ele>
        <time>2018-09-15T08:47:55Z</time>
      </trkpt>
      <trkpt lat="45.92979" lon="4.80643">
        <ele>172</ele>
        <time>2018-09-15T08:47:56Z</time>
      </trkpt>
      <trkpt lat="45.92975" lon="4.80649">
        <ele>172</ele>
        <time>2018-09-15T08:47:57Z</time>
      </trkpt>
      <trkpt lat="45.92973" lon="4.80658">
        <ele>172</ele>
        <time>2018-09-15T08:47:58Z</time>
      </trkpt>
      <trkpt lat="45.9297" lon="4.80666">
        <ele>172</ele>
        <time>2018-09-15T08:47:59Z</time>
      </trkpt>
      <trkpt lat="45.92967" lon="4.80673">
        <ele>172</ele>
        <time>2018-09-15T08:48:00Z</time>
      </trkpt>
      <trkpt lat="45.92964" lon="4.80681">
        <ele>172</ele>
        <time>2018-09-15T08:48:01Z</time>
      </trkpt>
      <trkpt lat="45.92961" lon="4.80688">
        <ele>172</ele>
        <time>2018-09-15T08:48:02Z</time>
      </trkpt>
      <trkpt lat="45.92958" lon="4.80695">
        <ele>172</ele>
        <time>2018-09-15T08:48:03Z</time>
      </trkpt>
      <trkpt lat="45.92954" lon="4.80702">
        <ele>172</ele>
        <time>2018-09-15T08:48:04Z</time>
      </trkpt>
      <trkpt lat="45.92952" lon="4.80709">
        <ele>172</ele>
        <time>2018-09-15T08:48:05Z</time>
      </trkpt>
      <trkpt lat="45.9295" lon="4.80717">
        <ele>172</ele>
        <time>2018-09-15T08:48:06Z</time>
      </trkpt>
      <trkpt lat="45.92948" lon="4.80723">
        <ele>172</ele>
        <time>2018-09-15T08:48:07Z</time>
      </trkpt>
      <trkpt lat="45.92946" lon="4.8073">
        <ele>172</ele>
        <time>2018-09-15T08:48:08Z</time>
      </trkpt>
      <trkpt lat="45.92943" lon="4.80737">
        <ele>172</ele>
        <time>2018-09-15T08:48:09Z</time>
      </trkpt>
      <trkpt lat="45.9294" lon="4.80743">
        <ele>172</ele>
        <time>2018-09-15T08:48:10Z</time>
      </trkpt>
      <trkpt lat="45.92938" lon="4.8075">
        <ele>172</ele>
        <time>2018-09-15T08:48:11Z</time>
      </trkpt>
      <trkpt lat="45.92936" lon="4.80756">
        <ele>172</ele>
        <time>2018-09-15T08:48:12Z</time>
      </trkpt>
      <trkpt lat="45.92932" lon="4.80766">
        <ele>172</ele>
        <time>2018-09-15T08:48:14Z</time>
      </trkpt>
      <trkpt lat="45.9293" lon="4.80771">
        <ele>172</ele>
        <time>2018-09-15T08:48:15Z</time>
      </trkpt>
      <trkpt lat="45.92925" lon="4.8078">
        <ele>172</ele>
        <time>2018-09-15T08:48:18Z</time>
      </trkpt>
      <trkpt lat="45.92924" lon="4.80782">
        <ele>172</ele>
        <time>2018-09-15T08:48:19Z</time>
      </trkpt>
      <trkpt lat="45.92919" lon="4.80792">
        <ele>172</ele>
        <time>2018-09-15T08:49:53Z</time>
      </trkpt>
      <trkpt lat="45.92919" lon="4.80793">
        <ele>172</ele>
        <time>2018-09-15T08:49:54Z</time>
      </trkpt>
      <trkpt lat="45.92918" lon="4.80804">
        <ele>172</ele>
        <time>2018-09-15T08:50:00Z</time>
      </trkpt>
      <trkpt lat="45.92917" lon="4.80807">
        <ele>172</ele>
        <time>2018-09-15T08:50:01Z</time>
      </trkpt>
      <trkpt lat="45.92915" lon="4.80816">
        <ele>171</ele>
        <time>2018-09-15T08:50:04Z</time>
      </trkpt>
      <trkpt lat="45.92914" lon="4.8082">
        <ele>172</ele>
        <time>2018-09-15T08:50:05Z</time>
      </trkpt>
      <trkpt lat="45.9291" lon="4.8083">
        <ele>172</ele>
        <time>2018-09-15T08:50:08Z</time>
      </trkpt>
      <trkpt lat="45.92909" lon="4.80834">
        <ele>172</ele>
        <time>2018-09-15T08:50:09Z</time>
      </trkpt>
      <trkpt lat="45.92906" lon="4.80843">
        <ele>171</ele>
        <time>2018-09-15T08:50:11Z</time>
      </trkpt>
      <trkpt lat="45.92904" lon="4.80848">
        <ele>171</ele>
        <time>2018-09-15T08:50:12Z</time>
      </trkpt>
      <trkpt lat="45.929" lon="4.8086">
        <ele>171</ele>
        <time>2018-09-15T08:50:13Z</time>
      </trkpt>
      <trkpt lat="45.92896" lon="4.8087">
        <ele>171</ele>
        <time>2018-09-15T08:50:15Z</time>
      </trkpt>
      <trkpt lat="45.92894" lon="4.80876">
        <ele>171</ele>
        <time>2018-09-15T08:50:16Z</time>
      </trkpt>
      <trkpt lat="45.92891" lon="4.80883">
        <ele>171</ele>
        <time>2018-09-15T08:50:17Z</time>
      </trkpt>
      <trkpt lat="45.92889" lon="4.80889">
        <ele>170</ele>
        <time>2018-09-15T08:50:18Z</time>
      </trkpt>
      <trkpt lat="45.92887" lon="4.80895">
        <ele>170</ele>
        <time>2018-09-15T08:50:19Z</time>
      </trkpt>
      <trkpt lat="45.92885" lon="4.80902">
        <ele>170</ele>
        <time>2018-09-15T08:50:20Z</time>
      </trkpt>
      <trkpt lat="45.92884" lon="4.80908">
        <ele>170</ele>
        <time>2018-09-15T08:50:21Z</time>
      </trkpt>
      <trkpt lat="45.92881" lon="4.80916">
        <ele>170</ele>
        <time>2018-09-15T08:50:22Z</time>
      </trkpt>
      <trkpt lat="45.92879" lon="4.80923">
        <ele>170</ele>
        <time>2018-09-15T08:50:23Z</time>
      </trkpt>
      <trkpt lat="45.92876" lon="4.80931">
        <ele>170</ele>
        <time>2018-09-15T08:50:24Z</time>
      </trkpt>
      <trkpt lat="45.92874" lon="4.80939">
        <ele>170</ele>
        <time>2018-09-15T08:50:25Z</time>
      </trkpt>
      <trkpt lat="45.92871" lon="4.80948">
        <ele>170</ele>
        <time>2018-09-15T08:50:26Z</time>
      </trkpt>
      <trkpt lat="45.92868" lon="4.80955">
        <ele>169</ele>
        <time>2018-09-15T08:50:27Z</time>
      </trkpt>
      <trkpt lat="45.92866" lon="4.80963">
        <ele>169</ele>
        <time>2018-09-15T08:50:28Z</time>
      </trkpt>
      <trkpt lat="45.92862" lon="4.8097">
        <ele>169</ele>
        <time>2018-09-15T08:50:29Z</time>
      </trkpt>
      <trkpt lat="45.92859" lon="4.80978">
        <ele>169</ele>
        <time>2018-09-15T08:50:30Z</time>
      </trkpt>
      <trkpt lat="45.92857" lon="4.80985">
        <ele>169</ele>
        <time>2018-09-15T08:50:31Z</time>
      </trkpt>
      <trkpt lat="45.92855" lon="4.80993">
        <ele>169</ele>
        <time>2018-09-15T08:50:32Z</time>
      </trkpt>
      <trkpt lat="45.92851" lon="4.81">
        <ele>169</ele>
        <time>2018-09-15T08:50:33Z</time>
      </trkpt>
      <trkpt lat="45.92849" lon="4.81007">
        <ele>169</ele>
        <time>2018-09-15T08:50:34Z</time>
      </trkpt>
      <trkpt lat="45.92848" lon="4.81014">
        <ele>169</ele>
        <time>2018-09-15T08:50:35Z</time>
      </trkpt>
      <trkpt lat="45.92845" lon="4.81021">
        <ele>169</ele>
        <time>2018-09-15T08:50:36Z</time>
      </trkpt>
      <trkpt lat="45.92843" lon="4.81028">
        <ele>169</ele>
        <time>2018-09-15T08:50:37Z</time>
      </trkpt>
      <trkpt lat="45.92839" lon="4.81034">
        <ele>169</ele>
        <time>2018-09-15T08:50:38Z</time>
      </trkpt>
      <trkpt lat="45.92835" lon="4.81041">
        <ele>169</ele>
        <time>2018-09-15T08:50:39Z</time>
      </trkpt>
      <trkpt lat="45.92831" lon="4.81048">
        <ele>169</ele>
        <time>2018-09-15T08:50:40Z</time>
      </trkpt>
      <trkpt lat="45.9283" lon="4.81058">
        <ele>169</ele>
        <time>2018-09-15T08:50:41Z</time>
      </trkpt>
      <trkpt lat="45.92825" lon="4.81065">
        <ele>169</ele>
        <time>2018-09-15T08:50:42Z</time>
      </trkpt>
      <trkpt lat="45.92821" lon="4.81073">
        <ele>170</ele>
        <time>2018-09-15T08:50:43Z</time>
      </trkpt>
      <trkpt lat="45.92817" lon="4.81079">
        <ele>170</ele>
        <time>2018-09-15T08:50:44Z</time>
      </trkpt>
      <trkpt lat="45.92812" lon="4.81085">
        <ele>170</ele>
        <time>2018-09-15T08:50:45Z</time>
      </trkpt>
      <trkpt lat="45.92809" lon="4.81091">
        <ele>170</ele>
        <time>2018-09-15T08:50:46Z</time>
      </trkpt>
      <trkpt lat="45.92804" lon="4.81096">
        <ele>170</ele>
        <time>2018-09-15T08:50:47Z</time>
      </trkpt>
      <trkpt lat="45.928" lon="4.81102">
        <ele>170</ele>
        <time>2018-09-15T08:50:48Z</time>
      </trkpt>
      <trkpt lat="45.92795" lon="4.81107">
        <ele>170</ele>
        <time>2018-09-15T08:50:49Z</time>
      </trkpt>
      <trkpt lat="45.9279" lon="4.81113">
        <ele>170</ele>
        <time>2018-09-15T08:50:50Z</time>
      </trkpt>
      <trkpt lat="45.92787" lon="4.81119">
        <ele>170</ele>
        <time>2018-09-15T08:50:51Z</time>
      </trkpt>
      <trkpt lat="45.92782" lon="4.81125">
        <ele>170</ele>
        <time>2018-09-15T08:50:52Z</time>
      </trkpt>
      <trkpt lat="45.92778" lon="4.8113">
        <ele>170</ele>
        <time>2018-09-15T08:50:53Z</time>
      </trkpt>
      <trkpt lat="45.92773" lon="4.81133">
        <ele>170</ele>
        <time>2018-09-15T08:50:54Z</time>
      </trkpt>
      <trkpt lat="45.92766" lon="4.81134">
        <ele>170</ele>
        <time>2018-09-15T08:50:55Z</time>
      </trkpt>
      <trkpt lat="45.92761" lon="4.81136">
        <ele>170</ele>
        <time>2018-09-15T08:50:56Z</time>
      </trkpt>
      <trkpt lat="45.92757" lon="4.81139">
        <ele>170</ele>
        <time>2018-09-15T08:50:57Z</time>
      </trkpt>
      <trkpt lat="45.92753" lon="4.81144">
        <ele>170</ele>
        <time>2018-09-15T08:50:58Z</time>
      </trkpt>
      <trkpt lat="45.92748" lon="4.81148">
        <ele>170</ele>
        <time>2018-09-15T08:50:59Z</time>
      </trkpt>
      <trkpt lat="45.92744" lon="4.81148">
        <ele>170</ele>
        <time>2018-09-15T08:51:00Z</time>
      </trkpt>
      <trkpt lat="45.9274" lon="4.81153">
        <ele>170</ele>
        <time>2018-09-15T08:51:01Z</time>
      </trkpt>
      <trkpt lat="45.92734" lon="4.81156">
        <ele>170</ele>
        <time>2018-09-15T08:51:02Z</time>
      </trkpt>
      <trkpt lat="45.92728" lon="4.81158">
        <ele>170</ele>
        <time>2018-09-15T08:51:03Z</time>
      </trkpt>
      <trkpt lat="45.92721" lon="4.81158">
        <ele>170</ele>
        <time>2018-09-15T08:51:04Z</time>
      </trkpt>
      <trkpt lat="45.92716" lon="4.81161">
        <ele>170</ele>
        <time>2018-09-15T08:51:05Z</time>
      </trkpt>
      <trkpt lat="45.92711" lon="4.81166">
        <ele>170</ele>
        <time>2018-09-15T08:51:06Z</time>
      </trkpt>
      <trkpt lat="45.92705" lon="4.81168">
        <ele>170</ele>
        <time>2018-09-15T08:51:07Z</time>
      </trkpt>
      <trkpt lat="45.92699" lon="4.81169">
        <ele>170</ele>
        <time>2018-09-15T08:51:08Z</time>
      </trkpt>
      <trkpt lat="45.9269" lon="4.81171">
        <ele>171</ele>
        <time>2018-09-15T08:51:09Z</time>
      </trkpt>
      <trkpt lat="45.92684" lon="4.81173">
        <ele>171</ele>
        <time>2018-09-15T08:51:10Z</time>
      </trkpt>
      <trkpt lat="45.92676" lon="4.81175">
        <ele>171</ele>
        <time>2018-09-15T08:51:11Z</time>
      </trkpt>
      <trkpt lat="45.9267" lon="4.81185">
        <ele>171</ele>
        <time>2018-09-15T08:51:12Z</time>
      </trkpt>
      <trkpt lat="45.92664" lon="4.81187">
        <ele>171</ele>
        <time>2018-09-15T08:51:13Z</time>
      </trkpt>
      <trkpt lat="45.92657" lon="4.81188">
        <ele>171</ele>
        <time>2018-09-15T08:51:14Z</time>
      </trkpt>
      <trkpt lat="45.92652" lon="4.81187">
        <ele>171</ele>
        <time>2018-09-15T08:51:15Z</time>
      </trkpt>
      <trkpt lat="45.92645" lon="4.81189">
        <ele>171</ele>
        <time>2018-09-15T08:51:16Z</time>
      </trkpt>
      <trkpt lat="45.92638" lon="4.81191">
        <ele>171</ele>
        <time>2018-09-15T08:51:17Z</time>
      </trkpt>
      <trkpt lat="45.92632" lon="4.81191">
        <ele>171</ele>
        <time>2018-09-15T08:51:18Z</time>
      </trkpt>
      <trkpt lat="45.92624" lon="4.8119">
        <ele>170</ele>
        <time>2018-09-15T08:51:19Z</time>
      </trkpt>
      <trkpt lat="45.92618" lon="4.81189">
        <ele>170</ele>
        <time>2018-09-15T08:51:20Z</time>
      </trkpt>
      <trkpt lat="45.92611" lon="4.81189">
        <ele>170</ele>
        <time>2018-09-15T08:51:21Z</time>
      </trkpt>
      <trkpt lat="45.92604" lon="4.8119">
        <ele>170</ele>
        <time>2018-09-15T08:51:22Z</time>
      </trkpt>
      <trkpt lat="45.92598" lon="4.81191">
        <ele>170</ele>
        <time>2018-09-15T08:51:23Z</time>
      </trkpt>
      <trkpt lat="45.92591" lon="4.81192">
        <ele>170</ele>
        <time>2018-09-15T08:51:24Z</time>
      </trkpt>
      <trkpt lat="45.92585" lon="4.81192">
        <ele>170</ele>
        <time>2018-09-15T08:51:25Z</time>
      </trkpt>
      <trkpt lat="45.92579" lon="4.81192">
        <ele>170</ele>
        <time>2018-09-15T08:51:26Z</time>
      </trkpt>
      <trkpt lat="45.92572" lon="4.81192">
        <ele>170</ele>
        <time>2018-09-15T08:51:27Z</time>
      </trkpt>
      <trkpt lat="45.92566" lon="4.81193">
        <ele>170</ele>
        <time>2018-09-15T08:51:28Z</time>
      </trkpt>
      <trkpt lat="45.9256" lon="4.81194">
        <ele>170</ele>
        <time>2018-09-15T08:51:29Z</time>
      </trkpt>
      <trkpt lat="45.92553" lon="4.81193">
        <ele>170</ele>
        <time>2018-09-15T08:51:30Z</time>
      </trkpt>
      <trkpt lat="45.92547" lon="4.81197">
        <ele>170</ele>
        <time>2018-09-15T08:51:31Z</time>
      </trkpt>
      <trkpt lat="45.92542" lon="4.81198">
        <ele>170</ele>
        <time>2018-09-15T08:51:32Z</time>
      </trkpt>
      <trkpt lat="45.92536" lon="4.81198">
        <ele>171</ele>
        <time>2018-09-15T08:51:33Z</time>
      </trkpt>
      <trkpt lat="45.9253" lon="4.81197">
        <ele>171</ele>
        <time>2018-09-15T08:51:34Z</time>
      </trkpt>
      <trkpt lat="45.92525" lon="4.81196">
        <ele>171</ele>
        <time>2018-09-15T08:51:35Z</time>
      </trkpt>
      <trkpt lat="45.92519" lon="4.81195">
        <ele>171</ele>
        <time>2018-09-15T08:51:36Z</time>
      </trkpt>
      <trkpt lat="45.92513" lon="4.81196">
        <ele>171</ele>
        <time>2018-09-15T08:51:37Z</time>
      </trkpt>
      <trkpt lat="45.92506" lon="4.81197">
        <ele>171</ele>
        <time>2018-09-15T08:51:38Z</time>
      </trkpt>
      <trkpt lat="45.92501" lon="4.81198">
        <ele>171</ele>
        <time>2018-09-15T08:51:39Z</time>
      </trkpt>
      <trkpt lat="45.92495" lon="4.812">
        <ele>171</ele>
        <time>2018-09-15T08:51:40Z</time>
      </trkpt>
      <trkpt lat="45.92488" lon="4.81201">
        <ele>171</ele>
        <time>2018-09-15T08:51:41Z</time>
      </trkpt>
      <trkpt lat="45.92482" lon="4.812">
        <ele>171</ele>
        <time>2018-09-15T08:51:42Z</time>
      </trkpt>
      <trkpt lat="45.92476" lon="4.812">
        <ele>171</ele>
        <time>2018-09-15T08:51:43Z</time>
      </trkpt>
      <trkpt lat="45.9247" lon="4.812">
        <ele>171</ele>
        <time>2018-09-15T08:51:44Z</time>
      </trkpt>
      <trkpt lat="45.92462" lon="4.812">
        <ele>171</ele>
        <time>2018-09-15T08:51:45Z</time>
      </trkpt>
      <trkpt lat="45.92456" lon="4.81199">
        <ele>171</ele>
        <time>2018-09-15T08:51:46Z</time>
      </trkpt>
      <trkpt lat="45.9245" lon="4.81199">
        <ele>171</ele>
        <time>2018-09-15T08:51:47Z</time>
      </trkpt>
      <trkpt lat="45.92447" lon="4.812">
        <ele>171</ele>
        <time>2018-09-15T08:51:48Z</time>
      </trkpt>
      <trkpt lat="45.92441" lon="4.81201">
        <ele>171</ele>
        <time>2018-09-15T08:51:49Z</time>
      </trkpt>
      <trkpt lat="45.92437" lon="4.81212">
        <ele>170</ele>
        <time>2018-09-15T08:51:50Z</time>
      </trkpt>
      <trkpt lat="45.92432" lon="4.81213">
        <ele>170</ele>
        <time>2018-09-15T08:51:51Z</time>
      </trkpt>
      <trkpt lat="45.92426" lon="4.81216">
        <ele>170</ele>
        <time>2018-09-15T08:51:52Z</time>
      </trkpt>
      <trkpt lat="45.9242" lon="4.81217">
        <ele>170</ele>
        <time>2018-09-15T08:51:53Z</time>
      </trkpt>
      <trkpt lat="45.92414" lon="4.81219">
        <ele>170</ele>
        <time>2018-09-15T08:51:54Z</time>
      </trkpt>
      <trkpt lat="45.92405" lon="4.81219">
        <ele>170</ele>
        <time>2018-09-15T08:51:56Z</time>
      </trkpt>
      <trkpt lat="45.92399" lon="4.81221">
        <ele>170</ele>
        <time>2018-09-15T08:51:57Z</time>
      </trkpt>
      <trkpt lat="45.92394" lon="4.81224">
        <ele>170</ele>
        <time>2018-09-15T08:51:58Z</time>
      </trkpt>
      <trkpt lat="45.92388" lon="4.81225">
        <ele>170</ele>
        <time>2018-09-15T08:51:59Z</time>
      </trkpt>
      <trkpt lat="45.92383" lon="4.81231">
        <ele>170</ele>
        <time>2018-09-15T08:52:00Z</time>
      </trkpt>
      <trkpt lat="45.92377" lon="4.81233">
        <ele>170</ele>
        <time>2018-09-15T08:52:01Z</time>
      </trkpt>
      <trkpt lat="45.92371" lon="4.81236">
        <ele>170</ele>
        <time>2018-09-15T08:52:02Z</time>
      </trkpt>
      <trkpt lat="45.92366" lon="4.81241">
        <ele>170</ele>
        <time>2018-09-15T08:52:03Z</time>
      </trkpt>
      <trkpt lat="45.92361" lon="4.81246">
        <ele>170</ele>
        <time>2018-09-15T08:52:04Z</time>
      </trkpt>
      <trkpt lat="45.92354" lon="4.8125">
        <ele>169</ele>
        <time>2018-09-15T08:52:05Z</time>
      </trkpt>
      <trkpt lat="45.92347" lon="4.81253">
        <ele>169</ele>
        <time>2018-09-15T08:52:06Z</time>
      </trkpt>
      <trkpt lat="45.9234" lon="4.81257">
        <ele>169</ele>
        <time>2018-09-15T08:52:07Z</time>
      </trkpt>
      <trkpt lat="45.92334" lon="4.8126">
        <ele>169</ele>
        <time>2018-09-15T08:52:08Z</time>
      </trkpt>
      <trkpt lat="45.92328" lon="4.81265">
        <ele>170</ele>
        <time>2018-09-15T08:52:09Z</time>
      </trkpt>
      <trkpt lat="45.92323" lon="4.81269">
        <ele>170</ele>
        <time>2018-09-15T08:52:10Z</time>
      </trkpt>
      <trkpt lat="45.92317" lon="4.81271">
        <ele>170</ele>
        <time>2018-09-15T08:52:11Z</time>
      </trkpt>
      <trkpt lat="45.92313" lon="4.81275">
        <ele>170</ele>
        <time>2018-09-15T08:52:12Z</time>
      </trkpt>
      <trkpt lat="45.92308" lon="4.81278">
        <ele>170</ele>
        <time>2018-09-15T08:52:13Z</time>
      </trkpt>
      <trkpt lat="45.92302" lon="4.81281">
        <ele>170</ele>
        <time>2018-09-15T08:52:14Z</time>
      </trkpt>
      <trkpt lat="45.92296" lon="4.81283">
        <ele>170</ele>
        <time>2018-09-15T08:52:15Z</time>
      </trkpt>
      <trkpt lat="45.92291" lon="4.81286">
        <ele>170</ele>
        <time>2018-09-15T08:52:16Z</time>
      </trkpt>
      <trkpt lat="45.92285" lon="4.81288">
        <ele>170</ele>
        <time>2018-09-15T08:52:17Z</time>
      </trkpt>
      <trkpt lat="45.92278" lon="4.8129">
        <ele>170</ele>
        <time>2018-09-15T08:52:18Z</time>
      </trkpt>
      <trkpt lat="45.92273" lon="4.81295">
        <ele>170</ele>
        <time>2018-09-15T08:52:19Z</time>
      </trkpt>
      <trkpt lat="45.92268" lon="4.81299">
        <ele>170</ele>
        <time>2018-09-15T08:52:20Z</time>
      </trkpt>
      <trkpt lat="45.92263" lon="4.81303">
        <ele>171</ele>
        <time>2018-09-15T08:52:21Z</time>
      </trkpt>
      <trkpt lat="45.92257" lon="4.81305">
        <ele>171</ele>
        <time>2018-09-15T08:52:22Z</time>
      </trkpt>
      <trkpt lat="45.92252" lon="4.81308">
        <ele>171</ele>
        <time>2018-09-15T08:52:23Z</time>
      </trkpt>
      <trkpt lat="45.92246" lon="4.81311">
        <ele>171</ele>
        <time>2018-09-15T08:52:24Z</time>
      </trkpt>
      <trkpt lat="45.92241" lon="4.81313">
        <ele>171</ele>
        <time>2018-09-15T08:52:25Z</time>
      </trkpt>
      <trkpt lat="45.92235" lon="4.81314">
        <ele>171</ele>
        <time>2018-09-15T08:52:26Z</time>
      </trkpt>
      <trkpt lat="45.9223" lon="4.81318">
        <ele>171</ele>
        <time>2018-09-15T08:52:27Z</time>
      </trkpt>
      <trkpt lat="45.92224" lon="4.81322">
        <ele>171</ele>
        <time>2018-09-15T08:52:28Z</time>
      </trkpt>
      <trkpt lat="45.9222" lon="4.81326">
        <ele>171</ele>
        <time>2018-09-15T08:52:29Z</time>
      </trkpt>
      <trkpt lat="45.92214" lon="4.8133">
        <ele>171</ele>
        <time>2018-09-15T08:52:30Z</time>
      </trkpt>
      <trkpt lat="45.92209" lon="4.81335">
        <ele>171</ele>
        <time>2018-09-15T08:52:31Z</time>
      </trkpt>
      <trkpt lat="45.92203" lon="4.81332">
        <ele>170</ele>
        <time>2018-09-15T08:52:32Z</time>
      </trkpt>
      <trkpt lat="45.92196" lon="4.81333">
        <ele>170</ele>
        <time>2018-09-15T08:52:33Z</time>
      </trkpt>
      <trkpt lat="45.92192" lon="4.81337">
        <ele>170</ele>
        <time>2018-09-15T08:52:34Z</time>
      </trkpt>
      <trkpt lat="45.92186" lon="4.8134">
        <ele>170</ele>
        <time>2018-09-15T08:52:35Z</time>
      </trkpt>
      <trkpt lat="45.9218" lon="4.81341">
        <ele>170</ele>
        <time>2018-09-15T08:52:36Z</time>
      </trkpt>
      <trkpt lat="45.92173" lon="4.81344">
        <ele>170</ele>
        <time>2018-09-15T08:52:37Z</time>
      </trkpt>
      <trkpt lat="45.9217" lon="4.81347">
        <ele>170</ele>
        <time>2018-09-15T08:52:38Z</time>
      </trkpt>
      <trkpt lat="45.92165" lon="4.81351">
        <ele>170</ele>
        <time>2018-09-15T08:52:39Z</time>
      </trkpt>
      <trkpt lat="45.92161" lon="4.81356">
        <ele>170</ele>
        <time>2018-09-15T08:52:40Z</time>
      </trkpt>
      <trkpt lat="45.92155" lon="4.81359">
        <ele>170</ele>
        <time>2018-09-15T08:52:41Z</time>
      </trkpt>
      <trkpt lat="45.9215" lon="4.81365">
        <ele>170</ele>
        <time>2018-09-15T08:52:42Z</time>
      </trkpt>
      <trkpt lat="45.92145" lon="4.8137">
        <ele>170</ele>
        <time>2018-09-15T08:52:43Z</time>
      </trkpt>
      <trkpt lat="45.92139" lon="4.81371">
        <ele>170</ele>
        <time>2018-09-15T08:52:44Z</time>
      </trkpt>
      <trkpt lat="45.92133" lon="4.81373">
        <ele>170</ele>
        <time>2018-09-15T08:52:45Z</time>
      </trkpt>
      <trkpt lat="45.92128" lon="4.81375">
        <ele>170</ele>
        <time>2018-09-15T08:52:46Z</time>
      </trkpt>
      <trkpt lat="45.92121" lon="4.81378">
        <ele>170</ele>
        <time>2018-09-15T08:52:47Z</time>
      </trkpt>
      <trkpt lat="45.92115" lon="4.81381">
        <ele>170</ele>
        <time>2018-09-15T08:52:48Z</time>
      </trkpt>
      <trkpt lat="45.92109" lon="4.81383">
        <ele>170</ele>
        <time>2018-09-15T08:52:49Z</time>
      </trkpt>
      <trkpt lat="45.92105" lon="4.81385">
        <ele>170</ele>
        <time>2018-09-15T08:52:50Z</time>
      </trkpt>
      <trkpt lat="45.921" lon="4.81388">
        <ele>170</ele>
        <time>2018-09-15T08:52:51Z</time>
      </trkpt>
      <trkpt lat="45.92094" lon="4.81392">
        <ele>170</ele>
        <time>2018-09-15T08:52:52Z</time>
      </trkpt>
      <trkpt lat="45.92088" lon="4.81395">
        <ele>170</ele>
        <time>2018-09-15T08:52:53Z</time>
      </trkpt>
      <trkpt lat="45.92083" lon="4.81398">
        <ele>169</ele>
        <time>2018-09-15T08:52:54Z</time>
      </trkpt>
      <trkpt lat="45.92077" lon="4.81402">
        <ele>170</ele>
        <time>2018-09-15T08:52:55Z</time>
      </trkpt>
      <trkpt lat="45.92072" lon="4.81405">
        <ele>170</ele>
        <time>2018-09-15T08:52:56Z</time>
      </trkpt>
      <trkpt lat="45.92067" lon="4.81412">
        <ele>170</ele>
        <time>2018-09-15T08:52:57Z</time>
      </trkpt>
      <trkpt lat="45.92061" lon="4.81414">
        <ele>169</ele>
        <time>2018-09-15T08:52:58Z</time>
      </trkpt>
      <trkpt lat="45.92055" lon="4.81417">
        <ele>170</ele>
        <time>2018-09-15T08:52:59Z</time>
      </trkpt>
      <trkpt lat="45.92051" lon="4.81421">
        <ele>170</ele>
        <time>2018-09-15T08:53:00Z</time>
      </trkpt>
      <trkpt lat="45.92046" lon="4.81424">
        <ele>170</ele>
        <time>2018-09-15T08:53:01Z</time>
      </trkpt>
      <trkpt lat="45.9204" lon="4.81427">
        <ele>170</ele>
        <time>2018-09-15T08:53:02Z</time>
      </trkpt>
      <trkpt lat="45.92036" lon="4.81431">
        <ele>170</ele>
        <time>2018-09-15T08:53:03Z</time>
      </trkpt>
      <trkpt lat="45.9203" lon="4.81435">
        <ele>170</ele>
        <time>2018-09-15T08:53:04Z</time>
      </trkpt>
      <trkpt lat="45.92025" lon="4.81437">
        <ele>170</ele>
        <time>2018-09-15T08:53:05Z</time>
      </trkpt>
      <trkpt lat="45.92019" lon="4.8144">
        <ele>170</ele>
        <time>2018-09-15T08:53:06Z</time>
      </trkpt>
      <trkpt lat="45.92012" lon="4.81443">
        <ele>170</ele>
        <time>2018-09-15T08:53:07Z</time>
      </trkpt>
      <trkpt lat="45.92005" lon="4.81449">
        <ele>170</ele>
        <time>2018-09-15T08:53:08Z</time>
      </trkpt>
      <trkpt lat="45.92001" lon="4.81452">
        <ele>170</ele>
        <time>2018-09-15T08:53:09Z</time>
      </trkpt>
      <trkpt lat="45.91994" lon="4.81455">
        <ele>170</ele>
        <time>2018-09-15T08:53:10Z</time>
      </trkpt>
      <trkpt lat="45.91987" lon="4.81458">
        <ele>170</ele>
        <time>2018-09-15T08:53:11Z</time>
      </trkpt>
      <trkpt lat="45.9198" lon="4.8146">
        <ele>170</ele>
        <time>2018-09-15T08:53:12Z</time>
      </trkpt>
      <trkpt lat="45.91974" lon="4.81462">
        <ele>170</ele>
        <time>2018-09-15T08:53:13Z</time>
      </trkpt>
      <trkpt lat="45.91968" lon="4.81465">
        <ele>170</ele>
        <time>2018-09-15T08:53:14Z</time>
      </trkpt>
      <trkpt lat="45.91962" lon="4.81466">
        <ele>170</ele>
        <time>2018-09-15T08:53:15Z</time>
      </trkpt>
      <trkpt lat="45.91956" lon="4.81468">
        <ele>170</ele>
        <time>2018-09-15T08:53:16Z</time>
      </trkpt>
      <trkpt lat="45.9195" lon="4.81469">
        <ele>170</ele>
        <time>2018-09-15T08:53:17Z</time>
      </trkpt>
      <trkpt lat="45.91945" lon="4.81474">
        <ele>170</ele>
        <time>2018-09-15T08:53:18Z</time>
      </trkpt>
      <trkpt lat="45.9194" lon="4.81477">
        <ele>170</ele>
        <time>2018-09-15T08:53:19Z</time>
      </trkpt>
      <trkpt lat="45.91934" lon="4.81479">
        <ele>170</ele>
        <time>2018-09-15T08:53:20Z</time>
      </trkpt>
      <trkpt lat="45.91927" lon="4.81481">
        <ele>170</ele>
        <time>2018-09-15T08:53:21Z</time>
      </trkpt>
      <trkpt lat="45.91921" lon="4.81482">
        <ele>170</ele>
        <time>2018-09-15T08:53:22Z</time>
      </trkpt>
      <trkpt lat="45.91915" lon="4.81485">
        <ele>169</ele>
        <time>2018-09-15T08:53:23Z</time>
      </trkpt>
      <trkpt lat="45.91907" lon="4.81488">
        <ele>169</ele>
        <time>2018-09-15T08:53:24Z</time>
      </trkpt>
      <trkpt lat="45.91901" lon="4.8149">
        <ele>169</ele>
        <time>2018-09-15T08:53:25Z</time>
      </trkpt>
      <trkpt lat="45.91894" lon="4.81494">
        <ele>169</ele>
        <time>2018-09-15T08:53:26Z</time>
      </trkpt>
      <trkpt lat="45.91887" lon="4.81497">
        <ele>169</ele>
        <time>2018-09-15T08:53:27Z</time>
      </trkpt>
      <trkpt lat="45.9188" lon="4.81499">
        <ele>169</ele>
        <time>2018-09-15T08:53:28Z</time>
      </trkpt>
      <trkpt lat="45.91874" lon="4.81501">
        <ele>169</ele>
        <time>2018-09-15T08:53:29Z</time>
      </trkpt>
      <trkpt lat="45.91868" lon="4.81504">
        <ele>169</ele>
        <time>2018-09-15T08:53:30Z</time>
      </trkpt>
      <trkpt lat="45.91862" lon="4.81507">
        <ele>169</ele>
        <time>2018-09-15T08:53:31Z</time>
      </trkpt>
      <trkpt lat="45.91855" lon="4.81509">
        <ele>169</ele>
        <time>2018-09-15T08:53:32Z</time>
      </trkpt>
      <trkpt lat="45.91849" lon="4.81511">
        <ele>169</ele>
        <time>2018-09-15T08:53:33Z</time>
      </trkpt>
      <trkpt lat="45.91842" lon="4.81513">
        <ele>168</ele>
        <time>2018-09-15T08:53:34Z</time>
      </trkpt>
      <trkpt lat="45.91837" lon="4.81515">
        <ele>168</ele>
        <time>2018-09-15T08:53:35Z</time>
      </trkpt>
      <trkpt lat="45.9183" lon="4.81517">
        <ele>168</ele>
        <time>2018-09-15T08:53:36Z</time>
      </trkpt>
      <trkpt lat="45.91824" lon="4.81522">
        <ele>168</ele>
        <time>2018-09-15T08:53:37Z</time>
      </trkpt>
      <trkpt lat="45.91818" lon="4.81524">
        <ele>168</ele>
        <time>2018-09-15T08:53:38Z</time>
      </trkpt>
      <trkpt lat="45.91813" lon="4.81527">
        <ele>168</ele>
        <time>2018-09-15T08:53:39Z</time>
      </trkpt>
      <trkpt lat="45.91808" lon="4.8153">
        <ele>168</ele>
        <time>2018-09-15T08:53:40Z</time>
      </trkpt>
      <trkpt lat="45.91802" lon="4.81532">
        <ele>168</ele>
        <time>2018-09-15T08:53:41Z</time>
      </trkpt>
      <trkpt lat="45.91795" lon="4.81533">
        <ele>168</ele>
        <time>2018-09-15T08:53:42Z</time>
      </trkpt>
      <trkpt lat="45.91789" lon="4.81534">
        <ele>169</ele>
        <time>2018-09-15T08:53:43Z</time>
      </trkpt>
      <trkpt lat="45.91783" lon="4.81538">
        <ele>169</ele>
        <time>2018-09-15T08:53:44Z</time>
      </trkpt>
      <trkpt lat="45.91776" lon="4.81539">
        <ele>169</ele>
        <time>2018-09-15T08:53:45Z</time>
      </trkpt>
      <trkpt lat="45.9177" lon="4.81541">
        <ele>169</ele>
        <time>2018-09-15T08:53:46Z</time>
      </trkpt>
      <trkpt lat="45.91762" lon="4.81543">
        <ele>168</ele>
        <time>2018-09-15T08:53:47Z</time>
      </trkpt>
      <trkpt lat="45.91755" lon="4.81543">
        <ele>168</ele>
        <time>2018-09-15T08:53:48Z</time>
      </trkpt>
      <trkpt lat="45.91748" lon="4.81543">
        <ele>169</ele>
        <time>2018-09-15T08:53:49Z</time>
      </trkpt>
      <trkpt lat="45.91741" lon="4.81544">
        <ele>169</ele>
        <time>2018-09-15T08:53:50Z</time>
      </trkpt>
      <trkpt lat="45.91733" lon="4.81545">
        <ele>169</ele>
        <time>2018-09-15T08:53:51Z</time>
      </trkpt>
      <trkpt lat="45.91727" lon="4.81549">
        <ele>169</ele>
        <time>2018-09-15T08:53:52Z</time>
      </trkpt>
      <trkpt lat="45.91721" lon="4.81552">
        <ele>169</ele>
        <time>2018-09-15T08:53:53Z</time>
      </trkpt>
      <trkpt lat="45.91715" lon="4.81553">
        <ele>169</ele>
        <time>2018-09-15T08:53:54Z</time>
      </trkpt>
      <trkpt lat="45.91709" lon="4.81554">
        <ele>169</ele>
        <time>2018-09-15T08:53:55Z</time>
      </trkpt>
      <trkpt lat="45.91702" lon="4.81555">
        <ele>169</ele>
        <time>2018-09-15T08:53:56Z</time>
      </trkpt>
      <trkpt lat="45.91696" lon="4.81557">
        <ele>169</ele>
        <time>2018-09-15T08:53:57Z</time>
      </trkpt>
      <trkpt lat="45.91688" lon="4.81558">
        <ele>169</ele>
        <time>2018-09-15T08:53:58Z</time>
      </trkpt>
      <trkpt lat="45.91682" lon="4.81559">
        <ele>169</ele>
        <time>2018-09-15T08:53:59Z</time>
      </trkpt>
      <trkpt lat="45.91676" lon="4.8156">
        <ele>170</ele>
        <time>2018-09-15T08:54:00Z</time>
      </trkpt>
      <trkpt lat="45.9167" lon="4.81561">
        <ele>170</ele>
        <time>2018-09-15T08:54:01Z</time>
      </trkpt>
      <trkpt lat="45.91665" lon="4.81561">
        <ele>170</ele>
        <time>2018-09-15T08:54:02Z</time>
      </trkpt>
      <trkpt lat="45.9166" lon="4.81562">
        <ele>170</ele>
        <time>2018-09-15T08:54:03Z</time>
      </trkpt>
      <trkpt lat="45.91655" lon="4.81561">
        <ele>170</ele>
        <time>2018-09-15T08:54:04Z</time>
      </trkpt>
      <trkpt lat="45.91648" lon="4.81562">
        <ele>170</ele>
        <time>2018-09-15T08:54:05Z</time>
      </trkpt>
      <trkpt lat="45.91643" lon="4.81562">
        <ele>170</ele>
        <time>2018-09-15T08:54:06Z</time>
      </trkpt>
      <trkpt lat="45.91637" lon="4.81563">
        <ele>170</ele>
        <time>2018-09-15T08:54:07Z</time>
      </trkpt>
      <trkpt lat="45.9163" lon="4.81566">
        <ele>170</ele>
        <time>2018-09-15T08:54:08Z</time>
      </trkpt>
      <trkpt lat="45.91624" lon="4.81569">
        <ele>170</ele>
        <time>2018-09-15T08:54:09Z</time>
      </trkpt>
      <trkpt lat="45.91617" lon="4.8157">
        <ele>170</ele>
        <time>2018-09-15T08:54:10Z</time>
      </trkpt>
      <trkpt lat="45.91611" lon="4.81571">
        <ele>170</ele>
        <time>2018-09-15T08:54:11Z</time>
      </trkpt>
      <trkpt lat="45.91604" lon="4.81572">
        <ele>170</ele>
        <time>2018-09-15T08:54:12Z</time>
      </trkpt>
      <trkpt lat="45.91597" lon="4.81572">
        <ele>170</ele>
        <time>2018-09-15T08:54:13Z</time>
      </trkpt>
      <trkpt lat="45.91591" lon="4.81573">
        <ele>170</ele>
        <time>2018-09-15T08:54:14Z</time>
      </trkpt>
      <trkpt lat="45.91585" lon="4.81574">
        <ele>170</ele>
        <time>2018-09-15T08:54:15Z</time>
      </trkpt>
      <trkpt lat="45.91578" lon="4.81575">
        <ele>170</ele>
        <time>2018-09-15T08:54:16Z</time>
      </trkpt>
      <trkpt lat="45.91572" lon="4.81577">
        <ele>170</ele>
        <time>2018-09-15T08:54:17Z</time>
      </trkpt>
      <trkpt lat="45.91566" lon="4.81578">
        <ele>170</ele>
        <time>2018-09-15T08:54:18Z</time>
      </trkpt>
      <trkpt lat="45.91559" lon="4.8158">
        <ele>170</ele>
        <time>2018-09-15T08:54:19Z</time>
      </trkpt>
      <trkpt lat="45.91553" lon="4.81582">
        <ele>169</ele>
        <time>2018-09-15T08:54:20Z</time>
      </trkpt>
      <trkpt lat="45.91546" lon="4.81583">
        <ele>169</ele>
        <time>2018-09-15T08:54:21Z</time>
      </trkpt>
      <trkpt lat="45.91539" lon="4.81585">
        <ele>170</ele>
        <time>2018-09-15T08:54:22Z</time>
      </trkpt>
      <trkpt lat="45.91533" lon="4.81587">
        <ele>170</ele>
        <time>2018-09-15T08:54:23Z</time>
      </trkpt>
      <trkpt lat="45.91528" lon="4.81589">
        <ele>170</ele>
        <time>2018-09-15T08:54:24Z</time>
      </trkpt>
      <trkpt lat="45.91522" lon="4.81589">
        <ele>170</ele>
        <time>2018-09-15T08:54:25Z</time>
      </trkpt>
      <trkpt lat="45.91515" lon="4.81592">
        <ele>170</ele>
        <time>2018-09-15T08:54:26Z</time>
      </trkpt>
      <trkpt lat="45.91509" lon="4.81593">
        <ele>169</ele>
        <time>2018-09-15T08:54:27Z</time>
      </trkpt>
      <trkpt lat="45.91504" lon="4.81594">
        <ele>169</ele>
        <time>2018-09-15T08:54:28Z</time>
      </trkpt>
      <trkpt lat="45.91497" lon="4.81595">
        <ele>169</ele>
        <time>2018-09-15T08:54:29Z</time>
      </trkpt>
      <trkpt lat="45.91491" lon="4.81595">
        <ele>169</ele>
        <time>2018-09-15T08:54:30Z</time>
      </trkpt>
      <trkpt lat="45.91484" lon="4.81596">
        <ele>169</ele>
        <time>2018-09-15T08:54:31Z</time>
      </trkpt>
      <trkpt lat="45.91477" lon="4.81596">
        <ele>169</ele>
        <time>2018-09-15T08:54:32Z</time>
      </trkpt>
      <trkpt lat="45.91471" lon="4.81599">
        <ele>170</ele>
        <time>2018-09-15T08:54:33Z</time>
      </trkpt>
      <trkpt lat="45.91465" lon="4.816">
        <ele>170</ele>
        <time>2018-09-15T08:54:34Z</time>
      </trkpt>
      <trkpt lat="45.91458" lon="4.81601">
        <ele>170</ele>
        <time>2018-09-15T08:54:35Z</time>
      </trkpt>
      <trkpt lat="45.9145" lon="4.81603">
        <ele>170</ele>
        <time>2018-09-15T08:54:36Z</time>
      </trkpt>
      <trkpt lat="45.91444" lon="4.81605">
        <ele>170</ele>
        <time>2018-09-15T08:54:37Z</time>
      </trkpt>
      <trkpt lat="45.91436" lon="4.81605">
        <ele>170</ele>
        <time>2018-09-15T08:54:38Z</time>
      </trkpt>
      <trkpt lat="45.91429" lon="4.81606">
        <ele>169</ele>
        <time>2018-09-15T08:54:39Z</time>
      </trkpt>
      <trkpt lat="45.91423" lon="4.81606">
        <ele>169</ele>
        <time>2018-09-15T08:54:40Z</time>
      </trkpt>
      <trkpt lat="45.91417" lon="4.81606">
        <ele>169</ele>
        <time>2018-09-15T08:54:41Z</time>
      </trkpt>
      <trkpt lat="45.9141" lon="4.81608">
        <ele>170</ele>
        <time>2018-09-15T08:54:42Z</time>
      </trkpt>
      <trkpt lat="45.91403" lon="4.81609">
        <ele>170</ele>
        <time>2018-09-15T08:54:43Z</time>
      </trkpt>
      <trkpt lat="45.91396" lon="4.81608">
        <ele>170</ele>
        <time>2018-09-15T08:54:44Z</time>
      </trkpt>
      <trkpt lat="45.9139" lon="4.81613">
        <ele>170</ele>
        <time>2018-09-15T08:54:45Z</time>
      </trkpt>
      <trkpt lat="45.91383" lon="4.81613">
        <ele>170</ele>
        <time>2018-09-15T08:54:46Z</time>
      </trkpt>
      <trkpt lat="45.91377" lon="4.81611">
        <ele>170</ele>
        <time>2018-09-15T08:54:47Z</time>
      </trkpt>
      <trkpt lat="45.9137" lon="4.81612">
        <ele>170</ele>
        <time>2018-09-15T08:54:48Z</time>
      </trkpt>
      <trkpt lat="45.91362" lon="4.81613">
        <ele>170</ele>
        <time>2018-09-15T08:54:49Z</time>
      </trkpt>
      <trkpt lat="45.91355" lon="4.81612">
        <ele>170</ele>
        <time>2018-09-15T08:54:50Z</time>
      </trkpt>
      <trkpt lat="45.91348" lon="4.81612">
        <ele>170</ele>
        <time>2018-09-15T08:54:51Z</time>
      </trkpt>
      <trkpt lat="45.91342" lon="4.81614">
        <ele>170</ele>
        <time>2018-09-15T08:54:52Z</time>
      </trkpt>
      <trkpt lat="45.91336" lon="4.81614">
        <ele>170</ele>
        <time>2018-09-15T08:54:53Z</time>
      </trkpt>
      <trkpt lat="45.9133" lon="4.81613">
        <ele>170</ele>
        <time>2018-09-15T08:54:54Z</time>
      </trkpt>
      <trkpt lat="45.91323" lon="4.81613">
        <ele>170</ele>
        <time>2018-09-15T08:54:55Z</time>
      </trkpt>
      <trkpt lat="45.91316" lon="4.81614">
        <ele>170</ele>
        <time>2018-09-15T08:54:56Z</time>
      </trkpt>
      <trkpt lat="45.9131" lon="4.81613">
        <ele>170</ele>
        <time>2018-09-15T08:54:57Z</time>
      </trkpt>
      <trkpt lat="45.91305" lon="4.81611">
        <ele>170</ele>
        <time>2018-09-15T08:54:58Z</time>
      </trkpt>
      <trkpt lat="45.91299" lon="4.81611">
        <ele>170</ele>
        <time>2018-09-15T08:54:59Z</time>
      </trkpt>
      <trkpt lat="45.91293" lon="4.81612">
        <ele>170</ele>
        <time>2018-09-15T08:55:00Z</time>
      </trkpt>
      <trkpt lat="45.91287" lon="4.81613">
        <ele>170</ele>
        <time>2018-09-15T08:55:01Z</time>
      </trkpt>
      <trkpt lat="45.91281" lon="4.81613">
        <ele>170</ele>
        <time>2018-09-15T08:55:02Z</time>
      </trkpt>
      <trkpt lat="45.91275" lon="4.81613">
        <ele>170</ele>
        <time>2018-09-15T08:55:03Z</time>
      </trkpt>
      <trkpt lat="45.91268" lon="4.81614">
        <ele>170</ele>
        <time>2018-09-15T08:55:04Z</time>
      </trkpt>
      <trkpt lat="45.91262" lon="4.81614">
        <ele>170</ele>
        <time>2018-09-15T08:55:05Z</time>
      </trkpt>
      <trkpt lat="45.91255" lon="4.81613">
        <ele>170</ele>
        <time>2018-09-15T08:55:06Z</time>
      </trkpt>
      <trkpt lat="45.91248" lon="4.81613">
        <ele>170</ele>
        <time>2018-09-15T08:55:07Z</time>
      </trkpt>
      <trkpt lat="45.91241" lon="4.81612">
        <ele>170</ele>
        <time>2018-09-15T08:55:08Z</time>
      </trkpt>
      <trkpt lat="45.91234" lon="4.81612">
        <ele>170</ele>
        <time>2018-09-15T08:55:09Z</time>
      </trkpt>
      <trkpt lat="45.91229" lon="4.81612">
        <ele>170</ele>
        <time>2018-09-15T08:55:10Z</time>
      </trkpt>
      <trkpt lat="45.91223" lon="4.81612">
        <ele>170</ele>
        <time>2018-09-15T08:55:11Z</time>
      </trkpt>
      <trkpt lat="45.91218" lon="4.81612">
        <ele>170</ele>
        <time>2018-09-15T08:55:12Z</time>
      </trkpt>
      <trkpt lat="45.91211" lon="4.81611">
        <ele>170</ele>
        <time>2018-09-15T08:55:13Z</time>
      </trkpt>
      <trkpt lat="45.91205" lon="4.81612">
        <ele>170</ele>
        <time>2018-09-15T08:55:14Z</time>
      </trkpt>
      <trkpt lat="45.91198" lon="4.81612">
        <ele>170</ele>
        <time>2018-09-15T08:55:15Z</time>
      </trkpt>
      <trkpt lat="45.9119" lon="4.81611">
        <ele>170</ele>
        <time>2018-09-15T08:55:16Z</time>
      </trkpt>
      <trkpt lat="45.91183" lon="4.81611">
        <ele>170</ele>
        <time>2018-09-15T08:55:17Z</time>
      </trkpt>
      <trkpt lat="45.91175" lon="4.81611">
        <ele>170</ele>
        <time>2018-09-15T08:55:18Z</time>
      </trkpt>
      <trkpt lat="45.91168" lon="4.81611">
        <ele>170</ele>
        <time>2018-09-15T08:55:19Z</time>
      </trkpt>
      <trkpt lat="45.91163" lon="4.81612">
        <ele>170</ele>
        <time>2018-09-15T08:55:20Z</time>
      </trkpt>
      <trkpt lat="45.91157" lon="4.81612">
        <ele>170</ele>
        <time>2018-09-15T08:55:21Z</time>
      </trkpt>
      <trkpt lat="45.9115" lon="4.81611">
        <ele>170</ele>
        <time>2018-09-15T08:55:22Z</time>
      </trkpt>
      <trkpt lat="45.91144" lon="4.81611">
        <ele>170</ele>
        <time>2018-09-15T08:55:23Z</time>
      </trkpt>
      <trkpt lat="45.91139" lon="4.81614">
        <ele>170</ele>
        <time>2018-09-15T08:55:24Z</time>
      </trkpt>
      <trkpt lat="45.91133" lon="4.81613">
        <ele>170</ele>
        <time>2018-09-15T08:55:25Z</time>
      </trkpt>
      <trkpt lat="45.91128" lon="4.81613">
        <ele>170</ele>
        <time>2018-09-15T08:55:26Z</time>
      </trkpt>
      <trkpt lat="45.91121" lon="4.81613">
        <ele>170</ele>
        <time>2018-09-15T08:55:27Z</time>
      </trkpt>
      <trkpt lat="45.91115" lon="4.81613">
        <ele>170</ele>
        <time>2018-09-15T08:55:28Z</time>
      </trkpt>
      <trkpt lat="45.91109" lon="4.81611">
        <ele>170</ele>
        <time>2018-09-15T08:55:29Z</time>
      </trkpt>
      <trkpt lat="45.91103" lon="4.81611">
        <ele>170</ele>
        <time>2018-09-15T08:55:30Z</time>
      </trkpt>
      <trkpt lat="45.91097" lon="4.81612">
        <ele>169</ele>
        <time>2018-09-15T08:55:31Z</time>
      </trkpt>
      <trkpt lat="45.91091" lon="4.81612">
        <ele>169</ele>
        <time>2018-09-15T08:55:32Z</time>
      </trkpt>
      <trkpt lat="45.91084" lon="4.81613">
        <ele>169</ele>
        <time>2018-09-15T08:55:33Z</time>
      </trkpt>
      <trkpt lat="45.91077" lon="4.81612">
        <ele>169</ele>
        <time>2018-09-15T08:55:34Z</time>
      </trkpt>
      <trkpt lat="45.9107" lon="4.81613">
        <ele>169</ele>
        <time>2018-09-15T08:55:35Z</time>
      </trkpt>
      <trkpt lat="45.91062" lon="4.81613">
        <ele>169</ele>
        <time>2018-09-15T08:55:36Z</time>
      </trkpt>
      <trkpt lat="45.91055" lon="4.81612">
        <ele>169</ele>
        <time>2018-09-15T08:55:37Z</time>
      </trkpt>
      <trkpt lat="45.91048" lon="4.8161">
        <ele>169</ele>
        <time>2018-09-15T08:55:38Z</time>
      </trkpt>
      <trkpt lat="45.91041" lon="4.8161">
        <ele>169</ele>
        <time>2018-09-15T08:55:39Z</time>
      </trkpt>
      <trkpt lat="45.91036" lon="4.81608">
        <ele>169</ele>
        <time>2018-09-15T08:55:40Z</time>
      </trkpt>
      <trkpt lat="45.91028" lon="4.81607">
        <ele>169</ele>
        <time>2018-09-15T08:55:41Z</time>
      </trkpt>
      <trkpt lat="45.91021" lon="4.81606">
        <ele>169</ele>
        <time>2018-09-15T08:55:42Z</time>
      </trkpt>
      <trkpt lat="45.91017" lon="4.81604">
        <ele>169</ele>
        <time>2018-09-15T08:55:43Z</time>
      </trkpt>
      <trkpt lat="45.91011" lon="4.81603">
        <ele>169</ele>
        <time>2018-09-15T08:55:44Z</time>
      </trkpt>
      <trkpt lat="45.91007" lon="4.816">
        <ele>169</ele>
        <time>2018-09-15T08:55:45Z</time>
      </trkpt>
      <trkpt lat="45.90999" lon="4.81601">
        <ele>169</ele>
        <time>2018-09-15T08:55:47Z</time>
      </trkpt>
      <trkpt lat="45.90994" lon="4.81601">
        <ele>169</ele>
        <time>2018-09-15T08:55:48Z</time>
      </trkpt>
      <trkpt lat="45.90988" lon="4.81599">
        <ele>169</ele>
        <time>2018-09-15T08:55:49Z</time>
      </trkpt>
      <trkpt lat="45.90982" lon="4.81597">
        <ele>169</ele>
        <time>2018-09-15T08:55:50Z</time>
      </trkpt>
      <trkpt lat="45.90976" lon="4.81596">
        <ele>169</ele>
        <time>2018-09-15T08:55:51Z</time>
      </trkpt>
      <trkpt lat="45.90969" lon="4.81595">
        <ele>169</ele>
        <time>2018-09-15T08:55:52Z</time>
      </trkpt>
      <trkpt lat="45.90964" lon="4.81592">
        <ele>169</ele>
        <time>2018-09-15T08:55:53Z</time>
      </trkpt>
      <trkpt lat="45.90959" lon="4.81589">
        <ele>169</ele>
        <time>2018-09-15T08:55:54Z</time>
      </trkpt>
      <trkpt lat="45.90953" lon="4.81588">
        <ele>169</ele>
        <time>2018-09-15T08:55:55Z</time>
      </trkpt>
      <trkpt lat="45.90947" lon="4.81585">
        <ele>169</ele>
        <time>2018-09-15T08:55:56Z</time>
      </trkpt>
      <trkpt lat="45.90943" lon="4.81583">
        <ele>169</ele>
        <time>2018-09-15T08:55:57Z</time>
      </trkpt>
      <trkpt lat="45.90937" lon="4.81582">
        <ele>170</ele>
        <time>2018-09-15T08:55:58Z</time>
      </trkpt>
      <trkpt lat="45.90933" lon="4.8158">
        <ele>170</ele>
        <time>2018-09-15T08:55:59Z</time>
      </trkpt>
      <trkpt lat="45.90927" lon="4.8158">
        <ele>170</ele>
        <time>2018-09-15T08:56:00Z</time>
      </trkpt>
      <trkpt lat="45.90921" lon="4.81578">
        <ele>170</ele>
        <time>2018-09-15T08:56:01Z</time>
      </trkpt>
      <trkpt lat="45.90916" lon="4.81576">
        <ele>170</ele>
        <time>2018-09-15T08:56:02Z</time>
      </trkpt>
      <trkpt lat="45.90911" lon="4.81575">
        <ele>170</ele>
        <time>2018-09-15T08:56:03Z</time>
      </trkpt>
      <trkpt lat="45.90906" lon="4.81574">
        <ele>170</ele>
        <time>2018-09-15T08:56:04Z</time>
      </trkpt>
      <trkpt lat="45.90902" lon="4.81573">
        <ele>170</ele>
        <time>2018-09-15T08:56:05Z</time>
      </trkpt>
      <trkpt lat="45.90897" lon="4.81573">
        <ele>170</ele>
        <time>2018-09-15T08:56:06Z</time>
      </trkpt>
      <trkpt lat="45.90892" lon="4.81572">
        <ele>170</ele>
        <time>2018-09-15T08:56:07Z</time>
      </trkpt>
      <trkpt lat="45.90886" lon="4.81572">
        <ele>170</ele>
        <time>2018-09-15T08:56:08Z</time>
      </trkpt>
      <trkpt lat="45.90877" lon="4.81571">
        <ele>171</ele>
        <time>2018-09-15T08:56:10Z</time>
      </trkpt>
      <trkpt lat="45.90872" lon="4.81571">
        <ele>171</ele>
        <time>2018-09-15T08:56:11Z</time>
      </trkpt>
      <trkpt lat="45.90867" lon="4.8157">
        <ele>171</ele>
        <time>2018-09-15T08:56:12Z</time>
      </trkpt>
      <trkpt lat="45.90863" lon="4.81571">
        <ele>171</ele>
        <time>2018-09-15T08:56:13Z</time>
      </trkpt>
      <trkpt lat="45.90857" lon="4.81571">
        <ele>171</ele>
        <time>2018-09-15T08:56:14Z</time>
      </trkpt>
      <trkpt lat="45.90851" lon="4.81572">
        <ele>171</ele>
        <time>2018-09-15T08:56:15Z</time>
      </trkpt>
      <trkpt lat="45.90844" lon="4.81573">
        <ele>172</ele>
        <time>2018-09-15T08:56:16Z</time>
      </trkpt>
      <trkpt lat="45.90838" lon="4.81574">
        <ele>172</ele>
        <time>2018-09-15T08:56:17Z</time>
      </trkpt>
      <trkpt lat="45.90832" lon="4.81574">
        <ele>173</ele>
        <time>2018-09-15T08:56:18Z</time>
      </trkpt>
      <trkpt lat="45.90826" lon="4.81575">
        <ele>173</ele>
        <time>2018-09-15T08:56:19Z</time>
      </trkpt>
      <trkpt lat="45.9082" lon="4.81575">
        <ele>173</ele>
        <time>2018-09-15T08:56:20Z</time>
      </trkpt>
      <trkpt lat="45.90815" lon="4.81576">
        <ele>172</ele>
        <time>2018-09-15T08:56:21Z</time>
      </trkpt>
      <trkpt lat="45.90809" lon="4.81576">
        <ele>172</ele>
        <time>2018-09-15T08:56:22Z</time>
      </trkpt>
      <trkpt lat="45.90804" lon="4.81576">
        <ele>172</ele>
        <time>2018-09-15T08:56:23Z</time>
      </trkpt>
      <trkpt lat="45.90799" lon="4.81576">
        <ele>172</ele>
        <time>2018-09-15T08:56:24Z</time>
      </trkpt>
      <trkpt lat="45.90793" lon="4.81576">
        <ele>172</ele>
        <time>2018-09-15T08:56:25Z</time>
      </trkpt>
      <trkpt lat="45.90788" lon="4.81576">
        <ele>173</ele>
        <time>2018-09-15T08:56:26Z</time>
      </trkpt>
      <trkpt lat="45.90784" lon="4.81576">
        <ele>173</ele>
        <time>2018-09-15T08:56:27Z</time>
      </trkpt>
      <trkpt lat="45.90778" lon="4.81576">
        <ele>173</ele>
        <time>2018-09-15T08:56:28Z</time>
      </trkpt>
      <trkpt lat="45.90773" lon="4.81578">
        <ele>173</ele>
        <time>2018-09-15T08:56:29Z</time>
      </trkpt>
      <trkpt lat="45.90768" lon="4.81578">
        <ele>173</ele>
        <time>2018-09-15T08:56:30Z</time>
      </trkpt>
      <trkpt lat="45.90762" lon="4.81577">
        <ele>173</ele>
        <time>2018-09-15T08:56:31Z</time>
      </trkpt>
      <trkpt lat="45.90756" lon="4.81577">
        <ele>173</ele>
        <time>2018-09-15T08:56:32Z</time>
      </trkpt>
      <trkpt lat="45.9075" lon="4.81577">
        <ele>174</ele>
        <time>2018-09-15T08:56:33Z</time>
      </trkpt>
      <trkpt lat="45.90744" lon="4.81572">
        <ele>174</ele>
        <time>2018-09-15T08:56:34Z</time>
      </trkpt>
      <trkpt lat="45.90741" lon="4.81575">
        <ele>174</ele>
        <time>2018-09-15T08:56:35Z</time>
      </trkpt>
      <trkpt lat="45.90734" lon="4.81574">
        <ele>175</ele>
        <time>2018-09-15T08:56:37Z</time>
      </trkpt>
      <trkpt lat="45.90728" lon="4.81572">
        <ele>175</ele>
        <time>2018-09-15T08:56:38Z</time>
      </trkpt>
      <trkpt lat="45.9072" lon="4.81572">
        <ele>175</ele>
        <time>2018-09-15T08:56:40Z</time>
      </trkpt>
      <trkpt lat="45.90716" lon="4.81573">
        <ele>175</ele>
        <time>2018-09-15T08:56:41Z</time>
      </trkpt>
      <trkpt lat="45.90708" lon="4.81572">
        <ele>176</ele>
        <time>2018-09-15T08:56:45Z</time>
      </trkpt>
      <trkpt lat="45.90705" lon="4.81571">
        <ele>176</ele>
        <time>2018-09-15T08:56:46Z</time>
      </trkpt>
      <trkpt lat="45.90698" lon="4.81571">
        <ele>176</ele>
        <time>2018-09-15T08:56:48Z</time>
      </trkpt>
      <trkpt lat="45.90695" lon="4.81571">
        <ele>176</ele>
        <time>2018-09-15T08:56:49Z</time>
      </trkpt>
      <trkpt lat="45.90692" lon="4.81572">
        <ele>176</ele>
        <time>2018-09-15T08:56:50Z</time>
      </trkpt>
      <trkpt lat="45.90682" lon="4.81573">
        <ele>177</ele>
        <time>2018-09-15T08:56:51Z</time>
      </trkpt>
      <trkpt lat="45.90675" lon="4.81573">
        <ele>177</ele>
        <time>2018-09-15T08:56:53Z</time>
      </trkpt>
      <trkpt lat="45.90673" lon="4.81573">
        <ele>177</ele>
        <time>2018-09-15T08:56:54Z</time>
      </trkpt>
      <trkpt lat="45.90666" lon="4.81572">
        <ele>179</ele>
        <time>2018-09-15T08:56:57Z</time>
      </trkpt>
      <trkpt lat="45.90663" lon="4.81571">
        <ele>179</ele>
        <time>2018-09-15T08:56:58Z</time>
      </trkpt>
      <trkpt lat="45.90654" lon="4.81571">
        <ele>179</ele>
        <time>2018-09-15T08:56:59Z</time>
      </trkpt>
      <trkpt lat="45.90652" lon="4.81571">
        <ele>179</ele>
        <time>2018-09-15T08:57:00Z</time>
      </trkpt>
      <trkpt lat="45.90648" lon="4.81571">
        <ele>179</ele>
        <time>2018-09-15T08:57:02Z</time>
      </trkpt>
      <trkpt lat="45.9064" lon="4.81571">
        <ele>179</ele>
        <time>2018-09-15T08:57:03Z</time>
      </trkpt>
      <trkpt lat="45.90633" lon="4.81573">
        <ele>179</ele>
        <time>2018-09-15T08:57:06Z</time>
      </trkpt>
      <trkpt lat="45.90631" lon="4.81574">
        <ele>179</ele>
        <time>2018-09-15T08:57:07Z</time>
      </trkpt>
      <trkpt lat="45.90628" lon="4.81574">
        <ele>179</ele>
        <time>2018-09-15T08:57:08Z</time>
      </trkpt>
      <trkpt lat="45.90618" lon="4.81574">
        <ele>180</ele>
        <time>2018-09-15T08:57:09Z</time>
      </trkpt>
      <trkpt lat="45.90615" lon="4.81574">
        <ele>180</ele>
        <time>2018-09-15T08:57:11Z</time>
      </trkpt>
      <trkpt lat="45.90608" lon="4.81574">
        <ele>180</ele>
        <time>2018-09-15T08:57:12Z</time>
      </trkpt>
      <trkpt lat="45.90601" lon="4.81576">
        <ele>180</ele>
        <time>2018-09-15T08:57:15Z</time>
      </trkpt>
      <trkpt lat="45.90595" lon="4.81578">
        <ele>181</ele>
        <time>2018-09-15T08:57:16Z</time>
      </trkpt>
      <trkpt lat="45.90587" lon="4.81578">
        <ele>181</ele>
        <time>2018-09-15T08:57:19Z</time>
      </trkpt>
      <trkpt lat="45.90581" lon="4.81579">
        <ele>182</ele>
        <time>2018-09-15T08:57:20Z</time>
      </trkpt>
      <trkpt lat="45.90576" lon="4.81579">
        <ele>182</ele>
        <time>2018-09-15T08:57:22Z</time>
      </trkpt>
      <trkpt lat="45.90571" lon="4.81579">
        <ele>182</ele>
        <time>2018-09-15T08:57:23Z</time>
      </trkpt>
      <trkpt lat="45.90564" lon="4.81581">
        <ele>182</ele>
        <time>2018-09-15T08:57:25Z</time>
      </trkpt>
      <trkpt lat="45.9056" lon="4.81581">
        <ele>182</ele>
        <time>2018-09-15T08:57:26Z</time>
      </trkpt>
      <trkpt lat="45.90552" lon="4.81581">
        <ele>181</ele>
        <time>2018-09-15T08:57:28Z</time>
      </trkpt>
      <trkpt lat="45.90548" lon="4.8158">
        <ele>181</ele>
        <time>2018-09-15T08:57:29Z</time>
      </trkpt>
      <trkpt lat="45.90541" lon="4.8158">
        <ele>181</ele>
        <time>2018-09-15T08:57:31Z</time>
      </trkpt>
      <trkpt lat="45.90537" lon="4.8158">
        <ele>181</ele>
        <time>2018-09-15T08:57:32Z</time>
      </trkpt>
      <trkpt lat="45.90533" lon="4.81581">
        <ele>181</ele>
        <time>2018-09-15T08:57:33Z</time>
      </trkpt>
      <trkpt lat="45.90527" lon="4.81582">
        <ele>181</ele>
        <time>2018-09-15T08:57:34Z</time>
      </trkpt>
      <trkpt lat="45.90522" lon="4.81584">
        <ele>182</ele>
        <time>2018-09-15T08:57:35Z</time>
      </trkpt>
      <trkpt lat="45.90518" lon="4.81583">
        <ele>182</ele>
        <time>2018-09-15T08:57:36Z</time>
      </trkpt>
      <trkpt lat="45.90512" lon="4.81582">
        <ele>181</ele>
        <time>2018-09-15T08:57:38Z</time>
      </trkpt>
      <trkpt lat="45.90506" lon="4.81583">
        <ele>181</ele>
        <time>2018-09-15T08:57:39Z</time>
      </trkpt>
      <trkpt lat="45.90497" lon="4.81583">
        <ele>181</ele>
        <time>2018-09-15T08:57:41Z</time>
      </trkpt>
      <trkpt lat="45.90492" lon="4.81584">
        <ele>181</ele>
        <time>2018-09-15T08:57:42Z</time>
      </trkpt>
      <trkpt lat="45.90484" lon="4.81584">
        <ele>182</ele>
        <time>2018-09-15T08:57:44Z</time>
      </trkpt>
      <trkpt lat="45.90478" lon="4.81584">
        <ele>182</ele>
        <time>2018-09-15T08:57:45Z</time>
      </trkpt>
      <trkpt lat="45.90474" lon="4.81585">
        <ele>182</ele>
        <time>2018-09-15T08:57:46Z</time>
      </trkpt>
      <trkpt lat="45.90469" lon="4.81586">
        <ele>182</ele>
        <time>2018-09-15T08:57:47Z</time>
      </trkpt>
      <trkpt lat="45.90464" lon="4.81587">
        <ele>182</ele>
        <time>2018-09-15T08:57:48Z</time>
      </trkpt>
      <trkpt lat="45.90459" lon="4.81587">
        <ele>182</ele>
        <time>2018-09-15T08:57:49Z</time>
      </trkpt>
      <trkpt lat="45.90455" lon="4.81586">
        <ele>182</ele>
        <time>2018-09-15T08:57:51Z</time>
      </trkpt>
      <trkpt lat="45.90448" lon="4.81585">
        <ele>182</ele>
        <time>2018-09-15T08:57:52Z</time>
      </trkpt>
      <trkpt lat="45.9044" lon="4.81585">
        <ele>182</ele>
        <time>2018-09-15T08:57:54Z</time>
      </trkpt>
      <trkpt lat="45.90438" lon="4.81586">
        <ele>182</ele>
        <time>2018-09-15T08:57:55Z</time>
      </trkpt>
      <trkpt lat="45.90432" lon="4.81589">
        <ele>182</ele>
        <time>2018-09-15T08:57:56Z</time>
      </trkpt>
      <trkpt lat="45.90425" lon="4.8159">
        <ele>182</ele>
        <time>2018-09-15T08:57:57Z</time>
      </trkpt>
      <trkpt lat="45.90419" lon="4.81591">
        <ele>182</ele>
        <time>2018-09-15T08:57:58Z</time>
      </trkpt>
      <trkpt lat="45.90413" lon="4.81593">
        <ele>182</ele>
        <time>2018-09-15T08:57:59Z</time>
      </trkpt>
      <trkpt lat="45.90406" lon="4.81593">
        <ele>182</ele>
        <time>2018-09-15T08:58:00Z</time>
      </trkpt>
      <trkpt lat="45.90401" lon="4.81594">
        <ele>182</ele>
        <time>2018-09-15T08:58:01Z</time>
      </trkpt>
      <trkpt lat="45.90395" lon="4.81593">
        <ele>182</ele>
        <time>2018-09-15T08:58:03Z</time>
      </trkpt>
      <trkpt lat="45.90389" lon="4.81595">
        <ele>182</ele>
        <time>2018-09-15T08:58:04Z</time>
      </trkpt>
      <trkpt lat="45.90381" lon="4.81599">
        <ele>182</ele>
        <time>2018-09-15T08:58:06Z</time>
      </trkpt>
      <trkpt lat="45.90376" lon="4.816">
        <ele>182</ele>
        <time>2018-09-15T08:58:07Z</time>
      </trkpt>
      <trkpt lat="45.90371" lon="4.81601">
        <ele>182</ele>
        <time>2018-09-15T08:58:08Z</time>
      </trkpt>
      <trkpt lat="45.90366" lon="4.81603">
        <ele>182</ele>
        <time>2018-09-15T08:58:09Z</time>
      </trkpt>
      <trkpt lat="45.90362" lon="4.81606">
        <ele>182</ele>
        <time>2018-09-15T08:58:10Z</time>
      </trkpt>
      <trkpt lat="45.90358" lon="4.81608">
        <ele>182</ele>
        <time>2018-09-15T08:58:11Z</time>
      </trkpt>
      <trkpt lat="45.90349" lon="4.81607">
        <ele>182</ele>
        <time>2018-09-15T08:58:13Z</time>
      </trkpt>
      <trkpt lat="45.90343" lon="4.81608">
        <ele>182</ele>
        <time>2018-09-15T08:58:14Z</time>
      </trkpt>
      <trkpt lat="45.90337" lon="4.81606">
        <ele>182</ele>
        <time>2018-09-15T08:58:15Z</time>
      </trkpt>
      <trkpt lat="45.90333" lon="4.81607">
        <ele>182</ele>
        <time>2018-09-15T08:58:16Z</time>
      </trkpt>
      <trkpt lat="45.90324" lon="4.81609">
        <ele>182</ele>
        <time>2018-09-15T08:58:19Z</time>
      </trkpt>
      <trkpt lat="45.90322" lon="4.81609">
        <ele>182</ele>
        <time>2018-09-15T08:58:20Z</time>
      </trkpt>
      <trkpt lat="45.90313" lon="4.8161">
        <ele>182</ele>
        <time>2018-09-15T08:58:23Z</time>
      </trkpt>
      <trkpt lat="45.90305" lon="4.81609">
        <ele>182</ele>
        <time>2018-09-15T08:58:24Z</time>
      </trkpt>
      <trkpt lat="45.90301" lon="4.81607">
        <ele>182</ele>
        <time>2018-09-15T08:58:25Z</time>
      </trkpt>
      <trkpt lat="45.90295" lon="4.81607">
        <ele>182</ele>
        <time>2018-09-15T08:58:26Z</time>
      </trkpt>
      <trkpt lat="45.9029" lon="4.81607">
        <ele>182</ele>
        <time>2018-09-15T08:58:27Z</time>
      </trkpt>
      <trkpt lat="45.90284" lon="4.8161">
        <ele>182</ele>
        <time>2018-09-15T08:58:28Z</time>
      </trkpt>
      <trkpt lat="45.90278" lon="4.81614">
        <ele>181</ele>
        <time>2018-09-15T08:58:29Z</time>
      </trkpt>
      <trkpt lat="45.90274" lon="4.81619">
        <ele>182</ele>
        <time>2018-09-15T08:58:30Z</time>
      </trkpt>
      <trkpt lat="45.90272" lon="4.81627">
        <ele>182</ele>
        <time>2018-09-15T08:58:31Z</time>
      </trkpt>
      <trkpt lat="45.90271" lon="4.81636">
        <ele>182</ele>
        <time>2018-09-15T08:58:32Z</time>
      </trkpt>
      <trkpt lat="45.90273" lon="4.81644">
        <ele>182</ele>
        <time>2018-09-15T08:58:33Z</time>
      </trkpt>
      <trkpt lat="45.90275" lon="4.81651">
        <ele>182</ele>
        <time>2018-09-15T08:58:34Z</time>
      </trkpt>
      <trkpt lat="45.90278" lon="4.81656">
        <ele>182</ele>
        <time>2018-09-15T08:58:35Z</time>
      </trkpt>
      <trkpt lat="45.90283" lon="4.81659">
        <ele>182</ele>
        <time>2018-09-15T08:58:36Z</time>
      </trkpt>
      <trkpt lat="45.90288" lon="4.81662">
        <ele>182</ele>
        <time>2018-09-15T08:58:37Z</time>
      </trkpt>
      <trkpt lat="45.90293" lon="4.81666">
        <ele>182</ele>
        <time>2018-09-15T08:58:38Z</time>
      </trkpt>
      <trkpt lat="45.90298" lon="4.81669">
        <ele>183</ele>
        <time>2018-09-15T08:58:39Z</time>
      </trkpt>
      <trkpt lat="45.90302" lon="4.81672">
        <ele>183</ele>
        <time>2018-09-15T08:58:40Z</time>
      </trkpt>
      <trkpt lat="45.90306" lon="4.81676">
        <ele>183</ele>
        <time>2018-09-15T08:58:41Z</time>
      </trkpt>
      <trkpt lat="45.9031" lon="4.8168">
        <ele>183</ele>
        <time>2018-09-15T08:58:42Z</time>
      </trkpt>
      <trkpt lat="45.90314" lon="4.81683">
        <ele>183</ele>
        <time>2018-09-15T08:58:43Z</time>
      </trkpt>
      <trkpt lat="45.90318" lon="4.81688">
        <ele>183</ele>
        <time>2018-09-15T08:58:44Z</time>
      </trkpt>
      <trkpt lat="45.90322" lon="4.81692">
        <ele>183</ele>
        <time>2018-09-15T08:58:45Z</time>
      </trkpt>
      <trkpt lat="45.90326" lon="4.81696">
        <ele>183</ele>
        <time>2018-09-15T08:58:46Z</time>
      </trkpt>
      <trkpt lat="45.90329" lon="4.81701">
        <ele>183</ele>
        <time>2018-09-15T08:58:47Z</time>
      </trkpt>
      <trkpt lat="45.90332" lon="4.81706">
        <ele>183</ele>
        <time>2018-09-15T08:58:48Z</time>
      </trkpt>
      <trkpt lat="45.90335" lon="4.8171">
        <ele>183</ele>
        <time>2018-09-15T08:58:49Z</time>
      </trkpt>
      <trkpt lat="45.90338" lon="4.81716">
        <ele>183</ele>
        <time>2018-09-15T08:58:50Z</time>
      </trkpt>
      <trkpt lat="45.90341" lon="4.81722">
        <ele>183</ele>
        <time>2018-09-15T08:58:51Z</time>
      </trkpt>
      <trkpt lat="45.90343" lon="4.81727">
        <ele>183</ele>
        <time>2018-09-15T08:58:52Z</time>
      </trkpt>
      <trkpt lat="45.90345" lon="4.81735">
        <ele>183</ele>
        <time>2018-09-15T08:58:53Z</time>
      </trkpt>
      <trkpt lat="45.90347" lon="4.81741">
        <ele>183</ele>
        <time>2018-09-15T08:58:54Z</time>
      </trkpt>
      <trkpt lat="45.90348" lon="4.81748">
        <ele>183</ele>
        <time>2018-09-15T08:58:55Z</time>
      </trkpt>
      <trkpt lat="45.90349" lon="4.81754">
        <ele>183</ele>
        <time>2018-09-15T08:58:56Z</time>
      </trkpt>
      <trkpt lat="45.90351" lon="4.81761">
        <ele>183</ele>
        <time>2018-09-15T08:58:57Z</time>
      </trkpt>
      <trkpt lat="45.90353" lon="4.81768">
        <ele>183</ele>
        <time>2018-09-15T08:58:58Z</time>
      </trkpt>
      <trkpt lat="45.90355" lon="4.81774">
        <ele>183</ele>
        <time>2018-09-15T08:58:59Z</time>
      </trkpt>
      <trkpt lat="45.90356" lon="4.81782">
        <ele>183</ele>
        <time>2018-09-15T08:59:00Z</time>
      </trkpt>
      <trkpt lat="45.90358" lon="4.81789">
        <ele>183</ele>
        <time>2018-09-15T08:59:01Z</time>
      </trkpt>
      <trkpt lat="45.9036" lon="4.81794">
        <ele>183</ele>
        <time>2018-09-15T08:59:02Z</time>
      </trkpt>
      <trkpt lat="45.90364" lon="4.818">
        <ele>183</ele>
        <time>2018-09-15T08:59:03Z</time>
      </trkpt>
      <trkpt lat="45.90365" lon="4.81807">
        <ele>183</ele>
        <time>2018-09-15T08:59:04Z</time>
      </trkpt>
      <trkpt lat="45.90368" lon="4.81818">
        <ele>183</ele>
        <time>2018-09-15T08:59:06Z</time>
      </trkpt>
      <trkpt lat="45.9037" lon="4.81823">
        <ele>183</ele>
        <time>2018-09-15T08:59:07Z</time>
      </trkpt>
      <trkpt lat="45.90375" lon="4.8183">
        <ele>183</ele>
        <time>2018-09-15T08:59:08Z</time>
      </trkpt>
      <trkpt lat="45.90376" lon="4.81836">
        <ele>183</ele>
        <time>2018-09-15T08:59:09Z</time>
      </trkpt>
      <trkpt lat="45.90377" lon="4.81849">
        <ele>183</ele>
        <time>2018-09-15T08:59:11Z</time>
      </trkpt>
      <trkpt lat="45.90378" lon="4.81854">
        <ele>183</ele>
        <time>2018-09-15T08:59:12Z</time>
      </trkpt>
      <trkpt lat="45.9038" lon="4.81863">
        <ele>183</ele>
        <time>2018-09-15T08:59:13Z</time>
      </trkpt>
      <trkpt lat="45.90381" lon="4.81869">
        <ele>183</ele>
        <time>2018-09-15T08:59:14Z</time>
      </trkpt>
      <trkpt lat="45.90383" lon="4.81875">
        <ele>183</ele>
        <time>2018-09-15T08:59:15Z</time>
      </trkpt>
      <trkpt lat="45.90386" lon="4.81881">
        <ele>183</ele>
        <time>2018-09-15T08:59:16Z</time>
      </trkpt>
      <trkpt lat="45.90385" lon="4.81886">
        <ele>183</ele>
        <time>2018-09-15T08:59:18Z</time>
      </trkpt>
      <trkpt lat="45.90385" lon="4.81895">
        <ele>183</ele>
        <time>2018-09-15T08:59:19Z</time>
      </trkpt>
      <trkpt lat="45.90384" lon="4.81903">
        <ele>183</ele>
        <time>2018-09-15T08:59:20Z</time>
      </trkpt>
      <trkpt lat="45.90384" lon="4.81909">
        <ele>183</ele>
        <time>2018-09-15T08:59:21Z</time>
      </trkpt>
      <trkpt lat="45.90385" lon="4.8192">
        <ele>183</ele>
        <time>2018-09-15T08:59:22Z</time>
      </trkpt>
      <trkpt lat="45.90389" lon="4.81925">
        <ele>183</ele>
        <time>2018-09-15T08:59:23Z</time>
      </trkpt>
      <trkpt lat="45.90393" lon="4.81929">
        <ele>183</ele>
        <time>2018-09-15T08:59:24Z</time>
      </trkpt>
      <trkpt lat="45.90398" lon="4.81938">
        <ele>183</ele>
        <time>2018-09-15T08:59:25Z</time>
      </trkpt>
      <trkpt lat="45.90402" lon="4.81944">
        <ele>183</ele>
        <time>2018-09-15T08:59:26Z</time>
      </trkpt>
      <trkpt lat="45.90404" lon="4.8195">
        <ele>183</ele>
        <time>2018-09-15T08:59:27Z</time>
      </trkpt>
      <trkpt lat="45.90408" lon="4.81958">
        <ele>183</ele>
        <time>2018-09-15T08:59:29Z</time>
      </trkpt>
      <trkpt lat="45.9041" lon="4.81961">
        <ele>183</ele>
        <time>2018-09-15T08:59:30Z</time>
      </trkpt>
      <trkpt lat="45.90415" lon="4.8197">
        <ele>183</ele>
        <time>2018-09-15T08:59:32Z</time>
      </trkpt>
      <trkpt lat="45.90417" lon="4.81976">
        <ele>184</ele>
        <time>2018-09-15T08:59:33Z</time>
      </trkpt>
      <trkpt lat="45.90419" lon="4.81982">
        <ele>184</ele>
        <time>2018-09-15T08:59:34Z</time>
      </trkpt>
      <trkpt lat="45.90421" lon="4.81988">
        <ele>184</ele>
        <time>2018-09-15T08:59:35Z</time>
      </trkpt>
      <trkpt lat="45.90424" lon="4.81994">
        <ele>184</ele>
        <time>2018-09-15T08:59:36Z</time>
      </trkpt>
      <trkpt lat="45.90426" lon="4.82">
        <ele>184</ele>
        <time>2018-09-15T08:59:37Z</time>
      </trkpt>
      <trkpt lat="45.9043" lon="4.82012">
        <ele>184</ele>
        <time>2018-09-15T08:59:39Z</time>
      </trkpt>
      <trkpt lat="45.90432" lon="4.82017">
        <ele>185</ele>
        <time>2018-09-15T08:59:40Z</time>
      </trkpt>
      <trkpt lat="45.90434" lon="4.82024">
        <ele>185</ele>
        <time>2018-09-15T08:59:41Z</time>
      </trkpt>
      <trkpt lat="45.90437" lon="4.8203">
        <ele>185</ele>
        <time>2018-09-15T08:59:42Z</time>
      </trkpt>
      <trkpt lat="45.90439" lon="4.82038">
        <ele>185</ele>
        <time>2018-09-15T08:59:43Z</time>
      </trkpt>
      <trkpt lat="45.90441" lon="4.82043">
        <ele>185</ele>
        <time>2018-09-15T08:59:44Z</time>
      </trkpt>
      <trkpt lat="45.90442" lon="4.82049">
        <ele>185</ele>
        <time>2018-09-15T08:59:45Z</time>
      </trkpt>
      <trkpt lat="45.90445" lon="4.82059">
        <ele>186</ele>
        <time>2018-09-15T08:59:46Z</time>
      </trkpt>
      <trkpt lat="45.90446" lon="4.82062">
        <ele>186</ele>
        <time>2018-09-15T08:59:47Z</time>
      </trkpt>
      <trkpt lat="45.90451" lon="4.82071">
        <ele>186</ele>
        <time>2018-09-15T08:59:48Z</time>
      </trkpt>
      <trkpt lat="45.90454" lon="4.82081">
        <ele>186</ele>
        <time>2018-09-15T08:59:50Z</time>
      </trkpt>
      <trkpt lat="45.90456" lon="4.82086">
        <ele>187</ele>
        <time>2018-09-15T08:59:51Z</time>
      </trkpt>
      <trkpt lat="45.90461" lon="4.82094">
        <ele>187</ele>
        <time>2018-09-15T08:59:53Z</time>
      </trkpt>
      <trkpt lat="45.90464" lon="4.82098">
        <ele>187</ele>
        <time>2018-09-15T08:59:54Z</time>
      </trkpt>
      <trkpt lat="45.90468" lon="4.82107">
        <ele>187</ele>
        <time>2018-09-15T08:59:56Z</time>
      </trkpt>
      <trkpt lat="45.9047" lon="4.82112">
        <ele>187</ele>
        <time>2018-09-15T08:59:57Z</time>
      </trkpt>
      <trkpt lat="45.90474" lon="4.82122">
        <ele>187</ele>
        <time>2018-09-15T08:59:59Z</time>
      </trkpt>
      <trkpt lat="45.90477" lon="4.82127">
        <ele>187</ele>
        <time>2018-09-15T09:00:00Z</time>
      </trkpt>
      <trkpt lat="45.90483" lon="4.82136">
        <ele>187</ele>
        <time>2018-09-15T09:00:02Z</time>
      </trkpt>
      <trkpt lat="45.90486" lon="4.82141">
        <ele>187</ele>
        <time>2018-09-15T09:00:03Z</time>
      </trkpt>
      <trkpt lat="45.90492" lon="4.8215">
        <ele>188</ele>
        <time>2018-09-15T09:00:05Z</time>
      </trkpt>
      <trkpt lat="45.90495" lon="4.82153">
        <ele>188</ele>
        <time>2018-09-15T09:00:06Z</time>
      </trkpt>
      <trkpt lat="45.90502" lon="4.8216">
        <ele>188</ele>
        <time>2018-09-15T09:00:08Z</time>
      </trkpt>
      <trkpt lat="45.90504" lon="4.82163">
        <ele>188</ele>
        <time>2018-09-15T09:00:09Z</time>
      </trkpt>
      <trkpt lat="45.90509" lon="4.82167">
        <ele>189</ele>
        <time>2018-09-15T09:00:11Z</time>
      </trkpt>
      <trkpt lat="45.90514" lon="4.8217">
        <ele>189</ele>
        <time>2018-09-15T09:00:12Z</time>
      </trkpt>
      <trkpt lat="45.90521" lon="4.82173">
        <ele>189</ele>
        <time>2018-09-15T09:00:14Z</time>
      </trkpt>
      <trkpt lat="45.90523" lon="4.82174">
        <ele>189</ele>
        <time>2018-09-15T09:00:15Z</time>
      </trkpt>
      <trkpt lat="45.90531" lon="4.82178">
        <ele>190</ele>
        <time>2018-09-15T09:00:17Z</time>
      </trkpt>
      <trkpt lat="45.90533" lon="4.82179">
        <ele>190</ele>
        <time>2018-09-15T09:00:18Z</time>
      </trkpt>
      <trkpt lat="45.90539" lon="4.82182">
        <ele>190</ele>
        <time>2018-09-15T09:00:20Z</time>
      </trkpt>
      <trkpt lat="45.90541" lon="4.82183">
        <ele>190</ele>
        <time>2018-09-15T09:00:21Z</time>
      </trkpt>
      <trkpt lat="45.90547" lon="4.82186">
        <ele>190</ele>
        <time>2018-09-15T09:00:22Z</time>
      </trkpt>
      <trkpt lat="45.90551" lon="4.82187">
        <ele>190</ele>
        <time>2018-09-15T09:00:23Z</time>
      </trkpt>
      <trkpt lat="45.90559" lon="4.82194">
        <ele>190</ele>
        <time>2018-09-15T09:00:28Z</time>
      </trkpt>
      <trkpt lat="45.90564" lon="4.82199">
        <ele>190</ele>
        <time>2018-09-15T09:00:29Z</time>
      </trkpt>
      <trkpt lat="45.9057" lon="4.82205">
        <ele>191</ele>
        <time>2018-09-15T09:00:33Z</time>
      </trkpt>
      <trkpt lat="45.90573" lon="4.82207">
        <ele>191</ele>
        <time>2018-09-15T09:00:34Z</time>
      </trkpt>
      <trkpt lat="45.90578" lon="4.82212">
        <ele>191</ele>
        <time>2018-09-15T09:00:36Z</time>
      </trkpt>
      <trkpt lat="45.90585" lon="4.8222">
        <ele>192</ele>
        <time>2018-09-15T09:00:37Z</time>
      </trkpt>
      <trkpt lat="45.90588" lon="4.82225">
        <ele>192</ele>
        <time>2018-09-15T09:00:39Z</time>
      </trkpt>
      <trkpt lat="45.90592" lon="4.82232">
        <ele>192</ele>
        <time>2018-09-15T09:00:40Z</time>
      </trkpt>
      <trkpt lat="45.90597" lon="4.82241">
        <ele>192</ele>
        <time>2018-09-15T09:00:42Z</time>
      </trkpt>
      <trkpt lat="45.90599" lon="4.82245">
        <ele>192</ele>
        <time>2018-09-15T09:00:43Z</time>
      </trkpt>
      <trkpt lat="45.90602" lon="4.82252">
        <ele>193</ele>
        <time>2018-09-15T09:00:45Z</time>
      </trkpt>
      <trkpt lat="45.90605" lon="4.82259">
        <ele>193</ele>
        <time>2018-09-15T09:00:46Z</time>
      </trkpt>
      <trkpt lat="45.90608" lon="4.8227">
        <ele>193</ele>
        <time>2018-09-15T09:00:48Z</time>
      </trkpt>
      <trkpt lat="45.90609" lon="4.82275">
        <ele>194</ele>
        <time>2018-09-15T09:00:49Z</time>
      </trkpt>
      <trkpt lat="45.90611" lon="4.82286">
        <ele>194</ele>
        <time>2018-09-15T09:00:51Z</time>
      </trkpt>
      <trkpt lat="45.90612" lon="4.82291">
        <ele>194</ele>
        <time>2018-09-15T09:00:52Z</time>
      </trkpt>
      <trkpt lat="45.90613" lon="4.82302">
        <ele>194</ele>
        <time>2018-09-15T09:00:54Z</time>
      </trkpt>
      <trkpt lat="45.90613" lon="4.82308">
        <ele>194</ele>
        <time>2018-09-15T09:00:55Z</time>
      </trkpt>
      <trkpt lat="45.90613" lon="4.8232">
        <ele>194</ele>
        <time>2018-09-15T09:00:57Z</time>
      </trkpt>
      <trkpt lat="45.90614" lon="4.82326">
        <ele>194</ele>
        <time>2018-09-15T09:00:58Z</time>
      </trkpt>
      <trkpt lat="45.90615" lon="4.82337">
        <ele>195</ele>
        <time>2018-09-15T09:01:01Z</time>
      </trkpt>
      <trkpt lat="45.90615" lon="4.8234">
        <ele>195</ele>
        <time>2018-09-15T09:01:02Z</time>
      </trkpt>
      <trkpt lat="45.90615" lon="4.82347">
        <ele>195</ele>
        <time>2018-09-15T09:01:04Z</time>
      </trkpt>
      <trkpt lat="45.90616" lon="4.82359">
        <ele>195</ele>
        <time>2018-09-15T09:01:05Z</time>
      </trkpt>
      <trkpt lat="45.90617" lon="4.82371">
        <ele>196</ele>
        <time>2018-09-15T09:01:07Z</time>
      </trkpt>
      <trkpt lat="45.90616" lon="4.82376">
        <ele>196</ele>
        <time>2018-09-15T09:01:08Z</time>
      </trkpt>
      <trkpt lat="45.90617" lon="4.82382">
        <ele>196</ele>
        <time>2018-09-15T09:01:10Z</time>
      </trkpt>
      <trkpt lat="45.90617" lon="4.82392">
        <ele>196</ele>
        <time>2018-09-15T09:01:11Z</time>
      </trkpt>
      <trkpt lat="45.90617" lon="4.82397">
        <ele>196</ele>
        <time>2018-09-15T09:01:12Z</time>
      </trkpt>
      <trkpt lat="45.90618" lon="4.82406">
        <ele>196</ele>
        <time>2018-09-15T09:01:15Z</time>
      </trkpt>
      <trkpt lat="45.90617" lon="4.82417">
        <ele>196</ele>
        <time>2018-09-15T09:01:17Z</time>
      </trkpt>
      <trkpt lat="45.90617" lon="4.8242">
        <ele>196</ele>
        <time>2018-09-15T09:01:18Z</time>
      </trkpt>
      <trkpt lat="45.90617" lon="4.82431">
        <ele>196</ele>
        <time>2018-09-15T09:01:21Z</time>
      </trkpt>
      <trkpt lat="45.90617" lon="4.82434">
        <ele>196</ele>
        <time>2018-09-15T09:01:22Z</time>
      </trkpt>
      <trkpt lat="45.90616" lon="4.82438">
        <ele>196</ele>
        <time>2018-09-15T09:01:23Z</time>
      </trkpt>
      <trkpt lat="45.90612" lon="4.82449">
        <ele>196</ele>
        <time>2018-09-15T09:01:24Z</time>
      </trkpt>
      <trkpt lat="45.90606" lon="4.82455">
        <ele>196</ele>
        <time>2018-09-15T09:01:26Z</time>
      </trkpt>
      <trkpt lat="45.90604" lon="4.82461">
        <ele>196</ele>
        <time>2018-09-15T09:01:27Z</time>
      </trkpt>
      <trkpt lat="45.90602" lon="4.82469">
        <ele>196</ele>
        <time>2018-09-15T09:01:29Z</time>
      </trkpt>
      <trkpt lat="45.90602" lon="4.82474">
        <ele>196</ele>
        <time>2018-09-15T09:01:30Z</time>
      </trkpt>
      <trkpt lat="45.90606" lon="4.82486">
        <ele>196</ele>
        <time>2018-09-15T09:01:32Z</time>
      </trkpt>
      <trkpt lat="45.90606" lon="4.82491">
        <ele>196</ele>
        <time>2018-09-15T09:01:33Z</time>
      </trkpt>
      <trkpt lat="45.90609" lon="4.82502">
        <ele>196</ele>
        <time>2018-09-15T09:01:35Z</time>
      </trkpt>
      <trkpt lat="45.90609" lon="4.82507">
        <ele>196</ele>
        <time>2018-09-15T09:01:36Z</time>
      </trkpt>
      <trkpt lat="45.90612" lon="4.82516">
        <ele>196</ele>
        <time>2018-09-15T09:01:38Z</time>
      </trkpt>
      <trkpt lat="45.90612" lon="4.82523">
        <ele>196</ele>
        <time>2018-09-15T09:01:39Z</time>
      </trkpt>
      <trkpt lat="45.90613" lon="4.8253">
        <ele>196</ele>
        <time>2018-09-15T09:01:40Z</time>
      </trkpt>
      <trkpt lat="45.90613" lon="4.82536">
        <ele>196</ele>
        <time>2018-09-15T09:01:41Z</time>
      </trkpt>
      <trkpt lat="45.90615" lon="4.82548">
        <ele>196</ele>
        <time>2018-09-15T09:01:43Z</time>
      </trkpt>
      <trkpt lat="45.90615" lon="4.82555">
        <ele>196</ele>
        <time>2018-09-15T09:01:44Z</time>
      </trkpt>
      <trkpt lat="45.90615" lon="4.82563">
        <ele>196</ele>
        <time>2018-09-15T09:01:45Z</time>
      </trkpt>
      <trkpt lat="45.90616" lon="4.82569">
        <ele>196</ele>
        <time>2018-09-15T09:01:46Z</time>
      </trkpt>
      <trkpt lat="45.90618" lon="4.82582">
        <ele>196</ele>
        <time>2018-09-15T09:01:48Z</time>
      </trkpt>
      <trkpt lat="45.90619" lon="4.82587">
        <ele>197</ele>
        <time>2018-09-15T09:01:49Z</time>
      </trkpt>
      <trkpt lat="45.9062" lon="4.82597">
        <ele>197</ele>
        <time>2018-09-15T09:01:51Z</time>
      </trkpt>
      <trkpt lat="45.9062" lon="4.82602">
        <ele>197</ele>
        <time>2018-09-15T09:01:52Z</time>
      </trkpt>
      <trkpt lat="45.90621" lon="4.82612">
        <ele>197</ele>
        <time>2018-09-15T09:01:54Z</time>
      </trkpt>
      <trkpt lat="45.90623" lon="4.82619">
        <ele>197</ele>
        <time>2018-09-15T09:01:55Z</time>
      </trkpt>
      <trkpt lat="45.90622" lon="4.82626">
        <ele>197</ele>
        <time>2018-09-15T09:01:57Z</time>
      </trkpt>
      <trkpt lat="45.90624" lon="4.82637">
        <ele>198</ele>
        <time>2018-09-15T09:01:58Z</time>
      </trkpt>
      <trkpt lat="45.90624" lon="4.82649">
        <ele>198</ele>
        <time>2018-09-15T09:02:00Z</time>
      </trkpt>
      <trkpt lat="45.90625" lon="4.82655">
        <ele>198</ele>
        <time>2018-09-15T09:02:01Z</time>
      </trkpt>
      <trkpt lat="45.90627" lon="4.82666">
        <ele>198</ele>
        <time>2018-09-15T09:02:03Z</time>
      </trkpt>
      <trkpt lat="45.90628" lon="4.82672">
        <ele>199</ele>
        <time>2018-09-15T09:02:04Z</time>
      </trkpt>
      <trkpt lat="45.9063" lon="4.82682">
        <ele>199</ele>
        <time>2018-09-15T09:02:06Z</time>
      </trkpt>
      <trkpt lat="45.90632" lon="4.82689">
        <ele>199</ele>
        <time>2018-09-15T09:02:07Z</time>
      </trkpt>
      <trkpt lat="45.90633" lon="4.82699">
        <ele>199</ele>
        <time>2018-09-15T09:02:09Z</time>
      </trkpt>
      <trkpt lat="45.90633" lon="4.82706">
        <ele>199</ele>
        <time>2018-09-15T09:02:10Z</time>
      </trkpt>
      <trkpt lat="45.90635" lon="4.82718">
        <ele>199</ele>
        <time>2018-09-15T09:02:12Z</time>
      </trkpt>
      <trkpt lat="45.90635" lon="4.82724">
        <ele>199</ele>
        <time>2018-09-15T09:02:13Z</time>
      </trkpt>
      <trkpt lat="45.90636" lon="4.82731">
        <ele>200</ele>
        <time>2018-09-15T09:02:14Z</time>
      </trkpt>
      <trkpt lat="45.90637" lon="4.82737">
        <ele>200</ele>
        <time>2018-09-15T09:02:15Z</time>
      </trkpt>
      <trkpt lat="45.90638" lon="4.82748">
        <ele>200</ele>
        <time>2018-09-15T09:02:18Z</time>
      </trkpt>
      <trkpt lat="45.90639" lon="4.82757">
        <ele>201</ele>
        <time>2018-09-15T09:02:19Z</time>
      </trkpt>
      <trkpt lat="45.90641" lon="4.82768">
        <ele>201</ele>
        <time>2018-09-15T09:02:21Z</time>
      </trkpt>
      <trkpt lat="45.90642" lon="4.82774">
        <ele>201</ele>
        <time>2018-09-15T09:02:22Z</time>
      </trkpt>
      <trkpt lat="45.90647" lon="4.82785">
        <ele>201</ele>
        <time>2018-09-15T09:02:24Z</time>
      </trkpt>
      <trkpt lat="45.90648" lon="4.82791">
        <ele>201</ele>
        <time>2018-09-15T09:02:25Z</time>
      </trkpt>
      <trkpt lat="45.9065" lon="4.82796">
        <ele>201</ele>
        <time>2018-09-15T09:02:26Z</time>
      </trkpt>
      <trkpt lat="45.90651" lon="4.82803">
        <ele>202</ele>
        <time>2018-09-15T09:02:27Z</time>
      </trkpt>
      <trkpt lat="45.90655" lon="4.82814">
        <ele>202</ele>
        <time>2018-09-15T09:02:29Z</time>
      </trkpt>
      <trkpt lat="45.90657" lon="4.82819">
        <ele>202</ele>
        <time>2018-09-15T09:02:30Z</time>
      </trkpt>
      <trkpt lat="45.90659" lon="4.82826">
        <ele>203</ele>
        <time>2018-09-15T09:02:31Z</time>
      </trkpt>
      <trkpt lat="45.90662" lon="4.82832">
        <ele>203</ele>
        <time>2018-09-15T09:02:32Z</time>
      </trkpt>
      <trkpt lat="45.90665" lon="4.82843">
        <ele>203</ele>
        <time>2018-09-15T09:02:34Z</time>
      </trkpt>
      <trkpt lat="45.90667" lon="4.82848">
        <ele>203</ele>
        <time>2018-09-15T09:02:35Z</time>
      </trkpt>
      <trkpt lat="45.90671" lon="4.82857">
        <ele>205</ele>
        <time>2018-09-15T09:02:37Z</time>
      </trkpt>
      <trkpt lat="45.90672" lon="4.82862">
        <ele>205</ele>
        <time>2018-09-15T09:02:38Z</time>
      </trkpt>
      <trkpt lat="45.90674" lon="4.82868">
        <ele>205</ele>
        <time>2018-09-15T09:02:39Z</time>
      </trkpt>
      <trkpt lat="45.90677" lon="4.82873">
        <ele>205</ele>
        <time>2018-09-15T09:02:40Z</time>
      </trkpt>
      <trkpt lat="45.90681" lon="4.82884">
        <ele>204</ele>
        <time>2018-09-15T09:02:42Z</time>
      </trkpt>
      <trkpt lat="45.90683" lon="4.8289">
        <ele>204</ele>
        <time>2018-09-15T09:02:43Z</time>
      </trkpt>
      <trkpt lat="45.90686" lon="4.829">
        <ele>204</ele>
        <time>2018-09-15T09:02:46Z</time>
      </trkpt>
      <trkpt lat="45.90687" lon="4.82902">
        <ele>204</ele>
        <time>2018-09-15T09:02:47Z</time>
      </trkpt>
      <trkpt lat="45.90692" lon="4.82911">
        <ele>204</ele>
        <time>2018-09-15T09:02:48Z</time>
      </trkpt>
      <trkpt lat="45.90694" lon="4.82916">
        <ele>204</ele>
        <time>2018-09-15T09:02:49Z</time>
      </trkpt>
      <trkpt lat="45.90697" lon="4.82921">
        <ele>203</ele>
        <time>2018-09-15T09:02:51Z</time>
      </trkpt>
      <trkpt lat="45.907" lon="4.82929">
        <ele>203</ele>
        <time>2018-09-15T09:02:52Z</time>
      </trkpt>
      <trkpt lat="45.90705" lon="4.82937">
        <ele>203</ele>
        <time>2018-09-15T09:02:54Z</time>
      </trkpt>
      <trkpt lat="45.90706" lon="4.82939">
        <ele>203</ele>
        <time>2018-09-15T09:02:55Z</time>
      </trkpt>
      <trkpt lat="45.9071" lon="4.8295">
        <ele>203</ele>
        <time>2018-09-15T09:02:59Z</time>
      </trkpt>
      <trkpt lat="45.90711" lon="4.82953">
        <ele>203</ele>
        <time>2018-09-15T09:03:00Z</time>
      </trkpt>
      <trkpt lat="45.90713" lon="4.82964">
        <ele>203</ele>
        <time>2018-09-15T09:03:36Z</time>
      </trkpt>
      <trkpt lat="45.90714" lon="4.82965">
        <ele>203</ele>
        <time>2018-09-15T09:03:37Z</time>
      </trkpt>
      <trkpt lat="45.9072" lon="4.82974">
        <ele>203</ele>
        <time>2018-09-15T09:03:42Z</time>
      </trkpt>
      <trkpt lat="45.90722" lon="4.82977">
        <ele>203</ele>
        <time>2018-09-15T09:03:43Z</time>
      </trkpt>
      <trkpt lat="45.90724" lon="4.8298">
        <ele>203</ele>
        <time>2018-09-15T09:03:44Z</time>
      </trkpt>
      <trkpt lat="45.9073" lon="4.82989">
        <ele>204</ele>
        <time>2018-09-15T09:03:45Z</time>
      </trkpt>
      <trkpt lat="45.90735" lon="4.82998">
        <ele>204</ele>
        <time>2018-09-15T09:03:47Z</time>
      </trkpt>
      <trkpt lat="45.90737" lon="4.83003">
        <ele>203</ele>
        <time>2018-09-15T09:03:48Z</time>
      </trkpt>
      <trkpt lat="45.90742" lon="4.83014">
        <ele>203</ele>
        <time>2018-09-15T09:03:50Z</time>
      </trkpt>
      <trkpt lat="45.90745" lon="4.83019">
        <ele>203</ele>
        <time>2018-09-15T09:03:51Z</time>
      </trkpt>
      <trkpt lat="45.9075" lon="4.83029">
        <ele>203</ele>
        <time>2018-09-15T09:03:53Z</time>
      </trkpt>
      <trkpt lat="45.90752" lon="4.83033">
        <ele>206</ele>
        <time>2018-09-15T09:03:54Z</time>
      </trkpt>
      <trkpt lat="45.90757" lon="4.8304">
        <ele>206</ele>
        <time>2018-09-15T09:03:57Z</time>
      </trkpt>
      <trkpt lat="45.90758" lon="4.83043">
        <ele>206</ele>
        <time>2018-09-15T09:03:58Z</time>
      </trkpt>
      <trkpt lat="45.90762" lon="4.83053">
        <ele>206</ele>
        <time>2018-09-15T09:03:59Z</time>
      </trkpt>
      <trkpt lat="45.90763" lon="4.83055">
        <ele>206</ele>
        <time>2018-09-15T09:04:00Z</time>
      </trkpt>
      <trkpt lat="45.90767" lon="4.83064">
        <ele>206</ele>
        <time>2018-09-15T09:04:03Z</time>
      </trkpt>
      <trkpt lat="45.90771" lon="4.83074">
        <ele>206</ele>
        <time>2018-09-15T09:04:04Z</time>
      </trkpt>
      <trkpt lat="45.90775" lon="4.83084">
        <ele>206</ele>
        <time>2018-09-15T09:04:06Z</time>
      </trkpt>
      <trkpt lat="45.90777" lon="4.83088">
        <ele>206</ele>
        <time>2018-09-15T09:04:07Z</time>
      </trkpt>
      <trkpt lat="45.90779" lon="4.83095">
        <ele>206</ele>
        <time>2018-09-15T09:04:09Z</time>
      </trkpt>
      <trkpt lat="45.90781" lon="4.83102">
        <ele>206</ele>
        <time>2018-09-15T09:04:10Z</time>
      </trkpt>
      <trkpt lat="45.90785" lon="4.83112">
        <ele>207</ele>
        <time>2018-09-15T09:04:12Z</time>
      </trkpt>
      <trkpt lat="45.90787" lon="4.83117">
        <ele>207</ele>
        <time>2018-09-15T09:04:13Z</time>
      </trkpt>
      <trkpt lat="45.90791" lon="4.83128">
        <ele>207</ele>
        <time>2018-09-15T09:04:17Z</time>
      </trkpt>
      <trkpt lat="45.90792" lon="4.83131">
        <ele>207</ele>
        <time>2018-09-15T09:04:18Z</time>
      </trkpt>
      <trkpt lat="45.90795" lon="4.83141">
        <ele>207</ele>
        <time>2018-09-15T09:04:21Z</time>
      </trkpt>
      <trkpt lat="45.90797" lon="4.83145">
        <ele>207</ele>
        <time>2018-09-15T09:04:22Z</time>
      </trkpt>
      <trkpt lat="45.90799" lon="4.83153">
        <ele>207</ele>
        <time>2018-09-15T09:04:24Z</time>
      </trkpt>
      <trkpt lat="45.90801" lon="4.83157">
        <ele>208</ele>
        <time>2018-09-15T09:04:25Z</time>
      </trkpt>
      <trkpt lat="45.90804" lon="4.83166">
        <ele>208</ele>
        <time>2018-09-15T09:04:27Z</time>
      </trkpt>
      <trkpt lat="45.90809" lon="4.83178">
        <ele>208</ele>
        <time>2018-09-15T09:04:28Z</time>
      </trkpt>
      <trkpt lat="45.90813" lon="4.83188">
        <ele>208</ele>
        <time>2018-09-15T09:04:30Z</time>
      </trkpt>
      <trkpt lat="45.90814" lon="4.83193">
        <ele>208</ele>
        <time>2018-09-15T09:04:31Z</time>
      </trkpt>
      <trkpt lat="45.90817" lon="4.83203">
        <ele>208</ele>
        <time>2018-09-15T09:04:33Z</time>
      </trkpt>
      <trkpt lat="45.90819" lon="4.83208">
        <ele>208</ele>
        <time>2018-09-15T09:04:34Z</time>
      </trkpt>
      <trkpt lat="45.90821" lon="4.83213">
        <ele>208</ele>
        <time>2018-09-15T09:04:36Z</time>
      </trkpt>
      <trkpt lat="45.90824" lon="4.83221">
        <ele>209</ele>
        <time>2018-09-15T09:04:37Z</time>
      </trkpt>
      <trkpt lat="45.90828" lon="4.83231">
        <ele>209</ele>
        <time>2018-09-15T09:04:39Z</time>
      </trkpt>
      <trkpt lat="45.90829" lon="4.83234">
        <ele>209</ele>
        <time>2018-09-15T09:04:40Z</time>
      </trkpt>
      <trkpt lat="45.90832" lon="4.83241">
        <ele>209</ele>
        <time>2018-09-15T09:04:41Z</time>
      </trkpt>
      <trkpt lat="45.90834" lon="4.83246">
        <ele>211</ele>
        <time>2018-09-15T09:04:42Z</time>
      </trkpt>
      <trkpt lat="45.90838" lon="4.83257">
        <ele>212</ele>
        <time>2018-09-15T09:04:44Z</time>
      </trkpt>
      <trkpt lat="45.90839" lon="4.8326">
        <ele>212</ele>
        <time>2018-09-15T09:04:45Z</time>
      </trkpt>
      <trkpt lat="45.9084" lon="4.83263">
        <ele>213</ele>
        <time>2018-09-15T09:04:46Z</time>
      </trkpt>
      <trkpt lat="45.90844" lon="4.83271">
        <ele>214</ele>
        <time>2018-09-15T09:04:47Z</time>
      </trkpt>
      <trkpt lat="45.90849" lon="4.83282">
        <ele>215</ele>
        <time>2018-09-15T09:04:49Z</time>
      </trkpt>
      <trkpt lat="45.90851" lon="4.83287">
        <ele>215</ele>
        <time>2018-09-15T09:04:50Z</time>
      </trkpt>
      <trkpt lat="45.90855" lon="4.83298">
        <ele>215</ele>
        <time>2018-09-15T09:04:52Z</time>
      </trkpt>
      <trkpt lat="45.90858" lon="4.83303">
        <ele>215</ele>
        <time>2018-09-15T09:04:53Z</time>
      </trkpt>
      <trkpt lat="45.90861" lon="4.83313">
        <ele>215</ele>
        <time>2018-09-15T09:04:55Z</time>
      </trkpt>
      <trkpt lat="45.90863" lon="4.83317">
        <ele>215</ele>
        <time>2018-09-15T09:04:56Z</time>
      </trkpt>
      <trkpt lat="45.90866" lon="4.83326">
        <ele>216</ele>
        <time>2018-09-15T09:04:59Z</time>
      </trkpt>
      <trkpt lat="45.90869" lon="4.83335">
        <ele>215</ele>
        <time>2018-09-15T09:05:00Z</time>
      </trkpt>
      <trkpt lat="45.90873" lon="4.83346">
        <ele>215</ele>
        <time>2018-09-15T09:05:02Z</time>
      </trkpt>
      <trkpt lat="45.90876" lon="4.83351">
        <ele>215</ele>
        <time>2018-09-15T09:05:03Z</time>
      </trkpt>
      <trkpt lat="45.90878" lon="4.83358">
        <ele>215</ele>
        <time>2018-09-15T09:05:04Z</time>
      </trkpt>
      <trkpt lat="45.90881" lon="4.83364">
        <ele>215</ele>
        <time>2018-09-15T09:05:05Z</time>
      </trkpt>
      <trkpt lat="45.90885" lon="4.83375">
        <ele>215</ele>
        <time>2018-09-15T09:05:07Z</time>
      </trkpt>
      <trkpt lat="45.90887" lon="4.8338">
        <ele>215</ele>
        <time>2018-09-15T09:05:08Z</time>
      </trkpt>
      <trkpt lat="45.90891" lon="4.83391">
        <ele>215</ele>
        <time>2018-09-15T09:05:10Z</time>
      </trkpt>
      <trkpt lat="45.90893" lon="4.83397">
        <ele>215</ele>
        <time>2018-09-15T09:05:11Z</time>
      </trkpt>
      <trkpt lat="45.90897" lon="4.83408">
        <ele>216</ele>
        <time>2018-09-15T09:05:13Z</time>
      </trkpt>
      <trkpt lat="45.909" lon="4.83415">
        <ele>216</ele>
        <time>2018-09-15T09:05:14Z</time>
      </trkpt>
      <trkpt lat="45.90902" lon="4.83421">
        <ele>215</ele>
        <time>2018-09-15T09:05:15Z</time>
      </trkpt>
      <trkpt lat="45.90905" lon="4.83426">
        <ele>215</ele>
        <time>2018-09-15T09:05:16Z</time>
      </trkpt>
      <trkpt lat="45.90907" lon="4.83438">
        <ele>214</ele>
        <time>2018-09-15T09:05:18Z</time>
      </trkpt>
      <trkpt lat="45.90909" lon="4.83444">
        <ele>214</ele>
        <time>2018-09-15T09:05:19Z</time>
      </trkpt>
      <trkpt lat="45.90914" lon="4.83453">
        <ele>213</ele>
        <time>2018-09-15T09:05:21Z</time>
      </trkpt>
      <trkpt lat="45.90915" lon="4.83458">
        <ele>213</ele>
        <time>2018-09-15T09:05:22Z</time>
      </trkpt>
      <trkpt lat="45.90918" lon="4.83468">
        <ele>219</ele>
        <time>2018-09-15T09:05:24Z</time>
      </trkpt>
      <trkpt lat="45.9092" lon="4.83474">
        <ele>219</ele>
        <time>2018-09-15T09:05:25Z</time>
      </trkpt>
      <trkpt lat="45.90923" lon="4.8348">
        <ele>218</ele>
        <time>2018-09-15T09:05:26Z</time>
      </trkpt>
      <trkpt lat="45.90925" lon="4.83486">
        <ele>217</ele>
        <time>2018-09-15T09:05:27Z</time>
      </trkpt>
      <trkpt lat="45.90927" lon="4.83492">
        <ele>217</ele>
        <time>2018-09-15T09:05:28Z</time>
      </trkpt>
      <trkpt lat="45.90928" lon="4.83499">
        <ele>217</ele>
        <time>2018-09-15T09:05:29Z</time>
      </trkpt>
      <trkpt lat="45.90933" lon="4.83508">
        <ele>216</ele>
        <time>2018-09-15T09:05:31Z</time>
      </trkpt>
      <trkpt lat="45.90936" lon="4.83513">
        <ele>217</ele>
        <time>2018-09-15T09:05:32Z</time>
      </trkpt>
      <trkpt lat="45.90941" lon="4.83522">
        <ele>218</ele>
        <time>2018-09-15T09:05:34Z</time>
      </trkpt>
      <trkpt lat="45.90945" lon="4.83526">
        <ele>218</ele>
        <time>2018-09-15T09:05:35Z</time>
      </trkpt>
      <trkpt lat="45.90952" lon="4.83535">
        <ele>219</ele>
        <time>2018-09-15T09:05:37Z</time>
      </trkpt>
      <trkpt lat="45.90954" lon="4.83539">
        <ele>219</ele>
        <time>2018-09-15T09:05:38Z</time>
      </trkpt>
      <trkpt lat="45.9096" lon="4.83548">
        <ele>219</ele>
        <time>2018-09-15T09:05:40Z</time>
      </trkpt>
      <trkpt lat="45.90963" lon="4.83552">
        <ele>219</ele>
        <time>2018-09-15T09:05:41Z</time>
      </trkpt>
      <trkpt lat="45.90966" lon="4.83558">
        <ele>219</ele>
        <time>2018-09-15T09:05:44Z</time>
      </trkpt>
      <trkpt lat="45.90971" lon="4.83566">
        <ele>220</ele>
        <time>2018-09-15T09:05:45Z</time>
      </trkpt>
      <trkpt lat="45.90975" lon="4.83577">
        <ele>220</ele>
        <time>2018-09-15T09:05:47Z</time>
      </trkpt>
      <trkpt lat="45.90977" lon="4.83582">
        <ele>220</ele>
        <time>2018-09-15T09:05:48Z</time>
      </trkpt>
      <trkpt lat="45.90981" lon="4.83593">
        <ele>219</ele>
        <time>2018-09-15T09:05:50Z</time>
      </trkpt>
      <trkpt lat="45.90983" lon="4.83598">
        <ele>219</ele>
        <time>2018-09-15T09:05:51Z</time>
      </trkpt>
      <trkpt lat="45.90988" lon="4.83608">
        <ele>219</ele>
        <time>2018-09-15T09:05:53Z</time>
      </trkpt>
      <trkpt lat="45.90989" lon="4.8361">
        <ele>219</ele>
        <time>2018-09-15T09:05:54Z</time>
      </trkpt>
      <trkpt lat="45.90993" lon="4.83618">
        <ele>219</ele>
        <time>2018-09-15T09:05:57Z</time>
      </trkpt>
      <trkpt lat="45.90994" lon="4.83621">
        <ele>219</ele>
        <time>2018-09-15T09:05:58Z</time>
      </trkpt>
      <trkpt lat="45.90999" lon="4.83631">
        <ele>219</ele>
        <time>2018-09-15T09:06:01Z</time>
      </trkpt>
      <trkpt lat="45.91" lon="4.83635">
        <ele>226</ele>
        <time>2018-09-15T09:06:02Z</time>
      </trkpt>
      <trkpt lat="45.91006" lon="4.83648">
        <ele>225</ele>
        <time>2018-09-15T09:06:03Z</time>
      </trkpt>
      <trkpt lat="45.91008" lon="4.83658">
        <ele>224</ele>
        <time>2018-09-15T09:06:05Z</time>
      </trkpt>
      <trkpt lat="45.9101" lon="4.83663">
        <ele>224</ele>
        <time>2018-09-15T09:06:06Z</time>
      </trkpt>
      <trkpt lat="45.91013" lon="4.83674">
        <ele>223</ele>
        <time>2018-09-15T09:06:08Z</time>
      </trkpt>
      <trkpt lat="45.91015" lon="4.8368">
        <ele>224</ele>
        <time>2018-09-15T09:06:09Z</time>
      </trkpt>
      <trkpt lat="45.91018" lon="4.8369">
        <ele>224</ele>
        <time>2018-09-15T09:06:11Z</time>
      </trkpt>
      <trkpt lat="45.91019" lon="4.83693">
        <ele>224</ele>
        <time>2018-09-15T09:06:12Z</time>
      </trkpt>
      <trkpt lat="45.91021" lon="4.83699">
        <ele>225</ele>
        <time>2018-09-15T09:06:14Z</time>
      </trkpt>
      <trkpt lat="45.91025" lon="4.83708">
        <ele>225</ele>
        <time>2018-09-15T09:06:15Z</time>
      </trkpt>
      <trkpt lat="45.91029" lon="4.83718">
        <ele>225</ele>
        <time>2018-09-15T09:06:17Z</time>
      </trkpt>
      <trkpt lat="45.9103" lon="4.83725">
        <ele>225</ele>
        <time>2018-09-15T09:06:18Z</time>
      </trkpt>
      <trkpt lat="45.91032" lon="4.8373">
        <ele>225</ele>
        <time>2018-09-15T09:06:19Z</time>
      </trkpt>
      <trkpt lat="45.91036" lon="4.83735">
        <ele>225</ele>
        <time>2018-09-15T09:06:20Z</time>
      </trkpt>
      <trkpt lat="45.91039" lon="4.8374">
        <ele>225</ele>
        <time>2018-09-15T09:06:21Z</time>
      </trkpt>
      <trkpt lat="45.91041" lon="4.83747">
        <ele>225</ele>
        <time>2018-09-15T09:06:22Z</time>
      </trkpt>
      <trkpt lat="45.91047" lon="4.83757">
        <ele>224</ele>
        <time>2018-09-15T09:06:24Z</time>
      </trkpt>
      <trkpt lat="45.91049" lon="4.83762">
        <ele>224</ele>
        <time>2018-09-15T09:06:25Z</time>
      </trkpt>
      <trkpt lat="45.91051" lon="4.83767">
        <ele>224</ele>
        <time>2018-09-15T09:06:27Z</time>
      </trkpt>
      <trkpt lat="45.91052" lon="4.83775">
        <ele>224</ele>
        <time>2018-09-15T09:06:28Z</time>
      </trkpt>
      <trkpt lat="45.91055" lon="4.83785">
        <ele>224</ele>
        <time>2018-09-15T09:06:32Z</time>
      </trkpt>
      <trkpt lat="45.91057" lon="4.83788">
        <ele>224</ele>
        <time>2018-09-15T09:06:33Z</time>
      </trkpt>
      <trkpt lat="45.91061" lon="4.83799">
        <ele>224</ele>
        <time>2018-09-15T09:06:36Z</time>
      </trkpt>
      <trkpt lat="45.91064" lon="4.83812">
        <ele>224</ele>
        <time>2018-09-15T09:06:37Z</time>
      </trkpt>
      <trkpt lat="45.91068" lon="4.83822">
        <ele>224</ele>
        <time>2018-09-15T09:06:39Z</time>
      </trkpt>
      <trkpt lat="45.91069" lon="4.83827">
        <ele>225</ele>
        <time>2018-09-15T09:06:40Z</time>
      </trkpt>
      <trkpt lat="45.91073" lon="4.83838">
        <ele>224</ele>
        <time>2018-09-15T09:06:42Z</time>
      </trkpt>
      <trkpt lat="45.91077" lon="4.83843">
        <ele>224</ele>
        <time>2018-09-15T09:06:43Z</time>
      </trkpt>
      <trkpt lat="45.9108" lon="4.83855">
        <ele>223</ele>
        <time>2018-09-15T09:06:45Z</time>
      </trkpt>
      <trkpt lat="45.91081" lon="4.83862">
        <ele>222</ele>
        <time>2018-09-15T09:06:46Z</time>
      </trkpt>
      <trkpt lat="45.91083" lon="4.83872">
        <ele>222</ele>
        <time>2018-09-15T09:06:48Z</time>
      </trkpt>
      <trkpt lat="45.91083" lon="4.83878">
        <ele>222</ele>
        <time>2018-09-15T09:06:49Z</time>
      </trkpt>
      <trkpt lat="45.91084" lon="4.83884">
        <ele>228</ele>
        <time>2018-09-15T09:06:50Z</time>
      </trkpt>
      <trkpt lat="45.91084" lon="4.83891">
        <ele>227</ele>
        <time>2018-09-15T09:06:51Z</time>
      </trkpt>
      <trkpt lat="45.91085" lon="4.83899">
        <ele>226</ele>
        <time>2018-09-15T09:06:52Z</time>
      </trkpt>
      <trkpt lat="45.91086" lon="4.83905">
        <ele>225</ele>
        <time>2018-09-15T09:06:53Z</time>
      </trkpt>
      <trkpt lat="45.91087" lon="4.83913">
        <ele>224</ele>
        <time>2018-09-15T09:06:54Z</time>
      </trkpt>
      <trkpt lat="45.91089" lon="4.83918">
        <ele>223</ele>
        <time>2018-09-15T09:06:55Z</time>
      </trkpt>
      <trkpt lat="45.9109" lon="4.83931">
        <ele>225</ele>
        <time>2018-09-15T09:06:57Z</time>
      </trkpt>
      <trkpt lat="45.91091" lon="4.83935">
        <ele>226</ele>
        <time>2018-09-15T09:06:58Z</time>
      </trkpt>
      <trkpt lat="45.91093" lon="4.83946">
        <ele>226</ele>
        <time>2018-09-15T09:07:00Z</time>
      </trkpt>
      <trkpt lat="45.91093" lon="4.83953">
        <ele>227</ele>
        <time>2018-09-15T09:07:01Z</time>
      </trkpt>
      <trkpt lat="45.91093" lon="4.83964">
        <ele>227</ele>
        <time>2018-09-15T09:07:03Z</time>
      </trkpt>
      <trkpt lat="45.91094" lon="4.8397">
        <ele>227</ele>
        <time>2018-09-15T09:07:04Z</time>
      </trkpt>
      <trkpt lat="45.91096" lon="4.83981">
        <ele>226</ele>
        <time>2018-09-15T09:07:06Z</time>
      </trkpt>
      <trkpt lat="45.91097" lon="4.83987">
        <ele>226</ele>
        <time>2018-09-15T09:07:07Z</time>
      </trkpt>
      <trkpt lat="45.91098" lon="4.83994">
        <ele>226</ele>
        <time>2018-09-15T09:07:08Z</time>
      </trkpt>
      <trkpt lat="45.91099" lon="4.84001">
        <ele>225</ele>
        <time>2018-09-15T09:07:09Z</time>
      </trkpt>
      <trkpt lat="45.911" lon="4.84014">
        <ele>225</ele>
        <time>2018-09-15T09:07:11Z</time>
      </trkpt>
      <trkpt lat="45.91102" lon="4.84021">
        <ele>225</ele>
        <time>2018-09-15T09:07:12Z</time>
      </trkpt>
      <trkpt lat="45.91102" lon="4.84027">
        <ele>225</ele>
        <time>2018-09-15T09:07:13Z</time>
      </trkpt>
      <trkpt lat="45.91103" lon="4.84034">
        <ele>225</ele>
        <time>2018-09-15T09:07:14Z</time>
      </trkpt>
      <trkpt lat="45.91105" lon="4.84046">
        <ele>225</ele>
        <time>2018-09-15T09:07:16Z</time>
      </trkpt>
      <trkpt lat="45.91105" lon="4.84052">
        <ele>225</ele>
        <time>2018-09-15T09:07:17Z</time>
      </trkpt>
      <trkpt lat="45.91108" lon="4.84064">
        <ele>225</ele>
        <time>2018-09-15T09:07:19Z</time>
      </trkpt>
      <trkpt lat="45.91111" lon="4.84068">
        <ele>225</ele>
        <time>2018-09-15T09:07:20Z</time>
      </trkpt>
      <trkpt lat="45.91116" lon="4.84078">
        <ele>225</ele>
        <time>2018-09-15T09:07:22Z</time>
      </trkpt>
      <trkpt lat="45.91119" lon="4.84083">
        <ele>225</ele>
        <time>2018-09-15T09:07:23Z</time>
      </trkpt>
      <trkpt lat="45.91121" lon="4.84087">
        <ele>224</ele>
        <time>2018-09-15T09:07:24Z</time>
      </trkpt>
      <trkpt lat="45.91125" lon="4.84092">
        <ele>225</ele>
        <time>2018-09-15T09:07:25Z</time>
      </trkpt>
      <trkpt lat="45.91131" lon="4.84102">
        <ele>225</ele>
        <time>2018-09-15T09:07:27Z</time>
      </trkpt>
      <trkpt lat="45.91134" lon="4.84106">
        <ele>225</ele>
        <time>2018-09-15T09:07:28Z</time>
      </trkpt>
      <trkpt lat="45.91139" lon="4.84115">
        <ele>225</ele>
        <time>2018-09-15T09:07:30Z</time>
      </trkpt>
      <trkpt lat="45.91141" lon="4.84119">
        <ele>225</ele>
        <time>2018-09-15T09:07:31Z</time>
      </trkpt>
      <trkpt lat="45.91146" lon="4.84127">
        <ele>225</ele>
        <time>2018-09-15T09:07:33Z</time>
      </trkpt>
      <trkpt lat="45.91149" lon="4.84131">
        <ele>225</ele>
        <time>2018-09-15T09:07:34Z</time>
      </trkpt>
      <trkpt lat="45.91154" lon="4.84139">
        <ele>226</ele>
        <time>2018-09-15T09:07:37Z</time>
      </trkpt>
      <trkpt lat="45.91155" lon="4.84142">
        <ele>226</ele>
        <time>2018-09-15T09:07:38Z</time>
      </trkpt>
      <trkpt lat="45.9116" lon="4.84151">
        <ele>226</ele>
        <time>2018-09-15T09:07:41Z</time>
      </trkpt>
      <trkpt lat="45.91162" lon="4.84154">
        <ele>226</ele>
        <time>2018-09-15T09:07:42Z</time>
      </trkpt>
      <trkpt lat="45.91166" lon="4.84165">
        <ele>227</ele>
        <time>2018-09-15T09:07:45Z</time>
      </trkpt>
      <trkpt lat="45.91167" lon="4.84168">
        <ele>227</ele>
        <time>2018-09-15T09:07:46Z</time>
      </trkpt>
      <trkpt lat="45.91171" lon="4.84179">
        <ele>228</ele>
        <time>2018-09-15T09:07:49Z</time>
      </trkpt>
      <trkpt lat="45.91172" lon="4.84182">
        <ele>229</ele>
        <time>2018-09-15T09:07:50Z</time>
      </trkpt>
      <trkpt lat="45.91175" lon="4.8419">
        <ele>229</ele>
        <time>2018-09-15T09:07:52Z</time>
      </trkpt>
      <trkpt lat="45.91177" lon="4.84194">
        <ele>229</ele>
        <time>2018-09-15T09:07:53Z</time>
      </trkpt>
      <trkpt lat="45.91179" lon="4.84201">
        <ele>230</ele>
        <time>2018-09-15T09:07:55Z</time>
      </trkpt>
      <trkpt lat="45.91181" lon="4.84205">
        <ele>230</ele>
        <time>2018-09-15T09:07:56Z</time>
      </trkpt>
      <trkpt lat="45.91183" lon="4.84213">
        <ele>230</ele>
        <time>2018-09-15T09:07:58Z</time>
      </trkpt>
      <trkpt lat="45.91184" lon="4.84218">
        <ele>230</ele>
        <time>2018-09-15T09:07:59Z</time>
      </trkpt>
      <trkpt lat="45.91185" lon="4.84223">
        <ele>229</ele>
        <time>2018-09-15T09:08:00Z</time>
      </trkpt>
      <trkpt lat="45.91187" lon="4.84236">
        <ele>229</ele>
        <time>2018-09-15T09:08:01Z</time>
      </trkpt>
      <trkpt lat="45.91188" lon="4.84247">
        <ele>229</ele>
        <time>2018-09-15T09:08:03Z</time>
      </trkpt>
      <trkpt lat="45.91188" lon="4.84253">
        <ele>228</ele>
        <time>2018-09-15T09:08:04Z</time>
      </trkpt>
      <trkpt lat="45.9119" lon="4.84266">
        <ele>229</ele>
        <time>2018-09-15T09:08:06Z</time>
      </trkpt>
      <trkpt lat="45.91191" lon="4.84272">
        <ele>229</ele>
        <time>2018-09-15T09:08:07Z</time>
      </trkpt>
      <trkpt lat="45.91193" lon="4.84279">
        <ele>229</ele>
        <time>2018-09-15T09:08:08Z</time>
      </trkpt>
      <trkpt lat="45.91195" lon="4.84286">
        <ele>229</ele>
        <time>2018-09-15T09:08:09Z</time>
      </trkpt>
      <trkpt lat="45.91199" lon="4.84296">
        <ele>229</ele>
        <time>2018-09-15T09:08:11Z</time>
      </trkpt>
      <trkpt lat="45.91202" lon="4.84302">
        <ele>229</ele>
        <time>2018-09-15T09:08:12Z</time>
      </trkpt>
      <trkpt lat="45.91204" lon="4.84308">
        <ele>230</ele>
        <time>2018-09-15T09:08:13Z</time>
      </trkpt>
      <trkpt lat="45.91206" lon="4.84315">
        <ele>230</ele>
        <time>2018-09-15T09:08:14Z</time>
      </trkpt>
      <trkpt lat="45.9121" lon="4.84324">
        <ele>230</ele>
        <time>2018-09-15T09:08:16Z</time>
      </trkpt>
      <trkpt lat="45.91213" lon="4.84331">
        <ele>230</ele>
        <time>2018-09-15T09:08:17Z</time>
      </trkpt>
      <trkpt lat="45.91215" lon="4.84337">
        <ele>229</ele>
        <time>2018-09-15T09:08:18Z</time>
      </trkpt>
      <trkpt lat="45.91217" lon="4.84343">
        <ele>229</ele>
        <time>2018-09-15T09:08:19Z</time>
      </trkpt>
      <trkpt lat="45.91219" lon="4.84349">
        <ele>229</ele>
        <time>2018-09-15T09:08:20Z</time>
      </trkpt>
      <trkpt lat="45.91222" lon="4.84356">
        <ele>229</ele>
        <time>2018-09-15T09:08:21Z</time>
      </trkpt>
      <trkpt lat="45.91226" lon="4.84367">
        <ele>229</ele>
        <time>2018-09-15T09:08:23Z</time>
      </trkpt>
      <trkpt lat="45.91228" lon="4.84375">
        <ele>229</ele>
        <time>2018-09-15T09:08:24Z</time>
      </trkpt>
      <trkpt lat="45.91231" lon="4.84382">
        <ele>229</ele>
        <time>2018-09-15T09:08:25Z</time>
      </trkpt>
      <trkpt lat="45.91233" lon="4.8439">
        <ele>229</ele>
        <time>2018-09-15T09:08:26Z</time>
      </trkpt>
      <trkpt lat="45.91235" lon="4.84398">
        <ele>229</ele>
        <time>2018-09-15T09:08:27Z</time>
      </trkpt>
      <trkpt lat="45.91238" lon="4.84404">
        <ele>229</ele>
        <time>2018-09-15T09:08:28Z</time>
      </trkpt>
      <trkpt lat="45.91241" lon="4.8441">
        <ele>229</ele>
        <time>2018-09-15T09:08:29Z</time>
      </trkpt>
      <trkpt lat="45.91244" lon="4.84415">
        <ele>230</ele>
        <time>2018-09-15T09:08:30Z</time>
      </trkpt>
      <trkpt lat="45.91248" lon="4.84424">
        <ele>229</ele>
        <time>2018-09-15T09:08:32Z</time>
      </trkpt>
      <trkpt lat="45.91251" lon="4.8443">
        <ele>231</ele>
        <time>2018-09-15T09:08:33Z</time>
      </trkpt>
      <trkpt lat="45.91253" lon="4.84436">
        <ele>232</ele>
        <time>2018-09-15T09:08:34Z</time>
      </trkpt>
      <trkpt lat="45.91255" lon="4.84442">
        <ele>232</ele>
        <time>2018-09-15T09:08:35Z</time>
      </trkpt>
      <trkpt lat="45.9126" lon="4.84452">
        <ele>232</ele>
        <time>2018-09-15T09:08:37Z</time>
      </trkpt>
      <trkpt lat="45.91263" lon="4.84457">
        <ele>232</ele>
        <time>2018-09-15T09:08:38Z</time>
      </trkpt>
      <trkpt lat="45.91264" lon="4.84463">
        <ele>232</ele>
        <time>2018-09-15T09:08:39Z</time>
      </trkpt>
      <trkpt lat="45.91267" lon="4.84469">
        <ele>232</ele>
        <time>2018-09-15T09:08:40Z</time>
      </trkpt>
      <trkpt lat="45.91268" lon="4.84474">
        <ele>232</ele>
        <time>2018-09-15T09:08:41Z</time>
      </trkpt>
      <trkpt lat="45.91271" lon="4.84481">
        <ele>232</ele>
        <time>2018-09-15T09:08:42Z</time>
      </trkpt>
      <trkpt lat="45.91273" lon="4.84487">
        <ele>232</ele>
        <time>2018-09-15T09:08:43Z</time>
      </trkpt>
      <trkpt lat="45.91277" lon="4.84493">
        <ele>232</ele>
        <time>2018-09-15T09:08:44Z</time>
      </trkpt>
      <trkpt lat="45.91279" lon="4.84498">
        <ele>232</ele>
        <time>2018-09-15T09:08:45Z</time>
      </trkpt>
      <trkpt lat="45.91281" lon="4.84504">
        <ele>230</ele>
        <time>2018-09-15T09:08:46Z</time>
      </trkpt>
      <trkpt lat="45.91284" lon="4.84515">
        <ele>230</ele>
        <time>2018-09-15T09:08:48Z</time>
      </trkpt>
      <trkpt lat="45.91286" lon="4.8452">
        <ele>231</ele>
        <time>2018-09-15T09:08:49Z</time>
      </trkpt>
      <trkpt lat="45.9129" lon="4.8453">
        <ele>231</ele>
        <time>2018-09-15T09:08:51Z</time>
      </trkpt>
      <trkpt lat="45.91293" lon="4.84536">
        <ele>231</ele>
        <time>2018-09-15T09:08:52Z</time>
      </trkpt>
      <trkpt lat="45.91295" lon="4.84541">
        <ele>231</ele>
        <time>2018-09-15T09:08:53Z</time>
      </trkpt>
      <trkpt lat="45.91299" lon="4.84547">
        <ele>231</ele>
        <time>2018-09-15T09:08:54Z</time>
      </trkpt>
      <trkpt lat="45.91301" lon="4.84553">
        <ele>231</ele>
        <time>2018-09-15T09:08:55Z</time>
      </trkpt>
      <trkpt lat="45.91303" lon="4.84559">
        <ele>231</ele>
        <time>2018-09-15T09:08:56Z</time>
      </trkpt>
      <trkpt lat="45.91308" lon="4.84569">
        <ele>231</ele>
        <time>2018-09-15T09:08:58Z</time>
      </trkpt>
      <trkpt lat="45.9131" lon="4.84574">
        <ele>231</ele>
        <time>2018-09-15T09:08:59Z</time>
      </trkpt>
      <trkpt lat="45.91315" lon="4.84585">
        <ele>230</ele>
        <time>2018-09-15T09:09:01Z</time>
      </trkpt>
      <trkpt lat="45.91317" lon="4.8459">
        <ele>230</ele>
        <time>2018-09-15T09:09:02Z</time>
      </trkpt>
      <trkpt lat="45.91319" lon="4.84601">
        <ele>230</ele>
        <time>2018-09-15T09:09:04Z</time>
      </trkpt>
      <trkpt lat="45.91321" lon="4.84608">
        <ele>229</ele>
        <time>2018-09-15T09:09:05Z</time>
      </trkpt>
      <trkpt lat="45.91327" lon="4.84616">
        <ele>229</ele>
        <time>2018-09-15T09:09:07Z</time>
      </trkpt>
      <trkpt lat="45.91329" lon="4.84621">
        <ele>229</ele>
        <time>2018-09-15T09:09:08Z</time>
      </trkpt>
      <trkpt lat="45.91334" lon="4.84632">
        <ele>234</ele>
        <time>2018-09-15T09:09:10Z</time>
      </trkpt>
      <trkpt lat="45.91335" lon="4.84637">
        <ele>234</ele>
        <time>2018-09-15T09:09:11Z</time>
      </trkpt>
      <trkpt lat="45.91338" lon="4.84645">
        <ele>233</ele>
        <time>2018-09-15T09:09:13Z</time>
      </trkpt>
      <trkpt lat="45.9134" lon="4.84653">
        <ele>233</ele>
        <time>2018-09-15T09:09:14Z</time>
      </trkpt>
      <trkpt lat="45.91344" lon="4.84664">
        <ele>232</ele>
        <time>2018-09-15T09:09:16Z</time>
      </trkpt>
      <trkpt lat="45.91348" lon="4.8467">
        <ele>232</ele>
        <time>2018-09-15T09:09:17Z</time>
      </trkpt>
      <trkpt lat="45.9135" lon="4.84676">
        <ele>232</ele>
        <time>2018-09-15T09:09:18Z</time>
      </trkpt>
      <trkpt lat="45.91351" lon="4.84683">
        <ele>233</ele>
        <time>2018-09-15T09:09:19Z</time>
      </trkpt>
      <trkpt lat="45.91353" lon="4.84694">
        <ele>234</ele>
        <time>2018-09-15T09:09:21Z</time>
      </trkpt>
      <trkpt lat="45.91354" lon="4.84696">
        <ele>234</ele>
        <time>2018-09-15T09:09:22Z</time>
      </trkpt>
      <trkpt lat="45.91356" lon="4.84707">
        <ele>234</ele>
        <time>2018-09-15T09:09:25Z</time>
      </trkpt>
      <trkpt lat="45.91357" lon="4.84712">
        <ele>234</ele>
        <time>2018-09-15T09:09:26Z</time>
      </trkpt>
      <trkpt lat="45.91359" lon="4.8472">
        <ele>234</ele>
        <time>2018-09-15T09:09:28Z</time>
      </trkpt>
      <trkpt lat="45.91363" lon="4.84731">
        <ele>234</ele>
        <time>2018-09-15T09:09:29Z</time>
      </trkpt>
      <trkpt lat="45.91366" lon="4.84737">
        <ele>234</ele>
        <time>2018-09-15T09:09:31Z</time>
      </trkpt>
      <trkpt lat="45.91369" lon="4.84745">
        <ele>234</ele>
        <time>2018-09-15T09:09:32Z</time>
      </trkpt>
      <trkpt lat="45.91372" lon="4.84754">
        <ele>233</ele>
        <time>2018-09-15T09:09:35Z</time>
      </trkpt>
      <trkpt lat="45.91373" lon="4.84758">
        <ele>234</ele>
        <time>2018-09-15T09:09:36Z</time>
      </trkpt>
      <trkpt lat="45.91378" lon="4.84767">
        <ele>234</ele>
        <time>2018-09-15T09:09:37Z</time>
      </trkpt>
      <trkpt lat="45.9138" lon="4.84771">
        <ele>234</ele>
        <time>2018-09-15T09:09:38Z</time>
      </trkpt>
      <trkpt lat="45.91384" lon="4.84779">
        <ele>234</ele>
        <time>2018-09-15T09:09:41Z</time>
      </trkpt>
      <trkpt lat="45.91386" lon="4.84782">
        <ele>234</ele>
        <time>2018-09-15T09:09:42Z</time>
      </trkpt>
      <trkpt lat="45.91391" lon="4.84791">
        <ele>234</ele>
        <time>2018-09-15T09:09:45Z</time>
      </trkpt>
      <trkpt lat="45.91393" lon="4.84795">
        <ele>234</ele>
        <time>2018-09-15T09:09:46Z</time>
      </trkpt>
      <trkpt lat="45.91396" lon="4.84802">
        <ele>234</ele>
        <time>2018-09-15T09:09:48Z</time>
      </trkpt>
      <trkpt lat="45.91402" lon="4.84813">
        <ele>234</ele>
        <time>2018-09-15T09:09:49Z</time>
      </trkpt>
      <trkpt lat="45.91407" lon="4.84823">
        <ele>234</ele>
        <time>2018-09-15T09:09:53Z</time>
      </trkpt>
      <trkpt lat="45.91409" lon="4.84825">
        <ele>234</ele>
        <time>2018-09-15T09:09:54Z</time>
      </trkpt>
      <trkpt lat="45.91414" lon="4.84834">
        <ele>234</ele>
        <time>2018-09-15T09:09:57Z</time>
      </trkpt>
      <trkpt lat="45.91415" lon="4.84837">
        <ele>234</ele>
        <time>2018-09-15T09:09:58Z</time>
      </trkpt>
      <trkpt lat="45.91421" lon="4.84847">
        <ele>235</ele>
        <time>2018-09-15T09:10:01Z</time>
      </trkpt>
      <trkpt lat="45.91423" lon="4.8485">
        <ele>235</ele>
        <time>2018-09-15T09:10:02Z</time>
      </trkpt>
      <trkpt lat="45.91427" lon="4.84857">
        <ele>235</ele>
        <time>2018-09-15T09:10:04Z</time>
      </trkpt>
      <trkpt lat="45.91429" lon="4.8486">
        <ele>235</ele>
        <time>2018-09-15T09:10:05Z</time>
      </trkpt>
      <trkpt lat="45.91433" lon="4.84867">
        <ele>235</ele>
        <time>2018-09-15T09:10:07Z</time>
      </trkpt>
      <trkpt lat="45.91436" lon="4.8487">
        <ele>235</ele>
        <time>2018-09-15T09:10:08Z</time>
      </trkpt>
      <trkpt lat="45.91443" lon="4.84876">
        <ele>236</ele>
        <time>2018-09-15T09:10:11Z</time>
      </trkpt>
      <trkpt lat="45.91445" lon="4.84878">
        <ele>236</ele>
        <time>2018-09-15T09:10:12Z</time>
      </trkpt>
      <trkpt lat="45.91453" lon="4.84882">
        <ele>236</ele>
        <time>2018-09-15T09:10:15Z</time>
      </trkpt>
      <trkpt lat="45.91456" lon="4.84882">
        <ele>236</ele>
        <time>2018-09-15T09:10:16Z</time>
      </trkpt>
      <trkpt lat="45.91462" lon="4.84884">
        <ele>236</ele>
        <time>2018-09-15T09:10:18Z</time>
      </trkpt>
      <trkpt lat="45.91465" lon="4.84885">
        <ele>236</ele>
        <time>2018-09-15T09:10:19Z</time>
      </trkpt>
      <trkpt lat="45.91471" lon="4.84889">
        <ele>236</ele>
        <time>2018-09-15T09:10:22Z</time>
      </trkpt>
      <trkpt lat="45.91474" lon="4.84891">
        <ele>237</ele>
        <time>2018-09-15T09:10:23Z</time>
      </trkpt>
      <trkpt lat="45.91479" lon="4.84897">
        <ele>237</ele>
        <time>2018-09-15T09:10:26Z</time>
      </trkpt>
      <trkpt lat="45.91481" lon="4.849">
        <ele>237</ele>
        <time>2018-09-15T09:10:27Z</time>
      </trkpt>
      <trkpt lat="45.91484" lon="4.84909">
        <ele>237</ele>
        <time>2018-09-15T09:10:30Z</time>
      </trkpt>
      <trkpt lat="45.91485" lon="4.84912">
        <ele>238</ele>
        <time>2018-09-15T09:10:31Z</time>
      </trkpt>
      <trkpt lat="45.91487" lon="4.84924">
        <ele>238</ele>
        <time>2018-09-15T09:10:35Z</time>
      </trkpt>
      <trkpt lat="45.91487" lon="4.84927">
        <ele>238</ele>
        <time>2018-09-15T09:10:36Z</time>
      </trkpt>
      <trkpt lat="45.91487" lon="4.8494">
        <ele>238</ele>
        <time>2018-09-15T09:10:40Z</time>
      </trkpt>
      <trkpt lat="45.91487" lon="4.84943">
        <ele>238</ele>
        <time>2018-09-15T09:10:41Z</time>
      </trkpt>
      <trkpt lat="45.91487" lon="4.84953">
        <ele>238</ele>
        <time>2018-09-15T09:10:44Z</time>
      </trkpt>
      <trkpt lat="45.91487" lon="4.84957">
        <ele>238</ele>
        <time>2018-09-15T09:10:45Z</time>
      </trkpt>
      <trkpt lat="45.91488" lon="4.84967">
        <ele>239</ele>
        <time>2018-09-15T09:10:48Z</time>
      </trkpt>
      <trkpt lat="45.91488" lon="4.8497">
        <ele>239</ele>
        <time>2018-09-15T09:10:49Z</time>
      </trkpt>
      <trkpt lat="45.91489" lon="4.84983">
        <ele>240</ele>
        <time>2018-09-15T09:10:53Z</time>
      </trkpt>
      <trkpt lat="45.91489" lon="4.84986">
        <ele>240</ele>
        <time>2018-09-15T09:10:54Z</time>
      </trkpt>
      <trkpt lat="45.91491" lon="4.84995">
        <ele>241</ele>
        <time>2018-09-15T09:10:57Z</time>
      </trkpt>
      <trkpt lat="45.91492" lon="4.84998">
        <ele>241</ele>
        <time>2018-09-15T09:10:58Z</time>
      </trkpt>
      <trkpt lat="45.91494" lon="4.85008">
        <ele>242</ele>
        <time>2018-09-15T09:11:01Z</time>
      </trkpt>
      <trkpt lat="45.91495" lon="4.85012">
        <ele>242</ele>
        <time>2018-09-15T09:11:02Z</time>
      </trkpt>
      <trkpt lat="45.91497" lon="4.85023">
        <ele>241</ele>
        <time>2018-09-15T09:11:05Z</time>
      </trkpt>
      <trkpt lat="45.91498" lon="4.85026">
        <ele>241</ele>
        <time>2018-09-15T09:11:06Z</time>
      </trkpt>
      <trkpt lat="45.91502" lon="4.85036">
        <ele>245</ele>
        <time>2018-09-15T09:11:09Z</time>
      </trkpt>
      <trkpt lat="45.91503" lon="4.85039">
        <ele>245</ele>
        <time>2018-09-15T09:11:10Z</time>
      </trkpt>
      <trkpt lat="45.91506" lon="4.85047">
        <ele>245</ele>
        <time>2018-09-15T09:11:13Z</time>
      </trkpt>
      <trkpt lat="45.91507" lon="4.8505">
        <ele>245</ele>
        <time>2018-09-15T09:11:14Z</time>
      </trkpt>
      <trkpt lat="45.9151" lon="4.85062">
        <ele>245</ele>
        <time>2018-09-15T09:11:18Z</time>
      </trkpt>
      <trkpt lat="45.91511" lon="4.85065">
        <ele>245</ele>
        <time>2018-09-15T09:11:19Z</time>
      </trkpt>
      <trkpt lat="45.91514" lon="4.85076">
        <ele>245</ele>
        <time>2018-09-15T09:11:22Z</time>
      </trkpt>
      <trkpt lat="45.91515" lon="4.85079">
        <ele>245</ele>
        <time>2018-09-15T09:11:23Z</time>
      </trkpt>
      <trkpt lat="45.91518" lon="4.8509">
        <ele>246</ele>
        <time>2018-09-15T09:11:26Z</time>
      </trkpt>
      <trkpt lat="45.91519" lon="4.85093">
        <ele>247</ele>
        <time>2018-09-15T09:11:27Z</time>
      </trkpt>
      <trkpt lat="45.91521" lon="4.85104">
        <ele>247</ele>
        <time>2018-09-15T09:11:30Z</time>
      </trkpt>
      <trkpt lat="45.91522" lon="4.85108">
        <ele>247</ele>
        <time>2018-09-15T09:11:31Z</time>
      </trkpt>
      <trkpt lat="45.91525" lon="4.85118">
        <ele>247</ele>
        <time>2018-09-15T09:11:34Z</time>
      </trkpt>
      <trkpt lat="45.91526" lon="4.85122">
        <ele>247</ele>
        <time>2018-09-15T09:11:35Z</time>
      </trkpt>
      <trkpt lat="45.91529" lon="4.85132">
        <ele>247</ele>
        <time>2018-09-15T09:11:38Z</time>
      </trkpt>
      <trkpt lat="45.9153" lon="4.85136">
        <ele>247</ele>
        <time>2018-09-15T09:11:39Z</time>
      </trkpt>
      <trkpt lat="45.91533" lon="4.85145">
        <ele>247</ele>
        <time>2018-09-15T09:11:42Z</time>
      </trkpt>
      <trkpt lat="45.91534" lon="4.85149">
        <ele>247</ele>
        <time>2018-09-15T09:11:43Z</time>
      </trkpt>
      <trkpt lat="45.91536" lon="4.85158">
        <ele>247</ele>
        <time>2018-09-15T09:11:46Z</time>
      </trkpt>
      <trkpt lat="45.91537" lon="4.85161">
        <ele>247</ele>
        <time>2018-09-15T09:11:47Z</time>
      </trkpt>
      <trkpt lat="45.91541" lon="4.85171">
        <ele>248</ele>
        <time>2018-09-15T09:11:50Z</time>
      </trkpt>
      <trkpt lat="45.91542" lon="4.85174">
        <ele>248</ele>
        <time>2018-09-15T09:11:51Z</time>
      </trkpt>
      <trkpt lat="45.91545" lon="4.85184">
        <ele>249</ele>
        <time>2018-09-15T09:11:54Z</time>
      </trkpt>
      <trkpt lat="45.91546" lon="4.85188">
        <ele>249</ele>
        <time>2018-09-15T09:11:55Z</time>
      </trkpt>
      <trkpt lat="45.91549" lon="4.85198">
        <ele>249</ele>
        <time>2018-09-15T09:11:58Z</time>
      </trkpt>
      <trkpt lat="45.9155" lon="4.85202">
        <ele>249</ele>
        <time>2018-09-15T09:11:59Z</time>
      </trkpt>
      <trkpt lat="45.91553" lon="4.85214">
        <ele>249</ele>
        <time>2018-09-15T09:12:02Z</time>
      </trkpt>
      <trkpt lat="45.91554" lon="4.85218">
        <ele>249</ele>
        <time>2018-09-15T09:12:03Z</time>
      </trkpt>
      <trkpt lat="45.91556" lon="4.85227">
        <ele>249</ele>
        <time>2018-09-15T09:12:05Z</time>
      </trkpt>
      <trkpt lat="45.91557" lon="4.85231">
        <ele>249</ele>
        <time>2018-09-15T09:12:06Z</time>
      </trkpt>
      <trkpt lat="45.9156" lon="4.85239">
        <ele>249</ele>
        <time>2018-09-15T09:12:08Z</time>
      </trkpt>
      <trkpt lat="45.91561" lon="4.85244">
        <ele>249</ele>
        <time>2018-09-15T09:12:09Z</time>
      </trkpt>
      <trkpt lat="45.91564" lon="4.85252">
        <ele>250</ele>
        <time>2018-09-15T09:12:11Z</time>
      </trkpt>
      <trkpt lat="45.91565" lon="4.85256">
        <ele>250</ele>
        <time>2018-09-15T09:12:12Z</time>
      </trkpt>
      <trkpt lat="45.91568" lon="4.85267">
        <ele>250</ele>
        <time>2018-09-15T09:12:15Z</time>
      </trkpt>
      <trkpt lat="45.91569" lon="4.8527">
        <ele>251</ele>
        <time>2018-09-15T09:12:16Z</time>
      </trkpt>
      <trkpt lat="45.91572" lon="4.85282">
        <ele>251</ele>
        <time>2018-09-15T09:12:19Z</time>
      </trkpt>
      <trkpt lat="45.91574" lon="4.85286">
        <ele>251</ele>
        <time>2018-09-15T09:12:20Z</time>
      </trkpt>
      <trkpt lat="45.91575" lon="4.85291">
        <ele>251</ele>
        <time>2018-09-15T09:12:21Z</time>
      </trkpt>
      <trkpt lat="45.91579" lon="4.85304">
        <ele>251</ele>
        <time>2018-09-15T09:12:22Z</time>
      </trkpt>
      <trkpt lat="45.91582" lon="4.85314">
        <ele>252</ele>
        <time>2018-09-15T09:12:24Z</time>
      </trkpt>
      <trkpt lat="45.91583" lon="4.85316">
        <ele>252</ele>
        <time>2018-09-15T09:12:25Z</time>
      </trkpt>
      <trkpt lat="45.91586" lon="4.85324">
        <ele>253</ele>
        <time>2018-09-15T09:12:28Z</time>
      </trkpt>
      <trkpt lat="45.91587" lon="4.85327">
        <ele>253</ele>
        <time>2018-09-15T09:12:29Z</time>
      </trkpt>
      <trkpt lat="45.91592" lon="4.85338">
        <ele>253</ele>
        <time>2018-09-15T09:12:32Z</time>
      </trkpt>
      <trkpt lat="45.91594" lon="4.85342">
        <ele>253</ele>
        <time>2018-09-15T09:12:33Z</time>
      </trkpt>
      <trkpt lat="45.91597" lon="4.85351">
        <ele>254</ele>
        <time>2018-09-15T09:12:35Z</time>
      </trkpt>
      <trkpt lat="45.91598" lon="4.85355">
        <ele>254</ele>
        <time>2018-09-15T09:12:36Z</time>
      </trkpt>
      <trkpt lat="45.91601" lon="4.85363">
        <ele>254</ele>
        <time>2018-09-15T09:12:38Z</time>
      </trkpt>
      <trkpt lat="45.91602" lon="4.85367">
        <ele>254</ele>
        <time>2018-09-15T09:12:39Z</time>
      </trkpt>
      <trkpt lat="45.91606" lon="4.85378">
        <ele>254</ele>
        <time>2018-09-15T09:12:42Z</time>
      </trkpt>
      <trkpt lat="45.91611" lon="4.8539">
        <ele>254</ele>
        <time>2018-09-15T09:12:43Z</time>
      </trkpt>
      <trkpt lat="45.91614" lon="4.854">
        <ele>254</ele>
        <time>2018-09-15T09:12:46Z</time>
      </trkpt>
      <trkpt lat="45.91615" lon="4.85402">
        <ele>254</ele>
        <time>2018-09-15T09:12:47Z</time>
      </trkpt>
      <trkpt lat="45.91619" lon="4.85411">
        <ele>254</ele>
        <time>2018-09-15T09:12:50Z</time>
      </trkpt>
      <trkpt lat="45.91621" lon="4.85415">
        <ele>254</ele>
        <time>2018-09-15T09:12:51Z</time>
      </trkpt>
      <trkpt lat="45.91624" lon="4.85423">
        <ele>255</ele>
        <time>2018-09-15T09:12:53Z</time>
      </trkpt>
      <trkpt lat="45.9163" lon="4.85434">
        <ele>255</ele>
        <time>2018-09-15T09:12:54Z</time>
      </trkpt>
      <trkpt lat="45.91634" lon="4.85444">
        <ele>255</ele>
        <time>2018-09-15T09:12:57Z</time>
      </trkpt>
      <trkpt lat="45.91635" lon="4.85446">
        <ele>255</ele>
        <time>2018-09-15T09:12:58Z</time>
      </trkpt>
      <trkpt lat="45.9164" lon="4.85455">
        <ele>255</ele>
        <time>2018-09-15T09:13:01Z</time>
      </trkpt>
      <trkpt lat="45.91642" lon="4.85458">
        <ele>255</ele>
        <time>2018-09-15T09:13:02Z</time>
      </trkpt>
      <trkpt lat="45.91647" lon="4.85468">
        <ele>256</ele>
        <time>2018-09-15T09:13:03Z</time>
      </trkpt>
      <trkpt lat="45.91651" lon="4.85477">
        <ele>256</ele>
        <time>2018-09-15T09:13:07Z</time>
      </trkpt>
      <trkpt lat="45.91652" lon="4.8548">
        <ele>256</ele>
        <time>2018-09-15T09:13:08Z</time>
      </trkpt>
      <trkpt lat="45.91657" lon="4.8549">
        <ele>256</ele>
        <time>2018-09-15T09:13:11Z</time>
      </trkpt>
      <trkpt lat="45.91662" lon="4.855">
        <ele>256</ele>
        <time>2018-09-15T09:13:12Z</time>
      </trkpt>
      <trkpt lat="45.91667" lon="4.85508">
        <ele>256</ele>
        <time>2018-09-15T09:13:15Z</time>
      </trkpt>
      <trkpt lat="45.91668" lon="4.8551">
        <ele>256</ele>
        <time>2018-09-15T09:13:16Z</time>
      </trkpt>
      <trkpt lat="45.91671" lon="4.85518">
        <ele>256</ele>
        <time>2018-09-15T09:13:19Z</time>
      </trkpt>
      <trkpt lat="45.91673" lon="4.85522">
        <ele>256</ele>
        <time>2018-09-15T09:13:20Z</time>
      </trkpt>
      <trkpt lat="45.91677" lon="4.85532">
        <ele>256</ele>
        <time>2018-09-15T09:13:23Z</time>
      </trkpt>
      <trkpt lat="45.91678" lon="4.85536">
        <ele>256</ele>
        <time>2018-09-15T09:13:24Z</time>
      </trkpt>
      <trkpt lat="45.91681" lon="4.85545">
        <ele>256</ele>
        <time>2018-09-15T09:13:26Z</time>
      </trkpt>
      <trkpt lat="45.91683" lon="4.8555">
        <ele>256</ele>
        <time>2018-09-15T09:13:27Z</time>
      </trkpt>
      <trkpt lat="45.91685" lon="4.85559">
        <ele>256</ele>
        <time>2018-09-15T09:13:29Z</time>
      </trkpt>
      <trkpt lat="45.91687" lon="4.85564">
        <ele>256</ele>
        <time>2018-09-15T09:13:30Z</time>
      </trkpt>
      <trkpt lat="45.91689" lon="4.85574">
        <ele>256</ele>
        <time>2018-09-15T09:13:32Z</time>
      </trkpt>
      <trkpt lat="45.9169" lon="4.85579">
        <ele>256</ele>
        <time>2018-09-15T09:13:33Z</time>
      </trkpt>
      <trkpt lat="45.91693" lon="4.8559">
        <ele>257</ele>
        <time>2018-09-15T09:13:35Z</time>
      </trkpt>
      <trkpt lat="45.91695" lon="4.85594">
        <ele>257</ele>
        <time>2018-09-15T09:13:36Z</time>
      </trkpt>
      <trkpt lat="45.91696" lon="4.85599">
        <ele>257</ele>
        <time>2018-09-15T09:13:37Z</time>
      </trkpt>
      <trkpt lat="45.91701" lon="4.85611">
        <ele>257</ele>
        <time>2018-09-15T09:13:38Z</time>
      </trkpt>
      <trkpt lat="45.91705" lon="4.85619">
        <ele>257</ele>
        <time>2018-09-15T09:13:41Z</time>
      </trkpt>
      <trkpt lat="45.91706" lon="4.85623">
        <ele>257</ele>
        <time>2018-09-15T09:13:42Z</time>
      </trkpt>
      <trkpt lat="45.9171" lon="4.85633">
        <ele>257</ele>
        <time>2018-09-15T09:13:45Z</time>
      </trkpt>
      <trkpt lat="45.91712" lon="4.85637">
        <ele>257</ele>
        <time>2018-09-15T09:13:46Z</time>
      </trkpt>
      <trkpt lat="45.91716" lon="4.85648">
        <ele>257</ele>
        <time>2018-09-15T09:13:47Z</time>
      </trkpt>
      <trkpt lat="45.91716" lon="4.8565">
        <ele>257</ele>
        <time>2018-09-15T09:13:48Z</time>
      </trkpt>
      <trkpt lat="45.91718" lon="4.85658">
        <ele>258</ele>
        <time>2018-09-15T09:13:49Z</time>
      </trkpt>
      <trkpt lat="45.91719" lon="4.85664">
        <ele>258</ele>
        <time>2018-09-15T09:13:50Z</time>
      </trkpt>
      <trkpt lat="45.91722" lon="4.85675">
        <ele>259</ele>
        <time>2018-09-15T09:13:52Z</time>
      </trkpt>
      <trkpt lat="45.91723" lon="4.8568">
        <ele>259</ele>
        <time>2018-09-15T09:13:53Z</time>
      </trkpt>
      <trkpt lat="45.91725" lon="4.85688">
        <ele>259</ele>
        <time>2018-09-15T09:13:56Z</time>
      </trkpt>
      <trkpt lat="45.91728" lon="4.85697">
        <ele>259</ele>
        <time>2018-09-15T09:13:57Z</time>
      </trkpt>
      <trkpt lat="45.91731" lon="4.85707">
        <ele>259</ele>
        <time>2018-09-15T09:13:59Z</time>
      </trkpt>
      <trkpt lat="45.91733" lon="4.85712">
        <ele>259</ele>
        <time>2018-09-15T09:14:00Z</time>
      </trkpt>
      <trkpt lat="45.91736" lon="4.85722">
        <ele>259</ele>
        <time>2018-09-15T09:14:02Z</time>
      </trkpt>
      <trkpt lat="45.91738" lon="4.85727">
        <ele>259</ele>
        <time>2018-09-15T09:14:03Z</time>
      </trkpt>
      <trkpt lat="45.91743" lon="4.85737">
        <ele>260</ele>
        <time>2018-09-15T09:14:05Z</time>
      </trkpt>
      <trkpt lat="45.91745" lon="4.85743">
        <ele>260</ele>
        <time>2018-09-15T09:14:06Z</time>
      </trkpt>
      <trkpt lat="45.91747" lon="4.85754">
        <ele>260</ele>
        <time>2018-09-15T09:14:08Z</time>
      </trkpt>
      <trkpt lat="45.91748" lon="4.85756">
        <ele>260</ele>
        <time>2018-09-15T09:14:09Z</time>
      </trkpt>
      <trkpt lat="45.91749" lon="4.85761">
        <ele>260</ele>
        <time>2018-09-15T09:14:11Z</time>
      </trkpt>
      <trkpt lat="45.91752" lon="4.85771">
        <ele>260</ele>
        <time>2018-09-15T09:14:12Z</time>
      </trkpt>
      <trkpt lat="45.91755" lon="4.85777">
        <ele>260</ele>
        <time>2018-09-15T09:14:13Z</time>
      </trkpt>
      <trkpt lat="45.91758" lon="4.85782">
        <ele>260</ele>
        <time>2018-09-15T09:14:14Z</time>
      </trkpt>
      <trkpt lat="45.91761" lon="4.85792">
        <ele>260</ele>
        <time>2018-09-15T09:14:16Z</time>
      </trkpt>
      <trkpt lat="45.91763" lon="4.85797">
        <ele>260</ele>
        <time>2018-09-15T09:14:17Z</time>
      </trkpt>
      <trkpt lat="45.91766" lon="4.85808">
        <ele>260</ele>
        <time>2018-09-15T09:14:20Z</time>
      </trkpt>
      <trkpt lat="45.91767" lon="4.8581">
        <ele>260</ele>
        <time>2018-09-15T09:14:21Z</time>
      </trkpt>
      <trkpt lat="45.91771" lon="4.85821">
        <ele>260</ele>
        <time>2018-09-15T09:14:24Z</time>
      </trkpt>
      <trkpt lat="45.91772" lon="4.85824">
        <ele>260</ele>
        <time>2018-09-15T09:14:25Z</time>
      </trkpt>
      <trkpt lat="45.91776" lon="4.85832">
        <ele>260</ele>
        <time>2018-09-15T09:14:27Z</time>
      </trkpt>
      <trkpt lat="45.91777" lon="4.85836">
        <ele>261</ele>
        <time>2018-09-15T09:14:28Z</time>
      </trkpt>
      <trkpt lat="45.91782" lon="4.85849">
        <ele>261</ele>
        <time>2018-09-15T09:14:29Z</time>
      </trkpt>
      <trkpt lat="45.91784" lon="4.8586">
        <ele>261</ele>
        <time>2018-09-15T09:14:31Z</time>
      </trkpt>
      <trkpt lat="45.91786" lon="4.85865">
        <ele>261</ele>
        <time>2018-09-15T09:14:32Z</time>
      </trkpt>
      <trkpt lat="45.9179" lon="4.85877">
        <ele>261</ele>
        <time>2018-09-15T09:14:34Z</time>
      </trkpt>
      <trkpt lat="45.91791" lon="4.85883">
        <ele>261</ele>
        <time>2018-09-15T09:14:35Z</time>
      </trkpt>
      <trkpt lat="45.91793" lon="4.85889">
        <ele>261</ele>
        <time>2018-09-15T09:14:36Z</time>
      </trkpt>
      <trkpt lat="45.91794" lon="4.85895">
        <ele>261</ele>
        <time>2018-09-15T09:14:37Z</time>
      </trkpt>
      <trkpt lat="45.91797" lon="4.85907">
        <ele>261</ele>
        <time>2018-09-15T09:14:39Z</time>
      </trkpt>
      <trkpt lat="45.91798" lon="4.85913">
        <ele>261</ele>
        <time>2018-09-15T09:14:40Z</time>
      </trkpt>
      <trkpt lat="45.91801" lon="4.85924">
        <ele>262</ele>
        <time>2018-09-15T09:14:42Z</time>
      </trkpt>
      <trkpt lat="45.91802" lon="4.8593">
        <ele>262</ele>
        <time>2018-09-15T09:14:43Z</time>
      </trkpt>
      <trkpt lat="45.91804" lon="4.8594">
        <ele>262</ele>
        <time>2018-09-15T09:14:45Z</time>
      </trkpt>
      <trkpt lat="45.91805" lon="4.85945">
        <ele>262</ele>
        <time>2018-09-15T09:14:46Z</time>
      </trkpt>
      <trkpt lat="45.91809" lon="4.85956">
        <ele>262</ele>
        <time>2018-09-15T09:14:48Z</time>
      </trkpt>
      <trkpt lat="45.9181" lon="4.85963">
        <ele>262</ele>
        <time>2018-09-15T09:14:49Z</time>
      </trkpt>
      <trkpt lat="45.91812" lon="4.85975">
        <ele>262</ele>
        <time>2018-09-15T09:14:51Z</time>
      </trkpt>
      <trkpt lat="45.91814" lon="4.8598">
        <ele>262</ele>
        <time>2018-09-15T09:14:52Z</time>
      </trkpt>
      <trkpt lat="45.91816" lon="4.85992">
        <ele>262</ele>
        <time>2018-09-15T09:14:54Z</time>
      </trkpt>
      <trkpt lat="45.91817" lon="4.85999">
        <ele>262</ele>
        <time>2018-09-15T09:14:55Z</time>
      </trkpt>
      <trkpt lat="45.9182" lon="4.86011">
        <ele>263</ele>
        <time>2018-09-15T09:14:57Z</time>
      </trkpt>
      <trkpt lat="45.91822" lon="4.86015">
        <ele>263</ele>
        <time>2018-09-15T09:14:58Z</time>
      </trkpt>
      <trkpt lat="45.91823" lon="4.86022">
        <ele>263</ele>
        <time>2018-09-15T09:14:59Z</time>
      </trkpt>
      <trkpt lat="45.91825" lon="4.86028">
        <ele>263</ele>
        <time>2018-09-15T09:15:00Z</time>
      </trkpt>
      <trkpt lat="45.91827" lon="4.86039">
        <ele>263</ele>
        <time>2018-09-15T09:15:02Z</time>
      </trkpt>
      <trkpt lat="45.91829" lon="4.86044">
        <ele>263</ele>
        <time>2018-09-15T09:15:03Z</time>
      </trkpt>
      <trkpt lat="45.91829" lon="4.8605">
        <ele>263</ele>
        <time>2018-09-15T09:15:05Z</time>
      </trkpt>
      <trkpt lat="45.91831" lon="4.86059">
        <ele>263</ele>
        <time>2018-09-15T09:15:06Z</time>
      </trkpt>
      <trkpt lat="45.91833" lon="4.86069">
        <ele>263</ele>
        <time>2018-09-15T09:15:08Z</time>
      </trkpt>
      <trkpt lat="45.91834" lon="4.86075">
        <ele>263</ele>
        <time>2018-09-15T09:15:09Z</time>
      </trkpt>
      <trkpt lat="45.91835" lon="4.86082">
        <ele>263</ele>
        <time>2018-09-15T09:15:10Z</time>
      </trkpt>
      <trkpt lat="45.91837" lon="4.86089">
        <ele>263</ele>
        <time>2018-09-15T09:15:11Z</time>
      </trkpt>
      <trkpt lat="45.91838" lon="4.86096">
        <ele>263</ele>
        <time>2018-09-15T09:15:12Z</time>
      </trkpt>
      <trkpt lat="45.91839" lon="4.86102">
        <ele>263</ele>
        <time>2018-09-15T09:15:13Z</time>
      </trkpt>
      <trkpt lat="45.91841" lon="4.86106">
        <ele>263</ele>
        <time>2018-09-15T09:15:14Z</time>
      </trkpt>
      <trkpt lat="45.91843" lon="4.86114">
        <ele>263</ele>
        <time>2018-09-15T09:15:15Z</time>
      </trkpt>
      <trkpt lat="45.91847" lon="4.86125">
        <ele>263</ele>
        <time>2018-09-15T09:15:18Z</time>
      </trkpt>
      <trkpt lat="45.9185" lon="4.86133">
        <ele>263</ele>
        <time>2018-09-15T09:15:19Z</time>
      </trkpt>
      <trkpt lat="45.91852" lon="4.86142">
        <ele>263</ele>
        <time>2018-09-15T09:15:21Z</time>
      </trkpt>
      <trkpt lat="45.91853" lon="4.86147">
        <ele>263</ele>
        <time>2018-09-15T09:15:22Z</time>
      </trkpt>
      <trkpt lat="45.91856" lon="4.86157">
        <ele>263</ele>
        <time>2018-09-15T09:15:24Z</time>
      </trkpt>
      <trkpt lat="45.91857" lon="4.86162">
        <ele>263</ele>
        <time>2018-09-15T09:15:25Z</time>
      </trkpt>
      <trkpt lat="45.91859" lon="4.86174">
        <ele>265</ele>
        <time>2018-09-15T09:15:29Z</time>
      </trkpt>
      <trkpt lat="45.9186" lon="4.86177">
        <ele>265</ele>
        <time>2018-09-15T09:15:30Z</time>
      </trkpt>
      <trkpt lat="45.91862" lon="4.86187">
        <ele>265</ele>
        <time>2018-09-15T09:15:33Z</time>
      </trkpt>
      <trkpt lat="45.91863" lon="4.862">
        <ele>265</ele>
        <time>2018-09-15T09:15:34Z</time>
      </trkpt>
      <trkpt lat="45.91865" lon="4.86212">
        <ele>265</ele>
        <time>2018-09-15T09:15:37Z</time>
      </trkpt>
      <trkpt lat="45.91865" lon="4.86215">
        <ele>266</ele>
        <time>2018-09-15T09:15:38Z</time>
      </trkpt>
      <trkpt lat="45.91866" lon="4.86227">
        <ele>266</ele>
        <time>2018-09-15T09:15:41Z</time>
      </trkpt>
      <trkpt lat="45.91866" lon="4.86232">
        <ele>266</ele>
        <time>2018-09-15T09:15:42Z</time>
      </trkpt>
      <trkpt lat="45.91866" lon="4.8624">
        <ele>266</ele>
        <time>2018-09-15T09:15:44Z</time>
      </trkpt>
      <trkpt lat="45.91865" lon="4.86245">
        <ele>266</ele>
        <time>2018-09-15T09:15:45Z</time>
      </trkpt>
      <trkpt lat="45.91866" lon="4.86257">
        <ele>269</ele>
        <time>2018-09-15T09:15:48Z</time>
      </trkpt>
      <trkpt lat="45.91866" lon="4.86261">
        <ele>269</ele>
        <time>2018-09-15T09:15:49Z</time>
      </trkpt>
      <trkpt lat="45.91865" lon="4.86272">
        <ele>269</ele>
        <time>2018-09-15T09:15:52Z</time>
      </trkpt>
      <trkpt lat="45.91864" lon="4.86276">
        <ele>269</ele>
        <time>2018-09-15T09:15:53Z</time>
      </trkpt>
      <trkpt lat="45.91863" lon="4.86287">
        <ele>269</ele>
        <time>2018-09-15T09:15:56Z</time>
      </trkpt>
      <trkpt lat="45.91863" lon="4.86291">
        <ele>269</ele>
        <time>2018-09-15T09:15:57Z</time>
      </trkpt>
      <trkpt lat="45.91863" lon="4.86302">
        <ele>270</ele>
        <time>2018-09-15T09:16:00Z</time>
      </trkpt>
      <trkpt lat="45.91862" lon="4.86306">
        <ele>270</ele>
        <time>2018-09-15T09:16:01Z</time>
      </trkpt>
      <trkpt lat="45.91862" lon="4.86318">
        <ele>270</ele>
        <time>2018-09-15T09:16:04Z</time>
      </trkpt>
      <trkpt lat="45.91862" lon="4.86322">
        <ele>270</ele>
        <time>2018-09-15T09:16:05Z</time>
      </trkpt>
      <trkpt lat="45.91861" lon="4.86334">
        <ele>271</ele>
        <time>2018-09-15T09:16:08Z</time>
      </trkpt>
      <trkpt lat="45.91861" lon="4.86338">
        <ele>271</ele>
        <time>2018-09-15T09:16:09Z</time>
      </trkpt>
      <trkpt lat="45.91861" lon="4.8635">
        <ele>271</ele>
        <time>2018-09-15T09:16:12Z</time>
      </trkpt>
      <trkpt lat="45.91861" lon="4.86353">
        <ele>271</ele>
        <time>2018-09-15T09:16:13Z</time>
      </trkpt>
      <trkpt lat="45.91861" lon="4.86364">
        <ele>272</ele>
        <time>2018-09-15T09:16:16Z</time>
      </trkpt>
      <trkpt lat="45.91862" lon="4.86367">
        <ele>272</ele>
        <time>2018-09-15T09:16:17Z</time>
      </trkpt>
      <trkpt lat="45.91863" lon="4.86378">
        <ele>272</ele>
        <time>2018-09-15T09:16:20Z</time>
      </trkpt>
      <trkpt lat="45.91863" lon="4.86381">
        <ele>272</ele>
        <time>2018-09-15T09:16:21Z</time>
      </trkpt>
      <trkpt lat="45.91863" lon="4.8639">
        <ele>272</ele>
        <time>2018-09-15T09:16:23Z</time>
      </trkpt>
      <trkpt lat="45.91864" lon="4.86394">
        <ele>272</ele>
        <time>2018-09-15T09:16:24Z</time>
      </trkpt>
      <trkpt lat="45.91866" lon="4.86403">
        <ele>272</ele>
        <time>2018-09-15T09:16:26Z</time>
      </trkpt>
      <trkpt lat="45.91867" lon="4.86407">
        <ele>272</ele>
        <time>2018-09-15T09:16:27Z</time>
      </trkpt>
      <trkpt lat="45.9187" lon="4.86419">
        <ele>271</ele>
        <time>2018-09-15T09:16:28Z</time>
      </trkpt>
      <trkpt lat="45.91873" lon="4.86429">
        <ele>271</ele>
        <time>2018-09-15T09:16:30Z</time>
      </trkpt>
      <trkpt lat="45.91875" lon="4.86434">
        <ele>271</ele>
        <time>2018-09-15T09:16:31Z</time>
      </trkpt>
      <trkpt lat="45.91879" lon="4.86444">
        <ele>271</ele>
        <time>2018-09-15T09:16:33Z</time>
      </trkpt>
      <trkpt lat="45.9188" lon="4.86448">
        <ele>271</ele>
        <time>2018-09-15T09:16:34Z</time>
      </trkpt>
      <trkpt lat="45.91884" lon="4.86457">
        <ele>271</ele>
        <time>2018-09-15T09:16:37Z</time>
      </trkpt>
      <trkpt lat="45.91885" lon="4.8646">
        <ele>271</ele>
        <time>2018-09-15T09:16:38Z</time>
      </trkpt>
      <trkpt lat="45.91886" lon="4.86464">
        <ele>271</ele>
        <time>2018-09-15T09:16:39Z</time>
      </trkpt>
      <trkpt lat="45.9189" lon="4.86475">
        <ele>271</ele>
        <time>2018-09-15T09:16:40Z</time>
      </trkpt>
      <trkpt lat="45.91891" lon="4.86481">
        <ele>271</ele>
        <time>2018-09-15T09:16:41Z</time>
      </trkpt>
      <trkpt lat="45.91892" lon="4.86488">
        <ele>271</ele>
        <time>2018-09-15T09:16:42Z</time>
      </trkpt>
      <trkpt lat="45.91897" lon="4.86498">
        <ele>271</ele>
        <time>2018-09-15T09:16:44Z</time>
      </trkpt>
      <trkpt lat="45.91899" lon="4.86504">
        <ele>270</ele>
        <time>2018-09-15T09:16:45Z</time>
      </trkpt>
      <trkpt lat="45.91901" lon="4.86509">
        <ele>271</ele>
        <time>2018-09-15T09:16:46Z</time>
      </trkpt>
      <trkpt lat="45.91904" lon="4.86515">
        <ele>270</ele>
        <time>2018-09-15T09:16:47Z</time>
      </trkpt>
      <trkpt lat="45.91908" lon="4.86524">
        <ele>270</ele>
        <time>2018-09-15T09:16:49Z</time>
      </trkpt>
      <trkpt lat="45.91909" lon="4.86526">
        <ele>270</ele>
        <time>2018-09-15T09:16:50Z</time>
      </trkpt>
      <trkpt lat="45.91912" lon="4.86536">
        <ele>270</ele>
        <time>2018-09-15T09:16:53Z</time>
      </trkpt>
      <trkpt lat="45.91915" lon="4.86548">
        <ele>270</ele>
        <time>2018-09-15T09:16:54Z</time>
      </trkpt>
      <trkpt lat="45.91919" lon="4.86559">
        <ele>272</ele>
        <time>2018-09-15T09:16:56Z</time>
      </trkpt>
      <trkpt lat="45.91921" lon="4.86564">
        <ele>272</ele>
        <time>2018-09-15T09:16:57Z</time>
      </trkpt>
      <trkpt lat="45.91925" lon="4.86573">
        <ele>271</ele>
        <time>2018-09-15T09:16:59Z</time>
      </trkpt>
      <trkpt lat="45.91927" lon="4.86578">
        <ele>271</ele>
        <time>2018-09-15T09:17:00Z</time>
      </trkpt>
      <trkpt lat="45.91929" lon="4.86589">
        <ele>271</ele>
        <time>2018-09-15T09:17:04Z</time>
      </trkpt>
      <trkpt lat="45.91932" lon="4.866">
        <ele>272</ele>
        <time>2018-09-15T09:17:05Z</time>
      </trkpt>
      <trkpt lat="45.91935" lon="4.8661">
        <ele>272</ele>
        <time>2018-09-15T09:17:07Z</time>
      </trkpt>
      <trkpt lat="45.91937" lon="4.86615">
        <ele>272</ele>
        <time>2018-09-15T09:17:08Z</time>
      </trkpt>
      <trkpt lat="45.91939" lon="4.86623">
        <ele>272</ele>
        <time>2018-09-15T09:17:10Z</time>
      </trkpt>
      <trkpt lat="45.91941" lon="4.8663">
        <ele>272</ele>
        <time>2018-09-15T09:17:11Z</time>
      </trkpt>
      <trkpt lat="45.91944" lon="4.86641">
        <ele>272</ele>
        <time>2018-09-15T09:17:13Z</time>
      </trkpt>
      <trkpt lat="45.91945" lon="4.86646">
        <ele>272</ele>
        <time>2018-09-15T09:17:14Z</time>
      </trkpt>
      <trkpt lat="45.91948" lon="4.86657">
        <ele>272</ele>
        <time>2018-09-15T09:17:17Z</time>
      </trkpt>
      <trkpt lat="45.91949" lon="4.8666">
        <ele>272</ele>
        <time>2018-09-15T09:17:18Z</time>
      </trkpt>
      <trkpt lat="45.91951" lon="4.86667">
        <ele>272</ele>
        <time>2018-09-15T09:17:20Z</time>
      </trkpt>
      <trkpt lat="45.91954" lon="4.86677">
        <ele>273</ele>
        <time>2018-09-15T09:17:21Z</time>
      </trkpt>
      <trkpt lat="45.91956" lon="4.86685">
        <ele>274</ele>
        <time>2018-09-15T09:17:23Z</time>
      </trkpt>
      <trkpt lat="45.91958" lon="4.8669">
        <ele>274</ele>
        <time>2018-09-15T09:17:24Z</time>
      </trkpt>
      <trkpt lat="45.91961" lon="4.867">
        <ele>274</ele>
        <time>2018-09-15T09:17:27Z</time>
      </trkpt>
      <trkpt lat="45.91962" lon="4.86703">
        <ele>274</ele>
        <time>2018-09-15T09:17:28Z</time>
      </trkpt>
      <trkpt lat="45.91965" lon="4.8671">
        <ele>274</ele>
        <time>2018-09-15T09:17:30Z</time>
      </trkpt>
      <trkpt lat="45.91968" lon="4.86721">
        <ele>274</ele>
        <time>2018-09-15T09:17:31Z</time>
      </trkpt>
      <trkpt lat="45.91971" lon="4.8673">
        <ele>274</ele>
        <time>2018-09-15T09:17:34Z</time>
      </trkpt>
      <trkpt lat="45.91974" lon="4.8674">
        <ele>274</ele>
        <time>2018-09-15T09:17:35Z</time>
      </trkpt>
      <trkpt lat="45.91977" lon="4.86751">
        <ele>276</ele>
        <time>2018-09-15T09:17:38Z</time>
      </trkpt>
      <trkpt lat="45.91978" lon="4.86754">
        <ele>276</ele>
        <time>2018-09-15T09:17:39Z</time>
      </trkpt>
      <trkpt lat="45.91981" lon="4.86764">
        <ele>276</ele>
        <time>2018-09-15T09:17:42Z</time>
      </trkpt>
      <trkpt lat="45.91982" lon="4.86767">
        <ele>277</ele>
        <time>2018-09-15T09:17:43Z</time>
      </trkpt>
      <trkpt lat="45.91986" lon="4.86778">
        <ele>277</ele>
        <time>2018-09-15T09:17:46Z</time>
      </trkpt>
      <trkpt lat="45.91987" lon="4.86782">
        <ele>277</ele>
        <time>2018-09-15T09:17:47Z</time>
      </trkpt>
      <trkpt lat="45.9199" lon="4.86793">
        <ele>277</ele>
        <time>2018-09-15T09:17:50Z</time>
      </trkpt>
      <trkpt lat="45.91992" lon="4.86797">
        <ele>278</ele>
        <time>2018-09-15T09:17:51Z</time>
      </trkpt>
      <trkpt lat="45.91994" lon="4.86805">
        <ele>278</ele>
        <time>2018-09-15T09:17:53Z</time>
      </trkpt>
      <trkpt lat="45.91996" lon="4.86809">
        <ele>278</ele>
        <time>2018-09-15T09:17:54Z</time>
      </trkpt>
      <trkpt lat="45.91998" lon="4.86818">
        <ele>278</ele>
        <time>2018-09-15T09:17:56Z</time>
      </trkpt>
      <trkpt lat="45.91999" lon="4.86822">
        <ele>278</ele>
        <time>2018-09-15T09:17:57Z</time>
      </trkpt>
      <trkpt lat="45.92003" lon="4.86833">
        <ele>279</ele>
        <time>2018-09-15T09:18:00Z</time>
      </trkpt>
      <trkpt lat="45.92004" lon="4.86837">
        <ele>280</ele>
        <time>2018-09-15T09:18:01Z</time>
      </trkpt>
      <trkpt lat="45.92008" lon="4.86849">
        <ele>280</ele>
        <time>2018-09-15T09:18:04Z</time>
      </trkpt>
      <trkpt lat="45.92008" lon="4.86852">
        <ele>281</ele>
        <time>2018-09-15T09:18:05Z</time>
      </trkpt>
      <trkpt lat="45.92011" lon="4.86864">
        <ele>281</ele>
        <time>2018-09-15T09:18:08Z</time>
      </trkpt>
      <trkpt lat="45.92012" lon="4.86868">
        <ele>281</ele>
        <time>2018-09-15T09:18:09Z</time>
      </trkpt>
      <trkpt lat="45.92015" lon="4.86876">
        <ele>282</ele>
        <time>2018-09-15T09:18:11Z</time>
      </trkpt>
      <trkpt lat="45.92016" lon="4.8688">
        <ele>282</ele>
        <time>2018-09-15T09:18:12Z</time>
      </trkpt>
      <trkpt lat="45.92019" lon="4.86888">
        <ele>282</ele>
        <time>2018-09-15T09:18:14Z</time>
      </trkpt>
      <trkpt lat="45.9202" lon="4.86892">
        <ele>282</ele>
        <time>2018-09-15T09:18:15Z</time>
      </trkpt>
      <trkpt lat="45.92023" lon="4.86904">
        <ele>283</ele>
        <time>2018-09-15T09:18:18Z</time>
      </trkpt>
      <trkpt lat="45.92024" lon="4.86907">
        <ele>283</ele>
        <time>2018-09-15T09:18:19Z</time>
      </trkpt>
      <trkpt lat="45.92026" lon="4.86918">
        <ele>284</ele>
        <time>2018-09-15T09:18:22Z</time>
      </trkpt>
      <trkpt lat="45.92027" lon="4.86921">
        <ele>284</ele>
        <time>2018-09-15T09:18:23Z</time>
      </trkpt>
      <trkpt lat="45.9203" lon="4.86933">
        <ele>284</ele>
        <time>2018-09-15T09:18:26Z</time>
      </trkpt>
      <trkpt lat="45.92031" lon="4.86937">
        <ele>284</ele>
        <time>2018-09-15T09:18:27Z</time>
      </trkpt>
      <trkpt lat="45.92033" lon="4.86946">
        <ele>284</ele>
        <time>2018-09-15T09:18:29Z</time>
      </trkpt>
      <trkpt lat="45.92034" lon="4.8695">
        <ele>284</ele>
        <time>2018-09-15T09:18:30Z</time>
      </trkpt>
      <trkpt lat="45.92037" lon="4.86961">
        <ele>284</ele>
        <time>2018-09-15T09:18:33Z</time>
      </trkpt>
      <trkpt lat="45.92037" lon="4.86965">
        <ele>284</ele>
        <time>2018-09-15T09:18:34Z</time>
      </trkpt>
      <trkpt lat="45.92039" lon="4.86976">
        <ele>284</ele>
        <time>2018-09-15T09:18:37Z</time>
      </trkpt>
      <trkpt lat="45.9204" lon="4.86979">
        <ele>284</ele>
        <time>2018-09-15T09:18:38Z</time>
      </trkpt>
      <trkpt lat="45.92042" lon="4.8699">
        <ele>284</ele>
        <time>2018-09-15T09:18:41Z</time>
      </trkpt>
      <trkpt lat="45.92043" lon="4.86994">
        <ele>284</ele>
        <time>2018-09-15T09:18:42Z</time>
      </trkpt>
      <trkpt lat="45.92044" lon="4.87002">
        <ele>284</ele>
        <time>2018-09-15T09:18:44Z</time>
      </trkpt>
      <trkpt lat="45.92046" lon="4.87017">
        <ele>284</ele>
        <time>2018-09-15T09:18:45Z</time>
      </trkpt>
      <trkpt lat="45.92047" lon="4.87027">
        <ele>284</ele>
        <time>2018-09-15T09:18:47Z</time>
      </trkpt>
      <trkpt lat="45.92048" lon="4.8703">
        <ele>284</ele>
        <time>2018-09-15T09:18:48Z</time>
      </trkpt>
      <trkpt lat="45.9205" lon="4.87041">
        <ele>284</ele>
        <time>2018-09-15T09:18:52Z</time>
      </trkpt>
      <trkpt lat="45.9205" lon="4.87045">
        <ele>284</ele>
        <time>2018-09-15T09:18:53Z</time>
      </trkpt>
      <trkpt lat="45.92052" lon="4.87056">
        <ele>284</ele>
        <time>2018-09-15T09:18:56Z</time>
      </trkpt>
      <trkpt lat="45.92052" lon="4.87061">
        <ele>284</ele>
        <time>2018-09-15T09:18:57Z</time>
      </trkpt>
      <trkpt lat="45.92053" lon="4.8707">
        <ele>284</ele>
        <time>2018-09-15T09:18:59Z</time>
      </trkpt>
      <trkpt lat="45.92054" lon="4.87074">
        <ele>284</ele>
        <time>2018-09-15T09:19:00Z</time>
      </trkpt>
      <trkpt lat="45.92054" lon="4.87082">
        <ele>284</ele>
        <time>2018-09-15T09:19:02Z</time>
      </trkpt>
      <trkpt lat="45.92055" lon="4.87087">
        <ele>284</ele>
        <time>2018-09-15T09:19:03Z</time>
      </trkpt>
      <trkpt lat="45.92055" lon="4.87095">
        <ele>284</ele>
        <time>2018-09-15T09:19:05Z</time>
      </trkpt>
      <trkpt lat="45.92056" lon="4.87108">
        <ele>284</ele>
        <time>2018-09-15T09:19:06Z</time>
      </trkpt>
      <trkpt lat="45.92057" lon="4.87117">
        <ele>284</ele>
        <time>2018-09-15T09:19:09Z</time>
      </trkpt>
      <trkpt lat="45.92057" lon="4.87121">
        <ele>283</ele>
        <time>2018-09-15T09:19:10Z</time>
      </trkpt>
      <trkpt lat="45.92058" lon="4.87129">
        <ele>283</ele>
        <time>2018-09-15T09:19:12Z</time>
      </trkpt>
      <trkpt lat="45.92059" lon="4.87141">
        <ele>283</ele>
        <time>2018-09-15T09:19:13Z</time>
      </trkpt>
      <trkpt lat="45.9206" lon="4.87152">
        <ele>283</ele>
        <time>2018-09-15T09:19:16Z</time>
      </trkpt>
      <trkpt lat="45.9206" lon="4.87155">
        <ele>283</ele>
        <time>2018-09-15T09:19:17Z</time>
      </trkpt>
      <trkpt lat="45.92061" lon="4.87168">
        <ele>284</ele>
        <time>2018-09-15T09:19:20Z</time>
      </trkpt>
      <trkpt lat="45.92061" lon="4.87173">
        <ele>284</ele>
        <time>2018-09-15T09:19:21Z</time>
      </trkpt>
      <trkpt lat="45.92062" lon="4.87182">
        <ele>284</ele>
        <time>2018-09-15T09:19:23Z</time>
      </trkpt>
      <trkpt lat="45.92062" lon="4.87186">
        <ele>284</ele>
        <time>2018-09-15T09:19:24Z</time>
      </trkpt>
      <trkpt lat="45.92062" lon="4.8719">
        <ele>284</ele>
        <time>2018-09-15T09:19:25Z</time>
      </trkpt>
      <trkpt lat="45.92063" lon="4.87203">
        <ele>285</ele>
        <time>2018-09-15T09:19:26Z</time>
      </trkpt>
      <trkpt lat="45.92064" lon="4.87215">
        <ele>285</ele>
        <time>2018-09-15T09:19:28Z</time>
      </trkpt>
      <trkpt lat="45.92065" lon="4.87221">
        <ele>285</ele>
        <time>2018-09-15T09:19:29Z</time>
      </trkpt>
      <trkpt lat="45.92066" lon="4.87234">
        <ele>285</ele>
        <time>2018-09-15T09:19:31Z</time>
      </trkpt>
      <trkpt lat="45.92067" lon="4.8724">
        <ele>285</ele>
        <time>2018-09-15T09:19:32Z</time>
      </trkpt>
      <trkpt lat="45.92067" lon="4.87252">
        <ele>286</ele>
        <time>2018-09-15T09:19:34Z</time>
      </trkpt>
      <trkpt lat="45.92067" lon="4.8726">
        <ele>287</ele>
        <time>2018-09-15T09:19:35Z</time>
      </trkpt>
      <trkpt lat="45.92069" lon="4.87267">
        <ele>287</ele>
        <time>2018-09-15T09:19:36Z</time>
      </trkpt>
      <trkpt lat="45.9207" lon="4.87274">
        <ele>287</ele>
        <time>2018-09-15T09:19:37Z</time>
      </trkpt>
      <trkpt lat="45.9207" lon="4.87281">
        <ele>287</ele>
        <time>2018-09-15T09:19:38Z</time>
      </trkpt>
      <trkpt lat="45.92071" lon="4.87288">
        <ele>287</ele>
        <time>2018-09-15T09:19:39Z</time>
      </trkpt>
      <trkpt lat="45.92072" lon="4.87295">
        <ele>287</ele>
        <time>2018-09-15T09:19:40Z</time>
      </trkpt>
      <trkpt lat="45.92072" lon="4.87301">
        <ele>287</ele>
        <time>2018-09-15T09:19:41Z</time>
      </trkpt>
      <trkpt lat="45.92073" lon="4.87309">
        <ele>287</ele>
        <time>2018-09-15T09:19:42Z</time>
      </trkpt>
      <trkpt lat="45.92073" lon="4.87317">
        <ele>287</ele>
        <time>2018-09-15T09:19:43Z</time>
      </trkpt>
      <trkpt lat="45.92074" lon="4.87324">
        <ele>288</ele>
        <time>2018-09-15T09:19:44Z</time>
      </trkpt>
      <trkpt lat="45.92074" lon="4.87331">
        <ele>288</ele>
        <time>2018-09-15T09:19:45Z</time>
      </trkpt>
      <trkpt lat="45.92075" lon="4.87338">
        <ele>288</ele>
        <time>2018-09-15T09:19:46Z</time>
      </trkpt>
      <trkpt lat="45.92075" lon="4.87344">
        <ele>288</ele>
        <time>2018-09-15T09:19:47Z</time>
      </trkpt>
      <trkpt lat="45.92076" lon="4.87351">
        <ele>288</ele>
        <time>2018-09-15T09:19:48Z</time>
      </trkpt>
      <trkpt lat="45.92077" lon="4.87357">
        <ele>288</ele>
        <time>2018-09-15T09:19:49Z</time>
      </trkpt>
      <trkpt lat="45.92078" lon="4.87369">
        <ele>288</ele>
        <time>2018-09-15T09:19:51Z</time>
      </trkpt>
      <trkpt lat="45.92077" lon="4.87374">
        <ele>288</ele>
        <time>2018-09-15T09:19:52Z</time>
      </trkpt>
      <trkpt lat="45.92077" lon="4.87386">
        <ele>288</ele>
        <time>2018-09-15T09:19:55Z</time>
      </trkpt>
      <trkpt lat="45.92078" lon="4.87397">
        <ele>288</ele>
        <time>2018-09-15T09:19:56Z</time>
      </trkpt>
      <trkpt lat="45.92079" lon="4.87404">
        <ele>289</ele>
        <time>2018-09-15T09:19:57Z</time>
      </trkpt>
      <trkpt lat="45.92079" lon="4.87411">
        <ele>289</ele>
        <time>2018-09-15T09:19:58Z</time>
      </trkpt>
      <trkpt lat="45.9208" lon="4.87421">
        <ele>288</ele>
        <time>2018-09-15T09:19:59Z</time>
      </trkpt>
      <trkpt lat="45.92081" lon="4.87428">
        <ele>287</ele>
        <time>2018-09-15T09:20:00Z</time>
      </trkpt>
      <trkpt lat="45.92082" lon="4.87433">
        <ele>287</ele>
        <time>2018-09-15T09:20:01Z</time>
      </trkpt>
      <trkpt lat="45.92084" lon="4.8744">
        <ele>287</ele>
        <time>2018-09-15T09:20:02Z</time>
      </trkpt>
      <trkpt lat="45.92086" lon="4.87452">
        <ele>286</ele>
        <time>2018-09-15T09:20:04Z</time>
      </trkpt>
      <trkpt lat="45.92088" lon="4.87459">
        <ele>286</ele>
        <time>2018-09-15T09:20:05Z</time>
      </trkpt>
      <trkpt lat="45.92091" lon="4.87465">
        <ele>286</ele>
        <time>2018-09-15T09:20:06Z</time>
      </trkpt>
      <trkpt lat="45.92094" lon="4.87472">
        <ele>285</ele>
        <time>2018-09-15T09:20:07Z</time>
      </trkpt>
      <trkpt lat="45.92096" lon="4.87478">
        <ele>285</ele>
        <time>2018-09-15T09:20:08Z</time>
      </trkpt>
      <trkpt lat="45.92099" lon="4.87486">
        <ele>285</ele>
        <time>2018-09-15T09:20:09Z</time>
      </trkpt>
      <trkpt lat="45.92101" lon="4.87493">
        <ele>285</ele>
        <time>2018-09-15T09:20:10Z</time>
      </trkpt>
      <trkpt lat="45.92104" lon="4.875">
        <ele>285</ele>
        <time>2018-09-15T09:20:11Z</time>
      </trkpt>
      <trkpt lat="45.92107" lon="4.87506">
        <ele>282</ele>
        <time>2018-09-15T09:20:12Z</time>
      </trkpt>
      <trkpt lat="45.92111" lon="4.87513">
        <ele>282</ele>
        <time>2018-09-15T09:20:13Z</time>
      </trkpt>
      <trkpt lat="45.92115" lon="4.8752">
        <ele>281</ele>
        <time>2018-09-15T09:20:14Z</time>
      </trkpt>
      <trkpt lat="45.9212" lon="4.87528">
        <ele>281</ele>
        <time>2018-09-15T09:20:15Z</time>
      </trkpt>
      <trkpt lat="45.92123" lon="4.87537">
        <ele>281</ele>
        <time>2018-09-15T09:20:16Z</time>
      </trkpt>
      <trkpt lat="45.92126" lon="4.87545">
        <ele>281</ele>
        <time>2018-09-15T09:20:17Z</time>
      </trkpt>
      <trkpt lat="45.92129" lon="4.87554">
        <ele>280</ele>
        <time>2018-09-15T09:20:18Z</time>
      </trkpt>
      <trkpt lat="45.92134" lon="4.87564">
        <ele>280</ele>
        <time>2018-09-15T09:20:19Z</time>
      </trkpt>
      <trkpt lat="45.92136" lon="4.87573">
        <ele>280</ele>
        <time>2018-09-15T09:20:20Z</time>
      </trkpt>
      <trkpt lat="45.92139" lon="4.87583">
        <ele>280</ele>
        <time>2018-09-15T09:20:21Z</time>
      </trkpt>
      <trkpt lat="45.92142" lon="4.87596">
        <ele>279</ele>
        <time>2018-09-15T09:20:22Z</time>
      </trkpt>
      <trkpt lat="45.92144" lon="4.87606">
        <ele>279</ele>
        <time>2018-09-15T09:20:23Z</time>
      </trkpt>
      <trkpt lat="45.92146" lon="4.87615">
        <ele>279</ele>
        <time>2018-09-15T09:20:24Z</time>
      </trkpt>
      <trkpt lat="45.92148" lon="4.87625">
        <ele>280</ele>
        <time>2018-09-15T09:20:25Z</time>
      </trkpt>
      <trkpt lat="45.92149" lon="4.87635">
        <ele>280</ele>
        <time>2018-09-15T09:20:26Z</time>
      </trkpt>
      <trkpt lat="45.92149" lon="4.87644">
        <ele>280</ele>
        <time>2018-09-15T09:20:27Z</time>
      </trkpt>
      <trkpt lat="45.92151" lon="4.87651">
        <ele>280</ele>
        <time>2018-09-15T09:20:28Z</time>
      </trkpt>
      <trkpt lat="45.92152" lon="4.87658">
        <ele>280</ele>
        <time>2018-09-15T09:20:29Z</time>
      </trkpt>
      <trkpt lat="45.92154" lon="4.87664">
        <ele>280</ele>
        <time>2018-09-15T09:20:30Z</time>
      </trkpt>
      <trkpt lat="45.92155" lon="4.87671">
        <ele>282</ele>
        <time>2018-09-15T09:20:31Z</time>
      </trkpt>
      <trkpt lat="45.92155" lon="4.87678">
        <ele>283</ele>
        <time>2018-09-15T09:20:32Z</time>
      </trkpt>
      <trkpt lat="45.92156" lon="4.87689">
        <ele>283</ele>
        <time>2018-09-15T09:20:34Z</time>
      </trkpt>
      <trkpt lat="45.92157" lon="4.87693">
        <ele>283</ele>
        <time>2018-09-15T09:20:35Z</time>
      </trkpt>
      <trkpt lat="45.92158" lon="4.87704">
        <ele>284</ele>
        <time>2018-09-15T09:20:37Z</time>
      </trkpt>
      <trkpt lat="45.92159" lon="4.87708">
        <ele>284</ele>
        <time>2018-09-15T09:20:38Z</time>
      </trkpt>
      <trkpt lat="45.92161" lon="4.8772">
        <ele>285</ele>
        <time>2018-09-15T09:20:41Z</time>
      </trkpt>
      <trkpt lat="45.92162" lon="4.87729">
        <ele>285</ele>
        <time>2018-09-15T09:20:42Z</time>
      </trkpt>
      <trkpt lat="45.92163" lon="4.87738">
        <ele>285</ele>
        <time>2018-09-15T09:20:45Z</time>
      </trkpt>
      <trkpt lat="45.92163" lon="4.87748">
        <ele>286</ele>
        <time>2018-09-15T09:20:46Z</time>
      </trkpt>
      <trkpt lat="45.92164" lon="4.87759">
        <ele>287</ele>
        <time>2018-09-15T09:20:48Z</time>
      </trkpt>
      <trkpt lat="45.92165" lon="4.87765">
        <ele>287</ele>
        <time>2018-09-15T09:20:49Z</time>
      </trkpt>
      <trkpt lat="45.92168" lon="4.87773">
        <ele>286</ele>
        <time>2018-09-15T09:20:51Z</time>
      </trkpt>
      <trkpt lat="45.92169" lon="4.8778">
        <ele>287</ele>
        <time>2018-09-15T09:20:52Z</time>
      </trkpt>
      <trkpt lat="45.92169" lon="4.87792">
        <ele>287</ele>
        <time>2018-09-15T09:20:54Z</time>
      </trkpt>
      <trkpt lat="45.9217" lon="4.87798">
        <ele>287</ele>
        <time>2018-09-15T09:20:55Z</time>
      </trkpt>
      <trkpt lat="45.92171" lon="4.87809">
        <ele>288</ele>
        <time>2018-09-15T09:20:58Z</time>
      </trkpt>
      <trkpt lat="45.92171" lon="4.87818">
        <ele>288</ele>
        <time>2018-09-15T09:20:59Z</time>
      </trkpt>
      <trkpt lat="45.92173" lon="4.87829">
        <ele>289</ele>
        <time>2018-09-15T09:21:02Z</time>
      </trkpt>
      <trkpt lat="45.92174" lon="4.87838">
        <ele>290</ele>
        <time>2018-09-15T09:21:03Z</time>
      </trkpt>
      <trkpt lat="45.92175" lon="4.8785">
        <ele>290</ele>
        <time>2018-09-15T09:21:07Z</time>
      </trkpt>
      <trkpt lat="45.92175" lon="4.87854">
        <ele>290</ele>
        <time>2018-09-15T09:21:08Z</time>
      </trkpt>
      <trkpt lat="45.92175" lon="4.87858">
        <ele>290</ele>
        <time>2018-09-15T09:21:09Z</time>
      </trkpt>
      <trkpt lat="45.92176" lon="4.87871">
        <ele>290</ele>
        <time>2018-09-15T09:21:10Z</time>
      </trkpt>
      <trkpt lat="45.92177" lon="4.87876">
        <ele>290</ele>
        <time>2018-09-15T09:21:12Z</time>
      </trkpt>
      <trkpt lat="45.92178" lon="4.87885">
        <ele>290</ele>
        <time>2018-09-15T09:21:13Z</time>
      </trkpt>
      <trkpt lat="45.92178" lon="4.87895">
        <ele>291</ele>
        <time>2018-09-15T09:21:16Z</time>
      </trkpt>
      <trkpt lat="45.92178" lon="4.87906">
        <ele>291</ele>
        <time>2018-09-15T09:21:17Z</time>
      </trkpt>
      <trkpt lat="45.92178" lon="4.87916">
        <ele>291</ele>
        <time>2018-09-15T09:21:20Z</time>
      </trkpt>
      <trkpt lat="45.92178" lon="4.8792">
        <ele>292</ele>
        <time>2018-09-15T09:21:21Z</time>
      </trkpt>
      <trkpt lat="45.92178" lon="4.87929">
        <ele>292</ele>
        <time>2018-09-15T09:21:23Z</time>
      </trkpt>
      <trkpt lat="45.92179" lon="4.87942">
        <ele>292</ele>
        <time>2018-09-15T09:21:24Z</time>
      </trkpt>
      <trkpt lat="45.92179" lon="4.87953">
        <ele>293</ele>
        <time>2018-09-15T09:21:26Z</time>
      </trkpt>
      <trkpt lat="45.92178" lon="4.87958">
        <ele>293</ele>
        <time>2018-09-15T09:21:27Z</time>
      </trkpt>
      <trkpt lat="45.92178" lon="4.87969">
        <ele>293</ele>
        <time>2018-09-15T09:21:29Z</time>
      </trkpt>
      <trkpt lat="45.92178" lon="4.87975">
        <ele>293</ele>
        <time>2018-09-15T09:21:30Z</time>
      </trkpt>
      <trkpt lat="45.92179" lon="4.87985">
        <ele>293</ele>
        <time>2018-09-15T09:21:32Z</time>
      </trkpt>
      <trkpt lat="45.92179" lon="4.8799">
        <ele>293</ele>
        <time>2018-09-15T09:21:33Z</time>
      </trkpt>
      <trkpt lat="45.92179" lon="4.88002">
        <ele>294</ele>
        <time>2018-09-15T09:21:36Z</time>
      </trkpt>
      <trkpt lat="45.92179" lon="4.88005">
        <ele>294</ele>
        <time>2018-09-15T09:21:37Z</time>
      </trkpt>
      <trkpt lat="45.92178" lon="4.88016">
        <ele>294</ele>
        <time>2018-09-15T09:21:40Z</time>
      </trkpt>
      <trkpt lat="45.92178" lon="4.8802">
        <ele>294</ele>
        <time>2018-09-15T09:21:41Z</time>
      </trkpt>
      <trkpt lat="45.92178" lon="4.88034">
        <ele>294</ele>
        <time>2018-09-15T09:21:42Z</time>
      </trkpt>
      <trkpt lat="45.92178" lon="4.8804">
        <ele>294</ele>
        <time>2018-09-15T09:21:43Z</time>
      </trkpt>
      <trkpt lat="45.92178" lon="4.88047">
        <ele>293</ele>
        <time>2018-09-15T09:21:44Z</time>
      </trkpt>
      <trkpt lat="45.92177" lon="4.88059">
        <ele>293</ele>
        <time>2018-09-15T09:21:46Z</time>
      </trkpt>
      <trkpt lat="45.92177" lon="4.88068">
        <ele>293</ele>
        <time>2018-09-15T09:21:47Z</time>
      </trkpt>
      <trkpt lat="45.92178" lon="4.88075">
        <ele>293</ele>
        <time>2018-09-15T09:21:48Z</time>
      </trkpt>
      <trkpt lat="45.92176" lon="4.88082">
        <ele>293</ele>
        <time>2018-09-15T09:21:49Z</time>
      </trkpt>
      <trkpt lat="45.92174" lon="4.88094">
        <ele>293</ele>
        <time>2018-09-15T09:21:51Z</time>
      </trkpt>
      <trkpt lat="45.92174" lon="4.881">
        <ele>293</ele>
        <time>2018-09-15T09:21:52Z</time>
      </trkpt>
      <trkpt lat="45.92172" lon="4.88109">
        <ele>293</ele>
        <time>2018-09-15T09:21:53Z</time>
      </trkpt>
      <trkpt lat="45.92172" lon="4.88115">
        <ele>293</ele>
        <time>2018-09-15T09:21:54Z</time>
      </trkpt>
      <trkpt lat="45.92171" lon="4.88121">
        <ele>293</ele>
        <time>2018-09-15T09:21:55Z</time>
      </trkpt>
      <trkpt lat="45.92172" lon="4.88128">
        <ele>293</ele>
        <time>2018-09-15T09:21:56Z</time>
      </trkpt>
      <trkpt lat="45.9217" lon="4.88139">
        <ele>293</ele>
        <time>2018-09-15T09:21:58Z</time>
      </trkpt>
      <trkpt lat="45.9217" lon="4.88145">
        <ele>293</ele>
        <time>2018-09-15T09:21:59Z</time>
      </trkpt>
      <trkpt lat="45.92168" lon="4.88157">
        <ele>293</ele>
        <time>2018-09-15T09:22:02Z</time>
      </trkpt>
      <trkpt lat="45.92166" lon="4.88165">
        <ele>293</ele>
        <time>2018-09-15T09:22:03Z</time>
      </trkpt>
      <trkpt lat="45.92162" lon="4.88176">
        <ele>293</ele>
        <time>2018-09-15T09:22:08Z</time>
      </trkpt>
      <trkpt lat="45.92161" lon="4.88178">
        <ele>293</ele>
        <time>2018-09-15T09:22:09Z</time>
      </trkpt>
      <trkpt lat="45.92155" lon="4.88187">
        <ele>292</ele>
        <time>2018-09-15T09:22:23Z</time>
      </trkpt>
      <trkpt lat="45.92155" lon="4.8819">
        <ele>292</ele>
        <time>2018-09-15T09:22:24Z</time>
      </trkpt>
      <trkpt lat="45.92158" lon="4.88199">
        <ele>292</ele>
        <time>2018-09-15T09:22:27Z</time>
      </trkpt>
      <trkpt lat="45.92159" lon="4.88202">
        <ele>292</ele>
        <time>2018-09-15T09:22:28Z</time>
      </trkpt>
      <trkpt lat="45.92166" lon="4.88206">
        <ele>292</ele>
        <time>2018-09-15T09:22:31Z</time>
      </trkpt>
      <trkpt lat="45.92174" lon="4.88207">
        <ele>293</ele>
        <time>2018-09-15T09:22:32Z</time>
      </trkpt>
      <trkpt lat="45.92178" lon="4.88206">
        <ele>293</ele>
        <time>2018-09-15T09:22:34Z</time>
      </trkpt>
      <trkpt lat="45.92186" lon="4.88206">
        <ele>293</ele>
        <time>2018-09-15T09:22:35Z</time>
      </trkpt>
      <trkpt lat="45.92192" lon="4.88205">
        <ele>293</ele>
        <time>2018-09-15T09:22:36Z</time>
      </trkpt>
      <trkpt lat="45.92196" lon="4.88204">
        <ele>293</ele>
        <time>2018-09-15T09:22:37Z</time>
      </trkpt>
      <trkpt lat="45.922" lon="4.88204">
        <ele>293</ele>
        <time>2018-09-15T09:22:38Z</time>
      </trkpt>
      <trkpt lat="45.92205" lon="4.88205">
        <ele>293</ele>
        <time>2018-09-15T09:22:39Z</time>
      </trkpt>
      <trkpt lat="45.92212" lon="4.88206">
        <ele>293</ele>
        <time>2018-09-15T09:22:41Z</time>
      </trkpt>
      <trkpt lat="45.92217" lon="4.88207">
        <ele>293</ele>
        <time>2018-09-15T09:22:42Z</time>
      </trkpt>
      <trkpt lat="45.92221" lon="4.88206">
        <ele>293</ele>
        <time>2018-09-15T09:22:43Z</time>
      </trkpt>
      <trkpt lat="45.92227" lon="4.88206">
        <ele>294</ele>
        <time>2018-09-15T09:22:44Z</time>
      </trkpt>
      <trkpt lat="45.92235" lon="4.88207">
        <ele>294</ele>
        <time>2018-09-15T09:22:46Z</time>
      </trkpt>
      <trkpt lat="45.92237" lon="4.88207">
        <ele>294</ele>
        <time>2018-09-15T09:22:47Z</time>
      </trkpt>
      <trkpt lat="45.92243" lon="4.88207">
        <ele>294</ele>
        <time>2018-09-15T09:22:48Z</time>
      </trkpt>
      <trkpt lat="45.92247" lon="4.88207">
        <ele>294</ele>
        <time>2018-09-15T09:22:49Z</time>
      </trkpt>
      <trkpt lat="45.92252" lon="4.88206">
        <ele>294</ele>
        <time>2018-09-15T09:22:50Z</time>
      </trkpt>
      <trkpt lat="45.92257" lon="4.88205">
        <ele>294</ele>
        <time>2018-09-15T09:22:51Z</time>
      </trkpt>
      <trkpt lat="45.92261" lon="4.88203">
        <ele>294</ele>
        <time>2018-09-15T09:22:52Z</time>
      </trkpt>
      <trkpt lat="45.92266" lon="4.88202">
        <ele>294</ele>
        <time>2018-09-15T09:22:53Z</time>
      </trkpt>
      <trkpt lat="45.92272" lon="4.88201">
        <ele>294</ele>
        <time>2018-09-15T09:22:55Z</time>
      </trkpt>
      <trkpt lat="45.92276" lon="4.882">
        <ele>294</ele>
        <time>2018-09-15T09:22:56Z</time>
      </trkpt>
      <trkpt lat="45.92282" lon="4.882">
        <ele>294</ele>
        <time>2018-09-15T09:22:58Z</time>
      </trkpt>
      <trkpt lat="45.92286" lon="4.88201">
        <ele>294</ele>
        <time>2018-09-15T09:22:59Z</time>
      </trkpt>
      <trkpt lat="45.92294" lon="4.88202">
        <ele>294</ele>
        <time>2018-09-15T09:23:01Z</time>
      </trkpt>
      <trkpt lat="45.92298" lon="4.88201">
        <ele>294</ele>
        <time>2018-09-15T09:23:02Z</time>
      </trkpt>
      <trkpt lat="45.92306" lon="4.88202">
        <ele>294</ele>
        <time>2018-09-15T09:23:04Z</time>
      </trkpt>
      <trkpt lat="45.9231" lon="4.88204">
        <ele>294</ele>
        <time>2018-09-15T09:23:05Z</time>
      </trkpt>
      <trkpt lat="45.92318" lon="4.88205">
        <ele>293</ele>
        <time>2018-09-15T09:23:07Z</time>
      </trkpt>
      <trkpt lat="45.92323" lon="4.88203">
        <ele>293</ele>
        <time>2018-09-15T09:23:08Z</time>
      </trkpt>
      <trkpt lat="45.92328" lon="4.88208">
        <ele>293</ele>
        <time>2018-09-15T09:23:10Z</time>
      </trkpt>
      <trkpt lat="45.92332" lon="4.88209">
        <ele>293</ele>
        <time>2018-09-15T09:23:11Z</time>
      </trkpt>
      <trkpt lat="45.92341" lon="4.88207">
        <ele>292</ele>
        <time>2018-09-15T09:23:13Z</time>
      </trkpt>
      <trkpt lat="45.92343" lon="4.88206">
        <ele>292</ele>
        <time>2018-09-15T09:23:14Z</time>
      </trkpt>
      <trkpt lat="45.92348" lon="4.88205">
        <ele>292</ele>
        <time>2018-09-15T09:23:16Z</time>
      </trkpt>
      <trkpt lat="45.92357" lon="4.88204">
        <ele>292</ele>
        <time>2018-09-15T09:23:17Z</time>
      </trkpt>
      <trkpt lat="45.92361" lon="4.88203">
        <ele>292</ele>
        <time>2018-09-15T09:23:18Z</time>
      </trkpt>
      <trkpt lat="45.92366" lon="4.88202">
        <ele>292</ele>
        <time>2018-09-15T09:23:19Z</time>
      </trkpt>
      <trkpt lat="45.92371" lon="4.882">
        <ele>292</ele>
        <time>2018-09-15T09:23:20Z</time>
      </trkpt>
      <trkpt lat="45.92376" lon="4.88201">
        <ele>292</ele>
        <time>2018-09-15T09:23:21Z</time>
      </trkpt>
      <trkpt lat="45.92384" lon="4.88203">
        <ele>292</ele>
        <time>2018-09-15T09:23:23Z</time>
      </trkpt>
      <trkpt lat="45.92389" lon="4.88201">
        <ele>292</ele>
        <time>2018-09-15T09:23:24Z</time>
      </trkpt>
      <trkpt lat="45.92396" lon="4.882">
        <ele>292</ele>
        <time>2018-09-15T09:23:26Z</time>
      </trkpt>
      <trkpt lat="45.92401" lon="4.88201">
        <ele>292</ele>
        <time>2018-09-15T09:23:27Z</time>
      </trkpt>
      <trkpt lat="45.92409" lon="4.88202">
        <ele>292</ele>
        <time>2018-09-15T09:23:29Z</time>
      </trkpt>
      <trkpt lat="45.92414" lon="4.88202">
        <ele>291</ele>
        <time>2018-09-15T09:23:30Z</time>
      </trkpt>
      <trkpt lat="45.92418" lon="4.88202">
        <ele>291</ele>
        <time>2018-09-15T09:23:31Z</time>
      </trkpt>
      <trkpt lat="45.92423" lon="4.88202">
        <ele>291</ele>
        <time>2018-09-15T09:23:32Z</time>
      </trkpt>
      <trkpt lat="45.92428" lon="4.88203">
        <ele>291</ele>
        <time>2018-09-15T09:23:33Z</time>
      </trkpt>
      <trkpt lat="45.92434" lon="4.88201">
        <ele>291</ele>
        <time>2018-09-15T09:23:34Z</time>
      </trkpt>
      <trkpt lat="45.92438" lon="4.88202">
        <ele>291</ele>
        <time>2018-09-15T09:23:35Z</time>
      </trkpt>
      <trkpt lat="45.92443" lon="4.88203">
        <ele>291</ele>
        <time>2018-09-15T09:23:36Z</time>
      </trkpt>
      <trkpt lat="45.92451" lon="4.88202">
        <ele>291</ele>
        <time>2018-09-15T09:23:38Z</time>
      </trkpt>
      <trkpt lat="45.92455" lon="4.88204">
        <ele>291</ele>
        <time>2018-09-15T09:23:39Z</time>
      </trkpt>
      <trkpt lat="45.92463" lon="4.88205">
        <ele>291</ele>
        <time>2018-09-15T09:23:41Z</time>
      </trkpt>
      <trkpt lat="45.92467" lon="4.88206">
        <ele>291</ele>
        <time>2018-09-15T09:23:42Z</time>
      </trkpt>
      <trkpt lat="45.92475" lon="4.88208">
        <ele>291</ele>
        <time>2018-09-15T09:23:44Z</time>
      </trkpt>
      <trkpt lat="45.92478" lon="4.8821">
        <ele>291</ele>
        <time>2018-09-15T09:23:45Z</time>
      </trkpt>
      <trkpt lat="45.92486" lon="4.88214">
        <ele>291</ele>
        <time>2018-09-15T09:23:47Z</time>
      </trkpt>
      <trkpt lat="45.92491" lon="4.88215">
        <ele>291</ele>
        <time>2018-09-15T09:23:48Z</time>
      </trkpt>
      <trkpt lat="45.92496" lon="4.88214">
        <ele>291</ele>
        <time>2018-09-15T09:23:49Z</time>
      </trkpt>
      <trkpt lat="45.92501" lon="4.88213">
        <ele>291</ele>
        <time>2018-09-15T09:23:50Z</time>
      </trkpt>
      <trkpt lat="45.92509" lon="4.88214">
        <ele>291</ele>
        <time>2018-09-15T09:23:52Z</time>
      </trkpt>
      <trkpt lat="45.92515" lon="4.88213">
        <ele>291</ele>
        <time>2018-09-15T09:23:53Z</time>
      </trkpt>
      <trkpt lat="45.9252" lon="4.88213">
        <ele>291</ele>
        <time>2018-09-15T09:23:54Z</time>
      </trkpt>
      <trkpt lat="45.92526" lon="4.88213">
        <ele>291</ele>
        <time>2018-09-15T09:23:55Z</time>
      </trkpt>
      <trkpt lat="45.92531" lon="4.88213">
        <ele>291</ele>
        <time>2018-09-15T09:23:56Z</time>
      </trkpt>
      <trkpt lat="45.92536" lon="4.88212">
        <ele>291</ele>
        <time>2018-09-15T09:23:57Z</time>
      </trkpt>
      <trkpt lat="45.92541" lon="4.88212">
        <ele>291</ele>
        <time>2018-09-15T09:23:58Z</time>
      </trkpt>
      <trkpt lat="45.92546" lon="4.88211">
        <ele>291</ele>
        <time>2018-09-15T09:23:59Z</time>
      </trkpt>
      <trkpt lat="45.92554" lon="4.8821">
        <ele>291</ele>
        <time>2018-09-15T09:24:01Z</time>
      </trkpt>
      <trkpt lat="45.92559" lon="4.88209">
        <ele>291</ele>
        <time>2018-09-15T09:24:02Z</time>
      </trkpt>
      <trkpt lat="45.92564" lon="4.8821">
        <ele>291</ele>
        <time>2018-09-15T09:24:03Z</time>
      </trkpt>
      <trkpt lat="45.92569" lon="4.88209">
        <ele>291</ele>
        <time>2018-09-15T09:24:04Z</time>
      </trkpt>
      <trkpt lat="45.92573" lon="4.88208">
        <ele>291</ele>
        <time>2018-09-15T09:24:05Z</time>
      </trkpt>
      <trkpt lat="45.92578" lon="4.88207">
        <ele>291</ele>
        <time>2018-09-15T09:24:06Z</time>
      </trkpt>
      <trkpt lat="45.92583" lon="4.88207">
        <ele>291</ele>
        <time>2018-09-15T09:24:07Z</time>
      </trkpt>
      <trkpt lat="45.92587" lon="4.88206">
        <ele>291</ele>
        <time>2018-09-15T09:24:08Z</time>
      </trkpt>
      <trkpt lat="45.92592" lon="4.88206">
        <ele>291</ele>
        <time>2018-09-15T09:24:09Z</time>
      </trkpt>
      <trkpt lat="45.92597" lon="4.88206">
        <ele>291</ele>
        <time>2018-09-15T09:24:10Z</time>
      </trkpt>
      <trkpt lat="45.92602" lon="4.88206">
        <ele>291</ele>
        <time>2018-09-15T09:24:11Z</time>
      </trkpt>
      <trkpt lat="45.92606" lon="4.88208">
        <ele>291</ele>
        <time>2018-09-15T09:24:12Z</time>
      </trkpt>
      <trkpt lat="45.92612" lon="4.88207">
        <ele>291</ele>
        <time>2018-09-15T09:24:13Z</time>
      </trkpt>
      <trkpt lat="45.92616" lon="4.88208">
        <ele>291</ele>
        <time>2018-09-15T09:24:14Z</time>
      </trkpt>
      <trkpt lat="45.92622" lon="4.88208">
        <ele>291</ele>
        <time>2018-09-15T09:24:15Z</time>
      </trkpt>
      <trkpt lat="45.92627" lon="4.88209">
        <ele>292</ele>
        <time>2018-09-15T09:24:16Z</time>
      </trkpt>
      <trkpt lat="45.92635" lon="4.88209">
        <ele>292</ele>
        <time>2018-09-15T09:24:18Z</time>
      </trkpt>
      <trkpt lat="45.92639" lon="4.88209">
        <ele>292</ele>
        <time>2018-09-15T09:24:19Z</time>
      </trkpt>
      <trkpt lat="45.92648" lon="4.88208">
        <ele>292</ele>
        <time>2018-09-15T09:24:21Z</time>
      </trkpt>
      <trkpt lat="45.92652" lon="4.88209">
        <ele>292</ele>
        <time>2018-09-15T09:24:22Z</time>
      </trkpt>
      <trkpt lat="45.92659" lon="4.88208">
        <ele>292</ele>
        <time>2018-09-15T09:24:24Z</time>
      </trkpt>
      <trkpt lat="45.92665" lon="4.88206">
        <ele>292</ele>
        <time>2018-09-15T09:24:25Z</time>
      </trkpt>
      <trkpt lat="45.9267" lon="4.88206">
        <ele>292</ele>
        <time>2018-09-15T09:24:26Z</time>
      </trkpt>
      <trkpt lat="45.92675" lon="4.88206">
        <ele>292</ele>
        <time>2018-09-15T09:24:27Z</time>
      </trkpt>
      <trkpt lat="45.9268" lon="4.88206">
        <ele>292</ele>
        <time>2018-09-15T09:24:28Z</time>
      </trkpt>
      <trkpt lat="45.92684" lon="4.88207">
        <ele>292</ele>
        <time>2018-09-15T09:24:29Z</time>
      </trkpt>
      <trkpt lat="45.92692" lon="4.88206">
        <ele>292</ele>
        <time>2018-09-15T09:24:31Z</time>
      </trkpt>
      <trkpt lat="45.92696" lon="4.88206">
        <ele>292</ele>
        <time>2018-09-15T09:24:32Z</time>
      </trkpt>
      <trkpt lat="45.92705" lon="4.88206">
        <ele>292</ele>
        <time>2018-09-15T09:24:34Z</time>
      </trkpt>
      <trkpt lat="45.92709" lon="4.88206">
        <ele>292</ele>
        <time>2018-09-15T09:24:35Z</time>
      </trkpt>
      <trkpt lat="45.92714" lon="4.88207">
        <ele>292</ele>
        <time>2018-09-15T09:24:36Z</time>
      </trkpt>
      <trkpt lat="45.92719" lon="4.88208">
        <ele>292</ele>
        <time>2018-09-15T09:24:37Z</time>
      </trkpt>
      <trkpt lat="45.92723" lon="4.88207">
        <ele>292</ele>
        <time>2018-09-15T09:24:38Z</time>
      </trkpt>
      <trkpt lat="45.92728" lon="4.88207">
        <ele>292</ele>
        <time>2018-09-15T09:24:39Z</time>
      </trkpt>
      <trkpt lat="45.92736" lon="4.88208">
        <ele>292</ele>
        <time>2018-09-15T09:24:41Z</time>
      </trkpt>
      <trkpt lat="45.92739" lon="4.88208">
        <ele>292</ele>
        <time>2018-09-15T09:24:42Z</time>
      </trkpt>
      <trkpt lat="45.92747" lon="4.88206">
        <ele>292</ele>
        <time>2018-09-15T09:24:44Z</time>
      </trkpt>
      <trkpt lat="45.92751" lon="4.88204">
        <ele>292</ele>
        <time>2018-09-15T09:24:45Z</time>
      </trkpt>
      <trkpt lat="45.92759" lon="4.88204">
        <ele>292</ele>
        <time>2018-09-15T09:24:47Z</time>
      </trkpt>
      <trkpt lat="45.92764" lon="4.88204">
        <ele>292</ele>
        <time>2018-09-15T09:24:48Z</time>
      </trkpt>
      <trkpt lat="45.92772" lon="4.88205">
        <ele>292</ele>
        <time>2018-09-15T09:24:50Z</time>
      </trkpt>
      <trkpt lat="45.92777" lon="4.88206">
        <ele>292</ele>
        <time>2018-09-15T09:24:51Z</time>
      </trkpt>
      <trkpt lat="45.92785" lon="4.88206">
        <ele>292</ele>
        <time>2018-09-15T09:24:53Z</time>
      </trkpt>
      <trkpt lat="45.92789" lon="4.88206">
        <ele>292</ele>
        <time>2018-09-15T09:24:54Z</time>
      </trkpt>
      <trkpt lat="45.92796" lon="4.88208">
        <ele>292</ele>
        <time>2018-09-15T09:24:56Z</time>
      </trkpt>
      <trkpt lat="45.92799" lon="4.88208">
        <ele>292</ele>
        <time>2018-09-15T09:24:57Z</time>
      </trkpt>
      <trkpt lat="45.92807" lon="4.88209">
        <ele>292</ele>
        <time>2018-09-15T09:24:59Z</time>
      </trkpt>
      <trkpt lat="45.92812" lon="4.88209">
        <ele>292</ele>
        <time>2018-09-15T09:25:00Z</time>
      </trkpt>
      <trkpt lat="45.92817" lon="4.88209">
        <ele>292</ele>
        <time>2018-09-15T09:25:01Z</time>
      </trkpt>
      <trkpt lat="45.92822" lon="4.88207">
        <ele>292</ele>
        <time>2018-09-15T09:25:02Z</time>
      </trkpt>
      <trkpt lat="45.92827" lon="4.88208">
        <ele>292</ele>
        <time>2018-09-15T09:25:03Z</time>
      </trkpt>
      <trkpt lat="45.92833" lon="4.88208">
        <ele>292</ele>
        <time>2018-09-15T09:25:04Z</time>
      </trkpt>
      <trkpt lat="45.92837" lon="4.88208">
        <ele>291</ele>
        <time>2018-09-15T09:25:05Z</time>
      </trkpt>
      <trkpt lat="45.92841" lon="4.88208">
        <ele>291</ele>
        <time>2018-09-15T09:25:06Z</time>
      </trkpt>
      <trkpt lat="45.92849" lon="4.88208">
        <ele>291</ele>
        <time>2018-09-15T09:25:08Z</time>
      </trkpt>
      <trkpt lat="45.92854" lon="4.88208">
        <ele>291</ele>
        <time>2018-09-15T09:25:09Z</time>
      </trkpt>
      <trkpt lat="45.92862" lon="4.88208">
        <ele>291</ele>
        <time>2018-09-15T09:25:11Z</time>
      </trkpt>
      <trkpt lat="45.92867" lon="4.88208">
        <ele>291</ele>
        <time>2018-09-15T09:25:12Z</time>
      </trkpt>
      <trkpt lat="45.92876" lon="4.88208">
        <ele>291</ele>
        <time>2018-09-15T09:25:14Z</time>
      </trkpt>
      <trkpt lat="45.9288" lon="4.88207">
        <ele>291</ele>
        <time>2018-09-15T09:25:15Z</time>
      </trkpt>
      <trkpt lat="45.92884" lon="4.88207">
        <ele>291</ele>
        <time>2018-09-15T09:25:16Z</time>
      </trkpt>
      <trkpt lat="45.9289" lon="4.88207">
        <ele>291</ele>
        <time>2018-09-15T09:25:17Z</time>
      </trkpt>
      <trkpt lat="45.92895" lon="4.88207">
        <ele>291</ele>
        <time>2018-09-15T09:25:18Z</time>
      </trkpt>
      <trkpt lat="45.92901" lon="4.88207">
        <ele>291</ele>
        <time>2018-09-15T09:25:19Z</time>
      </trkpt>
      <trkpt lat="45.92905" lon="4.88208">
        <ele>291</ele>
        <time>2018-09-15T09:25:20Z</time>
      </trkpt>
      <trkpt lat="45.92911" lon="4.88207">
        <ele>291</ele>
        <time>2018-09-15T09:25:21Z</time>
      </trkpt>
      <trkpt lat="45.92916" lon="4.88208">
        <ele>291</ele>
        <time>2018-09-15T09:25:22Z</time>
      </trkpt>
      <trkpt lat="45.92921" lon="4.88208">
        <ele>291</ele>
        <time>2018-09-15T09:25:23Z</time>
      </trkpt>
      <trkpt lat="45.92929" lon="4.88208">
        <ele>291</ele>
        <time>2018-09-15T09:25:25Z</time>
      </trkpt>
      <trkpt lat="45.92934" lon="4.88208">
        <ele>291</ele>
        <time>2018-09-15T09:25:26Z</time>
      </trkpt>
      <trkpt lat="45.92939" lon="4.88208">
        <ele>291</ele>
        <time>2018-09-15T09:25:27Z</time>
      </trkpt>
      <trkpt lat="45.92944" lon="4.88208">
        <ele>291</ele>
        <time>2018-09-15T09:25:28Z</time>
      </trkpt>
      <trkpt lat="45.9295" lon="4.88208">
        <ele>291</ele>
        <time>2018-09-15T09:25:29Z</time>
      </trkpt>
      <trkpt lat="45.92955" lon="4.88208">
        <ele>291</ele>
        <time>2018-09-15T09:25:30Z</time>
      </trkpt>
      <trkpt lat="45.92961" lon="4.88207">
        <ele>291</ele>
        <time>2018-09-15T09:25:31Z</time>
      </trkpt>
      <trkpt lat="45.92966" lon="4.88207">
        <ele>291</ele>
        <time>2018-09-15T09:25:32Z</time>
      </trkpt>
      <trkpt lat="45.92972" lon="4.88207">
        <ele>291</ele>
        <time>2018-09-15T09:25:33Z</time>
      </trkpt>
      <trkpt lat="45.92977" lon="4.88208">
        <ele>291</ele>
        <time>2018-09-15T09:25:34Z</time>
      </trkpt>
      <trkpt lat="45.92982" lon="4.88209">
        <ele>291</ele>
        <time>2018-09-15T09:25:35Z</time>
      </trkpt>
      <trkpt lat="45.92987" lon="4.88208">
        <ele>291</ele>
        <time>2018-09-15T09:25:36Z</time>
      </trkpt>
      <trkpt lat="45.92993" lon="4.88208">
        <ele>291</ele>
        <time>2018-09-15T09:25:37Z</time>
      </trkpt>
      <trkpt lat="45.92999" lon="4.88207">
        <ele>291</ele>
        <time>2018-09-15T09:25:38Z</time>
      </trkpt>
      <trkpt lat="45.93004" lon="4.88208">
        <ele>291</ele>
        <time>2018-09-15T09:25:39Z</time>
      </trkpt>
      <trkpt lat="45.9301" lon="4.88208">
        <ele>291</ele>
        <time>2018-09-15T09:25:40Z</time>
      </trkpt>
      <trkpt lat="45.93015" lon="4.88208">
        <ele>291</ele>
        <time>2018-09-15T09:25:41Z</time>
      </trkpt>
      <trkpt lat="45.9302" lon="4.88208">
        <ele>291</ele>
        <time>2018-09-15T09:25:42Z</time>
      </trkpt>
      <trkpt lat="45.93028" lon="4.88209">
        <ele>291</ele>
        <time>2018-09-15T09:25:44Z</time>
      </trkpt>
      <trkpt lat="45.93032" lon="4.8821">
        <ele>291</ele>
        <time>2018-09-15T09:25:45Z</time>
      </trkpt>
      <trkpt lat="45.93037" lon="4.88211">
        <ele>291</ele>
        <time>2018-09-15T09:25:46Z</time>
      </trkpt>
      <trkpt lat="45.93042" lon="4.88208">
        <ele>292</ele>
        <time>2018-09-15T09:25:47Z</time>
      </trkpt>
      <trkpt lat="45.93047" lon="4.88208">
        <ele>292</ele>
        <time>2018-09-15T09:25:48Z</time>
      </trkpt>
      <trkpt lat="45.93052" lon="4.88208">
        <ele>292</ele>
        <time>2018-09-15T09:25:49Z</time>
      </trkpt>
      <trkpt lat="45.93058" lon="4.88209">
        <ele>292</ele>
        <time>2018-09-15T09:25:50Z</time>
      </trkpt>
      <trkpt lat="45.93063" lon="4.8821">
        <ele>292</ele>
        <time>2018-09-15T09:25:51Z</time>
      </trkpt>
      <trkpt lat="45.93069" lon="4.88208">
        <ele>292</ele>
        <time>2018-09-15T09:25:52Z</time>
      </trkpt>
      <trkpt lat="45.93074" lon="4.88208">
        <ele>292</ele>
        <time>2018-09-15T09:25:53Z</time>
      </trkpt>
      <trkpt lat="45.93079" lon="4.88208">
        <ele>292</ele>
        <time>2018-09-15T09:25:54Z</time>
      </trkpt>
      <trkpt lat="45.93084" lon="4.88208">
        <ele>292</ele>
        <time>2018-09-15T09:25:55Z</time>
      </trkpt>
      <trkpt lat="45.93089" lon="4.88208">
        <ele>292</ele>
        <time>2018-09-15T09:25:56Z</time>
      </trkpt>
      <trkpt lat="45.93093" lon="4.88209">
        <ele>292</ele>
        <time>2018-09-15T09:25:57Z</time>
      </trkpt>
      <trkpt lat="45.93101" lon="4.88211">
        <ele>292</ele>
        <time>2018-09-15T09:25:59Z</time>
      </trkpt>
      <trkpt lat="45.93106" lon="4.88211">
        <ele>292</ele>
        <time>2018-09-15T09:26:00Z</time>
      </trkpt>
      <trkpt lat="45.93111" lon="4.88209">
        <ele>292</ele>
        <time>2018-09-15T09:26:01Z</time>
      </trkpt>
      <trkpt lat="45.93115" lon="4.88212">
        <ele>292</ele>
        <time>2018-09-15T09:26:02Z</time>
      </trkpt>
      <trkpt lat="45.93123" lon="4.88213">
        <ele>292</ele>
        <time>2018-09-15T09:26:04Z</time>
      </trkpt>
      <trkpt lat="45.93127" lon="4.88214">
        <ele>292</ele>
        <time>2018-09-15T09:26:05Z</time>
      </trkpt>
      <trkpt lat="45.93135" lon="4.88216">
        <ele>292</ele>
        <time>2018-09-15T09:26:07Z</time>
      </trkpt>
      <trkpt lat="45.9314" lon="4.88215">
        <ele>292</ele>
        <time>2018-09-15T09:26:08Z</time>
      </trkpt>
      <trkpt lat="45.93147" lon="4.88216">
        <ele>292</ele>
        <time>2018-09-15T09:26:10Z</time>
      </trkpt>
      <trkpt lat="45.93151" lon="4.88213">
        <ele>292</ele>
        <time>2018-09-15T09:26:11Z</time>
      </trkpt>
      <trkpt lat="45.93155" lon="4.88213">
        <ele>292</ele>
        <time>2018-09-15T09:26:12Z</time>
      </trkpt>
      <trkpt lat="45.93161" lon="4.88213">
        <ele>292</ele>
        <time>2018-09-15T09:26:13Z</time>
      </trkpt>
      <trkpt lat="45.93166" lon="4.88214">
        <ele>292</ele>
        <time>2018-09-15T09:26:14Z</time>
      </trkpt>
      <trkpt lat="45.93171" lon="4.88214">
        <ele>291</ele>
        <time>2018-09-15T09:26:15Z</time>
      </trkpt>
      <trkpt lat="45.93176" lon="4.88214">
        <ele>291</ele>
        <time>2018-09-15T09:26:16Z</time>
      </trkpt>
      <trkpt lat="45.93181" lon="4.88214">
        <ele>291</ele>
        <time>2018-09-15T09:26:17Z</time>
      </trkpt>
      <trkpt lat="45.93189" lon="4.88214">
        <ele>291</ele>
        <time>2018-09-15T09:26:19Z</time>
      </trkpt>
      <trkpt lat="45.93193" lon="4.88216">
        <ele>291</ele>
        <time>2018-09-15T09:26:20Z</time>
      </trkpt>
      <trkpt lat="45.93202" lon="4.88215">
        <ele>291</ele>
        <time>2018-09-15T09:26:22Z</time>
      </trkpt>
      <trkpt lat="45.93205" lon="4.88214">
        <ele>291</ele>
        <time>2018-09-15T09:26:23Z</time>
      </trkpt>
      <trkpt lat="45.93214" lon="4.88213">
        <ele>291</ele>
        <time>2018-09-15T09:26:25Z</time>
      </trkpt>
      <trkpt lat="45.93219" lon="4.88212">
        <ele>291</ele>
        <time>2018-09-15T09:26:26Z</time>
      </trkpt>
      <trkpt lat="45.93227" lon="4.88212">
        <ele>291</ele>
        <time>2018-09-15T09:26:28Z</time>
      </trkpt>
      <trkpt lat="45.93232" lon="4.88212">
        <ele>291</ele>
        <time>2018-09-15T09:26:29Z</time>
      </trkpt>
      <trkpt lat="45.93239" lon="4.88212">
        <ele>291</ele>
        <time>2018-09-15T09:26:31Z</time>
      </trkpt>
      <trkpt lat="45.93242" lon="4.8821">
        <ele>291</ele>
        <time>2018-09-15T09:26:32Z</time>
      </trkpt>
      <trkpt lat="45.9325" lon="4.88211">
        <ele>291</ele>
        <time>2018-09-15T09:26:34Z</time>
      </trkpt>
      <trkpt lat="45.93255" lon="4.88209">
        <ele>290</ele>
        <time>2018-09-15T09:26:35Z</time>
      </trkpt>
      <trkpt lat="45.9326" lon="4.88209">
        <ele>290</ele>
        <time>2018-09-15T09:26:36Z</time>
      </trkpt>
      <trkpt lat="45.93266" lon="4.8821">
        <ele>290</ele>
        <time>2018-09-15T09:26:37Z</time>
      </trkpt>
      <trkpt lat="45.93273" lon="4.8821">
        <ele>290</ele>
        <time>2018-09-15T09:26:38Z</time>
      </trkpt>
      <trkpt lat="45.93277" lon="4.88211">
        <ele>290</ele>
        <time>2018-09-15T09:26:39Z</time>
      </trkpt>
      <trkpt lat="45.93282" lon="4.8821">
        <ele>290</ele>
        <time>2018-09-15T09:26:40Z</time>
      </trkpt>
      <trkpt lat="45.93287" lon="4.8821">
        <ele>290</ele>
        <time>2018-09-15T09:26:41Z</time>
      </trkpt>
      <trkpt lat="45.93295" lon="4.8821">
        <ele>290</ele>
        <time>2018-09-15T09:26:43Z</time>
      </trkpt>
      <trkpt lat="45.93297" lon="4.8821">
        <ele>290</ele>
        <time>2018-09-15T09:26:44Z</time>
      </trkpt>
      <trkpt lat="45.93304" lon="4.88211">
        <ele>290</ele>
        <time>2018-09-15T09:26:46Z</time>
      </trkpt>
      <trkpt lat="45.93308" lon="4.88212">
        <ele>290</ele>
        <time>2018-09-15T09:26:47Z</time>
      </trkpt>
      <trkpt lat="45.93314" lon="4.8821">
        <ele>290</ele>
        <time>2018-09-15T09:26:48Z</time>
      </trkpt>
      <trkpt lat="45.93318" lon="4.8821">
        <ele>290</ele>
        <time>2018-09-15T09:26:49Z</time>
      </trkpt>
      <trkpt lat="45.93323" lon="4.8821">
        <ele>290</ele>
        <time>2018-09-15T09:26:50Z</time>
      </trkpt>
      <trkpt lat="45.93327" lon="4.88209">
        <ele>290</ele>
        <time>2018-09-15T09:26:51Z</time>
      </trkpt>
      <trkpt lat="45.93332" lon="4.88209">
        <ele>290</ele>
        <time>2018-09-15T09:26:52Z</time>
      </trkpt>
      <trkpt lat="45.93338" lon="4.88209">
        <ele>290</ele>
        <time>2018-09-15T09:26:53Z</time>
      </trkpt>
      <trkpt lat="45.93343" lon="4.8821">
        <ele>290</ele>
        <time>2018-09-15T09:26:54Z</time>
      </trkpt>
      <trkpt lat="45.93348" lon="4.88208">
        <ele>290</ele>
        <time>2018-09-15T09:26:55Z</time>
      </trkpt>
      <trkpt lat="45.93353" lon="4.88207">
        <ele>290</ele>
        <time>2018-09-15T09:26:56Z</time>
      </trkpt>
      <trkpt lat="45.93358" lon="4.88208">
        <ele>290</ele>
        <time>2018-09-15T09:26:57Z</time>
      </trkpt>
      <trkpt lat="45.93362" lon="4.88209">
        <ele>290</ele>
        <time>2018-09-15T09:26:59Z</time>
      </trkpt>
      <trkpt lat="45.93368" lon="4.88209">
        <ele>290</ele>
        <time>2018-09-15T09:27:00Z</time>
      </trkpt>
      <trkpt lat="45.93376" lon="4.88209">
        <ele>290</ele>
        <time>2018-09-15T09:27:02Z</time>
      </trkpt>
      <trkpt lat="45.93379" lon="4.88209">
        <ele>290</ele>
        <time>2018-09-15T09:27:03Z</time>
      </trkpt>
      <trkpt lat="45.93387" lon="4.8821">
        <ele>290</ele>
        <time>2018-09-15T09:27:05Z</time>
      </trkpt>
      <trkpt lat="45.93389" lon="4.88213">
        <ele>290</ele>
        <time>2018-09-15T09:27:06Z</time>
      </trkpt>
      <trkpt lat="45.93393" lon="4.88213">
        <ele>290</ele>
        <time>2018-09-15T09:27:07Z</time>
      </trkpt>
      <trkpt lat="45.93398" lon="4.88213">
        <ele>290</ele>
        <time>2018-09-15T09:27:08Z</time>
      </trkpt>
      <trkpt lat="45.93406" lon="4.88214">
        <ele>290</ele>
        <time>2018-09-15T09:27:10Z</time>
      </trkpt>
      <trkpt lat="45.93411" lon="4.88216">
        <ele>289</ele>
        <time>2018-09-15T09:27:11Z</time>
      </trkpt>
      <trkpt lat="45.93416" lon="4.88216">
        <ele>289</ele>
        <time>2018-09-15T09:27:12Z</time>
      </trkpt>
      <trkpt lat="45.93421" lon="4.88217">
        <ele>289</ele>
        <time>2018-09-15T09:27:13Z</time>
      </trkpt>
      <trkpt lat="45.93426" lon="4.88216">
        <ele>289</ele>
        <time>2018-09-15T09:27:14Z</time>
      </trkpt>
      <trkpt lat="45.93431" lon="4.88216">
        <ele>289</ele>
        <time>2018-09-15T09:27:15Z</time>
      </trkpt>
      <trkpt lat="45.93435" lon="4.88218">
        <ele>289</ele>
        <time>2018-09-15T09:27:16Z</time>
      </trkpt>
      <trkpt lat="45.9344" lon="4.88219">
        <ele>289</ele>
        <time>2018-09-15T09:27:17Z</time>
      </trkpt>
      <trkpt lat="45.93448" lon="4.88222">
        <ele>289</ele>
        <time>2018-09-15T09:27:19Z</time>
      </trkpt>
      <trkpt lat="45.93452" lon="4.88223">
        <ele>289</ele>
        <time>2018-09-15T09:27:20Z</time>
      </trkpt>
      <trkpt lat="45.93457" lon="4.88224">
        <ele>289</ele>
        <time>2018-09-15T09:27:21Z</time>
      </trkpt>
      <trkpt lat="45.93462" lon="4.88228">
        <ele>289</ele>
        <time>2018-09-15T09:27:22Z</time>
      </trkpt>
      <trkpt lat="45.93466" lon="4.88231">
        <ele>289</ele>
        <time>2018-09-15T09:27:23Z</time>
      </trkpt>
      <trkpt lat="45.9347" lon="4.88236">
        <ele>289</ele>
        <time>2018-09-15T09:27:24Z</time>
      </trkpt>
      <trkpt lat="45.93474" lon="4.8824">
        <ele>289</ele>
        <time>2018-09-15T09:27:25Z</time>
      </trkpt>
      <trkpt lat="45.93479" lon="4.88242">
        <ele>289</ele>
        <time>2018-09-15T09:27:26Z</time>
      </trkpt>
      <trkpt lat="45.93484" lon="4.88242">
        <ele>289</ele>
        <time>2018-09-15T09:27:27Z</time>
      </trkpt>
      <trkpt lat="45.93489" lon="4.88242">
        <ele>289</ele>
        <time>2018-09-15T09:27:28Z</time>
      </trkpt>
      <trkpt lat="45.93494" lon="4.88239">
        <ele>289</ele>
        <time>2018-09-15T09:27:29Z</time>
      </trkpt>
      <trkpt lat="45.93499" lon="4.88237">
        <ele>289</ele>
        <time>2018-09-15T09:27:30Z</time>
      </trkpt>
      <trkpt lat="45.93503" lon="4.88234">
        <ele>288</ele>
        <time>2018-09-15T09:27:31Z</time>
      </trkpt>
      <trkpt lat="45.93508" lon="4.88231">
        <ele>288</ele>
        <time>2018-09-15T09:27:32Z</time>
      </trkpt>
      <trkpt lat="45.93515" lon="4.88224">
        <ele>288</ele>
        <time>2018-09-15T09:27:34Z</time>
      </trkpt>
      <trkpt lat="45.93519" lon="4.88222">
        <ele>288</ele>
        <time>2018-09-15T09:27:35Z</time>
      </trkpt>
      <trkpt lat="45.93527" lon="4.8822">
        <ele>288</ele>
        <time>2018-09-15T09:27:37Z</time>
      </trkpt>
      <trkpt lat="45.93532" lon="4.88219">
        <ele>287</ele>
        <time>2018-09-15T09:27:38Z</time>
      </trkpt>
      <trkpt lat="45.93537" lon="4.88219">
        <ele>287</ele>
        <time>2018-09-15T09:27:39Z</time>
      </trkpt>
      <trkpt lat="45.93542" lon="4.8822">
        <ele>287</ele>
        <time>2018-09-15T09:27:40Z</time>
      </trkpt>
      <trkpt lat="45.93547" lon="4.88218">
        <ele>287</ele>
        <time>2018-09-15T09:27:41Z</time>
      </trkpt>
      <trkpt lat="45.93552" lon="4.88218">
        <ele>287</ele>
        <time>2018-09-15T09:27:42Z</time>
      </trkpt>
      <trkpt lat="45.93558" lon="4.88218">
        <ele>287</ele>
        <time>2018-09-15T09:27:43Z</time>
      </trkpt>
      <trkpt lat="45.93563" lon="4.88218">
        <ele>287</ele>
        <time>2018-09-15T09:27:44Z</time>
      </trkpt>
      <trkpt lat="45.93568" lon="4.88218">
        <ele>287</ele>
        <time>2018-09-15T09:27:45Z</time>
      </trkpt>
      <trkpt lat="45.93573" lon="4.88217">
        <ele>287</ele>
        <time>2018-09-15T09:27:46Z</time>
      </trkpt>
      <trkpt lat="45.93577" lon="4.88217">
        <ele>287</ele>
        <time>2018-09-15T09:27:47Z</time>
      </trkpt>
      <trkpt lat="45.93582" lon="4.88217">
        <ele>287</ele>
        <time>2018-09-15T09:27:48Z</time>
      </trkpt>
      <trkpt lat="45.93588" lon="4.88217">
        <ele>286</ele>
        <time>2018-09-15T09:27:49Z</time>
      </trkpt>
      <trkpt lat="45.93594" lon="4.88218">
        <ele>286</ele>
        <time>2018-09-15T09:27:50Z</time>
      </trkpt>
      <trkpt lat="45.93598" lon="4.88218">
        <ele>285</ele>
        <time>2018-09-15T09:27:51Z</time>
      </trkpt>
      <trkpt lat="45.93605" lon="4.88218">
        <ele>285</ele>
        <time>2018-09-15T09:27:52Z</time>
      </trkpt>
      <trkpt lat="45.9361" lon="4.88218">
        <ele>285</ele>
        <time>2018-09-15T09:27:53Z</time>
      </trkpt>
      <trkpt lat="45.93615" lon="4.88217">
        <ele>285</ele>
        <time>2018-09-15T09:27:54Z</time>
      </trkpt>
      <trkpt lat="45.93621" lon="4.88217">
        <ele>285</ele>
        <time>2018-09-15T09:27:55Z</time>
      </trkpt>
      <trkpt lat="45.93627" lon="4.88218">
        <ele>285</ele>
        <time>2018-09-15T09:27:56Z</time>
      </trkpt>
      <trkpt lat="45.93633" lon="4.88217">
        <ele>285</ele>
        <time>2018-09-15T09:27:57Z</time>
      </trkpt>
      <trkpt lat="45.93639" lon="4.88217">
        <ele>285</ele>
        <time>2018-09-15T09:27:58Z</time>
      </trkpt>
      <trkpt lat="45.93646" lon="4.88217">
        <ele>285</ele>
        <time>2018-09-15T09:27:59Z</time>
      </trkpt>
      <trkpt lat="45.93652" lon="4.88215">
        <ele>285</ele>
        <time>2018-09-15T09:28:00Z</time>
      </trkpt>
      <trkpt lat="45.93658" lon="4.88215">
        <ele>285</ele>
        <time>2018-09-15T09:28:01Z</time>
      </trkpt>
      <trkpt lat="45.93664" lon="4.88214">
        <ele>285</ele>
        <time>2018-09-15T09:28:02Z</time>
      </trkpt>
      <trkpt lat="45.93668" lon="4.88215">
        <ele>285</ele>
        <time>2018-09-15T09:28:03Z</time>
      </trkpt>
      <trkpt lat="45.93673" lon="4.88215">
        <ele>285</ele>
        <time>2018-09-15T09:28:04Z</time>
      </trkpt>
      <trkpt lat="45.93682" lon="4.88216">
        <ele>285</ele>
        <time>2018-09-15T09:28:06Z</time>
      </trkpt>
      <trkpt lat="45.93687" lon="4.88216">
        <ele>285</ele>
        <time>2018-09-15T09:28:07Z</time>
      </trkpt>
      <trkpt lat="45.93696" lon="4.88216">
        <ele>285</ele>
        <time>2018-09-15T09:28:09Z</time>
      </trkpt>
      <trkpt lat="45.93701" lon="4.88214">
        <ele>285</ele>
        <time>2018-09-15T09:28:10Z</time>
      </trkpt>
      <trkpt lat="45.93709" lon="4.88214">
        <ele>285</ele>
        <time>2018-09-15T09:28:12Z</time>
      </trkpt>
      <trkpt lat="45.93713" lon="4.88214">
        <ele>285</ele>
        <time>2018-09-15T09:28:13Z</time>
      </trkpt>
      <trkpt lat="45.93722" lon="4.88215">
        <ele>286</ele>
        <time>2018-09-15T09:28:15Z</time>
      </trkpt>
      <trkpt lat="45.93726" lon="4.88215">
        <ele>286</ele>
        <time>2018-09-15T09:28:16Z</time>
      </trkpt>
      <trkpt lat="45.93733" lon="4.88216">
        <ele>286</ele>
        <time>2018-09-15T09:28:18Z</time>
      </trkpt>
      <trkpt lat="45.93738" lon="4.88215">
        <ele>286</ele>
        <time>2018-09-15T09:28:19Z</time>
      </trkpt>
      <trkpt lat="45.93742" lon="4.88215">
        <ele>286</ele>
        <time>2018-09-15T09:28:20Z</time>
      </trkpt>
      <trkpt lat="45.93749" lon="4.88215">
        <ele>286</ele>
        <time>2018-09-15T09:28:21Z</time>
      </trkpt>
      <trkpt lat="45.93754" lon="4.88214">
        <ele>287</ele>
        <time>2018-09-15T09:28:22Z</time>
      </trkpt>
      <trkpt lat="45.93759" lon="4.88215">
        <ele>287</ele>
        <time>2018-09-15T09:28:23Z</time>
      </trkpt>
      <trkpt lat="45.93765" lon="4.88216">
        <ele>287</ele>
        <time>2018-09-15T09:28:24Z</time>
      </trkpt>
      <trkpt lat="45.93771" lon="4.88216">
        <ele>287</ele>
        <time>2018-09-15T09:28:25Z</time>
      </trkpt>
      <trkpt lat="45.93777" lon="4.88216">
        <ele>287</ele>
        <time>2018-09-15T09:28:26Z</time>
      </trkpt>
      <trkpt lat="45.93783" lon="4.88216">
        <ele>287</ele>
        <time>2018-09-15T09:28:27Z</time>
      </trkpt>
      <trkpt lat="45.93789" lon="4.88216">
        <ele>287</ele>
        <time>2018-09-15T09:28:28Z</time>
      </trkpt>
      <trkpt lat="45.93794" lon="4.88216">
        <ele>288</ele>
        <time>2018-09-15T09:28:29Z</time>
      </trkpt>
      <trkpt lat="45.93802" lon="4.88217">
        <ele>288</ele>
        <time>2018-09-15T09:28:31Z</time>
      </trkpt>
      <trkpt lat="45.93806" lon="4.88218">
        <ele>288</ele>
        <time>2018-09-15T09:28:32Z</time>
      </trkpt>
      <trkpt lat="45.93814" lon="4.88218">
        <ele>288</ele>
        <time>2018-09-15T09:28:34Z</time>
      </trkpt>
      <trkpt lat="45.93818" lon="4.88219">
        <ele>288</ele>
        <time>2018-09-15T09:28:35Z</time>
      </trkpt>
      <trkpt lat="45.93826" lon="4.8822">
        <ele>288</ele>
        <time>2018-09-15T09:28:37Z</time>
      </trkpt>
      <trkpt lat="45.93831" lon="4.88219">
        <ele>288</ele>
        <time>2018-09-15T09:28:38Z</time>
      </trkpt>
      <trkpt lat="45.93835" lon="4.88218">
        <ele>289</ele>
        <time>2018-09-15T09:28:39Z</time>
      </trkpt>
      <trkpt lat="45.9384" lon="4.88219">
        <ele>289</ele>
        <time>2018-09-15T09:28:40Z</time>
      </trkpt>
      <trkpt lat="45.93846" lon="4.88218">
        <ele>289</ele>
        <time>2018-09-15T09:28:41Z</time>
      </trkpt>
      <trkpt lat="45.93851" lon="4.88218">
        <ele>289</ele>
        <time>2018-09-15T09:28:42Z</time>
      </trkpt>
      <trkpt lat="45.93857" lon="4.88219">
        <ele>289</ele>
        <time>2018-09-15T09:28:43Z</time>
      </trkpt>
      <trkpt lat="45.93863" lon="4.88218">
        <ele>289</ele>
        <time>2018-09-15T09:28:44Z</time>
      </trkpt>
      <trkpt lat="45.93868" lon="4.88218">
        <ele>289</ele>
        <time>2018-09-15T09:28:45Z</time>
      </trkpt>
      <trkpt lat="45.93874" lon="4.8822">
        <ele>289</ele>
        <time>2018-09-15T09:28:46Z</time>
      </trkpt>
      <trkpt lat="45.93879" lon="4.8822">
        <ele>289</ele>
        <time>2018-09-15T09:28:47Z</time>
      </trkpt>
      <trkpt lat="45.93884" lon="4.8822">
        <ele>289</ele>
        <time>2018-09-15T09:28:48Z</time>
      </trkpt>
      <trkpt lat="45.93889" lon="4.88221">
        <ele>289</ele>
        <time>2018-09-15T09:28:49Z</time>
      </trkpt>
      <trkpt lat="45.93894" lon="4.8822">
        <ele>289</ele>
        <time>2018-09-15T09:28:50Z</time>
      </trkpt>
      <trkpt lat="45.939" lon="4.88222">
        <ele>289</ele>
        <time>2018-09-15T09:28:51Z</time>
      </trkpt>
      <trkpt lat="45.93905" lon="4.88223">
        <ele>289</ele>
        <time>2018-09-15T09:28:52Z</time>
      </trkpt>
      <trkpt lat="45.93911" lon="4.88225">
        <ele>289</ele>
        <time>2018-09-15T09:28:54Z</time>
      </trkpt>
      <trkpt lat="45.93917" lon="4.88226">
        <ele>288</ele>
        <time>2018-09-15T09:28:55Z</time>
      </trkpt>
      <trkpt lat="45.93924" lon="4.88226">
        <ele>288</ele>
        <time>2018-09-15T09:28:57Z</time>
      </trkpt>
      <trkpt lat="45.93928" lon="4.88224">
        <ele>288</ele>
        <time>2018-09-15T09:28:58Z</time>
      </trkpt>
      <trkpt lat="45.93934" lon="4.88224">
        <ele>288</ele>
        <time>2018-09-15T09:28:59Z</time>
      </trkpt>
      <trkpt lat="45.93938" lon="4.88225">
        <ele>287</ele>
        <time>2018-09-15T09:29:00Z</time>
      </trkpt>
      <trkpt lat="45.93944" lon="4.88223">
        <ele>287</ele>
        <time>2018-09-15T09:29:01Z</time>
      </trkpt>
      <trkpt lat="45.93951" lon="4.88223">
        <ele>287</ele>
        <time>2018-09-15T09:29:02Z</time>
      </trkpt>
      <trkpt lat="45.93957" lon="4.88223">
        <ele>287</ele>
        <time>2018-09-15T09:29:03Z</time>
      </trkpt>
      <trkpt lat="45.93963" lon="4.88224">
        <ele>286</ele>
        <time>2018-09-15T09:29:04Z</time>
      </trkpt>
      <trkpt lat="45.93967" lon="4.88225">
        <ele>286</ele>
        <time>2018-09-15T09:29:05Z</time>
      </trkpt>
      <trkpt lat="45.93973" lon="4.88224">
        <ele>286</ele>
        <time>2018-09-15T09:29:06Z</time>
      </trkpt>
      <trkpt lat="45.93978" lon="4.88224">
        <ele>286</ele>
        <time>2018-09-15T09:29:07Z</time>
      </trkpt>
      <trkpt lat="45.93983" lon="4.88223">
        <ele>286</ele>
        <time>2018-09-15T09:29:08Z</time>
      </trkpt>
      <trkpt lat="45.93988" lon="4.88223">
        <ele>286</ele>
        <time>2018-09-15T09:29:09Z</time>
      </trkpt>
      <trkpt lat="45.93993" lon="4.88224">
        <ele>286</ele>
        <time>2018-09-15T09:29:10Z</time>
      </trkpt>
      <trkpt lat="45.93998" lon="4.88223">
        <ele>286</ele>
        <time>2018-09-15T09:29:11Z</time>
      </trkpt>
      <trkpt lat="45.94002" lon="4.88223">
        <ele>284</ele>
        <time>2018-09-15T09:29:12Z</time>
      </trkpt>
      <trkpt lat="45.94007" lon="4.88224">
        <ele>284</ele>
        <time>2018-09-15T09:29:13Z</time>
      </trkpt>
      <trkpt lat="45.94013" lon="4.88223">
        <ele>284</ele>
        <time>2018-09-15T09:29:14Z</time>
      </trkpt>
      <trkpt lat="45.94019" lon="4.88224">
        <ele>284</ele>
        <time>2018-09-15T09:29:15Z</time>
      </trkpt>
      <trkpt lat="45.94024" lon="4.88225">
        <ele>283</ele>
        <time>2018-09-15T09:29:16Z</time>
      </trkpt>
      <trkpt lat="45.94029" lon="4.88226">
        <ele>283</ele>
        <time>2018-09-15T09:29:17Z</time>
      </trkpt>
      <trkpt lat="45.94035" lon="4.88227">
        <ele>283</ele>
        <time>2018-09-15T09:29:18Z</time>
      </trkpt>
      <trkpt lat="45.9404" lon="4.88228">
        <ele>283</ele>
        <time>2018-09-15T09:29:19Z</time>
      </trkpt>
      <trkpt lat="45.94046" lon="4.88229">
        <ele>283</ele>
        <time>2018-09-15T09:29:20Z</time>
      </trkpt>
      <trkpt lat="45.94051" lon="4.8823">
        <ele>283</ele>
        <time>2018-09-15T09:29:21Z</time>
      </trkpt>
      <trkpt lat="45.94055" lon="4.8823">
        <ele>283</ele>
        <time>2018-09-15T09:29:22Z</time>
      </trkpt>
      <trkpt lat="45.94061" lon="4.8823">
        <ele>282</ele>
        <time>2018-09-15T09:29:23Z</time>
      </trkpt>
      <trkpt lat="45.94066" lon="4.88231">
        <ele>282</ele>
        <time>2018-09-15T09:29:24Z</time>
      </trkpt>
      <trkpt lat="45.94072" lon="4.88231">
        <ele>282</ele>
        <time>2018-09-15T09:29:25Z</time>
      </trkpt>
      <trkpt lat="45.94077" lon="4.88231">
        <ele>282</ele>
        <time>2018-09-15T09:29:26Z</time>
      </trkpt>
      <trkpt lat="45.94081" lon="4.88232">
        <ele>282</ele>
        <time>2018-09-15T09:29:27Z</time>
      </trkpt>
      <trkpt lat="45.94087" lon="4.88233">
        <ele>281</ele>
        <time>2018-09-15T09:29:28Z</time>
      </trkpt>
      <trkpt lat="45.94091" lon="4.88234">
        <ele>281</ele>
        <time>2018-09-15T09:29:29Z</time>
      </trkpt>
      <trkpt lat="45.94096" lon="4.88233">
        <ele>281</ele>
        <time>2018-09-15T09:29:30Z</time>
      </trkpt>
      <trkpt lat="45.94101" lon="4.88233">
        <ele>281</ele>
        <time>2018-09-15T09:29:31Z</time>
      </trkpt>
      <trkpt lat="45.94106" lon="4.88233">
        <ele>280</ele>
        <time>2018-09-15T09:29:32Z</time>
      </trkpt>
      <trkpt lat="45.94114" lon="4.88235">
        <ele>280</ele>
        <time>2018-09-15T09:29:34Z</time>
      </trkpt>
      <trkpt lat="45.94119" lon="4.88236">
        <ele>280</ele>
        <time>2018-09-15T09:29:35Z</time>
      </trkpt>
      <trkpt lat="45.94124" lon="4.88235">
        <ele>280</ele>
        <time>2018-09-15T09:29:36Z</time>
      </trkpt>
      <trkpt lat="45.94129" lon="4.88236">
        <ele>280</ele>
        <time>2018-09-15T09:29:37Z</time>
      </trkpt>
      <trkpt lat="45.94134" lon="4.88237">
        <ele>280</ele>
        <time>2018-09-15T09:29:38Z</time>
      </trkpt>
      <trkpt lat="45.9414" lon="4.88238">
        <ele>280</ele>
        <time>2018-09-15T09:29:39Z</time>
      </trkpt>
      <trkpt lat="45.94146" lon="4.88239">
        <ele>280</ele>
        <time>2018-09-15T09:29:40Z</time>
      </trkpt>
      <trkpt lat="45.94152" lon="4.8824">
        <ele>279</ele>
        <time>2018-09-15T09:29:41Z</time>
      </trkpt>
      <trkpt lat="45.94158" lon="4.8824">
        <ele>279</ele>
        <time>2018-09-15T09:29:42Z</time>
      </trkpt>
      <trkpt lat="45.94164" lon="4.88243">
        <ele>279</ele>
        <time>2018-09-15T09:29:43Z</time>
      </trkpt>
      <trkpt lat="45.94169" lon="4.88244">
        <ele>279</ele>
        <time>2018-09-15T09:29:44Z</time>
      </trkpt>
      <trkpt lat="45.94174" lon="4.88245">
        <ele>279</ele>
        <time>2018-09-15T09:29:45Z</time>
      </trkpt>
      <trkpt lat="45.94179" lon="4.88245">
        <ele>279</ele>
        <time>2018-09-15T09:29:46Z</time>
      </trkpt>
      <trkpt lat="45.94184" lon="4.88246">
        <ele>278</ele>
        <time>2018-09-15T09:29:47Z</time>
      </trkpt>
      <trkpt lat="45.9419" lon="4.88247">
        <ele>278</ele>
        <time>2018-09-15T09:29:48Z</time>
      </trkpt>
      <trkpt lat="45.94195" lon="4.88247">
        <ele>278</ele>
        <time>2018-09-15T09:29:49Z</time>
      </trkpt>
      <trkpt lat="45.94201" lon="4.88248">
        <ele>278</ele>
        <time>2018-09-15T09:29:50Z</time>
      </trkpt>
      <trkpt lat="45.94206" lon="4.88249">
        <ele>278</ele>
        <time>2018-09-15T09:29:51Z</time>
      </trkpt>
      <trkpt lat="45.94211" lon="4.8825">
        <ele>279</ele>
        <time>2018-09-15T09:29:52Z</time>
      </trkpt>
      <trkpt lat="45.94216" lon="4.88252">
        <ele>279</ele>
        <time>2018-09-15T09:29:53Z</time>
      </trkpt>
      <trkpt lat="45.94221" lon="4.88252">
        <ele>279</ele>
        <time>2018-09-15T09:29:54Z</time>
      </trkpt>
      <trkpt lat="45.94226" lon="4.88252">
        <ele>279</ele>
        <time>2018-09-15T09:29:55Z</time>
      </trkpt>
      <trkpt lat="45.94231" lon="4.88253">
        <ele>279</ele>
        <time>2018-09-15T09:29:56Z</time>
      </trkpt>
      <trkpt lat="45.94235" lon="4.88255">
        <ele>279</ele>
        <time>2018-09-15T09:29:57Z</time>
      </trkpt>
      <trkpt lat="45.9424" lon="4.88257">
        <ele>278</ele>
        <time>2018-09-15T09:29:58Z</time>
      </trkpt>
      <trkpt lat="45.94246" lon="4.88258">
        <ele>278</ele>
        <time>2018-09-15T09:29:59Z</time>
      </trkpt>
      <trkpt lat="45.94252" lon="4.88259">
        <ele>278</ele>
        <time>2018-09-15T09:30:00Z</time>
      </trkpt>
      <trkpt lat="45.94257" lon="4.88259">
        <ele>278</ele>
        <time>2018-09-15T09:30:01Z</time>
      </trkpt>
      <trkpt lat="45.94263" lon="4.88259">
        <ele>278</ele>
        <time>2018-09-15T09:30:02Z</time>
      </trkpt>
      <trkpt lat="45.94268" lon="4.8826">
        <ele>278</ele>
        <time>2018-09-15T09:30:03Z</time>
      </trkpt>
      <trkpt lat="45.94276" lon="4.88262">
        <ele>278</ele>
        <time>2018-09-15T09:30:05Z</time>
      </trkpt>
      <trkpt lat="45.9428" lon="4.88263">
        <ele>278</ele>
        <time>2018-09-15T09:30:06Z</time>
      </trkpt>
      <trkpt lat="45.94287" lon="4.88263">
        <ele>277</ele>
        <time>2018-09-15T09:30:08Z</time>
      </trkpt>
      <trkpt lat="45.94293" lon="4.88265">
        <ele>277</ele>
        <time>2018-09-15T09:30:09Z</time>
      </trkpt>
      <trkpt lat="45.94297" lon="4.88265">
        <ele>277</ele>
        <time>2018-09-15T09:30:10Z</time>
      </trkpt>
      <trkpt lat="45.94303" lon="4.88266">
        <ele>277</ele>
        <time>2018-09-15T09:30:11Z</time>
      </trkpt>
      <trkpt lat="45.94308" lon="4.88267">
        <ele>277</ele>
        <time>2018-09-15T09:30:12Z</time>
      </trkpt>
      <trkpt lat="45.94313" lon="4.88266">
        <ele>277</ele>
        <time>2018-09-15T09:30:13Z</time>
      </trkpt>
      <trkpt lat="45.94319" lon="4.88266">
        <ele>277</ele>
        <time>2018-09-15T09:30:14Z</time>
      </trkpt>
      <trkpt lat="45.94325" lon="4.88267">
        <ele>277</ele>
        <time>2018-09-15T09:30:15Z</time>
      </trkpt>
      <trkpt lat="45.9433" lon="4.88269">
        <ele>277</ele>
        <time>2018-09-15T09:30:16Z</time>
      </trkpt>
      <trkpt lat="45.94335" lon="4.8827">
        <ele>276</ele>
        <time>2018-09-15T09:30:17Z</time>
      </trkpt>
      <trkpt lat="45.9434" lon="4.8827">
        <ele>276</ele>
        <time>2018-09-15T09:30:18Z</time>
      </trkpt>
      <trkpt lat="45.94345" lon="4.88271">
        <ele>276</ele>
        <time>2018-09-15T09:30:19Z</time>
      </trkpt>
      <trkpt lat="45.94354" lon="4.88272">
        <ele>276</ele>
        <time>2018-09-15T09:30:21Z</time>
      </trkpt>
      <trkpt lat="45.94358" lon="4.88272">
        <ele>276</ele>
        <time>2018-09-15T09:30:22Z</time>
      </trkpt>
      <trkpt lat="45.94363" lon="4.88273">
        <ele>276</ele>
        <time>2018-09-15T09:30:23Z</time>
      </trkpt>
      <trkpt lat="45.94367" lon="4.88274">
        <ele>276</ele>
        <time>2018-09-15T09:30:24Z</time>
      </trkpt>
      <trkpt lat="45.94372" lon="4.88274">
        <ele>276</ele>
        <time>2018-09-15T09:30:25Z</time>
      </trkpt>
      <trkpt lat="45.94377" lon="4.88275">
        <ele>276</ele>
        <time>2018-09-15T09:30:26Z</time>
      </trkpt>
      <trkpt lat="45.94383" lon="4.88276">
        <ele>276</ele>
        <time>2018-09-15T09:30:27Z</time>
      </trkpt>
      <trkpt lat="45.94388" lon="4.88277">
        <ele>276</ele>
        <time>2018-09-15T09:30:28Z</time>
      </trkpt>
      <trkpt lat="45.94393" lon="4.88278">
        <ele>276</ele>
        <time>2018-09-15T09:30:29Z</time>
      </trkpt>
      <trkpt lat="45.94399" lon="4.88279">
        <ele>276</ele>
        <time>2018-09-15T09:30:30Z</time>
      </trkpt>
      <trkpt lat="45.94404" lon="4.88279">
        <ele>276</ele>
        <time>2018-09-15T09:30:31Z</time>
      </trkpt>
      <trkpt lat="45.94408" lon="4.88279">
        <ele>276</ele>
        <time>2018-09-15T09:30:32Z</time>
      </trkpt>
      <trkpt lat="45.94416" lon="4.8828">
        <ele>276</ele>
        <time>2018-09-15T09:30:34Z</time>
      </trkpt>
      <trkpt lat="45.9442" lon="4.8828">
        <ele>276</ele>
        <time>2018-09-15T09:30:35Z</time>
      </trkpt>
      <trkpt lat="45.94425" lon="4.88281">
        <ele>276</ele>
        <time>2018-09-15T09:30:36Z</time>
      </trkpt>
      <trkpt lat="45.9443" lon="4.88281">
        <ele>276</ele>
        <time>2018-09-15T09:30:37Z</time>
      </trkpt>
      <trkpt lat="45.94435" lon="4.88282">
        <ele>276</ele>
        <time>2018-09-15T09:30:38Z</time>
      </trkpt>
      <trkpt lat="45.9444" lon="4.88283">
        <ele>276</ele>
        <time>2018-09-15T09:30:39Z</time>
      </trkpt>
      <trkpt lat="45.94445" lon="4.88285">
        <ele>276</ele>
        <time>2018-09-15T09:30:40Z</time>
      </trkpt>
      <trkpt lat="45.94451" lon="4.88285">
        <ele>276</ele>
        <time>2018-09-15T09:30:41Z</time>
      </trkpt>
      <trkpt lat="45.94455" lon="4.88285">
        <ele>276</ele>
        <time>2018-09-15T09:30:42Z</time>
      </trkpt>
      <trkpt lat="45.9446" lon="4.88286">
        <ele>276</ele>
        <time>2018-09-15T09:30:43Z</time>
      </trkpt>
      <trkpt lat="45.94465" lon="4.88287">
        <ele>276</ele>
        <time>2018-09-15T09:30:44Z</time>
      </trkpt>
      <trkpt lat="45.94469" lon="4.88288">
        <ele>276</ele>
        <time>2018-09-15T09:30:45Z</time>
      </trkpt>
      <trkpt lat="45.94478" lon="4.8829">
        <ele>276</ele>
        <time>2018-09-15T09:30:47Z</time>
      </trkpt>
      <trkpt lat="45.94482" lon="4.88291">
        <ele>276</ele>
        <time>2018-09-15T09:30:48Z</time>
      </trkpt>
      <trkpt lat="45.94486" lon="4.88291">
        <ele>276</ele>
        <time>2018-09-15T09:30:49Z</time>
      </trkpt>
      <trkpt lat="45.94491" lon="4.88291">
        <ele>276</ele>
        <time>2018-09-15T09:30:50Z</time>
      </trkpt>
      <trkpt lat="45.94496" lon="4.88293">
        <ele>276</ele>
        <time>2018-09-15T09:30:51Z</time>
      </trkpt>
      <trkpt lat="45.94502" lon="4.88292">
        <ele>275</ele>
        <time>2018-09-15T09:30:52Z</time>
      </trkpt>
      <trkpt lat="45.94507" lon="4.88291">
        <ele>275</ele>
        <time>2018-09-15T09:30:53Z</time>
      </trkpt>
      <trkpt lat="45.94514" lon="4.88293">
        <ele>275</ele>
        <time>2018-09-15T09:30:54Z</time>
      </trkpt>
      <trkpt lat="45.94519" lon="4.88295">
        <ele>275</ele>
        <time>2018-09-15T09:30:55Z</time>
      </trkpt>
      <trkpt lat="45.94525" lon="4.88296">
        <ele>275</ele>
        <time>2018-09-15T09:30:56Z</time>
      </trkpt>
      <trkpt lat="45.94531" lon="4.88297">
        <ele>275</ele>
        <time>2018-09-15T09:30:57Z</time>
      </trkpt>
      <trkpt lat="45.94536" lon="4.88298">
        <ele>275</ele>
        <time>2018-09-15T09:30:58Z</time>
      </trkpt>
      <trkpt lat="45.94541" lon="4.88299">
        <ele>275</ele>
        <time>2018-09-15T09:30:59Z</time>
      </trkpt>
      <trkpt lat="45.94547" lon="4.88301">
        <ele>275</ele>
        <time>2018-09-15T09:31:00Z</time>
      </trkpt>
      <trkpt lat="45.94552" lon="4.88301">
        <ele>275</ele>
        <time>2018-09-15T09:31:01Z</time>
      </trkpt>
      <trkpt lat="45.94557" lon="4.88301">
        <ele>275</ele>
        <time>2018-09-15T09:31:02Z</time>
      </trkpt>
      <trkpt lat="45.94561" lon="4.88302">
        <ele>275</ele>
        <time>2018-09-15T09:31:03Z</time>
      </trkpt>
      <trkpt lat="45.94566" lon="4.88302">
        <ele>275</ele>
        <time>2018-09-15T09:31:04Z</time>
      </trkpt>
      <trkpt lat="45.94574" lon="4.88303">
        <ele>275</ele>
        <time>2018-09-15T09:31:06Z</time>
      </trkpt>
      <trkpt lat="45.94578" lon="4.88304">
        <ele>275</ele>
        <time>2018-09-15T09:31:07Z</time>
      </trkpt>
      <trkpt lat="45.94587" lon="4.88307">
        <ele>275</ele>
        <time>2018-09-15T09:31:09Z</time>
      </trkpt>
      <trkpt lat="45.94592" lon="4.88307">
        <ele>275</ele>
        <time>2018-09-15T09:31:10Z</time>
      </trkpt>
      <trkpt lat="45.94596" lon="4.88307">
        <ele>275</ele>
        <time>2018-09-15T09:31:11Z</time>
      </trkpt>
      <trkpt lat="45.94601" lon="4.88308">
        <ele>275</ele>
        <time>2018-09-15T09:31:12Z</time>
      </trkpt>
      <trkpt lat="45.94607" lon="4.88309">
        <ele>275</ele>
        <time>2018-09-15T09:31:13Z</time>
      </trkpt>
      <trkpt lat="45.94613" lon="4.88309">
        <ele>275</ele>
        <time>2018-09-15T09:31:14Z</time>
      </trkpt>
      <trkpt lat="45.94618" lon="4.8831">
        <ele>275</ele>
        <time>2018-09-15T09:31:15Z</time>
      </trkpt>
      <trkpt lat="45.94623" lon="4.88311">
        <ele>275</ele>
        <time>2018-09-15T09:31:16Z</time>
      </trkpt>
      <trkpt lat="45.94628" lon="4.88311">
        <ele>276</ele>
        <time>2018-09-15T09:31:17Z</time>
      </trkpt>
      <trkpt lat="45.94633" lon="4.88311">
        <ele>276</ele>
        <time>2018-09-15T09:31:18Z</time>
      </trkpt>
      <trkpt lat="45.94638" lon="4.88312">
        <ele>276</ele>
        <time>2018-09-15T09:31:19Z</time>
      </trkpt>
      <trkpt lat="45.94642" lon="4.88314">
        <ele>276</ele>
        <time>2018-09-15T09:31:20Z</time>
      </trkpt>
      <trkpt lat="45.9465" lon="4.88315">
        <ele>276</ele>
        <time>2018-09-15T09:31:22Z</time>
      </trkpt>
      <trkpt lat="45.94655" lon="4.88316">
        <ele>276</ele>
        <time>2018-09-15T09:31:23Z</time>
      </trkpt>
      <trkpt lat="45.94661" lon="4.88314">
        <ele>276</ele>
        <time>2018-09-15T09:31:24Z</time>
      </trkpt>
      <trkpt lat="45.94666" lon="4.88313">
        <ele>276</ele>
        <time>2018-09-15T09:31:25Z</time>
      </trkpt>
      <trkpt lat="45.9467" lon="4.88313">
        <ele>276</ele>
        <time>2018-09-15T09:31:26Z</time>
      </trkpt>
      <trkpt lat="45.94675" lon="4.88314">
        <ele>276</ele>
        <time>2018-09-15T09:31:27Z</time>
      </trkpt>
      <trkpt lat="45.94684" lon="4.88315">
        <ele>276</ele>
        <time>2018-09-15T09:31:29Z</time>
      </trkpt>
      <trkpt lat="45.94688" lon="4.88317">
        <ele>276</ele>
        <time>2018-09-15T09:31:30Z</time>
      </trkpt>
      <trkpt lat="45.94694" lon="4.88317">
        <ele>276</ele>
        <time>2018-09-15T09:31:31Z</time>
      </trkpt>
      <trkpt lat="45.94698" lon="4.8832">
        <ele>276</ele>
        <time>2018-09-15T09:31:32Z</time>
      </trkpt>
      <trkpt lat="45.94707" lon="4.8832">
        <ele>276</ele>
        <time>2018-09-15T09:31:34Z</time>
      </trkpt>
      <trkpt lat="45.94711" lon="4.88321">
        <ele>276</ele>
        <time>2018-09-15T09:31:35Z</time>
      </trkpt>
      <trkpt lat="45.94719" lon="4.88323">
        <ele>276</ele>
        <time>2018-09-15T09:31:37Z</time>
      </trkpt>
      <trkpt lat="45.94723" lon="4.88323">
        <ele>276</ele>
        <time>2018-09-15T09:31:38Z</time>
      </trkpt>
      <trkpt lat="45.9473" lon="4.88325">
        <ele>277</ele>
        <time>2018-09-15T09:31:40Z</time>
      </trkpt>
      <trkpt lat="45.94734" lon="4.88326">
        <ele>277</ele>
        <time>2018-09-15T09:31:41Z</time>
      </trkpt>
      <trkpt lat="45.94742" lon="4.88328">
        <ele>277</ele>
        <time>2018-09-15T09:31:43Z</time>
      </trkpt>
      <trkpt lat="45.94746" lon="4.88329">
        <ele>277</ele>
        <time>2018-09-15T09:31:44Z</time>
      </trkpt>
      <trkpt lat="45.94753" lon="4.88331">
        <ele>277</ele>
        <time>2018-09-15T09:31:46Z</time>
      </trkpt>
      <trkpt lat="45.94757" lon="4.88334">
        <ele>277</ele>
        <time>2018-09-15T09:31:47Z</time>
      </trkpt>
      <trkpt lat="45.94763" lon="4.88334">
        <ele>277</ele>
        <time>2018-09-15T09:31:48Z</time>
      </trkpt>
      <trkpt lat="45.94768" lon="4.88335">
        <ele>277</ele>
        <time>2018-09-15T09:31:49Z</time>
      </trkpt>
      <trkpt lat="45.94774" lon="4.88337">
        <ele>278</ele>
        <time>2018-09-15T09:31:50Z</time>
      </trkpt>
      <trkpt lat="45.94779" lon="4.88338">
        <ele>278</ele>
        <time>2018-09-15T09:31:51Z</time>
      </trkpt>
      <trkpt lat="45.94787" lon="4.88339">
        <ele>278</ele>
        <time>2018-09-15T09:31:53Z</time>
      </trkpt>
      <trkpt lat="45.94793" lon="4.88338">
        <ele>278</ele>
        <time>2018-09-15T09:31:54Z</time>
      </trkpt>
      <trkpt lat="45.94798" lon="4.88339">
        <ele>278</ele>
        <time>2018-09-15T09:31:56Z</time>
      </trkpt>
      <trkpt lat="45.94802" lon="4.8834">
        <ele>278</ele>
        <time>2018-09-15T09:31:57Z</time>
      </trkpt>
      <trkpt lat="45.94811" lon="4.88338">
        <ele>278</ele>
        <time>2018-09-15T09:31:59Z</time>
      </trkpt>
      <trkpt lat="45.94815" lon="4.88339">
        <ele>278</ele>
        <time>2018-09-15T09:32:00Z</time>
      </trkpt>
      <trkpt lat="45.94822" lon="4.88339">
        <ele>278</ele>
        <time>2018-09-15T09:32:02Z</time>
      </trkpt>
      <trkpt lat="45.94824" lon="4.88339">
        <ele>279</ele>
        <time>2018-09-15T09:32:03Z</time>
      </trkpt>
      <trkpt lat="45.94832" lon="4.88337">
        <ele>279</ele>
        <time>2018-09-15T09:32:05Z</time>
      </trkpt>
      <trkpt lat="45.94834" lon="4.88337">
        <ele>279</ele>
        <time>2018-09-15T09:32:06Z</time>
      </trkpt>
      <trkpt lat="45.94841" lon="4.88335">
        <ele>279</ele>
        <time>2018-09-15T09:32:09Z</time>
      </trkpt>
      <trkpt lat="45.94844" lon="4.88335">
        <ele>279</ele>
        <time>2018-09-15T09:32:10Z</time>
      </trkpt>
      <trkpt lat="45.94852" lon="4.88333">
        <ele>280</ele>
        <time>2018-09-15T09:32:13Z</time>
      </trkpt>
      <trkpt lat="45.94855" lon="4.88332">
        <ele>280</ele>
        <time>2018-09-15T09:32:14Z</time>
      </trkpt>
      <trkpt lat="45.94863" lon="4.8833">
        <ele>280</ele>
        <time>2018-09-15T09:32:17Z</time>
      </trkpt>
      <trkpt lat="45.94866" lon="4.8833">
        <ele>280</ele>
        <time>2018-09-15T09:32:18Z</time>
      </trkpt>
      <trkpt lat="45.94868" lon="4.8833">
        <ele>280</ele>
        <time>2018-09-15T09:32:19Z</time>
      </trkpt>
      <trkpt lat="45.94879" lon="4.88329">
        <ele>280</ele>
        <time>2018-09-15T09:32:20Z</time>
      </trkpt>
      <trkpt lat="45.94883" lon="4.88328">
        <ele>281</ele>
        <time>2018-09-15T09:32:22Z</time>
      </trkpt>
      <trkpt lat="45.9489" lon="4.88327">
        <ele>281</ele>
        <time>2018-09-15T09:32:23Z</time>
      </trkpt>
      <trkpt lat="45.94897" lon="4.88325">
        <ele>281</ele>
        <time>2018-09-15T09:32:25Z</time>
      </trkpt>
      <trkpt lat="45.94901" lon="4.88323">
        <ele>281</ele>
        <time>2018-09-15T09:32:26Z</time>
      </trkpt>
      <trkpt lat="45.94909" lon="4.8832">
        <ele>281</ele>
        <time>2018-09-15T09:32:28Z</time>
      </trkpt>
      <trkpt lat="45.94912" lon="4.88318">
        <ele>281</ele>
        <time>2018-09-15T09:32:29Z</time>
      </trkpt>
      <trkpt lat="45.94919" lon="4.88313">
        <ele>283</ele>
        <time>2018-09-15T09:32:31Z</time>
      </trkpt>
      <trkpt lat="45.94923" lon="4.8831">
        <ele>283</ele>
        <time>2018-09-15T09:32:32Z</time>
      </trkpt>
      <trkpt lat="45.94931" lon="4.88307">
        <ele>283</ele>
        <time>2018-09-15T09:32:34Z</time>
      </trkpt>
      <trkpt lat="45.94934" lon="4.88305">
        <ele>283</ele>
        <time>2018-09-15T09:32:35Z</time>
      </trkpt>
      <trkpt lat="45.94943" lon="4.88302">
        <ele>283</ele>
        <time>2018-09-15T09:32:39Z</time>
      </trkpt>
      <trkpt lat="45.9495" lon="4.88299">
        <ele>283</ele>
        <time>2018-09-15T09:32:40Z</time>
      </trkpt>
      <trkpt lat="45.94957" lon="4.88296">
        <ele>283</ele>
        <time>2018-09-15T09:32:42Z</time>
      </trkpt>
      <trkpt lat="45.94961" lon="4.88294">
        <ele>283</ele>
        <time>2018-09-15T09:32:43Z</time>
      </trkpt>
      <trkpt lat="45.94969" lon="4.8829">
        <ele>283</ele>
        <time>2018-09-15T09:32:45Z</time>
      </trkpt>
      <trkpt lat="45.94973" lon="4.88288">
        <ele>283</ele>
        <time>2018-09-15T09:32:46Z</time>
      </trkpt>
      <trkpt lat="45.94981" lon="4.88285">
        <ele>283</ele>
        <time>2018-09-15T09:32:48Z</time>
      </trkpt>
      <trkpt lat="45.94984" lon="4.88283">
        <ele>283</ele>
        <time>2018-09-15T09:32:49Z</time>
      </trkpt>
      <trkpt lat="45.94989" lon="4.88282">
        <ele>283</ele>
        <time>2018-09-15T09:32:50Z</time>
      </trkpt>
      <trkpt lat="45.94994" lon="4.88278">
        <ele>283</ele>
        <time>2018-09-15T09:32:51Z</time>
      </trkpt>
      <trkpt lat="45.95" lon="4.88275">
        <ele>285</ele>
        <time>2018-09-15T09:32:54Z</time>
      </trkpt>
      <trkpt lat="45.95003" lon="4.88274">
        <ele>285</ele>
        <time>2018-09-15T09:32:55Z</time>
      </trkpt>
      <trkpt lat="45.95012" lon="4.88271">
        <ele>285</ele>
        <time>2018-09-15T09:32:56Z</time>
      </trkpt>
      <trkpt lat="45.95016" lon="4.8827">
        <ele>285</ele>
        <time>2018-09-15T09:32:57Z</time>
      </trkpt>
      <trkpt lat="45.95024" lon="4.88268">
        <ele>285</ele>
        <time>2018-09-15T09:33:00Z</time>
      </trkpt>
      <trkpt lat="45.9503" lon="4.88265">
        <ele>285</ele>
        <time>2018-09-15T09:33:01Z</time>
      </trkpt>
      <trkpt lat="45.95037" lon="4.88262">
        <ele>285</ele>
        <time>2018-09-15T09:33:03Z</time>
      </trkpt>
      <trkpt lat="45.95041" lon="4.88261">
        <ele>285</ele>
        <time>2018-09-15T09:33:04Z</time>
      </trkpt>
      <trkpt lat="45.95048" lon="4.8826">
        <ele>286</ele>
        <time>2018-09-15T09:33:06Z</time>
      </trkpt>
      <trkpt lat="45.95052" lon="4.88259">
        <ele>286</ele>
        <time>2018-09-15T09:33:07Z</time>
      </trkpt>
      <trkpt lat="45.95061" lon="4.88257">
        <ele>286</ele>
        <time>2018-09-15T09:33:10Z</time>
      </trkpt>
      <trkpt lat="45.95063" lon="4.88256">
        <ele>286</ele>
        <time>2018-09-15T09:33:11Z</time>
      </trkpt>
      <trkpt lat="45.95071" lon="4.88253">
        <ele>286</ele>
        <time>2018-09-15T09:33:14Z</time>
      </trkpt>
      <trkpt lat="45.95081" lon="4.88246">
        <ele>287</ele>
        <time>2018-09-15T09:33:15Z</time>
      </trkpt>
      <trkpt lat="45.95085" lon="4.88243">
        <ele>287</ele>
        <time>2018-09-15T09:33:16Z</time>
      </trkpt>
      <trkpt lat="45.95089" lon="4.88242">
        <ele>287</ele>
        <time>2018-09-15T09:33:17Z</time>
      </trkpt>
      <trkpt lat="45.95097" lon="4.88239">
        <ele>287</ele>
        <time>2018-09-15T09:33:19Z</time>
      </trkpt>
      <trkpt lat="45.95098" lon="4.88238">
        <ele>287</ele>
        <time>2018-09-15T09:33:20Z</time>
      </trkpt>
      <trkpt lat="45.95103" lon="4.88237">
        <ele>287</ele>
        <time>2018-09-15T09:33:21Z</time>
      </trkpt>
      <trkpt lat="45.95107" lon="4.88236">
        <ele>287</ele>
        <time>2018-09-15T09:33:22Z</time>
      </trkpt>
      <trkpt lat="45.95115" lon="4.88232">
        <ele>287</ele>
        <time>2018-09-15T09:33:25Z</time>
      </trkpt>
      <trkpt lat="45.95117" lon="4.8823">
        <ele>287</ele>
        <time>2018-09-15T09:33:26Z</time>
      </trkpt>
      <trkpt lat="45.95123" lon="4.88224">
        <ele>287</ele>
        <time>2018-09-15T09:33:27Z</time>
      </trkpt>
      <trkpt lat="45.95125" lon="4.88219">
        <ele>287</ele>
        <time>2018-09-15T09:33:28Z</time>
      </trkpt>
      <trkpt lat="45.95125" lon="4.88211">
        <ele>287</ele>
        <time>2018-09-15T09:33:29Z</time>
      </trkpt>
      <trkpt lat="45.95127" lon="4.88205">
        <ele>287</ele>
        <time>2018-09-15T09:33:30Z</time>
      </trkpt>
      <trkpt lat="45.95129" lon="4.88199">
        <ele>287</ele>
        <time>2018-09-15T09:33:31Z</time>
      </trkpt>
      <trkpt lat="45.95132" lon="4.88192">
        <ele>287</ele>
        <time>2018-09-15T09:33:32Z</time>
      </trkpt>
      <trkpt lat="45.95135" lon="4.88187">
        <ele>286</ele>
        <time>2018-09-15T09:33:33Z</time>
      </trkpt>
      <trkpt lat="45.9514" lon="4.88183">
        <ele>286</ele>
        <time>2018-09-15T09:33:34Z</time>
      </trkpt>
      <trkpt lat="45.95146" lon="4.88181">
        <ele>286</ele>
        <time>2018-09-15T09:33:36Z</time>
      </trkpt>
      <trkpt lat="45.95152" lon="4.8818">
        <ele>286</ele>
        <time>2018-09-15T09:33:37Z</time>
      </trkpt>
      <trkpt lat="45.95157" lon="4.88179">
        <ele>286</ele>
        <time>2018-09-15T09:33:38Z</time>
      </trkpt>
      <trkpt lat="45.95163" lon="4.88177">
        <ele>286</ele>
        <time>2018-09-15T09:33:39Z</time>
      </trkpt>
      <trkpt lat="45.95168" lon="4.88176">
        <ele>285</ele>
        <time>2018-09-15T09:33:40Z</time>
      </trkpt>
      <trkpt lat="45.95173" lon="4.88175">
        <ele>285</ele>
        <time>2018-09-15T09:33:41Z</time>
      </trkpt>
      <trkpt lat="45.95179" lon="4.88175">
        <ele>285</ele>
        <time>2018-09-15T09:33:42Z</time>
      </trkpt>
      <trkpt lat="45.95185" lon="4.88173">
        <ele>285</ele>
        <time>2018-09-15T09:33:43Z</time>
      </trkpt>
      <trkpt lat="45.9519" lon="4.88173">
        <ele>285</ele>
        <time>2018-09-15T09:33:44Z</time>
      </trkpt>
      <trkpt lat="45.95196" lon="4.88175">
        <ele>285</ele>
        <time>2018-09-15T09:33:45Z</time>
      </trkpt>
      <trkpt lat="45.95202" lon="4.88173">
        <ele>285</ele>
        <time>2018-09-15T09:33:46Z</time>
      </trkpt>
      <trkpt lat="45.95207" lon="4.88174">
        <ele>285</ele>
        <time>2018-09-15T09:33:47Z</time>
      </trkpt>
      <trkpt lat="45.95213" lon="4.88171">
        <ele>284</ele>
        <time>2018-09-15T09:33:48Z</time>
      </trkpt>
      <trkpt lat="45.95219" lon="4.88171">
        <ele>284</ele>
        <time>2018-09-15T09:33:49Z</time>
      </trkpt>
      <trkpt lat="45.95224" lon="4.8817">
        <ele>284</ele>
        <time>2018-09-15T09:33:50Z</time>
      </trkpt>
      <trkpt lat="45.9523" lon="4.88167">
        <ele>283</ele>
        <time>2018-09-15T09:33:51Z</time>
      </trkpt>
      <trkpt lat="45.95237" lon="4.88168">
        <ele>283</ele>
        <time>2018-09-15T09:33:52Z</time>
      </trkpt>
      <trkpt lat="45.95244" lon="4.88168">
        <ele>282</ele>
        <time>2018-09-15T09:33:53Z</time>
      </trkpt>
      <trkpt lat="45.95251" lon="4.88169">
        <ele>281</ele>
        <time>2018-09-15T09:33:54Z</time>
      </trkpt>
      <trkpt lat="45.95257" lon="4.88171">
        <ele>281</ele>
        <time>2018-09-15T09:33:55Z</time>
      </trkpt>
      <trkpt lat="45.95262" lon="4.88173">
        <ele>281</ele>
        <time>2018-09-15T09:33:56Z</time>
      </trkpt>
      <trkpt lat="45.9527" lon="4.88171">
        <ele>281</ele>
        <time>2018-09-15T09:33:57Z</time>
      </trkpt>
      <trkpt lat="45.95275" lon="4.88172">
        <ele>281</ele>
        <time>2018-09-15T09:33:58Z</time>
      </trkpt>
      <trkpt lat="45.95281" lon="4.88174">
        <ele>281</ele>
        <time>2018-09-15T09:33:59Z</time>
      </trkpt>
      <trkpt lat="45.95287" lon="4.88175">
        <ele>281</ele>
        <time>2018-09-15T09:34:00Z</time>
      </trkpt>
      <trkpt lat="45.95294" lon="4.88177">
        <ele>281</ele>
        <time>2018-09-15T09:34:01Z</time>
      </trkpt>
      <trkpt lat="45.95297" lon="4.88179">
        <ele>281</ele>
        <time>2018-09-15T09:34:02Z</time>
      </trkpt>
      <trkpt lat="45.95303" lon="4.8818">
        <ele>281</ele>
        <time>2018-09-15T09:34:03Z</time>
      </trkpt>
      <trkpt lat="45.95313" lon="4.88179">
        <ele>280</ele>
        <time>2018-09-15T09:34:04Z</time>
      </trkpt>
      <trkpt lat="45.9532" lon="4.88178">
        <ele>280</ele>
        <time>2018-09-15T09:34:05Z</time>
      </trkpt>
      <trkpt lat="45.95327" lon="4.88176">
        <ele>279</ele>
        <time>2018-09-15T09:34:06Z</time>
      </trkpt>
      <trkpt lat="45.95334" lon="4.88175">
        <ele>278</ele>
        <time>2018-09-15T09:34:07Z</time>
      </trkpt>
      <trkpt lat="45.95341" lon="4.88173">
        <ele>278</ele>
        <time>2018-09-15T09:34:08Z</time>
      </trkpt>
      <trkpt lat="45.95347" lon="4.88175">
        <ele>278</ele>
        <time>2018-09-15T09:34:09Z</time>
      </trkpt>
      <trkpt lat="45.95356" lon="4.88171">
        <ele>278</ele>
        <time>2018-09-15T09:34:10Z</time>
      </trkpt>
      <trkpt lat="45.95361" lon="4.88172">
        <ele>278</ele>
        <time>2018-09-15T09:34:11Z</time>
      </trkpt>
      <trkpt lat="45.95367" lon="4.88169">
        <ele>278</ele>
        <time>2018-09-15T09:34:12Z</time>
      </trkpt>
      <trkpt lat="45.95373" lon="4.88166">
        <ele>276</ele>
        <time>2018-09-15T09:34:13Z</time>
      </trkpt>
      <trkpt lat="45.9538" lon="4.88161">
        <ele>276</ele>
        <time>2018-09-15T09:34:14Z</time>
      </trkpt>
      <trkpt lat="45.95387" lon="4.88159">
        <ele>276</ele>
        <time>2018-09-15T09:34:15Z</time>
      </trkpt>
      <trkpt lat="45.95393" lon="4.88156">
        <ele>276</ele>
        <time>2018-09-15T09:34:16Z</time>
      </trkpt>
      <trkpt lat="45.95398" lon="4.88156">
        <ele>276</ele>
        <time>2018-09-15T09:34:17Z</time>
      </trkpt>
      <trkpt lat="45.95402" lon="4.8816">
        <ele>276</ele>
        <time>2018-09-15T09:34:18Z</time>
      </trkpt>
      <trkpt lat="45.95407" lon="4.88165">
        <ele>276</ele>
        <time>2018-09-15T09:34:19Z</time>
      </trkpt>
      <trkpt lat="45.95412" lon="4.88159">
        <ele>276</ele>
        <time>2018-09-15T09:34:20Z</time>
      </trkpt>
      <trkpt lat="45.95419" lon="4.88163">
        <ele>276</ele>
        <time>2018-09-15T09:34:22Z</time>
      </trkpt>
      <trkpt lat="45.95422" lon="4.88161">
        <ele>276</ele>
        <time>2018-09-15T09:34:23Z</time>
      </trkpt>
      <trkpt lat="45.95428" lon="4.88156">
        <ele>276</ele>
        <time>2018-09-15T09:34:24Z</time>
      </trkpt>
      <trkpt lat="45.95431" lon="4.88152">
        <ele>276</ele>
        <time>2018-09-15T09:34:25Z</time>
      </trkpt>
      <trkpt lat="45.95435" lon="4.88152">
        <ele>276</ele>
        <time>2018-09-15T09:34:26Z</time>
      </trkpt>
      <trkpt lat="45.95439" lon="4.88146">
        <ele>276</ele>
        <time>2018-09-15T09:34:27Z</time>
      </trkpt>
      <trkpt lat="45.95443" lon="4.88145">
        <ele>276</ele>
        <time>2018-09-15T09:34:28Z</time>
      </trkpt>
      <trkpt lat="45.95448" lon="4.88142">
        <ele>276</ele>
        <time>2018-09-15T09:34:29Z</time>
      </trkpt>
      <trkpt lat="45.95456" lon="4.88138">
        <ele>276</ele>
        <time>2018-09-15T09:34:31Z</time>
      </trkpt>
      <trkpt lat="45.95459" lon="4.88137">
        <ele>276</ele>
        <time>2018-09-15T09:34:32Z</time>
      </trkpt>
      <trkpt lat="45.95464" lon="4.88135">
        <ele>276</ele>
        <time>2018-09-15T09:34:33Z</time>
      </trkpt>
      <trkpt lat="45.95469" lon="4.8813">
        <ele>276</ele>
        <time>2018-09-15T09:34:34Z</time>
      </trkpt>
      <trkpt lat="45.95473" lon="4.88126">
        <ele>276</ele>
        <time>2018-09-15T09:34:35Z</time>
      </trkpt>
      <trkpt lat="45.95478" lon="4.88125">
        <ele>276</ele>
        <time>2018-09-15T09:34:36Z</time>
      </trkpt>
      <trkpt lat="45.95486" lon="4.8812">
        <ele>276</ele>
        <time>2018-09-15T09:34:38Z</time>
      </trkpt>
      <trkpt lat="45.95488" lon="4.8812">
        <ele>276</ele>
        <time>2018-09-15T09:34:39Z</time>
      </trkpt>
      <trkpt lat="45.95494" lon="4.88119">
        <ele>276</ele>
        <time>2018-09-15T09:34:40Z</time>
      </trkpt>
      <trkpt lat="45.95498" lon="4.88118">
        <ele>276</ele>
        <time>2018-09-15T09:34:41Z</time>
      </trkpt>
      <trkpt lat="45.95503" lon="4.88115">
        <ele>276</ele>
        <time>2018-09-15T09:34:42Z</time>
      </trkpt>
      <trkpt lat="45.95507" lon="4.88112">
        <ele>276</ele>
        <time>2018-09-15T09:34:43Z</time>
      </trkpt>
      <trkpt lat="45.95515" lon="4.88109">
        <ele>276</ele>
        <time>2018-09-15T09:34:45Z</time>
      </trkpt>
      <trkpt lat="45.95519" lon="4.88107">
        <ele>276</ele>
        <time>2018-09-15T09:34:46Z</time>
      </trkpt>
      <trkpt lat="45.95526" lon="4.88103">
        <ele>277</ele>
        <time>2018-09-15T09:34:48Z</time>
      </trkpt>
      <trkpt lat="45.9553" lon="4.88101">
        <ele>277</ele>
        <time>2018-09-15T09:34:49Z</time>
      </trkpt>
      <trkpt lat="45.95538" lon="4.88096">
        <ele>277</ele>
        <time>2018-09-15T09:34:51Z</time>
      </trkpt>
      <trkpt lat="45.95542" lon="4.88094">
        <ele>277</ele>
        <time>2018-09-15T09:34:52Z</time>
      </trkpt>
      <trkpt lat="45.9555" lon="4.8809">
        <ele>277</ele>
        <time>2018-09-15T09:34:54Z</time>
      </trkpt>
      <trkpt lat="45.95555" lon="4.88088">
        <ele>277</ele>
        <time>2018-09-15T09:34:55Z</time>
      </trkpt>
      <trkpt lat="45.95561" lon="4.88085">
        <ele>277</ele>
        <time>2018-09-15T09:34:56Z</time>
      </trkpt>
      <trkpt lat="45.95565" lon="4.88082">
        <ele>276</ele>
        <time>2018-09-15T09:34:57Z</time>
      </trkpt>
      <trkpt lat="45.95573" lon="4.88077">
        <ele>277</ele>
        <time>2018-09-15T09:34:59Z</time>
      </trkpt>
      <trkpt lat="45.95575" lon="4.88074">
        <ele>277</ele>
        <time>2018-09-15T09:35:00Z</time>
      </trkpt>
      <trkpt lat="45.9558" lon="4.88069">
        <ele>276</ele>
        <time>2018-09-15T09:35:03Z</time>
      </trkpt>
      <trkpt lat="45.95585" lon="4.88065">
        <ele>278</ele>
        <time>2018-09-15T09:35:04Z</time>
      </trkpt>
      <trkpt lat="45.95593" lon="4.8806">
        <ele>278</ele>
        <time>2018-09-15T09:35:06Z</time>
      </trkpt>
      <trkpt lat="45.95596" lon="4.88057">
        <ele>278</ele>
        <time>2018-09-15T09:35:07Z</time>
      </trkpt>
      <trkpt lat="45.95603" lon="4.88052">
        <ele>278</ele>
        <time>2018-09-15T09:35:10Z</time>
      </trkpt>
      <trkpt lat="45.95609" lon="4.88047">
        <ele>278</ele>
        <time>2018-09-15T09:35:11Z</time>
      </trkpt>
      <trkpt lat="45.95615" lon="4.8804">
        <ele>278</ele>
        <time>2018-09-15T09:35:13Z</time>
      </trkpt>
      <trkpt lat="45.95619" lon="4.88036">
        <ele>278</ele>
        <time>2018-09-15T09:35:14Z</time>
      </trkpt>
      <trkpt lat="45.95626" lon="4.8803">
        <ele>279</ele>
        <time>2018-09-15T09:35:17Z</time>
      </trkpt>
      <trkpt lat="45.95628" lon="4.88028">
        <ele>279</ele>
        <time>2018-09-15T09:35:18Z</time>
      </trkpt>
      <trkpt lat="45.9563" lon="4.88026">
        <ele>279</ele>
        <time>2018-09-15T09:35:19Z</time>
      </trkpt>
      <trkpt lat="45.95637" lon="4.88019">
        <ele>279</ele>
        <time>2018-09-15T09:35:20Z</time>
      </trkpt>
      <trkpt lat="45.95644" lon="4.88012">
        <ele>279</ele>
        <time>2018-09-15T09:35:24Z</time>
      </trkpt>
      <trkpt lat="45.95646" lon="4.8801">
        <ele>279</ele>
        <time>2018-09-15T09:35:25Z</time>
      </trkpt>
      <trkpt lat="45.95651" lon="4.88005">
        <ele>280</ele>
        <time>2018-09-15T09:35:27Z</time>
      </trkpt>
      <trkpt lat="45.95654" lon="4.88003">
        <ele>280</ele>
        <time>2018-09-15T09:35:28Z</time>
      </trkpt>
      <trkpt lat="45.95659" lon="4.87998">
        <ele>280</ele>
        <time>2018-09-15T09:35:30Z</time>
      </trkpt>
      <trkpt lat="45.95662" lon="4.87995">
        <ele>280</ele>
        <time>2018-09-15T09:35:31Z</time>
      </trkpt>
      <trkpt lat="45.95668" lon="4.8799">
        <ele>282</ele>
        <time>2018-09-15T09:35:33Z</time>
      </trkpt>
      <trkpt lat="45.9567" lon="4.87988">
        <ele>282</ele>
        <time>2018-09-15T09:35:34Z</time>
      </trkpt>
      <trkpt lat="45.95676" lon="4.87983">
        <ele>282</ele>
        <time>2018-09-15T09:35:36Z</time>
      </trkpt>
      <trkpt lat="45.95678" lon="4.87981">
        <ele>282</ele>
        <time>2018-09-15T09:35:37Z</time>
      </trkpt>
      <trkpt lat="45.95683" lon="4.87976">
        <ele>282</ele>
        <time>2018-09-15T09:35:39Z</time>
      </trkpt>
      <trkpt lat="45.95686" lon="4.87974">
        <ele>282</ele>
        <time>2018-09-15T09:35:40Z</time>
      </trkpt>
      <trkpt lat="45.95693" lon="4.87967">
        <ele>282</ele>
        <time>2018-09-15T09:35:43Z</time>
      </trkpt>
      <trkpt lat="45.95695" lon="4.87965">
        <ele>282</ele>
        <time>2018-09-15T09:35:44Z</time>
      </trkpt>
      <trkpt lat="45.95702" lon="4.87958">
        <ele>283</ele>
        <time>2018-09-15T09:35:47Z</time>
      </trkpt>
      <trkpt lat="45.95704" lon="4.87956">
        <ele>283</ele>
        <time>2018-09-15T09:35:48Z</time>
      </trkpt>
      <trkpt lat="45.95712" lon="4.87949">
        <ele>283</ele>
        <time>2018-09-15T09:35:51Z</time>
      </trkpt>
      <trkpt lat="45.95715" lon="4.87947">
        <ele>283</ele>
        <time>2018-09-15T09:35:52Z</time>
      </trkpt>
      <trkpt lat="45.9572" lon="4.87942">
        <ele>283</ele>
        <time>2018-09-15T09:35:54Z</time>
      </trkpt>
      <trkpt lat="45.95722" lon="4.8794">
        <ele>283</ele>
        <time>2018-09-15T09:35:55Z</time>
      </trkpt>
      <trkpt lat="45.95728" lon="4.87935">
        <ele>283</ele>
        <time>2018-09-15T09:35:57Z</time>
      </trkpt>
      <trkpt lat="45.95731" lon="4.87933">
        <ele>283</ele>
        <time>2018-09-15T09:35:58Z</time>
      </trkpt>
      <trkpt lat="45.95738" lon="4.87928">
        <ele>284</ele>
        <time>2018-09-15T09:36:01Z</time>
      </trkpt>
      <trkpt lat="45.9574" lon="4.87926">
        <ele>284</ele>
        <time>2018-09-15T09:36:02Z</time>
      </trkpt>
      <trkpt lat="45.95748" lon="4.87919">
        <ele>285</ele>
        <time>2018-09-15T09:36:05Z</time>
      </trkpt>
      <trkpt lat="45.95751" lon="4.87916">
        <ele>285</ele>
        <time>2018-09-15T09:36:06Z</time>
      </trkpt>
      <trkpt lat="45.95756" lon="4.87912">
        <ele>285</ele>
        <time>2018-09-15T09:36:08Z</time>
      </trkpt>
      <trkpt lat="45.95759" lon="4.8791">
        <ele>285</ele>
        <time>2018-09-15T09:36:09Z</time>
      </trkpt>
      <trkpt lat="45.95766" lon="4.87905">
        <ele>286</ele>
        <time>2018-09-15T09:36:12Z</time>
      </trkpt>
      <trkpt lat="45.95769" lon="4.87904">
        <ele>286</ele>
        <time>2018-09-15T09:36:13Z</time>
      </trkpt>
      <trkpt lat="45.95776" lon="4.879">
        <ele>286</ele>
        <time>2018-09-15T09:36:16Z</time>
      </trkpt>
      <trkpt lat="45.95778" lon="4.87898">
        <ele>286</ele>
        <time>2018-09-15T09:36:17Z</time>
      </trkpt>
      <trkpt lat="45.95786" lon="4.87893">
        <ele>286</ele>
        <time>2018-09-15T09:36:20Z</time>
      </trkpt>
      <trkpt lat="45.95788" lon="4.87891">
        <ele>286</ele>
        <time>2018-09-15T09:36:21Z</time>
      </trkpt>
      <trkpt lat="45.95794" lon="4.87887">
        <ele>286</ele>
        <time>2018-09-15T09:36:23Z</time>
      </trkpt>
      <trkpt lat="45.95797" lon="4.87885">
        <ele>286</ele>
        <time>2018-09-15T09:36:24Z</time>
      </trkpt>
      <trkpt lat="45.95803" lon="4.87882">
        <ele>287</ele>
        <time>2018-09-15T09:36:26Z</time>
      </trkpt>
      <trkpt lat="45.95806" lon="4.8788">
        <ele>287</ele>
        <time>2018-09-15T09:36:27Z</time>
      </trkpt>
      <trkpt lat="45.95812" lon="4.87878">
        <ele>287</ele>
        <time>2018-09-15T09:36:29Z</time>
      </trkpt>
      <trkpt lat="45.95815" lon="4.87877">
        <ele>287</ele>
        <time>2018-09-15T09:36:30Z</time>
      </trkpt>
      <trkpt lat="45.95823" lon="4.87875">
        <ele>287</ele>
        <time>2018-09-15T09:36:33Z</time>
      </trkpt>
      <trkpt lat="45.95825" lon="4.87874">
        <ele>287</ele>
        <time>2018-09-15T09:36:34Z</time>
      </trkpt>
      <trkpt lat="45.95833" lon="4.87871">
        <ele>287</ele>
        <time>2018-09-15T09:36:37Z</time>
      </trkpt>
      <trkpt lat="45.95835" lon="4.8787">
        <ele>289</ele>
        <time>2018-09-15T09:36:38Z</time>
      </trkpt>
      <trkpt lat="45.95844" lon="4.87866">
        <ele>289</ele>
        <time>2018-09-15T09:36:39Z</time>
      </trkpt>
      <trkpt lat="45.95847" lon="4.87862">
        <ele>289</ele>
        <time>2018-09-15T09:36:40Z</time>
      </trkpt>
      <trkpt lat="45.95853" lon="4.87854">
        <ele>289</ele>
        <time>2018-09-15T09:36:42Z</time>
      </trkpt>
      <trkpt lat="45.95855" lon="4.8785">
        <ele>289</ele>
        <time>2018-09-15T09:36:43Z</time>
      </trkpt>
      <trkpt lat="45.95861" lon="4.87843">
        <ele>289</ele>
        <time>2018-09-15T09:36:45Z</time>
      </trkpt>
      <trkpt lat="45.95864" lon="4.8784">
        <ele>289</ele>
        <time>2018-09-15T09:36:46Z</time>
      </trkpt>
      <trkpt lat="45.9587" lon="4.87833">
        <ele>288</ele>
        <time>2018-09-15T09:36:48Z</time>
      </trkpt>
      <trkpt lat="45.95873" lon="4.8783">
        <ele>288</ele>
        <time>2018-09-15T09:36:49Z</time>
      </trkpt>
      <trkpt lat="45.95878" lon="4.87825">
        <ele>288</ele>
        <time>2018-09-15T09:36:51Z</time>
      </trkpt>
      <trkpt lat="45.95882" lon="4.8782">
        <ele>288</ele>
        <time>2018-09-15T09:36:52Z</time>
      </trkpt>
      <trkpt lat="45.95888" lon="4.87811">
        <ele>288</ele>
        <time>2018-09-15T09:36:54Z</time>
      </trkpt>
      <trkpt lat="45.95892" lon="4.87807">
        <ele>288</ele>
        <time>2018-09-15T09:36:55Z</time>
      </trkpt>
      <trkpt lat="45.95895" lon="4.87801">
        <ele>288</ele>
        <time>2018-09-15T09:36:56Z</time>
      </trkpt>
      <trkpt lat="45.95898" lon="4.87796">
        <ele>288</ele>
        <time>2018-09-15T09:36:57Z</time>
      </trkpt>
      <trkpt lat="45.95904" lon="4.87787">
        <ele>288</ele>
        <time>2018-09-15T09:36:59Z</time>
      </trkpt>
      <trkpt lat="45.95905" lon="4.87784">
        <ele>288</ele>
        <time>2018-09-15T09:37:00Z</time>
      </trkpt>
      <trkpt lat="45.9591" lon="4.87776">
        <ele>288</ele>
        <time>2018-09-15T09:37:03Z</time>
      </trkpt>
      <trkpt lat="45.95911" lon="4.87773">
        <ele>288</ele>
        <time>2018-09-15T09:37:04Z</time>
      </trkpt>
      <trkpt lat="45.95916" lon="4.87765">
        <ele>288</ele>
        <time>2018-09-15T09:37:05Z</time>
      </trkpt>
      <trkpt lat="45.9592" lon="4.87759">
        <ele>288</ele>
        <time>2018-09-15T09:37:06Z</time>
      </trkpt>
      <trkpt lat="45.95926" lon="4.87751">
        <ele>288</ele>
        <time>2018-09-15T09:37:08Z</time>
      </trkpt>
      <trkpt lat="45.95929" lon="4.87746">
        <ele>288</ele>
        <time>2018-09-15T09:37:09Z</time>
      </trkpt>
      <trkpt lat="45.95932" lon="4.87741">
        <ele>288</ele>
        <time>2018-09-15T09:37:10Z</time>
      </trkpt>
      <trkpt lat="45.95935" lon="4.87736">
        <ele>288</ele>
        <time>2018-09-15T09:37:11Z</time>
      </trkpt>
      <trkpt lat="45.95941" lon="4.87728">
        <ele>289</ele>
        <time>2018-09-15T09:37:13Z</time>
      </trkpt>
      <trkpt lat="45.95943" lon="4.87724">
        <ele>289</ele>
        <time>2018-09-15T09:37:14Z</time>
      </trkpt>
      <trkpt lat="45.95947" lon="4.87719">
        <ele>289</ele>
        <time>2018-09-15T09:37:16Z</time>
      </trkpt>
      <trkpt lat="45.95952" lon="4.8771">
        <ele>289</ele>
        <time>2018-09-15T09:37:17Z</time>
      </trkpt>
      <trkpt lat="45.95958" lon="4.87701">
        <ele>289</ele>
        <time>2018-09-15T09:37:19Z</time>
      </trkpt>
      <trkpt lat="45.95961" lon="4.87697">
        <ele>289</ele>
        <time>2018-09-15T09:37:20Z</time>
      </trkpt>
      <trkpt lat="45.95968" lon="4.8769">
        <ele>289</ele>
        <time>2018-09-15T09:37:22Z</time>
      </trkpt>
      <trkpt lat="45.95972" lon="4.87686">
        <ele>289</ele>
        <time>2018-09-15T09:37:23Z</time>
      </trkpt>
      <trkpt lat="45.95978" lon="4.87678">
        <ele>289</ele>
        <time>2018-09-15T09:37:25Z</time>
      </trkpt>
      <trkpt lat="45.95982" lon="4.87675">
        <ele>289</ele>
        <time>2018-09-15T09:37:26Z</time>
      </trkpt>
      <trkpt lat="45.95987" lon="4.87667">
        <ele>289</ele>
        <time>2018-09-15T09:37:28Z</time>
      </trkpt>
      <trkpt lat="45.9599" lon="4.87663">
        <ele>289</ele>
        <time>2018-09-15T09:37:29Z</time>
      </trkpt>
      <trkpt lat="45.95994" lon="4.87658">
        <ele>289</ele>
        <time>2018-09-15T09:37:30Z</time>
      </trkpt>
      <trkpt lat="45.95998" lon="4.87654">
        <ele>289</ele>
        <time>2018-09-15T09:37:31Z</time>
      </trkpt>
      <trkpt lat="45.96001" lon="4.87651">
        <ele>289</ele>
        <time>2018-09-15T09:37:32Z</time>
      </trkpt>
      <trkpt lat="45.96006" lon="4.87648">
        <ele>289</ele>
        <time>2018-09-15T09:37:33Z</time>
      </trkpt>
      <trkpt lat="45.9601" lon="4.87645">
        <ele>289</ele>
        <time>2018-09-15T09:37:34Z</time>
      </trkpt>
      <trkpt lat="45.96014" lon="4.8764">
        <ele>289</ele>
        <time>2018-09-15T09:37:35Z</time>
      </trkpt>
      <trkpt lat="45.96018" lon="4.87636">
        <ele>289</ele>
        <time>2018-09-15T09:37:36Z</time>
      </trkpt>
      <trkpt lat="45.96022" lon="4.87631">
        <ele>289</ele>
        <time>2018-09-15T09:37:37Z</time>
      </trkpt>
      <trkpt lat="45.96026" lon="4.87628">
        <ele>289</ele>
        <time>2018-09-15T09:37:38Z</time>
      </trkpt>
      <trkpt lat="45.96029" lon="4.87622">
        <ele>289</ele>
        <time>2018-09-15T09:37:39Z</time>
      </trkpt>
      <trkpt lat="45.96036" lon="4.87615">
        <ele>289</ele>
        <time>2018-09-15T09:37:41Z</time>
      </trkpt>
      <trkpt lat="45.9604" lon="4.87612">
        <ele>289</ele>
        <time>2018-09-15T09:37:42Z</time>
      </trkpt>
      <trkpt lat="45.96047" lon="4.87605">
        <ele>289</ele>
        <time>2018-09-15T09:37:44Z</time>
      </trkpt>
      <trkpt lat="45.9605" lon="4.87602">
        <ele>289</ele>
        <time>2018-09-15T09:37:45Z</time>
      </trkpt>
      <trkpt lat="45.96057" lon="4.87594">
        <ele>288</ele>
        <time>2018-09-15T09:37:47Z</time>
      </trkpt>
      <trkpt lat="45.96061" lon="4.87589">
        <ele>288</ele>
        <time>2018-09-15T09:37:48Z</time>
      </trkpt>
      <trkpt lat="45.96065" lon="4.87584">
        <ele>288</ele>
        <time>2018-09-15T09:37:49Z</time>
      </trkpt>
      <trkpt lat="45.96069" lon="4.87578">
        <ele>288</ele>
        <time>2018-09-15T09:37:50Z</time>
      </trkpt>
      <trkpt lat="45.96073" lon="4.87574">
        <ele>288</ele>
        <time>2018-09-15T09:37:51Z</time>
      </trkpt>
      <trkpt lat="45.96079" lon="4.87569">
        <ele>288</ele>
        <time>2018-09-15T09:37:52Z</time>
      </trkpt>
      <trkpt lat="45.96083" lon="4.87564">
        <ele>288</ele>
        <time>2018-09-15T09:37:53Z</time>
      </trkpt>
      <trkpt lat="45.96088" lon="4.87559">
        <ele>287</ele>
        <time>2018-09-15T09:37:54Z</time>
      </trkpt>
      <trkpt lat="45.96092" lon="4.87554">
        <ele>287</ele>
        <time>2018-09-15T09:37:55Z</time>
      </trkpt>
      <trkpt lat="45.96098" lon="4.87553">
        <ele>287</ele>
        <time>2018-09-15T09:37:56Z</time>
      </trkpt>
      <trkpt lat="45.96101" lon="4.87548">
        <ele>287</ele>
        <time>2018-09-15T09:37:57Z</time>
      </trkpt>
      <trkpt lat="45.96107" lon="4.87541">
        <ele>287</ele>
        <time>2018-09-15T09:37:58Z</time>
      </trkpt>
      <trkpt lat="45.96111" lon="4.87535">
        <ele>287</ele>
        <time>2018-09-15T09:37:59Z</time>
      </trkpt>
      <trkpt lat="45.96116" lon="4.87532">
        <ele>287</ele>
        <time>2018-09-15T09:38:00Z</time>
      </trkpt>
      <trkpt lat="45.96121" lon="4.87525">
        <ele>286</ele>
        <time>2018-09-15T09:38:01Z</time>
      </trkpt>
      <trkpt lat="45.96126" lon="4.87521">
        <ele>286</ele>
        <time>2018-09-15T09:38:02Z</time>
      </trkpt>
      <trkpt lat="45.96131" lon="4.87516">
        <ele>286</ele>
        <time>2018-09-15T09:38:03Z</time>
      </trkpt>
      <trkpt lat="45.96134" lon="4.87509">
        <ele>286</ele>
        <time>2018-09-15T09:38:04Z</time>
      </trkpt>
      <trkpt lat="45.9614" lon="4.87503">
        <ele>286</ele>
        <time>2018-09-15T09:38:05Z</time>
      </trkpt>
      <trkpt lat="45.96145" lon="4.87496">
        <ele>285</ele>
        <time>2018-09-15T09:38:06Z</time>
      </trkpt>
      <trkpt lat="45.9615" lon="4.87491">
        <ele>285</ele>
        <time>2018-09-15T09:38:07Z</time>
      </trkpt>
      <trkpt lat="45.96155" lon="4.87485">
        <ele>285</ele>
        <time>2018-09-15T09:38:08Z</time>
      </trkpt>
      <trkpt lat="45.9616" lon="4.87481">
        <ele>285</ele>
        <time>2018-09-15T09:38:09Z</time>
      </trkpt>
      <trkpt lat="45.96165" lon="4.87476">
        <ele>285</ele>
        <time>2018-09-15T09:38:10Z</time>
      </trkpt>
      <trkpt lat="45.96169" lon="4.87471">
        <ele>284</ele>
        <time>2018-09-15T09:38:11Z</time>
      </trkpt>
      <trkpt lat="45.96173" lon="4.87466">
        <ele>284</ele>
        <time>2018-09-15T09:38:12Z</time>
      </trkpt>
      <trkpt lat="45.96177" lon="4.87461">
        <ele>284</ele>
        <time>2018-09-15T09:38:13Z</time>
      </trkpt>
      <trkpt lat="45.96181" lon="4.87456">
        <ele>284</ele>
        <time>2018-09-15T09:38:14Z</time>
      </trkpt>
      <trkpt lat="45.96185" lon="4.87448">
        <ele>284</ele>
        <time>2018-09-15T09:38:15Z</time>
      </trkpt>
      <trkpt lat="45.9619" lon="4.8744">
        <ele>284</ele>
        <time>2018-09-15T09:38:16Z</time>
      </trkpt>
      <trkpt lat="45.96194" lon="4.87434">
        <ele>284</ele>
        <time>2018-09-15T09:38:17Z</time>
      </trkpt>
      <trkpt lat="45.96199" lon="4.87429">
        <ele>284</ele>
        <time>2018-09-15T09:38:18Z</time>
      </trkpt>
      <trkpt lat="45.96203" lon="4.87424">
        <ele>284</ele>
        <time>2018-09-15T09:38:19Z</time>
      </trkpt>
      <trkpt lat="45.96208" lon="4.87418">
        <ele>284</ele>
        <time>2018-09-15T09:38:20Z</time>
      </trkpt>
      <trkpt lat="45.96213" lon="4.87413">
        <ele>283</ele>
        <time>2018-09-15T09:38:21Z</time>
      </trkpt>
      <trkpt lat="45.96218" lon="4.87409">
        <ele>283</ele>
        <time>2018-09-15T09:38:22Z</time>
      </trkpt>
      <trkpt lat="45.96222" lon="4.87404">
        <ele>283</ele>
        <time>2018-09-15T09:38:23Z</time>
      </trkpt>
      <trkpt lat="45.96226" lon="4.87397">
        <ele>283</ele>
        <time>2018-09-15T09:38:24Z</time>
      </trkpt>
      <trkpt lat="45.9623" lon="4.87392">
        <ele>283</ele>
        <time>2018-09-15T09:38:25Z</time>
      </trkpt>
      <trkpt lat="45.96234" lon="4.87387">
        <ele>283</ele>
        <time>2018-09-15T09:38:26Z</time>
      </trkpt>
      <trkpt lat="45.96238" lon="4.87382">
        <ele>283</ele>
        <time>2018-09-15T09:38:27Z</time>
      </trkpt>
      <trkpt lat="45.96243" lon="4.87378">
        <ele>283</ele>
        <time>2018-09-15T09:38:28Z</time>
      </trkpt>
      <trkpt lat="45.96246" lon="4.87373">
        <ele>283</ele>
        <time>2018-09-15T09:38:29Z</time>
      </trkpt>
      <trkpt lat="45.96251" lon="4.87367">
        <ele>283</ele>
        <time>2018-09-15T09:38:30Z</time>
      </trkpt>
      <trkpt lat="45.96256" lon="4.87361">
        <ele>283</ele>
        <time>2018-09-15T09:38:31Z</time>
      </trkpt>
      <trkpt lat="45.9626" lon="4.87357">
        <ele>283</ele>
        <time>2018-09-15T09:38:32Z</time>
      </trkpt>
      <trkpt lat="45.96263" lon="4.87351">
        <ele>283</ele>
        <time>2018-09-15T09:38:33Z</time>
      </trkpt>
      <trkpt lat="45.96267" lon="4.87347">
        <ele>283</ele>
        <time>2018-09-15T09:38:34Z</time>
      </trkpt>
      <trkpt lat="45.96271" lon="4.87342">
        <ele>283</ele>
        <time>2018-09-15T09:38:35Z</time>
      </trkpt>
      <trkpt lat="45.96275" lon="4.87337">
        <ele>283</ele>
        <time>2018-09-15T09:38:36Z</time>
      </trkpt>
      <trkpt lat="45.9628" lon="4.87332">
        <ele>283</ele>
        <time>2018-09-15T09:38:37Z</time>
      </trkpt>
      <trkpt lat="45.96284" lon="4.87327">
        <ele>283</ele>
        <time>2018-09-15T09:38:38Z</time>
      </trkpt>
      <trkpt lat="45.96289" lon="4.87322">
        <ele>283</ele>
        <time>2018-09-15T09:38:39Z</time>
      </trkpt>
      <trkpt lat="45.96293" lon="4.87317">
        <ele>283</ele>
        <time>2018-09-15T09:38:40Z</time>
      </trkpt>
      <trkpt lat="45.96298" lon="4.87311">
        <ele>283</ele>
        <time>2018-09-15T09:38:41Z</time>
      </trkpt>
      <trkpt lat="45.96301" lon="4.87306">
        <ele>283</ele>
        <time>2018-09-15T09:38:42Z</time>
      </trkpt>
      <trkpt lat="45.96305" lon="4.87301">
        <ele>283</ele>
        <time>2018-09-15T09:38:43Z</time>
      </trkpt>
      <trkpt lat="45.96308" lon="4.87296">
        <ele>283</ele>
        <time>2018-09-15T09:38:44Z</time>
      </trkpt>
      <trkpt lat="45.96312" lon="4.87292">
        <ele>283</ele>
        <time>2018-09-15T09:38:45Z</time>
      </trkpt>
      <trkpt lat="45.96315" lon="4.87288">
        <ele>283</ele>
        <time>2018-09-15T09:38:46Z</time>
      </trkpt>
      <trkpt lat="45.96321" lon="4.87281">
        <ele>283</ele>
        <time>2018-09-15T09:38:48Z</time>
      </trkpt>
      <trkpt lat="45.96324" lon="4.87277">
        <ele>283</ele>
        <time>2018-09-15T09:38:49Z</time>
      </trkpt>
      <trkpt lat="45.96327" lon="4.87271">
        <ele>283</ele>
        <time>2018-09-15T09:38:50Z</time>
      </trkpt>
      <trkpt lat="45.9633" lon="4.87267">
        <ele>283</ele>
        <time>2018-09-15T09:38:51Z</time>
      </trkpt>
      <trkpt lat="45.96334" lon="4.8726">
        <ele>283</ele>
        <time>2018-09-15T09:38:52Z</time>
      </trkpt>
      <trkpt lat="45.96338" lon="4.87255">
        <ele>283</ele>
        <time>2018-09-15T09:38:53Z</time>
      </trkpt>
      <trkpt lat="45.96342" lon="4.87251">
        <ele>283</ele>
        <time>2018-09-15T09:38:54Z</time>
      </trkpt>
      <trkpt lat="45.96346" lon="4.87244">
        <ele>283</ele>
        <time>2018-09-15T09:38:55Z</time>
      </trkpt>
      <trkpt lat="45.9635" lon="4.87238">
        <ele>282</ele>
        <time>2018-09-15T09:38:56Z</time>
      </trkpt>
      <trkpt lat="45.96354" lon="4.87233">
        <ele>282</ele>
        <time>2018-09-15T09:38:57Z</time>
      </trkpt>
      <trkpt lat="45.96358" lon="4.87228">
        <ele>282</ele>
        <time>2018-09-15T09:38:58Z</time>
      </trkpt>
      <trkpt lat="45.9636" lon="4.87224">
        <ele>282</ele>
        <time>2018-09-15T09:38:59Z</time>
      </trkpt>
      <trkpt lat="45.96364" lon="4.87216">
        <ele>282</ele>
        <time>2018-09-15T09:39:00Z</time>
      </trkpt>
      <trkpt lat="45.96366" lon="4.8721">
        <ele>282</ele>
        <time>2018-09-15T09:39:01Z</time>
      </trkpt>
      <trkpt lat="45.9637" lon="4.87206">
        <ele>282</ele>
        <time>2018-09-15T09:39:02Z</time>
      </trkpt>
      <trkpt lat="45.96374" lon="4.87202">
        <ele>282</ele>
        <time>2018-09-15T09:39:03Z</time>
      </trkpt>
      <trkpt lat="45.96379" lon="4.87198">
        <ele>282</ele>
        <time>2018-09-15T09:39:04Z</time>
      </trkpt>
      <trkpt lat="45.96384" lon="4.87192">
        <ele>282</ele>
        <time>2018-09-15T09:39:05Z</time>
      </trkpt>
      <trkpt lat="45.96389" lon="4.87186">
        <ele>282</ele>
        <time>2018-09-15T09:39:06Z</time>
      </trkpt>
      <trkpt lat="45.96393" lon="4.87181">
        <ele>282</ele>
        <time>2018-09-15T09:39:07Z</time>
      </trkpt>
      <trkpt lat="45.96397" lon="4.87175">
        <ele>282</ele>
        <time>2018-09-15T09:39:08Z</time>
      </trkpt>
      <trkpt lat="45.96401" lon="4.87171">
        <ele>281</ele>
        <time>2018-09-15T09:39:09Z</time>
      </trkpt>
      <trkpt lat="45.96406" lon="4.87165">
        <ele>281</ele>
        <time>2018-09-15T09:39:10Z</time>
      </trkpt>
      <trkpt lat="45.9641" lon="4.87159">
        <ele>281</ele>
        <time>2018-09-15T09:39:11Z</time>
      </trkpt>
      <trkpt lat="45.96414" lon="4.87154">
        <ele>281</ele>
        <time>2018-09-15T09:39:12Z</time>
      </trkpt>
      <trkpt lat="45.96417" lon="4.87149">
        <ele>281</ele>
        <time>2018-09-15T09:39:13Z</time>
      </trkpt>
      <trkpt lat="45.9642" lon="4.87145">
        <ele>281</ele>
        <time>2018-09-15T09:39:14Z</time>
      </trkpt>
      <trkpt lat="45.96425" lon="4.8714">
        <ele>281</ele>
        <time>2018-09-15T09:39:15Z</time>
      </trkpt>
      <trkpt lat="45.9643" lon="4.87135">
        <ele>281</ele>
        <time>2018-09-15T09:39:16Z</time>
      </trkpt>
      <trkpt lat="45.96433" lon="4.8713">
        <ele>281</ele>
        <time>2018-09-15T09:39:17Z</time>
      </trkpt>
      <trkpt lat="45.96436" lon="4.87127">
        <ele>281</ele>
        <time>2018-09-15T09:39:18Z</time>
      </trkpt>
      <trkpt lat="45.96439" lon="4.8712">
        <ele>281</ele>
        <time>2018-09-15T09:39:19Z</time>
      </trkpt>
      <trkpt lat="45.96443" lon="4.87117">
        <ele>281</ele>
        <time>2018-09-15T09:39:20Z</time>
      </trkpt>
      <trkpt lat="45.96447" lon="4.87111">
        <ele>281</ele>
        <time>2018-09-15T09:39:21Z</time>
      </trkpt>
      <trkpt lat="45.96455" lon="4.87104">
        <ele>281</ele>
        <time>2018-09-15T09:39:23Z</time>
      </trkpt>
      <trkpt lat="45.96458" lon="4.871">
        <ele>281</ele>
        <time>2018-09-15T09:39:24Z</time>
      </trkpt>
      <trkpt lat="45.96464" lon="4.87092">
        <ele>282</ele>
        <time>2018-09-15T09:39:26Z</time>
      </trkpt>
      <trkpt lat="45.96466" lon="4.87087">
        <ele>282</ele>
        <time>2018-09-15T09:39:27Z</time>
      </trkpt>
      <trkpt lat="45.9647" lon="4.87081">
        <ele>281</ele>
        <time>2018-09-15T09:39:28Z</time>
      </trkpt>
      <trkpt lat="45.96473" lon="4.87077">
        <ele>281</ele>
        <time>2018-09-15T09:39:29Z</time>
      </trkpt>
      <trkpt lat="45.96476" lon="4.87073">
        <ele>281</ele>
        <time>2018-09-15T09:39:30Z</time>
      </trkpt>
      <trkpt lat="45.96481" lon="4.87068">
        <ele>282</ele>
        <time>2018-09-15T09:39:31Z</time>
      </trkpt>
      <trkpt lat="45.96484" lon="4.87064">
        <ele>282</ele>
        <time>2018-09-15T09:39:32Z</time>
      </trkpt>
      <trkpt lat="45.96488" lon="4.87058">
        <ele>281</ele>
        <time>2018-09-15T09:39:33Z</time>
      </trkpt>
      <trkpt lat="45.96493" lon="4.8705">
        <ele>281</ele>
        <time>2018-09-15T09:39:35Z</time>
      </trkpt>
      <trkpt lat="45.96495" lon="4.87048">
        <ele>281</ele>
        <time>2018-09-15T09:39:36Z</time>
      </trkpt>
      <trkpt lat="45.96502" lon="4.87043">
        <ele>282</ele>
        <time>2018-09-15T09:39:39Z</time>
      </trkpt>
      <trkpt lat="45.96504" lon="4.87044">
        <ele>282</ele>
        <time>2018-09-15T09:39:40Z</time>
      </trkpt>
      <trkpt lat="45.96509" lon="4.87052">
        <ele>283</ele>
        <time>2018-09-15T09:39:43Z</time>
      </trkpt>
      <trkpt lat="45.96511" lon="4.87055">
        <ele>283</ele>
        <time>2018-09-15T09:39:44Z</time>
      </trkpt>
      <trkpt lat="45.96515" lon="4.87065">
        <ele>283</ele>
        <time>2018-09-15T09:39:47Z</time>
      </trkpt>
      <trkpt lat="45.96524" lon="4.87069">
        <ele>283</ele>
        <time>2018-09-15T09:39:48Z</time>
      </trkpt>
      <trkpt lat="45.96531" lon="4.87065">
        <ele>283</ele>
        <time>2018-09-15T09:39:53Z</time>
      </trkpt>
      <trkpt lat="45.96533" lon="4.87064">
        <ele>283</ele>
        <time>2018-09-15T09:39:54Z</time>
      </trkpt>
      <trkpt lat="45.96539" lon="4.8707">
        <ele>283</ele>
        <time>2018-09-15T09:40:00Z</time>
      </trkpt>
      <trkpt lat="45.96541" lon="4.87072">
        <ele>283</ele>
        <time>2018-09-15T09:40:01Z</time>
      </trkpt>
      <trkpt lat="45.96547" lon="4.87076">
        <ele>283</ele>
        <time>2018-09-15T09:40:05Z</time>
      </trkpt>
      <trkpt lat="45.96549" lon="4.87076">
        <ele>283</ele>
        <time>2018-09-15T09:40:06Z</time>
      </trkpt>
      <trkpt lat="45.96558" lon="4.87072">
        <ele>283</ele>
        <time>2018-09-15T09:40:10Z</time>
      </trkpt>
      <trkpt lat="45.96559" lon="4.87068">
        <ele>283</ele>
        <time>2018-09-15T09:40:11Z</time>
      </trkpt>
      <trkpt lat="45.9656" lon="4.87063">
        <ele>283</ele>
        <time>2018-09-15T09:40:12Z</time>
      </trkpt>
      <trkpt lat="45.96559" lon="4.87049">
        <ele>283</ele>
        <time>2018-09-15T09:40:13Z</time>
      </trkpt>
      <trkpt lat="45.96558" lon="4.87039">
        <ele>283</ele>
        <time>2018-09-15T09:40:16Z</time>
      </trkpt>
      <trkpt lat="45.96558" lon="4.87035">
        <ele>283</ele>
        <time>2018-09-15T09:40:17Z</time>
      </trkpt>
      <trkpt lat="45.96553" lon="4.87026">
        <ele>283</ele>
        <time>2018-09-15T09:40:20Z</time>
      </trkpt>
      <trkpt lat="45.96551" lon="4.87025">
        <ele>283</ele>
        <time>2018-09-15T09:40:21Z</time>
      </trkpt>
      <trkpt lat="45.96544" lon="4.87026">
        <ele>283</ele>
        <time>2018-09-15T09:40:24Z</time>
      </trkpt>
      <trkpt lat="45.96541" lon="4.87027">
        <ele>283</ele>
        <time>2018-09-15T09:40:25Z</time>
      </trkpt>
      <trkpt lat="45.96533" lon="4.87029">
        <ele>283</ele>
        <time>2018-09-15T09:41:11Z</time>
      </trkpt>
      <trkpt lat="45.96532" lon="4.87028">
        <ele>283</ele>
        <time>2018-09-15T09:41:12Z</time>
      </trkpt>
      <trkpt lat="45.96537" lon="4.8702">
        <ele>283</ele>
        <time>2018-09-15T09:49:18Z</time>
      </trkpt>
      <trkpt lat="45.96539" lon="4.87019">
        <ele>283</ele>
        <time>2018-09-15T09:49:19Z</time>
      </trkpt>
      <trkpt lat="45.96541" lon="4.87007">
        <ele>283</ele>
        <time>2018-09-15T09:49:22Z</time>
      </trkpt>
      <trkpt lat="45.96541" lon="4.87005">
        <ele>283</ele>
        <time>2018-09-15T09:49:23Z</time>
      </trkpt>
      <trkpt lat="45.96545" lon="4.86994">
        <ele>283</ele>
        <time>2018-09-15T09:49:27Z</time>
      </trkpt>
      <trkpt lat="45.96547" lon="4.86992">
        <ele>283</ele>
        <time>2018-09-15T09:49:28Z</time>
      </trkpt>
      <trkpt lat="45.96553" lon="4.86985">
        <ele>283</ele>
        <time>2018-09-15T09:49:32Z</time>
      </trkpt>
      <trkpt lat="45.96555" lon="4.86983">
        <ele>283</ele>
        <time>2018-09-15T09:49:33Z</time>
      </trkpt>
      <trkpt lat="45.96559" lon="4.86977">
        <ele>283</ele>
        <time>2018-09-15T09:49:35Z</time>
      </trkpt>
      <trkpt lat="45.96563" lon="4.86967">
        <ele>284</ele>
        <time>2018-09-15T09:49:36Z</time>
      </trkpt>
      <trkpt lat="45.96568" lon="4.86958">
        <ele>284</ele>
        <time>2018-09-15T09:49:38Z</time>
      </trkpt>
      <trkpt lat="45.9657" lon="4.86954">
        <ele>284</ele>
        <time>2018-09-15T09:49:39Z</time>
      </trkpt>
      <trkpt lat="45.96575" lon="4.86945">
        <ele>284</ele>
        <time>2018-09-15T09:49:41Z</time>
      </trkpt>
      <trkpt lat="45.96578" lon="4.8694">
        <ele>284</ele>
        <time>2018-09-15T09:49:42Z</time>
      </trkpt>
      <trkpt lat="45.96583" lon="4.8693">
        <ele>284</ele>
        <time>2018-09-15T09:49:46Z</time>
      </trkpt>
      <trkpt lat="45.96588" lon="4.86921">
        <ele>285</ele>
        <time>2018-09-15T09:49:47Z</time>
      </trkpt>
      <trkpt lat="45.96593" lon="4.86912">
        <ele>286</ele>
        <time>2018-09-15T09:49:49Z</time>
      </trkpt>
      <trkpt lat="45.96595" lon="4.86907">
        <ele>286</ele>
        <time>2018-09-15T09:49:50Z</time>
      </trkpt>
      <trkpt lat="45.96601" lon="4.869">
        <ele>286</ele>
        <time>2018-09-15T09:49:53Z</time>
      </trkpt>
      <trkpt lat="45.96602" lon="4.86897">
        <ele>286</ele>
        <time>2018-09-15T09:49:54Z</time>
      </trkpt>
      <trkpt lat="45.96608" lon="4.86888">
        <ele>287</ele>
        <time>2018-09-15T09:49:57Z</time>
      </trkpt>
      <trkpt lat="45.9661" lon="4.86885">
        <ele>287</ele>
        <time>2018-09-15T09:49:58Z</time>
      </trkpt>
      <trkpt lat="45.96614" lon="4.86878">
        <ele>287</ele>
        <time>2018-09-15T09:50:00Z</time>
      </trkpt>
      <trkpt lat="45.96616" lon="4.86874">
        <ele>287</ele>
        <time>2018-09-15T09:50:01Z</time>
      </trkpt>
      <trkpt lat="45.9662" lon="4.86868">
        <ele>287</ele>
        <time>2018-09-15T09:50:03Z</time>
      </trkpt>
      <trkpt lat="45.96622" lon="4.86865">
        <ele>287</ele>
        <time>2018-09-15T09:50:04Z</time>
      </trkpt>
      <trkpt lat="45.96629" lon="4.86855">
        <ele>287</ele>
        <time>2018-09-15T09:50:05Z</time>
      </trkpt>
      <trkpt lat="45.96634" lon="4.86846">
        <ele>287</ele>
        <time>2018-09-15T09:50:08Z</time>
      </trkpt>
      <trkpt lat="45.96639" lon="4.86839">
        <ele>287</ele>
        <time>2018-09-15T09:50:09Z</time>
      </trkpt>
      <trkpt lat="45.96642" lon="4.86834">
        <ele>287</ele>
        <time>2018-09-15T09:50:10Z</time>
      </trkpt>
      <trkpt lat="45.96647" lon="4.86829">
        <ele>288</ele>
        <time>2018-09-15T09:50:11Z</time>
      </trkpt>
      <trkpt lat="45.96652" lon="4.8682">
        <ele>288</ele>
        <time>2018-09-15T09:50:13Z</time>
      </trkpt>
      <trkpt lat="45.96654" lon="4.86814">
        <ele>288</ele>
        <time>2018-09-15T09:50:14Z</time>
      </trkpt>
      <trkpt lat="45.9666" lon="4.86806">
        <ele>288</ele>
        <time>2018-09-15T09:50:17Z</time>
      </trkpt>
      <trkpt lat="45.96661" lon="4.86803">
        <ele>288</ele>
        <time>2018-09-15T09:50:18Z</time>
      </trkpt>
      <trkpt lat="45.96663" lon="4.868">
        <ele>288</ele>
        <time>2018-09-15T09:50:19Z</time>
      </trkpt>
      <trkpt lat="45.96669" lon="4.86791">
        <ele>289</ele>
        <time>2018-09-15T09:50:20Z</time>
      </trkpt>
      <trkpt lat="45.96674" lon="4.86782">
        <ele>289</ele>
        <time>2018-09-15T09:50:22Z</time>
      </trkpt>
      <trkpt lat="45.96676" lon="4.86777">
        <ele>289</ele>
        <time>2018-09-15T09:50:23Z</time>
      </trkpt>
      <trkpt lat="45.96679" lon="4.86772">
        <ele>289</ele>
        <time>2018-09-15T09:50:24Z</time>
      </trkpt>
      <trkpt lat="45.96683" lon="4.86767">
        <ele>289</ele>
        <time>2018-09-15T09:50:25Z</time>
      </trkpt>
      <trkpt lat="45.96687" lon="4.86761">
        <ele>289</ele>
        <time>2018-09-15T09:50:26Z</time>
      </trkpt>
      <trkpt lat="45.96689" lon="4.86757">
        <ele>289</ele>
        <time>2018-09-15T09:50:27Z</time>
      </trkpt>
      <trkpt lat="45.96694" lon="4.86747">
        <ele>289</ele>
        <time>2018-09-15T09:50:30Z</time>
      </trkpt>
      <trkpt lat="45.96696" lon="4.86744">
        <ele>289</ele>
        <time>2018-09-15T09:50:31Z</time>
      </trkpt>
      <trkpt lat="45.96698" lon="4.86741">
        <ele>289</ele>
        <time>2018-09-15T09:50:32Z</time>
      </trkpt>
      <trkpt lat="45.96703" lon="4.86732">
        <ele>289</ele>
        <time>2018-09-15T09:50:33Z</time>
      </trkpt>
      <trkpt lat="45.96706" lon="4.86726">
        <ele>289</ele>
        <time>2018-09-15T09:50:35Z</time>
      </trkpt>
      <trkpt lat="45.9671" lon="4.86718">
        <ele>289</ele>
        <time>2018-09-15T09:50:36Z</time>
      </trkpt>
      <trkpt lat="45.96716" lon="4.8671">
        <ele>289</ele>
        <time>2018-09-15T09:50:38Z</time>
      </trkpt>
      <trkpt lat="45.96718" lon="4.86705">
        <ele>289</ele>
        <time>2018-09-15T09:50:39Z</time>
      </trkpt>
      <trkpt lat="45.96724" lon="4.86696">
        <ele>289</ele>
        <time>2018-09-15T09:50:41Z</time>
      </trkpt>
      <trkpt lat="45.96727" lon="4.86691">
        <ele>289</ele>
        <time>2018-09-15T09:50:42Z</time>
      </trkpt>
      <trkpt lat="45.96732" lon="4.86681">
        <ele>290</ele>
        <time>2018-09-15T09:50:44Z</time>
      </trkpt>
      <trkpt lat="45.96734" lon="4.86677">
        <ele>290</ele>
        <time>2018-09-15T09:50:45Z</time>
      </trkpt>
      <trkpt lat="45.9674" lon="4.86668">
        <ele>290</ele>
        <time>2018-09-15T09:50:47Z</time>
      </trkpt>
      <trkpt lat="45.96744" lon="4.86664">
        <ele>290</ele>
        <time>2018-09-15T09:50:48Z</time>
      </trkpt>
      <trkpt lat="45.96749" lon="4.86655">
        <ele>290</ele>
        <time>2018-09-15T09:50:50Z</time>
      </trkpt>
      <trkpt lat="45.96753" lon="4.86649">
        <ele>290</ele>
        <time>2018-09-15T09:50:51Z</time>
      </trkpt>
      <trkpt lat="45.96757" lon="4.86643">
        <ele>290</ele>
        <time>2018-09-15T09:50:53Z</time>
      </trkpt>
      <trkpt lat="45.96761" lon="4.86638">
        <ele>290</ele>
        <time>2018-09-15T09:50:54Z</time>
      </trkpt>
      <trkpt lat="45.96764" lon="4.86627">
        <ele>289</ele>
        <time>2018-09-15T09:50:56Z</time>
      </trkpt>
      <trkpt lat="45.96766" lon="4.86623">
        <ele>289</ele>
        <time>2018-09-15T09:50:57Z</time>
      </trkpt>
      <trkpt lat="45.96769" lon="4.86618">
        <ele>289</ele>
        <time>2018-09-15T09:50:58Z</time>
      </trkpt>
      <trkpt lat="45.96772" lon="4.86613">
        <ele>289</ele>
        <time>2018-09-15T09:50:59Z</time>
      </trkpt>
      <trkpt lat="45.96777" lon="4.86602">
        <ele>289</ele>
        <time>2018-09-15T09:51:01Z</time>
      </trkpt>
      <trkpt lat="45.96779" lon="4.86598">
        <ele>289</ele>
        <time>2018-09-15T09:51:02Z</time>
      </trkpt>
      <trkpt lat="45.96784" lon="4.8659">
        <ele>289</ele>
        <time>2018-09-15T09:51:05Z</time>
      </trkpt>
      <trkpt lat="45.96786" lon="4.86587">
        <ele>289</ele>
        <time>2018-09-15T09:51:06Z</time>
      </trkpt>
      <trkpt lat="45.96791" lon="4.86581">
        <ele>290</ele>
        <time>2018-09-15T09:51:07Z</time>
      </trkpt>
      <trkpt lat="45.96793" lon="4.86576">
        <ele>290</ele>
        <time>2018-09-15T09:51:08Z</time>
      </trkpt>
      <trkpt lat="45.96798" lon="4.86567">
        <ele>290</ele>
        <time>2018-09-15T09:51:10Z</time>
      </trkpt>
      <trkpt lat="45.96801" lon="4.86563">
        <ele>290</ele>
        <time>2018-09-15T09:51:11Z</time>
      </trkpt>
      <trkpt lat="45.96804" lon="4.86558">
        <ele>290</ele>
        <time>2018-09-15T09:51:12Z</time>
      </trkpt>
      <trkpt lat="45.96808" lon="4.86552">
        <ele>290</ele>
        <time>2018-09-15T09:51:13Z</time>
      </trkpt>
      <trkpt lat="45.96814" lon="4.86542">
        <ele>290</ele>
        <time>2018-09-15T09:51:15Z</time>
      </trkpt>
      <trkpt lat="45.96817" lon="4.86538">
        <ele>290</ele>
        <time>2018-09-15T09:51:16Z</time>
      </trkpt>
      <trkpt lat="45.96823" lon="4.86528">
        <ele>289</ele>
        <time>2018-09-15T09:51:18Z</time>
      </trkpt>
      <trkpt lat="45.96825" lon="4.86525">
        <ele>289</ele>
        <time>2018-09-15T09:51:19Z</time>
      </trkpt>
      <trkpt lat="45.96828" lon="4.8652">
        <ele>289</ele>
        <time>2018-09-15T09:51:20Z</time>
      </trkpt>
      <trkpt lat="45.96831" lon="4.86515">
        <ele>289</ele>
        <time>2018-09-15T09:51:21Z</time>
      </trkpt>
      <trkpt lat="45.96834" lon="4.86509">
        <ele>289</ele>
        <time>2018-09-15T09:51:22Z</time>
      </trkpt>
      <trkpt lat="45.96837" lon="4.86504">
        <ele>289</ele>
        <time>2018-09-15T09:51:23Z</time>
      </trkpt>
      <trkpt lat="45.96842" lon="4.86494">
        <ele>289</ele>
        <time>2018-09-15T09:51:25Z</time>
      </trkpt>
      <trkpt lat="45.96844" lon="4.86488">
        <ele>289</ele>
        <time>2018-09-15T09:51:26Z</time>
      </trkpt>
      <trkpt lat="45.96846" lon="4.86478">
        <ele>289</ele>
        <time>2018-09-15T09:51:28Z</time>
      </trkpt>
      <trkpt lat="45.96847" lon="4.86475">
        <ele>289</ele>
        <time>2018-09-15T09:51:29Z</time>
      </trkpt>
      <trkpt lat="45.96849" lon="4.86465">
        <ele>289</ele>
        <time>2018-09-15T09:51:32Z</time>
      </trkpt>
      <trkpt lat="45.96849" lon="4.86455">
        <ele>289</ele>
        <time>2018-09-15T09:51:33Z</time>
      </trkpt>
      <trkpt lat="45.96852" lon="4.86444">
        <ele>290</ele>
        <time>2018-09-15T09:51:35Z</time>
      </trkpt>
      <trkpt lat="45.96854" lon="4.86438">
        <ele>290</ele>
        <time>2018-09-15T09:51:36Z</time>
      </trkpt>
      <trkpt lat="45.96855" lon="4.86432">
        <ele>290</ele>
        <time>2018-09-15T09:51:37Z</time>
      </trkpt>
      <trkpt lat="45.96857" lon="4.86424">
        <ele>290</ele>
        <time>2018-09-15T09:51:38Z</time>
      </trkpt>
      <trkpt lat="45.96857" lon="4.86412">
        <ele>291</ele>
        <time>2018-09-15T09:51:40Z</time>
      </trkpt>
      <trkpt lat="45.96858" lon="4.86407">
        <ele>290</ele>
        <time>2018-09-15T09:51:41Z</time>
      </trkpt>
      <trkpt lat="45.9686" lon="4.86396">
        <ele>290</ele>
        <time>2018-09-15T09:51:43Z</time>
      </trkpt>
      <trkpt lat="45.96861" lon="4.8639">
        <ele>290</ele>
        <time>2018-09-15T09:51:44Z</time>
      </trkpt>
      <trkpt lat="45.96862" lon="4.86378">
        <ele>290</ele>
        <time>2018-09-15T09:51:46Z</time>
      </trkpt>
      <trkpt lat="45.96863" lon="4.86372">
        <ele>290</ele>
        <time>2018-09-15T09:51:47Z</time>
      </trkpt>
      <trkpt lat="45.96865" lon="4.8636">
        <ele>290</ele>
        <time>2018-09-15T09:51:49Z</time>
      </trkpt>
      <trkpt lat="45.96866" lon="4.86355">
        <ele>290</ele>
        <time>2018-09-15T09:51:50Z</time>
      </trkpt>
      <trkpt lat="45.96867" lon="4.86346">
        <ele>290</ele>
        <time>2018-09-15T09:51:53Z</time>
      </trkpt>
      <trkpt lat="45.96868" lon="4.86342">
        <ele>290</ele>
        <time>2018-09-15T09:51:54Z</time>
      </trkpt>
      <trkpt lat="45.96869" lon="4.86337">
        <ele>290</ele>
        <time>2018-09-15T09:51:55Z</time>
      </trkpt>
      <trkpt lat="45.9687" lon="4.86326">
        <ele>289</ele>
        <time>2018-09-15T09:51:56Z</time>
      </trkpt>
      <trkpt lat="45.96871" lon="4.86315">
        <ele>289</ele>
        <time>2018-09-15T09:51:58Z</time>
      </trkpt>
      <trkpt lat="45.96871" lon="4.86309">
        <ele>289</ele>
        <time>2018-09-15T09:51:59Z</time>
      </trkpt>
      <trkpt lat="45.96873" lon="4.86298">
        <ele>289</ele>
        <time>2018-09-15T09:52:01Z</time>
      </trkpt>
      <trkpt lat="45.96874" lon="4.86293">
        <ele>289</ele>
        <time>2018-09-15T09:52:02Z</time>
      </trkpt>
      <trkpt lat="45.96876" lon="4.86282">
        <ele>289</ele>
        <time>2018-09-15T09:52:04Z</time>
      </trkpt>
      <trkpt lat="45.96877" lon="4.86276">
        <ele>289</ele>
        <time>2018-09-15T09:52:05Z</time>
      </trkpt>
      <trkpt lat="45.96878" lon="4.86265">
        <ele>288</ele>
        <time>2018-09-15T09:52:07Z</time>
      </trkpt>
      <trkpt lat="45.96879" lon="4.8626">
        <ele>288</ele>
        <time>2018-09-15T09:52:08Z</time>
      </trkpt>
      <trkpt lat="45.9688" lon="4.86251">
        <ele>288</ele>
        <time>2018-09-15T09:52:11Z</time>
      </trkpt>
      <trkpt lat="45.96881" lon="4.86247">
        <ele>289</ele>
        <time>2018-09-15T09:52:12Z</time>
      </trkpt>
      <trkpt lat="45.96883" lon="4.86235">
        <ele>289</ele>
        <time>2018-09-15T09:52:15Z</time>
      </trkpt>
      <trkpt lat="45.96885" lon="4.86221">
        <ele>289</ele>
        <time>2018-09-15T09:52:16Z</time>
      </trkpt>
      <trkpt lat="45.96886" lon="4.8621">
        <ele>289</ele>
        <time>2018-09-15T09:52:18Z</time>
      </trkpt>
      <trkpt lat="45.96887" lon="4.86204">
        <ele>289</ele>
        <time>2018-09-15T09:52:19Z</time>
      </trkpt>
      <trkpt lat="45.96888" lon="4.86196">
        <ele>289</ele>
        <time>2018-09-15T09:52:20Z</time>
      </trkpt>
      <trkpt lat="45.96889" lon="4.8619">
        <ele>289</ele>
        <time>2018-09-15T09:52:21Z</time>
      </trkpt>
      <trkpt lat="45.9689" lon="4.86184">
        <ele>289</ele>
        <time>2018-09-15T09:52:22Z</time>
      </trkpt>
      <trkpt lat="45.96891" lon="4.86177">
        <ele>289</ele>
        <time>2018-09-15T09:52:23Z</time>
      </trkpt>
      <trkpt lat="45.96891" lon="4.86171">
        <ele>289</ele>
        <time>2018-09-15T09:52:24Z</time>
      </trkpt>
      <trkpt lat="45.96893" lon="4.86164">
        <ele>289</ele>
        <time>2018-09-15T09:52:25Z</time>
      </trkpt>
      <trkpt lat="45.96894" lon="4.86158">
        <ele>289</ele>
        <time>2018-09-15T09:52:26Z</time>
      </trkpt>
      <trkpt lat="45.96893" lon="4.86151">
        <ele>289</ele>
        <time>2018-09-15T09:52:27Z</time>
      </trkpt>
      <trkpt lat="45.96894" lon="4.86139">
        <ele>289</ele>
        <time>2018-09-15T09:52:29Z</time>
      </trkpt>
      <trkpt lat="45.96894" lon="4.86132">
        <ele>289</ele>
        <time>2018-09-15T09:52:30Z</time>
      </trkpt>
      <trkpt lat="45.96896" lon="4.86125">
        <ele>289</ele>
        <time>2018-09-15T09:52:31Z</time>
      </trkpt>
      <trkpt lat="45.96897" lon="4.86118">
        <ele>289</ele>
        <time>2018-09-15T09:52:32Z</time>
      </trkpt>
      <trkpt lat="45.96896" lon="4.86111">
        <ele>289</ele>
        <time>2018-09-15T09:52:33Z</time>
      </trkpt>
      <trkpt lat="45.96897" lon="4.86103">
        <ele>289</ele>
        <time>2018-09-15T09:52:34Z</time>
      </trkpt>
      <trkpt lat="45.96897" lon="4.86095">
        <ele>288</ele>
        <time>2018-09-15T09:52:35Z</time>
      </trkpt>
      <trkpt lat="45.96898" lon="4.86088">
        <ele>288</ele>
        <time>2018-09-15T09:52:36Z</time>
      </trkpt>
      <trkpt lat="45.96898" lon="4.86082">
        <ele>288</ele>
        <time>2018-09-15T09:52:37Z</time>
      </trkpt>
      <trkpt lat="45.96899" lon="4.86075">
        <ele>288</ele>
        <time>2018-09-15T09:52:38Z</time>
      </trkpt>
      <trkpt lat="45.969" lon="4.86068">
        <ele>288</ele>
        <time>2018-09-15T09:52:39Z</time>
      </trkpt>
      <trkpt lat="45.96901" lon="4.8606">
        <ele>289</ele>
        <time>2018-09-15T09:52:40Z</time>
      </trkpt>
      <trkpt lat="45.96902" lon="4.86053">
        <ele>289</ele>
        <time>2018-09-15T09:52:41Z</time>
      </trkpt>
      <trkpt lat="45.96904" lon="4.86046">
        <ele>289</ele>
        <time>2018-09-15T09:52:42Z</time>
      </trkpt>
      <trkpt lat="45.96903" lon="4.86038">
        <ele>289</ele>
        <time>2018-09-15T09:52:43Z</time>
      </trkpt>
      <trkpt lat="45.96906" lon="4.86032">
        <ele>289</ele>
        <time>2018-09-15T09:52:44Z</time>
      </trkpt>
      <trkpt lat="45.96908" lon="4.86025">
        <ele>289</ele>
        <time>2018-09-15T09:52:45Z</time>
      </trkpt>
      <trkpt lat="45.96909" lon="4.86019">
        <ele>289</ele>
        <time>2018-09-15T09:52:46Z</time>
      </trkpt>
      <trkpt lat="45.96911" lon="4.86012">
        <ele>288</ele>
        <time>2018-09-15T09:52:47Z</time>
      </trkpt>
      <trkpt lat="45.96912" lon="4.86006">
        <ele>288</ele>
        <time>2018-09-15T09:52:48Z</time>
      </trkpt>
      <trkpt lat="45.96914" lon="4.85999">
        <ele>288</ele>
        <time>2018-09-15T09:52:49Z</time>
      </trkpt>
      <trkpt lat="45.96917" lon="4.8599">
        <ele>288</ele>
        <time>2018-09-15T09:52:50Z</time>
      </trkpt>
      <trkpt lat="45.9692" lon="4.85985">
        <ele>287</ele>
        <time>2018-09-15T09:52:51Z</time>
      </trkpt>
      <trkpt lat="45.96922" lon="4.85977">
        <ele>287</ele>
        <time>2018-09-15T09:52:52Z</time>
      </trkpt>
      <trkpt lat="45.96923" lon="4.8597">
        <ele>287</ele>
        <time>2018-09-15T09:52:53Z</time>
      </trkpt>
      <trkpt lat="45.96925" lon="4.85964">
        <ele>287</ele>
        <time>2018-09-15T09:52:54Z</time>
      </trkpt>
      <trkpt lat="45.96926" lon="4.85956">
        <ele>287</ele>
        <time>2018-09-15T09:52:55Z</time>
      </trkpt>
      <trkpt lat="45.96928" lon="4.85948">
        <ele>286</ele>
        <time>2018-09-15T09:52:56Z</time>
      </trkpt>
      <trkpt lat="45.9693" lon="4.8594">
        <ele>286</ele>
        <time>2018-09-15T09:52:57Z</time>
      </trkpt>
      <trkpt lat="45.96932" lon="4.85933">
        <ele>286</ele>
        <time>2018-09-15T09:52:58Z</time>
      </trkpt>
      <trkpt lat="45.96933" lon="4.85925">
        <ele>286</ele>
        <time>2018-09-15T09:52:59Z</time>
      </trkpt>
      <trkpt lat="45.96934" lon="4.85918">
        <ele>286</ele>
        <time>2018-09-15T09:53:00Z</time>
      </trkpt>
      <trkpt lat="45.96934" lon="4.85911">
        <ele>286</ele>
        <time>2018-09-15T09:53:01Z</time>
      </trkpt>
      <trkpt lat="45.96936" lon="4.85904">
        <ele>286</ele>
        <time>2018-09-15T09:53:02Z</time>
      </trkpt>
      <trkpt lat="45.96939" lon="4.85897">
        <ele>285</ele>
        <time>2018-09-15T09:53:03Z</time>
      </trkpt>
      <trkpt lat="45.96941" lon="4.8589">
        <ele>285</ele>
        <time>2018-09-15T09:53:04Z</time>
      </trkpt>
      <trkpt lat="45.96943" lon="4.85884">
        <ele>285</ele>
        <time>2018-09-15T09:53:05Z</time>
      </trkpt>
      <trkpt lat="45.96945" lon="4.85878">
        <ele>285</ele>
        <time>2018-09-15T09:53:06Z</time>
      </trkpt>
      <trkpt lat="45.96946" lon="4.85868">
        <ele>285</ele>
        <time>2018-09-15T09:53:07Z</time>
      </trkpt>
      <trkpt lat="45.96948" lon="4.85862">
        <ele>285</ele>
        <time>2018-09-15T09:53:08Z</time>
      </trkpt>
      <trkpt lat="45.9695" lon="4.85855">
        <ele>285</ele>
        <time>2018-09-15T09:53:09Z</time>
      </trkpt>
      <trkpt lat="45.96951" lon="4.85847">
        <ele>285</ele>
        <time>2018-09-15T09:53:10Z</time>
      </trkpt>
      <trkpt lat="45.96954" lon="4.85839">
        <ele>285</ele>
        <time>2018-09-15T09:53:11Z</time>
      </trkpt>
      <trkpt lat="45.96957" lon="4.8583">
        <ele>285</ele>
        <time>2018-09-15T09:53:12Z</time>
      </trkpt>
      <trkpt lat="45.96959" lon="4.85823">
        <ele>285</ele>
        <time>2018-09-15T09:53:13Z</time>
      </trkpt>
      <trkpt lat="45.96961" lon="4.85816">
        <ele>285</ele>
        <time>2018-09-15T09:53:14Z</time>
      </trkpt>
      <trkpt lat="45.96963" lon="4.85808">
        <ele>285</ele>
        <time>2018-09-15T09:53:15Z</time>
      </trkpt>
      <trkpt lat="45.96965" lon="4.85802">
        <ele>285</ele>
        <time>2018-09-15T09:53:16Z</time>
      </trkpt>
      <trkpt lat="45.96967" lon="4.85795">
        <ele>285</ele>
        <time>2018-09-15T09:53:17Z</time>
      </trkpt>
      <trkpt lat="45.96968" lon="4.85789">
        <ele>285</ele>
        <time>2018-09-15T09:53:18Z</time>
      </trkpt>
      <trkpt lat="45.96967" lon="4.85781">
        <ele>285</ele>
        <time>2018-09-15T09:53:19Z</time>
      </trkpt>
      <trkpt lat="45.96969" lon="4.85775">
        <ele>285</ele>
        <time>2018-09-15T09:53:20Z</time>
      </trkpt>
      <trkpt lat="45.9697" lon="4.85769">
        <ele>285</ele>
        <time>2018-09-15T09:53:21Z</time>
      </trkpt>
      <trkpt lat="45.96972" lon="4.85762">
        <ele>285</ele>
        <time>2018-09-15T09:53:22Z</time>
      </trkpt>
      <trkpt lat="45.96973" lon="4.85756">
        <ele>285</ele>
        <time>2018-09-15T09:53:23Z</time>
      </trkpt>
      <trkpt lat="45.96976" lon="4.8575">
        <ele>285</ele>
        <time>2018-09-15T09:53:24Z</time>
      </trkpt>
      <trkpt lat="45.96979" lon="4.85743">
        <ele>285</ele>
        <time>2018-09-15T09:53:25Z</time>
      </trkpt>
      <trkpt lat="45.96981" lon="4.85736">
        <ele>285</ele>
        <time>2018-09-15T09:53:26Z</time>
      </trkpt>
      <trkpt lat="45.96984" lon="4.85729">
        <ele>285</ele>
        <time>2018-09-15T09:53:27Z</time>
      </trkpt>
      <trkpt lat="45.96986" lon="4.8572">
        <ele>285</ele>
        <time>2018-09-15T09:53:28Z</time>
      </trkpt>
      <trkpt lat="45.96988" lon="4.85712">
        <ele>285</ele>
        <time>2018-09-15T09:53:29Z</time>
      </trkpt>
      <trkpt lat="45.96989" lon="4.85706">
        <ele>285</ele>
        <time>2018-09-15T09:53:30Z</time>
      </trkpt>
      <trkpt lat="45.96993" lon="4.85694">
        <ele>285</ele>
        <time>2018-09-15T09:53:32Z</time>
      </trkpt>
      <trkpt lat="45.96994" lon="4.85688">
        <ele>285</ele>
        <time>2018-09-15T09:53:33Z</time>
      </trkpt>
      <trkpt lat="45.96995" lon="4.85681">
        <ele>286</ele>
        <time>2018-09-15T09:53:34Z</time>
      </trkpt>
      <trkpt lat="45.96996" lon="4.85675">
        <ele>286</ele>
        <time>2018-09-15T09:53:35Z</time>
      </trkpt>
      <trkpt lat="45.96999" lon="4.85668">
        <ele>286</ele>
        <time>2018-09-15T09:53:36Z</time>
      </trkpt>
      <trkpt lat="45.97001" lon="4.85659">
        <ele>285</ele>
        <time>2018-09-15T09:53:37Z</time>
      </trkpt>
      <trkpt lat="45.97003" lon="4.85651">
        <ele>285</ele>
        <time>2018-09-15T09:53:38Z</time>
      </trkpt>
      <trkpt lat="45.97005" lon="4.85642">
        <ele>284</ele>
        <time>2018-09-15T09:53:39Z</time>
      </trkpt>
      <trkpt lat="45.97007" lon="4.85634">
        <ele>284</ele>
        <time>2018-09-15T09:53:40Z</time>
      </trkpt>
      <trkpt lat="45.97009" lon="4.85626">
        <ele>284</ele>
        <time>2018-09-15T09:53:41Z</time>
      </trkpt>
      <trkpt lat="45.97011" lon="4.85619">
        <ele>284</ele>
        <time>2018-09-15T09:53:42Z</time>
      </trkpt>
      <trkpt lat="45.97013" lon="4.85611">
        <ele>284</ele>
        <time>2018-09-15T09:53:43Z</time>
      </trkpt>
      <trkpt lat="45.97014" lon="4.85602">
        <ele>284</ele>
        <time>2018-09-15T09:53:44Z</time>
      </trkpt>
      <trkpt lat="45.97017" lon="4.85593">
        <ele>284</ele>
        <time>2018-09-15T09:53:45Z</time>
      </trkpt>
      <trkpt lat="45.97019" lon="4.85585">
        <ele>284</ele>
        <time>2018-09-15T09:53:46Z</time>
      </trkpt>
      <trkpt lat="45.97021" lon="4.85578">
        <ele>283</ele>
        <time>2018-09-15T09:53:47Z</time>
      </trkpt>
      <trkpt lat="45.97023" lon="4.85568">
        <ele>283</ele>
        <time>2018-09-15T09:53:48Z</time>
      </trkpt>
      <trkpt lat="45.97026" lon="4.85557">
        <ele>283</ele>
        <time>2018-09-15T09:53:49Z</time>
      </trkpt>
      <trkpt lat="45.97028" lon="4.85548">
        <ele>283</ele>
        <time>2018-09-15T09:53:50Z</time>
      </trkpt>
      <trkpt lat="45.97031" lon="4.85539">
        <ele>283</ele>
        <time>2018-09-15T09:53:51Z</time>
      </trkpt>
      <trkpt lat="45.97033" lon="4.85531">
        <ele>282</ele>
        <time>2018-09-15T09:53:52Z</time>
      </trkpt>
      <trkpt lat="45.97035" lon="4.85522">
        <ele>282</ele>
        <time>2018-09-15T09:53:53Z</time>
      </trkpt>
      <trkpt lat="45.97037" lon="4.85514">
        <ele>282</ele>
        <time>2018-09-15T09:53:54Z</time>
      </trkpt>
      <trkpt lat="45.9704" lon="4.85505">
        <ele>282</ele>
        <time>2018-09-15T09:53:55Z</time>
      </trkpt>
      <trkpt lat="45.97043" lon="4.85495">
        <ele>281</ele>
        <time>2018-09-15T09:53:56Z</time>
      </trkpt>
      <trkpt lat="45.97045" lon="4.85487">
        <ele>281</ele>
        <time>2018-09-15T09:53:57Z</time>
      </trkpt>
      <trkpt lat="45.97048" lon="4.85479">
        <ele>281</ele>
        <time>2018-09-15T09:53:58Z</time>
      </trkpt>
      <trkpt lat="45.9705" lon="4.85472">
        <ele>281</ele>
        <time>2018-09-15T09:53:59Z</time>
      </trkpt>
      <trkpt lat="45.97052" lon="4.85463">
        <ele>281</ele>
        <time>2018-09-15T09:54:00Z</time>
      </trkpt>
      <trkpt lat="45.97055" lon="4.85458">
        <ele>281</ele>
        <time>2018-09-15T09:54:01Z</time>
      </trkpt>
      <trkpt lat="45.97057" lon="4.85451">
        <ele>281</ele>
        <time>2018-09-15T09:54:02Z</time>
      </trkpt>
      <trkpt lat="45.9706" lon="4.85443">
        <ele>281</ele>
        <time>2018-09-15T09:54:03Z</time>
      </trkpt>
      <trkpt lat="45.97063" lon="4.85435">
        <ele>281</ele>
        <time>2018-09-15T09:54:04Z</time>
      </trkpt>
      <trkpt lat="45.97067" lon="4.8543">
        <ele>281</ele>
        <time>2018-09-15T09:54:05Z</time>
      </trkpt>
      <trkpt lat="45.97069" lon="4.85422">
        <ele>281</ele>
        <time>2018-09-15T09:54:06Z</time>
      </trkpt>
      <trkpt lat="45.97071" lon="4.85412">
        <ele>281</ele>
        <time>2018-09-15T09:54:07Z</time>
      </trkpt>
      <trkpt lat="45.97074" lon="4.85403">
        <ele>281</ele>
        <time>2018-09-15T09:54:08Z</time>
      </trkpt>
      <trkpt lat="45.97077" lon="4.85394">
        <ele>281</ele>
        <time>2018-09-15T09:54:09Z</time>
      </trkpt>
      <trkpt lat="45.9708" lon="4.85386">
        <ele>281</ele>
        <time>2018-09-15T09:54:10Z</time>
      </trkpt>
      <trkpt lat="45.97082" lon="4.85377">
        <ele>281</ele>
        <time>2018-09-15T09:54:11Z</time>
      </trkpt>
      <trkpt lat="45.97085" lon="4.85368">
        <ele>280</ele>
        <time>2018-09-15T09:54:12Z</time>
      </trkpt>
      <trkpt lat="45.97088" lon="4.85359">
        <ele>280</ele>
        <time>2018-09-15T09:54:13Z</time>
      </trkpt>
      <trkpt lat="45.97092" lon="4.85349">
        <ele>280</ele>
        <time>2018-09-15T09:54:14Z</time>
      </trkpt>
      <trkpt lat="45.97094" lon="4.85341">
        <ele>280</ele>
        <time>2018-09-15T09:54:15Z</time>
      </trkpt>
      <trkpt lat="45.97097" lon="4.85332">
        <ele>280</ele>
        <time>2018-09-15T09:54:16Z</time>
      </trkpt>
      <trkpt lat="45.97099" lon="4.85324">
        <ele>280</ele>
        <time>2018-09-15T09:54:17Z</time>
      </trkpt>
      <trkpt lat="45.97102" lon="4.85316">
        <ele>280</ele>
        <time>2018-09-15T09:54:18Z</time>
      </trkpt>
      <trkpt lat="45.97106" lon="4.85308">
        <ele>280</ele>
        <time>2018-09-15T09:54:19Z</time>
      </trkpt>
      <trkpt lat="45.9711" lon="4.85301">
        <ele>280</ele>
        <time>2018-09-15T09:54:20Z</time>
      </trkpt>
      <trkpt lat="45.97113" lon="4.85294">
        <ele>280</ele>
        <time>2018-09-15T09:54:21Z</time>
      </trkpt>
      <trkpt lat="45.97117" lon="4.85288">
        <ele>280</ele>
        <time>2018-09-15T09:54:22Z</time>
      </trkpt>
      <trkpt lat="45.97121" lon="4.85282">
        <ele>280</ele>
        <time>2018-09-15T09:54:23Z</time>
      </trkpt>
      <trkpt lat="45.97124" lon="4.85277">
        <ele>280</ele>
        <time>2018-09-15T09:54:24Z</time>
      </trkpt>
      <trkpt lat="45.97127" lon="4.85271">
        <ele>279</ele>
        <time>2018-09-15T09:54:25Z</time>
      </trkpt>
      <trkpt lat="45.9713" lon="4.85264">
        <ele>279</ele>
        <time>2018-09-15T09:54:26Z</time>
      </trkpt>
      <trkpt lat="45.97132" lon="4.85257">
        <ele>279</ele>
        <time>2018-09-15T09:54:27Z</time>
      </trkpt>
      <trkpt lat="45.97135" lon="4.85251">
        <ele>279</ele>
        <time>2018-09-15T09:54:28Z</time>
      </trkpt>
      <trkpt lat="45.9714" lon="4.85242">
        <ele>279</ele>
        <time>2018-09-15T09:54:29Z</time>
      </trkpt>
      <trkpt lat="45.97144" lon="4.85234">
        <ele>279</ele>
        <time>2018-09-15T09:54:30Z</time>
      </trkpt>
      <trkpt lat="45.97147" lon="4.85226">
        <ele>279</ele>
        <time>2018-09-15T09:54:31Z</time>
      </trkpt>
      <trkpt lat="45.97151" lon="4.8522">
        <ele>279</ele>
        <time>2018-09-15T09:54:32Z</time>
      </trkpt>
      <trkpt lat="45.97155" lon="4.85213">
        <ele>279</ele>
        <time>2018-09-15T09:54:33Z</time>
      </trkpt>
      <trkpt lat="45.97158" lon="4.85205">
        <ele>279</ele>
        <time>2018-09-15T09:54:34Z</time>
      </trkpt>
      <trkpt lat="45.9716" lon="4.85198">
        <ele>279</ele>
        <time>2018-09-15T09:54:35Z</time>
      </trkpt>
      <trkpt lat="45.97164" lon="4.8519">
        <ele>279</ele>
        <time>2018-09-15T09:54:36Z</time>
      </trkpt>
      <trkpt lat="45.97167" lon="4.85182">
        <ele>278</ele>
        <time>2018-09-15T09:54:37Z</time>
      </trkpt>
      <trkpt lat="45.97172" lon="4.85176">
        <ele>278</ele>
        <time>2018-09-15T09:54:38Z</time>
      </trkpt>
      <trkpt lat="45.97175" lon="4.85168">
        <ele>278</ele>
        <time>2018-09-15T09:54:39Z</time>
      </trkpt>
      <trkpt lat="45.97179" lon="4.85161">
        <ele>278</ele>
        <time>2018-09-15T09:54:40Z</time>
      </trkpt>
      <trkpt lat="45.97183" lon="4.85154">
        <ele>278</ele>
        <time>2018-09-15T09:54:41Z</time>
      </trkpt>
      <trkpt lat="45.97186" lon="4.85146">
        <ele>278</ele>
        <time>2018-09-15T09:54:42Z</time>
      </trkpt>
      <trkpt lat="45.9719" lon="4.85138">
        <ele>278</ele>
        <time>2018-09-15T09:54:43Z</time>
      </trkpt>
      <trkpt lat="45.97192" lon="4.8513">
        <ele>278</ele>
        <time>2018-09-15T09:54:44Z</time>
      </trkpt>
      <trkpt lat="45.97195" lon="4.85125">
        <ele>278</ele>
        <time>2018-09-15T09:54:45Z</time>
      </trkpt>
      <trkpt lat="45.97198" lon="4.85119">
        <ele>278</ele>
        <time>2018-09-15T09:54:46Z</time>
      </trkpt>
      <trkpt lat="45.97201" lon="4.85112">
        <ele>278</ele>
        <time>2018-09-15T09:54:47Z</time>
      </trkpt>
      <trkpt lat="45.97204" lon="4.85107">
        <ele>278</ele>
        <time>2018-09-15T09:54:48Z</time>
      </trkpt>
      <trkpt lat="45.97207" lon="4.85101">
        <ele>278</ele>
        <time>2018-09-15T09:54:49Z</time>
      </trkpt>
      <trkpt lat="45.9721" lon="4.85095">
        <ele>278</ele>
        <time>2018-09-15T09:54:50Z</time>
      </trkpt>
      <trkpt lat="45.97214" lon="4.85089">
        <ele>278</ele>
        <time>2018-09-15T09:54:51Z</time>
      </trkpt>
      <trkpt lat="45.97217" lon="4.85084">
        <ele>278</ele>
        <time>2018-09-15T09:54:52Z</time>
      </trkpt>
      <trkpt lat="45.97221" lon="4.85076">
        <ele>278</ele>
        <time>2018-09-15T09:54:53Z</time>
      </trkpt>
      <trkpt lat="45.97224" lon="4.8507">
        <ele>278</ele>
        <time>2018-09-15T09:54:54Z</time>
      </trkpt>
      <trkpt lat="45.97228" lon="4.85064">
        <ele>278</ele>
        <time>2018-09-15T09:54:55Z</time>
      </trkpt>
      <trkpt lat="45.97231" lon="4.85058">
        <ele>279</ele>
        <time>2018-09-15T09:54:56Z</time>
      </trkpt>
      <trkpt lat="45.97235" lon="4.8505">
        <ele>279</ele>
        <time>2018-09-15T09:54:57Z</time>
      </trkpt>
      <trkpt lat="45.97239" lon="4.85043">
        <ele>279</ele>
        <time>2018-09-15T09:54:58Z</time>
      </trkpt>
      <trkpt lat="45.97241" lon="4.85036">
        <ele>279</ele>
        <time>2018-09-15T09:54:59Z</time>
      </trkpt>
      <trkpt lat="45.97244" lon="4.8503">
        <ele>279</ele>
        <time>2018-09-15T09:55:00Z</time>
      </trkpt>
      <trkpt lat="45.97247" lon="4.85024">
        <ele>279</ele>
        <time>2018-09-15T09:55:01Z</time>
      </trkpt>
      <trkpt lat="45.97249" lon="4.85018">
        <ele>279</ele>
        <time>2018-09-15T09:55:02Z</time>
      </trkpt>
      <trkpt lat="45.97252" lon="4.85013">
        <ele>279</ele>
        <time>2018-09-15T09:55:03Z</time>
      </trkpt>
      <trkpt lat="45.97255" lon="4.85006">
        <ele>279</ele>
        <time>2018-09-15T09:55:04Z</time>
      </trkpt>
      <trkpt lat="45.97258" lon="4.85">
        <ele>279</ele>
        <time>2018-09-15T09:55:05Z</time>
      </trkpt>
      <trkpt lat="45.97262" lon="4.84994">
        <ele>279</ele>
        <time>2018-09-15T09:55:06Z</time>
      </trkpt>
      <trkpt lat="45.97265" lon="4.84988">
        <ele>279</ele>
        <time>2018-09-15T09:55:07Z</time>
      </trkpt>
      <trkpt lat="45.97267" lon="4.84981">
        <ele>279</ele>
        <time>2018-09-15T09:55:08Z</time>
      </trkpt>
      <trkpt lat="45.97271" lon="4.84974">
        <ele>278</ele>
        <time>2018-09-15T09:55:09Z</time>
      </trkpt>
      <trkpt lat="45.97275" lon="4.84968">
        <ele>278</ele>
        <time>2018-09-15T09:55:10Z</time>
      </trkpt>
      <trkpt lat="45.97277" lon="4.8496">
        <ele>278</ele>
        <time>2018-09-15T09:55:11Z</time>
      </trkpt>
      <trkpt lat="45.97281" lon="4.84954">
        <ele>278</ele>
        <time>2018-09-15T09:55:12Z</time>
      </trkpt>
      <trkpt lat="45.97284" lon="4.8495">
        <ele>278</ele>
        <time>2018-09-15T09:55:13Z</time>
      </trkpt>
      <trkpt lat="45.97286" lon="4.84944">
        <ele>278</ele>
        <time>2018-09-15T09:55:14Z</time>
      </trkpt>
      <trkpt lat="45.97291" lon="4.84938">
        <ele>278</ele>
        <time>2018-09-15T09:55:15Z</time>
      </trkpt>
      <trkpt lat="45.97295" lon="4.84932">
        <ele>278</ele>
        <time>2018-09-15T09:55:16Z</time>
      </trkpt>
      <trkpt lat="45.97296" lon="4.84926">
        <ele>278</ele>
        <time>2018-09-15T09:55:17Z</time>
      </trkpt>
      <trkpt lat="45.973" lon="4.8492">
        <ele>278</ele>
        <time>2018-09-15T09:55:18Z</time>
      </trkpt>
      <trkpt lat="45.97305" lon="4.84914">
        <ele>278</ele>
        <time>2018-09-15T09:55:19Z</time>
      </trkpt>
      <trkpt lat="45.97308" lon="4.84906">
        <ele>278</ele>
        <time>2018-09-15T09:55:20Z</time>
      </trkpt>
      <trkpt lat="45.97311" lon="4.849">
        <ele>278</ele>
        <time>2018-09-15T09:55:21Z</time>
      </trkpt>
      <trkpt lat="45.97315" lon="4.84896">
        <ele>278</ele>
        <time>2018-09-15T09:55:22Z</time>
      </trkpt>
      <trkpt lat="45.97318" lon="4.84891">
        <ele>278</ele>
        <time>2018-09-15T09:55:23Z</time>
      </trkpt>
      <trkpt lat="45.97322" lon="4.84881">
        <ele>278</ele>
        <time>2018-09-15T09:55:25Z</time>
      </trkpt>
      <trkpt lat="45.97328" lon="4.84873">
        <ele>278</ele>
        <time>2018-09-15T09:55:26Z</time>
      </trkpt>
      <trkpt lat="45.97331" lon="4.84867">
        <ele>278</ele>
        <time>2018-09-15T09:55:27Z</time>
      </trkpt>
      <trkpt lat="45.97334" lon="4.8486">
        <ele>277</ele>
        <time>2018-09-15T09:55:28Z</time>
      </trkpt>
      <trkpt lat="45.97339" lon="4.84855">
        <ele>277</ele>
        <time>2018-09-15T09:55:29Z</time>
      </trkpt>
      <trkpt lat="45.97343" lon="4.84847">
        <ele>277</ele>
        <time>2018-09-15T09:55:30Z</time>
      </trkpt>
      <trkpt lat="45.97347" lon="4.8484">
        <ele>277</ele>
        <time>2018-09-15T09:55:31Z</time>
      </trkpt>
      <trkpt lat="45.97348" lon="4.84832">
        <ele>278</ele>
        <time>2018-09-15T09:55:32Z</time>
      </trkpt>
      <trkpt lat="45.97351" lon="4.84825">
        <ele>278</ele>
        <time>2018-09-15T09:55:33Z</time>
      </trkpt>
      <trkpt lat="45.97354" lon="4.84821">
        <ele>278</ele>
        <time>2018-09-15T09:55:34Z</time>
      </trkpt>
      <trkpt lat="45.97357" lon="4.84815">
        <ele>278</ele>
        <time>2018-09-15T09:55:35Z</time>
      </trkpt>
      <trkpt lat="45.97358" lon="4.84808">
        <ele>278</ele>
        <time>2018-09-15T09:55:36Z</time>
      </trkpt>
      <trkpt lat="45.9736" lon="4.84802">
        <ele>278</ele>
        <time>2018-09-15T09:55:37Z</time>
      </trkpt>
      <trkpt lat="45.97362" lon="4.84793">
        <ele>278</ele>
        <time>2018-09-15T09:55:38Z</time>
      </trkpt>
      <trkpt lat="45.97364" lon="4.84788">
        <ele>278</ele>
        <time>2018-09-15T09:55:39Z</time>
      </trkpt>
      <trkpt lat="45.97367" lon="4.84782">
        <ele>278</ele>
        <time>2018-09-15T09:55:40Z</time>
      </trkpt>
      <trkpt lat="45.9737" lon="4.84775">
        <ele>278</ele>
        <time>2018-09-15T09:55:41Z</time>
      </trkpt>
      <trkpt lat="45.97373" lon="4.8477">
        <ele>278</ele>
        <time>2018-09-15T09:55:42Z</time>
      </trkpt>
      <trkpt lat="45.97376" lon="4.84764">
        <ele>278</ele>
        <time>2018-09-15T09:55:43Z</time>
      </trkpt>
      <trkpt lat="45.97379" lon="4.84757">
        <ele>278</ele>
        <time>2018-09-15T09:55:44Z</time>
      </trkpt>
      <trkpt lat="45.97381" lon="4.8475">
        <ele>278</ele>
        <time>2018-09-15T09:55:45Z</time>
      </trkpt>
      <trkpt lat="45.97383" lon="4.84744">
        <ele>278</ele>
        <time>2018-09-15T09:55:46Z</time>
      </trkpt>
      <trkpt lat="45.97386" lon="4.84736">
        <ele>278</ele>
        <time>2018-09-15T09:55:47Z</time>
      </trkpt>
      <trkpt lat="45.97388" lon="4.84729">
        <ele>278</ele>
        <time>2018-09-15T09:55:48Z</time>
      </trkpt>
      <trkpt lat="45.97392" lon="4.84718">
        <ele>278</ele>
        <time>2018-09-15T09:55:50Z</time>
      </trkpt>
      <trkpt lat="45.97394" lon="4.84712">
        <ele>278</ele>
        <time>2018-09-15T09:55:51Z</time>
      </trkpt>
      <trkpt lat="45.97397" lon="4.84701">
        <ele>278</ele>
        <time>2018-09-15T09:55:53Z</time>
      </trkpt>
      <trkpt lat="45.97399" lon="4.84695">
        <ele>278</ele>
        <time>2018-09-15T09:55:54Z</time>
      </trkpt>
      <trkpt lat="45.97401" lon="4.84689">
        <ele>278</ele>
        <time>2018-09-15T09:55:55Z</time>
      </trkpt>
      <trkpt lat="45.97404" lon="4.84682">
        <ele>278</ele>
        <time>2018-09-15T09:55:56Z</time>
      </trkpt>
      <trkpt lat="45.97405" lon="4.84675">
        <ele>277</ele>
        <time>2018-09-15T09:55:57Z</time>
      </trkpt>
      <trkpt lat="45.97407" lon="4.84669">
        <ele>277</ele>
        <time>2018-09-15T09:55:58Z</time>
      </trkpt>
      <trkpt lat="45.97409" lon="4.8466">
        <ele>277</ele>
        <time>2018-09-15T09:55:59Z</time>
      </trkpt>
      <trkpt lat="45.97412" lon="4.84653">
        <ele>277</ele>
        <time>2018-09-15T09:56:00Z</time>
      </trkpt>
      <trkpt lat="45.97412" lon="4.84646">
        <ele>278</ele>
        <time>2018-09-15T09:56:01Z</time>
      </trkpt>
      <trkpt lat="45.97411" lon="4.84638">
        <ele>278</ele>
        <time>2018-09-15T09:56:02Z</time>
      </trkpt>
      <trkpt lat="45.97411" lon="4.84628">
        <ele>278</ele>
        <time>2018-09-15T09:56:03Z</time>
      </trkpt>
      <trkpt lat="45.97413" lon="4.84622">
        <ele>278</ele>
        <time>2018-09-15T09:56:04Z</time>
      </trkpt>
      <trkpt lat="45.97414" lon="4.84612">
        <ele>278</ele>
        <time>2018-09-15T09:56:05Z</time>
      </trkpt>
      <trkpt lat="45.97415" lon="4.84605">
        <ele>278</ele>
        <time>2018-09-15T09:56:06Z</time>
      </trkpt>
      <trkpt lat="45.97418" lon="4.84599">
        <ele>277</ele>
        <time>2018-09-15T09:56:07Z</time>
      </trkpt>
      <trkpt lat="45.97418" lon="4.84592">
        <ele>277</ele>
        <time>2018-09-15T09:56:08Z</time>
      </trkpt>
      <trkpt lat="45.97419" lon="4.84585">
        <ele>277</ele>
        <time>2018-09-15T09:56:09Z</time>
      </trkpt>
      <trkpt lat="45.97421" lon="4.84577">
        <ele>277</ele>
        <time>2018-09-15T09:56:10Z</time>
      </trkpt>
      <trkpt lat="45.97422" lon="4.84571">
        <ele>277</ele>
        <time>2018-09-15T09:56:11Z</time>
      </trkpt>
      <trkpt lat="45.97424" lon="4.84564">
        <ele>277</ele>
        <time>2018-09-15T09:56:12Z</time>
      </trkpt>
      <trkpt lat="45.97425" lon="4.84557">
        <ele>277</ele>
        <time>2018-09-15T09:56:13Z</time>
      </trkpt>
      <trkpt lat="45.97425" lon="4.84551">
        <ele>277</ele>
        <time>2018-09-15T09:56:14Z</time>
      </trkpt>
      <trkpt lat="45.97427" lon="4.84544">
        <ele>277</ele>
        <time>2018-09-15T09:56:15Z</time>
      </trkpt>
      <trkpt lat="45.97428" lon="4.84538">
        <ele>277</ele>
        <time>2018-09-15T09:56:16Z</time>
      </trkpt>
      <trkpt lat="45.97428" lon="4.84526">
        <ele>277</ele>
        <time>2018-09-15T09:56:18Z</time>
      </trkpt>
      <trkpt lat="45.9743" lon="4.84519">
        <ele>277</ele>
        <time>2018-09-15T09:56:19Z</time>
      </trkpt>
      <trkpt lat="45.97431" lon="4.84511">
        <ele>277</ele>
        <time>2018-09-15T09:56:20Z</time>
      </trkpt>
      <trkpt lat="45.97432" lon="4.84503">
        <ele>277</ele>
        <time>2018-09-15T09:56:21Z</time>
      </trkpt>
      <trkpt lat="45.97433" lon="4.84495">
        <ele>278</ele>
        <time>2018-09-15T09:56:22Z</time>
      </trkpt>
      <trkpt lat="45.97433" lon="4.84487">
        <ele>278</ele>
        <time>2018-09-15T09:56:23Z</time>
      </trkpt>
      <trkpt lat="45.97433" lon="4.84478">
        <ele>278</ele>
        <time>2018-09-15T09:56:24Z</time>
      </trkpt>
      <trkpt lat="45.97434" lon="4.84471">
        <ele>278</ele>
        <time>2018-09-15T09:56:25Z</time>
      </trkpt>
      <trkpt lat="45.97435" lon="4.84464">
        <ele>278</ele>
        <time>2018-09-15T09:56:26Z</time>
      </trkpt>
      <trkpt lat="45.97435" lon="4.84458">
        <ele>278</ele>
        <time>2018-09-15T09:56:27Z</time>
      </trkpt>
      <trkpt lat="45.97436" lon="4.84451">
        <ele>278</ele>
        <time>2018-09-15T09:56:28Z</time>
      </trkpt>
      <trkpt lat="45.97437" lon="4.84444">
        <ele>278</ele>
        <time>2018-09-15T09:56:29Z</time>
      </trkpt>
      <trkpt lat="45.97438" lon="4.84438">
        <ele>278</ele>
        <time>2018-09-15T09:56:30Z</time>
      </trkpt>
      <trkpt lat="45.97439" lon="4.84431">
        <ele>278</ele>
        <time>2018-09-15T09:56:31Z</time>
      </trkpt>
      <trkpt lat="45.9744" lon="4.84424">
        <ele>278</ele>
        <time>2018-09-15T09:56:32Z</time>
      </trkpt>
      <trkpt lat="45.97441" lon="4.84417">
        <ele>278</ele>
        <time>2018-09-15T09:56:33Z</time>
      </trkpt>
      <trkpt lat="45.97441" lon="4.8441">
        <ele>278</ele>
        <time>2018-09-15T09:56:34Z</time>
      </trkpt>
      <trkpt lat="45.97443" lon="4.84403">
        <ele>278</ele>
        <time>2018-09-15T09:56:35Z</time>
      </trkpt>
      <trkpt lat="45.97444" lon="4.84396">
        <ele>278</ele>
        <time>2018-09-15T09:56:36Z</time>
      </trkpt>
      <trkpt lat="45.97445" lon="4.84389">
        <ele>278</ele>
        <time>2018-09-15T09:56:37Z</time>
      </trkpt>
      <trkpt lat="45.97445" lon="4.8438">
        <ele>278</ele>
        <time>2018-09-15T09:56:38Z</time>
      </trkpt>
      <trkpt lat="45.97446" lon="4.84372">
        <ele>278</ele>
        <time>2018-09-15T09:56:39Z</time>
      </trkpt>
      <trkpt lat="45.97446" lon="4.84365">
        <ele>278</ele>
        <time>2018-09-15T09:56:40Z</time>
      </trkpt>
      <trkpt lat="45.97448" lon="4.84358">
        <ele>278</ele>
        <time>2018-09-15T09:56:41Z</time>
      </trkpt>
      <trkpt lat="45.97448" lon="4.84351">
        <ele>278</ele>
        <time>2018-09-15T09:56:42Z</time>
      </trkpt>
      <trkpt lat="45.9745" lon="4.84345">
        <ele>277</ele>
        <time>2018-09-15T09:56:43Z</time>
      </trkpt>
      <trkpt lat="45.97452" lon="4.84333">
        <ele>278</ele>
        <time>2018-09-15T09:56:45Z</time>
      </trkpt>
      <trkpt lat="45.97453" lon="4.84326">
        <ele>278</ele>
        <time>2018-09-15T09:56:46Z</time>
      </trkpt>
      <trkpt lat="45.97454" lon="4.84319">
        <ele>278</ele>
        <time>2018-09-15T09:56:47Z</time>
      </trkpt>
      <trkpt lat="45.97455" lon="4.84312">
        <ele>278</ele>
        <time>2018-09-15T09:56:48Z</time>
      </trkpt>
      <trkpt lat="45.97457" lon="4.84303">
        <ele>278</ele>
        <time>2018-09-15T09:56:49Z</time>
      </trkpt>
      <trkpt lat="45.97457" lon="4.84297">
        <ele>278</ele>
        <time>2018-09-15T09:56:50Z</time>
      </trkpt>
      <trkpt lat="45.97458" lon="4.84288">
        <ele>278</ele>
        <time>2018-09-15T09:56:51Z</time>
      </trkpt>
      <trkpt lat="45.9746" lon="4.84281">
        <ele>278</ele>
        <time>2018-09-15T09:56:52Z</time>
      </trkpt>
      <trkpt lat="45.97461" lon="4.84274">
        <ele>278</ele>
        <time>2018-09-15T09:56:53Z</time>
      </trkpt>
      <trkpt lat="45.97461" lon="4.84266">
        <ele>278</ele>
        <time>2018-09-15T09:56:54Z</time>
      </trkpt>
      <trkpt lat="45.97462" lon="4.8426">
        <ele>278</ele>
        <time>2018-09-15T09:56:55Z</time>
      </trkpt>
      <trkpt lat="45.97462" lon="4.84253">
        <ele>278</ele>
        <time>2018-09-15T09:56:56Z</time>
      </trkpt>
      <trkpt lat="45.97463" lon="4.84247">
        <ele>279</ele>
        <time>2018-09-15T09:56:57Z</time>
      </trkpt>
      <trkpt lat="45.97464" lon="4.84239">
        <ele>279</ele>
        <time>2018-09-15T09:56:58Z</time>
      </trkpt>
      <trkpt lat="45.97465" lon="4.84233">
        <ele>279</ele>
        <time>2018-09-15T09:56:59Z</time>
      </trkpt>
      <trkpt lat="45.97466" lon="4.84226">
        <ele>279</ele>
        <time>2018-09-15T09:57:00Z</time>
      </trkpt>
      <trkpt lat="45.97467" lon="4.84218">
        <ele>279</ele>
        <time>2018-09-15T09:57:01Z</time>
      </trkpt>
      <trkpt lat="45.97468" lon="4.84211">
        <ele>279</ele>
        <time>2018-09-15T09:57:02Z</time>
      </trkpt>
      <trkpt lat="45.97469" lon="4.84204">
        <ele>279</ele>
        <time>2018-09-15T09:57:03Z</time>
      </trkpt>
      <trkpt lat="45.97471" lon="4.84197">
        <ele>279</ele>
        <time>2018-09-15T09:57:04Z</time>
      </trkpt>
      <trkpt lat="45.97472" lon="4.84188">
        <ele>279</ele>
        <time>2018-09-15T09:57:05Z</time>
      </trkpt>
      <trkpt lat="45.97473" lon="4.84181">
        <ele>279</ele>
        <time>2018-09-15T09:57:06Z</time>
      </trkpt>
      <trkpt lat="45.97474" lon="4.84173">
        <ele>279</ele>
        <time>2018-09-15T09:57:07Z</time>
      </trkpt>
      <trkpt lat="45.97475" lon="4.84165">
        <ele>279</ele>
        <time>2018-09-15T09:57:08Z</time>
      </trkpt>
      <trkpt lat="45.97476" lon="4.84158">
        <ele>279</ele>
        <time>2018-09-15T09:57:09Z</time>
      </trkpt>
      <trkpt lat="45.97477" lon="4.84151">
        <ele>279</ele>
        <time>2018-09-15T09:57:10Z</time>
      </trkpt>
      <trkpt lat="45.97478" lon="4.84144">
        <ele>279</ele>
        <time>2018-09-15T09:57:11Z</time>
      </trkpt>
      <trkpt lat="45.97479" lon="4.84137">
        <ele>279</ele>
        <time>2018-09-15T09:57:12Z</time>
      </trkpt>
      <trkpt lat="45.9748" lon="4.84131">
        <ele>279</ele>
        <time>2018-09-15T09:57:13Z</time>
      </trkpt>
      <trkpt lat="45.97481" lon="4.84123">
        <ele>279</ele>
        <time>2018-09-15T09:57:14Z</time>
      </trkpt>
      <trkpt lat="45.97483" lon="4.84115">
        <ele>279</ele>
        <time>2018-09-15T09:57:15Z</time>
      </trkpt>
      <trkpt lat="45.97484" lon="4.84107">
        <ele>279</ele>
        <time>2018-09-15T09:57:16Z</time>
      </trkpt>
      <trkpt lat="45.97485" lon="4.84099">
        <ele>279</ele>
        <time>2018-09-15T09:57:17Z</time>
      </trkpt>
      <trkpt lat="45.97487" lon="4.8409">
        <ele>279</ele>
        <time>2018-09-15T09:57:18Z</time>
      </trkpt>
      <trkpt lat="45.97488" lon="4.84081">
        <ele>278</ele>
        <time>2018-09-15T09:57:19Z</time>
      </trkpt>
      <trkpt lat="45.97491" lon="4.84073">
        <ele>278</ele>
        <time>2018-09-15T09:57:20Z</time>
      </trkpt>
      <trkpt lat="45.97492" lon="4.84065">
        <ele>278</ele>
        <time>2018-09-15T09:57:21Z</time>
      </trkpt>
      <trkpt lat="45.97493" lon="4.84057">
        <ele>278</ele>
        <time>2018-09-15T09:57:22Z</time>
      </trkpt>
      <trkpt lat="45.97496" lon="4.84049">
        <ele>278</ele>
        <time>2018-09-15T09:57:23Z</time>
      </trkpt>
      <trkpt lat="45.97497" lon="4.84041">
        <ele>278</ele>
        <time>2018-09-15T09:57:24Z</time>
      </trkpt>
      <trkpt lat="45.97499" lon="4.84033">
        <ele>278</ele>
        <time>2018-09-15T09:57:25Z</time>
      </trkpt>
      <trkpt lat="45.97501" lon="4.84024">
        <ele>277</ele>
        <time>2018-09-15T09:57:26Z</time>
      </trkpt>
      <trkpt lat="45.97503" lon="4.84016">
        <ele>277</ele>
        <time>2018-09-15T09:57:27Z</time>
      </trkpt>
      <trkpt lat="45.97504" lon="4.84007">
        <ele>277</ele>
        <time>2018-09-15T09:57:28Z</time>
      </trkpt>
      <trkpt lat="45.97506" lon="4.83999">
        <ele>277</ele>
        <time>2018-09-15T09:57:29Z</time>
      </trkpt>
      <trkpt lat="45.97507" lon="4.8399">
        <ele>277</ele>
        <time>2018-09-15T09:57:30Z</time>
      </trkpt>
      <trkpt lat="45.97509" lon="4.83981">
        <ele>277</ele>
        <time>2018-09-15T09:57:31Z</time>
      </trkpt>
      <trkpt lat="45.97511" lon="4.83974">
        <ele>277</ele>
        <time>2018-09-15T09:57:32Z</time>
      </trkpt>
      <trkpt lat="45.97513" lon="4.83967">
        <ele>277</ele>
        <time>2018-09-15T09:57:33Z</time>
      </trkpt>
      <trkpt lat="45.97515" lon="4.83961">
        <ele>277</ele>
        <time>2018-09-15T09:57:34Z</time>
      </trkpt>
      <trkpt lat="45.97517" lon="4.83955">
        <ele>277</ele>
        <time>2018-09-15T09:57:35Z</time>
      </trkpt>
      <trkpt lat="45.97519" lon="4.83949">
        <ele>277</ele>
        <time>2018-09-15T09:57:36Z</time>
      </trkpt>
      <trkpt lat="45.9752" lon="4.83942">
        <ele>277</ele>
        <time>2018-09-15T09:57:37Z</time>
      </trkpt>
      <trkpt lat="45.97522" lon="4.83933">
        <ele>277</ele>
        <time>2018-09-15T09:57:38Z</time>
      </trkpt>
      <trkpt lat="45.97523" lon="4.83925">
        <ele>277</ele>
        <time>2018-09-15T09:57:39Z</time>
      </trkpt>
      <trkpt lat="45.97525" lon="4.83918">
        <ele>277</ele>
        <time>2018-09-15T09:57:40Z</time>
      </trkpt>
      <trkpt lat="45.97524" lon="4.83912">
        <ele>277</ele>
        <time>2018-09-15T09:57:41Z</time>
      </trkpt>
      <trkpt lat="45.97527" lon="4.83904">
        <ele>278</ele>
        <time>2018-09-15T09:57:42Z</time>
      </trkpt>
      <trkpt lat="45.97528" lon="4.83895">
        <ele>278</ele>
        <time>2018-09-15T09:57:43Z</time>
      </trkpt>
      <trkpt lat="45.97529" lon="4.83887">
        <ele>278</ele>
        <time>2018-09-15T09:57:44Z</time>
      </trkpt>
      <trkpt lat="45.97531" lon="4.83879">
        <ele>278</ele>
        <time>2018-09-15T09:57:45Z</time>
      </trkpt>
      <trkpt lat="45.97533" lon="4.83872">
        <ele>278</ele>
        <time>2018-09-15T09:57:46Z</time>
      </trkpt>
      <trkpt lat="45.97535" lon="4.83864">
        <ele>278</ele>
        <time>2018-09-15T09:57:47Z</time>
      </trkpt>
      <trkpt lat="45.97536" lon="4.83857">
        <ele>278</ele>
        <time>2018-09-15T09:57:48Z</time>
      </trkpt>
      <trkpt lat="45.97539" lon="4.83845">
        <ele>278</ele>
        <time>2018-09-15T09:57:50Z</time>
      </trkpt>
      <trkpt lat="45.97539" lon="4.83838">
        <ele>278</ele>
        <time>2018-09-15T09:57:51Z</time>
      </trkpt>
      <trkpt lat="45.9754" lon="4.83832">
        <ele>279</ele>
        <time>2018-09-15T09:57:52Z</time>
      </trkpt>
      <trkpt lat="45.97541" lon="4.83825">
        <ele>279</ele>
        <time>2018-09-15T09:57:53Z</time>
      </trkpt>
      <trkpt lat="45.97542" lon="4.8382">
        <ele>278</ele>
        <time>2018-09-15T09:57:54Z</time>
      </trkpt>
      <trkpt lat="45.97542" lon="4.83812">
        <ele>278</ele>
        <time>2018-09-15T09:57:55Z</time>
      </trkpt>
      <trkpt lat="45.97542" lon="4.83804">
        <ele>278</ele>
        <time>2018-09-15T09:57:56Z</time>
      </trkpt>
      <trkpt lat="45.97543" lon="4.83799">
        <ele>278</ele>
        <time>2018-09-15T09:57:57Z</time>
      </trkpt>
      <trkpt lat="45.97543" lon="4.83786">
        <ele>278</ele>
        <time>2018-09-15T09:57:59Z</time>
      </trkpt>
      <trkpt lat="45.97543" lon="4.83778">
        <ele>278</ele>
        <time>2018-09-15T09:58:00Z</time>
      </trkpt>
      <trkpt lat="45.97543" lon="4.83771">
        <ele>278</ele>
        <time>2018-09-15T09:58:01Z</time>
      </trkpt>
      <trkpt lat="45.97542" lon="4.83764">
        <ele>278</ele>
        <time>2018-09-15T09:58:02Z</time>
      </trkpt>
      <trkpt lat="45.97542" lon="4.83756">
        <ele>279</ele>
        <time>2018-09-15T09:58:03Z</time>
      </trkpt>
      <trkpt lat="45.97541" lon="4.8375">
        <ele>278</ele>
        <time>2018-09-15T09:58:04Z</time>
      </trkpt>
      <trkpt lat="45.97541" lon="4.83743">
        <ele>278</ele>
        <time>2018-09-15T09:58:05Z</time>
      </trkpt>
      <trkpt lat="45.9754" lon="4.83736">
        <ele>278</ele>
        <time>2018-09-15T09:58:06Z</time>
      </trkpt>
      <trkpt lat="45.9754" lon="4.83729">
        <ele>278</ele>
        <time>2018-09-15T09:58:07Z</time>
      </trkpt>
      <trkpt lat="45.9754" lon="4.83722">
        <ele>278</ele>
        <time>2018-09-15T09:58:08Z</time>
      </trkpt>
      <trkpt lat="45.97539" lon="4.83715">
        <ele>278</ele>
        <time>2018-09-15T09:58:09Z</time>
      </trkpt>
      <trkpt lat="45.97539" lon="4.83709">
        <ele>278</ele>
        <time>2018-09-15T09:58:10Z</time>
      </trkpt>
      <trkpt lat="45.97539" lon="4.83701">
        <ele>278</ele>
        <time>2018-09-15T09:58:11Z</time>
      </trkpt>
      <trkpt lat="45.9754" lon="4.83695">
        <ele>278</ele>
        <time>2018-09-15T09:58:12Z</time>
      </trkpt>
      <trkpt lat="45.97538" lon="4.83687">
        <ele>278</ele>
        <time>2018-09-15T09:58:13Z</time>
      </trkpt>
      <trkpt lat="45.97539" lon="4.8368">
        <ele>278</ele>
        <time>2018-09-15T09:58:14Z</time>
      </trkpt>
      <trkpt lat="45.97539" lon="4.83673">
        <ele>278</ele>
        <time>2018-09-15T09:58:15Z</time>
      </trkpt>
      <trkpt lat="45.97536" lon="4.83667">
        <ele>278</ele>
        <time>2018-09-15T09:58:16Z</time>
      </trkpt>
      <trkpt lat="45.97534" lon="4.8366">
        <ele>277</ele>
        <time>2018-09-15T09:58:17Z</time>
      </trkpt>
      <trkpt lat="45.97533" lon="4.83652">
        <ele>277</ele>
        <time>2018-09-15T09:58:18Z</time>
      </trkpt>
      <trkpt lat="45.97533" lon="4.83643">
        <ele>277</ele>
        <time>2018-09-15T09:58:19Z</time>
      </trkpt>
      <trkpt lat="45.97533" lon="4.83636">
        <ele>277</ele>
        <time>2018-09-15T09:58:20Z</time>
      </trkpt>
      <trkpt lat="45.97533" lon="4.83628">
        <ele>277</ele>
        <time>2018-09-15T09:58:21Z</time>
      </trkpt>
      <trkpt lat="45.97533" lon="4.8362">
        <ele>277</ele>
        <time>2018-09-15T09:58:22Z</time>
      </trkpt>
      <trkpt lat="45.97533" lon="4.8361">
        <ele>277</ele>
        <time>2018-09-15T09:58:23Z</time>
      </trkpt>
      <trkpt lat="45.97534" lon="4.83602">
        <ele>277</ele>
        <time>2018-09-15T09:58:24Z</time>
      </trkpt>
      <trkpt lat="45.97534" lon="4.83595">
        <ele>277</ele>
        <time>2018-09-15T09:58:25Z</time>
      </trkpt>
      <trkpt lat="45.97532" lon="4.83588">
        <ele>277</ele>
        <time>2018-09-15T09:58:26Z</time>
      </trkpt>
      <trkpt lat="45.97532" lon="4.8358">
        <ele>276</ele>
        <time>2018-09-15T09:58:27Z</time>
      </trkpt>
      <trkpt lat="45.97533" lon="4.83572">
        <ele>276</ele>
        <time>2018-09-15T09:58:28Z</time>
      </trkpt>
      <trkpt lat="45.97532" lon="4.83559">
        <ele>276</ele>
        <time>2018-09-15T09:58:30Z</time>
      </trkpt>
      <trkpt lat="45.97532" lon="4.83552">
        <ele>276</ele>
        <time>2018-09-15T09:58:31Z</time>
      </trkpt>
      <trkpt lat="45.97532" lon="4.83541">
        <ele>276</ele>
        <time>2018-09-15T09:58:32Z</time>
      </trkpt>
      <trkpt lat="45.97533" lon="4.83534">
        <ele>276</ele>
        <time>2018-09-15T09:58:33Z</time>
      </trkpt>
      <trkpt lat="45.97533" lon="4.83526">
        <ele>276</ele>
        <time>2018-09-15T09:58:34Z</time>
      </trkpt>
      <trkpt lat="45.97533" lon="4.8352">
        <ele>276</ele>
        <time>2018-09-15T09:58:35Z</time>
      </trkpt>
      <trkpt lat="45.97533" lon="4.83511">
        <ele>276</ele>
        <time>2018-09-15T09:58:36Z</time>
      </trkpt>
      <trkpt lat="45.97534" lon="4.83504">
        <ele>276</ele>
        <time>2018-09-15T09:58:37Z</time>
      </trkpt>
      <trkpt lat="45.97533" lon="4.83497">
        <ele>276</ele>
        <time>2018-09-15T09:58:38Z</time>
      </trkpt>
      <trkpt lat="45.97534" lon="4.83489">
        <ele>276</ele>
        <time>2018-09-15T09:58:39Z</time>
      </trkpt>
      <trkpt lat="45.97533" lon="4.83482">
        <ele>276</ele>
        <time>2018-09-15T09:58:40Z</time>
      </trkpt>
      <trkpt lat="45.97534" lon="4.83475">
        <ele>276</ele>
        <time>2018-09-15T09:58:41Z</time>
      </trkpt>
      <trkpt lat="45.97534" lon="4.83469">
        <ele>276</ele>
        <time>2018-09-15T09:58:42Z</time>
      </trkpt>
      <trkpt lat="45.97535" lon="4.83463">
        <ele>276</ele>
        <time>2018-09-15T09:58:43Z</time>
      </trkpt>
      <trkpt lat="45.97535" lon="4.83455">
        <ele>276</ele>
        <time>2018-09-15T09:58:44Z</time>
      </trkpt>
      <trkpt lat="45.97535" lon="4.83448">
        <ele>276</ele>
        <time>2018-09-15T09:58:45Z</time>
      </trkpt>
      <trkpt lat="45.97535" lon="4.83442">
        <ele>276</ele>
        <time>2018-09-15T09:58:46Z</time>
      </trkpt>
      <trkpt lat="45.97535" lon="4.83435">
        <ele>276</ele>
        <time>2018-09-15T09:58:47Z</time>
      </trkpt>
      <trkpt lat="45.97535" lon="4.83427">
        <ele>276</ele>
        <time>2018-09-15T09:58:48Z</time>
      </trkpt>
      <trkpt lat="45.97535" lon="4.8342">
        <ele>276</ele>
        <time>2018-09-15T09:58:49Z</time>
      </trkpt>
      <trkpt lat="45.97535" lon="4.8341">
        <ele>277</ele>
        <time>2018-09-15T09:58:51Z</time>
      </trkpt>
      <trkpt lat="45.97535" lon="4.83403">
        <ele>277</ele>
        <time>2018-09-15T09:58:52Z</time>
      </trkpt>
      <trkpt lat="45.97535" lon="4.83393">
        <ele>277</ele>
        <time>2018-09-15T09:58:53Z</time>
      </trkpt>
      <trkpt lat="45.97535" lon="4.83388">
        <ele>277</ele>
        <time>2018-09-15T09:58:54Z</time>
      </trkpt>
      <trkpt lat="45.97535" lon="4.83375">
        <ele>277</ele>
        <time>2018-09-15T09:58:56Z</time>
      </trkpt>
      <trkpt lat="45.97537" lon="4.8337">
        <ele>277</ele>
        <time>2018-09-15T09:58:57Z</time>
      </trkpt>
      <trkpt lat="45.97539" lon="4.83365">
        <ele>277</ele>
        <time>2018-09-15T09:58:58Z</time>
      </trkpt>
      <trkpt lat="45.97539" lon="4.83358">
        <ele>277</ele>
        <time>2018-09-15T09:58:59Z</time>
      </trkpt>
      <trkpt lat="45.97538" lon="4.8335">
        <ele>277</ele>
        <time>2018-09-15T09:59:00Z</time>
      </trkpt>
      <trkpt lat="45.97538" lon="4.83342">
        <ele>277</ele>
        <time>2018-09-15T09:59:01Z</time>
      </trkpt>
      <trkpt lat="45.97537" lon="4.83336">
        <ele>277</ele>
        <time>2018-09-15T09:59:02Z</time>
      </trkpt>
      <trkpt lat="45.97536" lon="4.83328">
        <ele>276</ele>
        <time>2018-09-15T09:59:03Z</time>
      </trkpt>
      <trkpt lat="45.97536" lon="4.8332">
        <ele>276</ele>
        <time>2018-09-15T09:59:04Z</time>
      </trkpt>
      <trkpt lat="45.97535" lon="4.83313">
        <ele>276</ele>
        <time>2018-09-15T09:59:05Z</time>
      </trkpt>
      <trkpt lat="45.97535" lon="4.83304">
        <ele>276</ele>
        <time>2018-09-15T09:59:06Z</time>
      </trkpt>
      <trkpt lat="45.97535" lon="4.83296">
        <ele>276</ele>
        <time>2018-09-15T09:59:07Z</time>
      </trkpt>
      <trkpt lat="45.97534" lon="4.83286">
        <ele>276</ele>
        <time>2018-09-15T09:59:08Z</time>
      </trkpt>
      <trkpt lat="45.97534" lon="4.83278">
        <ele>276</ele>
        <time>2018-09-15T09:59:09Z</time>
      </trkpt>
      <trkpt lat="45.97533" lon="4.8327">
        <ele>276</ele>
        <time>2018-09-15T09:59:10Z</time>
      </trkpt>
      <trkpt lat="45.97532" lon="4.83261">
        <ele>276</ele>
        <time>2018-09-15T09:59:11Z</time>
      </trkpt>
      <trkpt lat="45.97533" lon="4.83255">
        <ele>276</ele>
        <time>2018-09-15T09:59:12Z</time>
      </trkpt>
      <trkpt lat="45.97532" lon="4.83245">
        <ele>275</ele>
        <time>2018-09-15T09:59:13Z</time>
      </trkpt>
      <trkpt lat="45.97529" lon="4.83236">
        <ele>275</ele>
        <time>2018-09-15T09:59:14Z</time>
      </trkpt>
      <trkpt lat="45.97523" lon="4.83228">
        <ele>275</ele>
        <time>2018-09-15T09:59:15Z</time>
      </trkpt>
      <trkpt lat="45.9752" lon="4.8322">
        <ele>275</ele>
        <time>2018-09-15T09:59:16Z</time>
      </trkpt>
      <trkpt lat="45.97516" lon="4.83211">
        <ele>275</ele>
        <time>2018-09-15T09:59:17Z</time>
      </trkpt>
      <trkpt lat="45.97512" lon="4.83203">
        <ele>275</ele>
        <time>2018-09-15T09:59:18Z</time>
      </trkpt>
      <trkpt lat="45.97509" lon="4.83194">
        <ele>275</ele>
        <time>2018-09-15T09:59:19Z</time>
      </trkpt>
      <trkpt lat="45.97505" lon="4.83187">
        <ele>275</ele>
        <time>2018-09-15T09:59:20Z</time>
      </trkpt>
      <trkpt lat="45.97503" lon="4.83179">
        <ele>274</ele>
        <time>2018-09-15T09:59:21Z</time>
      </trkpt>
      <trkpt lat="45.97499" lon="4.8317">
        <ele>274</ele>
        <time>2018-09-15T09:59:22Z</time>
      </trkpt>
      <trkpt lat="45.97496" lon="4.83163">
        <ele>274</ele>
        <time>2018-09-15T09:59:23Z</time>
      </trkpt>
      <trkpt lat="45.97493" lon="4.83154">
        <ele>273</ele>
        <time>2018-09-15T09:59:24Z</time>
      </trkpt>
      <trkpt lat="45.9749" lon="4.83145">
        <ele>273</ele>
        <time>2018-09-15T09:59:25Z</time>
      </trkpt>
      <trkpt lat="45.97487" lon="4.83137">
        <ele>273</ele>
        <time>2018-09-15T09:59:26Z</time>
      </trkpt>
      <trkpt lat="45.97485" lon="4.83127">
        <ele>273</ele>
        <time>2018-09-15T09:59:27Z</time>
      </trkpt>
      <trkpt lat="45.97483" lon="4.83118">
        <ele>273</ele>
        <time>2018-09-15T09:59:28Z</time>
      </trkpt>
      <trkpt lat="45.9748" lon="4.83108">
        <ele>272</ele>
        <time>2018-09-15T09:59:29Z</time>
      </trkpt>
      <trkpt lat="45.97479" lon="4.83099">
        <ele>272</ele>
        <time>2018-09-15T09:59:30Z</time>
      </trkpt>
      <trkpt lat="45.97477" lon="4.83089">
        <ele>272</ele>
        <time>2018-09-15T09:59:31Z</time>
      </trkpt>
      <trkpt lat="45.97475" lon="4.83078">
        <ele>271</ele>
        <time>2018-09-15T09:59:32Z</time>
      </trkpt>
      <trkpt lat="45.97472" lon="4.83067">
        <ele>271</ele>
        <time>2018-09-15T09:59:33Z</time>
      </trkpt>
      <trkpt lat="45.9747" lon="4.83057">
        <ele>271</ele>
        <time>2018-09-15T09:59:34Z</time>
      </trkpt>
      <trkpt lat="45.97467" lon="4.83047">
        <ele>271</ele>
        <time>2018-09-15T09:59:35Z</time>
      </trkpt>
      <trkpt lat="45.97464" lon="4.83037">
        <ele>271</ele>
        <time>2018-09-15T09:59:36Z</time>
      </trkpt>
      <trkpt lat="45.97461" lon="4.83029">
        <ele>270</ele>
        <time>2018-09-15T09:59:37Z</time>
      </trkpt>
      <trkpt lat="45.97458" lon="4.83017">
        <ele>270</ele>
        <time>2018-09-15T09:59:38Z</time>
      </trkpt>
      <trkpt lat="45.97454" lon="4.83007">
        <ele>270</ele>
        <time>2018-09-15T09:59:39Z</time>
      </trkpt>
      <trkpt lat="45.97452" lon="4.82997">
        <ele>269</ele>
        <time>2018-09-15T09:59:40Z</time>
      </trkpt>
      <trkpt lat="45.97448" lon="4.82987">
        <ele>269</ele>
        <time>2018-09-15T09:59:41Z</time>
      </trkpt>
      <trkpt lat="45.97446" lon="4.82976">
        <ele>269</ele>
        <time>2018-09-15T09:59:42Z</time>
      </trkpt>
      <trkpt lat="45.97442" lon="4.82966">
        <ele>269</ele>
        <time>2018-09-15T09:59:43Z</time>
      </trkpt>
      <trkpt lat="45.9744" lon="4.82955">
        <ele>269</ele>
        <time>2018-09-15T09:59:44Z</time>
      </trkpt>
      <trkpt lat="45.97438" lon="4.82944">
        <ele>269</ele>
        <time>2018-09-15T09:59:45Z</time>
      </trkpt>
      <trkpt lat="45.97436" lon="4.82932">
        <ele>268</ele>
        <time>2018-09-15T09:59:46Z</time>
      </trkpt>
      <trkpt lat="45.97434" lon="4.82921">
        <ele>268</ele>
        <time>2018-09-15T09:59:47Z</time>
      </trkpt>
      <trkpt lat="45.97433" lon="4.82909">
        <ele>267</ele>
        <time>2018-09-15T09:59:48Z</time>
      </trkpt>
      <trkpt lat="45.97432" lon="4.82899">
        <ele>267</ele>
        <time>2018-09-15T09:59:49Z</time>
      </trkpt>
      <trkpt lat="45.97431" lon="4.82888">
        <ele>267</ele>
        <time>2018-09-15T09:59:50Z</time>
      </trkpt>
      <trkpt lat="45.97429" lon="4.82875">
        <ele>267</ele>
        <time>2018-09-15T09:59:51Z</time>
      </trkpt>
      <trkpt lat="45.97428" lon="4.82863">
        <ele>267</ele>
        <time>2018-09-15T09:59:52Z</time>
      </trkpt>
      <trkpt lat="45.97427" lon="4.82852">
        <ele>267</ele>
        <time>2018-09-15T09:59:53Z</time>
      </trkpt>
      <trkpt lat="45.97426" lon="4.82842">
        <ele>266</ele>
        <time>2018-09-15T09:59:54Z</time>
      </trkpt>
      <trkpt lat="45.97425" lon="4.82832">
        <ele>266</ele>
        <time>2018-09-15T09:59:55Z</time>
      </trkpt>
      <trkpt lat="45.97423" lon="4.82822">
        <ele>266</ele>
        <time>2018-09-15T09:59:56Z</time>
      </trkpt>
      <trkpt lat="45.97422" lon="4.82812">
        <ele>265</ele>
        <time>2018-09-15T09:59:57Z</time>
      </trkpt>
      <trkpt lat="45.9742" lon="4.82801">
        <ele>265</ele>
        <time>2018-09-15T09:59:58Z</time>
      </trkpt>
      <trkpt lat="45.97418" lon="4.8279">
        <ele>265</ele>
        <time>2018-09-15T09:59:59Z</time>
      </trkpt>
      <trkpt lat="45.97416" lon="4.82782">
        <ele>264</ele>
        <time>2018-09-15T10:00:00Z</time>
      </trkpt>
      <trkpt lat="45.97414" lon="4.82772">
        <ele>264</ele>
        <time>2018-09-15T10:00:01Z</time>
      </trkpt>
      <trkpt lat="45.97413" lon="4.82761">
        <ele>263</ele>
        <time>2018-09-15T10:00:02Z</time>
      </trkpt>
      <trkpt lat="45.97412" lon="4.82751">
        <ele>263</ele>
        <time>2018-09-15T10:00:03Z</time>
      </trkpt>
      <trkpt lat="45.9741" lon="4.8274">
        <ele>263</ele>
        <time>2018-09-15T10:00:04Z</time>
      </trkpt>
      <trkpt lat="45.97409" lon="4.82731">
        <ele>263</ele>
        <time>2018-09-15T10:00:05Z</time>
      </trkpt>
      <trkpt lat="45.97407" lon="4.82721">
        <ele>263</ele>
        <time>2018-09-15T10:00:06Z</time>
      </trkpt>
      <trkpt lat="45.97406" lon="4.82711">
        <ele>262</ele>
        <time>2018-09-15T10:00:07Z</time>
      </trkpt>
      <trkpt lat="45.97403" lon="4.827">
        <ele>262</ele>
        <time>2018-09-15T10:00:08Z</time>
      </trkpt>
      <trkpt lat="45.97402" lon="4.82689">
        <ele>263</ele>
        <time>2018-09-15T10:00:09Z</time>
      </trkpt>
      <trkpt lat="45.974" lon="4.82679">
        <ele>263</ele>
        <time>2018-09-15T10:00:10Z</time>
      </trkpt>
      <trkpt lat="45.97399" lon="4.8267">
        <ele>263</ele>
        <time>2018-09-15T10:00:11Z</time>
      </trkpt>
      <trkpt lat="45.97397" lon="4.8266">
        <ele>262</ele>
        <time>2018-09-15T10:00:12Z</time>
      </trkpt>
      <trkpt lat="45.97396" lon="4.82651">
        <ele>262</ele>
        <time>2018-09-15T10:00:13Z</time>
      </trkpt>
      <trkpt lat="45.97395" lon="4.82643">
        <ele>262</ele>
        <time>2018-09-15T10:00:14Z</time>
      </trkpt>
      <trkpt lat="45.97394" lon="4.82635">
        <ele>262</ele>
        <time>2018-09-15T10:00:15Z</time>
      </trkpt>
      <trkpt lat="45.97393" lon="4.82627">
        <ele>262</ele>
        <time>2018-09-15T10:00:16Z</time>
      </trkpt>
      <trkpt lat="45.97392" lon="4.8262">
        <ele>262</ele>
        <time>2018-09-15T10:00:17Z</time>
      </trkpt>
      <trkpt lat="45.9739" lon="4.82612">
        <ele>262</ele>
        <time>2018-09-15T10:00:18Z</time>
      </trkpt>
      <trkpt lat="45.97389" lon="4.82603">
        <ele>262</ele>
        <time>2018-09-15T10:00:19Z</time>
      </trkpt>
      <trkpt lat="45.97388" lon="4.82594">
        <ele>262</ele>
        <time>2018-09-15T10:00:20Z</time>
      </trkpt>
      <trkpt lat="45.97386" lon="4.82587">
        <ele>262</ele>
        <time>2018-09-15T10:00:21Z</time>
      </trkpt>
      <trkpt lat="45.97384" lon="4.8258">
        <ele>262</ele>
        <time>2018-09-15T10:00:22Z</time>
      </trkpt>
      <trkpt lat="45.97383" lon="4.82571">
        <ele>262</ele>
        <time>2018-09-15T10:00:23Z</time>
      </trkpt>
      <trkpt lat="45.97383" lon="4.82562">
        <ele>262</ele>
        <time>2018-09-15T10:00:24Z</time>
      </trkpt>
      <trkpt lat="45.97382" lon="4.82552">
        <ele>262</ele>
        <time>2018-09-15T10:00:25Z</time>
      </trkpt>
      <trkpt lat="45.97381" lon="4.82544">
        <ele>262</ele>
        <time>2018-09-15T10:00:26Z</time>
      </trkpt>
      <trkpt lat="45.97381" lon="4.82535">
        <ele>262</ele>
        <time>2018-09-15T10:00:27Z</time>
      </trkpt>
      <trkpt lat="45.9738" lon="4.82527">
        <ele>262</ele>
        <time>2018-09-15T10:00:28Z</time>
      </trkpt>
      <trkpt lat="45.97378" lon="4.82519">
        <ele>262</ele>
        <time>2018-09-15T10:00:29Z</time>
      </trkpt>
      <trkpt lat="45.97378" lon="4.82511">
        <ele>262</ele>
        <time>2018-09-15T10:00:30Z</time>
      </trkpt>
      <trkpt lat="45.97378" lon="4.82503">
        <ele>262</ele>
        <time>2018-09-15T10:00:31Z</time>
      </trkpt>
      <trkpt lat="45.97377" lon="4.82496">
        <ele>262</ele>
        <time>2018-09-15T10:00:32Z</time>
      </trkpt>
      <trkpt lat="45.97377" lon="4.82488">
        <ele>262</ele>
        <time>2018-09-15T10:00:33Z</time>
      </trkpt>
      <trkpt lat="45.97377" lon="4.8248">
        <ele>262</ele>
        <time>2018-09-15T10:00:34Z</time>
      </trkpt>
      <trkpt lat="45.97377" lon="4.82471">
        <ele>262</ele>
        <time>2018-09-15T10:00:35Z</time>
      </trkpt>
      <trkpt lat="45.97377" lon="4.82463">
        <ele>262</ele>
        <time>2018-09-15T10:00:36Z</time>
      </trkpt>
      <trkpt lat="45.97376" lon="4.82453">
        <ele>262</ele>
        <time>2018-09-15T10:00:37Z</time>
      </trkpt>
      <trkpt lat="45.97376" lon="4.82445">
        <ele>262</ele>
        <time>2018-09-15T10:00:38Z</time>
      </trkpt>
      <trkpt lat="45.97376" lon="4.82437">
        <ele>262</ele>
        <time>2018-09-15T10:00:39Z</time>
      </trkpt>
      <trkpt lat="45.97376" lon="4.82428">
        <ele>262</ele>
        <time>2018-09-15T10:00:40Z</time>
      </trkpt>
      <trkpt lat="45.97376" lon="4.8242">
        <ele>262</ele>
        <time>2018-09-15T10:00:41Z</time>
      </trkpt>
      <trkpt lat="45.97376" lon="4.82412">
        <ele>263</ele>
        <time>2018-09-15T10:00:42Z</time>
      </trkpt>
      <trkpt lat="45.97376" lon="4.82405">
        <ele>263</ele>
        <time>2018-09-15T10:00:43Z</time>
      </trkpt>
      <trkpt lat="45.97376" lon="4.82398">
        <ele>263</ele>
        <time>2018-09-15T10:00:44Z</time>
      </trkpt>
      <trkpt lat="45.97376" lon="4.82391">
        <ele>263</ele>
        <time>2018-09-15T10:00:45Z</time>
      </trkpt>
      <trkpt lat="45.97376" lon="4.82384">
        <ele>263</ele>
        <time>2018-09-15T10:00:46Z</time>
      </trkpt>
      <trkpt lat="45.97376" lon="4.82377">
        <ele>263</ele>
        <time>2018-09-15T10:00:47Z</time>
      </trkpt>
      <trkpt lat="45.97376" lon="4.82371">
        <ele>263</ele>
        <time>2018-09-15T10:00:48Z</time>
      </trkpt>
      <trkpt lat="45.97375" lon="4.82364">
        <ele>263</ele>
        <time>2018-09-15T10:00:49Z</time>
      </trkpt>
      <trkpt lat="45.97376" lon="4.82357">
        <ele>263</ele>
        <time>2018-09-15T10:00:50Z</time>
      </trkpt>
      <trkpt lat="45.97376" lon="4.8235">
        <ele>263</ele>
        <time>2018-09-15T10:00:51Z</time>
      </trkpt>
      <trkpt lat="45.97376" lon="4.82342">
        <ele>263</ele>
        <time>2018-09-15T10:00:52Z</time>
      </trkpt>
      <trkpt lat="45.97377" lon="4.82333">
        <ele>263</ele>
        <time>2018-09-15T10:00:53Z</time>
      </trkpt>
      <trkpt lat="45.97377" lon="4.82326">
        <ele>263</ele>
        <time>2018-09-15T10:00:54Z</time>
      </trkpt>
      <trkpt lat="45.97377" lon="4.82319">
        <ele>263</ele>
        <time>2018-09-15T10:00:55Z</time>
      </trkpt>
      <trkpt lat="45.97377" lon="4.82311">
        <ele>263</ele>
        <time>2018-09-15T10:00:56Z</time>
      </trkpt>
      <trkpt lat="45.97377" lon="4.82305">
        <ele>263</ele>
        <time>2018-09-15T10:00:57Z</time>
      </trkpt>
      <trkpt lat="45.97377" lon="4.82298">
        <ele>263</ele>
        <time>2018-09-15T10:00:58Z</time>
      </trkpt>
      <trkpt lat="45.97377" lon="4.82291">
        <ele>263</ele>
        <time>2018-09-15T10:00:59Z</time>
      </trkpt>
      <trkpt lat="45.97378" lon="4.82278">
        <ele>263</ele>
        <time>2018-09-15T10:01:01Z</time>
      </trkpt>
      <trkpt lat="45.97379" lon="4.82272">
        <ele>263</ele>
        <time>2018-09-15T10:01:02Z</time>
      </trkpt>
      <trkpt lat="45.97379" lon="4.82263">
        <ele>263</ele>
        <time>2018-09-15T10:01:03Z</time>
      </trkpt>
      <trkpt lat="45.9738" lon="4.82256">
        <ele>263</ele>
        <time>2018-09-15T10:01:04Z</time>
      </trkpt>
      <trkpt lat="45.97381" lon="4.82249">
        <ele>263</ele>
        <time>2018-09-15T10:01:05Z</time>
      </trkpt>
      <trkpt lat="45.97382" lon="4.82241">
        <ele>263</ele>
        <time>2018-09-15T10:01:06Z</time>
      </trkpt>
      <trkpt lat="45.97384" lon="4.82234">
        <ele>263</ele>
        <time>2018-09-15T10:01:07Z</time>
      </trkpt>
      <trkpt lat="45.97386" lon="4.82226">
        <ele>263</ele>
        <time>2018-09-15T10:01:08Z</time>
      </trkpt>
      <trkpt lat="45.97387" lon="4.82219">
        <ele>263</ele>
        <time>2018-09-15T10:01:09Z</time>
      </trkpt>
      <trkpt lat="45.97389" lon="4.82212">
        <ele>263</ele>
        <time>2018-09-15T10:01:10Z</time>
      </trkpt>
      <trkpt lat="45.97392" lon="4.82205">
        <ele>263</ele>
        <time>2018-09-15T10:01:11Z</time>
      </trkpt>
      <trkpt lat="45.97396" lon="4.82197">
        <ele>262</ele>
        <time>2018-09-15T10:01:12Z</time>
      </trkpt>
      <trkpt lat="45.974" lon="4.8219">
        <ele>262</ele>
        <time>2018-09-15T10:01:13Z</time>
      </trkpt>
      <trkpt lat="45.97404" lon="4.82182">
        <ele>262</ele>
        <time>2018-09-15T10:01:14Z</time>
      </trkpt>
      <trkpt lat="45.9741" lon="4.82176">
        <ele>262</ele>
        <time>2018-09-15T10:01:15Z</time>
      </trkpt>
      <trkpt lat="45.97415" lon="4.82169">
        <ele>261</ele>
        <time>2018-09-15T10:01:16Z</time>
      </trkpt>
      <trkpt lat="45.97419" lon="4.82164">
        <ele>261</ele>
        <time>2018-09-15T10:01:17Z</time>
      </trkpt>
      <trkpt lat="45.97424" lon="4.82156">
        <ele>261</ele>
        <time>2018-09-15T10:01:18Z</time>
      </trkpt>
      <trkpt lat="45.97429" lon="4.82151">
        <ele>261</ele>
        <time>2018-09-15T10:01:19Z</time>
      </trkpt>
      <trkpt lat="45.97434" lon="4.82144">
        <ele>261</ele>
        <time>2018-09-15T10:01:20Z</time>
      </trkpt>
      <trkpt lat="45.97439" lon="4.82137">
        <ele>261</ele>
        <time>2018-09-15T10:01:21Z</time>
      </trkpt>
      <trkpt lat="45.97444" lon="4.82129">
        <ele>260</ele>
        <time>2018-09-15T10:01:22Z</time>
      </trkpt>
      <trkpt lat="45.97448" lon="4.82121">
        <ele>260</ele>
        <time>2018-09-15T10:01:23Z</time>
      </trkpt>
      <trkpt lat="45.97452" lon="4.82112">
        <ele>260</ele>
        <time>2018-09-15T10:01:24Z</time>
      </trkpt>
      <trkpt lat="45.97456" lon="4.82102">
        <ele>260</ele>
        <time>2018-09-15T10:01:25Z</time>
      </trkpt>
      <trkpt lat="45.97458" lon="4.82091">
        <ele>260</ele>
        <time>2018-09-15T10:01:26Z</time>
      </trkpt>
      <trkpt lat="45.97461" lon="4.8208">
        <ele>258</ele>
        <time>2018-09-15T10:01:27Z</time>
      </trkpt>
      <trkpt lat="45.97461" lon="4.8207">
        <ele>258</ele>
        <time>2018-09-15T10:01:28Z</time>
      </trkpt>
      <trkpt lat="45.97461" lon="4.82059">
        <ele>258</ele>
        <time>2018-09-15T10:01:29Z</time>
      </trkpt>
      <trkpt lat="45.9746" lon="4.82048">
        <ele>258</ele>
        <time>2018-09-15T10:01:30Z</time>
      </trkpt>
      <trkpt lat="45.97459" lon="4.82035">
        <ele>258</ele>
        <time>2018-09-15T10:01:31Z</time>
      </trkpt>
      <trkpt lat="45.97458" lon="4.82024">
        <ele>257</ele>
        <time>2018-09-15T10:01:32Z</time>
      </trkpt>
      <trkpt lat="45.97456" lon="4.82012">
        <ele>257</ele>
        <time>2018-09-15T10:01:33Z</time>
      </trkpt>
      <trkpt lat="45.97456" lon="4.82002">
        <ele>257</ele>
        <time>2018-09-15T10:01:34Z</time>
      </trkpt>
      <trkpt lat="45.97456" lon="4.8199">
        <ele>255</ele>
        <time>2018-09-15T10:01:35Z</time>
      </trkpt>
      <trkpt lat="45.97455" lon="4.81978">
        <ele>255</ele>
        <time>2018-09-15T10:01:36Z</time>
      </trkpt>
      <trkpt lat="45.97451" lon="4.81967">
        <ele>255</ele>
        <time>2018-09-15T10:01:37Z</time>
      </trkpt>
      <trkpt lat="45.97451" lon="4.81956">
        <ele>255</ele>
        <time>2018-09-15T10:01:38Z</time>
      </trkpt>
      <trkpt lat="45.97448" lon="4.81943">
        <ele>255</ele>
        <time>2018-09-15T10:01:39Z</time>
      </trkpt>
      <trkpt lat="45.97447" lon="4.8193">
        <ele>255</ele>
        <time>2018-09-15T10:01:40Z</time>
      </trkpt>
      <trkpt lat="45.97446" lon="4.81919">
        <ele>254</ele>
        <time>2018-09-15T10:01:41Z</time>
      </trkpt>
      <trkpt lat="45.97446" lon="4.81906">
        <ele>253</ele>
        <time>2018-09-15T10:01:42Z</time>
      </trkpt>
      <trkpt lat="45.97444" lon="4.81893">
        <ele>253</ele>
        <time>2018-09-15T10:01:43Z</time>
      </trkpt>
      <trkpt lat="45.97443" lon="4.81881">
        <ele>253</ele>
        <time>2018-09-15T10:01:44Z</time>
      </trkpt>
      <trkpt lat="45.97441" lon="4.81867">
        <ele>253</ele>
        <time>2018-09-15T10:01:45Z</time>
      </trkpt>
      <trkpt lat="45.9744" lon="4.81854">
        <ele>253</ele>
        <time>2018-09-15T10:01:46Z</time>
      </trkpt>
      <trkpt lat="45.97439" lon="4.81841">
        <ele>253</ele>
        <time>2018-09-15T10:01:47Z</time>
      </trkpt>
      <trkpt lat="45.97438" lon="4.81828">
        <ele>252</ele>
        <time>2018-09-15T10:01:48Z</time>
      </trkpt>
      <trkpt lat="45.97437" lon="4.81815">
        <ele>252</ele>
        <time>2018-09-15T10:01:49Z</time>
      </trkpt>
      <trkpt lat="45.97436" lon="4.81801">
        <ele>252</ele>
        <time>2018-09-15T10:01:50Z</time>
      </trkpt>
      <trkpt lat="45.97436" lon="4.81787">
        <ele>252</ele>
        <time>2018-09-15T10:01:51Z</time>
      </trkpt>
      <trkpt lat="45.97436" lon="4.81776">
        <ele>251</ele>
        <time>2018-09-15T10:01:52Z</time>
      </trkpt>
      <trkpt lat="45.97436" lon="4.81761">
        <ele>251</ele>
        <time>2018-09-15T10:01:53Z</time>
      </trkpt>
      <trkpt lat="45.97435" lon="4.81748">
        <ele>250</ele>
        <time>2018-09-15T10:01:54Z</time>
      </trkpt>
      <trkpt lat="45.97434" lon="4.81733">
        <ele>250</ele>
        <time>2018-09-15T10:01:55Z</time>
      </trkpt>
      <trkpt lat="45.97435" lon="4.81718">
        <ele>250</ele>
        <time>2018-09-15T10:01:56Z</time>
      </trkpt>
      <trkpt lat="45.97436" lon="4.81704">
        <ele>250</ele>
        <time>2018-09-15T10:01:57Z</time>
      </trkpt>
      <trkpt lat="45.97436" lon="4.8169">
        <ele>250</ele>
        <time>2018-09-15T10:01:58Z</time>
      </trkpt>
      <trkpt lat="45.97436" lon="4.81676">
        <ele>249</ele>
        <time>2018-09-15T10:01:59Z</time>
      </trkpt>
      <trkpt lat="45.97436" lon="4.81661">
        <ele>248</ele>
        <time>2018-09-15T10:02:00Z</time>
      </trkpt>
      <trkpt lat="45.97438" lon="4.81647">
        <ele>248</ele>
        <time>2018-09-15T10:02:01Z</time>
      </trkpt>
      <trkpt lat="45.97439" lon="4.81632">
        <ele>248</ele>
        <time>2018-09-15T10:02:02Z</time>
      </trkpt>
      <trkpt lat="45.9744" lon="4.81617">
        <ele>248</ele>
        <time>2018-09-15T10:02:03Z</time>
      </trkpt>
      <trkpt lat="45.97441" lon="4.81602">
        <ele>248</ele>
        <time>2018-09-15T10:02:04Z</time>
      </trkpt>
      <trkpt lat="45.9744" lon="4.81586">
        <ele>247</ele>
        <time>2018-09-15T10:02:05Z</time>
      </trkpt>
      <trkpt lat="45.9744" lon="4.81573">
        <ele>246</ele>
        <time>2018-09-15T10:02:06Z</time>
      </trkpt>
      <trkpt lat="45.9744" lon="4.81558">
        <ele>246</ele>
        <time>2018-09-15T10:02:07Z</time>
      </trkpt>
      <trkpt lat="45.9744" lon="4.81544">
        <ele>246</ele>
        <time>2018-09-15T10:02:08Z</time>
      </trkpt>
      <trkpt lat="45.97439" lon="4.81531">
        <ele>245</ele>
        <time>2018-09-15T10:02:09Z</time>
      </trkpt>
      <trkpt lat="45.9744" lon="4.81518">
        <ele>245</ele>
        <time>2018-09-15T10:02:10Z</time>
      </trkpt>
      <trkpt lat="45.97439" lon="4.81506">
        <ele>245</ele>
        <time>2018-09-15T10:02:11Z</time>
      </trkpt>
      <trkpt lat="45.97439" lon="4.81496">
        <ele>243</ele>
        <time>2018-09-15T10:02:12Z</time>
      </trkpt>
      <trkpt lat="45.97437" lon="4.81486">
        <ele>243</ele>
        <time>2018-09-15T10:02:13Z</time>
      </trkpt>
      <trkpt lat="45.97434" lon="4.81476">
        <ele>243</ele>
        <time>2018-09-15T10:02:14Z</time>
      </trkpt>
      <trkpt lat="45.97429" lon="4.81467">
        <ele>243</ele>
        <time>2018-09-15T10:02:15Z</time>
      </trkpt>
      <trkpt lat="45.97425" lon="4.8146">
        <ele>243</ele>
        <time>2018-09-15T10:02:16Z</time>
      </trkpt>
      <trkpt lat="45.97422" lon="4.8145">
        <ele>242</ele>
        <time>2018-09-15T10:02:17Z</time>
      </trkpt>
      <trkpt lat="45.97417" lon="4.81441">
        <ele>242</ele>
        <time>2018-09-15T10:02:18Z</time>
      </trkpt>
      <trkpt lat="45.97413" lon="4.81434">
        <ele>241</ele>
        <time>2018-09-15T10:02:19Z</time>
      </trkpt>
      <trkpt lat="45.9741" lon="4.81428">
        <ele>241</ele>
        <time>2018-09-15T10:02:20Z</time>
      </trkpt>
      <trkpt lat="45.97405" lon="4.81421">
        <ele>241</ele>
        <time>2018-09-15T10:02:21Z</time>
      </trkpt>
      <trkpt lat="45.974" lon="4.81415">
        <ele>240</ele>
        <time>2018-09-15T10:02:22Z</time>
      </trkpt>
      <trkpt lat="45.97393" lon="4.81409">
        <ele>240</ele>
        <time>2018-09-15T10:02:23Z</time>
      </trkpt>
      <trkpt lat="45.9739" lon="4.81401">
        <ele>240</ele>
        <time>2018-09-15T10:02:24Z</time>
      </trkpt>
      <trkpt lat="45.97385" lon="4.81393">
        <ele>240</ele>
        <time>2018-09-15T10:02:25Z</time>
      </trkpt>
      <trkpt lat="45.97383" lon="4.81383">
        <ele>239</ele>
        <time>2018-09-15T10:02:26Z</time>
      </trkpt>
      <trkpt lat="45.97379" lon="4.81374">
        <ele>239</ele>
        <time>2018-09-15T10:02:27Z</time>
      </trkpt>
      <trkpt lat="45.97378" lon="4.81363">
        <ele>239</ele>
        <time>2018-09-15T10:02:28Z</time>
      </trkpt>
      <trkpt lat="45.97376" lon="4.81353">
        <ele>239</ele>
        <time>2018-09-15T10:02:29Z</time>
      </trkpt>
      <trkpt lat="45.97377" lon="4.81343">
        <ele>239</ele>
        <time>2018-09-15T10:02:30Z</time>
      </trkpt>
      <trkpt lat="45.97377" lon="4.81333">
        <ele>238</ele>
        <time>2018-09-15T10:02:31Z</time>
      </trkpt>
      <trkpt lat="45.97378" lon="4.81321">
        <ele>238</ele>
        <time>2018-09-15T10:02:32Z</time>
      </trkpt>
      <trkpt lat="45.9738" lon="4.81311">
        <ele>238</ele>
        <time>2018-09-15T10:02:33Z</time>
      </trkpt>
      <trkpt lat="45.97382" lon="4.81302">
        <ele>238</ele>
        <time>2018-09-15T10:02:34Z</time>
      </trkpt>
      <trkpt lat="45.97388" lon="4.81295">
        <ele>238</ele>
        <time>2018-09-15T10:02:35Z</time>
      </trkpt>
      <trkpt lat="45.97388" lon="4.81286">
        <ele>238</ele>
        <time>2018-09-15T10:02:36Z</time>
      </trkpt>
      <trkpt lat="45.9739" lon="4.81277">
        <ele>238</ele>
        <time>2018-09-15T10:02:37Z</time>
      </trkpt>
      <trkpt lat="45.97391" lon="4.81269">
        <ele>238</ele>
        <time>2018-09-15T10:02:38Z</time>
      </trkpt>
      <trkpt lat="45.97392" lon="4.81261">
        <ele>238</ele>
        <time>2018-09-15T10:02:39Z</time>
      </trkpt>
      <trkpt lat="45.97392" lon="4.81253">
        <ele>238</ele>
        <time>2018-09-15T10:02:40Z</time>
      </trkpt>
      <trkpt lat="45.97391" lon="4.81245">
        <ele>237</ele>
        <time>2018-09-15T10:02:41Z</time>
      </trkpt>
      <trkpt lat="45.97393" lon="4.8124">
        <ele>237</ele>
        <time>2018-09-15T10:02:42Z</time>
      </trkpt>
      <trkpt lat="45.97392" lon="4.81231">
        <ele>237</ele>
        <time>2018-09-15T10:02:43Z</time>
      </trkpt>
      <trkpt lat="45.97393" lon="4.81222">
        <ele>237</ele>
        <time>2018-09-15T10:02:44Z</time>
      </trkpt>
      <trkpt lat="45.97394" lon="4.81213">
        <ele>237</ele>
        <time>2018-09-15T10:02:45Z</time>
      </trkpt>
      <trkpt lat="45.97393" lon="4.81206">
        <ele>237</ele>
        <time>2018-09-15T10:02:46Z</time>
      </trkpt>
      <trkpt lat="45.97395" lon="4.81198">
        <ele>237</ele>
        <time>2018-09-15T10:02:47Z</time>
      </trkpt>
      <trkpt lat="45.97397" lon="4.8119">
        <ele>237</ele>
        <time>2018-09-15T10:02:48Z</time>
      </trkpt>
      <trkpt lat="45.97395" lon="4.81182">
        <ele>237</ele>
        <time>2018-09-15T10:02:49Z</time>
      </trkpt>
      <trkpt lat="45.97393" lon="4.81168">
        <ele>237</ele>
        <time>2018-09-15T10:02:50Z</time>
      </trkpt>
      <trkpt lat="45.97394" lon="4.81156">
        <ele>236</ele>
        <time>2018-09-15T10:02:52Z</time>
      </trkpt>
      <trkpt lat="45.97392" lon="4.81154">
        <ele>236</ele>
        <time>2018-09-15T10:02:53Z</time>
      </trkpt>
      <trkpt lat="45.97394" lon="4.81146">
        <ele>236</ele>
        <time>2018-09-15T10:02:54Z</time>
      </trkpt>
      <trkpt lat="45.97393" lon="4.81138">
        <ele>236</ele>
        <time>2018-09-15T10:02:55Z</time>
      </trkpt>
      <trkpt lat="45.97392" lon="4.81129">
        <ele>236</ele>
        <time>2018-09-15T10:02:56Z</time>
      </trkpt>
      <trkpt lat="45.97393" lon="4.81122">
        <ele>236</ele>
        <time>2018-09-15T10:02:57Z</time>
      </trkpt>
      <trkpt lat="45.97397" lon="4.81111">
        <ele>236</ele>
        <time>2018-09-15T10:02:59Z</time>
      </trkpt>
      <trkpt lat="45.97396" lon="4.81103">
        <ele>235</ele>
        <time>2018-09-15T10:03:00Z</time>
      </trkpt>
      <trkpt lat="45.97395" lon="4.81096">
        <ele>235</ele>
        <time>2018-09-15T10:03:01Z</time>
      </trkpt>
      <trkpt lat="45.97393" lon="4.81088">
        <ele>235</ele>
        <time>2018-09-15T10:03:02Z</time>
      </trkpt>
      <trkpt lat="45.97392" lon="4.8108">
        <ele>234</ele>
        <time>2018-09-15T10:03:03Z</time>
      </trkpt>
      <trkpt lat="45.9739" lon="4.81074">
        <ele>234</ele>
        <time>2018-09-15T10:03:04Z</time>
      </trkpt>
      <trkpt lat="45.97381" lon="4.81064">
        <ele>234</ele>
        <time>2018-09-15T10:03:05Z</time>
      </trkpt>
      <trkpt lat="45.97378" lon="4.81053">
        <ele>233</ele>
        <time>2018-09-15T10:03:07Z</time>
      </trkpt>
      <trkpt lat="45.97378" lon="4.81047">
        <ele>233</ele>
        <time>2018-09-15T10:03:08Z</time>
      </trkpt>
      <trkpt lat="45.97377" lon="4.8104">
        <ele>233</ele>
        <time>2018-09-15T10:03:09Z</time>
      </trkpt>
      <trkpt lat="45.97375" lon="4.81034">
        <ele>233</ele>
        <time>2018-09-15T10:03:10Z</time>
      </trkpt>
      <trkpt lat="45.97373" lon="4.81028">
        <ele>233</ele>
        <time>2018-09-15T10:03:11Z</time>
      </trkpt>
      <trkpt lat="45.9737" lon="4.81019">
        <ele>233</ele>
        <time>2018-09-15T10:03:12Z</time>
      </trkpt>
      <trkpt lat="45.97367" lon="4.81012">
        <ele>233</ele>
        <time>2018-09-15T10:03:13Z</time>
      </trkpt>
      <trkpt lat="45.97366" lon="4.81004">
        <ele>233</ele>
        <time>2018-09-15T10:03:14Z</time>
      </trkpt>
      <trkpt lat="45.97366" lon="4.80997">
        <ele>232</ele>
        <time>2018-09-15T10:03:15Z</time>
      </trkpt>
      <trkpt lat="45.97362" lon="4.80992">
        <ele>232</ele>
        <time>2018-09-15T10:03:16Z</time>
      </trkpt>
      <trkpt lat="45.97361" lon="4.80986">
        <ele>232</ele>
        <time>2018-09-15T10:03:17Z</time>
      </trkpt>
      <trkpt lat="45.97361" lon="4.80979">
        <ele>232</ele>
        <time>2018-09-15T10:03:18Z</time>
      </trkpt>
      <trkpt lat="45.97361" lon="4.80971">
        <ele>232</ele>
        <time>2018-09-15T10:03:19Z</time>
      </trkpt>
      <trkpt lat="45.9736" lon="4.80963">
        <ele>231</ele>
        <time>2018-09-15T10:03:20Z</time>
      </trkpt>
      <trkpt lat="45.97359" lon="4.80956">
        <ele>231</ele>
        <time>2018-09-15T10:03:21Z</time>
      </trkpt>
      <trkpt lat="45.97359" lon="4.80949">
        <ele>231</ele>
        <time>2018-09-15T10:03:22Z</time>
      </trkpt>
      <trkpt lat="45.97357" lon="4.80941">
        <ele>231</ele>
        <time>2018-09-15T10:03:23Z</time>
      </trkpt>
      <trkpt lat="45.97356" lon="4.80934">
        <ele>231</ele>
        <time>2018-09-15T10:03:24Z</time>
      </trkpt>
      <trkpt lat="45.97355" lon="4.80926">
        <ele>231</ele>
        <time>2018-09-15T10:03:25Z</time>
      </trkpt>
      <trkpt lat="45.97353" lon="4.80918">
        <ele>231</ele>
        <time>2018-09-15T10:03:26Z</time>
      </trkpt>
      <trkpt lat="45.97349" lon="4.80909">
        <ele>230</ele>
        <time>2018-09-15T10:03:27Z</time>
      </trkpt>
      <trkpt lat="45.97347" lon="4.80899">
        <ele>230</ele>
        <time>2018-09-15T10:03:28Z</time>
      </trkpt>
      <trkpt lat="45.97344" lon="4.80891">
        <ele>229</ele>
        <time>2018-09-15T10:03:29Z</time>
      </trkpt>
      <trkpt lat="45.97339" lon="4.80882">
        <ele>229</ele>
        <time>2018-09-15T10:03:30Z</time>
      </trkpt>
      <trkpt lat="45.97334" lon="4.80874">
        <ele>229</ele>
        <time>2018-09-15T10:03:31Z</time>
      </trkpt>
      <trkpt lat="45.97327" lon="4.80868">
        <ele>228</ele>
        <time>2018-09-15T10:03:32Z</time>
      </trkpt>
      <trkpt lat="45.97321" lon="4.80862">
        <ele>228</ele>
        <time>2018-09-15T10:03:33Z</time>
      </trkpt>
      <trkpt lat="45.97315" lon="4.80858">
        <ele>228</ele>
        <time>2018-09-15T10:03:34Z</time>
      </trkpt>
      <trkpt lat="45.97307" lon="4.80856">
        <ele>228</ele>
        <time>2018-09-15T10:03:35Z</time>
      </trkpt>
      <trkpt lat="45.973" lon="4.80855">
        <ele>228</ele>
        <time>2018-09-15T10:03:36Z</time>
      </trkpt>
      <trkpt lat="45.97292" lon="4.80853">
        <ele>228</ele>
        <time>2018-09-15T10:03:37Z</time>
      </trkpt>
      <trkpt lat="45.97285" lon="4.80851">
        <ele>228</ele>
        <time>2018-09-15T10:03:38Z</time>
      </trkpt>
      <trkpt lat="45.9728" lon="4.80845">
        <ele>227</ele>
        <time>2018-09-15T10:03:39Z</time>
      </trkpt>
      <trkpt lat="45.97275" lon="4.8084">
        <ele>227</ele>
        <time>2018-09-15T10:03:40Z</time>
      </trkpt>
      <trkpt lat="45.97267" lon="4.80834">
        <ele>227</ele>
        <time>2018-09-15T10:03:41Z</time>
      </trkpt>
      <trkpt lat="45.97259" lon="4.80826">
        <ele>227</ele>
        <time>2018-09-15T10:03:42Z</time>
      </trkpt>
      <trkpt lat="45.97258" lon="4.80817">
        <ele>227</ele>
        <time>2018-09-15T10:03:43Z</time>
      </trkpt>
      <trkpt lat="45.97256" lon="4.80808">
        <ele>227</ele>
        <time>2018-09-15T10:03:44Z</time>
      </trkpt>
      <trkpt lat="45.97253" lon="4.80799">
        <ele>227</ele>
        <time>2018-09-15T10:03:45Z</time>
      </trkpt>
      <trkpt lat="45.97251" lon="4.8079">
        <ele>227</ele>
        <time>2018-09-15T10:03:46Z</time>
      </trkpt>
      <trkpt lat="45.9725" lon="4.80782">
        <ele>229</ele>
        <time>2018-09-15T10:03:47Z</time>
      </trkpt>
      <trkpt lat="45.9725" lon="4.80774">
        <ele>227</ele>
        <time>2018-09-15T10:03:48Z</time>
      </trkpt>
      <trkpt lat="45.97251" lon="4.80765">
        <ele>227</ele>
        <time>2018-09-15T10:03:49Z</time>
      </trkpt>
      <trkpt lat="45.97251" lon="4.80759">
        <ele>228</ele>
        <time>2018-09-15T10:03:50Z</time>
      </trkpt>
      <trkpt lat="45.9725" lon="4.80752">
        <ele>228</ele>
        <time>2018-09-15T10:03:51Z</time>
      </trkpt>
      <trkpt lat="45.9725" lon="4.80743">
        <ele>227</ele>
        <time>2018-09-15T10:03:52Z</time>
      </trkpt>
      <trkpt lat="45.9725" lon="4.80734">
        <ele>229</ele>
        <time>2018-09-15T10:03:53Z</time>
      </trkpt>
      <trkpt lat="45.97249" lon="4.80726">
        <ele>229</ele>
        <time>2018-09-15T10:03:54Z</time>
      </trkpt>
      <trkpt lat="45.97252" lon="4.8072">
        <ele>227</ele>
        <time>2018-09-15T10:03:55Z</time>
      </trkpt>
      <trkpt lat="45.97254" lon="4.80715">
        <ele>227</ele>
        <time>2018-09-15T10:03:56Z</time>
      </trkpt>
      <trkpt lat="45.97254" lon="4.80706">
        <ele>227</ele>
        <time>2018-09-15T10:03:57Z</time>
      </trkpt>
      <trkpt lat="45.97252" lon="4.80699">
        <ele>227</ele>
        <time>2018-09-15T10:03:58Z</time>
      </trkpt>
      <trkpt lat="45.97254" lon="4.80693">
        <ele>227</ele>
        <time>2018-09-15T10:03:59Z</time>
      </trkpt>
      <trkpt lat="45.97254" lon="4.80685">
        <ele>227</ele>
        <time>2018-09-15T10:04:00Z</time>
      </trkpt>
      <trkpt lat="45.97256" lon="4.80677">
        <ele>227</ele>
        <time>2018-09-15T10:04:01Z</time>
      </trkpt>
      <trkpt lat="45.97256" lon="4.8067">
        <ele>227</ele>
        <time>2018-09-15T10:04:02Z</time>
      </trkpt>
      <trkpt lat="45.97253" lon="4.80664">
        <ele>228</ele>
        <time>2018-09-15T10:04:03Z</time>
      </trkpt>
      <trkpt lat="45.97253" lon="4.80657">
        <ele>227</ele>
        <time>2018-09-15T10:04:04Z</time>
      </trkpt>
      <trkpt lat="45.97251" lon="4.80651">
        <ele>227</ele>
        <time>2018-09-15T10:04:05Z</time>
      </trkpt>
      <trkpt lat="45.97252" lon="4.80643">
        <ele>226</ele>
        <time>2018-09-15T10:04:06Z</time>
      </trkpt>
      <trkpt lat="45.97251" lon="4.80638">
        <ele>226</ele>
        <time>2018-09-15T10:04:07Z</time>
      </trkpt>
      <trkpt lat="45.97248" lon="4.8063">
        <ele>229</ele>
        <time>2018-09-15T10:04:08Z</time>
      </trkpt>
      <trkpt lat="45.97249" lon="4.80624">
        <ele>229</ele>
        <time>2018-09-15T10:04:09Z</time>
      </trkpt>
      <trkpt lat="45.97248" lon="4.80617">
        <ele>228</ele>
        <time>2018-09-15T10:04:10Z</time>
      </trkpt>
      <trkpt lat="45.97247" lon="4.8061">
        <ele>228</ele>
        <time>2018-09-15T10:04:11Z</time>
      </trkpt>
      <trkpt lat="45.97247" lon="4.80602">
        <ele>228</ele>
        <time>2018-09-15T10:04:12Z</time>
      </trkpt>
      <trkpt lat="45.97247" lon="4.8059">
        <ele>228</ele>
        <time>2018-09-15T10:04:14Z</time>
      </trkpt>
      <trkpt lat="45.97246" lon="4.80584">
        <ele>227</ele>
        <time>2018-09-15T10:04:15Z</time>
      </trkpt>
      <trkpt lat="45.97245" lon="4.80572">
        <ele>227</ele>
        <time>2018-09-15T10:04:17Z</time>
      </trkpt>
      <trkpt lat="45.97244" lon="4.80566">
        <ele>227</ele>
        <time>2018-09-15T10:04:18Z</time>
      </trkpt>
      <trkpt lat="45.97242" lon="4.80559">
        <ele>227</ele>
        <time>2018-09-15T10:04:19Z</time>
      </trkpt>
      <trkpt lat="45.97241" lon="4.80553">
        <ele>227</ele>
        <time>2018-09-15T10:04:20Z</time>
      </trkpt>
      <trkpt lat="45.97238" lon="4.80542">
        <ele>227</ele>
        <time>2018-09-15T10:04:22Z</time>
      </trkpt>
      <trkpt lat="45.97236" lon="4.80535">
        <ele>227</ele>
        <time>2018-09-15T10:04:23Z</time>
      </trkpt>
      <trkpt lat="45.97235" lon="4.80528">
        <ele>227</ele>
        <time>2018-09-15T10:04:24Z</time>
      </trkpt>
      <trkpt lat="45.97232" lon="4.8052">
        <ele>227</ele>
        <time>2018-09-15T10:04:25Z</time>
      </trkpt>
      <trkpt lat="45.9723" lon="4.80514">
        <ele>227</ele>
        <time>2018-09-15T10:04:26Z</time>
      </trkpt>
      <trkpt lat="45.9723" lon="4.80507">
        <ele>227</ele>
        <time>2018-09-15T10:04:27Z</time>
      </trkpt>
      <trkpt lat="45.97227" lon="4.805">
        <ele>225</ele>
        <time>2018-09-15T10:04:28Z</time>
      </trkpt>
      <trkpt lat="45.97225" lon="4.80492">
        <ele>225</ele>
        <time>2018-09-15T10:04:29Z</time>
      </trkpt>
      <trkpt lat="45.97222" lon="4.80485">
        <ele>225</ele>
        <time>2018-09-15T10:04:30Z</time>
      </trkpt>
      <trkpt lat="45.97219" lon="4.80477">
        <ele>225</ele>
        <time>2018-09-15T10:04:31Z</time>
      </trkpt>
      <trkpt lat="45.97213" lon="4.80468">
        <ele>225</ele>
        <time>2018-09-15T10:04:32Z</time>
      </trkpt>
      <trkpt lat="45.97209" lon="4.8046">
        <ele>225</ele>
        <time>2018-09-15T10:04:33Z</time>
      </trkpt>
      <trkpt lat="45.9721" lon="4.80452">
        <ele>225</ele>
        <time>2018-09-15T10:04:34Z</time>
      </trkpt>
      <trkpt lat="45.97209" lon="4.80444">
        <ele>224</ele>
        <time>2018-09-15T10:04:35Z</time>
      </trkpt>
      <trkpt lat="45.97205" lon="4.80435">
        <ele>224</ele>
        <time>2018-09-15T10:04:36Z</time>
      </trkpt>
      <trkpt lat="45.97202" lon="4.80427">
        <ele>224</ele>
        <time>2018-09-15T10:04:37Z</time>
      </trkpt>
      <trkpt lat="45.97198" lon="4.80419">
        <ele>224</ele>
        <time>2018-09-15T10:04:38Z</time>
      </trkpt>
      <trkpt lat="45.97197" lon="4.8041">
        <ele>222</ele>
        <time>2018-09-15T10:04:39Z</time>
      </trkpt>
      <trkpt lat="45.97198" lon="4.80401">
        <ele>222</ele>
        <time>2018-09-15T10:04:40Z</time>
      </trkpt>
      <trkpt lat="45.97198" lon="4.80393">
        <ele>222</ele>
        <time>2018-09-15T10:04:41Z</time>
      </trkpt>
      <trkpt lat="45.97195" lon="4.80384">
        <ele>222</ele>
        <time>2018-09-15T10:04:42Z</time>
      </trkpt>
      <trkpt lat="45.97192" lon="4.80376">
        <ele>222</ele>
        <time>2018-09-15T10:04:43Z</time>
      </trkpt>
      <trkpt lat="45.9719" lon="4.80368">
        <ele>222</ele>
        <time>2018-09-15T10:04:44Z</time>
      </trkpt>
      <trkpt lat="45.97186" lon="4.80359">
        <ele>222</ele>
        <time>2018-09-15T10:04:45Z</time>
      </trkpt>
      <trkpt lat="45.97182" lon="4.80349">
        <ele>222</ele>
        <time>2018-09-15T10:04:46Z</time>
      </trkpt>
      <trkpt lat="45.97179" lon="4.8034">
        <ele>222</ele>
        <time>2018-09-15T10:04:47Z</time>
      </trkpt>
      <trkpt lat="45.97175" lon="4.80332">
        <ele>222</ele>
        <time>2018-09-15T10:04:48Z</time>
      </trkpt>
      <trkpt lat="45.97172" lon="4.80325">
        <ele>221</ele>
        <time>2018-09-15T10:04:49Z</time>
      </trkpt>
      <trkpt lat="45.97168" lon="4.80317">
        <ele>221</ele>
        <time>2018-09-15T10:04:50Z</time>
      </trkpt>
      <trkpt lat="45.97165" lon="4.8031">
        <ele>224</ele>
        <time>2018-09-15T10:04:51Z</time>
      </trkpt>
      <trkpt lat="45.97163" lon="4.80302">
        <ele>224</ele>
        <time>2018-09-15T10:04:52Z</time>
      </trkpt>
      <trkpt lat="45.97161" lon="4.80296">
        <ele>224</ele>
        <time>2018-09-15T10:04:53Z</time>
      </trkpt>
      <trkpt lat="45.97158" lon="4.80289">
        <ele>224</ele>
        <time>2018-09-15T10:04:54Z</time>
      </trkpt>
      <trkpt lat="45.97155" lon="4.80283">
        <ele>223</ele>
        <time>2018-09-15T10:04:55Z</time>
      </trkpt>
      <trkpt lat="45.97153" lon="4.80277">
        <ele>223</ele>
        <time>2018-09-15T10:04:56Z</time>
      </trkpt>
      <trkpt lat="45.97151" lon="4.80269">
        <ele>223</ele>
        <time>2018-09-15T10:04:57Z</time>
      </trkpt>
      <trkpt lat="45.97149" lon="4.80263">
        <ele>222</ele>
        <time>2018-09-15T10:04:58Z</time>
      </trkpt>
      <trkpt lat="45.97146" lon="4.80256">
        <ele>222</ele>
        <time>2018-09-15T10:04:59Z</time>
      </trkpt>
      <trkpt lat="45.97142" lon="4.80249">
        <ele>220</ele>
        <time>2018-09-15T10:05:00Z</time>
      </trkpt>
      <trkpt lat="45.97138" lon="4.80243">
        <ele>220</ele>
        <time>2018-09-15T10:05:01Z</time>
      </trkpt>
      <trkpt lat="45.97135" lon="4.80238">
        <ele>220</ele>
        <time>2018-09-15T10:05:02Z</time>
      </trkpt>
      <trkpt lat="45.97133" lon="4.80231">
        <ele>220</ele>
        <time>2018-09-15T10:05:03Z</time>
      </trkpt>
      <trkpt lat="45.97131" lon="4.80224">
        <ele>220</ele>
        <time>2018-09-15T10:05:04Z</time>
      </trkpt>
      <trkpt lat="45.97127" lon="4.80217">
        <ele>220</ele>
        <time>2018-09-15T10:05:05Z</time>
      </trkpt>
      <trkpt lat="45.97123" lon="4.8021">
        <ele>220</ele>
        <time>2018-09-15T10:05:06Z</time>
      </trkpt>
      <trkpt lat="45.97118" lon="4.80201">
        <ele>220</ele>
        <time>2018-09-15T10:05:07Z</time>
      </trkpt>
      <trkpt lat="45.97111" lon="4.80196">
        <ele>220</ele>
        <time>2018-09-15T10:05:08Z</time>
      </trkpt>
      <trkpt lat="45.97107" lon="4.8019">
        <ele>220</ele>
        <time>2018-09-15T10:05:09Z</time>
      </trkpt>
      <trkpt lat="45.97102" lon="4.80181">
        <ele>220</ele>
        <time>2018-09-15T10:05:10Z</time>
      </trkpt>
      <trkpt lat="45.97096" lon="4.80173">
        <ele>220</ele>
        <time>2018-09-15T10:05:11Z</time>
      </trkpt>
      <trkpt lat="45.97092" lon="4.80164">
        <ele>218</ele>
        <time>2018-09-15T10:05:12Z</time>
      </trkpt>
      <trkpt lat="45.97086" lon="4.80155">
        <ele>218</ele>
        <time>2018-09-15T10:05:13Z</time>
      </trkpt>
      <trkpt lat="45.97081" lon="4.80146">
        <ele>218</ele>
        <time>2018-09-15T10:05:14Z</time>
      </trkpt>
      <trkpt lat="45.97074" lon="4.80138">
        <ele>218</ele>
        <time>2018-09-15T10:05:15Z</time>
      </trkpt>
      <trkpt lat="45.97069" lon="4.8013">
        <ele>217</ele>
        <time>2018-09-15T10:05:16Z</time>
      </trkpt>
      <trkpt lat="45.97061" lon="4.80124">
        <ele>217</ele>
        <time>2018-09-15T10:05:17Z</time>
      </trkpt>
      <trkpt lat="45.97055" lon="4.80117">
        <ele>217</ele>
        <time>2018-09-15T10:05:18Z</time>
      </trkpt>
      <trkpt lat="45.97049" lon="4.8011">
        <ele>217</ele>
        <time>2018-09-15T10:05:19Z</time>
      </trkpt>
      <trkpt lat="45.97044" lon="4.80104">
        <ele>217</ele>
        <time>2018-09-15T10:05:20Z</time>
      </trkpt>
      <trkpt lat="45.97039" lon="4.80098">
        <ele>216</ele>
        <time>2018-09-15T10:05:21Z</time>
      </trkpt>
      <trkpt lat="45.97037" lon="4.80092">
        <ele>216</ele>
        <time>2018-09-15T10:05:22Z</time>
      </trkpt>
      <trkpt lat="45.97033" lon="4.80087">
        <ele>216</ele>
        <time>2018-09-15T10:05:23Z</time>
      </trkpt>
      <trkpt lat="45.9703" lon="4.80076">
        <ele>215</ele>
        <time>2018-09-15T10:05:25Z</time>
      </trkpt>
      <trkpt lat="45.9703" lon="4.80072">
        <ele>215</ele>
        <time>2018-09-15T10:05:26Z</time>
      </trkpt>
      <trkpt lat="45.97031" lon="4.8006">
        <ele>214</ele>
        <time>2018-09-15T10:05:28Z</time>
      </trkpt>
      <trkpt lat="45.97032" lon="4.80056">
        <ele>214</ele>
        <time>2018-09-15T10:05:29Z</time>
      </trkpt>
      <trkpt lat="45.97036" lon="4.80046">
        <ele>214</ele>
        <time>2018-09-15T10:05:31Z</time>
      </trkpt>
      <trkpt lat="45.97041" lon="4.80041">
        <ele>214</ele>
        <time>2018-09-15T10:05:32Z</time>
      </trkpt>
      <trkpt lat="45.97045" lon="4.80037">
        <ele>214</ele>
        <time>2018-09-15T10:05:33Z</time>
      </trkpt>
      <trkpt lat="45.9705" lon="4.80032">
        <ele>214</ele>
        <time>2018-09-15T10:05:34Z</time>
      </trkpt>
      <trkpt lat="45.97055" lon="4.80026">
        <ele>214</ele>
        <time>2018-09-15T10:05:35Z</time>
      </trkpt>
      <trkpt lat="45.97059" lon="4.8002">
        <ele>214</ele>
        <time>2018-09-15T10:05:36Z</time>
      </trkpt>
      <trkpt lat="45.97063" lon="4.80013">
        <ele>214</ele>
        <time>2018-09-15T10:05:37Z</time>
      </trkpt>
      <trkpt lat="45.97068" lon="4.80006">
        <ele>214</ele>
        <time>2018-09-15T10:05:38Z</time>
      </trkpt>
      <trkpt lat="45.97072" lon="4.79998">
        <ele>213</ele>
        <time>2018-09-15T10:05:39Z</time>
      </trkpt>
      <trkpt lat="45.97077" lon="4.79991">
        <ele>213</ele>
        <time>2018-09-15T10:05:40Z</time>
      </trkpt>
      <trkpt lat="45.97082" lon="4.79983">
        <ele>213</ele>
        <time>2018-09-15T10:05:41Z</time>
      </trkpt>
      <trkpt lat="45.97085" lon="4.79974">
        <ele>212</ele>
        <time>2018-09-15T10:05:42Z</time>
      </trkpt>
      <trkpt lat="45.9709" lon="4.79968">
        <ele>212</ele>
        <time>2018-09-15T10:05:43Z</time>
      </trkpt>
      <trkpt lat="45.97096" lon="4.79962">
        <ele>211</ele>
        <time>2018-09-15T10:05:44Z</time>
      </trkpt>
      <trkpt lat="45.97102" lon="4.79958">
        <ele>211</ele>
        <time>2018-09-15T10:05:45Z</time>
      </trkpt>
      <trkpt lat="45.97108" lon="4.79956">
        <ele>211</ele>
        <time>2018-09-15T10:05:46Z</time>
      </trkpt>
      <trkpt lat="45.97114" lon="4.79952">
        <ele>211</ele>
        <time>2018-09-15T10:05:47Z</time>
      </trkpt>
      <trkpt lat="45.9712" lon="4.7995">
        <ele>211</ele>
        <time>2018-09-15T10:05:48Z</time>
      </trkpt>
      <trkpt lat="45.97126" lon="4.79948">
        <ele>211</ele>
        <time>2018-09-15T10:05:49Z</time>
      </trkpt>
      <trkpt lat="45.97131" lon="4.79946">
        <ele>211</ele>
        <time>2018-09-15T10:05:50Z</time>
      </trkpt>
      <trkpt lat="45.97137" lon="4.79943">
        <ele>211</ele>
        <time>2018-09-15T10:05:51Z</time>
      </trkpt>
      <trkpt lat="45.97142" lon="4.79941">
        <ele>211</ele>
        <time>2018-09-15T10:05:52Z</time>
      </trkpt>
      <trkpt lat="45.97148" lon="4.79941">
        <ele>211</ele>
        <time>2018-09-15T10:05:53Z</time>
      </trkpt>
      <trkpt lat="45.97153" lon="4.79941">
        <ele>211</ele>
        <time>2018-09-15T10:05:54Z</time>
      </trkpt>
      <trkpt lat="45.97158" lon="4.79941">
        <ele>211</ele>
        <time>2018-09-15T10:05:55Z</time>
      </trkpt>
      <trkpt lat="45.97164" lon="4.7994">
        <ele>211</ele>
        <time>2018-09-15T10:05:56Z</time>
      </trkpt>
      <trkpt lat="45.97169" lon="4.79939">
        <ele>210</ele>
        <time>2018-09-15T10:05:57Z</time>
      </trkpt>
      <trkpt lat="45.97174" lon="4.7994">
        <ele>210</ele>
        <time>2018-09-15T10:05:58Z</time>
      </trkpt>
      <trkpt lat="45.97182" lon="4.7994">
        <ele>211</ele>
        <time>2018-09-15T10:06:00Z</time>
      </trkpt>
      <trkpt lat="45.97187" lon="4.79939">
        <ele>211</ele>
        <time>2018-09-15T10:06:01Z</time>
      </trkpt>
      <trkpt lat="45.97196" lon="4.79939">
        <ele>211</ele>
        <time>2018-09-15T10:06:03Z</time>
      </trkpt>
      <trkpt lat="45.972" lon="4.7994">
        <ele>211</ele>
        <time>2018-09-15T10:06:04Z</time>
      </trkpt>
      <trkpt lat="45.97205" lon="4.79938">
        <ele>211</ele>
        <time>2018-09-15T10:06:05Z</time>
      </trkpt>
      <trkpt lat="45.9721" lon="4.79936">
        <ele>211</ele>
        <time>2018-09-15T10:06:06Z</time>
      </trkpt>
      <trkpt lat="45.97215" lon="4.79935">
        <ele>211</ele>
        <time>2018-09-15T10:06:07Z</time>
      </trkpt>
      <trkpt lat="45.9722" lon="4.79934">
        <ele>211</ele>
        <time>2018-09-15T10:06:08Z</time>
      </trkpt>
      <trkpt lat="45.97225" lon="4.79933">
        <ele>211</ele>
        <time>2018-09-15T10:06:09Z</time>
      </trkpt>
      <trkpt lat="45.9723" lon="4.79932">
        <ele>211</ele>
        <time>2018-09-15T10:06:10Z</time>
      </trkpt>
      <trkpt lat="45.97234" lon="4.79932">
        <ele>211</ele>
        <time>2018-09-15T10:06:11Z</time>
      </trkpt>
      <trkpt lat="45.97239" lon="4.7993">
        <ele>211</ele>
        <time>2018-09-15T10:06:12Z</time>
      </trkpt>
      <trkpt lat="45.97245" lon="4.79926">
        <ele>212</ele>
        <time>2018-09-15T10:06:14Z</time>
      </trkpt>
      <trkpt lat="45.9725" lon="4.79921">
        <ele>212</ele>
        <time>2018-09-15T10:06:15Z</time>
      </trkpt>
      <trkpt lat="45.97252" lon="4.79915">
        <ele>212</ele>
        <time>2018-09-15T10:06:17Z</time>
      </trkpt>
      <trkpt lat="45.97252" lon="4.79906">
        <ele>213</ele>
        <time>2018-09-15T10:06:18Z</time>
      </trkpt>
      <trkpt lat="45.97249" lon="4.79895">
        <ele>211</ele>
        <time>2018-09-15T10:06:20Z</time>
      </trkpt>
      <trkpt lat="45.97246" lon="4.79888">
        <ele>211</ele>
        <time>2018-09-15T10:06:21Z</time>
      </trkpt>
      <trkpt lat="45.97245" lon="4.7988">
        <ele>211</ele>
        <time>2018-09-15T10:06:22Z</time>
      </trkpt>
      <trkpt lat="45.97243" lon="4.79873">
        <ele>211</ele>
        <time>2018-09-15T10:06:23Z</time>
      </trkpt>
      <trkpt lat="45.97241" lon="4.79864">
        <ele>211</ele>
        <time>2018-09-15T10:06:24Z</time>
      </trkpt>
      <trkpt lat="45.97241" lon="4.79854">
        <ele>211</ele>
        <time>2018-09-15T10:06:25Z</time>
      </trkpt>
      <trkpt lat="45.97242" lon="4.79845">
        <ele>211</ele>
        <time>2018-09-15T10:06:26Z</time>
      </trkpt>
      <trkpt lat="45.97243" lon="4.79836">
        <ele>212</ele>
        <time>2018-09-15T10:06:27Z</time>
      </trkpt>
      <trkpt lat="45.97244" lon="4.79827">
        <ele>211</ele>
        <time>2018-09-15T10:06:28Z</time>
      </trkpt>
      <trkpt lat="45.97241" lon="4.79821">
        <ele>211</ele>
        <time>2018-09-15T10:06:29Z</time>
      </trkpt>
      <trkpt lat="45.97243" lon="4.79811">
        <ele>211</ele>
        <time>2018-09-15T10:06:30Z</time>
      </trkpt>
      <trkpt lat="45.97242" lon="4.79804">
        <ele>210</ele>
        <time>2018-09-15T10:06:31Z</time>
      </trkpt>
      <trkpt lat="45.97243" lon="4.79795">
        <ele>210</ele>
        <time>2018-09-15T10:06:32Z</time>
      </trkpt>
      <trkpt lat="45.97243" lon="4.79787">
        <ele>210</ele>
        <time>2018-09-15T10:06:33Z</time>
      </trkpt>
      <trkpt lat="45.97243" lon="4.79779">
        <ele>210</ele>
        <time>2018-09-15T10:06:34Z</time>
      </trkpt>
      <trkpt lat="45.97243" lon="4.79772">
        <ele>210</ele>
        <time>2018-09-15T10:06:35Z</time>
      </trkpt>
      <trkpt lat="45.97243" lon="4.79762">
        <ele>209</ele>
        <time>2018-09-15T10:06:36Z</time>
      </trkpt>
      <trkpt lat="45.97245" lon="4.79756">
        <ele>209</ele>
        <time>2018-09-15T10:06:37Z</time>
      </trkpt>
      <trkpt lat="45.97244" lon="4.79748">
        <ele>209</ele>
        <time>2018-09-15T10:06:38Z</time>
      </trkpt>
      <trkpt lat="45.97244" lon="4.79742">
        <ele>209</ele>
        <time>2018-09-15T10:06:39Z</time>
      </trkpt>
      <trkpt lat="45.97245" lon="4.79735">
        <ele>209</ele>
        <time>2018-09-15T10:06:40Z</time>
      </trkpt>
      <trkpt lat="45.97246" lon="4.79727">
        <ele>209</ele>
        <time>2018-09-15T10:06:41Z</time>
      </trkpt>
      <trkpt lat="45.97246" lon="4.79719">
        <ele>209</ele>
        <time>2018-09-15T10:06:42Z</time>
      </trkpt>
      <trkpt lat="45.97247" lon="4.7971">
        <ele>209</ele>
        <time>2018-09-15T10:06:43Z</time>
      </trkpt>
      <trkpt lat="45.97248" lon="4.79703">
        <ele>208</ele>
        <time>2018-09-15T10:06:44Z</time>
      </trkpt>
      <trkpt lat="45.97249" lon="4.79693">
        <ele>208</ele>
        <time>2018-09-15T10:06:45Z</time>
      </trkpt>
      <trkpt lat="45.97253" lon="4.79689">
        <ele>211</ele>
        <time>2018-09-15T10:06:46Z</time>
      </trkpt>
      <trkpt lat="45.97255" lon="4.79681">
        <ele>211</ele>
        <time>2018-09-15T10:06:47Z</time>
      </trkpt>
      <trkpt lat="45.97257" lon="4.79675">
        <ele>210</ele>
        <time>2018-09-15T10:06:48Z</time>
      </trkpt>
      <trkpt lat="45.97258" lon="4.79668">
        <ele>210</ele>
        <time>2018-09-15T10:06:49Z</time>
      </trkpt>
      <trkpt lat="45.97258" lon="4.79661">
        <ele>210</ele>
        <time>2018-09-15T10:06:50Z</time>
      </trkpt>
      <trkpt lat="45.97259" lon="4.79655">
        <ele>211</ele>
        <time>2018-09-15T10:06:51Z</time>
      </trkpt>
      <trkpt lat="45.97259" lon="4.79647">
        <ele>212</ele>
        <time>2018-09-15T10:06:52Z</time>
      </trkpt>
      <trkpt lat="45.9726" lon="4.79639">
        <ele>213</ele>
        <time>2018-09-15T10:06:53Z</time>
      </trkpt>
      <trkpt lat="45.97259" lon="4.79629">
        <ele>213</ele>
        <time>2018-09-15T10:06:54Z</time>
      </trkpt>
      <trkpt lat="45.97259" lon="4.79622">
        <ele>213</ele>
        <time>2018-09-15T10:06:55Z</time>
      </trkpt>
      <trkpt lat="45.97259" lon="4.79615">
        <ele>213</ele>
        <time>2018-09-15T10:06:56Z</time>
      </trkpt>
      <trkpt lat="45.97259" lon="4.79607">
        <ele>213</ele>
        <time>2018-09-15T10:06:57Z</time>
      </trkpt>
      <trkpt lat="45.97259" lon="4.79599">
        <ele>212</ele>
        <time>2018-09-15T10:06:58Z</time>
      </trkpt>
      <trkpt lat="45.97258" lon="4.79591">
        <ele>212</ele>
        <time>2018-09-15T10:06:59Z</time>
      </trkpt>
      <trkpt lat="45.97259" lon="4.79578">
        <ele>212</ele>
        <time>2018-09-15T10:07:01Z</time>
      </trkpt>
      <trkpt lat="45.97258" lon="4.79572">
        <ele>213</ele>
        <time>2018-09-15T10:07:02Z</time>
      </trkpt>
      <trkpt lat="45.97257" lon="4.79564">
        <ele>213</ele>
        <time>2018-09-15T10:07:03Z</time>
      </trkpt>
      <trkpt lat="45.97255" lon="4.79558">
        <ele>213</ele>
        <time>2018-09-15T10:07:04Z</time>
      </trkpt>
      <trkpt lat="45.97254" lon="4.79552">
        <ele>214</ele>
        <time>2018-09-15T10:07:05Z</time>
      </trkpt>
      <trkpt lat="45.97254" lon="4.79545">
        <ele>214</ele>
        <time>2018-09-15T10:07:06Z</time>
      </trkpt>
      <trkpt lat="45.97253" lon="4.79538">
        <ele>214</ele>
        <time>2018-09-15T10:07:07Z</time>
      </trkpt>
      <trkpt lat="45.97251" lon="4.79531">
        <ele>214</ele>
        <time>2018-09-15T10:07:08Z</time>
      </trkpt>
      <trkpt lat="45.9725" lon="4.79525">
        <ele>210</ele>
        <time>2018-09-15T10:07:09Z</time>
      </trkpt>
      <trkpt lat="45.97249" lon="4.79518">
        <ele>210</ele>
        <time>2018-09-15T10:07:10Z</time>
      </trkpt>
      <trkpt lat="45.97249" lon="4.79507">
        <ele>210</ele>
        <time>2018-09-15T10:07:12Z</time>
      </trkpt>
      <trkpt lat="45.97247" lon="4.79501">
        <ele>211</ele>
        <time>2018-09-15T10:07:13Z</time>
      </trkpt>
      <trkpt lat="45.97244" lon="4.79495">
        <ele>210</ele>
        <time>2018-09-15T10:07:14Z</time>
      </trkpt>
      <trkpt lat="45.97243" lon="4.79488">
        <ele>210</ele>
        <time>2018-09-15T10:07:15Z</time>
      </trkpt>
      <trkpt lat="45.97242" lon="4.79475">
        <ele>209</ele>
        <time>2018-09-15T10:07:17Z</time>
      </trkpt>
      <trkpt lat="45.97241" lon="4.79469">
        <ele>209</ele>
        <time>2018-09-15T10:07:18Z</time>
      </trkpt>
      <trkpt lat="45.97239" lon="4.79463">
        <ele>209</ele>
        <time>2018-09-15T10:07:19Z</time>
      </trkpt>
      <trkpt lat="45.97236" lon="4.79458">
        <ele>209</ele>
        <time>2018-09-15T10:07:20Z</time>
      </trkpt>
      <trkpt lat="45.97233" lon="4.79451">
        <ele>209</ele>
        <time>2018-09-15T10:07:21Z</time>
      </trkpt>
      <trkpt lat="45.97231" lon="4.79445">
        <ele>209</ele>
        <time>2018-09-15T10:07:22Z</time>
      </trkpt>
      <trkpt lat="45.97229" lon="4.79438">
        <ele>209</ele>
        <time>2018-09-15T10:07:23Z</time>
      </trkpt>
      <trkpt lat="45.97228" lon="4.79432">
        <ele>209</ele>
        <time>2018-09-15T10:07:24Z</time>
      </trkpt>
      <trkpt lat="45.97226" lon="4.79426">
        <ele>209</ele>
        <time>2018-09-15T10:07:25Z</time>
      </trkpt>
      <trkpt lat="45.97224" lon="4.79418">
        <ele>209</ele>
        <time>2018-09-15T10:07:26Z</time>
      </trkpt>
      <trkpt lat="45.97222" lon="4.79412">
        <ele>208</ele>
        <time>2018-09-15T10:07:27Z</time>
      </trkpt>
      <trkpt lat="45.97219" lon="4.79405">
        <ele>208</ele>
        <time>2018-09-15T10:07:28Z</time>
      </trkpt>
      <trkpt lat="45.97216" lon="4.79398">
        <ele>208</ele>
        <time>2018-09-15T10:07:29Z</time>
      </trkpt>
      <trkpt lat="45.97215" lon="4.79392">
        <ele>208</ele>
        <time>2018-09-15T10:07:30Z</time>
      </trkpt>
      <trkpt lat="45.97212" lon="4.79382">
        <ele>208</ele>
        <time>2018-09-15T10:07:32Z</time>
      </trkpt>
      <trkpt lat="45.9721" lon="4.79379">
        <ele>208</ele>
        <time>2018-09-15T10:07:33Z</time>
      </trkpt>
      <trkpt lat="45.97206" lon="4.79371">
        <ele>208</ele>
        <time>2018-09-15T10:07:34Z</time>
      </trkpt>
      <trkpt lat="45.97203" lon="4.79365">
        <ele>208</ele>
        <time>2018-09-15T10:07:35Z</time>
      </trkpt>
      <trkpt lat="45.972" lon="4.79359">
        <ele>207</ele>
        <time>2018-09-15T10:07:36Z</time>
      </trkpt>
      <trkpt lat="45.97195" lon="4.79352">
        <ele>207</ele>
        <time>2018-09-15T10:07:37Z</time>
      </trkpt>
      <trkpt lat="45.97192" lon="4.79346">
        <ele>207</ele>
        <time>2018-09-15T10:07:38Z</time>
      </trkpt>
      <trkpt lat="45.97188" lon="4.79339">
        <ele>207</ele>
        <time>2018-09-15T10:07:39Z</time>
      </trkpt>
      <trkpt lat="45.97185" lon="4.79332">
        <ele>207</ele>
        <time>2018-09-15T10:07:40Z</time>
      </trkpt>
      <trkpt lat="45.97182" lon="4.79323">
        <ele>207</ele>
        <time>2018-09-15T10:07:41Z</time>
      </trkpt>
      <trkpt lat="45.97177" lon="4.79314">
        <ele>207</ele>
        <time>2018-09-15T10:07:42Z</time>
      </trkpt>
      <trkpt lat="45.97173" lon="4.79307">
        <ele>207</ele>
        <time>2018-09-15T10:07:43Z</time>
      </trkpt>
      <trkpt lat="45.97171" lon="4.79298">
        <ele>207</ele>
        <time>2018-09-15T10:07:44Z</time>
      </trkpt>
      <trkpt lat="45.97169" lon="4.79291">
        <ele>207</ele>
        <time>2018-09-15T10:07:45Z</time>
      </trkpt>
      <trkpt lat="45.97163" lon="4.79283">
        <ele>204</ele>
        <time>2018-09-15T10:07:46Z</time>
      </trkpt>
      <trkpt lat="45.9716" lon="4.79276">
        <ele>204</ele>
        <time>2018-09-15T10:07:47Z</time>
      </trkpt>
      <trkpt lat="45.97157" lon="4.79268">
        <ele>204</ele>
        <time>2018-09-15T10:07:48Z</time>
      </trkpt>
      <trkpt lat="45.97155" lon="4.7926">
        <ele>205</ele>
        <time>2018-09-15T10:07:49Z</time>
      </trkpt>
      <trkpt lat="45.9715" lon="4.79253">
        <ele>204</ele>
        <time>2018-09-15T10:07:50Z</time>
      </trkpt>
      <trkpt lat="45.97148" lon="4.79247">
        <ele>205</ele>
        <time>2018-09-15T10:07:51Z</time>
      </trkpt>
      <trkpt lat="45.97147" lon="4.79238">
        <ele>205</ele>
        <time>2018-09-15T10:07:52Z</time>
      </trkpt>
      <trkpt lat="45.97142" lon="4.79232">
        <ele>205</ele>
        <time>2018-09-15T10:07:53Z</time>
      </trkpt>
      <trkpt lat="45.97141" lon="4.79224">
        <ele>206</ele>
        <time>2018-09-15T10:07:54Z</time>
      </trkpt>
      <trkpt lat="45.97138" lon="4.79216">
        <ele>206</ele>
        <time>2018-09-15T10:07:55Z</time>
      </trkpt>
      <trkpt lat="45.97132" lon="4.79207">
        <ele>206</ele>
        <time>2018-09-15T10:07:56Z</time>
      </trkpt>
      <trkpt lat="45.97128" lon="4.79199">
        <ele>206</ele>
        <time>2018-09-15T10:07:57Z</time>
      </trkpt>
      <trkpt lat="45.97125" lon="4.79191">
        <ele>206</ele>
        <time>2018-09-15T10:07:58Z</time>
      </trkpt>
      <trkpt lat="45.97122" lon="4.79183">
        <ele>206</ele>
        <time>2018-09-15T10:07:59Z</time>
      </trkpt>
      <trkpt lat="45.9712" lon="4.79174">
        <ele>206</ele>
        <time>2018-09-15T10:08:00Z</time>
      </trkpt>
      <trkpt lat="45.97117" lon="4.79166">
        <ele>207</ele>
        <time>2018-09-15T10:08:01Z</time>
      </trkpt>
      <trkpt lat="45.97114" lon="4.79159">
        <ele>207</ele>
        <time>2018-09-15T10:08:02Z</time>
      </trkpt>
      <trkpt lat="45.9711" lon="4.79152">
        <ele>206</ele>
        <time>2018-09-15T10:08:03Z</time>
      </trkpt>
      <trkpt lat="45.97108" lon="4.79145">
        <ele>206</ele>
        <time>2018-09-15T10:08:04Z</time>
      </trkpt>
      <trkpt lat="45.97104" lon="4.79138">
        <ele>206</ele>
        <time>2018-09-15T10:08:05Z</time>
      </trkpt>
      <trkpt lat="45.97102" lon="4.79133">
        <ele>206</ele>
        <time>2018-09-15T10:08:06Z</time>
      </trkpt>
      <trkpt lat="45.97097" lon="4.79126">
        <ele>206</ele>
        <time>2018-09-15T10:08:07Z</time>
      </trkpt>
      <trkpt lat="45.97092" lon="4.7912">
        <ele>206</ele>
        <time>2018-09-15T10:08:08Z</time>
      </trkpt>
      <trkpt lat="45.97087" lon="4.79112">
        <ele>206</ele>
        <time>2018-09-15T10:08:09Z</time>
      </trkpt>
      <trkpt lat="45.97085" lon="4.79105">
        <ele>206</ele>
        <time>2018-09-15T10:08:10Z</time>
      </trkpt>
      <trkpt lat="45.97083" lon="4.79098">
        <ele>204</ele>
        <time>2018-09-15T10:08:11Z</time>
      </trkpt>
      <trkpt lat="45.97083" lon="4.79091">
        <ele>204</ele>
        <time>2018-09-15T10:08:12Z</time>
      </trkpt>
      <trkpt lat="45.97081" lon="4.79084">
        <ele>204</ele>
        <time>2018-09-15T10:08:13Z</time>
      </trkpt>
      <trkpt lat="45.97083" lon="4.79078">
        <ele>204</ele>
        <time>2018-09-15T10:08:14Z</time>
      </trkpt>
      <trkpt lat="45.97083" lon="4.79069">
        <ele>204</ele>
        <time>2018-09-15T10:08:15Z</time>
      </trkpt>
      <trkpt lat="45.9708" lon="4.79062">
        <ele>204</ele>
        <time>2018-09-15T10:08:16Z</time>
      </trkpt>
      <trkpt lat="45.97078" lon="4.79054">
        <ele>203</ele>
        <time>2018-09-15T10:08:17Z</time>
      </trkpt>
      <trkpt lat="45.97074" lon="4.79046">
        <ele>203</ele>
        <time>2018-09-15T10:08:18Z</time>
      </trkpt>
      <trkpt lat="45.97071" lon="4.79038">
        <ele>203</ele>
        <time>2018-09-15T10:08:19Z</time>
      </trkpt>
      <trkpt lat="45.97071" lon="4.7903">
        <ele>204</ele>
        <time>2018-09-15T10:08:20Z</time>
      </trkpt>
      <trkpt lat="45.97068" lon="4.79022">
        <ele>204</ele>
        <time>2018-09-15T10:08:21Z</time>
      </trkpt>
      <trkpt lat="45.97064" lon="4.79015">
        <ele>204</ele>
        <time>2018-09-15T10:08:22Z</time>
      </trkpt>
      <trkpt lat="45.97062" lon="4.79008">
        <ele>204</ele>
        <time>2018-09-15T10:08:23Z</time>
      </trkpt>
      <trkpt lat="45.9706" lon="4.79001">
        <ele>204</ele>
        <time>2018-09-15T10:08:24Z</time>
      </trkpt>
      <trkpt lat="45.97058" lon="4.78996">
        <ele>205</ele>
        <time>2018-09-15T10:08:25Z</time>
      </trkpt>
      <trkpt lat="45.97056" lon="4.78989">
        <ele>205</ele>
        <time>2018-09-15T10:08:26Z</time>
      </trkpt>
      <trkpt lat="45.97055" lon="4.78983">
        <ele>205</ele>
        <time>2018-09-15T10:08:27Z</time>
      </trkpt>
      <trkpt lat="45.97052" lon="4.78978">
        <ele>205</ele>
        <time>2018-09-15T10:08:28Z</time>
      </trkpt>
      <trkpt lat="45.9705" lon="4.78971">
        <ele>205</ele>
        <time>2018-09-15T10:08:29Z</time>
      </trkpt>
      <trkpt lat="45.97049" lon="4.78962">
        <ele>205</ele>
        <time>2018-09-15T10:08:31Z</time>
      </trkpt>
      <trkpt lat="45.97044" lon="4.78956">
        <ele>205</ele>
        <time>2018-09-15T10:08:32Z</time>
      </trkpt>
      <trkpt lat="45.9704" lon="4.78951">
        <ele>205</ele>
        <time>2018-09-15T10:08:33Z</time>
      </trkpt>
      <trkpt lat="45.97036" lon="4.78946">
        <ele>205</ele>
        <time>2018-09-15T10:08:34Z</time>
      </trkpt>
      <trkpt lat="45.97034" lon="4.7894">
        <ele>205</ele>
        <time>2018-09-15T10:08:35Z</time>
      </trkpt>
      <trkpt lat="45.9703" lon="4.78934">
        <ele>205</ele>
        <time>2018-09-15T10:08:36Z</time>
      </trkpt>
      <trkpt lat="45.97024" lon="4.78929">
        <ele>205</ele>
        <time>2018-09-15T10:08:37Z</time>
      </trkpt>
      <trkpt lat="45.97019" lon="4.78922">
        <ele>205</ele>
        <time>2018-09-15T10:08:38Z</time>
      </trkpt>
      <trkpt lat="45.97014" lon="4.78914">
        <ele>206</ele>
        <time>2018-09-15T10:08:39Z</time>
      </trkpt>
      <trkpt lat="45.97009" lon="4.78906">
        <ele>206</ele>
        <time>2018-09-15T10:08:40Z</time>
      </trkpt>
      <trkpt lat="45.97003" lon="4.78898">
        <ele>206</ele>
        <time>2018-09-15T10:08:41Z</time>
      </trkpt>
      <trkpt lat="45.96997" lon="4.78891">
        <ele>203</ele>
        <time>2018-09-15T10:08:42Z</time>
      </trkpt>
      <trkpt lat="45.96989" lon="4.78885">
        <ele>203</ele>
        <time>2018-09-15T10:08:43Z</time>
      </trkpt>
      <trkpt lat="45.96983" lon="4.78878">
        <ele>203</ele>
        <time>2018-09-15T10:08:44Z</time>
      </trkpt>
      <trkpt lat="45.96976" lon="4.78872">
        <ele>203</ele>
        <time>2018-09-15T10:08:45Z</time>
      </trkpt>
      <trkpt lat="45.96971" lon="4.78865">
        <ele>203</ele>
        <time>2018-09-15T10:08:46Z</time>
      </trkpt>
      <trkpt lat="45.96965" lon="4.78858">
        <ele>203</ele>
        <time>2018-09-15T10:08:47Z</time>
      </trkpt>
      <trkpt lat="45.96959" lon="4.78852">
        <ele>203</ele>
        <time>2018-09-15T10:08:48Z</time>
      </trkpt>
      <trkpt lat="45.96954" lon="4.78846">
        <ele>203</ele>
        <time>2018-09-15T10:08:49Z</time>
      </trkpt>
      <trkpt lat="45.96948" lon="4.78839">
        <ele>202</ele>
        <time>2018-09-15T10:08:50Z</time>
      </trkpt>
      <trkpt lat="45.96943" lon="4.78832">
        <ele>203</ele>
        <time>2018-09-15T10:08:51Z</time>
      </trkpt>
      <trkpt lat="45.96937" lon="4.78826">
        <ele>202</ele>
        <time>2018-09-15T10:08:52Z</time>
      </trkpt>
      <trkpt lat="45.96932" lon="4.78819">
        <ele>202</ele>
        <time>2018-09-15T10:08:53Z</time>
      </trkpt>
      <trkpt lat="45.96926" lon="4.78811">
        <ele>202</ele>
        <time>2018-09-15T10:08:54Z</time>
      </trkpt>
      <trkpt lat="45.96922" lon="4.78805">
        <ele>203</ele>
        <time>2018-09-15T10:08:55Z</time>
      </trkpt>
      <trkpt lat="45.96918" lon="4.78798">
        <ele>203</ele>
        <time>2018-09-15T10:08:56Z</time>
      </trkpt>
      <trkpt lat="45.96914" lon="4.7879">
        <ele>201</ele>
        <time>2018-09-15T10:08:57Z</time>
      </trkpt>
      <trkpt lat="45.96911" lon="4.78782">
        <ele>201</ele>
        <time>2018-09-15T10:08:58Z</time>
      </trkpt>
      <trkpt lat="45.96907" lon="4.78775">
        <ele>201</ele>
        <time>2018-09-15T10:08:59Z</time>
      </trkpt>
      <trkpt lat="45.96903" lon="4.78767">
        <ele>201</ele>
        <time>2018-09-15T10:09:00Z</time>
      </trkpt>
      <trkpt lat="45.96899" lon="4.78759">
        <ele>201</ele>
        <time>2018-09-15T10:09:01Z</time>
      </trkpt>
      <trkpt lat="45.96895" lon="4.7875">
        <ele>202</ele>
        <time>2018-09-15T10:09:02Z</time>
      </trkpt>
      <trkpt lat="45.96891" lon="4.78741">
        <ele>202</ele>
        <time>2018-09-15T10:09:03Z</time>
      </trkpt>
      <trkpt lat="45.96887" lon="4.78732">
        <ele>202</ele>
        <time>2018-09-15T10:09:04Z</time>
      </trkpt>
      <trkpt lat="45.96882" lon="4.78724">
        <ele>202</ele>
        <time>2018-09-15T10:09:05Z</time>
      </trkpt>
      <trkpt lat="45.96878" lon="4.78715">
        <ele>202</ele>
        <time>2018-09-15T10:09:06Z</time>
      </trkpt>
      <trkpt lat="45.96875" lon="4.78707">
        <ele>202</ele>
        <time>2018-09-15T10:09:07Z</time>
      </trkpt>
      <trkpt lat="45.96871" lon="4.78698">
        <ele>202</ele>
        <time>2018-09-15T10:09:08Z</time>
      </trkpt>
      <trkpt lat="45.96866" lon="4.78692">
        <ele>202</ele>
        <time>2018-09-15T10:09:09Z</time>
      </trkpt>
      <trkpt lat="45.96862" lon="4.78684">
        <ele>202</ele>
        <time>2018-09-15T10:09:10Z</time>
      </trkpt>
      <trkpt lat="45.9686" lon="4.78676">
        <ele>202</ele>
        <time>2018-09-15T10:09:11Z</time>
      </trkpt>
      <trkpt lat="45.96857" lon="4.78667">
        <ele>202</ele>
        <time>2018-09-15T10:09:12Z</time>
      </trkpt>
      <trkpt lat="45.96853" lon="4.7866">
        <ele>203</ele>
        <time>2018-09-15T10:09:13Z</time>
      </trkpt>
      <trkpt lat="45.96849" lon="4.78652">
        <ele>203</ele>
        <time>2018-09-15T10:09:14Z</time>
      </trkpt>
      <trkpt lat="45.96844" lon="4.78644">
        <ele>203</ele>
        <time>2018-09-15T10:09:15Z</time>
      </trkpt>
      <trkpt lat="45.96839" lon="4.78636">
        <ele>203</ele>
        <time>2018-09-15T10:09:16Z</time>
      </trkpt>
      <trkpt lat="45.96835" lon="4.78626">
        <ele>203</ele>
        <time>2018-09-15T10:09:17Z</time>
      </trkpt>
      <trkpt lat="45.96833" lon="4.78616">
        <ele>202</ele>
        <time>2018-09-15T10:09:18Z</time>
      </trkpt>
      <trkpt lat="45.96832" lon="4.7861">
        <ele>202</ele>
        <time>2018-09-15T10:09:19Z</time>
      </trkpt>
      <trkpt lat="45.9683" lon="4.78601">
        <ele>202</ele>
        <time>2018-09-15T10:09:20Z</time>
      </trkpt>
      <trkpt lat="45.96829" lon="4.78591">
        <ele>202</ele>
        <time>2018-09-15T10:09:21Z</time>
      </trkpt>
      <trkpt lat="45.96825" lon="4.78586">
        <ele>202</ele>
        <time>2018-09-15T10:09:22Z</time>
      </trkpt>
      <trkpt lat="45.96822" lon="4.7858">
        <ele>203</ele>
        <time>2018-09-15T10:09:23Z</time>
      </trkpt>
      <trkpt lat="45.96818" lon="4.78576">
        <ele>203</ele>
        <time>2018-09-15T10:09:24Z</time>
      </trkpt>
      <trkpt lat="45.96814" lon="4.78569">
        <ele>203</ele>
        <time>2018-09-15T10:09:25Z</time>
      </trkpt>
      <trkpt lat="45.9681" lon="4.78564">
        <ele>203</ele>
        <time>2018-09-15T10:09:26Z</time>
      </trkpt>
      <trkpt lat="45.96807" lon="4.78557">
        <ele>203</ele>
        <time>2018-09-15T10:09:27Z</time>
      </trkpt>
      <trkpt lat="45.96803" lon="4.78551">
        <ele>203</ele>
        <time>2018-09-15T10:09:28Z</time>
      </trkpt>
      <trkpt lat="45.96799" lon="4.78544">
        <ele>203</ele>
        <time>2018-09-15T10:09:29Z</time>
      </trkpt>
      <trkpt lat="45.96795" lon="4.78536">
        <ele>203</ele>
        <time>2018-09-15T10:09:30Z</time>
      </trkpt>
      <trkpt lat="45.9679" lon="4.7853">
        <ele>203</ele>
        <time>2018-09-15T10:09:31Z</time>
      </trkpt>
      <trkpt lat="45.96784" lon="4.78522">
        <ele>203</ele>
        <time>2018-09-15T10:09:32Z</time>
      </trkpt>
      <trkpt lat="45.96781" lon="4.78516">
        <ele>203</ele>
        <time>2018-09-15T10:09:33Z</time>
      </trkpt>
      <trkpt lat="45.9678" lon="4.7851">
        <ele>203</ele>
        <time>2018-09-15T10:09:34Z</time>
      </trkpt>
      <trkpt lat="45.96774" lon="4.78504">
        <ele>203</ele>
        <time>2018-09-15T10:09:35Z</time>
      </trkpt>
      <trkpt lat="45.9677" lon="4.78497">
        <ele>205</ele>
        <time>2018-09-15T10:09:36Z</time>
      </trkpt>
      <trkpt lat="45.96768" lon="4.78489">
        <ele>205</ele>
        <time>2018-09-15T10:09:37Z</time>
      </trkpt>
      <trkpt lat="45.96761" lon="4.78485">
        <ele>205</ele>
        <time>2018-09-15T10:09:38Z</time>
      </trkpt>
      <trkpt lat="45.96756" lon="4.78482">
        <ele>205</ele>
        <time>2018-09-15T10:09:39Z</time>
      </trkpt>
      <trkpt lat="45.9675" lon="4.78476">
        <ele>203</ele>
        <time>2018-09-15T10:09:40Z</time>
      </trkpt>
      <trkpt lat="45.96743" lon="4.78472">
        <ele>203</ele>
        <time>2018-09-15T10:09:41Z</time>
      </trkpt>
      <trkpt lat="45.96736" lon="4.78468">
        <ele>203</ele>
        <time>2018-09-15T10:09:42Z</time>
      </trkpt>
      <trkpt lat="45.96733" lon="4.78465">
        <ele>203</ele>
        <time>2018-09-15T10:09:43Z</time>
      </trkpt>
      <trkpt lat="45.96728" lon="4.7846">
        <ele>203</ele>
        <time>2018-09-15T10:09:44Z</time>
      </trkpt>
      <trkpt lat="45.96723" lon="4.78454">
        <ele>203</ele>
        <time>2018-09-15T10:09:45Z</time>
      </trkpt>
      <trkpt lat="45.96719" lon="4.7845">
        <ele>203</ele>
        <time>2018-09-15T10:09:46Z</time>
      </trkpt>
      <trkpt lat="45.96714" lon="4.78446">
        <ele>203</ele>
        <time>2018-09-15T10:09:47Z</time>
      </trkpt>
      <trkpt lat="45.96709" lon="4.7844">
        <ele>203</ele>
        <time>2018-09-15T10:09:48Z</time>
      </trkpt>
      <trkpt lat="45.96703" lon="4.78436">
        <ele>203</ele>
        <time>2018-09-15T10:09:49Z</time>
      </trkpt>
      <trkpt lat="45.967" lon="4.78431">
        <ele>203</ele>
        <time>2018-09-15T10:09:50Z</time>
      </trkpt>
      <trkpt lat="45.96697" lon="4.78425">
        <ele>203</ele>
        <time>2018-09-15T10:09:51Z</time>
      </trkpt>
      <trkpt lat="45.96693" lon="4.7842">
        <ele>202</ele>
        <time>2018-09-15T10:09:52Z</time>
      </trkpt>
      <trkpt lat="45.96689" lon="4.78416">
        <ele>204</ele>
        <time>2018-09-15T10:09:53Z</time>
      </trkpt>
      <trkpt lat="45.96685" lon="4.78412">
        <ele>204</ele>
        <time>2018-09-15T10:09:54Z</time>
      </trkpt>
      <trkpt lat="45.96678" lon="4.78409">
        <ele>203</ele>
        <time>2018-09-15T10:09:55Z</time>
      </trkpt>
      <trkpt lat="45.96674" lon="4.78404">
        <ele>203</ele>
        <time>2018-09-15T10:09:56Z</time>
      </trkpt>
      <trkpt lat="45.96671" lon="4.78398">
        <ele>204</ele>
        <time>2018-09-15T10:09:57Z</time>
      </trkpt>
      <trkpt lat="45.96665" lon="4.78393">
        <ele>201</ele>
        <time>2018-09-15T10:09:58Z</time>
      </trkpt>
      <trkpt lat="45.9666" lon="4.78388">
        <ele>201</ele>
        <time>2018-09-15T10:09:59Z</time>
      </trkpt>
      <trkpt lat="45.96655" lon="4.78382">
        <ele>201</ele>
        <time>2018-09-15T10:10:00Z</time>
      </trkpt>
      <trkpt lat="45.9665" lon="4.78378">
        <ele>201</ele>
        <time>2018-09-15T10:10:01Z</time>
      </trkpt>
      <trkpt lat="45.96646" lon="4.78373">
        <ele>201</ele>
        <time>2018-09-15T10:10:02Z</time>
      </trkpt>
      <trkpt lat="45.96641" lon="4.78368">
        <ele>201</ele>
        <time>2018-09-15T10:10:03Z</time>
      </trkpt>
      <trkpt lat="45.96634" lon="4.78364">
        <ele>201</ele>
        <time>2018-09-15T10:10:04Z</time>
      </trkpt>
      <trkpt lat="45.96629" lon="4.78358">
        <ele>201</ele>
        <time>2018-09-15T10:10:05Z</time>
      </trkpt>
      <trkpt lat="45.96624" lon="4.78355">
        <ele>201</ele>
        <time>2018-09-15T10:10:06Z</time>
      </trkpt>
      <trkpt lat="45.96618" lon="4.78349">
        <ele>201</ele>
        <time>2018-09-15T10:10:07Z</time>
      </trkpt>
      <trkpt lat="45.96612" lon="4.78344">
        <ele>200</ele>
        <time>2018-09-15T10:10:08Z</time>
      </trkpt>
      <trkpt lat="45.96605" lon="4.78339">
        <ele>200</ele>
        <time>2018-09-15T10:10:09Z</time>
      </trkpt>
      <trkpt lat="45.966" lon="4.78334">
        <ele>200</ele>
        <time>2018-09-15T10:10:10Z</time>
      </trkpt>
      <trkpt lat="45.96595" lon="4.78329">
        <ele>201</ele>
        <time>2018-09-15T10:10:11Z</time>
      </trkpt>
      <trkpt lat="45.9659" lon="4.78323">
        <ele>201</ele>
        <time>2018-09-15T10:10:12Z</time>
      </trkpt>
      <trkpt lat="45.96583" lon="4.78317">
        <ele>199</ele>
        <time>2018-09-15T10:10:13Z</time>
      </trkpt>
      <trkpt lat="45.96578" lon="4.78312">
        <ele>199</ele>
        <time>2018-09-15T10:10:14Z</time>
      </trkpt>
      <trkpt lat="45.9657" lon="4.78307">
        <ele>200</ele>
        <time>2018-09-15T10:10:15Z</time>
      </trkpt>
      <trkpt lat="45.96565" lon="4.783">
        <ele>200</ele>
        <time>2018-09-15T10:10:16Z</time>
      </trkpt>
      <trkpt lat="45.96561" lon="4.78294">
        <ele>200</ele>
        <time>2018-09-15T10:10:17Z</time>
      </trkpt>
      <trkpt lat="45.96555" lon="4.78289">
        <ele>200</ele>
        <time>2018-09-15T10:10:18Z</time>
      </trkpt>
      <trkpt lat="45.96549" lon="4.78283">
        <ele>200</ele>
        <time>2018-09-15T10:10:19Z</time>
      </trkpt>
      <trkpt lat="45.96547" lon="4.78274">
        <ele>200</ele>
        <time>2018-09-15T10:10:20Z</time>
      </trkpt>
      <trkpt lat="45.96546" lon="4.78267">
        <ele>200</ele>
        <time>2018-09-15T10:10:21Z</time>
      </trkpt>
      <trkpt lat="45.96542" lon="4.7826">
        <ele>200</ele>
        <time>2018-09-15T10:10:22Z</time>
      </trkpt>
      <trkpt lat="45.96535" lon="4.78253">
        <ele>200</ele>
        <time>2018-09-15T10:10:23Z</time>
      </trkpt>
      <trkpt lat="45.96531" lon="4.78247">
        <ele>204</ele>
        <time>2018-09-15T10:10:24Z</time>
      </trkpt>
      <trkpt lat="45.96521" lon="4.78242">
        <ele>203</ele>
        <time>2018-09-15T10:10:25Z</time>
      </trkpt>
      <trkpt lat="45.96518" lon="4.78235">
        <ele>203</ele>
        <time>2018-09-15T10:10:26Z</time>
      </trkpt>
      <trkpt lat="45.96514" lon="4.78229">
        <ele>204</ele>
        <time>2018-09-15T10:10:27Z</time>
      </trkpt>
      <trkpt lat="45.96511" lon="4.78222">
        <ele>204</ele>
        <time>2018-09-15T10:10:28Z</time>
      </trkpt>
      <trkpt lat="45.96508" lon="4.78215">
        <ele>205</ele>
        <time>2018-09-15T10:10:29Z</time>
      </trkpt>
      <trkpt lat="45.96503" lon="4.78208">
        <ele>205</ele>
        <time>2018-09-15T10:10:30Z</time>
      </trkpt>
      <trkpt lat="45.965" lon="4.78201">
        <ele>200</ele>
        <time>2018-09-15T10:10:31Z</time>
      </trkpt>
      <trkpt lat="45.96495" lon="4.78196">
        <ele>201</ele>
        <time>2018-09-15T10:10:32Z</time>
      </trkpt>
      <trkpt lat="45.96491" lon="4.78192">
        <ele>201</ele>
        <time>2018-09-15T10:10:33Z</time>
      </trkpt>
      <trkpt lat="45.96485" lon="4.78189">
        <ele>201</ele>
        <time>2018-09-15T10:10:34Z</time>
      </trkpt>
      <trkpt lat="45.96477" lon="4.78186">
        <ele>201</ele>
        <time>2018-09-15T10:10:35Z</time>
      </trkpt>
      <trkpt lat="45.96472" lon="4.78182">
        <ele>201</ele>
        <time>2018-09-15T10:10:36Z</time>
      </trkpt>
      <trkpt lat="45.96464" lon="4.78179">
        <ele>200</ele>
        <time>2018-09-15T10:10:37Z</time>
      </trkpt>
      <trkpt lat="45.96459" lon="4.78175">
        <ele>200</ele>
        <time>2018-09-15T10:10:38Z</time>
      </trkpt>
      <trkpt lat="45.96454" lon="4.78171">
        <ele>200</ele>
        <time>2018-09-15T10:10:39Z</time>
      </trkpt>
      <trkpt lat="45.96448" lon="4.78166">
        <ele>203</ele>
        <time>2018-09-15T10:10:40Z</time>
      </trkpt>
      <trkpt lat="45.96443" lon="4.78159">
        <ele>203</ele>
        <time>2018-09-15T10:10:41Z</time>
      </trkpt>
      <trkpt lat="45.96437" lon="4.78154">
        <ele>203</ele>
        <time>2018-09-15T10:10:42Z</time>
      </trkpt>
      <trkpt lat="45.96434" lon="4.78149">
        <ele>203</ele>
        <time>2018-09-15T10:10:43Z</time>
      </trkpt>
      <trkpt lat="45.96428" lon="4.78144">
        <ele>203</ele>
        <time>2018-09-15T10:10:44Z</time>
      </trkpt>
      <trkpt lat="45.96423" lon="4.78139">
        <ele>203</ele>
        <time>2018-09-15T10:10:45Z</time>
      </trkpt>
      <trkpt lat="45.96419" lon="4.78133">
        <ele>203</ele>
        <time>2018-09-15T10:10:46Z</time>
      </trkpt>
      <trkpt lat="45.96415" lon="4.78128">
        <ele>200</ele>
        <time>2018-09-15T10:10:47Z</time>
      </trkpt>
      <trkpt lat="45.9641" lon="4.78125">
        <ele>200</ele>
        <time>2018-09-15T10:10:48Z</time>
      </trkpt>
      <trkpt lat="45.96405" lon="4.78121">
        <ele>200</ele>
        <time>2018-09-15T10:10:49Z</time>
      </trkpt>
      <trkpt lat="45.964" lon="4.78118">
        <ele>200</ele>
        <time>2018-09-15T10:10:50Z</time>
      </trkpt>
      <trkpt lat="45.96397" lon="4.78112">
        <ele>200</ele>
        <time>2018-09-15T10:10:51Z</time>
      </trkpt>
      <trkpt lat="45.96392" lon="4.78108">
        <ele>200</ele>
        <time>2018-09-15T10:10:52Z</time>
      </trkpt>
      <trkpt lat="45.96386" lon="4.78104">
        <ele>200</ele>
        <time>2018-09-15T10:10:53Z</time>
      </trkpt>
      <trkpt lat="45.9638" lon="4.78099">
        <ele>200</ele>
        <time>2018-09-15T10:10:54Z</time>
      </trkpt>
      <trkpt lat="45.96373" lon="4.78095">
        <ele>200</ele>
        <time>2018-09-15T10:10:55Z</time>
      </trkpt>
      <trkpt lat="45.96366" lon="4.78089">
        <ele>199</ele>
        <time>2018-09-15T10:10:56Z</time>
      </trkpt>
      <trkpt lat="45.96362" lon="4.78084">
        <ele>199</ele>
        <time>2018-09-15T10:10:57Z</time>
      </trkpt>
      <trkpt lat="45.96357" lon="4.78077">
        <ele>202</ele>
        <time>2018-09-15T10:10:58Z</time>
      </trkpt>
      <trkpt lat="45.9635" lon="4.78072">
        <ele>201</ele>
        <time>2018-09-15T10:10:59Z</time>
      </trkpt>
      <trkpt lat="45.96345" lon="4.78065">
        <ele>202</ele>
        <time>2018-09-15T10:11:00Z</time>
      </trkpt>
      <trkpt lat="45.9634" lon="4.78059">
        <ele>202</ele>
        <time>2018-09-15T10:11:01Z</time>
      </trkpt>
      <trkpt lat="45.96336" lon="4.78052">
        <ele>202</ele>
        <time>2018-09-15T10:11:02Z</time>
      </trkpt>
      <trkpt lat="45.9633" lon="4.78046">
        <ele>199</ele>
        <time>2018-09-15T10:11:03Z</time>
      </trkpt>
      <trkpt lat="45.96326" lon="4.7804">
        <ele>199</ele>
        <time>2018-09-15T10:11:04Z</time>
      </trkpt>
      <trkpt lat="45.96321" lon="4.78035">
        <ele>200</ele>
        <time>2018-09-15T10:11:05Z</time>
      </trkpt>
      <trkpt lat="45.96315" lon="4.78028">
        <ele>200</ele>
        <time>2018-09-15T10:11:06Z</time>
      </trkpt>
      <trkpt lat="45.96312" lon="4.78022">
        <ele>200</ele>
        <time>2018-09-15T10:11:07Z</time>
      </trkpt>
      <trkpt lat="45.96307" lon="4.78016">
        <ele>200</ele>
        <time>2018-09-15T10:11:08Z</time>
      </trkpt>
      <trkpt lat="45.96302" lon="4.78012">
        <ele>200</ele>
        <time>2018-09-15T10:11:09Z</time>
      </trkpt>
      <trkpt lat="45.96298" lon="4.78005">
        <ele>200</ele>
        <time>2018-09-15T10:11:10Z</time>
      </trkpt>
      <trkpt lat="45.96295" lon="4.78">
        <ele>204</ele>
        <time>2018-09-15T10:11:11Z</time>
      </trkpt>
      <trkpt lat="45.96289" lon="4.77995">
        <ele>204</ele>
        <time>2018-09-15T10:11:12Z</time>
      </trkpt>
      <trkpt lat="45.96286" lon="4.77991">
        <ele>204</ele>
        <time>2018-09-15T10:11:13Z</time>
      </trkpt>
      <trkpt lat="45.9628" lon="4.77987">
        <ele>204</ele>
        <time>2018-09-15T10:11:14Z</time>
      </trkpt>
      <trkpt lat="45.96278" lon="4.77979">
        <ele>204</ele>
        <time>2018-09-15T10:11:15Z</time>
      </trkpt>
      <trkpt lat="45.96272" lon="4.77975">
        <ele>204</ele>
        <time>2018-09-15T10:11:16Z</time>
      </trkpt>
      <trkpt lat="45.9627" lon="4.77972">
        <ele>204</ele>
        <time>2018-09-15T10:11:17Z</time>
      </trkpt>
      <trkpt lat="45.96262" lon="4.77968">
        <ele>204</ele>
        <time>2018-09-15T10:11:18Z</time>
      </trkpt>
      <trkpt lat="45.96259" lon="4.77964">
        <ele>204</ele>
        <time>2018-09-15T10:11:19Z</time>
      </trkpt>
      <trkpt lat="45.96255" lon="4.7796">
        <ele>205</ele>
        <time>2018-09-15T10:11:20Z</time>
      </trkpt>
      <trkpt lat="45.96249" lon="4.77955">
        <ele>200</ele>
        <time>2018-09-15T10:11:21Z</time>
      </trkpt>
      <trkpt lat="45.96245" lon="4.77951">
        <ele>200</ele>
        <time>2018-09-15T10:11:22Z</time>
      </trkpt>
      <trkpt lat="45.96241" lon="4.77946">
        <ele>201</ele>
        <time>2018-09-15T10:11:23Z</time>
      </trkpt>
      <trkpt lat="45.96236" lon="4.77941">
        <ele>201</ele>
        <time>2018-09-15T10:11:24Z</time>
      </trkpt>
      <trkpt lat="45.9623" lon="4.77937">
        <ele>201</ele>
        <time>2018-09-15T10:11:25Z</time>
      </trkpt>
      <trkpt lat="45.96229" lon="4.77928">
        <ele>201</ele>
        <time>2018-09-15T10:11:26Z</time>
      </trkpt>
      <trkpt lat="45.96222" lon="4.77923">
        <ele>201</ele>
        <time>2018-09-15T10:11:27Z</time>
      </trkpt>
      <trkpt lat="45.96217" lon="4.77919">
        <ele>200</ele>
        <time>2018-09-15T10:11:28Z</time>
      </trkpt>
      <trkpt lat="45.96213" lon="4.77912">
        <ele>203</ele>
        <time>2018-09-15T10:11:29Z</time>
      </trkpt>
      <trkpt lat="45.96206" lon="4.77906">
        <ele>202</ele>
        <time>2018-09-15T10:11:30Z</time>
      </trkpt>
      <trkpt lat="45.96203" lon="4.779">
        <ele>202</ele>
        <time>2018-09-15T10:11:31Z</time>
      </trkpt>
      <trkpt lat="45.96196" lon="4.77894">
        <ele>201</ele>
        <time>2018-09-15T10:11:32Z</time>
      </trkpt>
      <trkpt lat="45.96194" lon="4.77888">
        <ele>201</ele>
        <time>2018-09-15T10:11:33Z</time>
      </trkpt>
      <trkpt lat="45.96191" lon="4.77883">
        <ele>201</ele>
        <time>2018-09-15T10:11:34Z</time>
      </trkpt>
      <trkpt lat="45.96187" lon="4.77878">
        <ele>201</ele>
        <time>2018-09-15T10:11:35Z</time>
      </trkpt>
      <trkpt lat="45.96184" lon="4.77873">
        <ele>201</ele>
        <time>2018-09-15T10:11:36Z</time>
      </trkpt>
      <trkpt lat="45.96181" lon="4.77867">
        <ele>201</ele>
        <time>2018-09-15T10:11:37Z</time>
      </trkpt>
      <trkpt lat="45.96178" lon="4.77862">
        <ele>201</ele>
        <time>2018-09-15T10:11:38Z</time>
      </trkpt>
      <trkpt lat="45.96174" lon="4.77856">
        <ele>201</ele>
        <time>2018-09-15T10:11:39Z</time>
      </trkpt>
      <trkpt lat="45.9617" lon="4.77852">
        <ele>201</ele>
        <time>2018-09-15T10:11:40Z</time>
      </trkpt>
      <trkpt lat="45.96167" lon="4.77846">
        <ele>200</ele>
        <time>2018-09-15T10:11:41Z</time>
      </trkpt>
      <trkpt lat="45.96164" lon="4.7784">
        <ele>198</ele>
        <time>2018-09-15T10:11:42Z</time>
      </trkpt>
      <trkpt lat="45.96161" lon="4.77833">
        <ele>199</ele>
        <time>2018-09-15T10:11:43Z</time>
      </trkpt>
      <trkpt lat="45.96158" lon="4.77827">
        <ele>198</ele>
        <time>2018-09-15T10:11:44Z</time>
      </trkpt>
      <trkpt lat="45.96156" lon="4.77822">
        <ele>198</ele>
        <time>2018-09-15T10:11:45Z</time>
      </trkpt>
      <trkpt lat="45.96152" lon="4.77816">
        <ele>198</ele>
        <time>2018-09-15T10:11:46Z</time>
      </trkpt>
      <trkpt lat="45.96149" lon="4.77811">
        <ele>198</ele>
        <time>2018-09-15T10:11:47Z</time>
      </trkpt>
      <trkpt lat="45.96146" lon="4.77806">
        <ele>198</ele>
        <time>2018-09-15T10:11:48Z</time>
      </trkpt>
      <trkpt lat="45.96143" lon="4.778">
        <ele>198</ele>
        <time>2018-09-15T10:11:49Z</time>
      </trkpt>
      <trkpt lat="45.9614" lon="4.77795">
        <ele>198</ele>
        <time>2018-09-15T10:11:50Z</time>
      </trkpt>
      <trkpt lat="45.96136" lon="4.77789">
        <ele>198</ele>
        <time>2018-09-15T10:11:51Z</time>
      </trkpt>
      <trkpt lat="45.96132" lon="4.77783">
        <ele>198</ele>
        <time>2018-09-15T10:11:52Z</time>
      </trkpt>
      <trkpt lat="45.96129" lon="4.77777">
        <ele>198</ele>
        <time>2018-09-15T10:11:53Z</time>
      </trkpt>
      <trkpt lat="45.96126" lon="4.7777">
        <ele>198</ele>
        <time>2018-09-15T10:11:54Z</time>
      </trkpt>
      <trkpt lat="45.96121" lon="4.77763">
        <ele>197</ele>
        <time>2018-09-15T10:11:55Z</time>
      </trkpt>
      <trkpt lat="45.96119" lon="4.77757">
        <ele>197</ele>
        <time>2018-09-15T10:11:56Z</time>
      </trkpt>
      <trkpt lat="45.96114" lon="4.77751">
        <ele>197</ele>
        <time>2018-09-15T10:11:57Z</time>
      </trkpt>
      <trkpt lat="45.9611" lon="4.77745">
        <ele>199</ele>
        <time>2018-09-15T10:11:58Z</time>
      </trkpt>
      <trkpt lat="45.96106" lon="4.77739">
        <ele>199</ele>
        <time>2018-09-15T10:11:59Z</time>
      </trkpt>
      <trkpt lat="45.96101" lon="4.77732">
        <ele>199</ele>
        <time>2018-09-15T10:12:00Z</time>
      </trkpt>
      <trkpt lat="45.96097" lon="4.77725">
        <ele>199</ele>
        <time>2018-09-15T10:12:01Z</time>
      </trkpt>
      <trkpt lat="45.96093" lon="4.77718">
        <ele>199</ele>
        <time>2018-09-15T10:12:02Z</time>
      </trkpt>
      <trkpt lat="45.96089" lon="4.77711">
        <ele>200</ele>
        <time>2018-09-15T10:12:03Z</time>
      </trkpt>
      <trkpt lat="45.96085" lon="4.77703">
        <ele>200</ele>
        <time>2018-09-15T10:12:04Z</time>
      </trkpt>
      <trkpt lat="45.96081" lon="4.77696">
        <ele>197</ele>
        <time>2018-09-15T10:12:05Z</time>
      </trkpt>
      <trkpt lat="45.96075" lon="4.77691">
        <ele>198</ele>
        <time>2018-09-15T10:12:06Z</time>
      </trkpt>
      <trkpt lat="45.96071" lon="4.77683">
        <ele>198</ele>
        <time>2018-09-15T10:12:07Z</time>
      </trkpt>
      <trkpt lat="45.96067" lon="4.77677">
        <ele>198</ele>
        <time>2018-09-15T10:12:08Z</time>
      </trkpt>
      <trkpt lat="45.96063" lon="4.7767">
        <ele>198</ele>
        <time>2018-09-15T10:12:09Z</time>
      </trkpt>
      <trkpt lat="45.96058" lon="4.77663">
        <ele>200</ele>
        <time>2018-09-15T10:12:10Z</time>
      </trkpt>
      <trkpt lat="45.96054" lon="4.77657">
        <ele>200</ele>
        <time>2018-09-15T10:12:11Z</time>
      </trkpt>
      <trkpt lat="45.9605" lon="4.77652">
        <ele>200</ele>
        <time>2018-09-15T10:12:12Z</time>
      </trkpt>
      <trkpt lat="45.96045" lon="4.77645">
        <ele>200</ele>
        <time>2018-09-15T10:12:13Z</time>
      </trkpt>
      <trkpt lat="45.96041" lon="4.7764">
        <ele>199</ele>
        <time>2018-09-15T10:12:14Z</time>
      </trkpt>
      <trkpt lat="45.96034" lon="4.77635">
        <ele>199</ele>
        <time>2018-09-15T10:12:15Z</time>
      </trkpt>
      <trkpt lat="45.96031" lon="4.77628">
        <ele>199</ele>
        <time>2018-09-15T10:12:16Z</time>
      </trkpt>
      <trkpt lat="45.96023" lon="4.77625">
        <ele>199</ele>
        <time>2018-09-15T10:12:17Z</time>
      </trkpt>
      <trkpt lat="45.96018" lon="4.7762">
        <ele>199</ele>
        <time>2018-09-15T10:12:18Z</time>
      </trkpt>
      <trkpt lat="45.96015" lon="4.77613">
        <ele>199</ele>
        <time>2018-09-15T10:12:19Z</time>
      </trkpt>
      <trkpt lat="45.96011" lon="4.77608">
        <ele>199</ele>
        <time>2018-09-15T10:12:20Z</time>
      </trkpt>
      <trkpt lat="45.96007" lon="4.77602">
        <ele>198</ele>
        <time>2018-09-15T10:12:21Z</time>
      </trkpt>
      <trkpt lat="45.96003" lon="4.77595">
        <ele>198</ele>
        <time>2018-09-15T10:12:22Z</time>
      </trkpt>
      <trkpt lat="45.96001" lon="4.77589">
        <ele>198</ele>
        <time>2018-09-15T10:12:23Z</time>
      </trkpt>
      <trkpt lat="45.95997" lon="4.77583">
        <ele>197</ele>
        <time>2018-09-15T10:12:24Z</time>
      </trkpt>
      <trkpt lat="45.95994" lon="4.77576">
        <ele>196</ele>
        <time>2018-09-15T10:12:25Z</time>
      </trkpt>
      <trkpt lat="45.9599" lon="4.7757">
        <ele>196</ele>
        <time>2018-09-15T10:12:26Z</time>
      </trkpt>
      <trkpt lat="45.95987" lon="4.77561">
        <ele>196</ele>
        <time>2018-09-15T10:12:27Z</time>
      </trkpt>
      <trkpt lat="45.95984" lon="4.77554">
        <ele>196</ele>
        <time>2018-09-15T10:12:28Z</time>
      </trkpt>
      <trkpt lat="45.95981" lon="4.77549">
        <ele>196</ele>
        <time>2018-09-15T10:12:29Z</time>
      </trkpt>
      <trkpt lat="45.95975" lon="4.77539">
        <ele>196</ele>
        <time>2018-09-15T10:12:31Z</time>
      </trkpt>
      <trkpt lat="45.95973" lon="4.77535">
        <ele>195</ele>
        <time>2018-09-15T10:12:32Z</time>
      </trkpt>
      <trkpt lat="45.95972" lon="4.77528">
        <ele>196</ele>
        <time>2018-09-15T10:12:33Z</time>
      </trkpt>
      <trkpt lat="45.95971" lon="4.77521">
        <ele>196</ele>
        <time>2018-09-15T10:12:34Z</time>
      </trkpt>
      <trkpt lat="45.95968" lon="4.77515">
        <ele>196</ele>
        <time>2018-09-15T10:12:35Z</time>
      </trkpt>
      <trkpt lat="45.95964" lon="4.7751">
        <ele>195</ele>
        <time>2018-09-15T10:12:36Z</time>
      </trkpt>
      <trkpt lat="45.9596" lon="4.77504">
        <ele>195</ele>
        <time>2018-09-15T10:12:37Z</time>
      </trkpt>
      <trkpt lat="45.95957" lon="4.77492">
        <ele>196</ele>
        <time>2018-09-15T10:12:38Z</time>
      </trkpt>
      <trkpt lat="45.95952" lon="4.77484">
        <ele>196</ele>
        <time>2018-09-15T10:12:39Z</time>
      </trkpt>
      <trkpt lat="45.9595" lon="4.77474">
        <ele>196</ele>
        <time>2018-09-15T10:12:40Z</time>
      </trkpt>
      <trkpt lat="45.95948" lon="4.77466">
        <ele>196</ele>
        <time>2018-09-15T10:12:41Z</time>
      </trkpt>
      <trkpt lat="45.95944" lon="4.77457">
        <ele>196</ele>
        <time>2018-09-15T10:12:42Z</time>
      </trkpt>
      <trkpt lat="45.95941" lon="4.77448">
        <ele>196</ele>
        <time>2018-09-15T10:12:43Z</time>
      </trkpt>
      <trkpt lat="45.95937" lon="4.77439">
        <ele>195</ele>
        <time>2018-09-15T10:12:44Z</time>
      </trkpt>
      <trkpt lat="45.95936" lon="4.77431">
        <ele>195</ele>
        <time>2018-09-15T10:12:45Z</time>
      </trkpt>
      <trkpt lat="45.95931" lon="4.77421">
        <ele>195</ele>
        <time>2018-09-15T10:12:46Z</time>
      </trkpt>
      <trkpt lat="45.9593" lon="4.77412">
        <ele>195</ele>
        <time>2018-09-15T10:12:47Z</time>
      </trkpt>
      <trkpt lat="45.95925" lon="4.77404">
        <ele>195</ele>
        <time>2018-09-15T10:12:48Z</time>
      </trkpt>
      <trkpt lat="45.95924" lon="4.77394">
        <ele>196</ele>
        <time>2018-09-15T10:12:49Z</time>
      </trkpt>
      <trkpt lat="45.9592" lon="4.77386">
        <ele>196</ele>
        <time>2018-09-15T10:12:50Z</time>
      </trkpt>
      <trkpt lat="45.95918" lon="4.77377">
        <ele>196</ele>
        <time>2018-09-15T10:12:51Z</time>
      </trkpt>
      <trkpt lat="45.95915" lon="4.7737">
        <ele>193</ele>
        <time>2018-09-15T10:12:52Z</time>
      </trkpt>
      <trkpt lat="45.95913" lon="4.77362">
        <ele>193</ele>
        <time>2018-09-15T10:12:53Z</time>
      </trkpt>
      <trkpt lat="45.95909" lon="4.77355">
        <ele>193</ele>
        <time>2018-09-15T10:12:54Z</time>
      </trkpt>
      <trkpt lat="45.95908" lon="4.77346">
        <ele>194</ele>
        <time>2018-09-15T10:12:55Z</time>
      </trkpt>
      <trkpt lat="45.95904" lon="4.77339">
        <ele>194</ele>
        <time>2018-09-15T10:12:56Z</time>
      </trkpt>
      <trkpt lat="45.95901" lon="4.77333">
        <ele>194</ele>
        <time>2018-09-15T10:12:57Z</time>
      </trkpt>
      <trkpt lat="45.95899" lon="4.77323">
        <ele>194</ele>
        <time>2018-09-15T10:12:58Z</time>
      </trkpt>
      <trkpt lat="45.95892" lon="4.77313">
        <ele>193</ele>
        <time>2018-09-15T10:12:59Z</time>
      </trkpt>
      <trkpt lat="45.95892" lon="4.77303">
        <ele>193</ele>
        <time>2018-09-15T10:13:00Z</time>
      </trkpt>
      <trkpt lat="45.95889" lon="4.77292">
        <ele>193</ele>
        <time>2018-09-15T10:13:01Z</time>
      </trkpt>
      <trkpt lat="45.95888" lon="4.77283">
        <ele>193</ele>
        <time>2018-09-15T10:13:02Z</time>
      </trkpt>
      <trkpt lat="45.95886" lon="4.77271">
        <ele>193</ele>
        <time>2018-09-15T10:13:03Z</time>
      </trkpt>
      <trkpt lat="45.95884" lon="4.77262">
        <ele>193</ele>
        <time>2018-09-15T10:13:04Z</time>
      </trkpt>
      <trkpt lat="45.95882" lon="4.77252">
        <ele>193</ele>
        <time>2018-09-15T10:13:05Z</time>
      </trkpt>
      <trkpt lat="45.95881" lon="4.77243">
        <ele>193</ele>
        <time>2018-09-15T10:13:06Z</time>
      </trkpt>
      <trkpt lat="45.95878" lon="4.77233">
        <ele>193</ele>
        <time>2018-09-15T10:13:07Z</time>
      </trkpt>
      <trkpt lat="45.95876" lon="4.77225">
        <ele>193</ele>
        <time>2018-09-15T10:13:08Z</time>
      </trkpt>
      <trkpt lat="45.95873" lon="4.77216">
        <ele>193</ele>
        <time>2018-09-15T10:13:09Z</time>
      </trkpt>
      <trkpt lat="45.9587" lon="4.77208">
        <ele>193</ele>
        <time>2018-09-15T10:13:10Z</time>
      </trkpt>
      <trkpt lat="45.95868" lon="4.77197">
        <ele>193</ele>
        <time>2018-09-15T10:13:11Z</time>
      </trkpt>
      <trkpt lat="45.95864" lon="4.77186">
        <ele>192</ele>
        <time>2018-09-15T10:13:12Z</time>
      </trkpt>
      <trkpt lat="45.95861" lon="4.77175">
        <ele>192</ele>
        <time>2018-09-15T10:13:13Z</time>
      </trkpt>
      <trkpt lat="45.95859" lon="4.77166">
        <ele>193</ele>
        <time>2018-09-15T10:13:14Z</time>
      </trkpt>
      <trkpt lat="45.95857" lon="4.77156">
        <ele>193</ele>
        <time>2018-09-15T10:13:15Z</time>
      </trkpt>
      <trkpt lat="45.95854" lon="4.77147">
        <ele>193</ele>
        <time>2018-09-15T10:13:16Z</time>
      </trkpt>
      <trkpt lat="45.95851" lon="4.77137">
        <ele>193</ele>
        <time>2018-09-15T10:13:17Z</time>
      </trkpt>
      <trkpt lat="45.95849" lon="4.77128">
        <ele>193</ele>
        <time>2018-09-15T10:13:18Z</time>
      </trkpt>
      <trkpt lat="45.95846" lon="4.77118">
        <ele>193</ele>
        <time>2018-09-15T10:13:19Z</time>
      </trkpt>
      <trkpt lat="45.95843" lon="4.77109">
        <ele>193</ele>
        <time>2018-09-15T10:13:20Z</time>
      </trkpt>
      <trkpt lat="45.95841" lon="4.77099">
        <ele>193</ele>
        <time>2018-09-15T10:13:21Z</time>
      </trkpt>
      <trkpt lat="45.95838" lon="4.7709">
        <ele>192</ele>
        <time>2018-09-15T10:13:22Z</time>
      </trkpt>
      <trkpt lat="45.95834" lon="4.77082">
        <ele>192</ele>
        <time>2018-09-15T10:13:23Z</time>
      </trkpt>
      <trkpt lat="45.95832" lon="4.77073">
        <ele>191</ele>
        <time>2018-09-15T10:13:24Z</time>
      </trkpt>
      <trkpt lat="45.95829" lon="4.77064">
        <ele>191</ele>
        <time>2018-09-15T10:13:25Z</time>
      </trkpt>
      <trkpt lat="45.95826" lon="4.77057">
        <ele>190</ele>
        <time>2018-09-15T10:13:26Z</time>
      </trkpt>
      <trkpt lat="45.95822" lon="4.7705">
        <ele>190</ele>
        <time>2018-09-15T10:13:27Z</time>
      </trkpt>
      <trkpt lat="45.95817" lon="4.77041">
        <ele>190</ele>
        <time>2018-09-15T10:13:28Z</time>
      </trkpt>
      <trkpt lat="45.95814" lon="4.77033">
        <ele>190</ele>
        <time>2018-09-15T10:13:29Z</time>
      </trkpt>
      <trkpt lat="45.95811" lon="4.77025">
        <ele>190</ele>
        <time>2018-09-15T10:13:30Z</time>
      </trkpt>
      <trkpt lat="45.95809" lon="4.77018">
        <ele>190</ele>
        <time>2018-09-15T10:13:31Z</time>
      </trkpt>
      <trkpt lat="45.95807" lon="4.7701">
        <ele>190</ele>
        <time>2018-09-15T10:13:32Z</time>
      </trkpt>
      <trkpt lat="45.95807" lon="4.77002">
        <ele>190</ele>
        <time>2018-09-15T10:13:33Z</time>
      </trkpt>
      <trkpt lat="45.95806" lon="4.76993">
        <ele>190</ele>
        <time>2018-09-15T10:13:34Z</time>
      </trkpt>
      <trkpt lat="45.95807" lon="4.76986">
        <ele>190</ele>
        <time>2018-09-15T10:13:35Z</time>
      </trkpt>
      <trkpt lat="45.95808" lon="4.76978">
        <ele>189</ele>
        <time>2018-09-15T10:13:36Z</time>
      </trkpt>
      <trkpt lat="45.95808" lon="4.76971">
        <ele>189</ele>
        <time>2018-09-15T10:13:37Z</time>
      </trkpt>
      <trkpt lat="45.95809" lon="4.76963">
        <ele>189</ele>
        <time>2018-09-15T10:13:38Z</time>
      </trkpt>
      <trkpt lat="45.9581" lon="4.76956">
        <ele>189</ele>
        <time>2018-09-15T10:13:39Z</time>
      </trkpt>
      <trkpt lat="45.95811" lon="4.76949">
        <ele>189</ele>
        <time>2018-09-15T10:13:40Z</time>
      </trkpt>
      <trkpt lat="45.95812" lon="4.76939">
        <ele>189</ele>
        <time>2018-09-15T10:13:41Z</time>
      </trkpt>
      <trkpt lat="45.95814" lon="4.76931">
        <ele>189</ele>
        <time>2018-09-15T10:13:42Z</time>
      </trkpt>
      <trkpt lat="45.95816" lon="4.76922">
        <ele>189</ele>
        <time>2018-09-15T10:13:43Z</time>
      </trkpt>
      <trkpt lat="45.95817" lon="4.76914">
        <ele>189</ele>
        <time>2018-09-15T10:13:44Z</time>
      </trkpt>
      <trkpt lat="45.95818" lon="4.76905">
        <ele>189</ele>
        <time>2018-09-15T10:13:45Z</time>
      </trkpt>
      <trkpt lat="45.9582" lon="4.76897">
        <ele>189</ele>
        <time>2018-09-15T10:13:46Z</time>
      </trkpt>
      <trkpt lat="45.95822" lon="4.7689">
        <ele>189</ele>
        <time>2018-09-15T10:13:47Z</time>
      </trkpt>
      <trkpt lat="45.95824" lon="4.76882">
        <ele>189</ele>
        <time>2018-09-15T10:13:48Z</time>
      </trkpt>
      <trkpt lat="45.95823" lon="4.76875">
        <ele>189</ele>
        <time>2018-09-15T10:13:49Z</time>
      </trkpt>
      <trkpt lat="45.95825" lon="4.76867">
        <ele>189</ele>
        <time>2018-09-15T10:13:50Z</time>
      </trkpt>
      <trkpt lat="45.95827" lon="4.7686">
        <ele>189</ele>
        <time>2018-09-15T10:13:51Z</time>
      </trkpt>
      <trkpt lat="45.95828" lon="4.76853">
        <ele>190</ele>
        <time>2018-09-15T10:13:52Z</time>
      </trkpt>
      <trkpt lat="45.95829" lon="4.76845">
        <ele>190</ele>
        <time>2018-09-15T10:13:53Z</time>
      </trkpt>
      <trkpt lat="45.95829" lon="4.76838">
        <ele>190</ele>
        <time>2018-09-15T10:13:54Z</time>
      </trkpt>
      <trkpt lat="45.9583" lon="4.7683">
        <ele>190</ele>
        <time>2018-09-15T10:13:55Z</time>
      </trkpt>
      <trkpt lat="45.95831" lon="4.76823">
        <ele>190</ele>
        <time>2018-09-15T10:13:56Z</time>
      </trkpt>
      <trkpt lat="45.95833" lon="4.76816">
        <ele>190</ele>
        <time>2018-09-15T10:13:57Z</time>
      </trkpt>
      <trkpt lat="45.95834" lon="4.7681">
        <ele>190</ele>
        <time>2018-09-15T10:13:58Z</time>
      </trkpt>
      <trkpt lat="45.95835" lon="4.76803">
        <ele>191</ele>
        <time>2018-09-15T10:13:59Z</time>
      </trkpt>
      <trkpt lat="45.95837" lon="4.76797">
        <ele>191</ele>
        <time>2018-09-15T10:14:00Z</time>
      </trkpt>
      <trkpt lat="45.95837" lon="4.76789">
        <ele>191</ele>
        <time>2018-09-15T10:14:01Z</time>
      </trkpt>
      <trkpt lat="45.95837" lon="4.76783">
        <ele>191</ele>
        <time>2018-09-15T10:14:02Z</time>
      </trkpt>
      <trkpt lat="45.95835" lon="4.76776">
        <ele>191</ele>
        <time>2018-09-15T10:14:03Z</time>
      </trkpt>
      <trkpt lat="45.95833" lon="4.7677">
        <ele>191</ele>
        <time>2018-09-15T10:14:04Z</time>
      </trkpt>
      <trkpt lat="45.95831" lon="4.76763">
        <ele>190</ele>
        <time>2018-09-15T10:14:05Z</time>
      </trkpt>
      <trkpt lat="45.95829" lon="4.76756">
        <ele>191</ele>
        <time>2018-09-15T10:14:06Z</time>
      </trkpt>
      <trkpt lat="45.95828" lon="4.76747">
        <ele>191</ele>
        <time>2018-09-15T10:14:07Z</time>
      </trkpt>
      <trkpt lat="45.95827" lon="4.76739">
        <ele>190</ele>
        <time>2018-09-15T10:14:08Z</time>
      </trkpt>
      <trkpt lat="45.95825" lon="4.76731">
        <ele>190</ele>
        <time>2018-09-15T10:14:09Z</time>
      </trkpt>
      <trkpt lat="45.95824" lon="4.76722">
        <ele>190</ele>
        <time>2018-09-15T10:14:10Z</time>
      </trkpt>
      <trkpt lat="45.95822" lon="4.76712">
        <ele>189</ele>
        <time>2018-09-15T10:14:11Z</time>
      </trkpt>
      <trkpt lat="45.95821" lon="4.76704">
        <ele>189</ele>
        <time>2018-09-15T10:14:12Z</time>
      </trkpt>
      <trkpt lat="45.95819" lon="4.76695">
        <ele>189</ele>
        <time>2018-09-15T10:14:13Z</time>
      </trkpt>
      <trkpt lat="45.95819" lon="4.76686">
        <ele>189</ele>
        <time>2018-09-15T10:14:14Z</time>
      </trkpt>
      <trkpt lat="45.95818" lon="4.76677">
        <ele>189</ele>
        <time>2018-09-15T10:14:15Z</time>
      </trkpt>
      <trkpt lat="45.95817" lon="4.76669">
        <ele>188</ele>
        <time>2018-09-15T10:14:16Z</time>
      </trkpt>
      <trkpt lat="45.95815" lon="4.76661">
        <ele>188</ele>
        <time>2018-09-15T10:14:17Z</time>
      </trkpt>
      <trkpt lat="45.95815" lon="4.76652">
        <ele>188</ele>
        <time>2018-09-15T10:14:18Z</time>
      </trkpt>
      <trkpt lat="45.95814" lon="4.76643">
        <ele>188</ele>
        <time>2018-09-15T10:14:19Z</time>
      </trkpt>
      <trkpt lat="45.95813" lon="4.76634">
        <ele>188</ele>
        <time>2018-09-15T10:14:20Z</time>
      </trkpt>
      <trkpt lat="45.95811" lon="4.76627">
        <ele>188</ele>
        <time>2018-09-15T10:14:21Z</time>
      </trkpt>
      <trkpt lat="45.95809" lon="4.76619">
        <ele>188</ele>
        <time>2018-09-15T10:14:22Z</time>
      </trkpt>
      <trkpt lat="45.95808" lon="4.76612">
        <ele>188</ele>
        <time>2018-09-15T10:14:23Z</time>
      </trkpt>
      <trkpt lat="45.95807" lon="4.76605">
        <ele>188</ele>
        <time>2018-09-15T10:14:24Z</time>
      </trkpt>
      <trkpt lat="45.95805" lon="4.76597">
        <ele>188</ele>
        <time>2018-09-15T10:14:25Z</time>
      </trkpt>
      <trkpt lat="45.95803" lon="4.7659">
        <ele>187</ele>
        <time>2018-09-15T10:14:26Z</time>
      </trkpt>
      <trkpt lat="45.95802" lon="4.76583">
        <ele>187</ele>
        <time>2018-09-15T10:14:27Z</time>
      </trkpt>
      <trkpt lat="45.95801" lon="4.76575">
        <ele>187</ele>
        <time>2018-09-15T10:14:28Z</time>
      </trkpt>
      <trkpt lat="45.958" lon="4.76567">
        <ele>187</ele>
        <time>2018-09-15T10:14:29Z</time>
      </trkpt>
      <trkpt lat="45.958" lon="4.7656">
        <ele>187</ele>
        <time>2018-09-15T10:14:30Z</time>
      </trkpt>
      <trkpt lat="45.95798" lon="4.76551">
        <ele>187</ele>
        <time>2018-09-15T10:14:31Z</time>
      </trkpt>
      <trkpt lat="45.95797" lon="4.76544">
        <ele>187</ele>
        <time>2018-09-15T10:14:32Z</time>
      </trkpt>
      <trkpt lat="45.95797" lon="4.76535">
        <ele>187</ele>
        <time>2018-09-15T10:14:33Z</time>
      </trkpt>
      <trkpt lat="45.95795" lon="4.76526">
        <ele>187</ele>
        <time>2018-09-15T10:14:34Z</time>
      </trkpt>
      <trkpt lat="45.95796" lon="4.76517">
        <ele>187</ele>
        <time>2018-09-15T10:14:35Z</time>
      </trkpt>
      <trkpt lat="45.95793" lon="4.76508">
        <ele>187</ele>
        <time>2018-09-15T10:14:36Z</time>
      </trkpt>
      <trkpt lat="45.95792" lon="4.76501">
        <ele>187</ele>
        <time>2018-09-15T10:14:37Z</time>
      </trkpt>
      <trkpt lat="45.95791" lon="4.76492">
        <ele>186</ele>
        <time>2018-09-15T10:14:38Z</time>
      </trkpt>
      <trkpt lat="45.9579" lon="4.76484">
        <ele>186</ele>
        <time>2018-09-15T10:14:39Z</time>
      </trkpt>
      <trkpt lat="45.95789" lon="4.76476">
        <ele>186</ele>
        <time>2018-09-15T10:14:40Z</time>
      </trkpt>
      <trkpt lat="45.95789" lon="4.76469">
        <ele>186</ele>
        <time>2018-09-15T10:14:41Z</time>
      </trkpt>
      <trkpt lat="45.95788" lon="4.76462">
        <ele>186</ele>
        <time>2018-09-15T10:14:42Z</time>
      </trkpt>
      <trkpt lat="45.95786" lon="4.76454">
        <ele>186</ele>
        <time>2018-09-15T10:14:43Z</time>
      </trkpt>
      <trkpt lat="45.95786" lon="4.76445">
        <ele>186</ele>
        <time>2018-09-15T10:14:44Z</time>
      </trkpt>
      <trkpt lat="45.95786" lon="4.76438">
        <ele>186</ele>
        <time>2018-09-15T10:14:45Z</time>
      </trkpt>
      <trkpt lat="45.95787" lon="4.7643">
        <ele>186</ele>
        <time>2018-09-15T10:14:46Z</time>
      </trkpt>
      <trkpt lat="45.95786" lon="4.76422">
        <ele>186</ele>
        <time>2018-09-15T10:14:47Z</time>
      </trkpt>
      <trkpt lat="45.95785" lon="4.76412">
        <ele>186</ele>
        <time>2018-09-15T10:14:48Z</time>
      </trkpt>
      <trkpt lat="45.95784" lon="4.76405">
        <ele>186</ele>
        <time>2018-09-15T10:14:49Z</time>
      </trkpt>
      <trkpt lat="45.95784" lon="4.76397">
        <ele>186</ele>
        <time>2018-09-15T10:14:50Z</time>
      </trkpt>
      <trkpt lat="45.95783" lon="4.76388">
        <ele>186</ele>
        <time>2018-09-15T10:14:51Z</time>
      </trkpt>
      <trkpt lat="45.95783" lon="4.76381">
        <ele>186</ele>
        <time>2018-09-15T10:14:52Z</time>
      </trkpt>
      <trkpt lat="45.95782" lon="4.76372">
        <ele>186</ele>
        <time>2018-09-15T10:14:53Z</time>
      </trkpt>
      <trkpt lat="45.95782" lon="4.76364">
        <ele>186</ele>
        <time>2018-09-15T10:14:54Z</time>
      </trkpt>
      <trkpt lat="45.95781" lon="4.76355">
        <ele>186</ele>
        <time>2018-09-15T10:14:55Z</time>
      </trkpt>
      <trkpt lat="45.9578" lon="4.76347">
        <ele>186</ele>
        <time>2018-09-15T10:14:56Z</time>
      </trkpt>
      <trkpt lat="45.95778" lon="4.76341">
        <ele>186</ele>
        <time>2018-09-15T10:14:57Z</time>
      </trkpt>
      <trkpt lat="45.95777" lon="4.76333">
        <ele>185</ele>
        <time>2018-09-15T10:14:58Z</time>
      </trkpt>
      <trkpt lat="45.95778" lon="4.76324">
        <ele>186</ele>
        <time>2018-09-15T10:14:59Z</time>
      </trkpt>
      <trkpt lat="45.95777" lon="4.76317">
        <ele>186</ele>
        <time>2018-09-15T10:15:00Z</time>
      </trkpt>
      <trkpt lat="45.95774" lon="4.76309">
        <ele>186</ele>
        <time>2018-09-15T10:15:01Z</time>
      </trkpt>
      <trkpt lat="45.95773" lon="4.76301">
        <ele>186</ele>
        <time>2018-09-15T10:15:02Z</time>
      </trkpt>
      <trkpt lat="45.95773" lon="4.76293">
        <ele>186</ele>
        <time>2018-09-15T10:15:03Z</time>
      </trkpt>
      <trkpt lat="45.95772" lon="4.76283">
        <ele>186</ele>
        <time>2018-09-15T10:15:04Z</time>
      </trkpt>
      <trkpt lat="45.95772" lon="4.76274">
        <ele>186</ele>
        <time>2018-09-15T10:15:05Z</time>
      </trkpt>
      <trkpt lat="45.95771" lon="4.76264">
        <ele>186</ele>
        <time>2018-09-15T10:15:06Z</time>
      </trkpt>
      <trkpt lat="45.95771" lon="4.76255">
        <ele>185</ele>
        <time>2018-09-15T10:15:07Z</time>
      </trkpt>
      <trkpt lat="45.95773" lon="4.76249">
        <ele>186</ele>
        <time>2018-09-15T10:15:08Z</time>
      </trkpt>
      <trkpt lat="45.95772" lon="4.76242">
        <ele>186</ele>
        <time>2018-09-15T10:15:09Z</time>
      </trkpt>
      <trkpt lat="45.95773" lon="4.76236">
        <ele>186</ele>
        <time>2018-09-15T10:15:10Z</time>
      </trkpt>
      <trkpt lat="45.95772" lon="4.76228">
        <ele>186</ele>
        <time>2018-09-15T10:15:11Z</time>
      </trkpt>
      <trkpt lat="45.95771" lon="4.76219">
        <ele>186</ele>
        <time>2018-09-15T10:15:12Z</time>
      </trkpt>
      <trkpt lat="45.95771" lon="4.76211">
        <ele>186</ele>
        <time>2018-09-15T10:15:13Z</time>
      </trkpt>
      <trkpt lat="45.95771" lon="4.76203">
        <ele>186</ele>
        <time>2018-09-15T10:15:14Z</time>
      </trkpt>
      <trkpt lat="45.9577" lon="4.76196">
        <ele>186</ele>
        <time>2018-09-15T10:15:15Z</time>
      </trkpt>
      <trkpt lat="45.95769" lon="4.7619">
        <ele>186</ele>
        <time>2018-09-15T10:15:16Z</time>
      </trkpt>
      <trkpt lat="45.95768" lon="4.76183">
        <ele>186</ele>
        <time>2018-09-15T10:15:17Z</time>
      </trkpt>
      <trkpt lat="45.95768" lon="4.76176">
        <ele>186</ele>
        <time>2018-09-15T10:15:18Z</time>
      </trkpt>
      <trkpt lat="45.95765" lon="4.7617">
        <ele>185</ele>
        <time>2018-09-15T10:15:19Z</time>
      </trkpt>
      <trkpt lat="45.95765" lon="4.76158">
        <ele>186</ele>
        <time>2018-09-15T10:15:21Z</time>
      </trkpt>
      <trkpt lat="45.95765" lon="4.76151">
        <ele>186</ele>
        <time>2018-09-15T10:15:22Z</time>
      </trkpt>
      <trkpt lat="45.95765" lon="4.76144">
        <ele>186</ele>
        <time>2018-09-15T10:15:23Z</time>
      </trkpt>
      <trkpt lat="45.95764" lon="4.76136">
        <ele>186</ele>
        <time>2018-09-15T10:15:24Z</time>
      </trkpt>
      <trkpt lat="45.95763" lon="4.76129">
        <ele>186</ele>
        <time>2018-09-15T10:15:25Z</time>
      </trkpt>
      <trkpt lat="45.95762" lon="4.76119">
        <ele>186</ele>
        <time>2018-09-15T10:15:26Z</time>
      </trkpt>
      <trkpt lat="45.95761" lon="4.76112">
        <ele>186</ele>
        <time>2018-09-15T10:15:27Z</time>
      </trkpt>
      <trkpt lat="45.95757" lon="4.76105">
        <ele>186</ele>
        <time>2018-09-15T10:15:28Z</time>
      </trkpt>
      <trkpt lat="45.95756" lon="4.76097">
        <ele>186</ele>
        <time>2018-09-15T10:15:29Z</time>
      </trkpt>
      <trkpt lat="45.95754" lon="4.7609">
        <ele>185</ele>
        <time>2018-09-15T10:15:30Z</time>
      </trkpt>
      <trkpt lat="45.95751" lon="4.76078">
        <ele>185</ele>
        <time>2018-09-15T10:15:32Z</time>
      </trkpt>
      <trkpt lat="45.95748" lon="4.76071">
        <ele>185</ele>
        <time>2018-09-15T10:15:33Z</time>
      </trkpt>
      <trkpt lat="45.95745" lon="4.76065">
        <ele>185</ele>
        <time>2018-09-15T10:15:34Z</time>
      </trkpt>
      <trkpt lat="45.95742" lon="4.76059">
        <ele>184</ele>
        <time>2018-09-15T10:15:35Z</time>
      </trkpt>
      <trkpt lat="45.9574" lon="4.76054">
        <ele>184</ele>
        <time>2018-09-15T10:15:36Z</time>
      </trkpt>
      <trkpt lat="45.95737" lon="4.76047">
        <ele>184</ele>
        <time>2018-09-15T10:15:37Z</time>
      </trkpt>
      <trkpt lat="45.95733" lon="4.76036">
        <ele>184</ele>
        <time>2018-09-15T10:15:39Z</time>
      </trkpt>
      <trkpt lat="45.95726" lon="4.76033">
        <ele>184</ele>
        <time>2018-09-15T10:15:40Z</time>
      </trkpt>
      <trkpt lat="45.95722" lon="4.76027">
        <ele>184</ele>
        <time>2018-09-15T10:15:41Z</time>
      </trkpt>
      <trkpt lat="45.95721" lon="4.76022">
        <ele>184</ele>
        <time>2018-09-15T10:15:42Z</time>
      </trkpt>
      <trkpt lat="45.95719" lon="4.76016">
        <ele>184</ele>
        <time>2018-09-15T10:15:43Z</time>
      </trkpt>
      <trkpt lat="45.95715" lon="4.76009">
        <ele>184</ele>
        <time>2018-09-15T10:15:44Z</time>
      </trkpt>
      <trkpt lat="45.95711" lon="4.76003">
        <ele>184</ele>
        <time>2018-09-15T10:15:45Z</time>
      </trkpt>
      <trkpt lat="45.95709" lon="4.75995">
        <ele>185</ele>
        <time>2018-09-15T10:15:46Z</time>
      </trkpt>
      <trkpt lat="45.95705" lon="4.75988">
        <ele>185</ele>
        <time>2018-09-15T10:15:47Z</time>
      </trkpt>
      <trkpt lat="45.95701" lon="4.7598">
        <ele>185</ele>
        <time>2018-09-15T10:15:48Z</time>
      </trkpt>
      <trkpt lat="45.95696" lon="4.75974">
        <ele>185</ele>
        <time>2018-09-15T10:15:49Z</time>
      </trkpt>
      <trkpt lat="45.95694" lon="4.75967">
        <ele>185</ele>
        <time>2018-09-15T10:15:50Z</time>
      </trkpt>
      <trkpt lat="45.95693" lon="4.75961">
        <ele>185</ele>
        <time>2018-09-15T10:15:51Z</time>
      </trkpt>
      <trkpt lat="45.9569" lon="4.75954">
        <ele>185</ele>
        <time>2018-09-15T10:15:52Z</time>
      </trkpt>
      <trkpt lat="45.95687" lon="4.75947">
        <ele>185</ele>
        <time>2018-09-15T10:15:53Z</time>
      </trkpt>
      <trkpt lat="45.95684" lon="4.7594">
        <ele>185</ele>
        <time>2018-09-15T10:15:54Z</time>
      </trkpt>
      <trkpt lat="45.95681" lon="4.75933">
        <ele>185</ele>
        <time>2018-09-15T10:15:55Z</time>
      </trkpt>
      <trkpt lat="45.95679" lon="4.75925">
        <ele>185</ele>
        <time>2018-09-15T10:15:56Z</time>
      </trkpt>
      <trkpt lat="45.95677" lon="4.75916">
        <ele>185</ele>
        <time>2018-09-15T10:15:57Z</time>
      </trkpt>
      <trkpt lat="45.95674" lon="4.7591">
        <ele>185</ele>
        <time>2018-09-15T10:15:58Z</time>
      </trkpt>
      <trkpt lat="45.95671" lon="4.75902">
        <ele>185</ele>
        <time>2018-09-15T10:15:59Z</time>
      </trkpt>
      <trkpt lat="45.95669" lon="4.75894">
        <ele>186</ele>
        <time>2018-09-15T10:16:00Z</time>
      </trkpt>
      <trkpt lat="45.95667" lon="4.75886">
        <ele>184</ele>
        <time>2018-09-15T10:16:01Z</time>
      </trkpt>
      <trkpt lat="45.95664" lon="4.7588">
        <ele>184</ele>
        <time>2018-09-15T10:16:02Z</time>
      </trkpt>
      <trkpt lat="45.95662" lon="4.75873">
        <ele>184</ele>
        <time>2018-09-15T10:16:03Z</time>
      </trkpt>
      <trkpt lat="45.95661" lon="4.75865">
        <ele>184</ele>
        <time>2018-09-15T10:16:04Z</time>
      </trkpt>
      <trkpt lat="45.9566" lon="4.75859">
        <ele>184</ele>
        <time>2018-09-15T10:16:05Z</time>
      </trkpt>
      <trkpt lat="45.95658" lon="4.75851">
        <ele>185</ele>
        <time>2018-09-15T10:16:06Z</time>
      </trkpt>
      <trkpt lat="45.95655" lon="4.75846">
        <ele>185</ele>
        <time>2018-09-15T10:16:07Z</time>
      </trkpt>
      <trkpt lat="45.95653" lon="4.75838">
        <ele>185</ele>
        <time>2018-09-15T10:16:08Z</time>
      </trkpt>
      <trkpt lat="45.95653" lon="4.75829">
        <ele>186</ele>
        <time>2018-09-15T10:16:09Z</time>
      </trkpt>
      <trkpt lat="45.95651" lon="4.75821">
        <ele>185</ele>
        <time>2018-09-15T10:16:10Z</time>
      </trkpt>
      <trkpt lat="45.95647" lon="4.75813">
        <ele>185</ele>
        <time>2018-09-15T10:16:11Z</time>
      </trkpt>
      <trkpt lat="45.95645" lon="4.75805">
        <ele>185</ele>
        <time>2018-09-15T10:16:12Z</time>
      </trkpt>
      <trkpt lat="45.95645" lon="4.75799">
        <ele>185</ele>
        <time>2018-09-15T10:16:13Z</time>
      </trkpt>
      <trkpt lat="45.95644" lon="4.75791">
        <ele>185</ele>
        <time>2018-09-15T10:16:14Z</time>
      </trkpt>
      <trkpt lat="45.95642" lon="4.75783">
        <ele>186</ele>
        <time>2018-09-15T10:16:15Z</time>
      </trkpt>
      <trkpt lat="45.95641" lon="4.75775">
        <ele>186</ele>
        <time>2018-09-15T10:16:16Z</time>
      </trkpt>
      <trkpt lat="45.95641" lon="4.75767">
        <ele>186</ele>
        <time>2018-09-15T10:16:17Z</time>
      </trkpt>
      <trkpt lat="45.95639" lon="4.7576">
        <ele>186</ele>
        <time>2018-09-15T10:16:18Z</time>
      </trkpt>
      <trkpt lat="45.95638" lon="4.75751">
        <ele>186</ele>
        <time>2018-09-15T10:16:19Z</time>
      </trkpt>
      <trkpt lat="45.95636" lon="4.75741">
        <ele>187</ele>
        <time>2018-09-15T10:16:20Z</time>
      </trkpt>
      <trkpt lat="45.95635" lon="4.75734">
        <ele>187</ele>
        <time>2018-09-15T10:16:21Z</time>
      </trkpt>
      <trkpt lat="45.95635" lon="4.75725">
        <ele>187</ele>
        <time>2018-09-15T10:16:22Z</time>
      </trkpt>
      <trkpt lat="45.95636" lon="4.75719">
        <ele>187</ele>
        <time>2018-09-15T10:16:23Z</time>
      </trkpt>
      <trkpt lat="45.95635" lon="4.75711">
        <ele>187</ele>
        <time>2018-09-15T10:16:24Z</time>
      </trkpt>
      <trkpt lat="45.95634" lon="4.75704">
        <ele>187</ele>
        <time>2018-09-15T10:16:25Z</time>
      </trkpt>
      <trkpt lat="45.95633" lon="4.75698">
        <ele>187</ele>
        <time>2018-09-15T10:16:26Z</time>
      </trkpt>
      <trkpt lat="45.9563" lon="4.75686">
        <ele>187</ele>
        <time>2018-09-15T10:16:28Z</time>
      </trkpt>
      <trkpt lat="45.95629" lon="4.7568">
        <ele>187</ele>
        <time>2018-09-15T10:16:29Z</time>
      </trkpt>
      <trkpt lat="45.95627" lon="4.75672">
        <ele>187</ele>
        <time>2018-09-15T10:16:30Z</time>
      </trkpt>
      <trkpt lat="45.95625" lon="4.75666">
        <ele>188</ele>
        <time>2018-09-15T10:16:31Z</time>
      </trkpt>
      <trkpt lat="45.95625" lon="4.75659">
        <ele>188</ele>
        <time>2018-09-15T10:16:32Z</time>
      </trkpt>
      <trkpt lat="45.95625" lon="4.75651">
        <ele>188</ele>
        <time>2018-09-15T10:16:33Z</time>
      </trkpt>
      <trkpt lat="45.95625" lon="4.75644">
        <ele>188</ele>
        <time>2018-09-15T10:16:34Z</time>
      </trkpt>
      <trkpt lat="45.95623" lon="4.75638">
        <ele>188</ele>
        <time>2018-09-15T10:16:35Z</time>
      </trkpt>
      <trkpt lat="45.95622" lon="4.75631">
        <ele>188</ele>
        <time>2018-09-15T10:16:36Z</time>
      </trkpt>
      <trkpt lat="45.95619" lon="4.75624">
        <ele>188</ele>
        <time>2018-09-15T10:16:37Z</time>
      </trkpt>
      <trkpt lat="45.95617" lon="4.75617">
        <ele>188</ele>
        <time>2018-09-15T10:16:38Z</time>
      </trkpt>
      <trkpt lat="45.95615" lon="4.7561">
        <ele>188</ele>
        <time>2018-09-15T10:16:39Z</time>
      </trkpt>
      <trkpt lat="45.95612" lon="4.75603">
        <ele>188</ele>
        <time>2018-09-15T10:16:40Z</time>
      </trkpt>
      <trkpt lat="45.9561" lon="4.75597">
        <ele>188</ele>
        <time>2018-09-15T10:16:41Z</time>
      </trkpt>
      <trkpt lat="45.95607" lon="4.75592">
        <ele>187</ele>
        <time>2018-09-15T10:16:42Z</time>
      </trkpt>
      <trkpt lat="45.95604" lon="4.75586">
        <ele>187</ele>
        <time>2018-09-15T10:16:43Z</time>
      </trkpt>
      <trkpt lat="45.95602" lon="4.7558">
        <ele>188</ele>
        <time>2018-09-15T10:16:44Z</time>
      </trkpt>
      <trkpt lat="45.95599" lon="4.75573">
        <ele>188</ele>
        <time>2018-09-15T10:16:45Z</time>
      </trkpt>
      <trkpt lat="45.95596" lon="4.75567">
        <ele>188</ele>
        <time>2018-09-15T10:16:46Z</time>
      </trkpt>
      <trkpt lat="45.95592" lon="4.75562">
        <ele>188</ele>
        <time>2018-09-15T10:16:47Z</time>
      </trkpt>
      <trkpt lat="45.95588" lon="4.75557">
        <ele>188</ele>
        <time>2018-09-15T10:16:48Z</time>
      </trkpt>
      <trkpt lat="45.95584" lon="4.75551">
        <ele>188</ele>
        <time>2018-09-15T10:16:49Z</time>
      </trkpt>
      <trkpt lat="45.95579" lon="4.75546">
        <ele>186</ele>
        <time>2018-09-15T10:16:50Z</time>
      </trkpt>
      <trkpt lat="45.95576" lon="4.75542">
        <ele>186</ele>
        <time>2018-09-15T10:16:51Z</time>
      </trkpt>
      <trkpt lat="45.95571" lon="4.75537">
        <ele>186</ele>
        <time>2018-09-15T10:16:52Z</time>
      </trkpt>
      <trkpt lat="45.95567" lon="4.75531">
        <ele>186</ele>
        <time>2018-09-15T10:16:53Z</time>
      </trkpt>
      <trkpt lat="45.95563" lon="4.75527">
        <ele>186</ele>
        <time>2018-09-15T10:16:54Z</time>
      </trkpt>
      <trkpt lat="45.95558" lon="4.75522">
        <ele>186</ele>
        <time>2018-09-15T10:16:55Z</time>
      </trkpt>
      <trkpt lat="45.95554" lon="4.75516">
        <ele>186</ele>
        <time>2018-09-15T10:16:56Z</time>
      </trkpt>
      <trkpt lat="45.9555" lon="4.75509">
        <ele>186</ele>
        <time>2018-09-15T10:16:57Z</time>
      </trkpt>
      <trkpt lat="45.95547" lon="4.75503">
        <ele>186</ele>
        <time>2018-09-15T10:16:58Z</time>
      </trkpt>
      <trkpt lat="45.95544" lon="4.75497">
        <ele>187</ele>
        <time>2018-09-15T10:16:59Z</time>
      </trkpt>
      <trkpt lat="45.95541" lon="4.75491">
        <ele>187</ele>
        <time>2018-09-15T10:17:00Z</time>
      </trkpt>
      <trkpt lat="45.95541" lon="4.75484">
        <ele>187</ele>
        <time>2018-09-15T10:17:01Z</time>
      </trkpt>
      <trkpt lat="45.95539" lon="4.75477">
        <ele>187</ele>
        <time>2018-09-15T10:17:02Z</time>
      </trkpt>
      <trkpt lat="45.95537" lon="4.7547">
        <ele>187</ele>
        <time>2018-09-15T10:17:03Z</time>
      </trkpt>
      <trkpt lat="45.95535" lon="4.75462">
        <ele>187</ele>
        <time>2018-09-15T10:17:04Z</time>
      </trkpt>
      <trkpt lat="45.95533" lon="4.75456">
        <ele>187</ele>
        <time>2018-09-15T10:17:05Z</time>
      </trkpt>
      <trkpt lat="45.95529" lon="4.7545">
        <ele>187</ele>
        <time>2018-09-15T10:17:06Z</time>
      </trkpt>
      <trkpt lat="45.95523" lon="4.75444">
        <ele>187</ele>
        <time>2018-09-15T10:17:07Z</time>
      </trkpt>
      <trkpt lat="45.95519" lon="4.75438">
        <ele>187</ele>
        <time>2018-09-15T10:17:08Z</time>
      </trkpt>
      <trkpt lat="45.95517" lon="4.7543">
        <ele>187</ele>
        <time>2018-09-15T10:17:09Z</time>
      </trkpt>
      <trkpt lat="45.95513" lon="4.75424">
        <ele>186</ele>
        <time>2018-09-15T10:17:10Z</time>
      </trkpt>
      <trkpt lat="45.95511" lon="4.75417">
        <ele>186</ele>
        <time>2018-09-15T10:17:11Z</time>
      </trkpt>
      <trkpt lat="45.95508" lon="4.75411">
        <ele>187</ele>
        <time>2018-09-15T10:17:12Z</time>
      </trkpt>
      <trkpt lat="45.95505" lon="4.75402">
        <ele>187</ele>
        <time>2018-09-15T10:17:13Z</time>
      </trkpt>
      <trkpt lat="45.95503" lon="4.75394">
        <ele>188</ele>
        <time>2018-09-15T10:17:14Z</time>
      </trkpt>
      <trkpt lat="45.95499" lon="4.75388">
        <ele>185</ele>
        <time>2018-09-15T10:17:15Z</time>
      </trkpt>
      <trkpt lat="45.95496" lon="4.75383">
        <ele>185</ele>
        <time>2018-09-15T10:17:16Z</time>
      </trkpt>
      <trkpt lat="45.95493" lon="4.75376">
        <ele>185</ele>
        <time>2018-09-15T10:17:17Z</time>
      </trkpt>
      <trkpt lat="45.9549" lon="4.75371">
        <ele>185</ele>
        <time>2018-09-15T10:17:18Z</time>
      </trkpt>
      <trkpt lat="45.95487" lon="4.75364">
        <ele>186</ele>
        <time>2018-09-15T10:17:19Z</time>
      </trkpt>
      <trkpt lat="45.95485" lon="4.75357">
        <ele>186</ele>
        <time>2018-09-15T10:17:20Z</time>
      </trkpt>
      <trkpt lat="45.95483" lon="4.75349">
        <ele>186</ele>
        <time>2018-09-15T10:17:21Z</time>
      </trkpt>
      <trkpt lat="45.9548" lon="4.75342">
        <ele>186</ele>
        <time>2018-09-15T10:17:22Z</time>
      </trkpt>
      <trkpt lat="45.95476" lon="4.75335">
        <ele>186</ele>
        <time>2018-09-15T10:17:23Z</time>
      </trkpt>
      <trkpt lat="45.95472" lon="4.75332">
        <ele>188</ele>
        <time>2018-09-15T10:17:24Z</time>
      </trkpt>
      <trkpt lat="45.95469" lon="4.75326">
        <ele>188</ele>
        <time>2018-09-15T10:17:25Z</time>
      </trkpt>
      <trkpt lat="45.95466" lon="4.7532">
        <ele>188</ele>
        <time>2018-09-15T10:17:26Z</time>
      </trkpt>
      <trkpt lat="45.95463" lon="4.75314">
        <ele>188</ele>
        <time>2018-09-15T10:17:27Z</time>
      </trkpt>
      <trkpt lat="45.9546" lon="4.75305">
        <ele>188</ele>
        <time>2018-09-15T10:17:29Z</time>
      </trkpt>
      <trkpt lat="45.95457" lon="4.75301">
        <ele>188</ele>
        <time>2018-09-15T10:17:30Z</time>
      </trkpt>
      <trkpt lat="45.95452" lon="4.75293">
        <ele>188</ele>
        <time>2018-09-15T10:17:32Z</time>
      </trkpt>
      <trkpt lat="45.95452" lon="4.7529">
        <ele>188</ele>
        <time>2018-09-15T10:17:33Z</time>
      </trkpt>
      <trkpt lat="45.9545" lon="4.75289">
        <ele>188</ele>
        <time>2018-09-15T10:17:34Z</time>
      </trkpt>
      <trkpt lat="45.95445" lon="4.7528">
        <ele>188</ele>
        <time>2018-09-15T10:17:35Z</time>
      </trkpt>
      <trkpt lat="45.95443" lon="4.75274">
        <ele>189</ele>
        <time>2018-09-15T10:17:36Z</time>
      </trkpt>
      <trkpt lat="45.9544" lon="4.75268">
        <ele>189</ele>
        <time>2018-09-15T10:17:37Z</time>
      </trkpt>
      <trkpt lat="45.95436" lon="4.75257">
        <ele>189</ele>
        <time>2018-09-15T10:17:39Z</time>
      </trkpt>
      <trkpt lat="45.95433" lon="4.7525">
        <ele>190</ele>
        <time>2018-09-15T10:17:40Z</time>
      </trkpt>
      <trkpt lat="45.95429" lon="4.75242">
        <ele>190</ele>
        <time>2018-09-15T10:17:41Z</time>
      </trkpt>
      <trkpt lat="45.95427" lon="4.75237">
        <ele>190</ele>
        <time>2018-09-15T10:17:42Z</time>
      </trkpt>
      <trkpt lat="45.95424" lon="4.75231">
        <ele>190</ele>
        <time>2018-09-15T10:17:43Z</time>
      </trkpt>
      <trkpt lat="45.95422" lon="4.75224">
        <ele>191</ele>
        <time>2018-09-15T10:17:44Z</time>
      </trkpt>
      <trkpt lat="45.9542" lon="4.75218">
        <ele>191</ele>
        <time>2018-09-15T10:17:45Z</time>
      </trkpt>
      <trkpt lat="45.95414" lon="4.75215">
        <ele>189</ele>
        <time>2018-09-15T10:17:46Z</time>
      </trkpt>
      <trkpt lat="45.9541" lon="4.7521">
        <ele>189</ele>
        <time>2018-09-15T10:17:47Z</time>
      </trkpt>
      <trkpt lat="45.95407" lon="4.75204">
        <ele>189</ele>
        <time>2018-09-15T10:17:48Z</time>
      </trkpt>
      <trkpt lat="45.95403" lon="4.75199">
        <ele>189</ele>
        <time>2018-09-15T10:17:49Z</time>
      </trkpt>
      <trkpt lat="45.95399" lon="4.75194">
        <ele>189</ele>
        <time>2018-09-15T10:17:50Z</time>
      </trkpt>
      <trkpt lat="45.95395" lon="4.75188">
        <ele>189</ele>
        <time>2018-09-15T10:17:51Z</time>
      </trkpt>
      <trkpt lat="45.95391" lon="4.75183">
        <ele>189</ele>
        <time>2018-09-15T10:17:52Z</time>
      </trkpt>
      <trkpt lat="45.95388" lon="4.75177">
        <ele>189</ele>
        <time>2018-09-15T10:17:53Z</time>
      </trkpt>
      <trkpt lat="45.95386" lon="4.75171">
        <ele>189</ele>
        <time>2018-09-15T10:17:54Z</time>
      </trkpt>
      <trkpt lat="45.95384" lon="4.75163">
        <ele>191</ele>
        <time>2018-09-15T10:17:55Z</time>
      </trkpt>
      <trkpt lat="45.95381" lon="4.75156">
        <ele>191</ele>
        <time>2018-09-15T10:17:56Z</time>
      </trkpt>
      <trkpt lat="45.95375" lon="4.7515">
        <ele>191</ele>
        <time>2018-09-15T10:17:57Z</time>
      </trkpt>
      <trkpt lat="45.95373" lon="4.75144">
        <ele>191</ele>
        <time>2018-09-15T10:17:58Z</time>
      </trkpt>
      <trkpt lat="45.9537" lon="4.75138">
        <ele>191</ele>
        <time>2018-09-15T10:17:59Z</time>
      </trkpt>
      <trkpt lat="45.95366" lon="4.75132">
        <ele>191</ele>
        <time>2018-09-15T10:18:00Z</time>
      </trkpt>
      <trkpt lat="45.95364" lon="4.75126">
        <ele>191</ele>
        <time>2018-09-15T10:18:01Z</time>
      </trkpt>
      <trkpt lat="45.95361" lon="4.75119">
        <ele>192</ele>
        <time>2018-09-15T10:18:02Z</time>
      </trkpt>
      <trkpt lat="45.95357" lon="4.75115">
        <ele>192</ele>
        <time>2018-09-15T10:18:03Z</time>
      </trkpt>
      <trkpt lat="45.95353" lon="4.75111">
        <ele>192</ele>
        <time>2018-09-15T10:18:04Z</time>
      </trkpt>
      <trkpt lat="45.9535" lon="4.75106">
        <ele>192</ele>
        <time>2018-09-15T10:18:05Z</time>
      </trkpt>
      <trkpt lat="45.95346" lon="4.75102">
        <ele>192</ele>
        <time>2018-09-15T10:18:06Z</time>
      </trkpt>
      <trkpt lat="45.95342" lon="4.75096">
        <ele>192</ele>
        <time>2018-09-15T10:18:07Z</time>
      </trkpt>
      <trkpt lat="45.95338" lon="4.75092">
        <ele>192</ele>
        <time>2018-09-15T10:18:08Z</time>
      </trkpt>
      <trkpt lat="45.95335" lon="4.75084">
        <ele>193</ele>
        <time>2018-09-15T10:18:09Z</time>
      </trkpt>
      <trkpt lat="45.95329" lon="4.75078">
        <ele>193</ele>
        <time>2018-09-15T10:18:10Z</time>
      </trkpt>
      <trkpt lat="45.95324" lon="4.75071">
        <ele>192</ele>
        <time>2018-09-15T10:18:12Z</time>
      </trkpt>
      <trkpt lat="45.95318" lon="4.75066">
        <ele>192</ele>
        <time>2018-09-15T10:18:13Z</time>
      </trkpt>
      <trkpt lat="45.95317" lon="4.75059">
        <ele>192</ele>
        <time>2018-09-15T10:18:14Z</time>
      </trkpt>
      <trkpt lat="45.95313" lon="4.75054">
        <ele>192</ele>
        <time>2018-09-15T10:18:15Z</time>
      </trkpt>
      <trkpt lat="45.95309" lon="4.7505">
        <ele>192</ele>
        <time>2018-09-15T10:18:16Z</time>
      </trkpt>
      <trkpt lat="45.95306" lon="4.75044">
        <ele>192</ele>
        <time>2018-09-15T10:18:17Z</time>
      </trkpt>
      <trkpt lat="45.95302" lon="4.75039">
        <ele>191</ele>
        <time>2018-09-15T10:18:18Z</time>
      </trkpt>
      <trkpt lat="45.95299" lon="4.75034">
        <ele>191</ele>
        <time>2018-09-15T10:18:19Z</time>
      </trkpt>
      <trkpt lat="45.95295" lon="4.75026">
        <ele>191</ele>
        <time>2018-09-15T10:18:21Z</time>
      </trkpt>
      <trkpt lat="45.95292" lon="4.75022">
        <ele>191</ele>
        <time>2018-09-15T10:18:22Z</time>
      </trkpt>
      <trkpt lat="45.95287" lon="4.75013">
        <ele>191</ele>
        <time>2018-09-15T10:18:24Z</time>
      </trkpt>
      <trkpt lat="45.95284" lon="4.75008">
        <ele>191</ele>
        <time>2018-09-15T10:18:25Z</time>
      </trkpt>
      <trkpt lat="45.95279" lon="4.75004">
        <ele>191</ele>
        <time>2018-09-15T10:18:26Z</time>
      </trkpt>
      <trkpt lat="45.95275" lon="4.74998">
        <ele>192</ele>
        <time>2018-09-15T10:18:27Z</time>
      </trkpt>
      <trkpt lat="45.95271" lon="4.74992">
        <ele>192</ele>
        <time>2018-09-15T10:18:28Z</time>
      </trkpt>
      <trkpt lat="45.95268" lon="4.74987">
        <ele>192</ele>
        <time>2018-09-15T10:18:29Z</time>
      </trkpt>
      <trkpt lat="45.95265" lon="4.74981">
        <ele>192</ele>
        <time>2018-09-15T10:18:30Z</time>
      </trkpt>
      <trkpt lat="45.95261" lon="4.74975">
        <ele>192</ele>
        <time>2018-09-15T10:18:31Z</time>
      </trkpt>
      <trkpt lat="45.95258" lon="4.7497">
        <ele>192</ele>
        <time>2018-09-15T10:18:32Z</time>
      </trkpt>
      <trkpt lat="45.95255" lon="4.74964">
        <ele>192</ele>
        <time>2018-09-15T10:18:33Z</time>
      </trkpt>
      <trkpt lat="45.95251" lon="4.74958">
        <ele>192</ele>
        <time>2018-09-15T10:18:34Z</time>
      </trkpt>
      <trkpt lat="45.95248" lon="4.74953">
        <ele>192</ele>
        <time>2018-09-15T10:18:35Z</time>
      </trkpt>
      <trkpt lat="45.95244" lon="4.74948">
        <ele>192</ele>
        <time>2018-09-15T10:18:36Z</time>
      </trkpt>
      <trkpt lat="45.9524" lon="4.74943">
        <ele>192</ele>
        <time>2018-09-15T10:18:37Z</time>
      </trkpt>
      <trkpt lat="45.95237" lon="4.74938">
        <ele>192</ele>
        <time>2018-09-15T10:18:38Z</time>
      </trkpt>
      <trkpt lat="45.95234" lon="4.74933">
        <ele>192</ele>
        <time>2018-09-15T10:18:39Z</time>
      </trkpt>
      <trkpt lat="45.95231" lon="4.74928">
        <ele>192</ele>
        <time>2018-09-15T10:18:40Z</time>
      </trkpt>
      <trkpt lat="45.95228" lon="4.74922">
        <ele>192</ele>
        <time>2018-09-15T10:18:41Z</time>
      </trkpt>
      <trkpt lat="45.95226" lon="4.74917">
        <ele>192</ele>
        <time>2018-09-15T10:18:42Z</time>
      </trkpt>
      <trkpt lat="45.95222" lon="4.74912">
        <ele>193</ele>
        <time>2018-09-15T10:18:43Z</time>
      </trkpt>
      <trkpt lat="45.95218" lon="4.74907">
        <ele>193</ele>
        <time>2018-09-15T10:18:44Z</time>
      </trkpt>
      <trkpt lat="45.95212" lon="4.74904">
        <ele>193</ele>
        <time>2018-09-15T10:18:45Z</time>
      </trkpt>
      <trkpt lat="45.95209" lon="4.74898">
        <ele>193</ele>
        <time>2018-09-15T10:18:46Z</time>
      </trkpt>
      <trkpt lat="45.95206" lon="4.74891">
        <ele>194</ele>
        <time>2018-09-15T10:18:47Z</time>
      </trkpt>
      <trkpt lat="45.95202" lon="4.74884">
        <ele>194</ele>
        <time>2018-09-15T10:18:48Z</time>
      </trkpt>
      <trkpt lat="45.95198" lon="4.74878">
        <ele>194</ele>
        <time>2018-09-15T10:18:49Z</time>
      </trkpt>
      <trkpt lat="45.95195" lon="4.74874">
        <ele>194</ele>
        <time>2018-09-15T10:18:50Z</time>
      </trkpt>
      <trkpt lat="45.95191" lon="4.7487">
        <ele>194</ele>
        <time>2018-09-15T10:18:51Z</time>
      </trkpt>
      <trkpt lat="45.95188" lon="4.74862">
        <ele>194</ele>
        <time>2018-09-15T10:18:52Z</time>
      </trkpt>
      <trkpt lat="45.95184" lon="4.74857">
        <ele>194</ele>
        <time>2018-09-15T10:18:53Z</time>
      </trkpt>
      <trkpt lat="45.95176" lon="4.74852">
        <ele>194</ele>
        <time>2018-09-15T10:18:54Z</time>
      </trkpt>
      <trkpt lat="45.9517" lon="4.74846">
        <ele>194</ele>
        <time>2018-09-15T10:18:55Z</time>
      </trkpt>
      <trkpt lat="45.95166" lon="4.7484">
        <ele>194</ele>
        <time>2018-09-15T10:18:56Z</time>
      </trkpt>
      <trkpt lat="45.95165" lon="4.74832">
        <ele>194</ele>
        <time>2018-09-15T10:18:57Z</time>
      </trkpt>
      <trkpt lat="45.9516" lon="4.74826">
        <ele>194</ele>
        <time>2018-09-15T10:18:58Z</time>
      </trkpt>
      <trkpt lat="45.95156" lon="4.7482">
        <ele>194</ele>
        <time>2018-09-15T10:18:59Z</time>
      </trkpt>
      <trkpt lat="45.95153" lon="4.74815">
        <ele>194</ele>
        <time>2018-09-15T10:19:00Z</time>
      </trkpt>
      <trkpt lat="45.95149" lon="4.74808">
        <ele>194</ele>
        <time>2018-09-15T10:19:01Z</time>
      </trkpt>
      <trkpt lat="45.95145" lon="4.74801">
        <ele>194</ele>
        <time>2018-09-15T10:19:02Z</time>
      </trkpt>
      <trkpt lat="45.9514" lon="4.74796">
        <ele>194</ele>
        <time>2018-09-15T10:19:03Z</time>
      </trkpt>
      <trkpt lat="45.95136" lon="4.74789">
        <ele>194</ele>
        <time>2018-09-15T10:19:04Z</time>
      </trkpt>
      <trkpt lat="45.95135" lon="4.74783">
        <ele>194</ele>
        <time>2018-09-15T10:19:05Z</time>
      </trkpt>
      <trkpt lat="45.9513" lon="4.74776">
        <ele>194</ele>
        <time>2018-09-15T10:19:06Z</time>
      </trkpt>
      <trkpt lat="45.95127" lon="4.7477">
        <ele>194</ele>
        <time>2018-09-15T10:19:07Z</time>
      </trkpt>
      <trkpt lat="45.95123" lon="4.74764">
        <ele>194</ele>
        <time>2018-09-15T10:19:08Z</time>
      </trkpt>
      <trkpt lat="45.95119" lon="4.74758">
        <ele>194</ele>
        <time>2018-09-15T10:19:09Z</time>
      </trkpt>
      <trkpt lat="45.95116" lon="4.7475">
        <ele>194</ele>
        <time>2018-09-15T10:19:10Z</time>
      </trkpt>
      <trkpt lat="45.95113" lon="4.74743">
        <ele>194</ele>
        <time>2018-09-15T10:19:11Z</time>
      </trkpt>
      <trkpt lat="45.95109" lon="4.74736">
        <ele>194</ele>
        <time>2018-09-15T10:19:12Z</time>
      </trkpt>
      <trkpt lat="45.95106" lon="4.74729">
        <ele>194</ele>
        <time>2018-09-15T10:19:13Z</time>
      </trkpt>
      <trkpt lat="45.95103" lon="4.74723">
        <ele>194</ele>
        <time>2018-09-15T10:19:14Z</time>
      </trkpt>
      <trkpt lat="45.95101" lon="4.74716">
        <ele>194</ele>
        <time>2018-09-15T10:19:15Z</time>
      </trkpt>
      <trkpt lat="45.95099" lon="4.7471">
        <ele>194</ele>
        <time>2018-09-15T10:19:16Z</time>
      </trkpt>
      <trkpt lat="45.95095" lon="4.74705">
        <ele>194</ele>
        <time>2018-09-15T10:19:17Z</time>
      </trkpt>
      <trkpt lat="45.95092" lon="4.74698">
        <ele>194</ele>
        <time>2018-09-15T10:19:18Z</time>
      </trkpt>
      <trkpt lat="45.95088" lon="4.74692">
        <ele>194</ele>
        <time>2018-09-15T10:19:19Z</time>
      </trkpt>
      <trkpt lat="45.95085" lon="4.74686">
        <ele>195</ele>
        <time>2018-09-15T10:19:20Z</time>
      </trkpt>
      <trkpt lat="45.95081" lon="4.74678">
        <ele>194</ele>
        <time>2018-09-15T10:19:21Z</time>
      </trkpt>
      <trkpt lat="45.95077" lon="4.74671">
        <ele>195</ele>
        <time>2018-09-15T10:19:22Z</time>
      </trkpt>
      <trkpt lat="45.95071" lon="4.74663">
        <ele>195</ele>
        <time>2018-09-15T10:19:23Z</time>
      </trkpt>
      <trkpt lat="45.95065" lon="4.74656">
        <ele>195</ele>
        <time>2018-09-15T10:19:24Z</time>
      </trkpt>
      <trkpt lat="45.95061" lon="4.74648">
        <ele>194</ele>
        <time>2018-09-15T10:19:25Z</time>
      </trkpt>
      <trkpt lat="45.95057" lon="4.74641">
        <ele>194</ele>
        <time>2018-09-15T10:19:26Z</time>
      </trkpt>
      <trkpt lat="45.95052" lon="4.74635">
        <ele>194</ele>
        <time>2018-09-15T10:19:27Z</time>
      </trkpt>
      <trkpt lat="45.95048" lon="4.74626">
        <ele>194</ele>
        <time>2018-09-15T10:19:28Z</time>
      </trkpt>
      <trkpt lat="45.95045" lon="4.74619">
        <ele>194</ele>
        <time>2018-09-15T10:19:29Z</time>
      </trkpt>
      <trkpt lat="45.95041" lon="4.74612">
        <ele>194</ele>
        <time>2018-09-15T10:19:30Z</time>
      </trkpt>
      <trkpt lat="45.95038" lon="4.74607">
        <ele>194</ele>
        <time>2018-09-15T10:19:31Z</time>
      </trkpt>
      <trkpt lat="45.95035" lon="4.74601">
        <ele>194</ele>
        <time>2018-09-15T10:19:32Z</time>
      </trkpt>
      <trkpt lat="45.95031" lon="4.74594">
        <ele>194</ele>
        <time>2018-09-15T10:19:33Z</time>
      </trkpt>
      <trkpt lat="45.95027" lon="4.74585">
        <ele>194</ele>
        <time>2018-09-15T10:19:34Z</time>
      </trkpt>
      <trkpt lat="45.95023" lon="4.74578">
        <ele>194</ele>
        <time>2018-09-15T10:19:35Z</time>
      </trkpt>
      <trkpt lat="45.95019" lon="4.7457">
        <ele>194</ele>
        <time>2018-09-15T10:19:36Z</time>
      </trkpt>
      <trkpt lat="45.95015" lon="4.74563">
        <ele>194</ele>
        <time>2018-09-15T10:19:37Z</time>
      </trkpt>
      <trkpt lat="45.95012" lon="4.74555">
        <ele>194</ele>
        <time>2018-09-15T10:19:38Z</time>
      </trkpt>
      <trkpt lat="45.95008" lon="4.74548">
        <ele>194</ele>
        <time>2018-09-15T10:19:39Z</time>
      </trkpt>
      <trkpt lat="45.95005" lon="4.74539">
        <ele>194</ele>
        <time>2018-09-15T10:19:40Z</time>
      </trkpt>
      <trkpt lat="45.95001" lon="4.74531">
        <ele>194</ele>
        <time>2018-09-15T10:19:41Z</time>
      </trkpt>
      <trkpt lat="45.94998" lon="4.74524">
        <ele>193</ele>
        <time>2018-09-15T10:19:42Z</time>
      </trkpt>
      <trkpt lat="45.94993" lon="4.74517">
        <ele>193</ele>
        <time>2018-09-15T10:19:43Z</time>
      </trkpt>
      <trkpt lat="45.94988" lon="4.74507">
        <ele>193</ele>
        <time>2018-09-15T10:19:44Z</time>
      </trkpt>
      <trkpt lat="45.94983" lon="4.74499">
        <ele>193</ele>
        <time>2018-09-15T10:19:45Z</time>
      </trkpt>
      <trkpt lat="45.94978" lon="4.74489">
        <ele>193</ele>
        <time>2018-09-15T10:19:46Z</time>
      </trkpt>
      <trkpt lat="45.94973" lon="4.7448">
        <ele>193</ele>
        <time>2018-09-15T10:19:47Z</time>
      </trkpt>
      <trkpt lat="45.94969" lon="4.7447">
        <ele>193</ele>
        <time>2018-09-15T10:19:48Z</time>
      </trkpt>
      <trkpt lat="45.94964" lon="4.7446">
        <ele>193</ele>
        <time>2018-09-15T10:19:49Z</time>
      </trkpt>
      <trkpt lat="45.94959" lon="4.74453">
        <ele>192</ele>
        <time>2018-09-15T10:19:50Z</time>
      </trkpt>
      <trkpt lat="45.94955" lon="4.74443">
        <ele>192</ele>
        <time>2018-09-15T10:19:51Z</time>
      </trkpt>
      <trkpt lat="45.9495" lon="4.74433">
        <ele>192</ele>
        <time>2018-09-15T10:19:52Z</time>
      </trkpt>
      <trkpt lat="45.94944" lon="4.74426">
        <ele>192</ele>
        <time>2018-09-15T10:19:53Z</time>
      </trkpt>
      <trkpt lat="45.94938" lon="4.74416">
        <ele>192</ele>
        <time>2018-09-15T10:19:54Z</time>
      </trkpt>
      <trkpt lat="45.94935" lon="4.74407">
        <ele>192</ele>
        <time>2018-09-15T10:19:55Z</time>
      </trkpt>
      <trkpt lat="45.9493" lon="4.74398">
        <ele>192</ele>
        <time>2018-09-15T10:19:56Z</time>
      </trkpt>
      <trkpt lat="45.94926" lon="4.74389">
        <ele>192</ele>
        <time>2018-09-15T10:19:57Z</time>
      </trkpt>
      <trkpt lat="45.94922" lon="4.7438">
        <ele>192</ele>
        <time>2018-09-15T10:19:58Z</time>
      </trkpt>
      <trkpt lat="45.94918" lon="4.74372">
        <ele>192</ele>
        <time>2018-09-15T10:19:59Z</time>
      </trkpt>
      <trkpt lat="45.94914" lon="4.74363">
        <ele>191</ele>
        <time>2018-09-15T10:20:00Z</time>
      </trkpt>
      <trkpt lat="45.94911" lon="4.74355">
        <ele>191</ele>
        <time>2018-09-15T10:20:01Z</time>
      </trkpt>
      <trkpt lat="45.94907" lon="4.74346">
        <ele>191</ele>
        <time>2018-09-15T10:20:02Z</time>
      </trkpt>
      <trkpt lat="45.94903" lon="4.74338">
        <ele>191</ele>
        <time>2018-09-15T10:20:03Z</time>
      </trkpt>
      <trkpt lat="45.94899" lon="4.74329">
        <ele>191</ele>
        <time>2018-09-15T10:20:04Z</time>
      </trkpt>
      <trkpt lat="45.94894" lon="4.74321">
        <ele>191</ele>
        <time>2018-09-15T10:20:05Z</time>
      </trkpt>
      <trkpt lat="45.9489" lon="4.74313">
        <ele>191</ele>
        <time>2018-09-15T10:20:06Z</time>
      </trkpt>
      <trkpt lat="45.94887" lon="4.74306">
        <ele>191</ele>
        <time>2018-09-15T10:20:07Z</time>
      </trkpt>
      <trkpt lat="45.94884" lon="4.74298">
        <ele>191</ele>
        <time>2018-09-15T10:20:08Z</time>
      </trkpt>
      <trkpt lat="45.9488" lon="4.7429">
        <ele>191</ele>
        <time>2018-09-15T10:20:09Z</time>
      </trkpt>
      <trkpt lat="45.94877" lon="4.74283">
        <ele>191</ele>
        <time>2018-09-15T10:20:10Z</time>
      </trkpt>
      <trkpt lat="45.94872" lon="4.74275">
        <ele>191</ele>
        <time>2018-09-15T10:20:11Z</time>
      </trkpt>
      <trkpt lat="45.94869" lon="4.74268">
        <ele>191</ele>
        <time>2018-09-15T10:20:12Z</time>
      </trkpt>
      <trkpt lat="45.94866" lon="4.74262">
        <ele>190</ele>
        <time>2018-09-15T10:20:13Z</time>
      </trkpt>
      <trkpt lat="45.94863" lon="4.74255">
        <ele>190</ele>
        <time>2018-09-15T10:20:14Z</time>
      </trkpt>
      <trkpt lat="45.9486" lon="4.74247">
        <ele>190</ele>
        <time>2018-09-15T10:20:15Z</time>
      </trkpt>
      <trkpt lat="45.94856" lon="4.7424">
        <ele>190</ele>
        <time>2018-09-15T10:20:16Z</time>
      </trkpt>
      <trkpt lat="45.94852" lon="4.74233">
        <ele>190</ele>
        <time>2018-09-15T10:20:17Z</time>
      </trkpt>
      <trkpt lat="45.94848" lon="4.74225">
        <ele>190</ele>
        <time>2018-09-15T10:20:18Z</time>
      </trkpt>
      <trkpt lat="45.94844" lon="4.74217">
        <ele>190</ele>
        <time>2018-09-15T10:20:19Z</time>
      </trkpt>
      <trkpt lat="45.94839" lon="4.7421">
        <ele>190</ele>
        <time>2018-09-15T10:20:20Z</time>
      </trkpt>
      <trkpt lat="45.94835" lon="4.74202">
        <ele>190</ele>
        <time>2018-09-15T10:20:21Z</time>
      </trkpt>
      <trkpt lat="45.94832" lon="4.74194">
        <ele>189</ele>
        <time>2018-09-15T10:20:22Z</time>
      </trkpt>
      <trkpt lat="45.94829" lon="4.74187">
        <ele>189</ele>
        <time>2018-09-15T10:20:23Z</time>
      </trkpt>
      <trkpt lat="45.94824" lon="4.74181">
        <ele>189</ele>
        <time>2018-09-15T10:20:24Z</time>
      </trkpt>
      <trkpt lat="45.9482" lon="4.74173">
        <ele>189</ele>
        <time>2018-09-15T10:20:25Z</time>
      </trkpt>
      <trkpt lat="45.94817" lon="4.74165">
        <ele>189</ele>
        <time>2018-09-15T10:20:26Z</time>
      </trkpt>
      <trkpt lat="45.94811" lon="4.7416">
        <ele>189</ele>
        <time>2018-09-15T10:20:27Z</time>
      </trkpt>
      <trkpt lat="45.94806" lon="4.74152">
        <ele>189</ele>
        <time>2018-09-15T10:20:28Z</time>
      </trkpt>
      <trkpt lat="45.94801" lon="4.74146">
        <ele>189</ele>
        <time>2018-09-15T10:20:29Z</time>
      </trkpt>
      <trkpt lat="45.94798" lon="4.74139">
        <ele>189</ele>
        <time>2018-09-15T10:20:30Z</time>
      </trkpt>
      <trkpt lat="45.94793" lon="4.74132">
        <ele>189</ele>
        <time>2018-09-15T10:20:31Z</time>
      </trkpt>
      <trkpt lat="45.94789" lon="4.74124">
        <ele>189</ele>
        <time>2018-09-15T10:20:32Z</time>
      </trkpt>
      <trkpt lat="45.94784" lon="4.74118">
        <ele>189</ele>
        <time>2018-09-15T10:20:33Z</time>
      </trkpt>
      <trkpt lat="45.9478" lon="4.7411">
        <ele>189</ele>
        <time>2018-09-15T10:20:34Z</time>
      </trkpt>
      <trkpt lat="45.94775" lon="4.74103">
        <ele>189</ele>
        <time>2018-09-15T10:20:35Z</time>
      </trkpt>
      <trkpt lat="45.9477" lon="4.74096">
        <ele>189</ele>
        <time>2018-09-15T10:20:36Z</time>
      </trkpt>
      <trkpt lat="45.94766" lon="4.74089">
        <ele>189</ele>
        <time>2018-09-15T10:20:37Z</time>
      </trkpt>
      <trkpt lat="45.94761" lon="4.74084">
        <ele>189</ele>
        <time>2018-09-15T10:20:38Z</time>
      </trkpt>
      <trkpt lat="45.94757" lon="4.74081">
        <ele>189</ele>
        <time>2018-09-15T10:20:39Z</time>
      </trkpt>
      <trkpt lat="45.94752" lon="4.74074">
        <ele>189</ele>
        <time>2018-09-15T10:20:40Z</time>
      </trkpt>
      <trkpt lat="45.94746" lon="4.74068">
        <ele>188</ele>
        <time>2018-09-15T10:20:41Z</time>
      </trkpt>
      <trkpt lat="45.94742" lon="4.74062">
        <ele>188</ele>
        <time>2018-09-15T10:20:42Z</time>
      </trkpt>
      <trkpt lat="45.94736" lon="4.74058">
        <ele>188</ele>
        <time>2018-09-15T10:20:43Z</time>
      </trkpt>
      <trkpt lat="45.94733" lon="4.74051">
        <ele>188</ele>
        <time>2018-09-15T10:20:44Z</time>
      </trkpt>
      <trkpt lat="45.94729" lon="4.74045">
        <ele>188</ele>
        <time>2018-09-15T10:20:45Z</time>
      </trkpt>
      <trkpt lat="45.94724" lon="4.74039">
        <ele>187</ele>
        <time>2018-09-15T10:20:46Z</time>
      </trkpt>
      <trkpt lat="45.9472" lon="4.74036">
        <ele>187</ele>
        <time>2018-09-15T10:20:47Z</time>
      </trkpt>
      <trkpt lat="45.94715" lon="4.74031">
        <ele>187</ele>
        <time>2018-09-15T10:20:48Z</time>
      </trkpt>
      <trkpt lat="45.9471" lon="4.74025">
        <ele>187</ele>
        <time>2018-09-15T10:20:49Z</time>
      </trkpt>
      <trkpt lat="45.94707" lon="4.7402">
        <ele>187</ele>
        <time>2018-09-15T10:20:50Z</time>
      </trkpt>
      <trkpt lat="45.94704" lon="4.74014">
        <ele>187</ele>
        <time>2018-09-15T10:20:51Z</time>
      </trkpt>
      <trkpt lat="45.947" lon="4.74009">
        <ele>187</ele>
        <time>2018-09-15T10:20:52Z</time>
      </trkpt>
      <trkpt lat="45.94696" lon="4.74003">
        <ele>187</ele>
        <time>2018-09-15T10:20:53Z</time>
      </trkpt>
      <trkpt lat="45.94692" lon="4.73995">
        <ele>187</ele>
        <time>2018-09-15T10:20:54Z</time>
      </trkpt>
      <trkpt lat="45.94688" lon="4.7399">
        <ele>187</ele>
        <time>2018-09-15T10:20:55Z</time>
      </trkpt>
      <trkpt lat="45.94681" lon="4.73984">
        <ele>187</ele>
        <time>2018-09-15T10:20:56Z</time>
      </trkpt>
      <trkpt lat="45.94677" lon="4.73977">
        <ele>187</ele>
        <time>2018-09-15T10:20:57Z</time>
      </trkpt>
      <trkpt lat="45.94671" lon="4.7397">
        <ele>187</ele>
        <time>2018-09-15T10:20:58Z</time>
      </trkpt>
      <trkpt lat="45.94666" lon="4.73964">
        <ele>187</ele>
        <time>2018-09-15T10:20:59Z</time>
      </trkpt>
      <trkpt lat="45.94661" lon="4.73957">
        <ele>187</ele>
        <time>2018-09-15T10:21:00Z</time>
      </trkpt>
      <trkpt lat="45.94656" lon="4.73951">
        <ele>187</ele>
        <time>2018-09-15T10:21:01Z</time>
      </trkpt>
      <trkpt lat="45.9465" lon="4.73944">
        <ele>187</ele>
        <time>2018-09-15T10:21:02Z</time>
      </trkpt>
      <trkpt lat="45.94645" lon="4.73938">
        <ele>187</ele>
        <time>2018-09-15T10:21:03Z</time>
      </trkpt>
      <trkpt lat="45.94638" lon="4.73931">
        <ele>187</ele>
        <time>2018-09-15T10:21:04Z</time>
      </trkpt>
      <trkpt lat="45.94633" lon="4.73925">
        <ele>187</ele>
        <time>2018-09-15T10:21:05Z</time>
      </trkpt>
      <trkpt lat="45.94628" lon="4.73919">
        <ele>187</ele>
        <time>2018-09-15T10:21:06Z</time>
      </trkpt>
      <trkpt lat="45.94622" lon="4.73913">
        <ele>187</ele>
        <time>2018-09-15T10:21:07Z</time>
      </trkpt>
      <trkpt lat="45.94617" lon="4.73907">
        <ele>187</ele>
        <time>2018-09-15T10:21:08Z</time>
      </trkpt>
      <trkpt lat="45.94611" lon="4.73901">
        <ele>187</ele>
        <time>2018-09-15T10:21:09Z</time>
      </trkpt>
      <trkpt lat="45.94607" lon="4.73894">
        <ele>187</ele>
        <time>2018-09-15T10:21:10Z</time>
      </trkpt>
      <trkpt lat="45.94603" lon="4.73888">
        <ele>187</ele>
        <time>2018-09-15T10:21:11Z</time>
      </trkpt>
      <trkpt lat="45.94598" lon="4.73881">
        <ele>187</ele>
        <time>2018-09-15T10:21:12Z</time>
      </trkpt>
      <trkpt lat="45.94593" lon="4.73875">
        <ele>187</ele>
        <time>2018-09-15T10:21:13Z</time>
      </trkpt>
      <trkpt lat="45.94587" lon="4.73868">
        <ele>187</ele>
        <time>2018-09-15T10:21:14Z</time>
      </trkpt>
      <trkpt lat="45.94581" lon="4.73863">
        <ele>186</ele>
        <time>2018-09-15T10:21:15Z</time>
      </trkpt>
      <trkpt lat="45.94575" lon="4.73857">
        <ele>186</ele>
        <time>2018-09-15T10:21:16Z</time>
      </trkpt>
      <trkpt lat="45.94568" lon="4.73853">
        <ele>186</ele>
        <time>2018-09-15T10:21:17Z</time>
      </trkpt>
      <trkpt lat="45.94562" lon="4.73847">
        <ele>186</ele>
        <time>2018-09-15T10:21:18Z</time>
      </trkpt>
      <trkpt lat="45.94557" lon="4.73839">
        <ele>186</ele>
        <time>2018-09-15T10:21:19Z</time>
      </trkpt>
      <trkpt lat="45.94551" lon="4.73833">
        <ele>186</ele>
        <time>2018-09-15T10:21:20Z</time>
      </trkpt>
      <trkpt lat="45.94546" lon="4.73827">
        <ele>186</ele>
        <time>2018-09-15T10:21:21Z</time>
      </trkpt>
      <trkpt lat="45.9454" lon="4.73821">
        <ele>186</ele>
        <time>2018-09-15T10:21:22Z</time>
      </trkpt>
      <trkpt lat="45.94536" lon="4.73817">
        <ele>186</ele>
        <time>2018-09-15T10:21:23Z</time>
      </trkpt>
      <trkpt lat="45.94531" lon="4.7381">
        <ele>186</ele>
        <time>2018-09-15T10:21:24Z</time>
      </trkpt>
      <trkpt lat="45.94527" lon="4.73805">
        <ele>186</ele>
        <time>2018-09-15T10:21:25Z</time>
      </trkpt>
      <trkpt lat="45.94522" lon="4.73799">
        <ele>186</ele>
        <time>2018-09-15T10:21:26Z</time>
      </trkpt>
      <trkpt lat="45.94516" lon="4.73794">
        <ele>186</ele>
        <time>2018-09-15T10:21:27Z</time>
      </trkpt>
      <trkpt lat="45.94511" lon="4.73788">
        <ele>186</ele>
        <time>2018-09-15T10:21:28Z</time>
      </trkpt>
      <trkpt lat="45.94506" lon="4.73783">
        <ele>186</ele>
        <time>2018-09-15T10:21:29Z</time>
      </trkpt>
      <trkpt lat="45.94502" lon="4.73777">
        <ele>186</ele>
        <time>2018-09-15T10:21:30Z</time>
      </trkpt>
      <trkpt lat="45.94497" lon="4.7377">
        <ele>186</ele>
        <time>2018-09-15T10:21:31Z</time>
      </trkpt>
      <trkpt lat="45.94494" lon="4.73762">
        <ele>186</ele>
        <time>2018-09-15T10:21:32Z</time>
      </trkpt>
      <trkpt lat="45.94491" lon="4.73755">
        <ele>186</ele>
        <time>2018-09-15T10:21:33Z</time>
      </trkpt>
      <trkpt lat="45.94488" lon="4.73745">
        <ele>186</ele>
        <time>2018-09-15T10:21:34Z</time>
      </trkpt>
      <trkpt lat="45.94489" lon="4.73736">
        <ele>186</ele>
        <time>2018-09-15T10:21:35Z</time>
      </trkpt>
      <trkpt lat="45.9449" lon="4.73727">
        <ele>186</ele>
        <time>2018-09-15T10:21:36Z</time>
      </trkpt>
      <trkpt lat="45.94492" lon="4.7372">
        <ele>186</ele>
        <time>2018-09-15T10:21:37Z</time>
      </trkpt>
      <trkpt lat="45.94493" lon="4.7371">
        <ele>186</ele>
        <time>2018-09-15T10:21:38Z</time>
      </trkpt>
      <trkpt lat="45.94491" lon="4.737">
        <ele>186</ele>
        <time>2018-09-15T10:21:39Z</time>
      </trkpt>
      <trkpt lat="45.94495" lon="4.7369">
        <ele>186</ele>
        <time>2018-09-15T10:21:40Z</time>
      </trkpt>
      <trkpt lat="45.94496" lon="4.7368">
        <ele>185</ele>
        <time>2018-09-15T10:21:41Z</time>
      </trkpt>
      <trkpt lat="45.94497" lon="4.73671">
        <ele>185</ele>
        <time>2018-09-15T10:21:42Z</time>
      </trkpt>
      <trkpt lat="45.94498" lon="4.73663">
        <ele>185</ele>
        <time>2018-09-15T10:21:43Z</time>
      </trkpt>
      <trkpt lat="45.94498" lon="4.73654">
        <ele>185</ele>
        <time>2018-09-15T10:21:44Z</time>
      </trkpt>
      <trkpt lat="45.945" lon="4.73645">
        <ele>186</ele>
        <time>2018-09-15T10:21:45Z</time>
      </trkpt>
      <trkpt lat="45.94499" lon="4.73637">
        <ele>186</ele>
        <time>2018-09-15T10:21:46Z</time>
      </trkpt>
      <trkpt lat="45.945" lon="4.73631">
        <ele>184</ele>
        <time>2018-09-15T10:21:47Z</time>
      </trkpt>
      <trkpt lat="45.94503" lon="4.73623">
        <ele>184</ele>
        <time>2018-09-15T10:21:48Z</time>
      </trkpt>
      <trkpt lat="45.94503" lon="4.73612">
        <ele>184</ele>
        <time>2018-09-15T10:21:49Z</time>
      </trkpt>
      <trkpt lat="45.94505" lon="4.73602">
        <ele>184</ele>
        <time>2018-09-15T10:21:50Z</time>
      </trkpt>
      <trkpt lat="45.94506" lon="4.73591">
        <ele>184</ele>
        <time>2018-09-15T10:21:51Z</time>
      </trkpt>
      <trkpt lat="45.94506" lon="4.73582">
        <ele>184</ele>
        <time>2018-09-15T10:21:52Z</time>
      </trkpt>
      <trkpt lat="45.94507" lon="4.73573">
        <ele>184</ele>
        <time>2018-09-15T10:21:53Z</time>
      </trkpt>
      <trkpt lat="45.94507" lon="4.73564">
        <ele>184</ele>
        <time>2018-09-15T10:21:54Z</time>
      </trkpt>
      <trkpt lat="45.94508" lon="4.73554">
        <ele>183</ele>
        <time>2018-09-15T10:21:55Z</time>
      </trkpt>
      <trkpt lat="45.94508" lon="4.73545">
        <ele>183</ele>
        <time>2018-09-15T10:21:56Z</time>
      </trkpt>
      <trkpt lat="45.94507" lon="4.73534">
        <ele>183</ele>
        <time>2018-09-15T10:21:57Z</time>
      </trkpt>
      <trkpt lat="45.94508" lon="4.73523">
        <ele>183</ele>
        <time>2018-09-15T10:21:58Z</time>
      </trkpt>
      <trkpt lat="45.94508" lon="4.7351">
        <ele>183</ele>
        <time>2018-09-15T10:21:59Z</time>
      </trkpt>
      <trkpt lat="45.94507" lon="4.735">
        <ele>183</ele>
        <time>2018-09-15T10:22:00Z</time>
      </trkpt>
      <trkpt lat="45.94507" lon="4.7349">
        <ele>182</ele>
        <time>2018-09-15T10:22:01Z</time>
      </trkpt>
      <trkpt lat="45.94507" lon="4.73479">
        <ele>182</ele>
        <time>2018-09-15T10:22:02Z</time>
      </trkpt>
      <trkpt lat="45.94507" lon="4.73471">
        <ele>182</ele>
        <time>2018-09-15T10:22:03Z</time>
      </trkpt>
      <trkpt lat="45.94507" lon="4.7346">
        <ele>181</ele>
        <time>2018-09-15T10:22:04Z</time>
      </trkpt>
      <trkpt lat="45.94506" lon="4.73448">
        <ele>181</ele>
        <time>2018-09-15T10:22:05Z</time>
      </trkpt>
      <trkpt lat="45.94505" lon="4.73438">
        <ele>181</ele>
        <time>2018-09-15T10:22:06Z</time>
      </trkpt>
      <trkpt lat="45.94505" lon="4.73426">
        <ele>180</ele>
        <time>2018-09-15T10:22:07Z</time>
      </trkpt>
      <trkpt lat="45.94504" lon="4.73416">
        <ele>180</ele>
        <time>2018-09-15T10:22:08Z</time>
      </trkpt>
      <trkpt lat="45.94505" lon="4.73405">
        <ele>179</ele>
        <time>2018-09-15T10:22:09Z</time>
      </trkpt>
      <trkpt lat="45.94505" lon="4.73393">
        <ele>179</ele>
        <time>2018-09-15T10:22:10Z</time>
      </trkpt>
      <trkpt lat="45.94501" lon="4.73382">
        <ele>179</ele>
        <time>2018-09-15T10:22:11Z</time>
      </trkpt>
      <trkpt lat="45.94502" lon="4.7337">
        <ele>178</ele>
        <time>2018-09-15T10:22:12Z</time>
      </trkpt>
      <trkpt lat="45.94502" lon="4.73359">
        <ele>178</ele>
        <time>2018-09-15T10:22:13Z</time>
      </trkpt>
      <trkpt lat="45.94502" lon="4.7335">
        <ele>178</ele>
        <time>2018-09-15T10:22:14Z</time>
      </trkpt>
      <trkpt lat="45.94499" lon="4.73339">
        <ele>177</ele>
        <time>2018-09-15T10:22:15Z</time>
      </trkpt>
      <trkpt lat="45.94497" lon="4.73328">
        <ele>177</ele>
        <time>2018-09-15T10:22:16Z</time>
      </trkpt>
      <trkpt lat="45.94495" lon="4.73317">
        <ele>177</ele>
        <time>2018-09-15T10:22:17Z</time>
      </trkpt>
      <trkpt lat="45.94491" lon="4.73303">
        <ele>177</ele>
        <time>2018-09-15T10:22:18Z</time>
      </trkpt>
      <trkpt lat="45.94493" lon="4.73293">
        <ele>177</ele>
        <time>2018-09-15T10:22:19Z</time>
      </trkpt>
      <trkpt lat="45.9449" lon="4.73282">
        <ele>177</ele>
        <time>2018-09-15T10:22:20Z</time>
      </trkpt>
      <trkpt lat="45.9449" lon="4.73272">
        <ele>177</ele>
        <time>2018-09-15T10:22:21Z</time>
      </trkpt>
      <trkpt lat="45.9449" lon="4.73261">
        <ele>176</ele>
        <time>2018-09-15T10:22:22Z</time>
      </trkpt>
      <trkpt lat="45.94487" lon="4.73247">
        <ele>175</ele>
        <time>2018-09-15T10:22:23Z</time>
      </trkpt>
      <trkpt lat="45.94485" lon="4.73236">
        <ele>175</ele>
        <time>2018-09-15T10:22:24Z</time>
      </trkpt>
      <trkpt lat="45.94483" lon="4.73225">
        <ele>175</ele>
        <time>2018-09-15T10:22:25Z</time>
      </trkpt>
      <trkpt lat="45.94481" lon="4.73213">
        <ele>175</ele>
        <time>2018-09-15T10:22:26Z</time>
      </trkpt>
      <trkpt lat="45.9448" lon="4.73201">
        <ele>174</ele>
        <time>2018-09-15T10:22:27Z</time>
      </trkpt>
      <trkpt lat="45.94479" lon="4.7319">
        <ele>174</ele>
        <time>2018-09-15T10:22:28Z</time>
      </trkpt>
      <trkpt lat="45.94478" lon="4.73179">
        <ele>174</ele>
        <time>2018-09-15T10:22:29Z</time>
      </trkpt>
      <trkpt lat="45.94475" lon="4.73166">
        <ele>173</ele>
        <time>2018-09-15T10:22:30Z</time>
      </trkpt>
      <trkpt lat="45.94474" lon="4.73156">
        <ele>172</ele>
        <time>2018-09-15T10:22:31Z</time>
      </trkpt>
      <trkpt lat="45.94471" lon="4.73145">
        <ele>172</ele>
        <time>2018-09-15T10:22:32Z</time>
      </trkpt>
      <trkpt lat="45.9447" lon="4.73134">
        <ele>172</ele>
        <time>2018-09-15T10:22:33Z</time>
      </trkpt>
      <trkpt lat="45.94469" lon="4.73127">
        <ele>172</ele>
        <time>2018-09-15T10:22:34Z</time>
      </trkpt>
      <trkpt lat="45.94467" lon="4.73116">
        <ele>172</ele>
        <time>2018-09-15T10:22:35Z</time>
      </trkpt>
      <trkpt lat="45.94467" lon="4.73105">
        <ele>172</ele>
        <time>2018-09-15T10:22:36Z</time>
      </trkpt>
      <trkpt lat="45.94464" lon="4.73095">
        <ele>171</ele>
        <time>2018-09-15T10:22:37Z</time>
      </trkpt>
      <trkpt lat="45.94462" lon="4.73085">
        <ele>171</ele>
        <time>2018-09-15T10:22:38Z</time>
      </trkpt>
      <trkpt lat="45.94458" lon="4.73076">
        <ele>170</ele>
        <time>2018-09-15T10:22:39Z</time>
      </trkpt>
      <trkpt lat="45.94457" lon="4.73068">
        <ele>170</ele>
        <time>2018-09-15T10:22:40Z</time>
      </trkpt>
      <trkpt lat="45.94456" lon="4.7306">
        <ele>170</ele>
        <time>2018-09-15T10:22:41Z</time>
      </trkpt>
      <trkpt lat="45.94455" lon="4.73053">
        <ele>170</ele>
        <time>2018-09-15T10:22:42Z</time>
      </trkpt>
      <trkpt lat="45.94454" lon="4.73045">
        <ele>169</ele>
        <time>2018-09-15T10:22:43Z</time>
      </trkpt>
      <trkpt lat="45.94453" lon="4.73038">
        <ele>169</ele>
        <time>2018-09-15T10:22:44Z</time>
      </trkpt>
      <trkpt lat="45.94451" lon="4.7303">
        <ele>169</ele>
        <time>2018-09-15T10:22:45Z</time>
      </trkpt>
      <trkpt lat="45.9445" lon="4.73023">
        <ele>169</ele>
        <time>2018-09-15T10:22:46Z</time>
      </trkpt>
      <trkpt lat="45.94449" lon="4.73015">
        <ele>169</ele>
        <time>2018-09-15T10:22:47Z</time>
      </trkpt>
      <trkpt lat="45.94448" lon="4.73008">
        <ele>169</ele>
        <time>2018-09-15T10:22:48Z</time>
      </trkpt>
      <trkpt lat="45.94447" lon="4.72996">
        <ele>167</ele>
        <time>2018-09-15T10:22:50Z</time>
      </trkpt>
      <trkpt lat="45.94446" lon="4.72989">
        <ele>167</ele>
        <time>2018-09-15T10:22:51Z</time>
      </trkpt>
      <trkpt lat="45.94446" lon="4.72981">
        <ele>167</ele>
        <time>2018-09-15T10:22:52Z</time>
      </trkpt>
      <trkpt lat="45.94445" lon="4.72975">
        <ele>167</ele>
        <time>2018-09-15T10:22:53Z</time>
      </trkpt>
      <trkpt lat="45.94445" lon="4.72968">
        <ele>167</ele>
        <time>2018-09-15T10:22:54Z</time>
      </trkpt>
      <trkpt lat="45.94444" lon="4.72961">
        <ele>167</ele>
        <time>2018-09-15T10:22:55Z</time>
      </trkpt>
      <trkpt lat="45.94443" lon="4.72953">
        <ele>167</ele>
        <time>2018-09-15T10:22:56Z</time>
      </trkpt>
      <trkpt lat="45.94442" lon="4.72948">
        <ele>167</ele>
        <time>2018-09-15T10:22:57Z</time>
      </trkpt>
      <trkpt lat="45.94441" lon="4.7294">
        <ele>167</ele>
        <time>2018-09-15T10:22:58Z</time>
      </trkpt>
      <trkpt lat="45.94439" lon="4.72932">
        <ele>167</ele>
        <time>2018-09-15T10:22:59Z</time>
      </trkpt>
      <trkpt lat="45.9444" lon="4.72924">
        <ele>167</ele>
        <time>2018-09-15T10:23:00Z</time>
      </trkpt>
      <trkpt lat="45.9444" lon="4.72916">
        <ele>166</ele>
        <time>2018-09-15T10:23:01Z</time>
      </trkpt>
      <trkpt lat="45.9444" lon="4.72909">
        <ele>166</ele>
        <time>2018-09-15T10:23:02Z</time>
      </trkpt>
      <trkpt lat="45.94438" lon="4.72903">
        <ele>166</ele>
        <time>2018-09-15T10:23:03Z</time>
      </trkpt>
      <trkpt lat="45.94438" lon="4.72896">
        <ele>166</ele>
        <time>2018-09-15T10:23:04Z</time>
      </trkpt>
      <trkpt lat="45.94438" lon="4.72889">
        <ele>166</ele>
        <time>2018-09-15T10:23:05Z</time>
      </trkpt>
      <trkpt lat="45.94437" lon="4.72882">
        <ele>166</ele>
        <time>2018-09-15T10:23:06Z</time>
      </trkpt>
      <trkpt lat="45.94436" lon="4.72874">
        <ele>166</ele>
        <time>2018-09-15T10:23:07Z</time>
      </trkpt>
      <trkpt lat="45.94434" lon="4.72867">
        <ele>166</ele>
        <time>2018-09-15T10:23:08Z</time>
      </trkpt>
      <trkpt lat="45.94433" lon="4.7286">
        <ele>166</ele>
        <time>2018-09-15T10:23:09Z</time>
      </trkpt>
      <trkpt lat="45.94432" lon="4.72852">
        <ele>166</ele>
        <time>2018-09-15T10:23:10Z</time>
      </trkpt>
      <trkpt lat="45.94429" lon="4.72844">
        <ele>166</ele>
        <time>2018-09-15T10:23:11Z</time>
      </trkpt>
      <trkpt lat="45.94428" lon="4.72837">
        <ele>166</ele>
        <time>2018-09-15T10:23:12Z</time>
      </trkpt>
      <trkpt lat="45.94428" lon="4.72829">
        <ele>167</ele>
        <time>2018-09-15T10:23:13Z</time>
      </trkpt>
      <trkpt lat="45.94429" lon="4.72823">
        <ele>167</ele>
        <time>2018-09-15T10:23:14Z</time>
      </trkpt>
      <trkpt lat="45.94428" lon="4.72814">
        <ele>167</ele>
        <time>2018-09-15T10:23:15Z</time>
      </trkpt>
      <trkpt lat="45.94425" lon="4.72806">
        <ele>167</ele>
        <time>2018-09-15T10:23:16Z</time>
      </trkpt>
      <trkpt lat="45.94423" lon="4.72796">
        <ele>168</ele>
        <time>2018-09-15T10:23:17Z</time>
      </trkpt>
      <trkpt lat="45.94422" lon="4.72787">
        <ele>168</ele>
        <time>2018-09-15T10:23:18Z</time>
      </trkpt>
      <trkpt lat="45.94421" lon="4.72777">
        <ele>168</ele>
        <time>2018-09-15T10:23:19Z</time>
      </trkpt>
      <trkpt lat="45.9442" lon="4.72769">
        <ele>169</ele>
        <time>2018-09-15T10:23:20Z</time>
      </trkpt>
      <trkpt lat="45.94418" lon="4.72759">
        <ele>170</ele>
        <time>2018-09-15T10:23:21Z</time>
      </trkpt>
      <trkpt lat="45.94417" lon="4.7275">
        <ele>171</ele>
        <time>2018-09-15T10:23:22Z</time>
      </trkpt>
      <trkpt lat="45.94417" lon="4.72741">
        <ele>171</ele>
        <time>2018-09-15T10:23:23Z</time>
      </trkpt>
      <trkpt lat="45.94416" lon="4.72732">
        <ele>172</ele>
        <time>2018-09-15T10:23:24Z</time>
      </trkpt>
      <trkpt lat="45.94415" lon="4.72722">
        <ele>172</ele>
        <time>2018-09-15T10:23:25Z</time>
      </trkpt>
      <trkpt lat="45.94414" lon="4.72712">
        <ele>172</ele>
        <time>2018-09-15T10:23:26Z</time>
      </trkpt>
      <trkpt lat="45.94413" lon="4.72704">
        <ele>172</ele>
        <time>2018-09-15T10:23:27Z</time>
      </trkpt>
      <trkpt lat="45.94412" lon="4.72695">
        <ele>173</ele>
        <time>2018-09-15T10:23:28Z</time>
      </trkpt>
      <trkpt lat="45.94411" lon="4.72686">
        <ele>173</ele>
        <time>2018-09-15T10:23:29Z</time>
      </trkpt>
      <trkpt lat="45.9441" lon="4.72674">
        <ele>173</ele>
        <time>2018-09-15T10:23:30Z</time>
      </trkpt>
      <trkpt lat="45.9441" lon="4.72666">
        <ele>174</ele>
        <time>2018-09-15T10:23:31Z</time>
      </trkpt>
      <trkpt lat="45.94406" lon="4.72654">
        <ele>174</ele>
        <time>2018-09-15T10:23:32Z</time>
      </trkpt>
      <trkpt lat="45.94405" lon="4.72645">
        <ele>174</ele>
        <time>2018-09-15T10:23:33Z</time>
      </trkpt>
      <trkpt lat="45.94404" lon="4.72634">
        <ele>174</ele>
        <time>2018-09-15T10:23:34Z</time>
      </trkpt>
      <trkpt lat="45.94403" lon="4.72624">
        <ele>173</ele>
        <time>2018-09-15T10:23:35Z</time>
      </trkpt>
      <trkpt lat="45.94402" lon="4.72614">
        <ele>173</ele>
        <time>2018-09-15T10:23:36Z</time>
      </trkpt>
      <trkpt lat="45.944" lon="4.72605">
        <ele>173</ele>
        <time>2018-09-15T10:23:37Z</time>
      </trkpt>
      <trkpt lat="45.94397" lon="4.72595">
        <ele>173</ele>
        <time>2018-09-15T10:23:38Z</time>
      </trkpt>
      <trkpt lat="45.94396" lon="4.72585">
        <ele>173</ele>
        <time>2018-09-15T10:23:39Z</time>
      </trkpt>
      <trkpt lat="45.94395" lon="4.72577">
        <ele>173</ele>
        <time>2018-09-15T10:23:40Z</time>
      </trkpt>
      <trkpt lat="45.94393" lon="4.72569">
        <ele>173</ele>
        <time>2018-09-15T10:23:41Z</time>
      </trkpt>
      <trkpt lat="45.94392" lon="4.72561">
        <ele>173</ele>
        <time>2018-09-15T10:23:42Z</time>
      </trkpt>
      <trkpt lat="45.94391" lon="4.72553">
        <ele>173</ele>
        <time>2018-09-15T10:23:43Z</time>
      </trkpt>
      <trkpt lat="45.9439" lon="4.72546">
        <ele>173</ele>
        <time>2018-09-15T10:23:44Z</time>
      </trkpt>
      <trkpt lat="45.94387" lon="4.72539">
        <ele>174</ele>
        <time>2018-09-15T10:23:45Z</time>
      </trkpt>
      <trkpt lat="45.94385" lon="4.72531">
        <ele>174</ele>
        <time>2018-09-15T10:23:46Z</time>
      </trkpt>
      <trkpt lat="45.94384" lon="4.72523">
        <ele>174</ele>
        <time>2018-09-15T10:23:47Z</time>
      </trkpt>
      <trkpt lat="45.94381" lon="4.72516">
        <ele>174</ele>
        <time>2018-09-15T10:23:48Z</time>
      </trkpt>
      <trkpt lat="45.94374" lon="4.72511">
        <ele>173</ele>
        <time>2018-09-15T10:23:49Z</time>
      </trkpt>
      <trkpt lat="45.9437" lon="4.72503">
        <ele>173</ele>
        <time>2018-09-15T10:23:50Z</time>
      </trkpt>
      <trkpt lat="45.94368" lon="4.72496">
        <ele>173</ele>
        <time>2018-09-15T10:23:51Z</time>
      </trkpt>
      <trkpt lat="45.94365" lon="4.72488">
        <ele>173</ele>
        <time>2018-09-15T10:23:52Z</time>
      </trkpt>
      <trkpt lat="45.94367" lon="4.72478">
        <ele>173</ele>
        <time>2018-09-15T10:23:53Z</time>
      </trkpt>
      <trkpt lat="45.94366" lon="4.7247">
        <ele>173</ele>
        <time>2018-09-15T10:23:54Z</time>
      </trkpt>
      <trkpt lat="45.94363" lon="4.72463">
        <ele>173</ele>
        <time>2018-09-15T10:23:55Z</time>
      </trkpt>
      <trkpt lat="45.94362" lon="4.72457">
        <ele>173</ele>
        <time>2018-09-15T10:23:56Z</time>
      </trkpt>
      <trkpt lat="45.94359" lon="4.72449">
        <ele>173</ele>
        <time>2018-09-15T10:23:57Z</time>
      </trkpt>
      <trkpt lat="45.94356" lon="4.72442">
        <ele>173</ele>
        <time>2018-09-15T10:23:58Z</time>
      </trkpt>
      <trkpt lat="45.94353" lon="4.72436">
        <ele>173</ele>
        <time>2018-09-15T10:23:59Z</time>
      </trkpt>
      <trkpt lat="45.94349" lon="4.72425">
        <ele>173</ele>
        <time>2018-09-15T10:24:01Z</time>
      </trkpt>
      <trkpt lat="45.94345" lon="4.72419">
        <ele>173</ele>
        <time>2018-09-15T10:24:02Z</time>
      </trkpt>
      <trkpt lat="45.94342" lon="4.72415">
        <ele>173</ele>
        <time>2018-09-15T10:24:03Z</time>
      </trkpt>
      <trkpt lat="45.94339" lon="4.72409">
        <ele>173</ele>
        <time>2018-09-15T10:24:04Z</time>
      </trkpt>
      <trkpt lat="45.94335" lon="4.72403">
        <ele>173</ele>
        <time>2018-09-15T10:24:05Z</time>
      </trkpt>
      <trkpt lat="45.94333" lon="4.72396">
        <ele>172</ele>
        <time>2018-09-15T10:24:06Z</time>
      </trkpt>
      <trkpt lat="45.94331" lon="4.72389">
        <ele>172</ele>
        <time>2018-09-15T10:24:07Z</time>
      </trkpt>
      <trkpt lat="45.9433" lon="4.72381">
        <ele>172</ele>
        <time>2018-09-15T10:24:08Z</time>
      </trkpt>
      <trkpt lat="45.94329" lon="4.72375">
        <ele>172</ele>
        <time>2018-09-15T10:24:09Z</time>
      </trkpt>
      <trkpt lat="45.94325" lon="4.72369">
        <ele>172</ele>
        <time>2018-09-15T10:24:10Z</time>
      </trkpt>
      <trkpt lat="45.94323" lon="4.72363">
        <ele>172</ele>
        <time>2018-09-15T10:24:11Z</time>
      </trkpt>
      <trkpt lat="45.94318" lon="4.72357">
        <ele>172</ele>
        <time>2018-09-15T10:24:12Z</time>
      </trkpt>
      <trkpt lat="45.94315" lon="4.72352">
        <ele>172</ele>
        <time>2018-09-15T10:24:13Z</time>
      </trkpt>
      <trkpt lat="45.94312" lon="4.72345">
        <ele>172</ele>
        <time>2018-09-15T10:24:14Z</time>
      </trkpt>
      <trkpt lat="45.9431" lon="4.72339">
        <ele>172</ele>
        <time>2018-09-15T10:24:15Z</time>
      </trkpt>
      <trkpt lat="45.94307" lon="4.72335">
        <ele>172</ele>
        <time>2018-09-15T10:24:16Z</time>
      </trkpt>
      <trkpt lat="45.94305" lon="4.72328">
        <ele>171</ele>
        <time>2018-09-15T10:24:17Z</time>
      </trkpt>
      <trkpt lat="45.94301" lon="4.72321">
        <ele>171</ele>
        <time>2018-09-15T10:24:18Z</time>
      </trkpt>
      <trkpt lat="45.94299" lon="4.72313">
        <ele>171</ele>
        <time>2018-09-15T10:24:19Z</time>
      </trkpt>
      <trkpt lat="45.94297" lon="4.72308">
        <ele>171</ele>
        <time>2018-09-15T10:24:20Z</time>
      </trkpt>
      <trkpt lat="45.94294" lon="4.72303">
        <ele>171</ele>
        <time>2018-09-15T10:24:21Z</time>
      </trkpt>
      <trkpt lat="45.94291" lon="4.72296">
        <ele>171</ele>
        <time>2018-09-15T10:24:22Z</time>
      </trkpt>
      <trkpt lat="45.94289" lon="4.72291">
        <ele>171</ele>
        <time>2018-09-15T10:24:23Z</time>
      </trkpt>
      <trkpt lat="45.94285" lon="4.72284">
        <ele>171</ele>
        <time>2018-09-15T10:24:24Z</time>
      </trkpt>
      <trkpt lat="45.94282" lon="4.72277">
        <ele>171</ele>
        <time>2018-09-15T10:24:25Z</time>
      </trkpt>
      <trkpt lat="45.94279" lon="4.72272">
        <ele>171</ele>
        <time>2018-09-15T10:24:26Z</time>
      </trkpt>
      <trkpt lat="45.94273" lon="4.72268">
        <ele>171</ele>
        <time>2018-09-15T10:24:28Z</time>
      </trkpt>
      <trkpt lat="45.94266" lon="4.7227">
        <ele>171</ele>
        <time>2018-09-15T10:24:29Z</time>
      </trkpt>
      <trkpt lat="45.94259" lon="4.72273">
        <ele>171</ele>
        <time>2018-09-15T10:24:30Z</time>
      </trkpt>
      <trkpt lat="45.94254" lon="4.72277">
        <ele>171</ele>
        <time>2018-09-15T10:24:31Z</time>
      </trkpt>
      <trkpt lat="45.94247" lon="4.72279">
        <ele>171</ele>
        <time>2018-09-15T10:24:32Z</time>
      </trkpt>
      <trkpt lat="45.94242" lon="4.72281">
        <ele>171</ele>
        <time>2018-09-15T10:24:33Z</time>
      </trkpt>
      <trkpt lat="45.94237" lon="4.72283">
        <ele>171</ele>
        <time>2018-09-15T10:24:34Z</time>
      </trkpt>
      <trkpt lat="45.94231" lon="4.72285">
        <ele>171</ele>
        <time>2018-09-15T10:24:35Z</time>
      </trkpt>
      <trkpt lat="45.94225" lon="4.72287">
        <ele>171</ele>
        <time>2018-09-15T10:24:36Z</time>
      </trkpt>
      <trkpt lat="45.94219" lon="4.72289">
        <ele>171</ele>
        <time>2018-09-15T10:24:37Z</time>
      </trkpt>
      <trkpt lat="45.94213" lon="4.7229">
        <ele>171</ele>
        <time>2018-09-15T10:24:38Z</time>
      </trkpt>
      <trkpt lat="45.94208" lon="4.72291">
        <ele>171</ele>
        <time>2018-09-15T10:24:39Z</time>
      </trkpt>
      <trkpt lat="45.94203" lon="4.72291">
        <ele>171</ele>
        <time>2018-09-15T10:24:40Z</time>
      </trkpt>
      <trkpt lat="45.94198" lon="4.72291">
        <ele>171</ele>
        <time>2018-09-15T10:24:41Z</time>
      </trkpt>
      <trkpt lat="45.94193" lon="4.72291">
        <ele>171</ele>
        <time>2018-09-15T10:24:42Z</time>
      </trkpt>
      <trkpt lat="45.94187" lon="4.72291">
        <ele>171</ele>
        <time>2018-09-15T10:24:43Z</time>
      </trkpt>
      <trkpt lat="45.94178" lon="4.7229">
        <ele>171</ele>
        <time>2018-09-15T10:24:45Z</time>
      </trkpt>
      <trkpt lat="45.94173" lon="4.72289">
        <ele>171</ele>
        <time>2018-09-15T10:24:46Z</time>
      </trkpt>
      <trkpt lat="45.94168" lon="4.72289">
        <ele>171</ele>
        <time>2018-09-15T10:24:47Z</time>
      </trkpt>
      <trkpt lat="45.94163" lon="4.72288">
        <ele>171</ele>
        <time>2018-09-15T10:24:48Z</time>
      </trkpt>
      <trkpt lat="45.94155" lon="4.72285">
        <ele>171</ele>
        <time>2018-09-15T10:24:50Z</time>
      </trkpt>
      <trkpt lat="45.94151" lon="4.72283">
        <ele>171</ele>
        <time>2018-09-15T10:24:51Z</time>
      </trkpt>
      <trkpt lat="45.94147" lon="4.72283">
        <ele>171</ele>
        <time>2018-09-15T10:24:52Z</time>
      </trkpt>
      <trkpt lat="45.9414" lon="4.72281">
        <ele>171</ele>
        <time>2018-09-15T10:24:53Z</time>
      </trkpt>
      <trkpt lat="45.94134" lon="4.7228">
        <ele>171</ele>
        <time>2018-09-15T10:24:54Z</time>
      </trkpt>
      <trkpt lat="45.94127" lon="4.72277">
        <ele>171</ele>
        <time>2018-09-15T10:24:55Z</time>
      </trkpt>
      <trkpt lat="45.94122" lon="4.72274">
        <ele>171</ele>
        <time>2018-09-15T10:24:56Z</time>
      </trkpt>
      <trkpt lat="45.94117" lon="4.72271">
        <ele>171</ele>
        <time>2018-09-15T10:24:57Z</time>
      </trkpt>
      <trkpt lat="45.94111" lon="4.7227">
        <ele>171</ele>
        <time>2018-09-15T10:24:58Z</time>
      </trkpt>
      <trkpt lat="45.94106" lon="4.72269">
        <ele>171</ele>
        <time>2018-09-15T10:24:59Z</time>
      </trkpt>
      <trkpt lat="45.94101" lon="4.72269">
        <ele>171</ele>
        <time>2018-09-15T10:25:00Z</time>
      </trkpt>
      <trkpt lat="45.94096" lon="4.72268">
        <ele>171</ele>
        <time>2018-09-15T10:25:01Z</time>
      </trkpt>
      <trkpt lat="45.9409" lon="4.72271">
        <ele>171</ele>
        <time>2018-09-15T10:25:02Z</time>
      </trkpt>
      <trkpt lat="45.94084" lon="4.72273">
        <ele>171</ele>
        <time>2018-09-15T10:25:03Z</time>
      </trkpt>
      <trkpt lat="45.94079" lon="4.72275">
        <ele>171</ele>
        <time>2018-09-15T10:25:04Z</time>
      </trkpt>
      <trkpt lat="45.94075" lon="4.72277">
        <ele>171</ele>
        <time>2018-09-15T10:25:05Z</time>
      </trkpt>
      <trkpt lat="45.94067" lon="4.72284">
        <ele>171</ele>
        <time>2018-09-15T10:25:07Z</time>
      </trkpt>
      <trkpt lat="45.94063" lon="4.72288">
        <ele>171</ele>
        <time>2018-09-15T10:25:08Z</time>
      </trkpt>
      <trkpt lat="45.94061" lon="4.72293">
        <ele>171</ele>
        <time>2018-09-15T10:25:09Z</time>
      </trkpt>
      <trkpt lat="45.94056" lon="4.723">
        <ele>171</ele>
        <time>2018-09-15T10:25:10Z</time>
      </trkpt>
      <trkpt lat="45.94052" lon="4.72305">
        <ele>171</ele>
        <time>2018-09-15T10:25:11Z</time>
      </trkpt>
      <trkpt lat="45.94047" lon="4.72311">
        <ele>171</ele>
        <time>2018-09-15T10:25:12Z</time>
      </trkpt>
      <trkpt lat="45.94044" lon="4.72318">
        <ele>171</ele>
        <time>2018-09-15T10:25:13Z</time>
      </trkpt>
      <trkpt lat="45.94039" lon="4.72324">
        <ele>171</ele>
        <time>2018-09-15T10:25:14Z</time>
      </trkpt>
      <trkpt lat="45.94034" lon="4.7233">
        <ele>171</ele>
        <time>2018-09-15T10:25:15Z</time>
      </trkpt>
      <trkpt lat="45.94029" lon="4.72336">
        <ele>171</ele>
        <time>2018-09-15T10:25:16Z</time>
      </trkpt>
      <trkpt lat="45.94026" lon="4.72344">
        <ele>171</ele>
        <time>2018-09-15T10:25:17Z</time>
      </trkpt>
      <trkpt lat="45.94021" lon="4.7235">
        <ele>171</ele>
        <time>2018-09-15T10:25:18Z</time>
      </trkpt>
      <trkpt lat="45.94017" lon="4.72355">
        <ele>171</ele>
        <time>2018-09-15T10:25:19Z</time>
      </trkpt>
      <trkpt lat="45.94013" lon="4.72361">
        <ele>171</ele>
        <time>2018-09-15T10:25:20Z</time>
      </trkpt>
      <trkpt lat="45.94008" lon="4.72367">
        <ele>171</ele>
        <time>2018-09-15T10:25:21Z</time>
      </trkpt>
      <trkpt lat="45.94003" lon="4.72374">
        <ele>171</ele>
        <time>2018-09-15T10:25:22Z</time>
      </trkpt>
      <trkpt lat="45.93998" lon="4.72379">
        <ele>171</ele>
        <time>2018-09-15T10:25:23Z</time>
      </trkpt>
      <trkpt lat="45.93994" lon="4.72386">
        <ele>171</ele>
        <time>2018-09-15T10:25:24Z</time>
      </trkpt>
      <trkpt lat="45.93992" lon="4.72396">
        <ele>171</ele>
        <time>2018-09-15T10:25:25Z</time>
      </trkpt>
      <trkpt lat="45.93989" lon="4.72402">
        <ele>171</ele>
        <time>2018-09-15T10:25:26Z</time>
      </trkpt>
      <trkpt lat="45.93984" lon="4.72406">
        <ele>171</ele>
        <time>2018-09-15T10:25:27Z</time>
      </trkpt>
      <trkpt lat="45.93979" lon="4.7241">
        <ele>171</ele>
        <time>2018-09-15T10:25:28Z</time>
      </trkpt>
      <trkpt lat="45.93975" lon="4.72415">
        <ele>171</ele>
        <time>2018-09-15T10:25:29Z</time>
      </trkpt>
      <trkpt lat="45.9397" lon="4.72421">
        <ele>171</ele>
        <time>2018-09-15T10:25:30Z</time>
      </trkpt>
      <trkpt lat="45.93965" lon="4.72425">
        <ele>171</ele>
        <time>2018-09-15T10:25:31Z</time>
      </trkpt>
      <trkpt lat="45.9396" lon="4.7243">
        <ele>171</ele>
        <time>2018-09-15T10:25:32Z</time>
      </trkpt>
      <trkpt lat="45.93955" lon="4.72435">
        <ele>171</ele>
        <time>2018-09-15T10:25:33Z</time>
      </trkpt>
      <trkpt lat="45.9395" lon="4.72439">
        <ele>171</ele>
        <time>2018-09-15T10:25:34Z</time>
      </trkpt>
      <trkpt lat="45.93949" lon="4.72447">
        <ele>171</ele>
        <time>2018-09-15T10:25:35Z</time>
      </trkpt>
      <trkpt lat="45.93943" lon="4.72452">
        <ele>171</ele>
        <time>2018-09-15T10:25:36Z</time>
      </trkpt>
      <trkpt lat="45.93938" lon="4.72456">
        <ele>171</ele>
        <time>2018-09-15T10:25:37Z</time>
      </trkpt>
      <trkpt lat="45.93933" lon="4.72462">
        <ele>171</ele>
        <time>2018-09-15T10:25:38Z</time>
      </trkpt>
      <trkpt lat="45.93929" lon="4.72466">
        <ele>171</ele>
        <time>2018-09-15T10:25:39Z</time>
      </trkpt>
      <trkpt lat="45.93924" lon="4.72471">
        <ele>171</ele>
        <time>2018-09-15T10:25:40Z</time>
      </trkpt>
      <trkpt lat="45.93921" lon="4.72475">
        <ele>171</ele>
        <time>2018-09-15T10:25:41Z</time>
      </trkpt>
      <trkpt lat="45.93918" lon="4.7248">
        <ele>171</ele>
        <time>2018-09-15T10:25:42Z</time>
      </trkpt>
      <trkpt lat="45.93912" lon="4.7249">
        <ele>171</ele>
        <time>2018-09-15T10:25:44Z</time>
      </trkpt>
      <trkpt lat="45.93908" lon="4.72495">
        <ele>171</ele>
        <time>2018-09-15T10:25:45Z</time>
      </trkpt>
      <trkpt lat="45.93904" lon="4.72499">
        <ele>172</ele>
        <time>2018-09-15T10:25:46Z</time>
      </trkpt>
      <trkpt lat="45.939" lon="4.72502">
        <ele>172</ele>
        <time>2018-09-15T10:25:47Z</time>
      </trkpt>
      <trkpt lat="45.93893" lon="4.7251">
        <ele>173</ele>
        <time>2018-09-15T10:25:49Z</time>
      </trkpt>
      <trkpt lat="45.93888" lon="4.72515">
        <ele>173</ele>
        <time>2018-09-15T10:25:50Z</time>
      </trkpt>
      <trkpt lat="45.93885" lon="4.72518">
        <ele>173</ele>
        <time>2018-09-15T10:25:51Z</time>
      </trkpt>
      <trkpt lat="45.9388" lon="4.7252">
        <ele>173</ele>
        <time>2018-09-15T10:25:52Z</time>
      </trkpt>
      <trkpt lat="45.93875" lon="4.7252">
        <ele>173</ele>
        <time>2018-09-15T10:25:54Z</time>
      </trkpt>
      <trkpt lat="45.93869" lon="4.72517">
        <ele>173</ele>
        <time>2018-09-15T10:25:55Z</time>
      </trkpt>
      <trkpt lat="45.93862" lon="4.7251">
        <ele>173</ele>
        <time>2018-09-15T10:25:57Z</time>
      </trkpt>
      <trkpt lat="45.93859" lon="4.72506">
        <ele>173</ele>
        <time>2018-09-15T10:25:58Z</time>
      </trkpt>
      <trkpt lat="45.9382" lon="4.72466">
        <ele>172</ele>
        <time>2018-09-15T10:26:07Z</time>
      </trkpt>
      <trkpt lat="45.93814" lon="4.72458">
        <ele>172</ele>
        <time>2018-09-15T10:26:10Z</time>
      </trkpt>
      <trkpt lat="45.93811" lon="4.72452">
        <ele>172</ele>
        <time>2018-09-15T10:26:11Z</time>
      </trkpt>
      <trkpt lat="45.93806" lon="4.72445">
        <ele>172</ele>
        <time>2018-09-15T10:26:12Z</time>
      </trkpt>
      <trkpt lat="45.938" lon="4.7244">
        <ele>172</ele>
        <time>2018-09-15T10:26:13Z</time>
      </trkpt>
      <trkpt lat="45.93796" lon="4.72433">
        <ele>172</ele>
        <time>2018-09-15T10:26:14Z</time>
      </trkpt>
      <trkpt lat="45.9379" lon="4.72428">
        <ele>172</ele>
        <time>2018-09-15T10:26:15Z</time>
      </trkpt>
      <trkpt lat="45.93785" lon="4.72423">
        <ele>172</ele>
        <time>2018-09-15T10:26:17Z</time>
      </trkpt>
      <trkpt lat="45.9378" lon="4.7242">
        <ele>172</ele>
        <time>2018-09-15T10:26:18Z</time>
      </trkpt>
      <trkpt lat="45.93776" lon="4.72417">
        <ele>171</ele>
        <time>2018-09-15T10:26:19Z</time>
      </trkpt>
      <trkpt lat="45.93772" lon="4.72412">
        <ele>171</ele>
        <time>2018-09-15T10:26:20Z</time>
      </trkpt>
      <trkpt lat="45.93765" lon="4.72406">
        <ele>171</ele>
        <time>2018-09-15T10:26:22Z</time>
      </trkpt>
      <trkpt lat="45.93761" lon="4.72405">
        <ele>171</ele>
        <time>2018-09-15T10:26:23Z</time>
      </trkpt>
      <trkpt lat="45.93753" lon="4.72398">
        <ele>171</ele>
        <time>2018-09-15T10:26:26Z</time>
      </trkpt>
      <trkpt lat="45.93749" lon="4.72397">
        <ele>171</ele>
        <time>2018-09-15T10:26:27Z</time>
      </trkpt>
      <trkpt lat="45.93742" lon="4.72391">
        <ele>171</ele>
        <time>2018-09-15T10:26:28Z</time>
      </trkpt>
      <trkpt lat="45.93738" lon="4.72389">
        <ele>171</ele>
        <time>2018-09-15T10:26:29Z</time>
      </trkpt>
      <trkpt lat="45.9373" lon="4.72383">
        <ele>171</ele>
        <time>2018-09-15T10:26:31Z</time>
      </trkpt>
      <trkpt lat="45.93728" lon="4.72378">
        <ele>171</ele>
        <time>2018-09-15T10:26:32Z</time>
      </trkpt>
      <trkpt lat="45.93724" lon="4.72374">
        <ele>172</ele>
        <time>2018-09-15T10:26:33Z</time>
      </trkpt>
      <trkpt lat="45.93719" lon="4.72368">
        <ele>172</ele>
        <time>2018-09-15T10:26:34Z</time>
      </trkpt>
      <trkpt lat="45.93714" lon="4.72364">
        <ele>172</ele>
        <time>2018-09-15T10:26:35Z</time>
      </trkpt>
      <trkpt lat="45.93709" lon="4.72358">
        <ele>172</ele>
        <time>2018-09-15T10:26:36Z</time>
      </trkpt>
      <trkpt lat="45.93704" lon="4.72353">
        <ele>171</ele>
        <time>2018-09-15T10:26:37Z</time>
      </trkpt>
      <trkpt lat="45.937" lon="4.72349">
        <ele>171</ele>
        <time>2018-09-15T10:26:38Z</time>
      </trkpt>
      <trkpt lat="45.93695" lon="4.72344">
        <ele>171</ele>
        <time>2018-09-15T10:26:39Z</time>
      </trkpt>
      <trkpt lat="45.93688" lon="4.7234">
        <ele>171</ele>
        <time>2018-09-15T10:26:40Z</time>
      </trkpt>
      <trkpt lat="45.93681" lon="4.72332">
        <ele>171</ele>
        <time>2018-09-15T10:26:43Z</time>
      </trkpt>
      <trkpt lat="45.93674" lon="4.72324">
        <ele>171</ele>
        <time>2018-09-15T10:26:44Z</time>
      </trkpt>
      <trkpt lat="45.93671" lon="4.7232">
        <ele>171</ele>
        <time>2018-09-15T10:26:45Z</time>
      </trkpt>
      <trkpt lat="45.93662" lon="4.72315">
        <ele>172</ele>
        <time>2018-09-15T10:26:46Z</time>
      </trkpt>
      <trkpt lat="45.93657" lon="4.72311">
        <ele>172</ele>
        <time>2018-09-15T10:26:47Z</time>
      </trkpt>
      <trkpt lat="45.93652" lon="4.72306">
        <ele>172</ele>
        <time>2018-09-15T10:26:48Z</time>
      </trkpt>
      <trkpt lat="45.93647" lon="4.72302">
        <ele>172</ele>
        <time>2018-09-15T10:26:49Z</time>
      </trkpt>
      <trkpt lat="45.93644" lon="4.72299">
        <ele>172</ele>
        <time>2018-09-15T10:26:50Z</time>
      </trkpt>
      <trkpt lat="45.9364" lon="4.72295">
        <ele>172</ele>
        <time>2018-09-15T10:26:51Z</time>
      </trkpt>
      <trkpt lat="45.93633" lon="4.72292">
        <ele>172</ele>
        <time>2018-09-15T10:26:52Z</time>
      </trkpt>
      <trkpt lat="45.93627" lon="4.72286">
        <ele>172</ele>
        <time>2018-09-15T10:26:54Z</time>
      </trkpt>
      <trkpt lat="45.93627" lon="4.72281">
        <ele>172</ele>
        <time>2018-09-15T10:26:55Z</time>
      </trkpt>
      <trkpt lat="45.93623" lon="4.72277">
        <ele>172</ele>
        <time>2018-09-15T10:26:56Z</time>
      </trkpt>
      <trkpt lat="45.93618" lon="4.72271">
        <ele>172</ele>
        <time>2018-09-15T10:26:57Z</time>
      </trkpt>
      <trkpt lat="45.93614" lon="4.72267">
        <ele>172</ele>
        <time>2018-09-15T10:26:58Z</time>
      </trkpt>
      <trkpt lat="45.9361" lon="4.72262">
        <ele>172</ele>
        <time>2018-09-15T10:26:59Z</time>
      </trkpt>
      <trkpt lat="45.93608" lon="4.72258">
        <ele>173</ele>
        <time>2018-09-15T10:27:00Z</time>
      </trkpt>
      <trkpt lat="45.93605" lon="4.72251">
        <ele>173</ele>
        <time>2018-09-15T10:27:01Z</time>
      </trkpt>
      <trkpt lat="45.93599" lon="4.7225">
        <ele>173</ele>
        <time>2018-09-15T10:27:02Z</time>
      </trkpt>
      <trkpt lat="45.93593" lon="4.72244">
        <ele>173</ele>
        <time>2018-09-15T10:27:03Z</time>
      </trkpt>
      <trkpt lat="45.93588" lon="4.72238">
        <ele>173</ele>
        <time>2018-09-15T10:27:04Z</time>
      </trkpt>
      <trkpt lat="45.93583" lon="4.72235">
        <ele>173</ele>
        <time>2018-09-15T10:27:05Z</time>
      </trkpt>
      <trkpt lat="45.93577" lon="4.72234">
        <ele>173</ele>
        <time>2018-09-15T10:27:06Z</time>
      </trkpt>
      <trkpt lat="45.93573" lon="4.7223">
        <ele>173</ele>
        <time>2018-09-15T10:27:07Z</time>
      </trkpt>
      <trkpt lat="45.93567" lon="4.72223">
        <ele>173</ele>
        <time>2018-09-15T10:27:10Z</time>
      </trkpt>
      <trkpt lat="45.93566" lon="4.72221">
        <ele>173</ele>
        <time>2018-09-15T10:27:11Z</time>
      </trkpt>
      <trkpt lat="45.93561" lon="4.72218">
        <ele>173</ele>
        <time>2018-09-15T10:27:38Z</time>
      </trkpt>
      <trkpt lat="45.93555" lon="4.72222">
        <ele>173</ele>
        <time>2018-09-15T10:27:39Z</time>
      </trkpt>
      <trkpt lat="45.93551" lon="4.72232">
        <ele>172</ele>
        <time>2018-09-15T10:27:44Z</time>
      </trkpt>
      <trkpt lat="45.93549" lon="4.72235">
        <ele>172</ele>
        <time>2018-09-15T10:27:45Z</time>
      </trkpt>
      <trkpt lat="45.93545" lon="4.72245">
        <ele>172</ele>
        <time>2018-09-15T10:27:49Z</time>
      </trkpt>
      <trkpt lat="45.93545" lon="4.72247">
        <ele>172</ele>
        <time>2018-09-15T10:27:50Z</time>
      </trkpt>
      <trkpt lat="45.93541" lon="4.72255">
        <ele>172</ele>
        <time>2018-09-15T10:27:53Z</time>
      </trkpt>
      <trkpt lat="45.9354" lon="4.72258">
        <ele>172</ele>
        <time>2018-09-15T10:27:54Z</time>
      </trkpt>
      <trkpt lat="45.93536" lon="4.72265">
        <ele>172</ele>
        <time>2018-09-15T10:27:56Z</time>
      </trkpt>
      <trkpt lat="45.93535" lon="4.72269">
        <ele>172</ele>
        <time>2018-09-15T10:27:57Z</time>
      </trkpt>
      <trkpt lat="45.9353" lon="4.72282">
        <ele>172</ele>
        <time>2018-09-15T10:27:58Z</time>
      </trkpt>
      <trkpt lat="45.93528" lon="4.72288">
        <ele>172</ele>
        <time>2018-09-15T10:27:59Z</time>
      </trkpt>
      <trkpt lat="45.93525" lon="4.72295">
        <ele>172</ele>
        <time>2018-09-15T10:28:00Z</time>
      </trkpt>
      <trkpt lat="45.93522" lon="4.72301">
        <ele>172</ele>
        <time>2018-09-15T10:28:01Z</time>
      </trkpt>
      <trkpt lat="45.93518" lon="4.72305">
        <ele>173</ele>
        <time>2018-09-15T10:28:02Z</time>
      </trkpt>
      <trkpt lat="45.93516" lon="4.72312">
        <ele>173</ele>
        <time>2018-09-15T10:28:03Z</time>
      </trkpt>
      <trkpt lat="45.93512" lon="4.72316">
        <ele>173</ele>
        <time>2018-09-15T10:28:04Z</time>
      </trkpt>
      <trkpt lat="45.9351" lon="4.72322">
        <ele>173</ele>
        <time>2018-09-15T10:28:05Z</time>
      </trkpt>
      <trkpt lat="45.93505" lon="4.72329">
        <ele>173</ele>
        <time>2018-09-15T10:28:06Z</time>
      </trkpt>
      <trkpt lat="45.935" lon="4.72334">
        <ele>173</ele>
        <time>2018-09-15T10:28:07Z</time>
      </trkpt>
      <trkpt lat="45.93496" lon="4.7234">
        <ele>173</ele>
        <time>2018-09-15T10:28:08Z</time>
      </trkpt>
      <trkpt lat="45.93492" lon="4.72345">
        <ele>173</ele>
        <time>2018-09-15T10:28:09Z</time>
      </trkpt>
      <trkpt lat="45.93488" lon="4.7235">
        <ele>173</ele>
        <time>2018-09-15T10:28:10Z</time>
      </trkpt>
      <trkpt lat="45.93484" lon="4.72354">
        <ele>173</ele>
        <time>2018-09-15T10:28:11Z</time>
      </trkpt>
      <trkpt lat="45.93479" lon="4.7236">
        <ele>173</ele>
        <time>2018-09-15T10:28:12Z</time>
      </trkpt>
      <trkpt lat="45.93476" lon="4.72365">
        <ele>173</ele>
        <time>2018-09-15T10:28:13Z</time>
      </trkpt>
      <trkpt lat="45.93472" lon="4.72372">
        <ele>173</ele>
        <time>2018-09-15T10:28:14Z</time>
      </trkpt>
      <trkpt lat="45.93466" lon="4.72379">
        <ele>173</ele>
        <time>2018-09-15T10:28:15Z</time>
      </trkpt>
      <trkpt lat="45.9346" lon="4.72383">
        <ele>173</ele>
        <time>2018-09-15T10:28:16Z</time>
      </trkpt>
      <trkpt lat="45.93456" lon="4.72388">
        <ele>173</ele>
        <time>2018-09-15T10:28:17Z</time>
      </trkpt>
      <trkpt lat="45.93449" lon="4.72394">
        <ele>173</ele>
        <time>2018-09-15T10:28:18Z</time>
      </trkpt>
      <trkpt lat="45.93441" lon="4.72398">
        <ele>173</ele>
        <time>2018-09-15T10:28:19Z</time>
      </trkpt>
      <trkpt lat="45.93436" lon="4.72401">
        <ele>173</ele>
        <time>2018-09-15T10:28:20Z</time>
      </trkpt>
      <trkpt lat="45.93432" lon="4.724">
        <ele>174</ele>
        <time>2018-09-15T10:28:21Z</time>
      </trkpt>
      <trkpt lat="45.93426" lon="4.72401">
        <ele>174</ele>
        <time>2018-09-15T10:28:22Z</time>
      </trkpt>
      <trkpt lat="45.93422" lon="4.72401">
        <ele>174</ele>
        <time>2018-09-15T10:28:23Z</time>
      </trkpt>
      <trkpt lat="45.93415" lon="4.72405">
        <ele>174</ele>
        <time>2018-09-15T10:28:24Z</time>
      </trkpt>
      <trkpt lat="45.93408" lon="4.72407">
        <ele>174</ele>
        <time>2018-09-15T10:28:25Z</time>
      </trkpt>
      <trkpt lat="45.93402" lon="4.72406">
        <ele>174</ele>
        <time>2018-09-15T10:28:26Z</time>
      </trkpt>
      <trkpt lat="45.93397" lon="4.72407">
        <ele>174</ele>
        <time>2018-09-15T10:28:27Z</time>
      </trkpt>
      <trkpt lat="45.93391" lon="4.72407">
        <ele>174</ele>
        <time>2018-09-15T10:28:28Z</time>
      </trkpt>
      <trkpt lat="45.93386" lon="4.7241">
        <ele>174</ele>
        <time>2018-09-15T10:28:29Z</time>
      </trkpt>
      <trkpt lat="45.93382" lon="4.72416">
        <ele>174</ele>
        <time>2018-09-15T10:28:30Z</time>
      </trkpt>
      <trkpt lat="45.93383" lon="4.72423">
        <ele>173</ele>
        <time>2018-09-15T10:28:31Z</time>
      </trkpt>
      <trkpt lat="45.93384" lon="4.72431">
        <ele>173</ele>
        <time>2018-09-15T10:28:32Z</time>
      </trkpt>
      <trkpt lat="45.93386" lon="4.72436">
        <ele>173</ele>
        <time>2018-09-15T10:28:33Z</time>
      </trkpt>
      <trkpt lat="45.93389" lon="4.72444">
        <ele>173</ele>
        <time>2018-09-15T10:28:34Z</time>
      </trkpt>
      <trkpt lat="45.93391" lon="4.7245">
        <ele>173</ele>
        <time>2018-09-15T10:28:35Z</time>
      </trkpt>
      <trkpt lat="45.9339" lon="4.72457">
        <ele>173</ele>
        <time>2018-09-15T10:28:36Z</time>
      </trkpt>
      <trkpt lat="45.93389" lon="4.72465">
        <ele>173</ele>
        <time>2018-09-15T10:28:37Z</time>
      </trkpt>
      <trkpt lat="45.93386" lon="4.72471">
        <ele>173</ele>
        <time>2018-09-15T10:28:38Z</time>
      </trkpt>
      <trkpt lat="45.93381" lon="4.72476">
        <ele>173</ele>
        <time>2018-09-15T10:28:39Z</time>
      </trkpt>
      <trkpt lat="45.93377" lon="4.72479">
        <ele>173</ele>
        <time>2018-09-15T10:28:40Z</time>
      </trkpt>
      <trkpt lat="45.93373" lon="4.72485">
        <ele>173</ele>
        <time>2018-09-15T10:28:41Z</time>
      </trkpt>
      <trkpt lat="45.93369" lon="4.72491">
        <ele>173</ele>
        <time>2018-09-15T10:28:42Z</time>
      </trkpt>
      <trkpt lat="45.93364" lon="4.72495">
        <ele>173</ele>
        <time>2018-09-15T10:28:43Z</time>
      </trkpt>
      <trkpt lat="45.93359" lon="4.725">
        <ele>172</ele>
        <time>2018-09-15T10:28:44Z</time>
      </trkpt>
      <trkpt lat="45.93353" lon="4.72505">
        <ele>172</ele>
        <time>2018-09-15T10:28:45Z</time>
      </trkpt>
      <trkpt lat="45.93348" lon="4.7251">
        <ele>172</ele>
        <time>2018-09-15T10:28:46Z</time>
      </trkpt>
      <trkpt lat="45.93342" lon="4.72519">
        <ele>172</ele>
        <time>2018-09-15T10:28:48Z</time>
      </trkpt>
      <trkpt lat="45.93337" lon="4.72521">
        <ele>172</ele>
        <time>2018-09-15T10:28:49Z</time>
      </trkpt>
      <trkpt lat="45.93332" lon="4.7253">
        <ele>172</ele>
        <time>2018-09-15T10:28:50Z</time>
      </trkpt>
      <trkpt lat="45.93328" lon="4.72534">
        <ele>172</ele>
        <time>2018-09-15T10:28:51Z</time>
      </trkpt>
      <trkpt lat="45.93322" lon="4.72541">
        <ele>172</ele>
        <time>2018-09-15T10:28:53Z</time>
      </trkpt>
      <trkpt lat="45.93318" lon="4.72545">
        <ele>172</ele>
        <time>2018-09-15T10:28:54Z</time>
      </trkpt>
      <trkpt lat="45.93315" lon="4.72548">
        <ele>172</ele>
        <time>2018-09-15T10:28:55Z</time>
      </trkpt>
      <trkpt lat="45.9331" lon="4.72552">
        <ele>172</ele>
        <time>2018-09-15T10:28:56Z</time>
      </trkpt>
      <trkpt lat="45.93307" lon="4.7256">
        <ele>172</ele>
        <time>2018-09-15T10:28:57Z</time>
      </trkpt>
      <trkpt lat="45.93301" lon="4.72567">
        <ele>171</ele>
        <time>2018-09-15T10:28:58Z</time>
      </trkpt>
      <trkpt lat="45.93295" lon="4.72574">
        <ele>171</ele>
        <time>2018-09-15T10:28:59Z</time>
      </trkpt>
      <trkpt lat="45.93292" lon="4.72579">
        <ele>171</ele>
        <time>2018-09-15T10:29:00Z</time>
      </trkpt>
      <trkpt lat="45.93289" lon="4.72582">
        <ele>171</ele>
        <time>2018-09-15T10:29:01Z</time>
      </trkpt>
      <trkpt lat="45.93283" lon="4.72589">
        <ele>170</ele>
        <time>2018-09-15T10:29:02Z</time>
      </trkpt>
      <trkpt lat="45.93278" lon="4.72596">
        <ele>170</ele>
        <time>2018-09-15T10:29:03Z</time>
      </trkpt>
      <trkpt lat="45.93274" lon="4.726">
        <ele>170</ele>
        <time>2018-09-15T10:29:04Z</time>
      </trkpt>
      <trkpt lat="45.93267" lon="4.72606">
        <ele>170</ele>
        <time>2018-09-15T10:29:05Z</time>
      </trkpt>
      <trkpt lat="45.93259" lon="4.72611">
        <ele>170</ele>
        <time>2018-09-15T10:29:06Z</time>
      </trkpt>
      <trkpt lat="45.93253" lon="4.72617">
        <ele>170</ele>
        <time>2018-09-15T10:29:07Z</time>
      </trkpt>
      <trkpt lat="45.93249" lon="4.72622">
        <ele>170</ele>
        <time>2018-09-15T10:29:08Z</time>
      </trkpt>
      <trkpt lat="45.93248" lon="4.72628">
        <ele>170</ele>
        <time>2018-09-15T10:29:09Z</time>
      </trkpt>
      <trkpt lat="45.93243" lon="4.72635">
        <ele>170</ele>
        <time>2018-09-15T10:29:10Z</time>
      </trkpt>
      <trkpt lat="45.93238" lon="4.7264">
        <ele>170</ele>
        <time>2018-09-15T10:29:11Z</time>
      </trkpt>
      <trkpt lat="45.93235" lon="4.72645">
        <ele>170</ele>
        <time>2018-09-15T10:29:12Z</time>
      </trkpt>
      <trkpt lat="45.9323" lon="4.72649">
        <ele>170</ele>
        <time>2018-09-15T10:29:13Z</time>
      </trkpt>
      <trkpt lat="45.93226" lon="4.72653">
        <ele>170</ele>
        <time>2018-09-15T10:29:14Z</time>
      </trkpt>
      <trkpt lat="45.93221" lon="4.72658">
        <ele>170</ele>
        <time>2018-09-15T10:29:15Z</time>
      </trkpt>
      <trkpt lat="45.93219" lon="4.72665">
        <ele>170</ele>
        <time>2018-09-15T10:29:16Z</time>
      </trkpt>
      <trkpt lat="45.93216" lon="4.72668">
        <ele>169</ele>
        <time>2018-09-15T10:29:17Z</time>
      </trkpt>
      <trkpt lat="45.9321" lon="4.72673">
        <ele>169</ele>
        <time>2018-09-15T10:29:18Z</time>
      </trkpt>
      <trkpt lat="45.93205" lon="4.7268">
        <ele>169</ele>
        <time>2018-09-15T10:29:19Z</time>
      </trkpt>
      <trkpt lat="45.93202" lon="4.72685">
        <ele>169</ele>
        <time>2018-09-15T10:29:20Z</time>
      </trkpt>
      <trkpt lat="45.93196" lon="4.7269">
        <ele>169</ele>
        <time>2018-09-15T10:29:21Z</time>
      </trkpt>
      <trkpt lat="45.93192" lon="4.72696">
        <ele>169</ele>
        <time>2018-09-15T10:29:22Z</time>
      </trkpt>
      <trkpt lat="45.93188" lon="4.72703">
        <ele>169</ele>
        <time>2018-09-15T10:29:23Z</time>
      </trkpt>
      <trkpt lat="45.93184" lon="4.7271">
        <ele>169</ele>
        <time>2018-09-15T10:29:24Z</time>
      </trkpt>
      <trkpt lat="45.9318" lon="4.72716">
        <ele>169</ele>
        <time>2018-09-15T10:29:25Z</time>
      </trkpt>
      <trkpt lat="45.93176" lon="4.72721">
        <ele>170</ele>
        <time>2018-09-15T10:29:26Z</time>
      </trkpt>
      <trkpt lat="45.93172" lon="4.72726">
        <ele>170</ele>
        <time>2018-09-15T10:29:27Z</time>
      </trkpt>
      <trkpt lat="45.93168" lon="4.72731">
        <ele>170</ele>
        <time>2018-09-15T10:29:28Z</time>
      </trkpt>
      <trkpt lat="45.93162" lon="4.72735">
        <ele>170</ele>
        <time>2018-09-15T10:29:29Z</time>
      </trkpt>
      <trkpt lat="45.93158" lon="4.7274">
        <ele>170</ele>
        <time>2018-09-15T10:29:30Z</time>
      </trkpt>
      <trkpt lat="45.93153" lon="4.72745">
        <ele>170</ele>
        <time>2018-09-15T10:29:31Z</time>
      </trkpt>
      <trkpt lat="45.93147" lon="4.7275">
        <ele>170</ele>
        <time>2018-09-15T10:29:32Z</time>
      </trkpt>
      <trkpt lat="45.93142" lon="4.72757">
        <ele>171</ele>
        <time>2018-09-15T10:29:33Z</time>
      </trkpt>
      <trkpt lat="45.93137" lon="4.72763">
        <ele>171</ele>
        <time>2018-09-15T10:29:34Z</time>
      </trkpt>
      <trkpt lat="45.93131" lon="4.72768">
        <ele>171</ele>
        <time>2018-09-15T10:29:35Z</time>
      </trkpt>
      <trkpt lat="45.93126" lon="4.72774">
        <ele>171</ele>
        <time>2018-09-15T10:29:36Z</time>
      </trkpt>
      <trkpt lat="45.93122" lon="4.72782">
        <ele>171</ele>
        <time>2018-09-15T10:29:37Z</time>
      </trkpt>
      <trkpt lat="45.93117" lon="4.7279">
        <ele>171</ele>
        <time>2018-09-15T10:29:38Z</time>
      </trkpt>
      <trkpt lat="45.93112" lon="4.72798">
        <ele>171</ele>
        <time>2018-09-15T10:29:39Z</time>
      </trkpt>
      <trkpt lat="45.93106" lon="4.72804">
        <ele>171</ele>
        <time>2018-09-15T10:29:40Z</time>
      </trkpt>
      <trkpt lat="45.93101" lon="4.72811">
        <ele>172</ele>
        <time>2018-09-15T10:29:41Z</time>
      </trkpt>
      <trkpt lat="45.93096" lon="4.72816">
        <ele>172</ele>
        <time>2018-09-15T10:29:42Z</time>
      </trkpt>
      <trkpt lat="45.9309" lon="4.72823">
        <ele>172</ele>
        <time>2018-09-15T10:29:43Z</time>
      </trkpt>
      <trkpt lat="45.93086" lon="4.72828">
        <ele>173</ele>
        <time>2018-09-15T10:29:44Z</time>
      </trkpt>
      <trkpt lat="45.93081" lon="4.72833">
        <ele>173</ele>
        <time>2018-09-15T10:29:45Z</time>
      </trkpt>
      <trkpt lat="45.93079" lon="4.7284">
        <ele>173</ele>
        <time>2018-09-15T10:29:46Z</time>
      </trkpt>
      <trkpt lat="45.93076" lon="4.72847">
        <ele>173</ele>
        <time>2018-09-15T10:29:47Z</time>
      </trkpt>
      <trkpt lat="45.93074" lon="4.72854">
        <ele>172</ele>
        <time>2018-09-15T10:29:48Z</time>
      </trkpt>
      <trkpt lat="45.93071" lon="4.72863">
        <ele>172</ele>
        <time>2018-09-15T10:29:49Z</time>
      </trkpt>
      <trkpt lat="45.93049" lon="4.72865">
        <ele>172</ele>
        <time>2018-09-15T10:29:51Z</time>
      </trkpt>
      <trkpt lat="45.93044" lon="4.72871">
        <ele>172</ele>
        <time>2018-09-15T10:29:53Z</time>
      </trkpt>
      <trkpt lat="45.9304" lon="4.72877">
        <ele>172</ele>
        <time>2018-09-15T10:29:54Z</time>
      </trkpt>
      <trkpt lat="45.93035" lon="4.72883">
        <ele>172</ele>
        <time>2018-09-15T10:29:55Z</time>
      </trkpt>
      <trkpt lat="45.9303" lon="4.72889">
        <ele>172</ele>
        <time>2018-09-15T10:29:56Z</time>
      </trkpt>
      <trkpt lat="45.93025" lon="4.72895">
        <ele>172</ele>
        <time>2018-09-15T10:29:57Z</time>
      </trkpt>
      <trkpt lat="45.93019" lon="4.72901">
        <ele>172</ele>
        <time>2018-09-15T10:29:58Z</time>
      </trkpt>
      <trkpt lat="45.93014" lon="4.72906">
        <ele>171</ele>
        <time>2018-09-15T10:29:59Z</time>
      </trkpt>
      <trkpt lat="45.93009" lon="4.72912">
        <ele>171</ele>
        <time>2018-09-15T10:30:00Z</time>
      </trkpt>
      <trkpt lat="45.93004" lon="4.72916">
        <ele>171</ele>
        <time>2018-09-15T10:30:01Z</time>
      </trkpt>
      <trkpt lat="45.93" lon="4.72921">
        <ele>171</ele>
        <time>2018-09-15T10:30:02Z</time>
      </trkpt>
      <trkpt lat="45.92997" lon="4.72929">
        <ele>171</ele>
        <time>2018-09-15T10:30:03Z</time>
      </trkpt>
      <trkpt lat="45.92992" lon="4.72934">
        <ele>171</ele>
        <time>2018-09-15T10:30:04Z</time>
      </trkpt>
      <trkpt lat="45.92988" lon="4.7294">
        <ele>171</ele>
        <time>2018-09-15T10:30:05Z</time>
      </trkpt>
      <trkpt lat="45.92984" lon="4.72944">
        <ele>171</ele>
        <time>2018-09-15T10:30:06Z</time>
      </trkpt>
      <trkpt lat="45.9298" lon="4.72949">
        <ele>171</ele>
        <time>2018-09-15T10:30:07Z</time>
      </trkpt>
      <trkpt lat="45.92977" lon="4.72954">
        <ele>171</ele>
        <time>2018-09-15T10:30:08Z</time>
      </trkpt>
      <trkpt lat="45.92973" lon="4.72959">
        <ele>171</ele>
        <time>2018-09-15T10:30:09Z</time>
      </trkpt>
      <trkpt lat="45.92969" lon="4.72964">
        <ele>171</ele>
        <time>2018-09-15T10:30:10Z</time>
      </trkpt>
      <trkpt lat="45.92966" lon="4.7297">
        <ele>171</ele>
        <time>2018-09-15T10:30:11Z</time>
      </trkpt>
      <trkpt lat="45.92964" lon="4.72976">
        <ele>171</ele>
        <time>2018-09-15T10:30:12Z</time>
      </trkpt>
      <trkpt lat="45.92959" lon="4.72981">
        <ele>171</ele>
        <time>2018-09-15T10:30:13Z</time>
      </trkpt>
      <trkpt lat="45.92955" lon="4.72986">
        <ele>171</ele>
        <time>2018-09-15T10:30:14Z</time>
      </trkpt>
      <trkpt lat="45.92951" lon="4.7299">
        <ele>171</ele>
        <time>2018-09-15T10:30:15Z</time>
      </trkpt>
      <trkpt lat="45.92948" lon="4.72998">
        <ele>171</ele>
        <time>2018-09-15T10:30:16Z</time>
      </trkpt>
      <trkpt lat="45.92943" lon="4.73004">
        <ele>171</ele>
        <time>2018-09-15T10:30:17Z</time>
      </trkpt>
      <trkpt lat="45.92939" lon="4.73009">
        <ele>171</ele>
        <time>2018-09-15T10:30:18Z</time>
      </trkpt>
      <trkpt lat="45.92934" lon="4.73015">
        <ele>171</ele>
        <time>2018-09-15T10:30:19Z</time>
      </trkpt>
      <trkpt lat="45.9293" lon="4.7302">
        <ele>171</ele>
        <time>2018-09-15T10:30:20Z</time>
      </trkpt>
      <trkpt lat="45.92926" lon="4.73025">
        <ele>171</ele>
        <time>2018-09-15T10:30:21Z</time>
      </trkpt>
      <trkpt lat="45.92921" lon="4.7303">
        <ele>171</ele>
        <time>2018-09-15T10:30:22Z</time>
      </trkpt>
      <trkpt lat="45.92916" lon="4.73035">
        <ele>172</ele>
        <time>2018-09-15T10:30:23Z</time>
      </trkpt>
      <trkpt lat="45.92913" lon="4.7304">
        <ele>172</ele>
        <time>2018-09-15T10:30:24Z</time>
      </trkpt>
      <trkpt lat="45.92909" lon="4.73046">
        <ele>172</ele>
        <time>2018-09-15T10:30:25Z</time>
      </trkpt>
      <trkpt lat="45.92905" lon="4.73052">
        <ele>172</ele>
        <time>2018-09-15T10:30:26Z</time>
      </trkpt>
      <trkpt lat="45.92902" lon="4.73058">
        <ele>172</ele>
        <time>2018-09-15T10:30:27Z</time>
      </trkpt>
      <trkpt lat="45.92898" lon="4.73064">
        <ele>172</ele>
        <time>2018-09-15T10:30:28Z</time>
      </trkpt>
      <trkpt lat="45.92895" lon="4.7307">
        <ele>172</ele>
        <time>2018-09-15T10:30:29Z</time>
      </trkpt>
      <trkpt lat="45.92892" lon="4.73074">
        <ele>172</ele>
        <time>2018-09-15T10:30:30Z</time>
      </trkpt>
      <trkpt lat="45.92888" lon="4.73079">
        <ele>172</ele>
        <time>2018-09-15T10:30:31Z</time>
      </trkpt>
      <trkpt lat="45.92885" lon="4.73083">
        <ele>172</ele>
        <time>2018-09-15T10:30:32Z</time>
      </trkpt>
      <trkpt lat="45.92882" lon="4.7309">
        <ele>172</ele>
        <time>2018-09-15T10:30:33Z</time>
      </trkpt>
      <trkpt lat="45.92877" lon="4.73093">
        <ele>172</ele>
        <time>2018-09-15T10:30:34Z</time>
      </trkpt>
      <trkpt lat="45.92873" lon="4.73097">
        <ele>172</ele>
        <time>2018-09-15T10:30:35Z</time>
      </trkpt>
      <trkpt lat="45.92869" lon="4.73101">
        <ele>172</ele>
        <time>2018-09-15T10:30:36Z</time>
      </trkpt>
      <trkpt lat="45.92862" lon="4.7311">
        <ele>171</ele>
        <time>2018-09-15T10:30:38Z</time>
      </trkpt>
      <trkpt lat="45.9286" lon="4.7311">
        <ele>171</ele>
        <time>2018-09-15T10:30:39Z</time>
      </trkpt>
      <trkpt lat="45.92854" lon="4.73108">
        <ele>171</ele>
        <time>2018-09-15T10:30:40Z</time>
      </trkpt>
      <trkpt lat="45.92851" lon="4.73105">
        <ele>171</ele>
        <time>2018-09-15T10:30:41Z</time>
      </trkpt>
      <trkpt lat="45.92849" lon="4.73098">
        <ele>171</ele>
        <time>2018-09-15T10:30:42Z</time>
      </trkpt>
      <trkpt lat="45.92847" lon="4.73092">
        <ele>171</ele>
        <time>2018-09-15T10:30:43Z</time>
      </trkpt>
      <trkpt lat="45.92847" lon="4.73085">
        <ele>171</ele>
        <time>2018-09-15T10:30:44Z</time>
      </trkpt>
      <trkpt lat="45.92847" lon="4.73078">
        <ele>171</ele>
        <time>2018-09-15T10:30:45Z</time>
      </trkpt>
      <trkpt lat="45.92845" lon="4.73071">
        <ele>171</ele>
        <time>2018-09-15T10:30:46Z</time>
      </trkpt>
      <trkpt lat="45.92844" lon="4.73064">
        <ele>171</ele>
        <time>2018-09-15T10:30:47Z</time>
      </trkpt>
      <trkpt lat="45.92841" lon="4.73052">
        <ele>171</ele>
        <time>2018-09-15T10:30:49Z</time>
      </trkpt>
      <trkpt lat="45.9284" lon="4.73046">
        <ele>171</ele>
        <time>2018-09-15T10:30:50Z</time>
      </trkpt>
      <trkpt lat="45.92838" lon="4.73033">
        <ele>171</ele>
        <time>2018-09-15T10:30:52Z</time>
      </trkpt>
      <trkpt lat="45.92838" lon="4.73028">
        <ele>171</ele>
        <time>2018-09-15T10:30:53Z</time>
      </trkpt>
      <trkpt lat="45.92836" lon="4.73023">
        <ele>171</ele>
        <time>2018-09-15T10:30:54Z</time>
      </trkpt>
      <trkpt lat="45.92835" lon="4.73016">
        <ele>171</ele>
        <time>2018-09-15T10:30:55Z</time>
      </trkpt>
      <trkpt lat="45.92834" lon="4.7301">
        <ele>170</ele>
        <time>2018-09-15T10:30:56Z</time>
      </trkpt>
      <trkpt lat="45.92833" lon="4.73003">
        <ele>170</ele>
        <time>2018-09-15T10:30:57Z</time>
      </trkpt>
      <trkpt lat="45.92832" lon="4.72991">
        <ele>170</ele>
        <time>2018-09-15T10:30:59Z</time>
      </trkpt>
      <trkpt lat="45.92831" lon="4.72985">
        <ele>170</ele>
        <time>2018-09-15T10:31:00Z</time>
      </trkpt>
      <trkpt lat="45.9283" lon="4.72974">
        <ele>170</ele>
        <time>2018-09-15T10:31:02Z</time>
      </trkpt>
      <trkpt lat="45.92829" lon="4.72968">
        <ele>170</ele>
        <time>2018-09-15T10:31:03Z</time>
      </trkpt>
      <trkpt lat="45.92828" lon="4.72956">
        <ele>170</ele>
        <time>2018-09-15T10:31:05Z</time>
      </trkpt>
      <trkpt lat="45.92827" lon="4.72948">
        <ele>170</ele>
        <time>2018-09-15T10:31:06Z</time>
      </trkpt>
      <trkpt lat="45.92825" lon="4.72936">
        <ele>170</ele>
        <time>2018-09-15T10:31:08Z</time>
      </trkpt>
      <trkpt lat="45.92825" lon="4.7293">
        <ele>170</ele>
        <time>2018-09-15T10:31:09Z</time>
      </trkpt>
      <trkpt lat="45.92824" lon="4.72921">
        <ele>170</ele>
        <time>2018-09-15T10:31:10Z</time>
      </trkpt>
      <trkpt lat="45.92824" lon="4.72915">
        <ele>170</ele>
        <time>2018-09-15T10:31:11Z</time>
      </trkpt>
      <trkpt lat="45.92823" lon="4.72903">
        <ele>170</ele>
        <time>2018-09-15T10:31:13Z</time>
      </trkpt>
      <trkpt lat="45.92822" lon="4.72897">
        <ele>170</ele>
        <time>2018-09-15T10:31:14Z</time>
      </trkpt>
      <trkpt lat="45.9282" lon="4.72888">
        <ele>170</ele>
        <time>2018-09-15T10:31:16Z</time>
      </trkpt>
      <trkpt lat="45.9282" lon="4.72882">
        <ele>170</ele>
        <time>2018-09-15T10:31:17Z</time>
      </trkpt>
      <trkpt lat="45.92817" lon="4.72872">
        <ele>170</ele>
        <time>2018-09-15T10:31:19Z</time>
      </trkpt>
      <trkpt lat="45.92816" lon="4.72866">
        <ele>170</ele>
        <time>2018-09-15T10:31:20Z</time>
      </trkpt>
      <trkpt lat="45.92813" lon="4.72859">
        <ele>170</ele>
        <time>2018-09-15T10:31:21Z</time>
      </trkpt>
      <trkpt lat="45.92813" lon="4.72852">
        <ele>170</ele>
        <time>2018-09-15T10:31:22Z</time>
      </trkpt>
      <trkpt lat="45.92811" lon="4.72844">
        <ele>170</ele>
        <time>2018-09-15T10:31:23Z</time>
      </trkpt>
      <trkpt lat="45.9281" lon="4.72836">
        <ele>170</ele>
        <time>2018-09-15T10:31:24Z</time>
      </trkpt>
      <trkpt lat="45.92809" lon="4.72828">
        <ele>171</ele>
        <time>2018-09-15T10:31:25Z</time>
      </trkpt>
      <trkpt lat="45.92807" lon="4.72821">
        <ele>171</ele>
        <time>2018-09-15T10:31:26Z</time>
      </trkpt>
      <trkpt lat="45.92806" lon="4.72813">
        <ele>171</ele>
        <time>2018-09-15T10:31:27Z</time>
      </trkpt>
      <trkpt lat="45.92804" lon="4.72806">
        <ele>171</ele>
        <time>2018-09-15T10:31:28Z</time>
      </trkpt>
      <trkpt lat="45.92803" lon="4.72794">
        <ele>171</ele>
        <time>2018-09-15T10:31:30Z</time>
      </trkpt>
      <trkpt lat="45.928" lon="4.72788">
        <ele>171</ele>
        <time>2018-09-15T10:31:31Z</time>
      </trkpt>
      <trkpt lat="45.92793" lon="4.72785">
        <ele>171</ele>
        <time>2018-09-15T10:31:33Z</time>
      </trkpt>
      <trkpt lat="45.9279" lon="4.72788">
        <ele>171</ele>
        <time>2018-09-15T10:31:34Z</time>
      </trkpt>
      <trkpt lat="45.92783" lon="4.72793">
        <ele>170</ele>
        <time>2018-09-15T10:31:36Z</time>
      </trkpt>
      <trkpt lat="45.92779" lon="4.72796">
        <ele>170</ele>
        <time>2018-09-15T10:31:37Z</time>
      </trkpt>
      <trkpt lat="45.92775" lon="4.72798">
        <ele>170</ele>
        <time>2018-09-15T10:31:38Z</time>
      </trkpt>
      <trkpt lat="45.92771" lon="4.72802">
        <ele>170</ele>
        <time>2018-09-15T10:31:39Z</time>
      </trkpt>
      <trkpt lat="45.92763" lon="4.72806">
        <ele>170</ele>
        <time>2018-09-15T10:31:41Z</time>
      </trkpt>
      <trkpt lat="45.92758" lon="4.7281">
        <ele>170</ele>
        <time>2018-09-15T10:31:42Z</time>
      </trkpt>
      <trkpt lat="45.92753" lon="4.72814">
        <ele>170</ele>
        <time>2018-09-15T10:31:43Z</time>
      </trkpt>
      <trkpt lat="45.92748" lon="4.72821">
        <ele>169</ele>
        <time>2018-09-15T10:31:44Z</time>
      </trkpt>
      <trkpt lat="45.92742" lon="4.72826">
        <ele>169</ele>
        <time>2018-09-15T10:31:45Z</time>
      </trkpt>
      <trkpt lat="45.92738" lon="4.72831">
        <ele>169</ele>
        <time>2018-09-15T10:31:46Z</time>
      </trkpt>
      <trkpt lat="45.92733" lon="4.72834">
        <ele>169</ele>
        <time>2018-09-15T10:31:47Z</time>
      </trkpt>
      <trkpt lat="45.92728" lon="4.72838">
        <ele>169</ele>
        <time>2018-09-15T10:31:48Z</time>
      </trkpt>
      <trkpt lat="45.92724" lon="4.72844">
        <ele>169</ele>
        <time>2018-09-15T10:31:49Z</time>
      </trkpt>
      <trkpt lat="45.92718" lon="4.72848">
        <ele>169</ele>
        <time>2018-09-15T10:31:50Z</time>
      </trkpt>
      <trkpt lat="45.92712" lon="4.72852">
        <ele>169</ele>
        <time>2018-09-15T10:31:51Z</time>
      </trkpt>
      <trkpt lat="45.92706" lon="4.72856">
        <ele>169</ele>
        <time>2018-09-15T10:31:52Z</time>
      </trkpt>
      <trkpt lat="45.92701" lon="4.72862">
        <ele>169</ele>
        <time>2018-09-15T10:31:53Z</time>
      </trkpt>
      <trkpt lat="45.92694" lon="4.72866">
        <ele>169</ele>
        <time>2018-09-15T10:31:54Z</time>
      </trkpt>
      <trkpt lat="45.92688" lon="4.7287">
        <ele>169</ele>
        <time>2018-09-15T10:31:55Z</time>
      </trkpt>
      <trkpt lat="45.92684" lon="4.72874">
        <ele>169</ele>
        <time>2018-09-15T10:31:56Z</time>
      </trkpt>
      <trkpt lat="45.92679" lon="4.72879">
        <ele>170</ele>
        <time>2018-09-15T10:31:57Z</time>
      </trkpt>
      <trkpt lat="45.92674" lon="4.72884">
        <ele>170</ele>
        <time>2018-09-15T10:31:58Z</time>
      </trkpt>
      <trkpt lat="45.92668" lon="4.72889">
        <ele>170</ele>
        <time>2018-09-15T10:31:59Z</time>
      </trkpt>
      <trkpt lat="45.92663" lon="4.72892">
        <ele>170</ele>
        <time>2018-09-15T10:32:00Z</time>
      </trkpt>
      <trkpt lat="45.92658" lon="4.72896">
        <ele>170</ele>
        <time>2018-09-15T10:32:01Z</time>
      </trkpt>
      <trkpt lat="45.92656" lon="4.72903">
        <ele>170</ele>
        <time>2018-09-15T10:32:02Z</time>
      </trkpt>
      <trkpt lat="45.92652" lon="4.72906">
        <ele>170</ele>
        <time>2018-09-15T10:32:03Z</time>
      </trkpt>
      <trkpt lat="45.92646" lon="4.7291">
        <ele>170</ele>
        <time>2018-09-15T10:32:04Z</time>
      </trkpt>
      <trkpt lat="45.92642" lon="4.72915">
        <ele>170</ele>
        <time>2018-09-15T10:32:05Z</time>
      </trkpt>
      <trkpt lat="45.92638" lon="4.72919">
        <ele>170</ele>
        <time>2018-09-15T10:32:06Z</time>
      </trkpt>
      <trkpt lat="45.92632" lon="4.72925">
        <ele>170</ele>
        <time>2018-09-15T10:32:07Z</time>
      </trkpt>
      <trkpt lat="45.92628" lon="4.72929">
        <ele>170</ele>
        <time>2018-09-15T10:32:08Z</time>
      </trkpt>
      <trkpt lat="45.92623" lon="4.72934">
        <ele>169</ele>
        <time>2018-09-15T10:32:09Z</time>
      </trkpt>
      <trkpt lat="45.92619" lon="4.72938">
        <ele>169</ele>
        <time>2018-09-15T10:32:10Z</time>
      </trkpt>
      <trkpt lat="45.92613" lon="4.72943">
        <ele>169</ele>
        <time>2018-09-15T10:32:11Z</time>
      </trkpt>
      <trkpt lat="45.92609" lon="4.72947">
        <ele>169</ele>
        <time>2018-09-15T10:32:12Z</time>
      </trkpt>
      <trkpt lat="45.92604" lon="4.72953">
        <ele>169</ele>
        <time>2018-09-15T10:32:13Z</time>
      </trkpt>
      <trkpt lat="45.926" lon="4.72959">
        <ele>169</ele>
        <time>2018-09-15T10:32:14Z</time>
      </trkpt>
      <trkpt lat="45.92596" lon="4.72965">
        <ele>169</ele>
        <time>2018-09-15T10:32:15Z</time>
      </trkpt>
      <trkpt lat="45.92592" lon="4.7297">
        <ele>169</ele>
        <time>2018-09-15T10:32:16Z</time>
      </trkpt>
      <trkpt lat="45.92587" lon="4.72975">
        <ele>169</ele>
        <time>2018-09-15T10:32:17Z</time>
      </trkpt>
      <trkpt lat="45.92583" lon="4.7298">
        <ele>169</ele>
        <time>2018-09-15T10:32:18Z</time>
      </trkpt>
      <trkpt lat="45.92578" lon="4.72985">
        <ele>169</ele>
        <time>2018-09-15T10:32:19Z</time>
      </trkpt>
      <trkpt lat="45.92573" lon="4.72991">
        <ele>169</ele>
        <time>2018-09-15T10:32:20Z</time>
      </trkpt>
      <trkpt lat="45.92568" lon="4.72998">
        <ele>169</ele>
        <time>2018-09-15T10:32:21Z</time>
      </trkpt>
      <trkpt lat="45.92562" lon="4.73002">
        <ele>169</ele>
        <time>2018-09-15T10:32:22Z</time>
      </trkpt>
      <trkpt lat="45.92556" lon="4.73008">
        <ele>169</ele>
        <time>2018-09-15T10:32:23Z</time>
      </trkpt>
      <trkpt lat="45.92551" lon="4.73012">
        <ele>169</ele>
        <time>2018-09-15T10:32:24Z</time>
      </trkpt>
      <trkpt lat="45.92546" lon="4.73018">
        <ele>169</ele>
        <time>2018-09-15T10:32:25Z</time>
      </trkpt>
      <trkpt lat="45.92541" lon="4.73022">
        <ele>169</ele>
        <time>2018-09-15T10:32:26Z</time>
      </trkpt>
      <trkpt lat="45.92536" lon="4.73027">
        <ele>169</ele>
        <time>2018-09-15T10:32:27Z</time>
      </trkpt>
      <trkpt lat="45.9253" lon="4.7303">
        <ele>169</ele>
        <time>2018-09-15T10:32:28Z</time>
      </trkpt>
      <trkpt lat="45.92525" lon="4.73034">
        <ele>169</ele>
        <time>2018-09-15T10:32:29Z</time>
      </trkpt>
      <trkpt lat="45.92522" lon="4.73038">
        <ele>169</ele>
        <time>2018-09-15T10:32:30Z</time>
      </trkpt>
      <trkpt lat="45.92516" lon="4.73043">
        <ele>170</ele>
        <time>2018-09-15T10:32:31Z</time>
      </trkpt>
      <trkpt lat="45.9251" lon="4.73047">
        <ele>170</ele>
        <time>2018-09-15T10:32:32Z</time>
      </trkpt>
      <trkpt lat="45.92505" lon="4.73052">
        <ele>170</ele>
        <time>2018-09-15T10:32:33Z</time>
      </trkpt>
      <trkpt lat="45.925" lon="4.73055">
        <ele>170</ele>
        <time>2018-09-15T10:32:34Z</time>
      </trkpt>
      <trkpt lat="45.92497" lon="4.73059">
        <ele>170</ele>
        <time>2018-09-15T10:32:35Z</time>
      </trkpt>
      <trkpt lat="45.92492" lon="4.73063">
        <ele>170</ele>
        <time>2018-09-15T10:32:36Z</time>
      </trkpt>
      <trkpt lat="45.92486" lon="4.73067">
        <ele>170</ele>
        <time>2018-09-15T10:32:37Z</time>
      </trkpt>
      <trkpt lat="45.92481" lon="4.73071">
        <ele>170</ele>
        <time>2018-09-15T10:32:38Z</time>
      </trkpt>
      <trkpt lat="45.92477" lon="4.73076">
        <ele>170</ele>
        <time>2018-09-15T10:32:39Z</time>
      </trkpt>
      <trkpt lat="45.92472" lon="4.7308">
        <ele>170</ele>
        <time>2018-09-15T10:32:40Z</time>
      </trkpt>
      <trkpt lat="45.92467" lon="4.73087">
        <ele>170</ele>
        <time>2018-09-15T10:32:41Z</time>
      </trkpt>
      <trkpt lat="45.92462" lon="4.73092">
        <ele>170</ele>
        <time>2018-09-15T10:32:42Z</time>
      </trkpt>
      <trkpt lat="45.92457" lon="4.73094">
        <ele>170</ele>
        <time>2018-09-15T10:32:43Z</time>
      </trkpt>
      <trkpt lat="45.92452" lon="4.73098">
        <ele>170</ele>
        <time>2018-09-15T10:32:44Z</time>
      </trkpt>
      <trkpt lat="45.92447" lon="4.73101">
        <ele>170</ele>
        <time>2018-09-15T10:32:45Z</time>
      </trkpt>
      <trkpt lat="45.92443" lon="4.73105">
        <ele>170</ele>
        <time>2018-09-15T10:32:46Z</time>
      </trkpt>
      <trkpt lat="45.92438" lon="4.73109">
        <ele>170</ele>
        <time>2018-09-15T10:32:47Z</time>
      </trkpt>
      <trkpt lat="45.92433" lon="4.73112">
        <ele>170</ele>
        <time>2018-09-15T10:32:48Z</time>
      </trkpt>
      <trkpt lat="45.92429" lon="4.73114">
        <ele>170</ele>
        <time>2018-09-15T10:32:49Z</time>
      </trkpt>
      <trkpt lat="45.92424" lon="4.73117">
        <ele>170</ele>
        <time>2018-09-15T10:32:50Z</time>
      </trkpt>
      <trkpt lat="45.9242" lon="4.73122">
        <ele>170</ele>
        <time>2018-09-15T10:32:51Z</time>
      </trkpt>
      <trkpt lat="45.92417" lon="4.73127">
        <ele>171</ele>
        <time>2018-09-15T10:32:52Z</time>
      </trkpt>
      <trkpt lat="45.92414" lon="4.73134">
        <ele>171</ele>
        <time>2018-09-15T10:32:53Z</time>
      </trkpt>
      <trkpt lat="45.92413" lon="4.7314">
        <ele>171</ele>
        <time>2018-09-15T10:32:54Z</time>
      </trkpt>
      <trkpt lat="45.92413" lon="4.73148">
        <ele>171</ele>
        <time>2018-09-15T10:32:55Z</time>
      </trkpt>
      <trkpt lat="45.92412" lon="4.73155">
        <ele>170</ele>
        <time>2018-09-15T10:32:56Z</time>
      </trkpt>
      <trkpt lat="45.92413" lon="4.7316">
        <ele>170</ele>
        <time>2018-09-15T10:32:57Z</time>
      </trkpt>
      <trkpt lat="45.92413" lon="4.73169">
        <ele>170</ele>
        <time>2018-09-15T10:32:58Z</time>
      </trkpt>
      <trkpt lat="45.92414" lon="4.73178">
        <ele>170</ele>
        <time>2018-09-15T10:32:59Z</time>
      </trkpt>
      <trkpt lat="45.92414" lon="4.73186">
        <ele>171</ele>
        <time>2018-09-15T10:33:00Z</time>
      </trkpt>
      <trkpt lat="45.92414" lon="4.73196">
        <ele>171</ele>
        <time>2018-09-15T10:33:01Z</time>
      </trkpt>
      <trkpt lat="45.92414" lon="4.73206">
        <ele>171</ele>
        <time>2018-09-15T10:33:02Z</time>
      </trkpt>
      <trkpt lat="45.92414" lon="4.73214">
        <ele>171</ele>
        <time>2018-09-15T10:33:03Z</time>
      </trkpt>
      <trkpt lat="45.92414" lon="4.73222">
        <ele>171</ele>
        <time>2018-09-15T10:33:04Z</time>
      </trkpt>
      <trkpt lat="45.92414" lon="4.73232">
        <ele>171</ele>
        <time>2018-09-15T10:33:05Z</time>
      </trkpt>
      <trkpt lat="45.92415" lon="4.73239">
        <ele>171</ele>
        <time>2018-09-15T10:33:06Z</time>
      </trkpt>
      <trkpt lat="45.92417" lon="4.73247">
        <ele>171</ele>
        <time>2018-09-15T10:33:07Z</time>
      </trkpt>
      <trkpt lat="45.92416" lon="4.73255">
        <ele>171</ele>
        <time>2018-09-15T10:33:08Z</time>
      </trkpt>
      <trkpt lat="45.92417" lon="4.73263">
        <ele>171</ele>
        <time>2018-09-15T10:33:09Z</time>
      </trkpt>
      <trkpt lat="45.92417" lon="4.73268">
        <ele>171</ele>
        <time>2018-09-15T10:33:10Z</time>
      </trkpt>
      <trkpt lat="45.92417" lon="4.73276">
        <ele>171</ele>
        <time>2018-09-15T10:33:11Z</time>
      </trkpt>
      <trkpt lat="45.92417" lon="4.73285">
        <ele>171</ele>
        <time>2018-09-15T10:33:12Z</time>
      </trkpt>
      <trkpt lat="45.92418" lon="4.73293">
        <ele>171</ele>
        <time>2018-09-15T10:33:13Z</time>
      </trkpt>
      <trkpt lat="45.92418" lon="4.73302">
        <ele>171</ele>
        <time>2018-09-15T10:33:14Z</time>
      </trkpt>
      <trkpt lat="45.9242" lon="4.73311">
        <ele>171</ele>
        <time>2018-09-15T10:33:15Z</time>
      </trkpt>
      <trkpt lat="45.92421" lon="4.73318">
        <ele>171</ele>
        <time>2018-09-15T10:33:16Z</time>
      </trkpt>
      <trkpt lat="45.92422" lon="4.73326">
        <ele>171</ele>
        <time>2018-09-15T10:33:17Z</time>
      </trkpt>
      <trkpt lat="45.92424" lon="4.73334">
        <ele>171</ele>
        <time>2018-09-15T10:33:18Z</time>
      </trkpt>
      <trkpt lat="45.92424" lon="4.73341">
        <ele>171</ele>
        <time>2018-09-15T10:33:19Z</time>
      </trkpt>
      <trkpt lat="45.92426" lon="4.73349">
        <ele>171</ele>
        <time>2018-09-15T10:33:20Z</time>
      </trkpt>
      <trkpt lat="45.92426" lon="4.73355">
        <ele>171</ele>
        <time>2018-09-15T10:33:21Z</time>
      </trkpt>
      <trkpt lat="45.92428" lon="4.73363">
        <ele>172</ele>
        <time>2018-09-15T10:33:22Z</time>
      </trkpt>
      <trkpt lat="45.92429" lon="4.73372">
        <ele>172</ele>
        <time>2018-09-15T10:33:23Z</time>
      </trkpt>
      <trkpt lat="45.92431" lon="4.7338">
        <ele>172</ele>
        <time>2018-09-15T10:33:24Z</time>
      </trkpt>
      <trkpt lat="45.92432" lon="4.73388">
        <ele>172</ele>
        <time>2018-09-15T10:33:25Z</time>
      </trkpt>
      <trkpt lat="45.92434" lon="4.73395">
        <ele>172</ele>
        <time>2018-09-15T10:33:26Z</time>
      </trkpt>
      <trkpt lat="45.92436" lon="4.73402">
        <ele>172</ele>
        <time>2018-09-15T10:33:27Z</time>
      </trkpt>
      <trkpt lat="45.92438" lon="4.73408">
        <ele>172</ele>
        <time>2018-09-15T10:33:28Z</time>
      </trkpt>
      <trkpt lat="45.92445" lon="4.73415">
        <ele>172</ele>
        <time>2018-09-15T10:33:30Z</time>
      </trkpt>
      <trkpt lat="45.92448" lon="4.73418">
        <ele>173</ele>
        <time>2018-09-15T10:33:31Z</time>
      </trkpt>
      <trkpt lat="45.92452" lon="4.73421">
        <ele>173</ele>
        <time>2018-09-15T10:33:32Z</time>
      </trkpt>
      <trkpt lat="45.92456" lon="4.73425">
        <ele>173</ele>
        <time>2018-09-15T10:33:33Z</time>
      </trkpt>
      <trkpt lat="45.92463" lon="4.73432">
        <ele>173</ele>
        <time>2018-09-15T10:33:35Z</time>
      </trkpt>
      <trkpt lat="45.92466" lon="4.73436">
        <ele>173</ele>
        <time>2018-09-15T10:33:36Z</time>
      </trkpt>
      <trkpt lat="45.92469" lon="4.73443">
        <ele>173</ele>
        <time>2018-09-15T10:33:37Z</time>
      </trkpt>
      <trkpt lat="45.92471" lon="4.73452">
        <ele>173</ele>
        <time>2018-09-15T10:33:38Z</time>
      </trkpt>
      <trkpt lat="45.92471" lon="4.73459">
        <ele>173</ele>
        <time>2018-09-15T10:33:39Z</time>
      </trkpt>
      <trkpt lat="45.92472" lon="4.73467">
        <ele>173</ele>
        <time>2018-09-15T10:33:40Z</time>
      </trkpt>
      <trkpt lat="45.92472" lon="4.73474">
        <ele>173</ele>
        <time>2018-09-15T10:33:41Z</time>
      </trkpt>
      <trkpt lat="45.92473" lon="4.73481">
        <ele>173</ele>
        <time>2018-09-15T10:33:42Z</time>
      </trkpt>
      <trkpt lat="45.92472" lon="4.73494">
        <ele>173</ele>
        <time>2018-09-15T10:33:44Z</time>
      </trkpt>
      <trkpt lat="45.92472" lon="4.735">
        <ele>174</ele>
        <time>2018-09-15T10:33:45Z</time>
      </trkpt>
      <trkpt lat="45.92472" lon="4.73513">
        <ele>174</ele>
        <time>2018-09-15T10:33:47Z</time>
      </trkpt>
      <trkpt lat="45.92474" lon="4.7352">
        <ele>174</ele>
        <time>2018-09-15T10:33:48Z</time>
      </trkpt>
      <trkpt lat="45.92471" lon="4.7353">
        <ele>174</ele>
        <time>2018-09-15T10:33:50Z</time>
      </trkpt>
      <trkpt lat="45.92471" lon="4.73535">
        <ele>174</ele>
        <time>2018-09-15T10:33:51Z</time>
      </trkpt>
      <trkpt lat="45.92471" lon="4.73543">
        <ele>173</ele>
        <time>2018-09-15T10:33:53Z</time>
      </trkpt>
      <trkpt lat="45.9247" lon="4.73551">
        <ele>173</ele>
        <time>2018-09-15T10:33:54Z</time>
      </trkpt>
      <trkpt lat="45.92469" lon="4.73562">
        <ele>173</ele>
        <time>2018-09-15T10:33:56Z</time>
      </trkpt>
      <trkpt lat="45.9247" lon="4.73569">
        <ele>173</ele>
        <time>2018-09-15T10:33:57Z</time>
      </trkpt>
      <trkpt lat="45.92471" lon="4.73575">
        <ele>173</ele>
        <time>2018-09-15T10:33:58Z</time>
      </trkpt>
      <trkpt lat="45.92473" lon="4.73582">
        <ele>173</ele>
        <time>2018-09-15T10:33:59Z</time>
      </trkpt>
      <trkpt lat="45.92473" lon="4.73591">
        <ele>174</ele>
        <time>2018-09-15T10:34:00Z</time>
      </trkpt>
      <trkpt lat="45.92473" lon="4.736">
        <ele>174</ele>
        <time>2018-09-15T10:34:01Z</time>
      </trkpt>
      <trkpt lat="45.92473" lon="4.73607">
        <ele>174</ele>
        <time>2018-09-15T10:34:02Z</time>
      </trkpt>
      <trkpt lat="45.92474" lon="4.73614">
        <ele>174</ele>
        <time>2018-09-15T10:34:03Z</time>
      </trkpt>
      <trkpt lat="45.92474" lon="4.73622">
        <ele>174</ele>
        <time>2018-09-15T10:34:04Z</time>
      </trkpt>
      <trkpt lat="45.92474" lon="4.73629">
        <ele>174</ele>
        <time>2018-09-15T10:34:05Z</time>
      </trkpt>
      <trkpt lat="45.92474" lon="4.73642">
        <ele>174</ele>
        <time>2018-09-15T10:34:07Z</time>
      </trkpt>
      <trkpt lat="45.92474" lon="4.73648">
        <ele>174</ele>
        <time>2018-09-15T10:34:08Z</time>
      </trkpt>
      <trkpt lat="45.92473" lon="4.73655">
        <ele>174</ele>
        <time>2018-09-15T10:34:09Z</time>
      </trkpt>
      <trkpt lat="45.92472" lon="4.73661">
        <ele>174</ele>
        <time>2018-09-15T10:34:10Z</time>
      </trkpt>
      <trkpt lat="45.92475" lon="4.7367">
        <ele>175</ele>
        <time>2018-09-15T10:34:11Z</time>
      </trkpt>
      <trkpt lat="45.92475" lon="4.73675">
        <ele>174</ele>
        <time>2018-09-15T10:34:12Z</time>
      </trkpt>
      <trkpt lat="45.92474" lon="4.73687">
        <ele>174</ele>
        <time>2018-09-15T10:34:14Z</time>
      </trkpt>
      <trkpt lat="45.92474" lon="4.73693">
        <ele>174</ele>
        <time>2018-09-15T10:34:15Z</time>
      </trkpt>
      <trkpt lat="45.92473" lon="4.73706">
        <ele>174</ele>
        <time>2018-09-15T10:34:17Z</time>
      </trkpt>
      <trkpt lat="45.92472" lon="4.73708">
        <ele>174</ele>
        <time>2018-09-15T10:34:18Z</time>
      </trkpt>
      <trkpt lat="45.92469" lon="4.73712">
        <ele>174</ele>
        <time>2018-09-15T10:34:26Z</time>
      </trkpt>
      <trkpt lat="45.92468" lon="4.73712">
        <ele>174</ele>
        <time>2018-09-15T10:34:27Z</time>
      </trkpt>
      <trkpt lat="45.92468" lon="4.73712">
        <ele>174</ele>
        <time>2018-09-15T10:34:28Z</time>
      </trkpt>
      <trkpt lat="45.92464" lon="4.73709">
        <ele>174</ele>
        <time>2018-09-15T10:34:35Z</time>
      </trkpt>
      <trkpt lat="45.92464" lon="4.73708">
        <ele>174</ele>
        <time>2018-09-15T10:34:36Z</time>
      </trkpt>
      <trkpt lat="45.92464" lon="4.73706">
        <ele>174</ele>
        <time>2018-09-15T10:34:47Z</time>
      </trkpt>
      <trkpt lat="45.92464" lon="4.73706">
        <ele>174</ele>
        <time>2018-09-15T10:34:48Z</time>
      </trkpt>
      <trkpt lat="45.9246" lon="4.73711">
        <ele>174</ele>
        <time>2018-09-15T10:35:02.14Z</time>
      </trkpt>
    </trkseg>
  </trk>
</gpx>